<?xml version="1.0" encoding="UTF-8" standalone="no" ?>
<gpx xmlns="http://www.topografix.com/GPX/1/1" xmlns:xsi="http://www.w3.org/2001/XMLSchema-instance" xsi:schemaLocation="http://www.topografix.com/GPX/1/1 http://www.topografix.com/GPX/1/1/gpx.xsd" version="1.1" creator="VisuGPX - https://www.visugpx.com">
  <metadata>
    <name>Ecouges, Nan, Bourne</name>
    <desc><![CDATA[Boucle difficile parcourant les routes emblématiques et peu fréquentées du massif des Coulmes]]></desc>
  </metadata>
  <trk>
    <name><![CDATA[5213788-Ecouges, Gorges du Nan, Presles, Bourne]]></name>
    <trkseg>
      <trkpt lat="45.10677" lon="5.45998">
        <ele>1015</ele>
        <time>2018-02-03T16:11:32Z</time>
      </trkpt>
      <trkpt lat="45.10682" lon="5.45996">
        <ele>1015</ele>
        <time>2018-02-03T16:12:32Z</time>
      </trkpt>
      <trkpt lat="45.10686" lon="5.45994">
        <ele>1016</ele>
        <time>2018-02-03T16:13:32Z</time>
      </trkpt>
      <trkpt lat="45.1069" lon="5.45992">
        <ele>1017</ele>
        <time>2018-02-03T16:14:32Z</time>
      </trkpt>
      <trkpt lat="45.10694" lon="5.45989">
        <ele>1018</ele>
        <time>2018-02-03T16:15:32Z</time>
      </trkpt>
      <trkpt lat="45.10697" lon="5.45986">
        <ele>1018</ele>
        <time>2018-02-03T16:16:32Z</time>
      </trkpt>
      <trkpt lat="45.10701" lon="5.45982">
        <ele>1020</ele>
        <time>2018-02-03T16:17:32Z</time>
      </trkpt>
      <trkpt lat="45.10707" lon="5.45977">
        <ele>1021</ele>
        <time>2018-02-03T16:18:32Z</time>
      </trkpt>
      <trkpt lat="45.10714" lon="5.45971">
        <ele>1023</ele>
        <time>2018-02-03T16:19:32Z</time>
      </trkpt>
      <trkpt lat="45.10725" lon="5.45964">
        <ele>1026</ele>
        <time>2018-02-03T16:20:32Z</time>
      </trkpt>
      <trkpt lat="45.10731" lon="5.4596">
        <ele>1027</ele>
        <time>2018-02-03T16:21:32Z</time>
      </trkpt>
      <trkpt lat="45.1074" lon="5.45956">
        <ele>1029</ele>
        <time>2018-02-03T16:22:32Z</time>
      </trkpt>
      <trkpt lat="45.10746" lon="5.45953">
        <ele>1031</ele>
        <time>2018-02-03T16:23:32Z</time>
      </trkpt>
      <trkpt lat="45.10753" lon="5.45951">
        <ele>1032</ele>
        <time>2018-02-03T16:24:32Z</time>
      </trkpt>
      <trkpt lat="45.1076" lon="5.4595">
        <ele>1033</ele>
        <time>2018-02-03T16:25:32Z</time>
      </trkpt>
      <trkpt lat="45.10765" lon="5.4595">
        <ele>1033</ele>
        <time>2018-02-03T16:26:32Z</time>
      </trkpt>
      <trkpt lat="45.10777" lon="5.45952">
        <ele>1034</ele>
        <time>2018-02-03T16:27:32Z</time>
      </trkpt>
      <trkpt lat="45.10785" lon="5.45953">
        <ele>1034</ele>
        <time>2018-02-03T16:28:32Z</time>
      </trkpt>
      <trkpt lat="45.10791" lon="5.45955">
        <ele>1034</ele>
        <time>2018-02-03T16:29:32Z</time>
      </trkpt>
      <trkpt lat="45.10802" lon="5.4596">
        <ele>1034</ele>
        <time>2018-02-03T16:30:32Z</time>
      </trkpt>
      <trkpt lat="45.10811" lon="5.45964">
        <ele>1033</ele>
        <time>2018-02-03T16:31:32Z</time>
      </trkpt>
      <trkpt lat="45.10822" lon="5.45968">
        <ele>1033</ele>
        <time>2018-02-03T16:32:32Z</time>
      </trkpt>
      <trkpt lat="45.10829" lon="5.45968">
        <ele>1034</ele>
        <time>2018-02-03T16:33:32Z</time>
      </trkpt>
      <trkpt lat="45.10834" lon="5.45968">
        <ele>1034</ele>
        <time>2018-02-03T16:34:32Z</time>
      </trkpt>
      <trkpt lat="45.1084" lon="5.45967">
        <ele>1035</ele>
        <time>2018-02-03T16:35:32Z</time>
      </trkpt>
      <trkpt lat="45.10846" lon="5.45965">
        <ele>1036</ele>
        <time>2018-02-03T16:36:32Z</time>
      </trkpt>
      <trkpt lat="45.10851" lon="5.45962">
        <ele>1037</ele>
        <time>2018-02-03T16:37:32Z</time>
      </trkpt>
      <trkpt lat="45.10869" lon="5.45952">
        <ele>1041</ele>
        <time>2018-02-03T16:38:32Z</time>
      </trkpt>
      <trkpt lat="45.1088" lon="5.45945">
        <ele>1044</ele>
        <time>2018-02-03T16:39:32Z</time>
      </trkpt>
      <trkpt lat="45.1088" lon="5.45945">
        <ele>1044</ele>
        <time>2018-02-03T16:40:32Z</time>
      </trkpt>
      <trkpt lat="45.10887" lon="5.45941">
        <ele>1045</ele>
        <time>2018-02-03T16:41:32Z</time>
      </trkpt>
      <trkpt lat="45.10893" lon="5.4594">
        <ele>1046</ele>
        <time>2018-02-03T16:42:32Z</time>
      </trkpt>
      <trkpt lat="45.10899" lon="5.45939">
        <ele>1046</ele>
        <time>2018-02-03T16:43:32Z</time>
      </trkpt>
      <trkpt lat="45.10905" lon="5.4594">
        <ele>1046</ele>
        <time>2018-02-03T16:44:32Z</time>
      </trkpt>
      <trkpt lat="45.10915" lon="5.45947">
        <ele>1045</ele>
        <time>2018-02-03T16:45:32Z</time>
      </trkpt>
      <trkpt lat="45.10921" lon="5.45951">
        <ele>1045</ele>
        <time>2018-02-03T16:46:32Z</time>
      </trkpt>
      <trkpt lat="45.10932" lon="5.45958">
        <ele>1044</ele>
        <time>2018-02-03T16:47:32Z</time>
      </trkpt>
      <trkpt lat="45.10938" lon="5.4596">
        <ele>1044</ele>
        <time>2018-02-03T16:48:32Z</time>
      </trkpt>
      <trkpt lat="45.10945" lon="5.45961">
        <ele>1045</ele>
        <time>2018-02-03T16:49:32Z</time>
      </trkpt>
      <trkpt lat="45.10969" lon="5.45965">
        <ele>1046</ele>
        <time>2018-02-03T16:50:32Z</time>
      </trkpt>
      <trkpt lat="45.10998" lon="5.45969">
        <ele>1048</ele>
        <time>2018-02-03T16:51:32Z</time>
      </trkpt>
      <trkpt lat="45.11009" lon="5.4597">
        <ele>1049</ele>
        <time>2018-02-03T16:52:32Z</time>
      </trkpt>
      <trkpt lat="45.11021" lon="5.45972">
        <ele>1050</ele>
        <time>2018-02-03T16:53:32Z</time>
      </trkpt>
      <trkpt lat="45.11036" lon="5.45974">
        <ele>1052</ele>
        <time>2018-02-03T16:54:32Z</time>
      </trkpt>
      <trkpt lat="45.11041" lon="5.45975">
        <ele>1052</ele>
        <time>2018-02-03T16:55:32Z</time>
      </trkpt>
      <trkpt lat="45.11046" lon="5.45976">
        <ele>1052</ele>
        <time>2018-02-03T16:56:32Z</time>
      </trkpt>
      <trkpt lat="45.11053" lon="5.45979">
        <ele>1052</ele>
        <time>2018-02-03T16:57:32Z</time>
      </trkpt>
      <trkpt lat="45.11055" lon="5.4598">
        <ele>1052</ele>
        <time>2018-02-03T16:58:32Z</time>
      </trkpt>
      <trkpt lat="45.1106" lon="5.45981">
        <ele>1053</ele>
        <time>2018-02-03T16:59:32Z</time>
      </trkpt>
      <trkpt lat="45.11078" lon="5.45991">
        <ele>1052</ele>
        <time>2018-02-03T17:00:32Z</time>
      </trkpt>
      <trkpt lat="45.11083" lon="5.45994">
        <ele>1052</ele>
        <time>2018-02-03T17:01:32Z</time>
      </trkpt>
      <trkpt lat="45.11088" lon="5.45996">
        <ele>1053</ele>
        <time>2018-02-03T17:02:32Z</time>
      </trkpt>
      <trkpt lat="45.11094" lon="5.45998">
        <ele>1053</ele>
        <time>2018-02-03T17:03:32Z</time>
      </trkpt>
      <trkpt lat="45.111" lon="5.45999">
        <ele>1053</ele>
        <time>2018-02-03T17:04:32Z</time>
      </trkpt>
      <trkpt lat="45.11105" lon="5.45999">
        <ele>1054</ele>
        <time>2018-02-03T17:05:32Z</time>
      </trkpt>
      <trkpt lat="45.11105" lon="5.45999">
        <ele>1054</ele>
        <time>2018-02-03T17:06:32Z</time>
      </trkpt>
      <trkpt lat="45.11111" lon="5.45999">
        <ele>1055</ele>
        <time>2018-02-03T17:07:32Z</time>
      </trkpt>
      <trkpt lat="45.11116" lon="5.45998">
        <ele>1056</ele>
        <time>2018-02-03T17:08:32Z</time>
      </trkpt>
      <trkpt lat="45.1118" lon="5.45985">
        <ele>1066</ele>
        <time>2018-02-03T17:09:32Z</time>
      </trkpt>
      <trkpt lat="45.11205" lon="5.45979">
        <ele>1070</ele>
        <time>2018-02-03T17:10:32Z</time>
      </trkpt>
      <trkpt lat="45.11211" lon="5.45977">
        <ele>1071</ele>
        <time>2018-02-03T17:11:32Z</time>
      </trkpt>
      <trkpt lat="45.11219" lon="5.45973">
        <ele>1073</ele>
        <time>2018-02-03T17:12:32Z</time>
      </trkpt>
      <trkpt lat="45.11233" lon="5.45966">
        <ele>1076</ele>
        <time>2018-02-03T17:13:32Z</time>
      </trkpt>
      <trkpt lat="45.11245" lon="5.45959">
        <ele>1078</ele>
        <time>2018-02-03T17:14:32Z</time>
      </trkpt>
      <trkpt lat="45.11257" lon="5.45953">
        <ele>1081</ele>
        <time>2018-02-03T17:15:32Z</time>
      </trkpt>
      <trkpt lat="45.11288" lon="5.45942">
        <ele>1085</ele>
        <time>2018-02-03T17:16:32Z</time>
      </trkpt>
      <trkpt lat="45.113" lon="5.45941">
        <ele>1086</ele>
        <time>2018-02-03T17:17:32Z</time>
      </trkpt>
      <trkpt lat="45.11308" lon="5.45941">
        <ele>1086</ele>
        <time>2018-02-03T17:18:32Z</time>
      </trkpt>
      <trkpt lat="45.11312" lon="5.45942">
        <ele>1086</ele>
        <time>2018-02-03T17:19:32Z</time>
      </trkpt>
      <trkpt lat="45.11315" lon="5.45944">
        <ele>1086</ele>
        <time>2018-02-03T17:20:32Z</time>
      </trkpt>
      <trkpt lat="45.11323" lon="5.45949">
        <ele>1086</ele>
        <time>2018-02-03T17:21:32Z</time>
      </trkpt>
      <trkpt lat="45.1133" lon="5.45953">
        <ele>1086</ele>
        <time>2018-02-03T17:22:32Z</time>
      </trkpt>
      <trkpt lat="45.11337" lon="5.45957">
        <ele>1085</ele>
        <time>2018-02-03T17:23:32Z</time>
      </trkpt>
      <trkpt lat="45.11343" lon="5.45959">
        <ele>1085</ele>
        <time>2018-02-03T17:24:32Z</time>
      </trkpt>
      <trkpt lat="45.1135" lon="5.45961">
        <ele>1085</ele>
        <time>2018-02-03T17:25:32Z</time>
      </trkpt>
      <trkpt lat="45.1136" lon="5.45961">
        <ele>1086</ele>
        <time>2018-02-03T17:26:32Z</time>
      </trkpt>
      <trkpt lat="45.1136" lon="5.45961">
        <ele>1086</ele>
        <time>2018-02-03T17:27:32Z</time>
      </trkpt>
      <trkpt lat="45.11365" lon="5.45959">
        <ele>1087</ele>
        <time>2018-02-03T17:28:32Z</time>
      </trkpt>
      <trkpt lat="45.11375" lon="5.45954">
        <ele>1088</ele>
        <time>2018-02-03T17:29:32Z</time>
      </trkpt>
      <trkpt lat="45.11377" lon="5.45953">
        <ele>1088</ele>
        <time>2018-02-03T17:30:32Z</time>
      </trkpt>
      <trkpt lat="45.1139" lon="5.45948">
        <ele>1089</ele>
        <time>2018-02-03T17:31:32Z</time>
      </trkpt>
      <trkpt lat="45.1139" lon="5.45948">
        <ele>1089</ele>
        <time>2018-02-03T17:32:32Z</time>
      </trkpt>
      <trkpt lat="45.11388" lon="5.45954">
        <ele>1088</ele>
        <time>2018-02-03T17:33:32Z</time>
      </trkpt>
      <trkpt lat="45.11387" lon="5.45957">
        <ele>1088</ele>
        <time>2018-02-03T17:34:32Z</time>
      </trkpt>
      <trkpt lat="45.11387" lon="5.4596">
        <ele>1088</ele>
        <time>2018-02-03T17:35:32Z</time>
      </trkpt>
      <trkpt lat="45.11387" lon="5.45964">
        <ele>1087</ele>
        <time>2018-02-03T17:36:32Z</time>
      </trkpt>
      <trkpt lat="45.11388" lon="5.45968">
        <ele>1087</ele>
        <time>2018-02-03T17:37:32Z</time>
      </trkpt>
      <trkpt lat="45.11388" lon="5.4597">
        <ele>1087</ele>
        <time>2018-02-03T17:38:32Z</time>
      </trkpt>
      <trkpt lat="45.11391" lon="5.45976">
        <ele>1086</ele>
        <time>2018-02-03T17:39:32Z</time>
      </trkpt>
      <trkpt lat="45.11395" lon="5.45982">
        <ele>1086</ele>
        <time>2018-02-03T17:40:32Z</time>
      </trkpt>
      <trkpt lat="45.11399" lon="5.4599">
        <ele>1085</ele>
        <time>2018-02-03T17:41:32Z</time>
      </trkpt>
      <trkpt lat="45.11404" lon="5.45998">
        <ele>1085</ele>
        <time>2018-02-03T17:42:32Z</time>
      </trkpt>
      <trkpt lat="45.11408" lon="5.46007">
        <ele>1085</ele>
        <time>2018-02-03T17:43:32Z</time>
      </trkpt>
      <trkpt lat="45.11411" lon="5.46011">
        <ele>1085</ele>
        <time>2018-02-03T17:44:32Z</time>
      </trkpt>
      <trkpt lat="45.11414" lon="5.46015">
        <ele>1085</ele>
        <time>2018-02-03T17:45:32Z</time>
      </trkpt>
      <trkpt lat="45.11418" lon="5.4602">
        <ele>1085</ele>
        <time>2018-02-03T17:46:32Z</time>
      </trkpt>
      <trkpt lat="45.11423" lon="5.46023">
        <ele>1085</ele>
        <time>2018-02-03T17:47:32Z</time>
      </trkpt>
      <trkpt lat="45.11427" lon="5.46026">
        <ele>1085</ele>
        <time>2018-02-03T17:48:32Z</time>
      </trkpt>
      <trkpt lat="45.11432" lon="5.46027">
        <ele>1086</ele>
        <time>2018-02-03T17:49:32Z</time>
      </trkpt>
      <trkpt lat="45.11437" lon="5.46027">
        <ele>1086</ele>
        <time>2018-02-03T17:50:32Z</time>
      </trkpt>
      <trkpt lat="45.11441" lon="5.46027">
        <ele>1086</ele>
        <time>2018-02-03T17:51:32Z</time>
      </trkpt>
      <trkpt lat="45.11445" lon="5.46026">
        <ele>1087</ele>
        <time>2018-02-03T17:52:32Z</time>
      </trkpt>
      <trkpt lat="45.1145" lon="5.46024">
        <ele>1087</ele>
        <time>2018-02-03T17:53:32Z</time>
      </trkpt>
      <trkpt lat="45.11455" lon="5.46021">
        <ele>1088</ele>
        <time>2018-02-03T17:54:32Z</time>
      </trkpt>
      <trkpt lat="45.11461" lon="5.46016">
        <ele>1089</ele>
        <time>2018-02-03T17:55:32Z</time>
      </trkpt>
      <trkpt lat="45.11464" lon="5.46013">
        <ele>1089</ele>
        <time>2018-02-03T17:56:32Z</time>
      </trkpt>
      <trkpt lat="45.11468" lon="5.4601">
        <ele>1090</ele>
        <time>2018-02-03T17:57:32Z</time>
      </trkpt>
      <trkpt lat="45.11471" lon="5.46008">
        <ele>1091</ele>
        <time>2018-02-03T17:58:32Z</time>
      </trkpt>
      <trkpt lat="45.11473" lon="5.46007">
        <ele>1091</ele>
        <time>2018-02-03T17:59:32Z</time>
      </trkpt>
      <trkpt lat="45.11477" lon="5.46005">
        <ele>1091</ele>
        <time>2018-02-03T18:00:32Z</time>
      </trkpt>
      <trkpt lat="45.11481" lon="5.46004">
        <ele>1092</ele>
        <time>2018-02-03T18:01:32Z</time>
      </trkpt>
      <trkpt lat="45.11483" lon="5.46004">
        <ele>1092</ele>
        <time>2018-02-03T18:02:32Z</time>
      </trkpt>
      <trkpt lat="45.11489" lon="5.46005">
        <ele>1092</ele>
        <time>2018-02-03T18:03:32Z</time>
      </trkpt>
      <trkpt lat="45.11494" lon="5.46006">
        <ele>1093</ele>
        <time>2018-02-03T18:04:32Z</time>
      </trkpt>
      <trkpt lat="45.11501" lon="5.46008">
        <ele>1093</ele>
        <time>2018-02-03T18:05:32Z</time>
      </trkpt>
      <trkpt lat="45.11505" lon="5.4601">
        <ele>1094</ele>
        <time>2018-02-03T18:06:32Z</time>
      </trkpt>
      <trkpt lat="45.11509" lon="5.46013">
        <ele>1094</ele>
        <time>2018-02-03T18:07:32Z</time>
      </trkpt>
      <trkpt lat="45.11513" lon="5.46017">
        <ele>1094</ele>
        <time>2018-02-03T18:08:32Z</time>
      </trkpt>
      <trkpt lat="45.11516" lon="5.46021">
        <ele>1094</ele>
        <time>2018-02-03T18:09:32Z</time>
      </trkpt>
      <trkpt lat="45.11519" lon="5.46025">
        <ele>1094</ele>
        <time>2018-02-03T18:10:32Z</time>
      </trkpt>
      <trkpt lat="45.11523" lon="5.46033">
        <ele>1094</ele>
        <time>2018-02-03T18:11:32Z</time>
      </trkpt>
      <trkpt lat="45.11524" lon="5.46039">
        <ele>1094</ele>
        <time>2018-02-03T18:12:32Z</time>
      </trkpt>
      <trkpt lat="45.11526" lon="5.46045">
        <ele>1093</ele>
        <time>2018-02-03T18:13:32Z</time>
      </trkpt>
      <trkpt lat="45.11528" lon="5.46055">
        <ele>1093</ele>
        <time>2018-02-03T18:14:32Z</time>
      </trkpt>
      <trkpt lat="45.11529" lon="5.46064">
        <ele>1093</ele>
        <time>2018-02-03T18:15:32Z</time>
      </trkpt>
      <trkpt lat="45.11531" lon="5.4607">
        <ele>1092</ele>
        <time>2018-02-03T18:16:32Z</time>
      </trkpt>
      <trkpt lat="45.11533" lon="5.46075">
        <ele>1092</ele>
        <time>2018-02-03T18:17:32Z</time>
      </trkpt>
      <trkpt lat="45.11536" lon="5.46079">
        <ele>1093</ele>
        <time>2018-02-03T18:18:32Z</time>
      </trkpt>
      <trkpt lat="45.1154" lon="5.46083">
        <ele>1093</ele>
        <time>2018-02-03T18:19:32Z</time>
      </trkpt>
      <trkpt lat="45.11544" lon="5.46086">
        <ele>1093</ele>
        <time>2018-02-03T18:20:32Z</time>
      </trkpt>
      <trkpt lat="45.11548" lon="5.46089">
        <ele>1094</ele>
        <time>2018-02-03T18:21:32Z</time>
      </trkpt>
      <trkpt lat="45.11552" lon="5.46091">
        <ele>1094</ele>
        <time>2018-02-03T18:22:32Z</time>
      </trkpt>
      <trkpt lat="45.11559" lon="5.46096">
        <ele>1094</ele>
        <time>2018-02-03T18:23:32Z</time>
      </trkpt>
      <trkpt lat="45.11563" lon="5.461">
        <ele>1094</ele>
        <time>2018-02-03T18:24:32Z</time>
      </trkpt>
      <trkpt lat="45.11566" lon="5.46103">
        <ele>1094</ele>
        <time>2018-02-03T18:25:32Z</time>
      </trkpt>
      <trkpt lat="45.11571" lon="5.46108">
        <ele>1094</ele>
        <time>2018-02-03T18:26:32Z</time>
      </trkpt>
      <trkpt lat="45.11575" lon="5.46114">
        <ele>1093</ele>
        <time>2018-02-03T18:27:32Z</time>
      </trkpt>
      <trkpt lat="45.11579" lon="5.46119">
        <ele>1093</ele>
        <time>2018-02-03T18:28:32Z</time>
      </trkpt>
      <trkpt lat="45.11583" lon="5.46126">
        <ele>1092</ele>
        <time>2018-02-03T18:29:32Z</time>
      </trkpt>
      <trkpt lat="45.11587" lon="5.46133">
        <ele>1091</ele>
        <time>2018-02-03T18:30:32Z</time>
      </trkpt>
      <trkpt lat="45.1159" lon="5.46136">
        <ele>1091</ele>
        <time>2018-02-03T18:31:32Z</time>
      </trkpt>
      <trkpt lat="45.11595" lon="5.46141">
        <ele>1091</ele>
        <time>2018-02-03T18:32:32Z</time>
      </trkpt>
      <trkpt lat="45.116" lon="5.46146">
        <ele>1090</ele>
        <time>2018-02-03T18:33:32Z</time>
      </trkpt>
      <trkpt lat="45.11605" lon="5.46149">
        <ele>1090</ele>
        <time>2018-02-03T18:34:32Z</time>
      </trkpt>
      <trkpt lat="45.11619" lon="5.46156">
        <ele>1090</ele>
        <time>2018-02-03T18:35:32Z</time>
      </trkpt>
      <trkpt lat="45.11629" lon="5.46162">
        <ele>1090</ele>
        <time>2018-02-03T18:36:32Z</time>
      </trkpt>
      <trkpt lat="45.11648" lon="5.46173">
        <ele>1091</ele>
        <time>2018-02-03T18:37:32Z</time>
      </trkpt>
      <trkpt lat="45.11664" lon="5.46183">
        <ele>1092</ele>
        <time>2018-02-03T18:38:32Z</time>
      </trkpt>
      <trkpt lat="45.11669" lon="5.46186">
        <ele>1093</ele>
        <time>2018-02-03T18:39:32Z</time>
      </trkpt>
      <trkpt lat="45.11674" lon="5.4619">
        <ele>1093</ele>
        <time>2018-02-03T18:40:32Z</time>
      </trkpt>
      <trkpt lat="45.11678" lon="5.46194">
        <ele>1093</ele>
        <time>2018-02-03T18:41:32Z</time>
      </trkpt>
      <trkpt lat="45.11681" lon="5.46199">
        <ele>1092</ele>
        <time>2018-02-03T18:42:32Z</time>
      </trkpt>
      <trkpt lat="45.11685" lon="5.46207">
        <ele>1092</ele>
        <time>2018-02-03T18:43:32Z</time>
      </trkpt>
      <trkpt lat="45.11687" lon="5.46211">
        <ele>1092</ele>
        <time>2018-02-03T18:44:32Z</time>
      </trkpt>
      <trkpt lat="45.11689" lon="5.46216">
        <ele>1092</ele>
        <time>2018-02-03T18:45:32Z</time>
      </trkpt>
      <trkpt lat="45.11691" lon="5.46224">
        <ele>1091</ele>
        <time>2018-02-03T18:46:32Z</time>
      </trkpt>
      <trkpt lat="45.11692" lon="5.4623">
        <ele>1091</ele>
        <time>2018-02-03T18:47:32Z</time>
      </trkpt>
      <trkpt lat="45.11693" lon="5.46241">
        <ele>1090</ele>
        <time>2018-02-03T18:48:32Z</time>
      </trkpt>
      <trkpt lat="45.11693" lon="5.46254">
        <ele>1090</ele>
        <time>2018-02-03T18:49:32Z</time>
      </trkpt>
      <trkpt lat="45.1169" lon="5.46293">
        <ele>1090</ele>
        <time>2018-02-03T18:50:32Z</time>
      </trkpt>
      <trkpt lat="45.1169" lon="5.46307">
        <ele>1091</ele>
        <time>2018-02-03T18:51:32Z</time>
      </trkpt>
      <trkpt lat="45.11692" lon="5.46318">
        <ele>1091</ele>
        <time>2018-02-03T18:52:32Z</time>
      </trkpt>
      <trkpt lat="45.11695" lon="5.46326">
        <ele>1092</ele>
        <time>2018-02-03T18:53:32Z</time>
      </trkpt>
      <trkpt lat="45.11704" lon="5.46341">
        <ele>1092</ele>
        <time>2018-02-03T18:54:32Z</time>
      </trkpt>
      <trkpt lat="45.11709" lon="5.46349">
        <ele>1092</ele>
        <time>2018-02-03T18:55:32Z</time>
      </trkpt>
      <trkpt lat="45.11717" lon="5.46357">
        <ele>1092</ele>
        <time>2018-02-03T18:56:32Z</time>
      </trkpt>
      <trkpt lat="45.11741" lon="5.46382">
        <ele>1091</ele>
        <time>2018-02-03T18:57:32Z</time>
      </trkpt>
      <trkpt lat="45.11751" lon="5.46391">
        <ele>1091</ele>
        <time>2018-02-03T18:58:32Z</time>
      </trkpt>
      <trkpt lat="45.11759" lon="5.464">
        <ele>1090</ele>
        <time>2018-02-03T18:59:32Z</time>
      </trkpt>
      <trkpt lat="45.11767" lon="5.46405">
        <ele>1090</ele>
        <time>2018-02-03T19:00:32Z</time>
      </trkpt>
      <trkpt lat="45.11774" lon="5.46411">
        <ele>1090</ele>
        <time>2018-02-03T19:01:32Z</time>
      </trkpt>
      <trkpt lat="45.11782" lon="5.46415">
        <ele>1090</ele>
        <time>2018-02-03T19:02:32Z</time>
      </trkpt>
      <trkpt lat="45.1179" lon="5.46419">
        <ele>1090</ele>
        <time>2018-02-03T19:03:32Z</time>
      </trkpt>
      <trkpt lat="45.11796" lon="5.4642">
        <ele>1090</ele>
        <time>2018-02-03T19:04:32Z</time>
      </trkpt>
      <trkpt lat="45.11808" lon="5.46423">
        <ele>1090</ele>
        <time>2018-02-03T19:05:32Z</time>
      </trkpt>
      <trkpt lat="45.11813" lon="5.46423">
        <ele>1090</ele>
        <time>2018-02-03T19:06:32Z</time>
      </trkpt>
      <trkpt lat="45.11821" lon="5.46424">
        <ele>1091</ele>
        <time>2018-02-03T19:07:32Z</time>
      </trkpt>
      <trkpt lat="45.11828" lon="5.46426">
        <ele>1091</ele>
        <time>2018-02-03T19:08:32Z</time>
      </trkpt>
      <trkpt lat="45.11834" lon="5.46428">
        <ele>1091</ele>
        <time>2018-02-03T19:09:32Z</time>
      </trkpt>
      <trkpt lat="45.11841" lon="5.46432">
        <ele>1091</ele>
        <time>2018-02-03T19:10:32Z</time>
      </trkpt>
      <trkpt lat="45.11849" lon="5.46437">
        <ele>1091</ele>
        <time>2018-02-03T19:11:32Z</time>
      </trkpt>
      <trkpt lat="45.11862" lon="5.46446">
        <ele>1090</ele>
        <time>2018-02-03T19:12:32Z</time>
      </trkpt>
      <trkpt lat="45.1188" lon="5.46455">
        <ele>1090</ele>
        <time>2018-02-03T19:13:32Z</time>
      </trkpt>
      <trkpt lat="45.11897" lon="5.46462">
        <ele>1090</ele>
        <time>2018-02-03T19:14:32Z</time>
      </trkpt>
      <trkpt lat="45.11908" lon="5.46468">
        <ele>1089</ele>
        <time>2018-02-03T19:15:32Z</time>
      </trkpt>
      <trkpt lat="45.11915" lon="5.46472">
        <ele>1089</ele>
        <time>2018-02-03T19:16:32Z</time>
      </trkpt>
      <trkpt lat="45.11923" lon="5.4648">
        <ele>1089</ele>
        <time>2018-02-03T19:17:32Z</time>
      </trkpt>
      <trkpt lat="45.11931" lon="5.46491">
        <ele>1089</ele>
        <time>2018-02-03T19:18:32Z</time>
      </trkpt>
      <trkpt lat="45.11937" lon="5.46506">
        <ele>1088</ele>
        <time>2018-02-03T19:19:32Z</time>
      </trkpt>
      <trkpt lat="45.11943" lon="5.46522">
        <ele>1087</ele>
        <time>2018-02-03T19:20:32Z</time>
      </trkpt>
      <trkpt lat="45.1195" lon="5.46551">
        <ele>1085</ele>
        <time>2018-02-03T19:21:32Z</time>
      </trkpt>
      <trkpt lat="45.11951" lon="5.46553">
        <ele>1085</ele>
        <time>2018-02-03T19:22:32Z</time>
      </trkpt>
      <trkpt lat="45.11954" lon="5.46561">
        <ele>1085</ele>
        <time>2018-02-03T19:23:32Z</time>
      </trkpt>
      <trkpt lat="45.11957" lon="5.46566">
        <ele>1085</ele>
        <time>2018-02-03T19:24:32Z</time>
      </trkpt>
      <trkpt lat="45.1196" lon="5.46569">
        <ele>1085</ele>
        <time>2018-02-03T19:25:32Z</time>
      </trkpt>
      <trkpt lat="45.11965" lon="5.46574">
        <ele>1085</ele>
        <time>2018-02-03T19:26:32Z</time>
      </trkpt>
      <trkpt lat="45.1197" lon="5.46578">
        <ele>1085</ele>
        <time>2018-02-03T19:27:32Z</time>
      </trkpt>
      <trkpt lat="45.11974" lon="5.46581">
        <ele>1085</ele>
        <time>2018-02-03T19:28:32Z</time>
      </trkpt>
      <trkpt lat="45.1199" lon="5.4659">
        <ele>1085</ele>
        <time>2018-02-03T19:29:32Z</time>
      </trkpt>
      <trkpt lat="45.11997" lon="5.46594">
        <ele>1085</ele>
        <time>2018-02-03T19:30:32Z</time>
      </trkpt>
      <trkpt lat="45.12014" lon="5.46603">
        <ele>1085</ele>
        <time>2018-02-03T19:31:32Z</time>
      </trkpt>
      <trkpt lat="45.12027" lon="5.46609">
        <ele>1085</ele>
        <time>2018-02-03T19:32:32Z</time>
      </trkpt>
      <trkpt lat="45.12027" lon="5.46609">
        <ele>1085</ele>
        <time>2018-02-03T19:33:32Z</time>
      </trkpt>
      <trkpt lat="45.12039" lon="5.46616">
        <ele>1085</ele>
        <time>2018-02-03T19:34:32Z</time>
      </trkpt>
      <trkpt lat="45.12049" lon="5.46622">
        <ele>1085</ele>
        <time>2018-02-03T19:35:32Z</time>
      </trkpt>
      <trkpt lat="45.12056" lon="5.46628">
        <ele>1084</ele>
        <time>2018-02-03T19:36:32Z</time>
      </trkpt>
      <trkpt lat="45.12062" lon="5.46632">
        <ele>1084</ele>
        <time>2018-02-03T19:37:32Z</time>
      </trkpt>
      <trkpt lat="45.12072" lon="5.46641">
        <ele>1083</ele>
        <time>2018-02-03T19:38:32Z</time>
      </trkpt>
      <trkpt lat="45.1208" lon="5.4665">
        <ele>1081</ele>
        <time>2018-02-03T19:39:32Z</time>
      </trkpt>
      <trkpt lat="45.12092" lon="5.4666">
        <ele>1080</ele>
        <time>2018-02-03T19:40:32Z</time>
      </trkpt>
      <trkpt lat="45.12097" lon="5.46664">
        <ele>1079</ele>
        <time>2018-02-03T19:41:32Z</time>
      </trkpt>
      <trkpt lat="45.12105" lon="5.46668">
        <ele>1078</ele>
        <time>2018-02-03T19:42:32Z</time>
      </trkpt>
      <trkpt lat="45.12111" lon="5.4667">
        <ele>1078</ele>
        <time>2018-02-03T19:43:32Z</time>
      </trkpt>
      <trkpt lat="45.12134" lon="5.46677">
        <ele>1078</ele>
        <time>2018-02-03T19:44:32Z</time>
      </trkpt>
      <trkpt lat="45.12148" lon="5.46681">
        <ele>1078</ele>
        <time>2018-02-03T19:45:32Z</time>
      </trkpt>
      <trkpt lat="45.12158" lon="5.46685">
        <ele>1078</ele>
        <time>2018-02-03T19:46:32Z</time>
      </trkpt>
      <trkpt lat="45.12163" lon="5.46689">
        <ele>1078</ele>
        <time>2018-02-03T19:47:32Z</time>
      </trkpt>
      <trkpt lat="45.1217" lon="5.46694">
        <ele>1078</ele>
        <time>2018-02-03T19:48:32Z</time>
      </trkpt>
      <trkpt lat="45.12177" lon="5.46702">
        <ele>1078</ele>
        <time>2018-02-03T19:49:32Z</time>
      </trkpt>
      <trkpt lat="45.12183" lon="5.46713">
        <ele>1078</ele>
        <time>2018-02-03T19:50:32Z</time>
      </trkpt>
      <trkpt lat="45.12192" lon="5.46727">
        <ele>1077</ele>
        <time>2018-02-03T19:51:32Z</time>
      </trkpt>
      <trkpt lat="45.12201" lon="5.4674">
        <ele>1077</ele>
        <time>2018-02-03T19:52:32Z</time>
      </trkpt>
      <trkpt lat="45.12212" lon="5.46754">
        <ele>1078</ele>
        <time>2018-02-03T19:53:32Z</time>
      </trkpt>
      <trkpt lat="45.12222" lon="5.46765">
        <ele>1079</ele>
        <time>2018-02-03T19:54:32Z</time>
      </trkpt>
      <trkpt lat="45.12245" lon="5.46785">
        <ele>1081</ele>
        <time>2018-02-03T19:55:32Z</time>
      </trkpt>
      <trkpt lat="45.12256" lon="5.46796">
        <ele>1081</ele>
        <time>2018-02-03T19:56:32Z</time>
      </trkpt>
      <trkpt lat="45.12268" lon="5.4681">
        <ele>1081</ele>
        <time>2018-02-03T19:57:32Z</time>
      </trkpt>
      <trkpt lat="45.12293" lon="5.46837">
        <ele>1079</ele>
        <time>2018-02-03T19:58:32Z</time>
      </trkpt>
      <trkpt lat="45.12318" lon="5.4686">
        <ele>1077</ele>
        <time>2018-02-03T19:59:32Z</time>
      </trkpt>
      <trkpt lat="45.12355" lon="5.46893">
        <ele>1077</ele>
        <time>2018-02-03T20:00:32Z</time>
      </trkpt>
      <trkpt lat="45.12377" lon="5.46913">
        <ele>1077</ele>
        <time>2018-02-03T20:01:32Z</time>
      </trkpt>
      <trkpt lat="45.12396" lon="5.4693">
        <ele>1077</ele>
        <time>2018-02-03T20:02:32Z</time>
      </trkpt>
      <trkpt lat="45.1242" lon="5.46952">
        <ele>1078</ele>
        <time>2018-02-03T20:03:32Z</time>
      </trkpt>
      <trkpt lat="45.12435" lon="5.46963">
        <ele>1079</ele>
        <time>2018-02-03T20:04:32Z</time>
      </trkpt>
      <trkpt lat="45.12454" lon="5.46973">
        <ele>1080</ele>
        <time>2018-02-03T20:05:32Z</time>
      </trkpt>
      <trkpt lat="45.12482" lon="5.46982">
        <ele>1082</ele>
        <time>2018-02-03T20:06:32Z</time>
      </trkpt>
      <trkpt lat="45.125" lon="5.46989">
        <ele>1082</ele>
        <time>2018-02-03T20:07:32Z</time>
      </trkpt>
      <trkpt lat="45.12518" lon="5.46996">
        <ele>1083</ele>
        <time>2018-02-03T20:08:32Z</time>
      </trkpt>
      <trkpt lat="45.12542" lon="5.4701">
        <ele>1083</ele>
        <time>2018-02-03T20:09:32Z</time>
      </trkpt>
      <trkpt lat="45.12553" lon="5.47012">
        <ele>1083</ele>
        <time>2018-02-03T20:10:32Z</time>
      </trkpt>
      <trkpt lat="45.12561" lon="5.47013">
        <ele>1084</ele>
        <time>2018-02-03T20:11:32Z</time>
      </trkpt>
      <trkpt lat="45.12575" lon="5.47014">
        <ele>1085</ele>
        <time>2018-02-03T20:12:32Z</time>
      </trkpt>
      <trkpt lat="45.12582" lon="5.47017">
        <ele>1085</ele>
        <time>2018-02-03T20:13:32Z</time>
      </trkpt>
      <trkpt lat="45.12588" lon="5.47021">
        <ele>1084</ele>
        <time>2018-02-03T20:14:32Z</time>
      </trkpt>
      <trkpt lat="45.12596" lon="5.47027">
        <ele>1083</ele>
        <time>2018-02-03T20:15:32Z</time>
      </trkpt>
      <trkpt lat="45.12605" lon="5.47035">
        <ele>1081</ele>
        <time>2018-02-03T20:16:32Z</time>
      </trkpt>
      <trkpt lat="45.12612" lon="5.47043">
        <ele>1079</ele>
        <time>2018-02-03T20:17:32Z</time>
      </trkpt>
      <trkpt lat="45.12618" lon="5.47054">
        <ele>1076</ele>
        <time>2018-02-03T20:18:32Z</time>
      </trkpt>
      <trkpt lat="45.12627" lon="5.47074">
        <ele>1072</ele>
        <time>2018-02-03T20:19:32Z</time>
      </trkpt>
      <trkpt lat="45.12644" lon="5.471">
        <ele>1069</ele>
        <time>2018-02-03T20:20:32Z</time>
      </trkpt>
      <trkpt lat="45.12654" lon="5.47119">
        <ele>1068</ele>
        <time>2018-02-03T20:21:32Z</time>
      </trkpt>
      <trkpt lat="45.1267" lon="5.4715">
        <ele>1067</ele>
        <time>2018-02-03T20:22:32Z</time>
      </trkpt>
      <trkpt lat="45.12677" lon="5.47163">
        <ele>1066</ele>
        <time>2018-02-03T20:23:32Z</time>
      </trkpt>
      <trkpt lat="45.12683" lon="5.47171">
        <ele>1065</ele>
        <time>2018-02-03T20:24:32Z</time>
      </trkpt>
      <trkpt lat="45.12687" lon="5.47176">
        <ele>1065</ele>
        <time>2018-02-03T20:25:32Z</time>
      </trkpt>
      <trkpt lat="45.12696" lon="5.47183">
        <ele>1064</ele>
        <time>2018-02-03T20:26:32Z</time>
      </trkpt>
      <trkpt lat="45.12713" lon="5.47192">
        <ele>1064</ele>
        <time>2018-02-03T20:27:32Z</time>
      </trkpt>
      <trkpt lat="45.12726" lon="5.47198">
        <ele>1064</ele>
        <time>2018-02-03T20:28:32Z</time>
      </trkpt>
      <trkpt lat="45.12732" lon="5.472">
        <ele>1065</ele>
        <time>2018-02-03T20:29:32Z</time>
      </trkpt>
      <trkpt lat="45.12739" lon="5.47206">
        <ele>1064</ele>
        <time>2018-02-03T20:30:32Z</time>
      </trkpt>
      <trkpt lat="45.12747" lon="5.47214">
        <ele>1064</ele>
        <time>2018-02-03T20:31:32Z</time>
      </trkpt>
      <trkpt lat="45.12748" lon="5.47214">
        <ele>1064</ele>
        <time>2018-02-03T20:32:32Z</time>
      </trkpt>
      <trkpt lat="45.12758" lon="5.47227">
        <ele>1063</ele>
        <time>2018-02-03T20:33:32Z</time>
      </trkpt>
      <trkpt lat="45.12765" lon="5.47239">
        <ele>1062</ele>
        <time>2018-02-03T20:34:32Z</time>
      </trkpt>
      <trkpt lat="45.12773" lon="5.47252">
        <ele>1060</ele>
        <time>2018-02-03T20:35:32Z</time>
      </trkpt>
      <trkpt lat="45.12779" lon="5.47263">
        <ele>1059</ele>
        <time>2018-02-03T20:36:32Z</time>
      </trkpt>
      <trkpt lat="45.12786" lon="5.47271">
        <ele>1058</ele>
        <time>2018-02-03T20:37:32Z</time>
      </trkpt>
      <trkpt lat="45.12792" lon="5.47276">
        <ele>1057</ele>
        <time>2018-02-03T20:38:32Z</time>
      </trkpt>
      <trkpt lat="45.12803" lon="5.47285">
        <ele>1056</ele>
        <time>2018-02-03T20:39:32Z</time>
      </trkpt>
      <trkpt lat="45.12812" lon="5.47295">
        <ele>1055</ele>
        <time>2018-02-03T20:40:32Z</time>
      </trkpt>
      <trkpt lat="45.12827" lon="5.4731">
        <ele>1054</ele>
        <time>2018-02-03T20:41:32Z</time>
      </trkpt>
      <trkpt lat="45.12839" lon="5.47321">
        <ele>1053</ele>
        <time>2018-02-03T20:42:32Z</time>
      </trkpt>
      <trkpt lat="45.12862" lon="5.47342">
        <ele>1050</ele>
        <time>2018-02-03T20:43:32Z</time>
      </trkpt>
      <trkpt lat="45.12875" lon="5.47352">
        <ele>1048</ele>
        <time>2018-02-03T20:44:32Z</time>
      </trkpt>
      <trkpt lat="45.12902" lon="5.47372">
        <ele>1044</ele>
        <time>2018-02-03T20:45:32Z</time>
      </trkpt>
      <trkpt lat="45.12944" lon="5.47405">
        <ele>1040</ele>
        <time>2018-02-03T20:46:32Z</time>
      </trkpt>
      <trkpt lat="45.12973" lon="5.47427">
        <ele>1040</ele>
        <time>2018-02-03T20:47:32Z</time>
      </trkpt>
      <trkpt lat="45.13015" lon="5.47462">
        <ele>1037</ele>
        <time>2018-02-03T20:48:32Z</time>
      </trkpt>
      <trkpt lat="45.13053" lon="5.47495">
        <ele>1032</ele>
        <time>2018-02-03T20:49:32Z</time>
      </trkpt>
      <trkpt lat="45.13081" lon="5.4752">
        <ele>1029</ele>
        <time>2018-02-03T20:50:32Z</time>
      </trkpt>
      <trkpt lat="45.13109" lon="5.47548">
        <ele>1026</ele>
        <time>2018-02-03T20:51:32Z</time>
      </trkpt>
      <trkpt lat="45.13124" lon="5.47569">
        <ele>1022</ele>
        <time>2018-02-03T20:52:32Z</time>
      </trkpt>
      <trkpt lat="45.13143" lon="5.47589">
        <ele>1020</ele>
        <time>2018-02-03T20:53:32Z</time>
      </trkpt>
      <trkpt lat="45.13153" lon="5.47601">
        <ele>1020</ele>
        <time>2018-02-03T20:54:32Z</time>
      </trkpt>
      <trkpt lat="45.13157" lon="5.47605">
        <ele>1020</ele>
        <time>2018-02-03T20:55:32Z</time>
      </trkpt>
      <trkpt lat="45.13163" lon="5.47616">
        <ele>1019</ele>
        <time>2018-02-03T20:56:32Z</time>
      </trkpt>
      <trkpt lat="45.13163" lon="5.47616">
        <ele>1019</ele>
        <time>2018-02-03T20:57:32Z</time>
      </trkpt>
      <trkpt lat="45.13194" lon="5.47625">
        <ele>1020</ele>
        <time>2018-02-03T20:58:32Z</time>
      </trkpt>
      <trkpt lat="45.13229" lon="5.47635">
        <ele>1021</ele>
        <time>2018-02-03T20:59:32Z</time>
      </trkpt>
      <trkpt lat="45.13263" lon="5.47645">
        <ele>1022</ele>
        <time>2018-02-03T21:00:32Z</time>
      </trkpt>
      <trkpt lat="45.13286" lon="5.4765">
        <ele>1023</ele>
        <time>2018-02-03T21:01:32Z</time>
      </trkpt>
      <trkpt lat="45.13298" lon="5.47654">
        <ele>1023</ele>
        <time>2018-02-03T21:02:32Z</time>
      </trkpt>
      <trkpt lat="45.13306" lon="5.4766">
        <ele>1022</ele>
        <time>2018-02-03T21:03:32Z</time>
      </trkpt>
      <trkpt lat="45.13314" lon="5.47667">
        <ele>1021</ele>
        <time>2018-02-03T21:04:32Z</time>
      </trkpt>
      <trkpt lat="45.13319" lon="5.47671">
        <ele>1021</ele>
        <time>2018-02-03T21:05:32Z</time>
      </trkpt>
      <trkpt lat="45.13323" lon="5.47674">
        <ele>1021</ele>
        <time>2018-02-03T21:06:32Z</time>
      </trkpt>
      <trkpt lat="45.13331" lon="5.47679">
        <ele>1022</ele>
        <time>2018-02-03T21:07:32Z</time>
      </trkpt>
      <trkpt lat="45.13366" lon="5.4769">
        <ele>1024</ele>
        <time>2018-02-03T21:08:32Z</time>
      </trkpt>
      <trkpt lat="45.13404" lon="5.47703">
        <ele>1026</ele>
        <time>2018-02-03T21:09:32Z</time>
      </trkpt>
      <trkpt lat="45.13447" lon="5.47718">
        <ele>1029</ele>
        <time>2018-02-03T21:10:32Z</time>
      </trkpt>
      <trkpt lat="45.13486" lon="5.47729">
        <ele>1030</ele>
        <time>2018-02-03T21:11:32Z</time>
      </trkpt>
      <trkpt lat="45.13526" lon="5.47741">
        <ele>1030</ele>
        <time>2018-02-03T21:12:32Z</time>
      </trkpt>
      <trkpt lat="45.1356" lon="5.4775">
        <ele>1031</ele>
        <time>2018-02-03T21:13:32Z</time>
      </trkpt>
      <trkpt lat="45.13595" lon="5.47761">
        <ele>1034</ele>
        <time>2018-02-03T21:14:32Z</time>
      </trkpt>
      <trkpt lat="45.13631" lon="5.47772">
        <ele>1038</ele>
        <time>2018-02-03T21:15:32Z</time>
      </trkpt>
      <trkpt lat="45.13662" lon="5.47783">
        <ele>1039</ele>
        <time>2018-02-03T21:16:32Z</time>
      </trkpt>
      <trkpt lat="45.13672" lon="5.47787">
        <ele>1040</ele>
        <time>2018-02-03T21:17:32Z</time>
      </trkpt>
      <trkpt lat="45.1369" lon="5.47794">
        <ele>1040</ele>
        <time>2018-02-03T21:18:32Z</time>
      </trkpt>
      <trkpt lat="45.13719" lon="5.47805">
        <ele>1040</ele>
        <time>2018-02-03T21:19:32Z</time>
      </trkpt>
      <trkpt lat="45.13746" lon="5.47816">
        <ele>1039</ele>
        <time>2018-02-03T21:20:32Z</time>
      </trkpt>
      <trkpt lat="45.13779" lon="5.47828">
        <ele>1038</ele>
        <time>2018-02-03T21:21:32Z</time>
      </trkpt>
      <trkpt lat="45.138" lon="5.47835">
        <ele>1038</ele>
        <time>2018-02-03T21:22:32Z</time>
      </trkpt>
      <trkpt lat="45.13831" lon="5.47843">
        <ele>1039</ele>
        <time>2018-02-03T21:23:32Z</time>
      </trkpt>
      <trkpt lat="45.13867" lon="5.47849">
        <ele>1045</ele>
        <time>2018-02-03T21:24:32Z</time>
      </trkpt>
      <trkpt lat="45.13905" lon="5.47858">
        <ele>1049</ele>
        <time>2018-02-03T21:25:32Z</time>
      </trkpt>
      <trkpt lat="45.13932" lon="5.47863">
        <ele>1052</ele>
        <time>2018-02-03T21:26:32Z</time>
      </trkpt>
      <trkpt lat="45.13958" lon="5.47869">
        <ele>1053</ele>
        <time>2018-02-03T21:27:32Z</time>
      </trkpt>
      <trkpt lat="45.13977" lon="5.47871">
        <ele>1055</ele>
        <time>2018-02-03T21:28:32Z</time>
      </trkpt>
      <trkpt lat="45.13992" lon="5.47872">
        <ele>1056</ele>
        <time>2018-02-03T21:29:32Z</time>
      </trkpt>
      <trkpt lat="45.14006" lon="5.47871">
        <ele>1057</ele>
        <time>2018-02-03T21:30:32Z</time>
      </trkpt>
      <trkpt lat="45.14022" lon="5.47871">
        <ele>1057</ele>
        <time>2018-02-03T21:31:32Z</time>
      </trkpt>
      <trkpt lat="45.14037" lon="5.47874">
        <ele>1057</ele>
        <time>2018-02-03T21:32:32Z</time>
      </trkpt>
      <trkpt lat="45.14056" lon="5.47879">
        <ele>1057</ele>
        <time>2018-02-03T21:33:32Z</time>
      </trkpt>
      <trkpt lat="45.14087" lon="5.47883">
        <ele>1057</ele>
        <time>2018-02-03T21:34:32Z</time>
      </trkpt>
      <trkpt lat="45.14106" lon="5.47884">
        <ele>1059</ele>
        <time>2018-02-03T21:35:32Z</time>
      </trkpt>
      <trkpt lat="45.14123" lon="5.47886">
        <ele>1060</ele>
        <time>2018-02-03T21:36:32Z</time>
      </trkpt>
      <trkpt lat="45.14138" lon="5.47891">
        <ele>1061</ele>
        <time>2018-02-03T21:37:32Z</time>
      </trkpt>
      <trkpt lat="45.14165" lon="5.47904">
        <ele>1060</ele>
        <time>2018-02-03T21:38:32Z</time>
      </trkpt>
      <trkpt lat="45.14179" lon="5.47911">
        <ele>1060</ele>
        <time>2018-02-03T21:39:32Z</time>
      </trkpt>
      <trkpt lat="45.14187" lon="5.47915">
        <ele>1060</ele>
        <time>2018-02-03T21:40:32Z</time>
      </trkpt>
      <trkpt lat="45.1421" lon="5.47926">
        <ele>1062</ele>
        <time>2018-02-03T21:41:32Z</time>
      </trkpt>
      <trkpt lat="45.14236" lon="5.47939">
        <ele>1064</ele>
        <time>2018-02-03T21:42:32Z</time>
      </trkpt>
      <trkpt lat="45.14257" lon="5.47955">
        <ele>1066</ele>
        <time>2018-02-03T21:43:32Z</time>
      </trkpt>
      <trkpt lat="45.14271" lon="5.47967">
        <ele>1067</ele>
        <time>2018-02-03T21:44:32Z</time>
      </trkpt>
      <trkpt lat="45.14283" lon="5.47974">
        <ele>1068</ele>
        <time>2018-02-03T21:45:32Z</time>
      </trkpt>
      <trkpt lat="45.14295" lon="5.47979">
        <ele>1069</ele>
        <time>2018-02-03T21:46:32Z</time>
      </trkpt>
      <trkpt lat="45.14306" lon="5.47981">
        <ele>1070</ele>
        <time>2018-02-03T21:47:32Z</time>
      </trkpt>
      <trkpt lat="45.14316" lon="5.47979">
        <ele>1071</ele>
        <time>2018-02-03T21:48:32Z</time>
      </trkpt>
      <trkpt lat="45.1434" lon="5.47974">
        <ele>1072</ele>
        <time>2018-02-03T21:49:32Z</time>
      </trkpt>
      <trkpt lat="45.14363" lon="5.47969">
        <ele>1072</ele>
        <time>2018-02-03T21:50:32Z</time>
      </trkpt>
      <trkpt lat="45.14384" lon="5.47966">
        <ele>1072</ele>
        <time>2018-02-03T21:51:32Z</time>
      </trkpt>
      <trkpt lat="45.14411" lon="5.47966">
        <ele>1071</ele>
        <time>2018-02-03T21:52:32Z</time>
      </trkpt>
      <trkpt lat="45.1444" lon="5.47966">
        <ele>1071</ele>
        <time>2018-02-03T21:53:32Z</time>
      </trkpt>
      <trkpt lat="45.14472" lon="5.47968">
        <ele>1071</ele>
        <time>2018-02-03T21:54:32Z</time>
      </trkpt>
      <trkpt lat="45.14504" lon="5.47971">
        <ele>1070</ele>
        <time>2018-02-03T21:55:32Z</time>
      </trkpt>
      <trkpt lat="45.14523" lon="5.47973">
        <ele>1070</ele>
        <time>2018-02-03T21:56:32Z</time>
      </trkpt>
      <trkpt lat="45.14529" lon="5.47974">
        <ele>1070</ele>
        <time>2018-02-03T21:57:32Z</time>
      </trkpt>
      <trkpt lat="45.14558" lon="5.4798">
        <ele>1070</ele>
        <time>2018-02-03T21:58:32Z</time>
      </trkpt>
      <trkpt lat="45.14598" lon="5.47987">
        <ele>1069</ele>
        <time>2018-02-03T21:59:32Z</time>
      </trkpt>
      <trkpt lat="45.14625" lon="5.47992">
        <ele>1067</ele>
        <time>2018-02-03T22:00:32Z</time>
      </trkpt>
      <trkpt lat="45.14648" lon="5.47996">
        <ele>1065</ele>
        <time>2018-02-03T22:01:32Z</time>
      </trkpt>
      <trkpt lat="45.14662" lon="5.47996">
        <ele>1064</ele>
        <time>2018-02-03T22:02:32Z</time>
      </trkpt>
      <trkpt lat="45.14683" lon="5.47997">
        <ele>1064</ele>
        <time>2018-02-03T22:03:32Z</time>
      </trkpt>
      <trkpt lat="45.14704" lon="5.48001">
        <ele>1064</ele>
        <time>2018-02-03T22:04:32Z</time>
      </trkpt>
      <trkpt lat="45.14724" lon="5.48008">
        <ele>1064</ele>
        <time>2018-02-03T22:05:32Z</time>
      </trkpt>
      <trkpt lat="45.14746" lon="5.48016">
        <ele>1064</ele>
        <time>2018-02-03T22:06:32Z</time>
      </trkpt>
      <trkpt lat="45.14766" lon="5.48023">
        <ele>1064</ele>
        <time>2018-02-03T22:07:32Z</time>
      </trkpt>
      <trkpt lat="45.14779" lon="5.4803">
        <ele>1064</ele>
        <time>2018-02-03T22:08:32Z</time>
      </trkpt>
      <trkpt lat="45.14783" lon="5.48031">
        <ele>1065</ele>
        <time>2018-02-03T22:09:32Z</time>
      </trkpt>
      <trkpt lat="45.148" lon="5.4804">
        <ele>1064</ele>
        <time>2018-02-03T22:10:32Z</time>
      </trkpt>
      <trkpt lat="45.14823" lon="5.48051">
        <ele>1063</ele>
        <time>2018-02-03T22:11:32Z</time>
      </trkpt>
      <trkpt lat="45.14838" lon="5.48058">
        <ele>1061</ele>
        <time>2018-02-03T22:12:32Z</time>
      </trkpt>
      <trkpt lat="45.1486" lon="5.48065">
        <ele>1060</ele>
        <time>2018-02-03T22:13:32Z</time>
      </trkpt>
      <trkpt lat="45.1488" lon="5.48074">
        <ele>1058</ele>
        <time>2018-02-03T22:14:32Z</time>
      </trkpt>
      <trkpt lat="45.14895" lon="5.48081">
        <ele>1057</ele>
        <time>2018-02-03T22:15:32Z</time>
      </trkpt>
      <trkpt lat="45.14916" lon="5.48094">
        <ele>1054</ele>
        <time>2018-02-03T22:16:32Z</time>
      </trkpt>
      <trkpt lat="45.14943" lon="5.48108">
        <ele>1055</ele>
        <time>2018-02-03T22:17:32Z</time>
      </trkpt>
      <trkpt lat="45.14968" lon="5.48121">
        <ele>1056</ele>
        <time>2018-02-03T22:18:32Z</time>
      </trkpt>
      <trkpt lat="45.14993" lon="5.48134">
        <ele>1056</ele>
        <time>2018-02-03T22:19:32Z</time>
      </trkpt>
      <trkpt lat="45.15018" lon="5.48149">
        <ele>1054</ele>
        <time>2018-02-03T22:20:32Z</time>
      </trkpt>
      <trkpt lat="45.15042" lon="5.48161">
        <ele>1052</ele>
        <time>2018-02-03T22:21:32Z</time>
      </trkpt>
      <trkpt lat="45.15073" lon="5.48178">
        <ele>1048</ele>
        <time>2018-02-03T22:22:32Z</time>
      </trkpt>
      <trkpt lat="45.15104" lon="5.48195">
        <ele>1047</ele>
        <time>2018-02-03T22:23:32Z</time>
      </trkpt>
      <trkpt lat="45.15136" lon="5.48212">
        <ele>1048</ele>
        <time>2018-02-03T22:24:32Z</time>
      </trkpt>
      <trkpt lat="45.15161" lon="5.48226">
        <ele>1048</ele>
        <time>2018-02-03T22:25:32Z</time>
      </trkpt>
      <trkpt lat="45.152" lon="5.4824">
        <ele>1049</ele>
        <time>2018-02-03T22:26:32Z</time>
      </trkpt>
      <trkpt lat="45.15234" lon="5.48251">
        <ele>1048</ele>
        <time>2018-02-03T22:27:32Z</time>
      </trkpt>
      <trkpt lat="45.15279" lon="5.4827">
        <ele>1046</ele>
        <time>2018-02-03T22:28:32Z</time>
      </trkpt>
      <trkpt lat="45.15318" lon="5.48289">
        <ele>1044</ele>
        <time>2018-02-03T22:29:32Z</time>
      </trkpt>
      <trkpt lat="45.15346" lon="5.48303">
        <ele>1042</ele>
        <time>2018-02-03T22:30:32Z</time>
      </trkpt>
      <trkpt lat="45.15378" lon="5.48321">
        <ele>1040</ele>
        <time>2018-02-03T22:31:32Z</time>
      </trkpt>
      <trkpt lat="45.15421" lon="5.48345">
        <ele>1036</ele>
        <time>2018-02-03T22:32:32Z</time>
      </trkpt>
      <trkpt lat="45.15463" lon="5.48369">
        <ele>1033</ele>
        <time>2018-02-03T22:33:32Z</time>
      </trkpt>
      <trkpt lat="45.15468" lon="5.48372">
        <ele>1033</ele>
        <time>2018-02-03T22:34:32Z</time>
      </trkpt>
      <trkpt lat="45.15473" lon="5.48374">
        <ele>1032</ele>
        <time>2018-02-03T22:35:32Z</time>
      </trkpt>
      <trkpt lat="45.15481" lon="5.48378">
        <ele>1032</ele>
        <time>2018-02-03T22:36:32Z</time>
      </trkpt>
      <trkpt lat="45.15493" lon="5.48384">
        <ele>1031</ele>
        <time>2018-02-03T22:37:32Z</time>
      </trkpt>
      <trkpt lat="45.15501" lon="5.48388">
        <ele>1030</ele>
        <time>2018-02-03T22:38:32Z</time>
      </trkpt>
      <trkpt lat="45.15513" lon="5.48392">
        <ele>1030</ele>
        <time>2018-02-03T22:39:32Z</time>
      </trkpt>
      <trkpt lat="45.15528" lon="5.48397">
        <ele>1030</ele>
        <time>2018-02-03T22:40:32Z</time>
      </trkpt>
      <trkpt lat="45.15556" lon="5.48406">
        <ele>1031</ele>
        <time>2018-02-03T22:41:32Z</time>
      </trkpt>
      <trkpt lat="45.15617" lon="5.48426">
        <ele>1029</ele>
        <time>2018-02-03T22:42:32Z</time>
      </trkpt>
      <trkpt lat="45.15667" lon="5.48442">
        <ele>1024</ele>
        <time>2018-02-03T22:43:32Z</time>
      </trkpt>
      <trkpt lat="45.15714" lon="5.48457">
        <ele>1024</ele>
        <time>2018-02-03T22:44:32Z</time>
      </trkpt>
      <trkpt lat="45.15735" lon="5.48464">
        <ele>1023</ele>
        <time>2018-02-03T22:45:32Z</time>
      </trkpt>
      <trkpt lat="45.15751" lon="5.4847">
        <ele>1023</ele>
        <time>2018-02-03T22:46:32Z</time>
      </trkpt>
      <trkpt lat="45.15787" lon="5.48486">
        <ele>1023</ele>
        <time>2018-02-03T22:47:32Z</time>
      </trkpt>
      <trkpt lat="45.15818" lon="5.48499">
        <ele>1024</ele>
        <time>2018-02-03T22:48:32Z</time>
      </trkpt>
      <trkpt lat="45.15854" lon="5.48516">
        <ele>1025</ele>
        <time>2018-02-03T22:49:32Z</time>
      </trkpt>
      <trkpt lat="45.15893" lon="5.48532">
        <ele>1026</ele>
        <time>2018-02-03T22:50:32Z</time>
      </trkpt>
      <trkpt lat="45.15925" lon="5.48547">
        <ele>1023</ele>
        <time>2018-02-03T22:51:32Z</time>
      </trkpt>
      <trkpt lat="45.15931" lon="5.4855">
        <ele>1022</ele>
        <time>2018-02-03T22:52:32Z</time>
      </trkpt>
      <trkpt lat="45.15938" lon="5.48553">
        <ele>1022</ele>
        <time>2018-02-03T22:53:32Z</time>
      </trkpt>
      <trkpt lat="45.15948" lon="5.48556">
        <ele>1021</ele>
        <time>2018-02-03T22:54:32Z</time>
      </trkpt>
      <trkpt lat="45.15963" lon="5.4856">
        <ele>1021</ele>
        <time>2018-02-03T22:55:32Z</time>
      </trkpt>
      <trkpt lat="45.15989" lon="5.48567">
        <ele>1021</ele>
        <time>2018-02-03T22:56:32Z</time>
      </trkpt>
      <trkpt lat="45.16019" lon="5.48576">
        <ele>1021</ele>
        <time>2018-02-03T22:57:32Z</time>
      </trkpt>
      <trkpt lat="45.1603" lon="5.48579">
        <ele>1021</ele>
        <time>2018-02-03T22:58:32Z</time>
      </trkpt>
      <trkpt lat="45.16036" lon="5.48581">
        <ele>1022</ele>
        <time>2018-02-03T22:59:32Z</time>
      </trkpt>
      <trkpt lat="45.16044" lon="5.48582">
        <ele>1022</ele>
        <time>2018-02-03T23:00:32Z</time>
      </trkpt>
      <trkpt lat="45.16055" lon="5.48585">
        <ele>1023</ele>
        <time>2018-02-03T23:01:32Z</time>
      </trkpt>
      <trkpt lat="45.16067" lon="5.48587">
        <ele>1024</ele>
        <time>2018-02-03T23:02:32Z</time>
      </trkpt>
      <trkpt lat="45.16076" lon="5.4859">
        <ele>1024</ele>
        <time>2018-02-03T23:03:32Z</time>
      </trkpt>
      <trkpt lat="45.16084" lon="5.48593">
        <ele>1024</ele>
        <time>2018-02-03T23:04:32Z</time>
      </trkpt>
      <trkpt lat="45.16091" lon="5.48596">
        <ele>1024</ele>
        <time>2018-02-03T23:05:32Z</time>
      </trkpt>
      <trkpt lat="45.16097" lon="5.486">
        <ele>1023</ele>
        <time>2018-02-03T23:06:32Z</time>
      </trkpt>
      <trkpt lat="45.16104" lon="5.48604">
        <ele>1023</ele>
        <time>2018-02-03T23:07:32Z</time>
      </trkpt>
      <trkpt lat="45.16124" lon="5.48616">
        <ele>1021</ele>
        <time>2018-02-03T23:08:32Z</time>
      </trkpt>
      <trkpt lat="45.16153" lon="5.48633">
        <ele>1019</ele>
        <time>2018-02-03T23:09:32Z</time>
      </trkpt>
      <trkpt lat="45.16188" lon="5.48654">
        <ele>1016</ele>
        <time>2018-02-03T23:10:32Z</time>
      </trkpt>
      <trkpt lat="45.16228" lon="5.48676">
        <ele>1016</ele>
        <time>2018-02-03T23:11:32Z</time>
      </trkpt>
      <trkpt lat="45.16254" lon="5.48689">
        <ele>1014</ele>
        <time>2018-02-03T23:12:32Z</time>
      </trkpt>
      <trkpt lat="45.1628" lon="5.487">
        <ele>1011</ele>
        <time>2018-02-03T23:13:32Z</time>
      </trkpt>
      <trkpt lat="45.1631" lon="5.48712">
        <ele>1008</ele>
        <time>2018-02-03T23:14:32Z</time>
      </trkpt>
      <trkpt lat="45.16358" lon="5.48732">
        <ele>1006</ele>
        <time>2018-02-03T23:15:32Z</time>
      </trkpt>
      <trkpt lat="45.16423" lon="5.4876">
        <ele>1006</ele>
        <time>2018-02-03T23:16:32Z</time>
      </trkpt>
      <trkpt lat="45.16522" lon="5.48801">
        <ele>1002</ele>
        <time>2018-02-03T23:17:32Z</time>
      </trkpt>
      <trkpt lat="45.16565" lon="5.48822">
        <ele>1000</ele>
        <time>2018-02-03T23:18:32Z</time>
      </trkpt>
      <trkpt lat="45.16608" lon="5.48845">
        <ele>999</ele>
        <time>2018-02-03T23:19:32Z</time>
      </trkpt>
      <trkpt lat="45.16615" lon="5.48849">
        <ele>998</ele>
        <time>2018-02-03T23:20:32Z</time>
      </trkpt>
      <trkpt lat="45.16631" lon="5.48858">
        <ele>998</ele>
        <time>2018-02-03T23:21:32Z</time>
      </trkpt>
      <trkpt lat="45.16677" lon="5.48886">
        <ele>996</ele>
        <time>2018-02-03T23:22:32Z</time>
      </trkpt>
      <trkpt lat="45.16709" lon="5.48904">
        <ele>997</ele>
        <time>2018-02-03T23:23:32Z</time>
      </trkpt>
      <trkpt lat="45.16724" lon="5.48912">
        <ele>998</ele>
        <time>2018-02-03T23:24:32Z</time>
      </trkpt>
      <trkpt lat="45.16755" lon="5.4893">
        <ele>998</ele>
        <time>2018-02-03T23:25:32Z</time>
      </trkpt>
      <trkpt lat="45.16777" lon="5.48942">
        <ele>998</ele>
        <time>2018-02-03T23:26:32Z</time>
      </trkpt>
      <trkpt lat="45.16803" lon="5.48956">
        <ele>998</ele>
        <time>2018-02-03T23:27:32Z</time>
      </trkpt>
      <trkpt lat="45.16818" lon="5.48966">
        <ele>998</ele>
        <time>2018-02-03T23:28:32Z</time>
      </trkpt>
      <trkpt lat="45.16824" lon="5.4897">
        <ele>997</ele>
        <time>2018-02-03T23:29:32Z</time>
      </trkpt>
      <trkpt lat="45.16828" lon="5.48973">
        <ele>997</ele>
        <time>2018-02-03T23:30:32Z</time>
      </trkpt>
      <trkpt lat="45.1683" lon="5.48974">
        <ele>997</ele>
        <time>2018-02-03T23:31:32Z</time>
      </trkpt>
      <trkpt lat="45.16839" lon="5.48984">
        <ele>995</ele>
        <time>2018-02-03T23:32:32Z</time>
      </trkpt>
      <trkpt lat="45.16854" lon="5.48998">
        <ele>992</ele>
        <time>2018-02-03T23:33:32Z</time>
      </trkpt>
      <trkpt lat="45.16884" lon="5.4903">
        <ele>987</ele>
        <time>2018-02-03T23:34:32Z</time>
      </trkpt>
      <trkpt lat="45.169" lon="5.49043">
        <ele>987</ele>
        <time>2018-02-03T23:35:32Z</time>
      </trkpt>
      <trkpt lat="45.16913" lon="5.49056">
        <ele>986</ele>
        <time>2018-02-03T23:36:32Z</time>
      </trkpt>
      <trkpt lat="45.16929" lon="5.49069">
        <ele>986</ele>
        <time>2018-02-03T23:37:32Z</time>
      </trkpt>
      <trkpt lat="45.1694" lon="5.49079">
        <ele>985</ele>
        <time>2018-02-03T23:38:32Z</time>
      </trkpt>
      <trkpt lat="45.16952" lon="5.49091">
        <ele>984</ele>
        <time>2018-02-03T23:39:32Z</time>
      </trkpt>
      <trkpt lat="45.16964" lon="5.49104">
        <ele>983</ele>
        <time>2018-02-03T23:40:32Z</time>
      </trkpt>
      <trkpt lat="45.16983" lon="5.49123">
        <ele>981</ele>
        <time>2018-02-03T23:41:32Z</time>
      </trkpt>
      <trkpt lat="45.17004" lon="5.49142">
        <ele>979</ele>
        <time>2018-02-03T23:42:32Z</time>
      </trkpt>
      <trkpt lat="45.17035" lon="5.49175">
        <ele>974</ele>
        <time>2018-02-03T23:43:32Z</time>
      </trkpt>
      <trkpt lat="45.17082" lon="5.49224">
        <ele>968</ele>
        <time>2018-02-03T23:44:32Z</time>
      </trkpt>
      <trkpt lat="45.17106" lon="5.49249">
        <ele>965</ele>
        <time>2018-02-03T23:45:32Z</time>
      </trkpt>
      <trkpt lat="45.17128" lon="5.49268">
        <ele>963</ele>
        <time>2018-02-03T23:46:32Z</time>
      </trkpt>
      <trkpt lat="45.17163" lon="5.49301">
        <ele>958</ele>
        <time>2018-02-03T23:47:32Z</time>
      </trkpt>
      <trkpt lat="45.17184" lon="5.49318">
        <ele>958</ele>
        <time>2018-02-03T23:48:32Z</time>
      </trkpt>
      <trkpt lat="45.172" lon="5.49334">
        <ele>957</ele>
        <time>2018-02-03T23:49:32Z</time>
      </trkpt>
      <trkpt lat="45.17224" lon="5.49357">
        <ele>955</ele>
        <time>2018-02-03T23:50:32Z</time>
      </trkpt>
      <trkpt lat="45.17257" lon="5.4939">
        <ele>951</ele>
        <time>2018-02-03T23:51:32Z</time>
      </trkpt>
      <trkpt lat="45.17276" lon="5.49407">
        <ele>951</ele>
        <time>2018-02-03T23:52:32Z</time>
      </trkpt>
      <trkpt lat="45.17291" lon="5.49426">
        <ele>949</ele>
        <time>2018-02-03T23:53:32Z</time>
      </trkpt>
      <trkpt lat="45.17346" lon="5.49476">
        <ele>940</ele>
        <time>2018-02-03T23:54:32Z</time>
      </trkpt>
      <trkpt lat="45.17362" lon="5.49491">
        <ele>937</ele>
        <time>2018-02-03T23:55:32Z</time>
      </trkpt>
      <trkpt lat="45.174" lon="5.49525">
        <ele>936</ele>
        <time>2018-02-03T23:56:32Z</time>
      </trkpt>
      <trkpt lat="45.17415" lon="5.49539">
        <ele>935</ele>
        <time>2018-02-03T23:57:32Z</time>
      </trkpt>
      <trkpt lat="45.17462" lon="5.49581">
        <ele>925</ele>
        <time>2018-02-03T23:58:32Z</time>
      </trkpt>
      <trkpt lat="45.17499" lon="5.49615">
        <ele>920</ele>
        <time>2018-02-03T23:59:32Z</time>
      </trkpt>
      <trkpt lat="45.17554" lon="5.49658">
        <ele>920</ele>
        <time>2018-02-04T00:00:32Z</time>
      </trkpt>
      <trkpt lat="45.17586" lon="5.49686">
        <ele>919</ele>
        <time>2018-02-04T00:01:32Z</time>
      </trkpt>
      <trkpt lat="45.17646" lon="5.49738">
        <ele>911</ele>
        <time>2018-02-04T00:02:32Z</time>
      </trkpt>
      <trkpt lat="45.17692" lon="5.49782">
        <ele>906</ele>
        <time>2018-02-04T00:03:32Z</time>
      </trkpt>
      <trkpt lat="45.17704" lon="5.49792">
        <ele>905</ele>
        <time>2018-02-04T00:04:32Z</time>
      </trkpt>
      <trkpt lat="45.17712" lon="5.49796">
        <ele>905</ele>
        <time>2018-02-04T00:05:32Z</time>
      </trkpt>
      <trkpt lat="45.17715" lon="5.49798">
        <ele>905</ele>
        <time>2018-02-04T00:06:32Z</time>
      </trkpt>
      <trkpt lat="45.17717" lon="5.49798">
        <ele>906</ele>
        <time>2018-02-04T00:07:32Z</time>
      </trkpt>
      <trkpt lat="45.17721" lon="5.49799">
        <ele>906</ele>
        <time>2018-02-04T00:08:32Z</time>
      </trkpt>
      <trkpt lat="45.17724" lon="5.49799">
        <ele>906</ele>
        <time>2018-02-04T00:09:32Z</time>
      </trkpt>
      <trkpt lat="45.17726" lon="5.49799">
        <ele>906</ele>
        <time>2018-02-04T00:10:32Z</time>
      </trkpt>
      <trkpt lat="45.1773" lon="5.49798">
        <ele>907</ele>
        <time>2018-02-04T00:11:32Z</time>
      </trkpt>
      <trkpt lat="45.17735" lon="5.49796">
        <ele>908</ele>
        <time>2018-02-04T00:12:32Z</time>
      </trkpt>
      <trkpt lat="45.1774" lon="5.49793">
        <ele>910</ele>
        <time>2018-02-04T00:13:32Z</time>
      </trkpt>
      <trkpt lat="45.17748" lon="5.49787">
        <ele>913</ele>
        <time>2018-02-04T00:14:32Z</time>
      </trkpt>
      <trkpt lat="45.17758" lon="5.49779">
        <ele>916</ele>
        <time>2018-02-04T00:15:32Z</time>
      </trkpt>
      <trkpt lat="45.17767" lon="5.49771">
        <ele>918</ele>
        <time>2018-02-04T00:16:32Z</time>
      </trkpt>
      <trkpt lat="45.17777" lon="5.49764">
        <ele>921</ele>
        <time>2018-02-04T00:17:32Z</time>
      </trkpt>
      <trkpt lat="45.17787" lon="5.49757">
        <ele>922</ele>
        <time>2018-02-04T00:18:32Z</time>
      </trkpt>
      <trkpt lat="45.17795" lon="5.49751">
        <ele>924</ele>
        <time>2018-02-04T00:19:32Z</time>
      </trkpt>
      <trkpt lat="45.17802" lon="5.49746">
        <ele>927</ele>
        <time>2018-02-04T00:20:32Z</time>
      </trkpt>
      <trkpt lat="45.17807" lon="5.49742">
        <ele>929</ele>
        <time>2018-02-04T00:21:32Z</time>
      </trkpt>
      <trkpt lat="45.17814" lon="5.4974">
        <ele>930</ele>
        <time>2018-02-04T00:22:32Z</time>
      </trkpt>
      <trkpt lat="45.1782" lon="5.49738">
        <ele>932</ele>
        <time>2018-02-04T00:23:32Z</time>
      </trkpt>
      <trkpt lat="45.17829" lon="5.49737">
        <ele>933</ele>
        <time>2018-02-04T00:24:32Z</time>
      </trkpt>
      <trkpt lat="45.17835" lon="5.49737">
        <ele>933</ele>
        <time>2018-02-04T00:25:32Z</time>
      </trkpt>
      <trkpt lat="45.17842" lon="5.49737">
        <ele>933</ele>
        <time>2018-02-04T00:26:32Z</time>
      </trkpt>
      <trkpt lat="45.17846" lon="5.49738">
        <ele>932</ele>
        <time>2018-02-04T00:27:32Z</time>
      </trkpt>
      <trkpt lat="45.17853" lon="5.4974">
        <ele>931</ele>
        <time>2018-02-04T00:28:32Z</time>
      </trkpt>
      <trkpt lat="45.17863" lon="5.4974">
        <ele>931</ele>
        <time>2018-02-04T00:29:32Z</time>
      </trkpt>
      <trkpt lat="45.17896" lon="5.49728">
        <ele>933</ele>
        <time>2018-02-04T00:30:32Z</time>
      </trkpt>
      <trkpt lat="45.17909" lon="5.49711">
        <ele>933</ele>
        <time>2018-02-04T00:31:32Z</time>
      </trkpt>
      <trkpt lat="45.17918" lon="5.49694">
        <ele>932</ele>
        <time>2018-02-04T00:32:32Z</time>
      </trkpt>
      <trkpt lat="45.17927" lon="5.4967">
        <ele>930</ele>
        <time>2018-02-04T00:33:32Z</time>
      </trkpt>
      <trkpt lat="45.17925" lon="5.49644">
        <ele>929</ele>
        <time>2018-02-04T00:34:32Z</time>
      </trkpt>
      <trkpt lat="45.17924" lon="5.49612">
        <ele>927</ele>
        <time>2018-02-04T00:35:32Z</time>
      </trkpt>
      <trkpt lat="45.1792" lon="5.49594">
        <ele>927</ele>
        <time>2018-02-04T00:36:32Z</time>
      </trkpt>
      <trkpt lat="45.17915" lon="5.4959">
        <ele>929</ele>
        <time>2018-02-04T00:37:32Z</time>
      </trkpt>
      <trkpt lat="45.17913" lon="5.49585">
        <ele>930</ele>
        <time>2018-02-04T00:38:32Z</time>
      </trkpt>
      <trkpt lat="45.17912" lon="5.49581">
        <ele>928</ele>
        <time>2018-02-04T00:39:32Z</time>
      </trkpt>
      <trkpt lat="45.1791" lon="5.49575">
        <ele>925</ele>
        <time>2018-02-04T00:40:32Z</time>
      </trkpt>
      <trkpt lat="45.17909" lon="5.49571">
        <ele>923</ele>
        <time>2018-02-04T00:41:32Z</time>
      </trkpt>
      <trkpt lat="45.17906" lon="5.49568">
        <ele>923</ele>
        <time>2018-02-04T00:42:32Z</time>
      </trkpt>
      <trkpt lat="45.17903" lon="5.49568">
        <ele>925</ele>
        <time>2018-02-04T00:43:32Z</time>
      </trkpt>
      <trkpt lat="45.179" lon="5.49566">
        <ele>925</ele>
        <time>2018-02-04T00:44:32Z</time>
      </trkpt>
      <trkpt lat="45.17895" lon="5.49565">
        <ele>927</ele>
        <time>2018-02-04T00:45:32Z</time>
      </trkpt>
      <trkpt lat="45.1789" lon="5.49564">
        <ele>929</ele>
        <time>2018-02-04T00:46:32Z</time>
      </trkpt>
      <trkpt lat="45.17878" lon="5.4956">
        <ele>933</ele>
        <time>2018-02-04T00:47:32Z</time>
      </trkpt>
      <trkpt lat="45.1787" lon="5.49558">
        <ele>937</ele>
        <time>2018-02-04T00:48:32Z</time>
      </trkpt>
      <trkpt lat="45.17863" lon="5.49556">
        <ele>939</ele>
        <time>2018-02-04T00:49:32Z</time>
      </trkpt>
      <trkpt lat="45.17852" lon="5.49553">
        <ele>943</ele>
        <time>2018-02-04T00:50:32Z</time>
      </trkpt>
      <trkpt lat="45.17839" lon="5.49549">
        <ele>946</ele>
        <time>2018-02-04T00:51:32Z</time>
      </trkpt>
      <trkpt lat="45.17832" lon="5.49547">
        <ele>948</ele>
        <time>2018-02-04T00:52:32Z</time>
      </trkpt>
      <trkpt lat="45.17818" lon="5.49543">
        <ele>952</ele>
        <time>2018-02-04T00:53:32Z</time>
      </trkpt>
      <trkpt lat="45.17806" lon="5.49539">
        <ele>955</ele>
        <time>2018-02-04T00:54:32Z</time>
      </trkpt>
      <trkpt lat="45.17797" lon="5.49535">
        <ele>958</ele>
        <time>2018-02-04T00:55:32Z</time>
      </trkpt>
      <trkpt lat="45.17786" lon="5.49532">
        <ele>963</ele>
        <time>2018-02-04T00:56:32Z</time>
      </trkpt>
      <trkpt lat="45.17777" lon="5.49528">
        <ele>967</ele>
        <time>2018-02-04T00:57:32Z</time>
      </trkpt>
      <trkpt lat="45.17769" lon="5.49525">
        <ele>972</ele>
        <time>2018-02-04T00:58:32Z</time>
      </trkpt>
      <trkpt lat="45.1776" lon="5.4952">
        <ele>977</ele>
        <time>2018-02-04T00:59:32Z</time>
      </trkpt>
      <trkpt lat="45.17748" lon="5.49515">
        <ele>985</ele>
        <time>2018-02-04T01:00:32Z</time>
      </trkpt>
      <trkpt lat="45.17738" lon="5.4951">
        <ele>985</ele>
        <time>2018-02-04T01:01:32Z</time>
      </trkpt>
      <trkpt lat="45.17723" lon="5.49501">
        <ele>987</ele>
        <time>2018-02-04T01:02:32Z</time>
      </trkpt>
      <trkpt lat="45.17716" lon="5.49498">
        <ele>987</ele>
        <time>2018-02-04T01:03:32Z</time>
      </trkpt>
      <trkpt lat="45.17706" lon="5.49491">
        <ele>986</ele>
        <time>2018-02-04T01:04:32Z</time>
      </trkpt>
      <trkpt lat="45.17698" lon="5.49486">
        <ele>986</ele>
        <time>2018-02-04T01:05:32Z</time>
      </trkpt>
      <trkpt lat="45.17686" lon="5.49476">
        <ele>987</ele>
        <time>2018-02-04T01:06:32Z</time>
      </trkpt>
      <trkpt lat="45.17676" lon="5.4947">
        <ele>989</ele>
        <time>2018-02-04T01:07:32Z</time>
      </trkpt>
      <trkpt lat="45.17668" lon="5.49466">
        <ele>991</ele>
        <time>2018-02-04T01:08:32Z</time>
      </trkpt>
      <trkpt lat="45.17651" lon="5.49454">
        <ele>990</ele>
        <time>2018-02-04T01:09:32Z</time>
      </trkpt>
      <trkpt lat="45.17634" lon="5.49441">
        <ele>990</ele>
        <time>2018-02-04T01:10:32Z</time>
      </trkpt>
      <trkpt lat="45.17615" lon="5.49425">
        <ele>991</ele>
        <time>2018-02-04T01:11:32Z</time>
      </trkpt>
      <trkpt lat="45.1761" lon="5.49421">
        <ele>992</ele>
        <time>2018-02-04T01:12:32Z</time>
      </trkpt>
      <trkpt lat="45.17603" lon="5.49414">
        <ele>989</ele>
        <time>2018-02-04T01:13:32Z</time>
      </trkpt>
      <trkpt lat="45.17598" lon="5.49408">
        <ele>980</ele>
        <time>2018-02-04T01:14:32Z</time>
      </trkpt>
      <trkpt lat="45.1759" lon="5.49399">
        <ele>968</ele>
        <time>2018-02-04T01:15:32Z</time>
      </trkpt>
      <trkpt lat="45.17584" lon="5.49389">
        <ele>955</ele>
        <time>2018-02-04T01:16:32Z</time>
      </trkpt>
      <trkpt lat="45.17579" lon="5.49381">
        <ele>945</ele>
        <time>2018-02-04T01:17:32Z</time>
      </trkpt>
      <trkpt lat="45.17569" lon="5.49364">
        <ele>924</ele>
        <time>2018-02-04T01:18:32Z</time>
      </trkpt>
      <trkpt lat="45.17562" lon="5.49353">
        <ele>913</ele>
        <time>2018-02-04T01:19:32Z</time>
      </trkpt>
      <trkpt lat="45.17557" lon="5.49341">
        <ele>901</ele>
        <time>2018-02-04T01:20:32Z</time>
      </trkpt>
      <trkpt lat="45.17555" lon="5.49333">
        <ele>893</ele>
        <time>2018-02-04T01:21:32Z</time>
      </trkpt>
      <trkpt lat="45.17546" lon="5.49308">
        <ele>877</ele>
        <time>2018-02-04T01:22:32Z</time>
      </trkpt>
      <trkpt lat="45.17543" lon="5.49293">
        <ele>866</ele>
        <time>2018-02-04T01:23:32Z</time>
      </trkpt>
      <trkpt lat="45.1754" lon="5.4928">
        <ele>857</ele>
        <time>2018-02-04T01:24:32Z</time>
      </trkpt>
      <trkpt lat="45.17538" lon="5.49272">
        <ele>851</ele>
        <time>2018-02-04T01:25:32Z</time>
      </trkpt>
      <trkpt lat="45.17535" lon="5.49268">
        <ele>849</ele>
        <time>2018-02-04T01:26:32Z</time>
      </trkpt>
      <trkpt lat="45.1749" lon="5.49209">
        <ele>828</ele>
        <time>2018-02-04T01:27:32Z</time>
      </trkpt>
      <trkpt lat="45.17458" lon="5.49172">
        <ele>834</ele>
        <time>2018-02-04T01:28:32Z</time>
      </trkpt>
      <trkpt lat="45.17453" lon="5.49164">
        <ele>834</ele>
        <time>2018-02-04T01:29:32Z</time>
      </trkpt>
      <trkpt lat="45.17449" lon="5.49153">
        <ele>833</ele>
        <time>2018-02-04T01:30:32Z</time>
      </trkpt>
      <trkpt lat="45.17446" lon="5.49144">
        <ele>832</ele>
        <time>2018-02-04T01:31:32Z</time>
      </trkpt>
      <trkpt lat="45.17443" lon="5.49134">
        <ele>830</ele>
        <time>2018-02-04T01:32:32Z</time>
      </trkpt>
      <trkpt lat="45.17442" lon="5.49127">
        <ele>828</ele>
        <time>2018-02-04T01:33:32Z</time>
      </trkpt>
      <trkpt lat="45.1744" lon="5.49119">
        <ele>826</ele>
        <time>2018-02-04T01:34:32Z</time>
      </trkpt>
      <trkpt lat="45.17439" lon="5.49112">
        <ele>823</ele>
        <time>2018-02-04T01:35:32Z</time>
      </trkpt>
      <trkpt lat="45.17439" lon="5.49106">
        <ele>820</ele>
        <time>2018-02-04T01:36:32Z</time>
      </trkpt>
      <trkpt lat="45.17441" lon="5.49097">
        <ele>814</ele>
        <time>2018-02-04T01:37:32Z</time>
      </trkpt>
      <trkpt lat="45.17449" lon="5.49076">
        <ele>805</ele>
        <time>2018-02-04T01:38:32Z</time>
      </trkpt>
      <trkpt lat="45.17455" lon="5.4906">
        <ele>805</ele>
        <time>2018-02-04T01:39:32Z</time>
      </trkpt>
      <trkpt lat="45.1746" lon="5.49043">
        <ele>804</ele>
        <time>2018-02-04T01:40:32Z</time>
      </trkpt>
      <trkpt lat="45.17464" lon="5.49028">
        <ele>803</ele>
        <time>2018-02-04T01:41:32Z</time>
      </trkpt>
      <trkpt lat="45.17467" lon="5.49012">
        <ele>803</ele>
        <time>2018-02-04T01:42:32Z</time>
      </trkpt>
      <trkpt lat="45.17468" lon="5.48997">
        <ele>804</ele>
        <time>2018-02-04T01:43:32Z</time>
      </trkpt>
      <trkpt lat="45.17469" lon="5.48984">
        <ele>804</ele>
        <time>2018-02-04T01:44:32Z</time>
      </trkpt>
      <trkpt lat="45.17469" lon="5.48973">
        <ele>806</ele>
        <time>2018-02-04T01:45:32Z</time>
      </trkpt>
      <trkpt lat="45.1747" lon="5.48961">
        <ele>806</ele>
        <time>2018-02-04T01:46:32Z</time>
      </trkpt>
      <trkpt lat="45.17471" lon="5.48951">
        <ele>806</ele>
        <time>2018-02-04T01:47:32Z</time>
      </trkpt>
      <trkpt lat="45.17472" lon="5.4894">
        <ele>806</ele>
        <time>2018-02-04T01:48:32Z</time>
      </trkpt>
      <trkpt lat="45.17475" lon="5.48929">
        <ele>803</ele>
        <time>2018-02-04T01:49:32Z</time>
      </trkpt>
      <trkpt lat="45.17478" lon="5.48919">
        <ele>800</ele>
        <time>2018-02-04T01:50:32Z</time>
      </trkpt>
      <trkpt lat="45.17483" lon="5.48907">
        <ele>796</ele>
        <time>2018-02-04T01:51:32Z</time>
      </trkpt>
      <trkpt lat="45.17489" lon="5.48892">
        <ele>791</ele>
        <time>2018-02-04T01:52:32Z</time>
      </trkpt>
      <trkpt lat="45.17495" lon="5.48879">
        <ele>785</ele>
        <time>2018-02-04T01:53:32Z</time>
      </trkpt>
      <trkpt lat="45.17509" lon="5.48847">
        <ele>776</ele>
        <time>2018-02-04T01:54:32Z</time>
      </trkpt>
      <trkpt lat="45.17515" lon="5.48834">
        <ele>773</ele>
        <time>2018-02-04T01:55:32Z</time>
      </trkpt>
      <trkpt lat="45.17522" lon="5.48823">
        <ele>769</ele>
        <time>2018-02-04T01:56:32Z</time>
      </trkpt>
      <trkpt lat="45.17526" lon="5.48814">
        <ele>766</ele>
        <time>2018-02-04T01:57:32Z</time>
      </trkpt>
      <trkpt lat="45.17528" lon="5.48808">
        <ele>765</ele>
        <time>2018-02-04T01:58:32Z</time>
      </trkpt>
      <trkpt lat="45.1753" lon="5.48801">
        <ele>764</ele>
        <time>2018-02-04T01:59:32Z</time>
      </trkpt>
      <trkpt lat="45.17531" lon="5.48794">
        <ele>763</ele>
        <time>2018-02-04T02:00:32Z</time>
      </trkpt>
      <trkpt lat="45.17533" lon="5.48787">
        <ele>762</ele>
        <time>2018-02-04T02:01:32Z</time>
      </trkpt>
      <trkpt lat="45.17534" lon="5.4878">
        <ele>762</ele>
        <time>2018-02-04T02:02:32Z</time>
      </trkpt>
      <trkpt lat="45.17534" lon="5.48775">
        <ele>762</ele>
        <time>2018-02-04T02:03:32Z</time>
      </trkpt>
      <trkpt lat="45.17533" lon="5.4877">
        <ele>763</ele>
        <time>2018-02-04T02:04:32Z</time>
      </trkpt>
      <trkpt lat="45.17531" lon="5.48766">
        <ele>764</ele>
        <time>2018-02-04T02:05:32Z</time>
      </trkpt>
      <trkpt lat="45.1753" lon="5.48763">
        <ele>765</ele>
        <time>2018-02-04T02:06:32Z</time>
      </trkpt>
      <trkpt lat="45.17528" lon="5.48762">
        <ele>766</ele>
        <time>2018-02-04T02:07:32Z</time>
      </trkpt>
      <trkpt lat="45.17525" lon="5.48756">
        <ele>768</ele>
        <time>2018-02-04T02:08:32Z</time>
      </trkpt>
      <trkpt lat="45.17522" lon="5.48751">
        <ele>770</ele>
        <time>2018-02-04T02:09:32Z</time>
      </trkpt>
      <trkpt lat="45.1752" lon="5.48746">
        <ele>772</ele>
        <time>2018-02-04T02:10:32Z</time>
      </trkpt>
      <trkpt lat="45.17519" lon="5.48739">
        <ele>774</ele>
        <time>2018-02-04T02:11:32Z</time>
      </trkpt>
      <trkpt lat="45.17518" lon="5.48734">
        <ele>775</ele>
        <time>2018-02-04T02:12:32Z</time>
      </trkpt>
      <trkpt lat="45.17518" lon="5.48728">
        <ele>777</ele>
        <time>2018-02-04T02:13:32Z</time>
      </trkpt>
      <trkpt lat="45.17519" lon="5.48724">
        <ele>777</ele>
        <time>2018-02-04T02:14:32Z</time>
      </trkpt>
      <trkpt lat="45.17522" lon="5.48721">
        <ele>775</ele>
        <time>2018-02-04T02:15:32Z</time>
      </trkpt>
      <trkpt lat="45.17526" lon="5.48717">
        <ele>773</ele>
        <time>2018-02-04T02:16:32Z</time>
      </trkpt>
      <trkpt lat="45.1753" lon="5.48712">
        <ele>772</ele>
        <time>2018-02-04T02:17:32Z</time>
      </trkpt>
      <trkpt lat="45.17533" lon="5.48708">
        <ele>770</ele>
        <time>2018-02-04T02:18:32Z</time>
      </trkpt>
      <trkpt lat="45.17538" lon="5.48704">
        <ele>768</ele>
        <time>2018-02-04T02:19:32Z</time>
      </trkpt>
      <trkpt lat="45.17542" lon="5.487">
        <ele>766</ele>
        <time>2018-02-04T02:20:32Z</time>
      </trkpt>
      <trkpt lat="45.17546" lon="5.48696">
        <ele>763</ele>
        <time>2018-02-04T02:21:32Z</time>
      </trkpt>
      <trkpt lat="45.1755" lon="5.48691">
        <ele>761</ele>
        <time>2018-02-04T02:22:32Z</time>
      </trkpt>
      <trkpt lat="45.17554" lon="5.48684">
        <ele>759</ele>
        <time>2018-02-04T02:23:32Z</time>
      </trkpt>
      <trkpt lat="45.17558" lon="5.48678">
        <ele>757</ele>
        <time>2018-02-04T02:24:32Z</time>
      </trkpt>
      <trkpt lat="45.17561" lon="5.48672">
        <ele>756</ele>
        <time>2018-02-04T02:25:32Z</time>
      </trkpt>
      <trkpt lat="45.17563" lon="5.48668">
        <ele>755</ele>
        <time>2018-02-04T02:26:32Z</time>
      </trkpt>
      <trkpt lat="45.17564" lon="5.48663">
        <ele>755</ele>
        <time>2018-02-04T02:27:32Z</time>
      </trkpt>
      <trkpt lat="45.17565" lon="5.48658">
        <ele>754</ele>
        <time>2018-02-04T02:28:32Z</time>
      </trkpt>
      <trkpt lat="45.17567" lon="5.4865">
        <ele>753</ele>
        <time>2018-02-04T02:29:32Z</time>
      </trkpt>
      <trkpt lat="45.17568" lon="5.48642">
        <ele>753</ele>
        <time>2018-02-04T02:30:32Z</time>
      </trkpt>
      <trkpt lat="45.1757" lon="5.48632">
        <ele>752</ele>
        <time>2018-02-04T02:31:32Z</time>
      </trkpt>
      <trkpt lat="45.17571" lon="5.4862">
        <ele>752</ele>
        <time>2018-02-04T02:32:32Z</time>
      </trkpt>
      <trkpt lat="45.17573" lon="5.48609">
        <ele>751</ele>
        <time>2018-02-04T02:33:32Z</time>
      </trkpt>
      <trkpt lat="45.17577" lon="5.48582">
        <ele>750</ele>
        <time>2018-02-04T02:34:32Z</time>
      </trkpt>
      <trkpt lat="45.17582" lon="5.48543">
        <ele>750</ele>
        <time>2018-02-04T02:35:32Z</time>
      </trkpt>
      <trkpt lat="45.17584" lon="5.48526">
        <ele>751</ele>
        <time>2018-02-04T02:36:32Z</time>
      </trkpt>
      <trkpt lat="45.17586" lon="5.48514">
        <ele>751</ele>
        <time>2018-02-04T02:37:32Z</time>
      </trkpt>
      <trkpt lat="45.17588" lon="5.48501">
        <ele>752</ele>
        <time>2018-02-04T02:38:32Z</time>
      </trkpt>
      <trkpt lat="45.1759" lon="5.48487">
        <ele>752</ele>
        <time>2018-02-04T02:39:32Z</time>
      </trkpt>
      <trkpt lat="45.17592" lon="5.48476">
        <ele>753</ele>
        <time>2018-02-04T02:40:32Z</time>
      </trkpt>
      <trkpt lat="45.17593" lon="5.48464">
        <ele>754</ele>
        <time>2018-02-04T02:41:32Z</time>
      </trkpt>
      <trkpt lat="45.17594" lon="5.48436">
        <ele>757</ele>
        <time>2018-02-04T02:42:32Z</time>
      </trkpt>
      <trkpt lat="45.17596" lon="5.48431">
        <ele>757</ele>
        <time>2018-02-04T02:43:32Z</time>
      </trkpt>
      <trkpt lat="45.17599" lon="5.48426">
        <ele>756</ele>
        <time>2018-02-04T02:44:32Z</time>
      </trkpt>
      <trkpt lat="45.17607" lon="5.48419">
        <ele>754</ele>
        <time>2018-02-04T02:45:32Z</time>
      </trkpt>
      <trkpt lat="45.17653" lon="5.48353">
        <ele>729</ele>
        <time>2018-02-04T02:46:32Z</time>
      </trkpt>
      <trkpt lat="45.1766" lon="5.48343">
        <ele>727</ele>
        <time>2018-02-04T02:47:32Z</time>
      </trkpt>
      <trkpt lat="45.17666" lon="5.48334">
        <ele>724</ele>
        <time>2018-02-04T02:48:32Z</time>
      </trkpt>
      <trkpt lat="45.17679" lon="5.48322">
        <ele>717</ele>
        <time>2018-02-04T02:49:32Z</time>
      </trkpt>
      <trkpt lat="45.17699" lon="5.48311">
        <ele>708</ele>
        <time>2018-02-04T02:50:32Z</time>
      </trkpt>
      <trkpt lat="45.17718" lon="5.48312">
        <ele>704</ele>
        <time>2018-02-04T02:51:32Z</time>
      </trkpt>
      <trkpt lat="45.17732" lon="5.48312">
        <ele>701</ele>
        <time>2018-02-04T02:52:32Z</time>
      </trkpt>
      <trkpt lat="45.17756" lon="5.48317">
        <ele>698</ele>
        <time>2018-02-04T02:53:32Z</time>
      </trkpt>
      <trkpt lat="45.1777" lon="5.48319">
        <ele>692</ele>
        <time>2018-02-04T02:54:32Z</time>
      </trkpt>
      <trkpt lat="45.17796" lon="5.48327">
        <ele>685</ele>
        <time>2018-02-04T02:55:32Z</time>
      </trkpt>
      <trkpt lat="45.17803" lon="5.48332">
        <ele>685</ele>
        <time>2018-02-04T02:56:32Z</time>
      </trkpt>
      <trkpt lat="45.1781" lon="5.48338">
        <ele>684</ele>
        <time>2018-02-04T02:57:32Z</time>
      </trkpt>
      <trkpt lat="45.17812" lon="5.48341">
        <ele>684</ele>
        <time>2018-02-04T02:58:32Z</time>
      </trkpt>
      <trkpt lat="45.17812" lon="5.48344">
        <ele>684</ele>
        <time>2018-02-04T02:59:32Z</time>
      </trkpt>
      <trkpt lat="45.17812" lon="5.48345">
        <ele>684</ele>
        <time>2018-02-04T03:00:32Z</time>
      </trkpt>
      <trkpt lat="45.17812" lon="5.4835">
        <ele>685</ele>
        <time>2018-02-04T03:01:32Z</time>
      </trkpt>
      <trkpt lat="45.17812" lon="5.48372">
        <ele>689</ele>
        <time>2018-02-04T03:02:32Z</time>
      </trkpt>
      <trkpt lat="45.17812" lon="5.48382">
        <ele>691</ele>
        <time>2018-02-04T03:03:32Z</time>
      </trkpt>
      <trkpt lat="45.17812" lon="5.48394">
        <ele>693</ele>
        <time>2018-02-04T03:04:32Z</time>
      </trkpt>
      <trkpt lat="45.17811" lon="5.48404">
        <ele>696</ele>
        <time>2018-02-04T03:05:32Z</time>
      </trkpt>
      <trkpt lat="45.17811" lon="5.48412">
        <ele>697</ele>
        <time>2018-02-04T03:06:32Z</time>
      </trkpt>
      <trkpt lat="45.17811" lon="5.4842">
        <ele>697</ele>
        <time>2018-02-04T03:07:32Z</time>
      </trkpt>
      <trkpt lat="45.1781" lon="5.48427">
        <ele>697</ele>
        <time>2018-02-04T03:08:32Z</time>
      </trkpt>
      <trkpt lat="45.17806" lon="5.48431">
        <ele>698</ele>
        <time>2018-02-04T03:09:32Z</time>
      </trkpt>
      <trkpt lat="45.17802" lon="5.48435">
        <ele>699</ele>
        <time>2018-02-04T03:10:32Z</time>
      </trkpt>
      <trkpt lat="45.17795" lon="5.48437">
        <ele>701</ele>
        <time>2018-02-04T03:11:32Z</time>
      </trkpt>
      <trkpt lat="45.17788" lon="5.48437">
        <ele>704</ele>
        <time>2018-02-04T03:12:32Z</time>
      </trkpt>
      <trkpt lat="45.17779" lon="5.48437">
        <ele>707</ele>
        <time>2018-02-04T03:13:32Z</time>
      </trkpt>
      <trkpt lat="45.17775" lon="5.48437">
        <ele>709</ele>
        <time>2018-02-04T03:14:32Z</time>
      </trkpt>
      <trkpt lat="45.1776" lon="5.48434">
        <ele>715</ele>
        <time>2018-02-04T03:15:32Z</time>
      </trkpt>
      <trkpt lat="45.17749" lon="5.48432">
        <ele>720</ele>
        <time>2018-02-04T03:16:32Z</time>
      </trkpt>
      <trkpt lat="45.17737" lon="5.4843">
        <ele>722</ele>
        <time>2018-02-04T03:17:32Z</time>
      </trkpt>
      <trkpt lat="45.17729" lon="5.48429">
        <ele>723</ele>
        <time>2018-02-04T03:18:32Z</time>
      </trkpt>
      <trkpt lat="45.17721" lon="5.48429">
        <ele>723</ele>
        <time>2018-02-04T03:19:32Z</time>
      </trkpt>
      <trkpt lat="45.17713" lon="5.48428">
        <ele>724</ele>
        <time>2018-02-04T03:20:32Z</time>
      </trkpt>
      <trkpt lat="45.17707" lon="5.48429">
        <ele>724</ele>
        <time>2018-02-04T03:21:32Z</time>
      </trkpt>
      <trkpt lat="45.17707" lon="5.48428">
        <ele>725</ele>
        <time>2018-02-04T03:22:32Z</time>
      </trkpt>
      <trkpt lat="45.17703" lon="5.48431">
        <ele>724</ele>
        <time>2018-02-04T03:23:32Z</time>
      </trkpt>
      <trkpt lat="45.17698" lon="5.48434">
        <ele>724</ele>
        <time>2018-02-04T03:24:32Z</time>
      </trkpt>
      <trkpt lat="45.17694" lon="5.48439">
        <ele>723</ele>
        <time>2018-02-04T03:25:32Z</time>
      </trkpt>
      <trkpt lat="45.1769" lon="5.48444">
        <ele>722</ele>
        <time>2018-02-04T03:26:32Z</time>
      </trkpt>
      <trkpt lat="45.17686" lon="5.4845">
        <ele>721</ele>
        <time>2018-02-04T03:27:32Z</time>
      </trkpt>
      <trkpt lat="45.17683" lon="5.48456">
        <ele>720</ele>
        <time>2018-02-04T03:28:32Z</time>
      </trkpt>
      <trkpt lat="45.17681" lon="5.48462">
        <ele>719</ele>
        <time>2018-02-04T03:29:32Z</time>
      </trkpt>
      <trkpt lat="45.17679" lon="5.4847">
        <ele>717</ele>
        <time>2018-02-04T03:30:32Z</time>
      </trkpt>
      <trkpt lat="45.17677" lon="5.48479">
        <ele>716</ele>
        <time>2018-02-04T03:31:32Z</time>
      </trkpt>
      <trkpt lat="45.17675" lon="5.48486">
        <ele>715</ele>
        <time>2018-02-04T03:32:32Z</time>
      </trkpt>
      <trkpt lat="45.17673" lon="5.48504">
        <ele>711</ele>
        <time>2018-02-04T03:33:32Z</time>
      </trkpt>
      <trkpt lat="45.17672" lon="5.48516">
        <ele>708</ele>
        <time>2018-02-04T03:34:32Z</time>
      </trkpt>
      <trkpt lat="45.17671" lon="5.48529">
        <ele>704</ele>
        <time>2018-02-04T03:35:32Z</time>
      </trkpt>
      <trkpt lat="45.17669" lon="5.48558">
        <ele>697</ele>
        <time>2018-02-04T03:36:32Z</time>
      </trkpt>
      <trkpt lat="45.17668" lon="5.48585">
        <ele>690</ele>
        <time>2018-02-04T03:37:32Z</time>
      </trkpt>
      <trkpt lat="45.17664" lon="5.48627">
        <ele>688</ele>
        <time>2018-02-04T03:38:32Z</time>
      </trkpt>
      <trkpt lat="45.17664" lon="5.48643">
        <ele>686</ele>
        <time>2018-02-04T03:39:32Z</time>
      </trkpt>
      <trkpt lat="45.17664" lon="5.48656">
        <ele>685</ele>
        <time>2018-02-04T03:40:32Z</time>
      </trkpt>
      <trkpt lat="45.17664" lon="5.48664">
        <ele>684</ele>
        <time>2018-02-04T03:41:32Z</time>
      </trkpt>
      <trkpt lat="45.17663" lon="5.48675">
        <ele>684</ele>
        <time>2018-02-04T03:42:32Z</time>
      </trkpt>
      <trkpt lat="45.17662" lon="5.48681">
        <ele>684</ele>
        <time>2018-02-04T03:43:32Z</time>
      </trkpt>
      <trkpt lat="45.17661" lon="5.48691">
        <ele>684</ele>
        <time>2018-02-04T03:44:32Z</time>
      </trkpt>
      <trkpt lat="45.17659" lon="5.48698">
        <ele>685</ele>
        <time>2018-02-04T03:45:32Z</time>
      </trkpt>
      <trkpt lat="45.17658" lon="5.48707">
        <ele>685</ele>
        <time>2018-02-04T03:46:32Z</time>
      </trkpt>
      <trkpt lat="45.17655" lon="5.48714">
        <ele>687</ele>
        <time>2018-02-04T03:47:32Z</time>
      </trkpt>
      <trkpt lat="45.17653" lon="5.48721">
        <ele>687</ele>
        <time>2018-02-04T03:48:32Z</time>
      </trkpt>
      <trkpt lat="45.1765" lon="5.48727">
        <ele>689</ele>
        <time>2018-02-04T03:49:32Z</time>
      </trkpt>
      <trkpt lat="45.17646" lon="5.48732">
        <ele>691</ele>
        <time>2018-02-04T03:50:32Z</time>
      </trkpt>
      <trkpt lat="45.17642" lon="5.48736">
        <ele>694</ele>
        <time>2018-02-04T03:51:32Z</time>
      </trkpt>
      <trkpt lat="45.17639" lon="5.4874">
        <ele>696</ele>
        <time>2018-02-04T03:52:32Z</time>
      </trkpt>
      <trkpt lat="45.17637" lon="5.48742">
        <ele>697</ele>
        <time>2018-02-04T03:53:32Z</time>
      </trkpt>
      <trkpt lat="45.17634" lon="5.4876">
        <ele>698</ele>
        <time>2018-02-04T03:54:32Z</time>
      </trkpt>
      <trkpt lat="45.17637" lon="5.48768">
        <ele>695</ele>
        <time>2018-02-04T03:55:32Z</time>
      </trkpt>
      <trkpt lat="45.17641" lon="5.48774">
        <ele>692</ele>
        <time>2018-02-04T03:56:32Z</time>
      </trkpt>
      <trkpt lat="45.17649" lon="5.48782">
        <ele>686</ele>
        <time>2018-02-04T03:57:32Z</time>
      </trkpt>
      <trkpt lat="45.17654" lon="5.48789">
        <ele>682</ele>
        <time>2018-02-04T03:58:32Z</time>
      </trkpt>
      <trkpt lat="45.17657" lon="5.48797">
        <ele>680</ele>
        <time>2018-02-04T03:59:32Z</time>
      </trkpt>
      <trkpt lat="45.17658" lon="5.48817">
        <ele>678</ele>
        <time>2018-02-04T04:00:32Z</time>
      </trkpt>
      <trkpt lat="45.17657" lon="5.4884">
        <ele>677</ele>
        <time>2018-02-04T04:01:32Z</time>
      </trkpt>
      <trkpt lat="45.17655" lon="5.48894">
        <ele>676</ele>
        <time>2018-02-04T04:02:32Z</time>
      </trkpt>
      <trkpt lat="45.17654" lon="5.48919">
        <ele>676</ele>
        <time>2018-02-04T04:03:32Z</time>
      </trkpt>
      <trkpt lat="45.17656" lon="5.48945">
        <ele>676</ele>
        <time>2018-02-04T04:04:32Z</time>
      </trkpt>
      <trkpt lat="45.17661" lon="5.4897">
        <ele>675</ele>
        <time>2018-02-04T04:05:32Z</time>
      </trkpt>
      <trkpt lat="45.17663" lon="5.48975">
        <ele>674</ele>
        <time>2018-02-04T04:06:32Z</time>
      </trkpt>
      <trkpt lat="45.1767" lon="5.48992">
        <ele>672</ele>
        <time>2018-02-04T04:07:32Z</time>
      </trkpt>
      <trkpt lat="45.1769" lon="5.49026">
        <ele>670</ele>
        <time>2018-02-04T04:08:32Z</time>
      </trkpt>
      <trkpt lat="45.17718" lon="5.49055">
        <ele>663</ele>
        <time>2018-02-04T04:09:32Z</time>
      </trkpt>
      <trkpt lat="45.17741" lon="5.49071">
        <ele>654</ele>
        <time>2018-02-04T04:10:32Z</time>
      </trkpt>
      <trkpt lat="45.17751" lon="5.49079">
        <ele>650</ele>
        <time>2018-02-04T04:11:32Z</time>
      </trkpt>
      <trkpt lat="45.17757" lon="5.49088">
        <ele>647</ele>
        <time>2018-02-04T04:12:32Z</time>
      </trkpt>
      <trkpt lat="45.17761" lon="5.49099">
        <ele>647</ele>
        <time>2018-02-04T04:13:32Z</time>
      </trkpt>
      <trkpt lat="45.17764" lon="5.49122">
        <ele>649</ele>
        <time>2018-02-04T04:14:32Z</time>
      </trkpt>
      <trkpt lat="45.1777" lon="5.49152">
        <ele>651</ele>
        <time>2018-02-04T04:15:32Z</time>
      </trkpt>
      <trkpt lat="45.17776" lon="5.49169">
        <ele>651</ele>
        <time>2018-02-04T04:16:32Z</time>
      </trkpt>
      <trkpt lat="45.17793" lon="5.49195">
        <ele>647</ele>
        <time>2018-02-04T04:17:32Z</time>
      </trkpt>
      <trkpt lat="45.17816" lon="5.49226">
        <ele>639</ele>
        <time>2018-02-04T04:18:32Z</time>
      </trkpt>
      <trkpt lat="45.17831" lon="5.49247">
        <ele>634</ele>
        <time>2018-02-04T04:19:32Z</time>
      </trkpt>
      <trkpt lat="45.17839" lon="5.49259">
        <ele>641</ele>
        <time>2018-02-04T04:20:32Z</time>
      </trkpt>
      <trkpt lat="45.17842" lon="5.49267">
        <ele>649</ele>
        <time>2018-02-04T04:21:32Z</time>
      </trkpt>
      <trkpt lat="45.17844" lon="5.49275">
        <ele>657</ele>
        <time>2018-02-04T04:22:32Z</time>
      </trkpt>
      <trkpt lat="45.17844" lon="5.49285">
        <ele>668</ele>
        <time>2018-02-04T04:23:32Z</time>
      </trkpt>
      <trkpt lat="45.17842" lon="5.49302">
        <ele>686</ele>
        <time>2018-02-04T04:24:32Z</time>
      </trkpt>
      <trkpt lat="45.17842" lon="5.49311">
        <ele>696</ele>
        <time>2018-02-04T04:25:32Z</time>
      </trkpt>
      <trkpt lat="45.17843" lon="5.49321">
        <ele>706</ele>
        <time>2018-02-04T04:26:32Z</time>
      </trkpt>
      <trkpt lat="45.17844" lon="5.49333">
        <ele>718</ele>
        <time>2018-02-04T04:27:32Z</time>
      </trkpt>
      <trkpt lat="45.17846" lon="5.49344">
        <ele>726</ele>
        <time>2018-02-04T04:28:32Z</time>
      </trkpt>
      <trkpt lat="45.1785" lon="5.49353">
        <ele>731</ele>
        <time>2018-02-04T04:29:32Z</time>
      </trkpt>
      <trkpt lat="45.17855" lon="5.4936">
        <ele>734</ele>
        <time>2018-02-04T04:30:32Z</time>
      </trkpt>
      <trkpt lat="45.17861" lon="5.49368">
        <ele>739</ele>
        <time>2018-02-04T04:31:32Z</time>
      </trkpt>
      <trkpt lat="45.17866" lon="5.49373">
        <ele>741</ele>
        <time>2018-02-04T04:32:32Z</time>
      </trkpt>
      <trkpt lat="45.17872" lon="5.49377">
        <ele>742</ele>
        <time>2018-02-04T04:33:32Z</time>
      </trkpt>
      <trkpt lat="45.17877" lon="5.4938">
        <ele>743</ele>
        <time>2018-02-04T04:34:32Z</time>
      </trkpt>
      <trkpt lat="45.17883" lon="5.4938">
        <ele>740</ele>
        <time>2018-02-04T04:35:32Z</time>
      </trkpt>
      <trkpt lat="45.17887" lon="5.4938">
        <ele>739</ele>
        <time>2018-02-04T04:36:32Z</time>
      </trkpt>
      <trkpt lat="45.17891" lon="5.49379">
        <ele>737</ele>
        <time>2018-02-04T04:37:32Z</time>
      </trkpt>
      <trkpt lat="45.17899" lon="5.49374">
        <ele>729</ele>
        <time>2018-02-04T04:38:32Z</time>
      </trkpt>
      <trkpt lat="45.17907" lon="5.49368">
        <ele>720</ele>
        <time>2018-02-04T04:39:32Z</time>
      </trkpt>
      <trkpt lat="45.1791" lon="5.49365">
        <ele>716</ele>
        <time>2018-02-04T04:40:32Z</time>
      </trkpt>
      <trkpt lat="45.17913" lon="5.49363">
        <ele>712</ele>
        <time>2018-02-04T04:41:32Z</time>
      </trkpt>
      <trkpt lat="45.17917" lon="5.49358">
        <ele>706</ele>
        <time>2018-02-04T04:42:32Z</time>
      </trkpt>
      <trkpt lat="45.1792" lon="5.49352">
        <ele>700</ele>
        <time>2018-02-04T04:43:32Z</time>
      </trkpt>
      <trkpt lat="45.17921" lon="5.49348">
        <ele>696</ele>
        <time>2018-02-04T04:44:32Z</time>
      </trkpt>
      <trkpt lat="45.17922" lon="5.49343">
        <ele>691</ele>
        <time>2018-02-04T04:45:32Z</time>
      </trkpt>
      <trkpt lat="45.17922" lon="5.49335">
        <ele>683</ele>
        <time>2018-02-04T04:46:32Z</time>
      </trkpt>
      <trkpt lat="45.17923" lon="5.49324">
        <ele>675</ele>
        <time>2018-02-04T04:47:32Z</time>
      </trkpt>
      <trkpt lat="45.17924" lon="5.49318">
        <ele>670</ele>
        <time>2018-02-04T04:48:32Z</time>
      </trkpt>
      <trkpt lat="45.17927" lon="5.49307">
        <ele>663</ele>
        <time>2018-02-04T04:49:32Z</time>
      </trkpt>
      <trkpt lat="45.17934" lon="5.49287">
        <ele>651</ele>
        <time>2018-02-04T04:50:32Z</time>
      </trkpt>
      <trkpt lat="45.17945" lon="5.49259">
        <ele>636</ele>
        <time>2018-02-04T04:51:32Z</time>
      </trkpt>
      <trkpt lat="45.17952" lon="5.49245">
        <ele>632</ele>
        <time>2018-02-04T04:52:32Z</time>
      </trkpt>
      <trkpt lat="45.17966" lon="5.49219">
        <ele>630</ele>
        <time>2018-02-04T04:53:32Z</time>
      </trkpt>
      <trkpt lat="45.17971" lon="5.49208">
        <ele>628</ele>
        <time>2018-02-04T04:54:32Z</time>
      </trkpt>
      <trkpt lat="45.17979" lon="5.4918">
        <ele>622</ele>
        <time>2018-02-04T04:55:32Z</time>
      </trkpt>
      <trkpt lat="45.17986" lon="5.4916">
        <ele>622</ele>
        <time>2018-02-04T04:56:32Z</time>
      </trkpt>
      <trkpt lat="45.17994" lon="5.49148">
        <ele>628</ele>
        <time>2018-02-04T04:57:32Z</time>
      </trkpt>
      <trkpt lat="45.18001" lon="5.49136">
        <ele>635</ele>
        <time>2018-02-04T04:58:32Z</time>
      </trkpt>
      <trkpt lat="45.18013" lon="5.49107">
        <ele>642</ele>
        <time>2018-02-04T04:59:32Z</time>
      </trkpt>
      <trkpt lat="45.18016" lon="5.49095">
        <ele>643</ele>
        <time>2018-02-04T05:00:32Z</time>
      </trkpt>
      <trkpt lat="45.18019" lon="5.49081">
        <ele>643</ele>
        <time>2018-02-04T05:01:32Z</time>
      </trkpt>
      <trkpt lat="45.1803" lon="5.4901">
        <ele>608</ele>
        <time>2018-02-04T05:02:32Z</time>
      </trkpt>
      <trkpt lat="45.18035" lon="5.48979">
        <ele>599</ele>
        <time>2018-02-04T05:03:32Z</time>
      </trkpt>
      <trkpt lat="45.18037" lon="5.48967">
        <ele>596</ele>
        <time>2018-02-04T05:04:32Z</time>
      </trkpt>
      <trkpt lat="45.18037" lon="5.48959">
        <ele>594</ele>
        <time>2018-02-04T05:05:32Z</time>
      </trkpt>
      <trkpt lat="45.18036" lon="5.48955">
        <ele>592</ele>
        <time>2018-02-04T05:06:32Z</time>
      </trkpt>
      <trkpt lat="45.18035" lon="5.4895">
        <ele>591</ele>
        <time>2018-02-04T05:07:32Z</time>
      </trkpt>
      <trkpt lat="45.18034" lon="5.48947">
        <ele>590</ele>
        <time>2018-02-04T05:08:32Z</time>
      </trkpt>
      <trkpt lat="45.18031" lon="5.48944">
        <ele>589</ele>
        <time>2018-02-04T05:09:32Z</time>
      </trkpt>
      <trkpt lat="45.1802" lon="5.48933">
        <ele>585</ele>
        <time>2018-02-04T05:10:32Z</time>
      </trkpt>
      <trkpt lat="45.18015" lon="5.48928">
        <ele>583</ele>
        <time>2018-02-04T05:11:32Z</time>
      </trkpt>
      <trkpt lat="45.18013" lon="5.48926">
        <ele>582</ele>
        <time>2018-02-04T05:12:32Z</time>
      </trkpt>
      <trkpt lat="45.1801" lon="5.48922">
        <ele>581</ele>
        <time>2018-02-04T05:13:32Z</time>
      </trkpt>
      <trkpt lat="45.18008" lon="5.48916">
        <ele>580</ele>
        <time>2018-02-04T05:14:32Z</time>
      </trkpt>
      <trkpt lat="45.18006" lon="5.4891">
        <ele>580</ele>
        <time>2018-02-04T05:15:32Z</time>
      </trkpt>
      <trkpt lat="45.18004" lon="5.48904">
        <ele>579</ele>
        <time>2018-02-04T05:16:32Z</time>
      </trkpt>
      <trkpt lat="45.18002" lon="5.48896">
        <ele>578</ele>
        <time>2018-02-04T05:17:32Z</time>
      </trkpt>
      <trkpt lat="45.18" lon="5.48883">
        <ele>576</ele>
        <time>2018-02-04T05:18:32Z</time>
      </trkpt>
      <trkpt lat="45.17999" lon="5.48872">
        <ele>575</ele>
        <time>2018-02-04T05:19:32Z</time>
      </trkpt>
      <trkpt lat="45.18" lon="5.48863">
        <ele>574</ele>
        <time>2018-02-04T05:20:32Z</time>
      </trkpt>
      <trkpt lat="45.18001" lon="5.48856">
        <ele>573</ele>
        <time>2018-02-04T05:21:32Z</time>
      </trkpt>
      <trkpt lat="45.18004" lon="5.48851">
        <ele>573</ele>
        <time>2018-02-04T05:22:32Z</time>
      </trkpt>
      <trkpt lat="45.18007" lon="5.48848">
        <ele>572</ele>
        <time>2018-02-04T05:23:32Z</time>
      </trkpt>
      <trkpt lat="45.18014" lon="5.48845">
        <ele>571</ele>
        <time>2018-02-04T05:24:32Z</time>
      </trkpt>
      <trkpt lat="45.18018" lon="5.48844">
        <ele>571</ele>
        <time>2018-02-04T05:25:32Z</time>
      </trkpt>
      <trkpt lat="45.18023" lon="5.48843">
        <ele>570</ele>
        <time>2018-02-04T05:26:32Z</time>
      </trkpt>
      <trkpt lat="45.18027" lon="5.48845">
        <ele>570</ele>
        <time>2018-02-04T05:27:32Z</time>
      </trkpt>
      <trkpt lat="45.1803" lon="5.48847">
        <ele>571</ele>
        <time>2018-02-04T05:28:32Z</time>
      </trkpt>
      <trkpt lat="45.18036" lon="5.48854">
        <ele>571</ele>
        <time>2018-02-04T05:29:32Z</time>
      </trkpt>
      <trkpt lat="45.18045" lon="5.48869">
        <ele>574</ele>
        <time>2018-02-04T05:30:32Z</time>
      </trkpt>
      <trkpt lat="45.1805" lon="5.48878">
        <ele>575</ele>
        <time>2018-02-04T05:31:32Z</time>
      </trkpt>
      <trkpt lat="45.18055" lon="5.48885">
        <ele>576</ele>
        <time>2018-02-04T05:32:32Z</time>
      </trkpt>
      <trkpt lat="45.18071" lon="5.48906">
        <ele>581</ele>
        <time>2018-02-04T05:33:32Z</time>
      </trkpt>
      <trkpt lat="45.18088" lon="5.48923">
        <ele>587</ele>
        <time>2018-02-04T05:34:32Z</time>
      </trkpt>
      <trkpt lat="45.18097" lon="5.48931">
        <ele>591</ele>
        <time>2018-02-04T05:35:32Z</time>
      </trkpt>
      <trkpt lat="45.18111" lon="5.48938">
        <ele>595</ele>
        <time>2018-02-04T05:36:32Z</time>
      </trkpt>
      <trkpt lat="45.18121" lon="5.4894">
        <ele>597</ele>
        <time>2018-02-04T05:37:32Z</time>
      </trkpt>
      <trkpt lat="45.18132" lon="5.4894">
        <ele>598</ele>
        <time>2018-02-04T05:38:32Z</time>
      </trkpt>
      <trkpt lat="45.18137" lon="5.4894">
        <ele>598</ele>
        <time>2018-02-04T05:39:32Z</time>
      </trkpt>
      <trkpt lat="45.18143" lon="5.48939">
        <ele>598</ele>
        <time>2018-02-04T05:40:32Z</time>
      </trkpt>
      <trkpt lat="45.1815" lon="5.48936">
        <ele>597</ele>
        <time>2018-02-04T05:41:32Z</time>
      </trkpt>
      <trkpt lat="45.18157" lon="5.48931">
        <ele>595</ele>
        <time>2018-02-04T05:42:32Z</time>
      </trkpt>
      <trkpt lat="45.18164" lon="5.48923">
        <ele>591</ele>
        <time>2018-02-04T05:43:32Z</time>
      </trkpt>
      <trkpt lat="45.18169" lon="5.48915">
        <ele>589</ele>
        <time>2018-02-04T05:44:32Z</time>
      </trkpt>
      <trkpt lat="45.18173" lon="5.48905">
        <ele>587</ele>
        <time>2018-02-04T05:45:32Z</time>
      </trkpt>
      <trkpt lat="45.18179" lon="5.48892">
        <ele>583</ele>
        <time>2018-02-04T05:46:32Z</time>
      </trkpt>
      <trkpt lat="45.18185" lon="5.48878">
        <ele>579</ele>
        <time>2018-02-04T05:47:32Z</time>
      </trkpt>
      <trkpt lat="45.18191" lon="5.4887">
        <ele>577</ele>
        <time>2018-02-04T05:48:32Z</time>
      </trkpt>
      <trkpt lat="45.18198" lon="5.48861">
        <ele>575</ele>
        <time>2018-02-04T05:49:32Z</time>
      </trkpt>
      <trkpt lat="45.18205" lon="5.48855">
        <ele>574</ele>
        <time>2018-02-04T05:50:32Z</time>
      </trkpt>
      <trkpt lat="45.18213" lon="5.48848">
        <ele>572</ele>
        <time>2018-02-04T05:51:32Z</time>
      </trkpt>
      <trkpt lat="45.18235" lon="5.48831">
        <ele>566</ele>
        <time>2018-02-04T05:52:32Z</time>
      </trkpt>
      <trkpt lat="45.18241" lon="5.48825">
        <ele>566</ele>
        <time>2018-02-04T05:53:32Z</time>
      </trkpt>
      <trkpt lat="45.1826" lon="5.48792">
        <ele>563</ele>
        <time>2018-02-04T05:54:32Z</time>
      </trkpt>
      <trkpt lat="45.18264" lon="5.48786">
        <ele>563</ele>
        <time>2018-02-04T05:55:32Z</time>
      </trkpt>
      <trkpt lat="45.18277" lon="5.48771">
        <ele>564</ele>
        <time>2018-02-04T05:56:32Z</time>
      </trkpt>
      <trkpt lat="45.18287" lon="5.48761">
        <ele>565</ele>
        <time>2018-02-04T05:57:32Z</time>
      </trkpt>
      <trkpt lat="45.18298" lon="5.48748">
        <ele>565</ele>
        <time>2018-02-04T05:58:32Z</time>
      </trkpt>
      <trkpt lat="45.18322" lon="5.48711">
        <ele>561</ele>
        <time>2018-02-04T05:59:32Z</time>
      </trkpt>
      <trkpt lat="45.18331" lon="5.48693">
        <ele>557</ele>
        <time>2018-02-04T06:00:32Z</time>
      </trkpt>
      <trkpt lat="45.18342" lon="5.48672">
        <ele>553</ele>
        <time>2018-02-04T06:01:32Z</time>
      </trkpt>
      <trkpt lat="45.18347" lon="5.48663">
        <ele>552</ele>
        <time>2018-02-04T06:02:32Z</time>
      </trkpt>
      <trkpt lat="45.1835" lon="5.48654">
        <ele>551</ele>
        <time>2018-02-04T06:03:32Z</time>
      </trkpt>
      <trkpt lat="45.18353" lon="5.48645">
        <ele>550</ele>
        <time>2018-02-04T06:04:32Z</time>
      </trkpt>
      <trkpt lat="45.18355" lon="5.48635">
        <ele>548</ele>
        <time>2018-02-04T06:05:32Z</time>
      </trkpt>
      <trkpt lat="45.18356" lon="5.48607">
        <ele>542</ele>
        <time>2018-02-04T06:06:32Z</time>
      </trkpt>
      <trkpt lat="45.18357" lon="5.486">
        <ele>540</ele>
        <time>2018-02-04T06:07:32Z</time>
      </trkpt>
      <trkpt lat="45.18361" lon="5.48593">
        <ele>540</ele>
        <time>2018-02-04T06:08:32Z</time>
      </trkpt>
      <trkpt lat="45.18367" lon="5.48585">
        <ele>539</ele>
        <time>2018-02-04T06:09:32Z</time>
      </trkpt>
      <trkpt lat="45.18372" lon="5.4858">
        <ele>539</ele>
        <time>2018-02-04T06:10:32Z</time>
      </trkpt>
      <trkpt lat="45.18379" lon="5.48575">
        <ele>539</ele>
        <time>2018-02-04T06:11:32Z</time>
      </trkpt>
      <trkpt lat="45.18389" lon="5.48571">
        <ele>540</ele>
        <time>2018-02-04T06:12:32Z</time>
      </trkpt>
      <trkpt lat="45.18396" lon="5.48569">
        <ele>541</ele>
        <time>2018-02-04T06:13:32Z</time>
      </trkpt>
      <trkpt lat="45.18405" lon="5.48568">
        <ele>543</ele>
        <time>2018-02-04T06:14:32Z</time>
      </trkpt>
      <trkpt lat="45.18419" lon="5.4857">
        <ele>546</ele>
        <time>2018-02-04T06:15:32Z</time>
      </trkpt>
      <trkpt lat="45.18424" lon="5.48571">
        <ele>547</ele>
        <time>2018-02-04T06:16:32Z</time>
      </trkpt>
      <trkpt lat="45.18454" lon="5.48586">
        <ele>557</ele>
        <time>2018-02-04T06:17:32Z</time>
      </trkpt>
      <trkpt lat="45.18457" lon="5.48586">
        <ele>557</ele>
        <time>2018-02-04T06:18:32Z</time>
      </trkpt>
      <trkpt lat="45.1846" lon="5.48586">
        <ele>558</ele>
        <time>2018-02-04T06:19:32Z</time>
      </trkpt>
      <trkpt lat="45.18466" lon="5.48585">
        <ele>558</ele>
        <time>2018-02-04T06:20:32Z</time>
      </trkpt>
      <trkpt lat="45.18471" lon="5.48581">
        <ele>557</ele>
        <time>2018-02-04T06:21:32Z</time>
      </trkpt>
      <trkpt lat="45.18478" lon="5.48574">
        <ele>555</ele>
        <time>2018-02-04T06:22:32Z</time>
      </trkpt>
      <trkpt lat="45.18483" lon="5.48564">
        <ele>551</ele>
        <time>2018-02-04T06:23:32Z</time>
      </trkpt>
      <trkpt lat="45.18487" lon="5.48551">
        <ele>546</ele>
        <time>2018-02-04T06:24:32Z</time>
      </trkpt>
      <trkpt lat="45.18489" lon="5.48539">
        <ele>541</ele>
        <time>2018-02-04T06:25:32Z</time>
      </trkpt>
      <trkpt lat="45.18492" lon="5.48522">
        <ele>534</ele>
        <time>2018-02-04T06:26:32Z</time>
      </trkpt>
      <trkpt lat="45.18494" lon="5.48517">
        <ele>532</ele>
        <time>2018-02-04T06:27:32Z</time>
      </trkpt>
      <trkpt lat="45.18496" lon="5.48513">
        <ele>531</ele>
        <time>2018-02-04T06:28:32Z</time>
      </trkpt>
      <trkpt lat="45.18499" lon="5.48509">
        <ele>530</ele>
        <time>2018-02-04T06:29:32Z</time>
      </trkpt>
      <trkpt lat="45.18503" lon="5.48507">
        <ele>529</ele>
        <time>2018-02-04T06:30:32Z</time>
      </trkpt>
      <trkpt lat="45.18506" lon="5.48505">
        <ele>529</ele>
        <time>2018-02-04T06:31:32Z</time>
      </trkpt>
      <trkpt lat="45.18509" lon="5.48504">
        <ele>529</ele>
        <time>2018-02-04T06:32:32Z</time>
      </trkpt>
      <trkpt lat="45.18519" lon="5.48503">
        <ele>529</ele>
        <time>2018-02-04T06:33:32Z</time>
      </trkpt>
      <trkpt lat="45.18557" lon="5.48502">
        <ele>533</ele>
        <time>2018-02-04T06:34:32Z</time>
      </trkpt>
      <trkpt lat="45.1857" lon="5.48501">
        <ele>534</ele>
        <time>2018-02-04T06:35:32Z</time>
      </trkpt>
      <trkpt lat="45.18591" lon="5.48493">
        <ele>532</ele>
        <time>2018-02-04T06:36:32Z</time>
      </trkpt>
      <trkpt lat="45.18609" lon="5.48485">
        <ele>530</ele>
        <time>2018-02-04T06:37:32Z</time>
      </trkpt>
      <trkpt lat="45.18622" lon="5.4848">
        <ele>528</ele>
        <time>2018-02-04T06:38:32Z</time>
      </trkpt>
      <trkpt lat="45.18633" lon="5.48479">
        <ele>528</ele>
        <time>2018-02-04T06:39:32Z</time>
      </trkpt>
      <trkpt lat="45.18657" lon="5.48479">
        <ele>528</ele>
        <time>2018-02-04T06:40:32Z</time>
      </trkpt>
      <trkpt lat="45.18686" lon="5.48482">
        <ele>526</ele>
        <time>2018-02-04T06:41:32Z</time>
      </trkpt>
      <trkpt lat="45.18701" lon="5.48485">
        <ele>525</ele>
        <time>2018-02-04T06:42:32Z</time>
      </trkpt>
      <trkpt lat="45.18714" lon="5.48488">
        <ele>524</ele>
        <time>2018-02-04T06:43:32Z</time>
      </trkpt>
      <trkpt lat="45.18726" lon="5.48489">
        <ele>523</ele>
        <time>2018-02-04T06:44:32Z</time>
      </trkpt>
      <trkpt lat="45.18737" lon="5.48489">
        <ele>521</ele>
        <time>2018-02-04T06:45:32Z</time>
      </trkpt>
      <trkpt lat="45.18744" lon="5.48488">
        <ele>519</ele>
        <time>2018-02-04T06:46:32Z</time>
      </trkpt>
      <trkpt lat="45.1875" lon="5.48487">
        <ele>518</ele>
        <time>2018-02-04T06:47:32Z</time>
      </trkpt>
      <trkpt lat="45.18761" lon="5.48483">
        <ele>517</ele>
        <time>2018-02-04T06:48:32Z</time>
      </trkpt>
      <trkpt lat="45.18774" lon="5.48475">
        <ele>514</ele>
        <time>2018-02-04T06:49:32Z</time>
      </trkpt>
      <trkpt lat="45.18797" lon="5.48457">
        <ele>508</ele>
        <time>2018-02-04T06:50:32Z</time>
      </trkpt>
      <trkpt lat="45.18806" lon="5.48453">
        <ele>506</ele>
        <time>2018-02-04T06:51:32Z</time>
      </trkpt>
      <trkpt lat="45.18815" lon="5.48449">
        <ele>505</ele>
        <time>2018-02-04T06:52:32Z</time>
      </trkpt>
      <trkpt lat="45.18823" lon="5.48447">
        <ele>504</ele>
        <time>2018-02-04T06:53:32Z</time>
      </trkpt>
      <trkpt lat="45.18832" lon="5.48446">
        <ele>504</ele>
        <time>2018-02-04T06:54:32Z</time>
      </trkpt>
      <trkpt lat="45.18838" lon="5.48447">
        <ele>504</ele>
        <time>2018-02-04T06:55:32Z</time>
      </trkpt>
      <trkpt lat="45.18845" lon="5.48448">
        <ele>503</ele>
        <time>2018-02-04T06:56:32Z</time>
      </trkpt>
      <trkpt lat="45.18861" lon="5.48456">
        <ele>503</ele>
        <time>2018-02-04T06:57:32Z</time>
      </trkpt>
      <trkpt lat="45.18872" lon="5.48462">
        <ele>503</ele>
        <time>2018-02-04T06:58:32Z</time>
      </trkpt>
      <trkpt lat="45.18932" lon="5.48506">
        <ele>505</ele>
        <time>2018-02-04T06:59:32Z</time>
      </trkpt>
      <trkpt lat="45.18945" lon="5.48517">
        <ele>502</ele>
        <time>2018-02-04T07:00:32Z</time>
      </trkpt>
      <trkpt lat="45.1896" lon="5.48527">
        <ele>499</ele>
        <time>2018-02-04T07:01:32Z</time>
      </trkpt>
      <trkpt lat="45.18977" lon="5.48539">
        <ele>495</ele>
        <time>2018-02-04T07:02:32Z</time>
      </trkpt>
      <trkpt lat="45.1899" lon="5.4855">
        <ele>492</ele>
        <time>2018-02-04T07:03:32Z</time>
      </trkpt>
      <trkpt lat="45.18999" lon="5.48556">
        <ele>490</ele>
        <time>2018-02-04T07:04:32Z</time>
      </trkpt>
      <trkpt lat="45.19008" lon="5.4856">
        <ele>489</ele>
        <time>2018-02-04T07:05:32Z</time>
      </trkpt>
      <trkpt lat="45.19017" lon="5.48562">
        <ele>487</ele>
        <time>2018-02-04T07:06:32Z</time>
      </trkpt>
      <trkpt lat="45.19036" lon="5.48563">
        <ele>482</ele>
        <time>2018-02-04T07:07:32Z</time>
      </trkpt>
      <trkpt lat="45.1904" lon="5.48564">
        <ele>482</ele>
        <time>2018-02-04T07:08:32Z</time>
      </trkpt>
      <trkpt lat="45.19042" lon="5.48565">
        <ele>481</ele>
        <time>2018-02-04T07:09:32Z</time>
      </trkpt>
      <trkpt lat="45.19044" lon="5.48566">
        <ele>481</ele>
        <time>2018-02-04T07:10:32Z</time>
      </trkpt>
      <trkpt lat="45.19049" lon="5.4857">
        <ele>481</ele>
        <time>2018-02-04T07:11:32Z</time>
      </trkpt>
      <trkpt lat="45.19059" lon="5.48584">
        <ele>482</ele>
        <time>2018-02-04T07:12:32Z</time>
      </trkpt>
      <trkpt lat="45.19065" lon="5.4859">
        <ele>481</ele>
        <time>2018-02-04T07:13:32Z</time>
      </trkpt>
      <trkpt lat="45.19069" lon="5.48597">
        <ele>481</ele>
        <time>2018-02-04T07:14:32Z</time>
      </trkpt>
      <trkpt lat="45.1908" lon="5.48607">
        <ele>480</ele>
        <time>2018-02-04T07:15:32Z</time>
      </trkpt>
      <trkpt lat="45.19088" lon="5.48612">
        <ele>479</ele>
        <time>2018-02-04T07:16:32Z</time>
      </trkpt>
      <trkpt lat="45.19091" lon="5.48613">
        <ele>478</ele>
        <time>2018-02-04T07:17:32Z</time>
      </trkpt>
      <trkpt lat="45.19106" lon="5.48622">
        <ele>476</ele>
        <time>2018-02-04T07:18:32Z</time>
      </trkpt>
      <trkpt lat="45.19117" lon="5.48626">
        <ele>474</ele>
        <time>2018-02-04T07:19:32Z</time>
      </trkpt>
      <trkpt lat="45.19132" lon="5.48631">
        <ele>471</ele>
        <time>2018-02-04T07:20:32Z</time>
      </trkpt>
      <trkpt lat="45.19147" lon="5.48634">
        <ele>468</ele>
        <time>2018-02-04T07:21:32Z</time>
      </trkpt>
      <trkpt lat="45.19159" lon="5.48635">
        <ele>466</ele>
        <time>2018-02-04T07:22:32Z</time>
      </trkpt>
      <trkpt lat="45.1917" lon="5.48635">
        <ele>463</ele>
        <time>2018-02-04T07:23:32Z</time>
      </trkpt>
      <trkpt lat="45.19177" lon="5.48637">
        <ele>462</ele>
        <time>2018-02-04T07:24:32Z</time>
      </trkpt>
      <trkpt lat="45.19184" lon="5.4864">
        <ele>461</ele>
        <time>2018-02-04T07:25:32Z</time>
      </trkpt>
      <trkpt lat="45.19195" lon="5.48648">
        <ele>460</ele>
        <time>2018-02-04T07:26:32Z</time>
      </trkpt>
      <trkpt lat="45.19213" lon="5.48666">
        <ele>462</ele>
        <time>2018-02-04T07:27:32Z</time>
      </trkpt>
      <trkpt lat="45.19226" lon="5.48683">
        <ele>461</ele>
        <time>2018-02-04T07:28:32Z</time>
      </trkpt>
      <trkpt lat="45.19229" lon="5.48689">
        <ele>461</ele>
        <time>2018-02-04T07:29:32Z</time>
      </trkpt>
      <trkpt lat="45.19232" lon="5.48695">
        <ele>461</ele>
        <time>2018-02-04T07:30:32Z</time>
      </trkpt>
      <trkpt lat="45.19236" lon="5.48711">
        <ele>462</ele>
        <time>2018-02-04T07:31:32Z</time>
      </trkpt>
      <trkpt lat="45.19238" lon="5.48718">
        <ele>462</ele>
        <time>2018-02-04T07:32:32Z</time>
      </trkpt>
      <trkpt lat="45.19242" lon="5.48725">
        <ele>462</ele>
        <time>2018-02-04T07:33:32Z</time>
      </trkpt>
      <trkpt lat="45.19244" lon="5.48727">
        <ele>462</ele>
        <time>2018-02-04T07:34:32Z</time>
      </trkpt>
      <trkpt lat="45.19251" lon="5.48733">
        <ele>460</ele>
        <time>2018-02-04T07:35:32Z</time>
      </trkpt>
      <trkpt lat="45.19257" lon="5.48736">
        <ele>460</ele>
        <time>2018-02-04T07:36:32Z</time>
      </trkpt>
      <trkpt lat="45.19264" lon="5.48737">
        <ele>459</ele>
        <time>2018-02-04T07:37:32Z</time>
      </trkpt>
      <trkpt lat="45.19285" lon="5.48738">
        <ele>457</ele>
        <time>2018-02-04T07:38:32Z</time>
      </trkpt>
      <trkpt lat="45.193" lon="5.48738">
        <ele>456</ele>
        <time>2018-02-04T07:39:32Z</time>
      </trkpt>
      <trkpt lat="45.19314" lon="5.48736">
        <ele>454</ele>
        <time>2018-02-04T07:40:32Z</time>
      </trkpt>
      <trkpt lat="45.19322" lon="5.48735">
        <ele>453</ele>
        <time>2018-02-04T07:41:32Z</time>
      </trkpt>
      <trkpt lat="45.19327" lon="5.48736">
        <ele>453</ele>
        <time>2018-02-04T07:42:32Z</time>
      </trkpt>
      <trkpt lat="45.19332" lon="5.48738">
        <ele>453</ele>
        <time>2018-02-04T07:43:32Z</time>
      </trkpt>
      <trkpt lat="45.1934" lon="5.48741">
        <ele>452</ele>
        <time>2018-02-04T07:44:32Z</time>
      </trkpt>
      <trkpt lat="45.19344" lon="5.48742">
        <ele>451</ele>
        <time>2018-02-04T07:45:32Z</time>
      </trkpt>
      <trkpt lat="45.19353" lon="5.48743">
        <ele>450</ele>
        <time>2018-02-04T07:46:32Z</time>
      </trkpt>
      <trkpt lat="45.1937" lon="5.48743">
        <ele>445</ele>
        <time>2018-02-04T07:47:32Z</time>
      </trkpt>
      <trkpt lat="45.1938" lon="5.48743">
        <ele>443</ele>
        <time>2018-02-04T07:48:32Z</time>
      </trkpt>
      <trkpt lat="45.19384" lon="5.48744">
        <ele>442</ele>
        <time>2018-02-04T07:49:32Z</time>
      </trkpt>
      <trkpt lat="45.19388" lon="5.48746">
        <ele>442</ele>
        <time>2018-02-04T07:50:32Z</time>
      </trkpt>
      <trkpt lat="45.19395" lon="5.4875">
        <ele>441</ele>
        <time>2018-02-04T07:51:32Z</time>
      </trkpt>
      <trkpt lat="45.194" lon="5.48754">
        <ele>442</ele>
        <time>2018-02-04T07:52:32Z</time>
      </trkpt>
      <trkpt lat="45.19407" lon="5.48761">
        <ele>442</ele>
        <time>2018-02-04T07:53:32Z</time>
      </trkpt>
      <trkpt lat="45.19414" lon="5.4877">
        <ele>443</ele>
        <time>2018-02-04T07:54:32Z</time>
      </trkpt>
      <trkpt lat="45.19421" lon="5.4878">
        <ele>443</ele>
        <time>2018-02-04T07:55:32Z</time>
      </trkpt>
      <trkpt lat="45.19428" lon="5.48795">
        <ele>444</ele>
        <time>2018-02-04T07:56:32Z</time>
      </trkpt>
      <trkpt lat="45.1943" lon="5.48799">
        <ele>445</ele>
        <time>2018-02-04T07:57:32Z</time>
      </trkpt>
      <trkpt lat="45.19432" lon="5.48804">
        <ele>445</ele>
        <time>2018-02-04T07:58:32Z</time>
      </trkpt>
      <trkpt lat="45.19434" lon="5.48811">
        <ele>447</ele>
        <time>2018-02-04T07:59:32Z</time>
      </trkpt>
      <trkpt lat="45.19435" lon="5.48817">
        <ele>448</ele>
        <time>2018-02-04T08:00:32Z</time>
      </trkpt>
      <trkpt lat="45.19435" lon="5.48825">
        <ele>451</ele>
        <time>2018-02-04T08:01:32Z</time>
      </trkpt>
      <trkpt lat="45.19435" lon="5.48835">
        <ele>454</ele>
        <time>2018-02-04T08:02:32Z</time>
      </trkpt>
      <trkpt lat="45.19434" lon="5.48844">
        <ele>456</ele>
        <time>2018-02-04T08:03:32Z</time>
      </trkpt>
      <trkpt lat="45.19431" lon="5.48866">
        <ele>462</ele>
        <time>2018-02-04T08:04:32Z</time>
      </trkpt>
      <trkpt lat="45.19431" lon="5.48871">
        <ele>463</ele>
        <time>2018-02-04T08:05:32Z</time>
      </trkpt>
      <trkpt lat="45.19431" lon="5.48877">
        <ele>464</ele>
        <time>2018-02-04T08:06:32Z</time>
      </trkpt>
      <trkpt lat="45.19433" lon="5.48883">
        <ele>464</ele>
        <time>2018-02-04T08:07:32Z</time>
      </trkpt>
      <trkpt lat="45.19436" lon="5.48887">
        <ele>464</ele>
        <time>2018-02-04T08:08:32Z</time>
      </trkpt>
      <trkpt lat="45.19439" lon="5.4889">
        <ele>464</ele>
        <time>2018-02-04T08:09:32Z</time>
      </trkpt>
      <trkpt lat="45.19442" lon="5.4889">
        <ele>463</ele>
        <time>2018-02-04T08:10:32Z</time>
      </trkpt>
      <trkpt lat="45.1945" lon="5.48889">
        <ele>461</ele>
        <time>2018-02-04T08:11:32Z</time>
      </trkpt>
      <trkpt lat="45.19455" lon="5.48885">
        <ele>459</ele>
        <time>2018-02-04T08:12:32Z</time>
      </trkpt>
      <trkpt lat="45.19466" lon="5.48874">
        <ele>452</ele>
        <time>2018-02-04T08:13:32Z</time>
      </trkpt>
      <trkpt lat="45.19475" lon="5.48867">
        <ele>446</ele>
        <time>2018-02-04T08:14:32Z</time>
      </trkpt>
      <trkpt lat="45.19483" lon="5.48862">
        <ele>441</ele>
        <time>2018-02-04T08:15:32Z</time>
      </trkpt>
      <trkpt lat="45.19491" lon="5.48861">
        <ele>438</ele>
        <time>2018-02-04T08:16:32Z</time>
      </trkpt>
      <trkpt lat="45.19498" lon="5.48861">
        <ele>435</ele>
        <time>2018-02-04T08:17:32Z</time>
      </trkpt>
      <trkpt lat="45.19517" lon="5.48864">
        <ele>434</ele>
        <time>2018-02-04T08:18:32Z</time>
      </trkpt>
      <trkpt lat="45.19529" lon="5.48867">
        <ele>434</ele>
        <time>2018-02-04T08:19:32Z</time>
      </trkpt>
      <trkpt lat="45.19535" lon="5.48868">
        <ele>434</ele>
        <time>2018-02-04T08:20:32Z</time>
      </trkpt>
      <trkpt lat="45.19551" lon="5.48871">
        <ele>434</ele>
        <time>2018-02-04T08:21:32Z</time>
      </trkpt>
      <trkpt lat="45.1956" lon="5.48871">
        <ele>433</ele>
        <time>2018-02-04T08:22:32Z</time>
      </trkpt>
      <trkpt lat="45.19565" lon="5.48869">
        <ele>431</ele>
        <time>2018-02-04T08:23:32Z</time>
      </trkpt>
      <trkpt lat="45.1957" lon="5.48869">
        <ele>431</ele>
        <time>2018-02-04T08:24:32Z</time>
      </trkpt>
      <trkpt lat="45.19576" lon="5.4887">
        <ele>430</ele>
        <time>2018-02-04T08:25:32Z</time>
      </trkpt>
      <trkpt lat="45.19605" lon="5.4888">
        <ele>429</ele>
        <time>2018-02-04T08:26:32Z</time>
      </trkpt>
      <trkpt lat="45.19617" lon="5.48886">
        <ele>429</ele>
        <time>2018-02-04T08:27:32Z</time>
      </trkpt>
      <trkpt lat="45.19626" lon="5.48891">
        <ele>429</ele>
        <time>2018-02-04T08:28:32Z</time>
      </trkpt>
      <trkpt lat="45.19639" lon="5.48896">
        <ele>428</ele>
        <time>2018-02-04T08:29:32Z</time>
      </trkpt>
      <trkpt lat="45.19647" lon="5.48897">
        <ele>427</ele>
        <time>2018-02-04T08:30:32Z</time>
      </trkpt>
      <trkpt lat="45.19674" lon="5.48897">
        <ele>420</ele>
        <time>2018-02-04T08:31:32Z</time>
      </trkpt>
      <trkpt lat="45.19694" lon="5.489">
        <ele>415</ele>
        <time>2018-02-04T08:32:32Z</time>
      </trkpt>
      <trkpt lat="45.19716" lon="5.48905">
        <ele>410</ele>
        <time>2018-02-04T08:33:32Z</time>
      </trkpt>
      <trkpt lat="45.19721" lon="5.48908">
        <ele>410</ele>
        <time>2018-02-04T08:34:32Z</time>
      </trkpt>
      <trkpt lat="45.1973" lon="5.48916">
        <ele>410</ele>
        <time>2018-02-04T08:35:32Z</time>
      </trkpt>
      <trkpt lat="45.19734" lon="5.48921">
        <ele>410</ele>
        <time>2018-02-04T08:36:32Z</time>
      </trkpt>
      <trkpt lat="45.19737" lon="5.48927">
        <ele>411</ele>
        <time>2018-02-04T08:37:32Z</time>
      </trkpt>
      <trkpt lat="45.19743" lon="5.48937">
        <ele>413</ele>
        <time>2018-02-04T08:38:32Z</time>
      </trkpt>
      <trkpt lat="45.19761" lon="5.48973">
        <ele>418</ele>
        <time>2018-02-04T08:39:32Z</time>
      </trkpt>
      <trkpt lat="45.19787" lon="5.49021">
        <ele>422</ele>
        <time>2018-02-04T08:40:32Z</time>
      </trkpt>
      <trkpt lat="45.19799" lon="5.49046">
        <ele>422</ele>
        <time>2018-02-04T08:41:32Z</time>
      </trkpt>
      <trkpt lat="45.19803" lon="5.49056">
        <ele>423</ele>
        <time>2018-02-04T08:42:32Z</time>
      </trkpt>
      <trkpt lat="45.19806" lon="5.49068">
        <ele>424</ele>
        <time>2018-02-04T08:43:32Z</time>
      </trkpt>
      <trkpt lat="45.19811" lon="5.49091">
        <ele>426</ele>
        <time>2018-02-04T08:44:32Z</time>
      </trkpt>
      <trkpt lat="45.19813" lon="5.49097">
        <ele>426</ele>
        <time>2018-02-04T08:45:32Z</time>
      </trkpt>
      <trkpt lat="45.19816" lon="5.49099">
        <ele>425</ele>
        <time>2018-02-04T08:46:32Z</time>
      </trkpt>
      <trkpt lat="45.19817" lon="5.49101">
        <ele>425</ele>
        <time>2018-02-04T08:47:32Z</time>
      </trkpt>
      <trkpt lat="45.19822" lon="5.49104">
        <ele>422</ele>
        <time>2018-02-04T08:48:32Z</time>
      </trkpt>
      <trkpt lat="45.19824" lon="5.49104">
        <ele>421</ele>
        <time>2018-02-04T08:49:32Z</time>
      </trkpt>
      <trkpt lat="45.19827" lon="5.49105">
        <ele>420</ele>
        <time>2018-02-04T08:50:32Z</time>
      </trkpt>
      <trkpt lat="45.19831" lon="5.49104">
        <ele>417</ele>
        <time>2018-02-04T08:51:32Z</time>
      </trkpt>
      <trkpt lat="45.19835" lon="5.49101">
        <ele>415</ele>
        <time>2018-02-04T08:52:32Z</time>
      </trkpt>
      <trkpt lat="45.19838" lon="5.49095">
        <ele>413</ele>
        <time>2018-02-04T08:53:32Z</time>
      </trkpt>
      <trkpt lat="45.19839" lon="5.49086">
        <ele>411</ele>
        <time>2018-02-04T08:54:32Z</time>
      </trkpt>
      <trkpt lat="45.19841" lon="5.49064">
        <ele>406</ele>
        <time>2018-02-04T08:55:32Z</time>
      </trkpt>
      <trkpt lat="45.19845" lon="5.49018">
        <ele>399</ele>
        <time>2018-02-04T08:56:32Z</time>
      </trkpt>
      <trkpt lat="45.19848" lon="5.49004">
        <ele>397</ele>
        <time>2018-02-04T08:57:32Z</time>
      </trkpt>
      <trkpt lat="45.19856" lon="5.48977">
        <ele>393</ele>
        <time>2018-02-04T08:58:32Z</time>
      </trkpt>
      <trkpt lat="45.19861" lon="5.48964">
        <ele>391</ele>
        <time>2018-02-04T08:59:32Z</time>
      </trkpt>
      <trkpt lat="45.19865" lon="5.48956">
        <ele>391</ele>
        <time>2018-02-04T09:00:32Z</time>
      </trkpt>
      <trkpt lat="45.19868" lon="5.48945">
        <ele>390</ele>
        <time>2018-02-04T09:01:32Z</time>
      </trkpt>
      <trkpt lat="45.19871" lon="5.48938">
        <ele>389</ele>
        <time>2018-02-04T09:02:32Z</time>
      </trkpt>
      <trkpt lat="45.19872" lon="5.48929">
        <ele>388</ele>
        <time>2018-02-04T09:03:32Z</time>
      </trkpt>
      <trkpt lat="45.19874" lon="5.48913">
        <ele>386</ele>
        <time>2018-02-04T09:04:32Z</time>
      </trkpt>
      <trkpt lat="45.19875" lon="5.48903">
        <ele>384</ele>
        <time>2018-02-04T09:05:32Z</time>
      </trkpt>
      <trkpt lat="45.19879" lon="5.48876">
        <ele>380</ele>
        <time>2018-02-04T09:06:32Z</time>
      </trkpt>
      <trkpt lat="45.19881" lon="5.48868">
        <ele>378</ele>
        <time>2018-02-04T09:07:32Z</time>
      </trkpt>
      <trkpt lat="45.19884" lon="5.48861">
        <ele>378</ele>
        <time>2018-02-04T09:08:32Z</time>
      </trkpt>
      <trkpt lat="45.19888" lon="5.48855">
        <ele>377</ele>
        <time>2018-02-04T09:09:32Z</time>
      </trkpt>
      <trkpt lat="45.19892" lon="5.48851">
        <ele>378</ele>
        <time>2018-02-04T09:10:32Z</time>
      </trkpt>
      <trkpt lat="45.199" lon="5.4885">
        <ele>379</ele>
        <time>2018-02-04T09:11:32Z</time>
      </trkpt>
      <trkpt lat="45.19907" lon="5.48849">
        <ele>381</ele>
        <time>2018-02-04T09:12:32Z</time>
      </trkpt>
      <trkpt lat="45.19915" lon="5.48847">
        <ele>382</ele>
        <time>2018-02-04T09:13:32Z</time>
      </trkpt>
      <trkpt lat="45.1993" lon="5.48842">
        <ele>379</ele>
        <time>2018-02-04T09:14:32Z</time>
      </trkpt>
      <trkpt lat="45.19936" lon="5.4884">
        <ele>377</ele>
        <time>2018-02-04T09:15:32Z</time>
      </trkpt>
      <trkpt lat="45.19941" lon="5.48841">
        <ele>377</ele>
        <time>2018-02-04T09:16:32Z</time>
      </trkpt>
      <trkpt lat="45.19963" lon="5.4885">
        <ele>377</ele>
        <time>2018-02-04T09:17:32Z</time>
      </trkpt>
      <trkpt lat="45.19973" lon="5.48855">
        <ele>378</ele>
        <time>2018-02-04T09:18:32Z</time>
      </trkpt>
      <trkpt lat="45.19992" lon="5.48862">
        <ele>380</ele>
        <time>2018-02-04T09:19:32Z</time>
      </trkpt>
      <trkpt lat="45.20002" lon="5.48866">
        <ele>381</ele>
        <time>2018-02-04T09:20:32Z</time>
      </trkpt>
      <trkpt lat="45.20014" lon="5.4887">
        <ele>380</ele>
        <time>2018-02-04T09:21:32Z</time>
      </trkpt>
      <trkpt lat="45.20038" lon="5.48882">
        <ele>378</ele>
        <time>2018-02-04T09:22:32Z</time>
      </trkpt>
      <trkpt lat="45.20073" lon="5.48907">
        <ele>377</ele>
        <time>2018-02-04T09:23:32Z</time>
      </trkpt>
      <trkpt lat="45.20079" lon="5.48912">
        <ele>377</ele>
        <time>2018-02-04T09:24:32Z</time>
      </trkpt>
      <trkpt lat="45.20084" lon="5.48916">
        <ele>377</ele>
        <time>2018-02-04T09:25:32Z</time>
      </trkpt>
      <trkpt lat="45.20091" lon="5.48918">
        <ele>377</ele>
        <time>2018-02-04T09:26:32Z</time>
      </trkpt>
      <trkpt lat="45.20097" lon="5.48919">
        <ele>378</ele>
        <time>2018-02-04T09:27:32Z</time>
      </trkpt>
      <trkpt lat="45.20111" lon="5.48918">
        <ele>377</ele>
        <time>2018-02-04T09:28:32Z</time>
      </trkpt>
      <trkpt lat="45.2013" lon="5.48914">
        <ele>374</ele>
        <time>2018-02-04T09:29:32Z</time>
      </trkpt>
      <trkpt lat="45.20137" lon="5.48912">
        <ele>373</ele>
        <time>2018-02-04T09:30:32Z</time>
      </trkpt>
      <trkpt lat="45.20148" lon="5.4891">
        <ele>371</ele>
        <time>2018-02-04T09:31:32Z</time>
      </trkpt>
      <trkpt lat="45.20157" lon="5.48907">
        <ele>369</ele>
        <time>2018-02-04T09:32:32Z</time>
      </trkpt>
      <trkpt lat="45.20165" lon="5.48904">
        <ele>367</ele>
        <time>2018-02-04T09:33:32Z</time>
      </trkpt>
      <trkpt lat="45.20184" lon="5.48891">
        <ele>359</ele>
        <time>2018-02-04T09:34:32Z</time>
      </trkpt>
      <trkpt lat="45.20192" lon="5.48888">
        <ele>357</ele>
        <time>2018-02-04T09:35:32Z</time>
      </trkpt>
      <trkpt lat="45.202" lon="5.48886">
        <ele>356</ele>
        <time>2018-02-04T09:36:32Z</time>
      </trkpt>
      <trkpt lat="45.20217" lon="5.48886">
        <ele>355</ele>
        <time>2018-02-04T09:37:32Z</time>
      </trkpt>
      <trkpt lat="45.20228" lon="5.48888">
        <ele>355</ele>
        <time>2018-02-04T09:38:32Z</time>
      </trkpt>
      <trkpt lat="45.20261" lon="5.48897">
        <ele>356</ele>
        <time>2018-02-04T09:39:32Z</time>
      </trkpt>
      <trkpt lat="45.203" lon="5.48911">
        <ele>357</ele>
        <time>2018-02-04T09:40:32Z</time>
      </trkpt>
      <trkpt lat="45.20361" lon="5.48931">
        <ele>350</ele>
        <time>2018-02-04T09:41:32Z</time>
      </trkpt>
      <trkpt lat="45.20372" lon="5.48933">
        <ele>347</ele>
        <time>2018-02-04T09:42:32Z</time>
      </trkpt>
      <trkpt lat="45.20381" lon="5.48937">
        <ele>345</ele>
        <time>2018-02-04T09:43:32Z</time>
      </trkpt>
      <trkpt lat="45.20389" lon="5.48942">
        <ele>344</ele>
        <time>2018-02-04T09:44:32Z</time>
      </trkpt>
      <trkpt lat="45.20399" lon="5.4895">
        <ele>342</ele>
        <time>2018-02-04T09:45:32Z</time>
      </trkpt>
      <trkpt lat="45.20405" lon="5.48957">
        <ele>342</ele>
        <time>2018-02-04T09:46:32Z</time>
      </trkpt>
      <trkpt lat="45.2041" lon="5.48962">
        <ele>341</ele>
        <time>2018-02-04T09:47:32Z</time>
      </trkpt>
      <trkpt lat="45.20419" lon="5.48981">
        <ele>343</ele>
        <time>2018-02-04T09:48:32Z</time>
      </trkpt>
      <trkpt lat="45.20425" lon="5.48996">
        <ele>346</ele>
        <time>2018-02-04T09:49:32Z</time>
      </trkpt>
      <trkpt lat="45.20432" lon="5.49006">
        <ele>348</ele>
        <time>2018-02-04T09:50:32Z</time>
      </trkpt>
      <trkpt lat="45.20441" lon="5.49014">
        <ele>349</ele>
        <time>2018-02-04T09:51:32Z</time>
      </trkpt>
      <trkpt lat="45.20445" lon="5.49017">
        <ele>349</ele>
        <time>2018-02-04T09:52:32Z</time>
      </trkpt>
      <trkpt lat="45.20449" lon="5.49017">
        <ele>348</ele>
        <time>2018-02-04T09:53:32Z</time>
      </trkpt>
      <trkpt lat="45.20452" lon="5.49018">
        <ele>348</ele>
        <time>2018-02-04T09:54:32Z</time>
      </trkpt>
      <trkpt lat="45.20454" lon="5.49018">
        <ele>347</ele>
        <time>2018-02-04T09:55:32Z</time>
      </trkpt>
      <trkpt lat="45.20459" lon="5.49014">
        <ele>344</ele>
        <time>2018-02-04T09:56:32Z</time>
      </trkpt>
      <trkpt lat="45.20464" lon="5.49009">
        <ele>341</ele>
        <time>2018-02-04T09:57:32Z</time>
      </trkpt>
      <trkpt lat="45.20468" lon="5.49006">
        <ele>339</ele>
        <time>2018-02-04T09:58:32Z</time>
      </trkpt>
      <trkpt lat="45.20474" lon="5.49003">
        <ele>336</ele>
        <time>2018-02-04T09:59:32Z</time>
      </trkpt>
      <trkpt lat="45.2048" lon="5.49003">
        <ele>335</ele>
        <time>2018-02-04T10:00:32Z</time>
      </trkpt>
      <trkpt lat="45.20484" lon="5.49004">
        <ele>334</ele>
        <time>2018-02-04T10:01:32Z</time>
      </trkpt>
      <trkpt lat="45.20493" lon="5.49012">
        <ele>335</ele>
        <time>2018-02-04T10:02:32Z</time>
      </trkpt>
      <trkpt lat="45.205" lon="5.4902">
        <ele>336</ele>
        <time>2018-02-04T10:03:32Z</time>
      </trkpt>
      <trkpt lat="45.20513" lon="5.49038">
        <ele>344</ele>
        <time>2018-02-04T10:04:32Z</time>
      </trkpt>
      <trkpt lat="45.20528" lon="5.49056">
        <ele>351</ele>
        <time>2018-02-04T10:05:32Z</time>
      </trkpt>
      <trkpt lat="45.20538" lon="5.49064">
        <ele>354</ele>
        <time>2018-02-04T10:06:32Z</time>
      </trkpt>
      <trkpt lat="45.20546" lon="5.49068">
        <ele>356</ele>
        <time>2018-02-04T10:07:32Z</time>
      </trkpt>
      <trkpt lat="45.2055" lon="5.49069">
        <ele>357</ele>
        <time>2018-02-04T10:08:32Z</time>
      </trkpt>
      <trkpt lat="45.20553" lon="5.49068">
        <ele>357</ele>
        <time>2018-02-04T10:09:32Z</time>
      </trkpt>
      <trkpt lat="45.20554" lon="5.49068">
        <ele>357</ele>
        <time>2018-02-04T10:10:32Z</time>
      </trkpt>
      <trkpt lat="45.20558" lon="5.49065">
        <ele>356</ele>
        <time>2018-02-04T10:11:32Z</time>
      </trkpt>
      <trkpt lat="45.20559" lon="5.49063">
        <ele>355</ele>
        <time>2018-02-04T10:12:32Z</time>
      </trkpt>
      <trkpt lat="45.20561" lon="5.4906">
        <ele>355</ele>
        <time>2018-02-04T10:13:32Z</time>
      </trkpt>
      <trkpt lat="45.20563" lon="5.49054">
        <ele>353</ele>
        <time>2018-02-04T10:14:32Z</time>
      </trkpt>
      <trkpt lat="45.20564" lon="5.49047">
        <ele>351</ele>
        <time>2018-02-04T10:15:32Z</time>
      </trkpt>
      <trkpt lat="45.20563" lon="5.49038">
        <ele>348</ele>
        <time>2018-02-04T10:16:32Z</time>
      </trkpt>
      <trkpt lat="45.20561" lon="5.49027">
        <ele>344</ele>
        <time>2018-02-04T10:17:32Z</time>
      </trkpt>
      <trkpt lat="45.20558" lon="5.49017">
        <ele>341</ele>
        <time>2018-02-04T10:18:32Z</time>
      </trkpt>
      <trkpt lat="45.20556" lon="5.49008">
        <ele>338</ele>
        <time>2018-02-04T10:19:32Z</time>
      </trkpt>
      <trkpt lat="45.20555" lon="5.49002">
        <ele>336</ele>
        <time>2018-02-04T10:20:32Z</time>
      </trkpt>
      <trkpt lat="45.20555" lon="5.48994">
        <ele>333</ele>
        <time>2018-02-04T10:21:32Z</time>
      </trkpt>
      <trkpt lat="45.20556" lon="5.48983">
        <ele>329</ele>
        <time>2018-02-04T10:22:32Z</time>
      </trkpt>
      <trkpt lat="45.20561" lon="5.48964">
        <ele>323</ele>
        <time>2018-02-04T10:23:32Z</time>
      </trkpt>
      <trkpt lat="45.20566" lon="5.48947">
        <ele>318</ele>
        <time>2018-02-04T10:24:32Z</time>
      </trkpt>
      <trkpt lat="45.20569" lon="5.48937">
        <ele>314</ele>
        <time>2018-02-04T10:25:32Z</time>
      </trkpt>
      <trkpt lat="45.20573" lon="5.48928">
        <ele>312</ele>
        <time>2018-02-04T10:26:32Z</time>
      </trkpt>
      <trkpt lat="45.20575" lon="5.48923">
        <ele>310</ele>
        <time>2018-02-04T10:27:32Z</time>
      </trkpt>
      <trkpt lat="45.20584" lon="5.48908">
        <ele>306</ele>
        <time>2018-02-04T10:28:32Z</time>
      </trkpt>
      <trkpt lat="45.20594" lon="5.48898">
        <ele>305</ele>
        <time>2018-02-04T10:29:32Z</time>
      </trkpt>
      <trkpt lat="45.20619" lon="5.48875">
        <ele>301</ele>
        <time>2018-02-04T10:30:32Z</time>
      </trkpt>
      <trkpt lat="45.2063" lon="5.48867">
        <ele>301</ele>
        <time>2018-02-04T10:31:32Z</time>
      </trkpt>
      <trkpt lat="45.2064" lon="5.4886">
        <ele>300</ele>
        <time>2018-02-04T10:32:32Z</time>
      </trkpt>
      <trkpt lat="45.20654" lon="5.48853">
        <ele>299</ele>
        <time>2018-02-04T10:33:32Z</time>
      </trkpt>
      <trkpt lat="45.20668" lon="5.48845">
        <ele>298</ele>
        <time>2018-02-04T10:34:32Z</time>
      </trkpt>
      <trkpt lat="45.20682" lon="5.48838">
        <ele>297</ele>
        <time>2018-02-04T10:35:32Z</time>
      </trkpt>
      <trkpt lat="45.20698" lon="5.48833">
        <ele>297</ele>
        <time>2018-02-04T10:36:32Z</time>
      </trkpt>
      <trkpt lat="45.20724" lon="5.48824">
        <ele>298</ele>
        <time>2018-02-04T10:37:32Z</time>
      </trkpt>
      <trkpt lat="45.20775" lon="5.48807">
        <ele>295</ele>
        <time>2018-02-04T10:38:32Z</time>
      </trkpt>
      <trkpt lat="45.20809" lon="5.48796">
        <ele>293</ele>
        <time>2018-02-04T10:39:32Z</time>
      </trkpt>
      <trkpt lat="45.20829" lon="5.48789">
        <ele>293</ele>
        <time>2018-02-04T10:40:32Z</time>
      </trkpt>
      <trkpt lat="45.20835" lon="5.48785">
        <ele>292</ele>
        <time>2018-02-04T10:41:32Z</time>
      </trkpt>
      <trkpt lat="45.20839" lon="5.48781">
        <ele>291</ele>
        <time>2018-02-04T10:42:32Z</time>
      </trkpt>
      <trkpt lat="45.20843" lon="5.48774">
        <ele>290</ele>
        <time>2018-02-04T10:43:32Z</time>
      </trkpt>
      <trkpt lat="45.20844" lon="5.48768">
        <ele>289</ele>
        <time>2018-02-04T10:44:32Z</time>
      </trkpt>
      <trkpt lat="45.20844" lon="5.48762">
        <ele>288</ele>
        <time>2018-02-04T10:45:32Z</time>
      </trkpt>
      <trkpt lat="45.20843" lon="5.48757">
        <ele>287</ele>
        <time>2018-02-04T10:46:32Z</time>
      </trkpt>
      <trkpt lat="45.2084" lon="5.48752">
        <ele>286</ele>
        <time>2018-02-04T10:47:32Z</time>
      </trkpt>
      <trkpt lat="45.20837" lon="5.48749">
        <ele>285</ele>
        <time>2018-02-04T10:48:32Z</time>
      </trkpt>
      <trkpt lat="45.20834" lon="5.48748">
        <ele>285</ele>
        <time>2018-02-04T10:49:32Z</time>
      </trkpt>
      <trkpt lat="45.2083" lon="5.48748">
        <ele>284</ele>
        <time>2018-02-04T10:50:32Z</time>
      </trkpt>
      <trkpt lat="45.20826" lon="5.4875">
        <ele>283</ele>
        <time>2018-02-04T10:51:32Z</time>
      </trkpt>
      <trkpt lat="45.20821" lon="5.48753">
        <ele>283</ele>
        <time>2018-02-04T10:52:32Z</time>
      </trkpt>
      <trkpt lat="45.20816" lon="5.48757">
        <ele>283</ele>
        <time>2018-02-04T10:53:32Z</time>
      </trkpt>
      <trkpt lat="45.20803" lon="5.4877">
        <ele>284</ele>
        <time>2018-02-04T10:54:32Z</time>
      </trkpt>
      <trkpt lat="45.20798" lon="5.48774">
        <ele>285</ele>
        <time>2018-02-04T10:55:32Z</time>
      </trkpt>
      <trkpt lat="45.20794" lon="5.48776">
        <ele>285</ele>
        <time>2018-02-04T10:56:32Z</time>
      </trkpt>
      <trkpt lat="45.20788" lon="5.48776">
        <ele>284</ele>
        <time>2018-02-04T10:57:32Z</time>
      </trkpt>
      <trkpt lat="45.20776" lon="5.48777">
        <ele>283</ele>
        <time>2018-02-04T10:58:32Z</time>
      </trkpt>
      <trkpt lat="45.20758" lon="5.48775">
        <ele>280</ele>
        <time>2018-02-04T10:59:32Z</time>
      </trkpt>
      <trkpt lat="45.2075" lon="5.48774">
        <ele>278</ele>
        <time>2018-02-04T11:00:32Z</time>
      </trkpt>
      <trkpt lat="45.20739" lon="5.48772">
        <ele>276</ele>
        <time>2018-02-04T11:01:32Z</time>
      </trkpt>
      <trkpt lat="45.20731" lon="5.48769">
        <ele>274</ele>
        <time>2018-02-04T11:02:32Z</time>
      </trkpt>
      <trkpt lat="45.20708" lon="5.48756">
        <ele>267</ele>
        <time>2018-02-04T11:03:32Z</time>
      </trkpt>
      <trkpt lat="45.2069" lon="5.48748">
        <ele>263</ele>
        <time>2018-02-04T11:04:32Z</time>
      </trkpt>
      <trkpt lat="45.20679" lon="5.48744">
        <ele>262</ele>
        <time>2018-02-04T11:05:32Z</time>
      </trkpt>
      <trkpt lat="45.20638" lon="5.48733">
        <ele>259</ele>
        <time>2018-02-04T11:06:32Z</time>
      </trkpt>
      <trkpt lat="45.20626" lon="5.48732">
        <ele>258</ele>
        <time>2018-02-04T11:07:32Z</time>
      </trkpt>
      <trkpt lat="45.20604" lon="5.48733">
        <ele>258</ele>
        <time>2018-02-04T11:08:32Z</time>
      </trkpt>
      <trkpt lat="45.20582" lon="5.48733">
        <ele>258</ele>
        <time>2018-02-04T11:09:32Z</time>
      </trkpt>
      <trkpt lat="45.20572" lon="5.48731">
        <ele>258</ele>
        <time>2018-02-04T11:10:32Z</time>
      </trkpt>
      <trkpt lat="45.20561" lon="5.48728">
        <ele>257</ele>
        <time>2018-02-04T11:11:32Z</time>
      </trkpt>
      <trkpt lat="45.20557" lon="5.48726">
        <ele>257</ele>
        <time>2018-02-04T11:12:32Z</time>
      </trkpt>
      <trkpt lat="45.2055" lon="5.48723">
        <ele>256</ele>
        <time>2018-02-04T11:13:32Z</time>
      </trkpt>
      <trkpt lat="45.20545" lon="5.48718">
        <ele>256</ele>
        <time>2018-02-04T11:14:32Z</time>
      </trkpt>
      <trkpt lat="45.20542" lon="5.48715">
        <ele>255</ele>
        <time>2018-02-04T11:15:32Z</time>
      </trkpt>
      <trkpt lat="45.20538" lon="5.48709">
        <ele>254</ele>
        <time>2018-02-04T11:16:32Z</time>
      </trkpt>
      <trkpt lat="45.20533" lon="5.48703">
        <ele>254</ele>
        <time>2018-02-04T11:17:32Z</time>
      </trkpt>
      <trkpt lat="45.20524" lon="5.48689">
        <ele>252</ele>
        <time>2018-02-04T11:18:32Z</time>
      </trkpt>
      <trkpt lat="45.20514" lon="5.48676">
        <ele>250</ele>
        <time>2018-02-04T11:19:32Z</time>
      </trkpt>
      <trkpt lat="45.20503" lon="5.48666">
        <ele>249</ele>
        <time>2018-02-04T11:20:32Z</time>
      </trkpt>
      <trkpt lat="45.20494" lon="5.48658">
        <ele>249</ele>
        <time>2018-02-04T11:21:32Z</time>
      </trkpt>
      <trkpt lat="45.20487" lon="5.48649">
        <ele>249</ele>
        <time>2018-02-04T11:22:32Z</time>
      </trkpt>
      <trkpt lat="45.20482" lon="5.48639">
        <ele>249</ele>
        <time>2018-02-04T11:23:32Z</time>
      </trkpt>
      <trkpt lat="45.2048" lon="5.48632">
        <ele>249</ele>
        <time>2018-02-04T11:24:32Z</time>
      </trkpt>
      <trkpt lat="45.20467" lon="5.48584">
        <ele>248</ele>
        <time>2018-02-04T11:25:32Z</time>
      </trkpt>
      <trkpt lat="45.20454" lon="5.48552">
        <ele>244</ele>
        <time>2018-02-04T11:26:32Z</time>
      </trkpt>
      <trkpt lat="45.20449" lon="5.48543">
        <ele>244</ele>
        <time>2018-02-04T11:27:32Z</time>
      </trkpt>
      <trkpt lat="45.20437" lon="5.48524">
        <ele>242</ele>
        <time>2018-02-04T11:28:32Z</time>
      </trkpt>
      <trkpt lat="45.20423" lon="5.48506">
        <ele>241</ele>
        <time>2018-02-04T11:29:32Z</time>
      </trkpt>
      <trkpt lat="45.20416" lon="5.48499">
        <ele>241</ele>
        <time>2018-02-04T11:30:32Z</time>
      </trkpt>
      <trkpt lat="45.20409" lon="5.48492">
        <ele>240</ele>
        <time>2018-02-04T11:31:32Z</time>
      </trkpt>
      <trkpt lat="45.20401" lon="5.48486">
        <ele>239</ele>
        <time>2018-02-04T11:32:32Z</time>
      </trkpt>
      <trkpt lat="45.20392" lon="5.4848">
        <ele>239</ele>
        <time>2018-02-04T11:33:32Z</time>
      </trkpt>
      <trkpt lat="45.20382" lon="5.48474">
        <ele>239</ele>
        <time>2018-02-04T11:34:32Z</time>
      </trkpt>
      <trkpt lat="45.20373" lon="5.48467">
        <ele>239</ele>
        <time>2018-02-04T11:35:32Z</time>
      </trkpt>
      <trkpt lat="45.20367" lon="5.48461">
        <ele>239</ele>
        <time>2018-02-04T11:36:32Z</time>
      </trkpt>
      <trkpt lat="45.2036" lon="5.48453">
        <ele>238</ele>
        <time>2018-02-04T11:37:32Z</time>
      </trkpt>
      <trkpt lat="45.20355" lon="5.48446">
        <ele>238</ele>
        <time>2018-02-04T11:38:32Z</time>
      </trkpt>
      <trkpt lat="45.20348" lon="5.48436">
        <ele>237</ele>
        <time>2018-02-04T11:39:32Z</time>
      </trkpt>
      <trkpt lat="45.20338" lon="5.48425">
        <ele>237</ele>
        <time>2018-02-04T11:40:32Z</time>
      </trkpt>
      <trkpt lat="45.20333" lon="5.4842">
        <ele>237</ele>
        <time>2018-02-04T11:41:32Z</time>
      </trkpt>
      <trkpt lat="45.20326" lon="5.48414">
        <ele>236</ele>
        <time>2018-02-04T11:42:32Z</time>
      </trkpt>
      <trkpt lat="45.20302" lon="5.48391">
        <ele>233</ele>
        <time>2018-02-04T11:43:32Z</time>
      </trkpt>
      <trkpt lat="45.20284" lon="5.48372">
        <ele>232</ele>
        <time>2018-02-04T11:44:32Z</time>
      </trkpt>
      <trkpt lat="45.20257" lon="5.48339">
        <ele>230</ele>
        <time>2018-02-04T11:45:32Z</time>
      </trkpt>
      <trkpt lat="45.20241" lon="5.4832">
        <ele>230</ele>
        <time>2018-02-04T11:46:32Z</time>
      </trkpt>
      <trkpt lat="45.2023" lon="5.48308">
        <ele>229</ele>
        <time>2018-02-04T11:47:32Z</time>
      </trkpt>
      <trkpt lat="45.20222" lon="5.48298">
        <ele>228</ele>
        <time>2018-02-04T11:48:32Z</time>
      </trkpt>
      <trkpt lat="45.20209" lon="5.48276">
        <ele>225</ele>
        <time>2018-02-04T11:49:32Z</time>
      </trkpt>
      <trkpt lat="45.20206" lon="5.4827">
        <ele>224</ele>
        <time>2018-02-04T11:50:32Z</time>
      </trkpt>
      <trkpt lat="45.20189" lon="5.48231">
        <ele>218</ele>
        <time>2018-02-04T11:51:32Z</time>
      </trkpt>
      <trkpt lat="45.20171" lon="5.48186">
        <ele>212</ele>
        <time>2018-02-04T11:52:32Z</time>
      </trkpt>
      <trkpt lat="45.20167" lon="5.48176">
        <ele>210</ele>
        <time>2018-02-04T11:53:32Z</time>
      </trkpt>
      <trkpt lat="45.20158" lon="5.48159">
        <ele>210</ele>
        <time>2018-02-04T11:54:32Z</time>
      </trkpt>
      <trkpt lat="45.20151" lon="5.48147">
        <ele>210</ele>
        <time>2018-02-04T11:55:32Z</time>
      </trkpt>
      <trkpt lat="45.20149" lon="5.48144">
        <ele>211</ele>
        <time>2018-02-04T11:56:32Z</time>
      </trkpt>
      <trkpt lat="45.20135" lon="5.48124">
        <ele>210</ele>
        <time>2018-02-04T11:57:32Z</time>
      </trkpt>
      <trkpt lat="45.2013" lon="5.48117">
        <ele>209</ele>
        <time>2018-02-04T11:58:32Z</time>
      </trkpt>
      <trkpt lat="45.20124" lon="5.48107">
        <ele>208</ele>
        <time>2018-02-04T11:59:32Z</time>
      </trkpt>
      <trkpt lat="45.20121" lon="5.48099">
        <ele>206</ele>
        <time>2018-02-04T12:00:32Z</time>
      </trkpt>
      <trkpt lat="45.20119" lon="5.48093">
        <ele>205</ele>
        <time>2018-02-04T12:01:32Z</time>
      </trkpt>
      <trkpt lat="45.20119" lon="5.48085">
        <ele>203</ele>
        <time>2018-02-04T12:02:32Z</time>
      </trkpt>
      <trkpt lat="45.20118" lon="5.48081">
        <ele>202</ele>
        <time>2018-02-04T12:03:32Z</time>
      </trkpt>
      <trkpt lat="45.2012" lon="5.48071">
        <ele>202</ele>
        <time>2018-02-04T12:04:32Z</time>
      </trkpt>
      <trkpt lat="45.20121" lon="5.48063">
        <ele>201</ele>
        <time>2018-02-04T12:05:32Z</time>
      </trkpt>
      <trkpt lat="45.20123" lon="5.48048">
        <ele>201</ele>
        <time>2018-02-04T12:06:32Z</time>
      </trkpt>
      <trkpt lat="45.20127" lon="5.48021">
        <ele>200</ele>
        <time>2018-02-04T12:07:32Z</time>
      </trkpt>
      <trkpt lat="45.20138" lon="5.47943">
        <ele>198</ele>
        <time>2018-02-04T12:08:32Z</time>
      </trkpt>
      <trkpt lat="45.20143" lon="5.47906">
        <ele>198</ele>
        <time>2018-02-04T12:09:32Z</time>
      </trkpt>
      <trkpt lat="45.20152" lon="5.47844">
        <ele>198</ele>
        <time>2018-02-04T12:10:32Z</time>
      </trkpt>
      <trkpt lat="45.2016" lon="5.47796">
        <ele>198</ele>
        <time>2018-02-04T12:11:32Z</time>
      </trkpt>
      <trkpt lat="45.20172" lon="5.4771">
        <ele>198</ele>
        <time>2018-02-04T12:12:32Z</time>
      </trkpt>
      <trkpt lat="45.20181" lon="5.47649">
        <ele>199</ele>
        <time>2018-02-04T12:13:32Z</time>
      </trkpt>
      <trkpt lat="45.20192" lon="5.47565">
        <ele>199</ele>
        <time>2018-02-04T12:14:32Z</time>
      </trkpt>
      <trkpt lat="45.20199" lon="5.47523">
        <ele>198</ele>
        <time>2018-02-04T12:15:32Z</time>
      </trkpt>
      <trkpt lat="45.20201" lon="5.47513">
        <ele>198</ele>
        <time>2018-02-04T12:16:32Z</time>
      </trkpt>
      <trkpt lat="45.20243" lon="5.474">
        <ele>195</ele>
        <time>2018-02-04T12:17:32Z</time>
      </trkpt>
      <trkpt lat="45.20248" lon="5.47388">
        <ele>194</ele>
        <time>2018-02-04T12:18:32Z</time>
      </trkpt>
      <trkpt lat="45.20254" lon="5.47375">
        <ele>194</ele>
        <time>2018-02-04T12:19:32Z</time>
      </trkpt>
      <trkpt lat="45.2026" lon="5.47366">
        <ele>194</ele>
        <time>2018-02-04T12:20:32Z</time>
      </trkpt>
      <trkpt lat="45.20271" lon="5.47349">
        <ele>193</ele>
        <time>2018-02-04T12:21:32Z</time>
      </trkpt>
      <trkpt lat="45.20277" lon="5.47339">
        <ele>193</ele>
        <time>2018-02-04T12:22:32Z</time>
      </trkpt>
      <trkpt lat="45.20289" lon="5.47322">
        <ele>193</ele>
        <time>2018-02-04T12:23:32Z</time>
      </trkpt>
      <trkpt lat="45.20339" lon="5.47248">
        <ele>193</ele>
        <time>2018-02-04T12:24:32Z</time>
      </trkpt>
      <trkpt lat="45.20364" lon="5.47214">
        <ele>192</ele>
        <time>2018-02-04T12:25:32Z</time>
      </trkpt>
      <trkpt lat="45.2038" lon="5.47196">
        <ele>191</ele>
        <time>2018-02-04T12:26:32Z</time>
      </trkpt>
      <trkpt lat="45.20405" lon="5.47172">
        <ele>190</ele>
        <time>2018-02-04T12:27:32Z</time>
      </trkpt>
      <trkpt lat="45.20407" lon="5.47169">
        <ele>190</ele>
        <time>2018-02-04T12:28:32Z</time>
      </trkpt>
      <trkpt lat="45.20413" lon="5.47168">
        <ele>190</ele>
        <time>2018-02-04T12:29:32Z</time>
      </trkpt>
      <trkpt lat="45.20432" lon="5.47156">
        <ele>190</ele>
        <time>2018-02-04T12:30:32Z</time>
      </trkpt>
      <trkpt lat="45.20432" lon="5.47156">
        <ele>190</ele>
        <time>2018-02-04T12:31:32Z</time>
      </trkpt>
      <trkpt lat="45.20434" lon="5.47152">
        <ele>190</ele>
        <time>2018-02-04T12:32:32Z</time>
      </trkpt>
      <trkpt lat="45.20438" lon="5.47145">
        <ele>190</ele>
        <time>2018-02-04T12:33:32Z</time>
      </trkpt>
      <trkpt lat="45.20434" lon="5.47128">
        <ele>191</ele>
        <time>2018-02-04T12:34:32Z</time>
      </trkpt>
      <trkpt lat="45.20433" lon="5.47124">
        <ele>191</ele>
        <time>2018-02-04T12:35:32Z</time>
      </trkpt>
      <trkpt lat="45.20429" lon="5.47104">
        <ele>191</ele>
        <time>2018-02-04T12:36:32Z</time>
      </trkpt>
      <trkpt lat="45.20425" lon="5.47083">
        <ele>192</ele>
        <time>2018-02-04T12:37:32Z</time>
      </trkpt>
      <trkpt lat="45.20421" lon="5.47058">
        <ele>191</ele>
        <time>2018-02-04T12:38:32Z</time>
      </trkpt>
      <trkpt lat="45.20418" lon="5.47038">
        <ele>191</ele>
        <time>2018-02-04T12:39:32Z</time>
      </trkpt>
      <trkpt lat="45.20417" lon="5.47031">
        <ele>191</ele>
        <time>2018-02-04T12:40:32Z</time>
      </trkpt>
      <trkpt lat="45.20411" lon="5.46989">
        <ele>189</ele>
        <time>2018-02-04T12:41:32Z</time>
      </trkpt>
      <trkpt lat="45.20407" lon="5.4697">
        <ele>188</ele>
        <time>2018-02-04T12:42:32Z</time>
      </trkpt>
      <trkpt lat="45.20405" lon="5.46948">
        <ele>188</ele>
        <time>2018-02-04T12:43:32Z</time>
      </trkpt>
      <trkpt lat="45.20403" lon="5.46927">
        <ele>187</ele>
        <time>2018-02-04T12:44:32Z</time>
      </trkpt>
      <trkpt lat="45.20401" lon="5.46912">
        <ele>187</ele>
        <time>2018-02-04T12:45:32Z</time>
      </trkpt>
      <trkpt lat="45.204" lon="5.46895">
        <ele>186</ele>
        <time>2018-02-04T12:46:32Z</time>
      </trkpt>
      <trkpt lat="45.20399" lon="5.46872">
        <ele>186</ele>
        <time>2018-02-04T12:47:32Z</time>
      </trkpt>
      <trkpt lat="45.20397" lon="5.46843">
        <ele>186</ele>
        <time>2018-02-04T12:48:32Z</time>
      </trkpt>
      <trkpt lat="45.20395" lon="5.46784">
        <ele>185</ele>
        <time>2018-02-04T12:49:32Z</time>
      </trkpt>
      <trkpt lat="45.20395" lon="5.46775">
        <ele>185</ele>
        <time>2018-02-04T12:50:32Z</time>
      </trkpt>
      <trkpt lat="45.20394" lon="5.46764">
        <ele>184</ele>
        <time>2018-02-04T12:51:32Z</time>
      </trkpt>
      <trkpt lat="45.20394" lon="5.46756">
        <ele>184</ele>
        <time>2018-02-04T12:52:32Z</time>
      </trkpt>
      <trkpt lat="45.20393" lon="5.46722">
        <ele>184</ele>
        <time>2018-02-04T12:53:32Z</time>
      </trkpt>
      <trkpt lat="45.20391" lon="5.46642">
        <ele>186</ele>
        <time>2018-02-04T12:54:32Z</time>
      </trkpt>
      <trkpt lat="45.20392" lon="5.46627">
        <ele>186</ele>
        <time>2018-02-04T12:55:32Z</time>
      </trkpt>
      <trkpt lat="45.20392" lon="5.46611">
        <ele>187</ele>
        <time>2018-02-04T12:56:32Z</time>
      </trkpt>
      <trkpt lat="45.20391" lon="5.46563">
        <ele>189</ele>
        <time>2018-02-04T12:57:32Z</time>
      </trkpt>
      <trkpt lat="45.20391" lon="5.46555">
        <ele>190</ele>
        <time>2018-02-04T12:58:32Z</time>
      </trkpt>
      <trkpt lat="45.2039" lon="5.46518">
        <ele>192</ele>
        <time>2018-02-04T12:59:32Z</time>
      </trkpt>
      <trkpt lat="45.2039" lon="5.46501">
        <ele>193</ele>
        <time>2018-02-04T13:00:32Z</time>
      </trkpt>
      <trkpt lat="45.20389" lon="5.4649">
        <ele>194</ele>
        <time>2018-02-04T13:01:32Z</time>
      </trkpt>
      <trkpt lat="45.20389" lon="5.4649">
        <ele>194</ele>
        <time>2018-02-04T13:02:32Z</time>
      </trkpt>
      <trkpt lat="45.20383" lon="5.46489">
        <ele>194</ele>
        <time>2018-02-04T13:03:32Z</time>
      </trkpt>
      <trkpt lat="45.20367" lon="5.46483">
        <ele>195</ele>
        <time>2018-02-04T13:04:32Z</time>
      </trkpt>
      <trkpt lat="45.20356" lon="5.46477">
        <ele>196</ele>
        <time>2018-02-04T13:05:32Z</time>
      </trkpt>
      <trkpt lat="45.20342" lon="5.46469">
        <ele>196</ele>
        <time>2018-02-04T13:06:32Z</time>
      </trkpt>
      <trkpt lat="45.20319" lon="5.46464">
        <ele>197</ele>
        <time>2018-02-04T13:07:32Z</time>
      </trkpt>
      <trkpt lat="45.203" lon="5.46458">
        <ele>197</ele>
        <time>2018-02-04T13:08:32Z</time>
      </trkpt>
      <trkpt lat="45.20296" lon="5.46456">
        <ele>197</ele>
        <time>2018-02-04T13:09:32Z</time>
      </trkpt>
      <trkpt lat="45.20227" lon="5.46418">
        <ele>201</ele>
        <time>2018-02-04T13:10:32Z</time>
      </trkpt>
      <trkpt lat="45.20225" lon="5.46417">
        <ele>201</ele>
        <time>2018-02-04T13:11:32Z</time>
      </trkpt>
      <trkpt lat="45.20222" lon="5.46413">
        <ele>202</ele>
        <time>2018-02-04T13:12:32Z</time>
      </trkpt>
      <trkpt lat="45.20201" lon="5.4638">
        <ele>205</ele>
        <time>2018-02-04T13:13:32Z</time>
      </trkpt>
      <trkpt lat="45.20128" lon="5.46257">
        <ele>216</ele>
        <time>2018-02-04T13:14:32Z</time>
      </trkpt>
      <trkpt lat="45.20099" lon="5.46206">
        <ele>220</ele>
        <time>2018-02-04T13:15:32Z</time>
      </trkpt>
      <trkpt lat="45.20084" lon="5.46178">
        <ele>221</ele>
        <time>2018-02-04T13:16:32Z</time>
      </trkpt>
      <trkpt lat="45.20075" lon="5.46163">
        <ele>222</ele>
        <time>2018-02-04T13:17:32Z</time>
      </trkpt>
      <trkpt lat="45.20058" lon="5.46136">
        <ele>224</ele>
        <time>2018-02-04T13:18:32Z</time>
      </trkpt>
      <trkpt lat="45.20052" lon="5.46125">
        <ele>224</ele>
        <time>2018-02-04T13:19:32Z</time>
      </trkpt>
      <trkpt lat="45.20052" lon="5.46124">
        <ele>224</ele>
        <time>2018-02-04T13:20:32Z</time>
      </trkpt>
      <trkpt lat="45.20049" lon="5.46117">
        <ele>225</ele>
        <time>2018-02-04T13:21:32Z</time>
      </trkpt>
      <trkpt lat="45.20049" lon="5.46084">
        <ele>225</ele>
        <time>2018-02-04T13:22:32Z</time>
      </trkpt>
      <trkpt lat="45.20054" lon="5.4598">
        <ele>224</ele>
        <time>2018-02-04T13:23:32Z</time>
      </trkpt>
      <trkpt lat="45.2005" lon="5.45962">
        <ele>224</ele>
        <time>2018-02-04T13:24:32Z</time>
      </trkpt>
      <trkpt lat="45.20037" lon="5.45921">
        <ele>225</ele>
        <time>2018-02-04T13:25:32Z</time>
      </trkpt>
      <trkpt lat="45.20032" lon="5.45903">
        <ele>225</ele>
        <time>2018-02-04T13:26:32Z</time>
      </trkpt>
      <trkpt lat="45.20025" lon="5.45886">
        <ele>226</ele>
        <time>2018-02-04T13:27:32Z</time>
      </trkpt>
      <trkpt lat="45.20021" lon="5.45876">
        <ele>226</ele>
        <time>2018-02-04T13:28:32Z</time>
      </trkpt>
      <trkpt lat="45.1999" lon="5.45812">
        <ele>227</ele>
        <time>2018-02-04T13:29:32Z</time>
      </trkpt>
      <trkpt lat="45.19967" lon="5.45761">
        <ele>227</ele>
        <time>2018-02-04T13:30:32Z</time>
      </trkpt>
      <trkpt lat="45.19964" lon="5.45753">
        <ele>227</ele>
        <time>2018-02-04T13:31:32Z</time>
      </trkpt>
      <trkpt lat="45.19964" lon="5.45753">
        <ele>227</ele>
        <time>2018-02-04T13:32:32Z</time>
      </trkpt>
      <trkpt lat="45.19956" lon="5.45743">
        <ele>228</ele>
        <time>2018-02-04T13:33:32Z</time>
      </trkpt>
      <trkpt lat="45.19862" lon="5.45634">
        <ele>232</ele>
        <time>2018-02-04T13:34:32Z</time>
      </trkpt>
      <trkpt lat="45.19776" lon="5.45546">
        <ele>233</ele>
        <time>2018-02-04T13:35:32Z</time>
      </trkpt>
      <trkpt lat="45.19736" lon="5.45497">
        <ele>234</ele>
        <time>2018-02-04T13:36:32Z</time>
      </trkpt>
      <trkpt lat="45.19698" lon="5.45452">
        <ele>233</ele>
        <time>2018-02-04T13:37:32Z</time>
      </trkpt>
      <trkpt lat="45.19688" lon="5.4544">
        <ele>233</ele>
        <time>2018-02-04T13:38:32Z</time>
      </trkpt>
      <trkpt lat="45.19668" lon="5.45415">
        <ele>233</ele>
        <time>2018-02-04T13:39:32Z</time>
      </trkpt>
      <trkpt lat="45.19639" lon="5.45372">
        <ele>232</ele>
        <time>2018-02-04T13:40:32Z</time>
      </trkpt>
      <trkpt lat="45.19635" lon="5.45366">
        <ele>232</ele>
        <time>2018-02-04T13:41:32Z</time>
      </trkpt>
      <trkpt lat="45.19601" lon="5.45317">
        <ele>231</ele>
        <time>2018-02-04T13:42:32Z</time>
      </trkpt>
      <trkpt lat="45.19601" lon="5.45317">
        <ele>231</ele>
        <time>2018-02-04T13:43:32Z</time>
      </trkpt>
      <trkpt lat="45.1959" lon="5.45299">
        <ele>231</ele>
        <time>2018-02-04T13:44:32Z</time>
      </trkpt>
      <trkpt lat="45.19579" lon="5.45284">
        <ele>231</ele>
        <time>2018-02-04T13:45:32Z</time>
      </trkpt>
      <trkpt lat="45.19569" lon="5.45271">
        <ele>230</ele>
        <time>2018-02-04T13:46:32Z</time>
      </trkpt>
      <trkpt lat="45.19555" lon="5.45256">
        <ele>230</ele>
        <time>2018-02-04T13:47:32Z</time>
      </trkpt>
      <trkpt lat="45.19543" lon="5.45245">
        <ele>230</ele>
        <time>2018-02-04T13:48:32Z</time>
      </trkpt>
      <trkpt lat="45.19531" lon="5.45235">
        <ele>230</ele>
        <time>2018-02-04T13:49:32Z</time>
      </trkpt>
      <trkpt lat="45.19508" lon="5.45219">
        <ele>230</ele>
        <time>2018-02-04T13:50:32Z</time>
      </trkpt>
      <trkpt lat="45.19486" lon="5.45201">
        <ele>230</ele>
        <time>2018-02-04T13:51:32Z</time>
      </trkpt>
      <trkpt lat="45.19476" lon="5.4519">
        <ele>230</ele>
        <time>2018-02-04T13:52:32Z</time>
      </trkpt>
      <trkpt lat="45.19466" lon="5.45181">
        <ele>230</ele>
        <time>2018-02-04T13:53:32Z</time>
      </trkpt>
      <trkpt lat="45.19457" lon="5.4517">
        <ele>229</ele>
        <time>2018-02-04T13:54:32Z</time>
      </trkpt>
      <trkpt lat="45.1945" lon="5.4516">
        <ele>229</ele>
        <time>2018-02-04T13:55:32Z</time>
      </trkpt>
      <trkpt lat="45.19444" lon="5.4515">
        <ele>229</ele>
        <time>2018-02-04T13:56:32Z</time>
      </trkpt>
      <trkpt lat="45.19433" lon="5.4513">
        <ele>230</ele>
        <time>2018-02-04T13:57:32Z</time>
      </trkpt>
      <trkpt lat="45.19428" lon="5.45117">
        <ele>230</ele>
        <time>2018-02-04T13:58:32Z</time>
      </trkpt>
      <trkpt lat="45.1942" lon="5.45099">
        <ele>230</ele>
        <time>2018-02-04T13:59:32Z</time>
      </trkpt>
      <trkpt lat="45.19405" lon="5.45059">
        <ele>230</ele>
        <time>2018-02-04T14:00:32Z</time>
      </trkpt>
      <trkpt lat="45.19382" lon="5.44986">
        <ele>230</ele>
        <time>2018-02-04T14:01:32Z</time>
      </trkpt>
      <trkpt lat="45.19382" lon="5.44984">
        <ele>230</ele>
        <time>2018-02-04T14:02:32Z</time>
      </trkpt>
      <trkpt lat="45.19379" lon="5.44975">
        <ele>230</ele>
        <time>2018-02-04T14:03:32Z</time>
      </trkpt>
      <trkpt lat="45.19369" lon="5.44931">
        <ele>231</ele>
        <time>2018-02-04T14:04:32Z</time>
      </trkpt>
      <trkpt lat="45.19358" lon="5.44875">
        <ele>232</ele>
        <time>2018-02-04T14:05:32Z</time>
      </trkpt>
      <trkpt lat="45.19352" lon="5.44843">
        <ele>232</ele>
        <time>2018-02-04T14:06:32Z</time>
      </trkpt>
      <trkpt lat="45.19349" lon="5.44831">
        <ele>232</ele>
        <time>2018-02-04T14:07:32Z</time>
      </trkpt>
      <trkpt lat="45.19344" lon="5.44808">
        <ele>232</ele>
        <time>2018-02-04T14:08:32Z</time>
      </trkpt>
      <trkpt lat="45.19341" lon="5.44795">
        <ele>232</ele>
        <time>2018-02-04T14:09:32Z</time>
      </trkpt>
      <trkpt lat="45.19337" lon="5.44784">
        <ele>233</ele>
        <time>2018-02-04T14:10:32Z</time>
      </trkpt>
      <trkpt lat="45.19332" lon="5.44772">
        <ele>233</ele>
        <time>2018-02-04T14:11:32Z</time>
      </trkpt>
      <trkpt lat="45.19323" lon="5.44751">
        <ele>233</ele>
        <time>2018-02-04T14:12:32Z</time>
      </trkpt>
      <trkpt lat="45.19317" lon="5.44736">
        <ele>233</ele>
        <time>2018-02-04T14:13:32Z</time>
      </trkpt>
      <trkpt lat="45.19297" lon="5.4469">
        <ele>234</ele>
        <time>2018-02-04T14:14:32Z</time>
      </trkpt>
      <trkpt lat="45.19271" lon="5.44628">
        <ele>235</ele>
        <time>2018-02-04T14:15:32Z</time>
      </trkpt>
      <trkpt lat="45.19224" lon="5.44508">
        <ele>239</ele>
        <time>2018-02-04T14:16:32Z</time>
      </trkpt>
      <trkpt lat="45.19179" lon="5.44388">
        <ele>243</ele>
        <time>2018-02-04T14:17:32Z</time>
      </trkpt>
      <trkpt lat="45.19152" lon="5.44317">
        <ele>248</ele>
        <time>2018-02-04T14:18:32Z</time>
      </trkpt>
      <trkpt lat="45.19142" lon="5.4429">
        <ele>249</ele>
        <time>2018-02-04T14:19:32Z</time>
      </trkpt>
      <trkpt lat="45.19136" lon="5.44277">
        <ele>250</ele>
        <time>2018-02-04T14:20:32Z</time>
      </trkpt>
      <trkpt lat="45.19126" lon="5.44262">
        <ele>250</ele>
        <time>2018-02-04T14:21:32Z</time>
      </trkpt>
      <trkpt lat="45.19122" lon="5.44256">
        <ele>251</ele>
        <time>2018-02-04T14:22:32Z</time>
      </trkpt>
      <trkpt lat="45.19094" lon="5.44223">
        <ele>250</ele>
        <time>2018-02-04T14:23:32Z</time>
      </trkpt>
      <trkpt lat="45.19057" lon="5.44177">
        <ele>249</ele>
        <time>2018-02-04T14:24:32Z</time>
      </trkpt>
      <trkpt lat="45.19049" lon="5.44169">
        <ele>249</ele>
        <time>2018-02-04T14:25:32Z</time>
      </trkpt>
      <trkpt lat="45.19041" lon="5.44162">
        <ele>250</ele>
        <time>2018-02-04T14:26:32Z</time>
      </trkpt>
      <trkpt lat="45.18991" lon="5.44111">
        <ele>250</ele>
        <time>2018-02-04T14:27:32Z</time>
      </trkpt>
      <trkpt lat="45.18983" lon="5.44099">
        <ele>249</ele>
        <time>2018-02-04T14:28:32Z</time>
      </trkpt>
      <trkpt lat="45.18972" lon="5.44078">
        <ele>247</ele>
        <time>2018-02-04T14:29:32Z</time>
      </trkpt>
      <trkpt lat="45.18969" lon="5.44073">
        <ele>247</ele>
        <time>2018-02-04T14:30:32Z</time>
      </trkpt>
      <trkpt lat="45.18964" lon="5.44062">
        <ele>246</ele>
        <time>2018-02-04T14:31:32Z</time>
      </trkpt>
      <trkpt lat="45.18964" lon="5.44062">
        <ele>246</ele>
        <time>2018-02-04T14:32:32Z</time>
      </trkpt>
      <trkpt lat="45.18947" lon="5.44026">
        <ele>243</ele>
        <time>2018-02-04T14:33:32Z</time>
      </trkpt>
      <trkpt lat="45.18944" lon="5.44017">
        <ele>242</ele>
        <time>2018-02-04T14:34:32Z</time>
      </trkpt>
      <trkpt lat="45.18939" lon="5.44">
        <ele>240</ele>
        <time>2018-02-04T14:35:32Z</time>
      </trkpt>
      <trkpt lat="45.1892" lon="5.43918">
        <ele>237</ele>
        <time>2018-02-04T14:36:32Z</time>
      </trkpt>
      <trkpt lat="45.18915" lon="5.43905">
        <ele>237</ele>
        <time>2018-02-04T14:37:32Z</time>
      </trkpt>
      <trkpt lat="45.18912" lon="5.43895">
        <ele>237</ele>
        <time>2018-02-04T14:38:32Z</time>
      </trkpt>
      <trkpt lat="45.18909" lon="5.43887">
        <ele>237</ele>
        <time>2018-02-04T14:39:32Z</time>
      </trkpt>
      <trkpt lat="45.18902" lon="5.4388">
        <ele>236</ele>
        <time>2018-02-04T14:40:32Z</time>
      </trkpt>
      <trkpt lat="45.18895" lon="5.43873">
        <ele>236</ele>
        <time>2018-02-04T14:41:32Z</time>
      </trkpt>
      <trkpt lat="45.18822" lon="5.43805">
        <ele>234</ele>
        <time>2018-02-04T14:42:32Z</time>
      </trkpt>
      <trkpt lat="45.18811" lon="5.4379">
        <ele>234</ele>
        <time>2018-02-04T14:43:32Z</time>
      </trkpt>
      <trkpt lat="45.18776" lon="5.43699">
        <ele>232</ele>
        <time>2018-02-04T14:44:32Z</time>
      </trkpt>
      <trkpt lat="45.18729" lon="5.4357">
        <ele>231</ele>
        <time>2018-02-04T14:45:32Z</time>
      </trkpt>
      <trkpt lat="45.18726" lon="5.43561">
        <ele>231</ele>
        <time>2018-02-04T14:46:32Z</time>
      </trkpt>
      <trkpt lat="45.18721" lon="5.43554">
        <ele>231</ele>
        <time>2018-02-04T14:47:32Z</time>
      </trkpt>
      <trkpt lat="45.18717" lon="5.43548">
        <ele>231</ele>
        <time>2018-02-04T14:48:32Z</time>
      </trkpt>
      <trkpt lat="45.18712" lon="5.43542">
        <ele>231</ele>
        <time>2018-02-04T14:49:32Z</time>
      </trkpt>
      <trkpt lat="45.18702" lon="5.43531">
        <ele>232</ele>
        <time>2018-02-04T14:50:32Z</time>
      </trkpt>
      <trkpt lat="45.18689" lon="5.43524">
        <ele>232</ele>
        <time>2018-02-04T14:51:32Z</time>
      </trkpt>
      <trkpt lat="45.18666" lon="5.43513">
        <ele>232</ele>
        <time>2018-02-04T14:52:32Z</time>
      </trkpt>
      <trkpt lat="45.18656" lon="5.43507">
        <ele>232</ele>
        <time>2018-02-04T14:53:32Z</time>
      </trkpt>
      <trkpt lat="45.18649" lon="5.43502">
        <ele>232</ele>
        <time>2018-02-04T14:54:32Z</time>
      </trkpt>
      <trkpt lat="45.18644" lon="5.43499">
        <ele>233</ele>
        <time>2018-02-04T14:55:32Z</time>
      </trkpt>
      <trkpt lat="45.1864" lon="5.43494">
        <ele>233</ele>
        <time>2018-02-04T14:56:32Z</time>
      </trkpt>
      <trkpt lat="45.18637" lon="5.43489">
        <ele>233</ele>
        <time>2018-02-04T14:57:32Z</time>
      </trkpt>
      <trkpt lat="45.18635" lon="5.43485">
        <ele>233</ele>
        <time>2018-02-04T14:58:32Z</time>
      </trkpt>
      <trkpt lat="45.18633" lon="5.43479">
        <ele>233</ele>
        <time>2018-02-04T14:59:32Z</time>
      </trkpt>
      <trkpt lat="45.18631" lon="5.43473">
        <ele>233</ele>
        <time>2018-02-04T15:00:32Z</time>
      </trkpt>
      <trkpt lat="45.18627" lon="5.43458">
        <ele>232</ele>
        <time>2018-02-04T15:01:32Z</time>
      </trkpt>
      <trkpt lat="45.18619" lon="5.43422">
        <ele>232</ele>
        <time>2018-02-04T15:02:32Z</time>
      </trkpt>
      <trkpt lat="45.18612" lon="5.4339">
        <ele>232</ele>
        <time>2018-02-04T15:03:32Z</time>
      </trkpt>
      <trkpt lat="45.18601" lon="5.43346">
        <ele>233</ele>
        <time>2018-02-04T15:04:32Z</time>
      </trkpt>
      <trkpt lat="45.1859" lon="5.43299">
        <ele>233</ele>
        <time>2018-02-04T15:05:32Z</time>
      </trkpt>
      <trkpt lat="45.18568" lon="5.43258">
        <ele>234</ele>
        <time>2018-02-04T15:06:32Z</time>
      </trkpt>
      <trkpt lat="45.18545" lon="5.43214">
        <ele>234</ele>
        <time>2018-02-04T15:07:32Z</time>
      </trkpt>
      <trkpt lat="45.18534" lon="5.43199">
        <ele>234</ele>
        <time>2018-02-04T15:08:32Z</time>
      </trkpt>
      <trkpt lat="45.18521" lon="5.43184">
        <ele>233</ele>
        <time>2018-02-04T15:09:32Z</time>
      </trkpt>
      <trkpt lat="45.18507" lon="5.43171">
        <ele>233</ele>
        <time>2018-02-04T15:10:32Z</time>
      </trkpt>
      <trkpt lat="45.18494" lon="5.43155">
        <ele>235</ele>
        <time>2018-02-04T15:11:32Z</time>
      </trkpt>
      <trkpt lat="45.18476" lon="5.43126">
        <ele>240</ele>
        <time>2018-02-04T15:12:32Z</time>
      </trkpt>
      <trkpt lat="45.18456" lon="5.43091">
        <ele>243</ele>
        <time>2018-02-04T15:13:32Z</time>
      </trkpt>
      <trkpt lat="45.18439" lon="5.43052">
        <ele>244</ele>
        <time>2018-02-04T15:14:32Z</time>
      </trkpt>
      <trkpt lat="45.18433" lon="5.43034">
        <ele>243</ele>
        <time>2018-02-04T15:15:32Z</time>
      </trkpt>
      <trkpt lat="45.18427" lon="5.43014">
        <ele>242</ele>
        <time>2018-02-04T15:16:32Z</time>
      </trkpt>
      <trkpt lat="45.18418" lon="5.42974">
        <ele>240</ele>
        <time>2018-02-04T15:17:32Z</time>
      </trkpt>
      <trkpt lat="45.18361" lon="5.42718">
        <ele>248</ele>
        <time>2018-02-04T15:18:32Z</time>
      </trkpt>
      <trkpt lat="45.18347" lon="5.42627">
        <ele>243</ele>
        <time>2018-02-04T15:19:32Z</time>
      </trkpt>
      <trkpt lat="45.18343" lon="5.42618">
        <ele>242</ele>
        <time>2018-02-04T15:20:32Z</time>
      </trkpt>
      <trkpt lat="45.18343" lon="5.42618">
        <ele>242</ele>
        <time>2018-02-04T15:21:32Z</time>
      </trkpt>
      <trkpt lat="45.18325" lon="5.42598">
        <ele>244</ele>
        <time>2018-02-04T15:22:32Z</time>
      </trkpt>
      <trkpt lat="45.18318" lon="5.42587">
        <ele>245</ele>
        <time>2018-02-04T15:23:32Z</time>
      </trkpt>
      <trkpt lat="45.18304" lon="5.42564">
        <ele>248</ele>
        <time>2018-02-04T15:24:32Z</time>
      </trkpt>
      <trkpt lat="45.18289" lon="5.42534">
        <ele>251</ele>
        <time>2018-02-04T15:25:32Z</time>
      </trkpt>
      <trkpt lat="45.18286" lon="5.42528">
        <ele>252</ele>
        <time>2018-02-04T15:26:32Z</time>
      </trkpt>
      <trkpt lat="45.18282" lon="5.42519">
        <ele>252</ele>
        <time>2018-02-04T15:27:32Z</time>
      </trkpt>
      <trkpt lat="45.18278" lon="5.42509">
        <ele>253</ele>
        <time>2018-02-04T15:28:32Z</time>
      </trkpt>
      <trkpt lat="45.18273" lon="5.425">
        <ele>254</ele>
        <time>2018-02-04T15:29:32Z</time>
      </trkpt>
      <trkpt lat="45.1827" lon="5.42495">
        <ele>254</ele>
        <time>2018-02-04T15:30:32Z</time>
      </trkpt>
      <trkpt lat="45.18265" lon="5.42486">
        <ele>254</ele>
        <time>2018-02-04T15:31:32Z</time>
      </trkpt>
      <trkpt lat="45.18233" lon="5.42444">
        <ele>253</ele>
        <time>2018-02-04T15:32:32Z</time>
      </trkpt>
      <trkpt lat="45.1823" lon="5.42441">
        <ele>253</ele>
        <time>2018-02-04T15:33:32Z</time>
      </trkpt>
      <trkpt lat="45.18227" lon="5.42438">
        <ele>253</ele>
        <time>2018-02-04T15:34:32Z</time>
      </trkpt>
      <trkpt lat="45.18223" lon="5.42436">
        <ele>254</ele>
        <time>2018-02-04T15:35:32Z</time>
      </trkpt>
      <trkpt lat="45.1822" lon="5.42435">
        <ele>254</ele>
        <time>2018-02-04T15:36:32Z</time>
      </trkpt>
      <trkpt lat="45.18216" lon="5.42435">
        <ele>255</ele>
        <time>2018-02-04T15:37:32Z</time>
      </trkpt>
      <trkpt lat="45.18212" lon="5.42435">
        <ele>255</ele>
        <time>2018-02-04T15:38:32Z</time>
      </trkpt>
      <trkpt lat="45.18209" lon="5.42436">
        <ele>256</ele>
        <time>2018-02-04T15:39:32Z</time>
      </trkpt>
      <trkpt lat="45.18205" lon="5.42438">
        <ele>257</ele>
        <time>2018-02-04T15:40:32Z</time>
      </trkpt>
      <trkpt lat="45.18199" lon="5.42442">
        <ele>258</ele>
        <time>2018-02-04T15:41:32Z</time>
      </trkpt>
      <trkpt lat="45.18194" lon="5.42448">
        <ele>259</ele>
        <time>2018-02-04T15:42:32Z</time>
      </trkpt>
      <trkpt lat="45.18191" lon="5.42451">
        <ele>260</ele>
        <time>2018-02-04T15:43:32Z</time>
      </trkpt>
      <trkpt lat="45.18189" lon="5.42456">
        <ele>260</ele>
        <time>2018-02-04T15:44:32Z</time>
      </trkpt>
      <trkpt lat="45.18186" lon="5.42463">
        <ele>261</ele>
        <time>2018-02-04T15:45:32Z</time>
      </trkpt>
      <trkpt lat="45.18184" lon="5.4247">
        <ele>261</ele>
        <time>2018-02-04T15:46:32Z</time>
      </trkpt>
      <trkpt lat="45.18182" lon="5.42473">
        <ele>262</ele>
        <time>2018-02-04T15:47:32Z</time>
      </trkpt>
      <trkpt lat="45.1818" lon="5.42476">
        <ele>262</ele>
        <time>2018-02-04T15:48:32Z</time>
      </trkpt>
      <trkpt lat="45.18178" lon="5.42479">
        <ele>262</ele>
        <time>2018-02-04T15:49:32Z</time>
      </trkpt>
      <trkpt lat="45.18175" lon="5.42481">
        <ele>262</ele>
        <time>2018-02-04T15:50:32Z</time>
      </trkpt>
      <trkpt lat="45.18171" lon="5.42484">
        <ele>262</ele>
        <time>2018-02-04T15:51:32Z</time>
      </trkpt>
      <trkpt lat="45.18168" lon="5.42486">
        <ele>262</ele>
        <time>2018-02-04T15:52:32Z</time>
      </trkpt>
      <trkpt lat="45.18166" lon="5.42487">
        <ele>262</ele>
        <time>2018-02-04T15:53:32Z</time>
      </trkpt>
      <trkpt lat="45.18162" lon="5.42487">
        <ele>263</ele>
        <time>2018-02-04T15:54:32Z</time>
      </trkpt>
      <trkpt lat="45.18159" lon="5.42486">
        <ele>263</ele>
        <time>2018-02-04T15:55:32Z</time>
      </trkpt>
      <trkpt lat="45.18156" lon="5.42484">
        <ele>263</ele>
        <time>2018-02-04T15:56:32Z</time>
      </trkpt>
      <trkpt lat="45.18152" lon="5.42481">
        <ele>264</ele>
        <time>2018-02-04T15:57:32Z</time>
      </trkpt>
      <trkpt lat="45.18116" lon="5.42446">
        <ele>265</ele>
        <time>2018-02-04T15:58:32Z</time>
      </trkpt>
      <trkpt lat="45.18108" lon="5.42434">
        <ele>265</ele>
        <time>2018-02-04T15:59:32Z</time>
      </trkpt>
      <trkpt lat="45.18101" lon="5.42421">
        <ele>265</ele>
        <time>2018-02-04T16:00:32Z</time>
      </trkpt>
      <trkpt lat="45.18095" lon="5.42409">
        <ele>265</ele>
        <time>2018-02-04T16:01:32Z</time>
      </trkpt>
      <trkpt lat="45.1809" lon="5.42402">
        <ele>265</ele>
        <time>2018-02-04T16:02:32Z</time>
      </trkpt>
      <trkpt lat="45.1809" lon="5.42402">
        <ele>265</ele>
        <time>2018-02-04T16:03:32Z</time>
      </trkpt>
      <trkpt lat="45.18091" lon="5.4238">
        <ele>265</ele>
        <time>2018-02-04T16:04:32Z</time>
      </trkpt>
      <trkpt lat="45.1809" lon="5.42362">
        <ele>266</ele>
        <time>2018-02-04T16:05:32Z</time>
      </trkpt>
      <trkpt lat="45.18089" lon="5.42348">
        <ele>266</ele>
        <time>2018-02-04T16:06:32Z</time>
      </trkpt>
      <trkpt lat="45.18088" lon="5.42343">
        <ele>266</ele>
        <time>2018-02-04T16:07:32Z</time>
      </trkpt>
      <trkpt lat="45.18082" lon="5.42326">
        <ele>266</ele>
        <time>2018-02-04T16:08:32Z</time>
      </trkpt>
      <trkpt lat="45.18073" lon="5.42306">
        <ele>266</ele>
        <time>2018-02-04T16:09:32Z</time>
      </trkpt>
      <trkpt lat="45.18009" lon="5.42213">
        <ele>267</ele>
        <time>2018-02-04T16:10:32Z</time>
      </trkpt>
      <trkpt lat="45.17999" lon="5.42197">
        <ele>267</ele>
        <time>2018-02-04T16:11:32Z</time>
      </trkpt>
      <trkpt lat="45.17993" lon="5.42187">
        <ele>267</ele>
        <time>2018-02-04T16:12:32Z</time>
      </trkpt>
      <trkpt lat="45.1799" lon="5.42182">
        <ele>267</ele>
        <time>2018-02-04T16:13:32Z</time>
      </trkpt>
      <trkpt lat="45.17988" lon="5.42175">
        <ele>267</ele>
        <time>2018-02-04T16:14:32Z</time>
      </trkpt>
      <trkpt lat="45.17988" lon="5.42167">
        <ele>267</ele>
        <time>2018-02-04T16:15:32Z</time>
      </trkpt>
      <trkpt lat="45.1799" lon="5.42158">
        <ele>267</ele>
        <time>2018-02-04T16:16:32Z</time>
      </trkpt>
      <trkpt lat="45.17991" lon="5.42145">
        <ele>267</ele>
        <time>2018-02-04T16:17:32Z</time>
      </trkpt>
      <trkpt lat="45.17993" lon="5.4213">
        <ele>267</ele>
        <time>2018-02-04T16:18:32Z</time>
      </trkpt>
      <trkpt lat="45.17995" lon="5.42118">
        <ele>267</ele>
        <time>2018-02-04T16:19:32Z</time>
      </trkpt>
      <trkpt lat="45.17997" lon="5.42104">
        <ele>266</ele>
        <time>2018-02-04T16:20:32Z</time>
      </trkpt>
      <trkpt lat="45.17997" lon="5.42091">
        <ele>266</ele>
        <time>2018-02-04T16:21:32Z</time>
      </trkpt>
      <trkpt lat="45.17995" lon="5.42068">
        <ele>266</ele>
        <time>2018-02-04T16:22:32Z</time>
      </trkpt>
      <trkpt lat="45.17992" lon="5.42039">
        <ele>265</ele>
        <time>2018-02-04T16:23:32Z</time>
      </trkpt>
      <trkpt lat="45.17987" lon="5.42005">
        <ele>265</ele>
        <time>2018-02-04T16:24:32Z</time>
      </trkpt>
      <trkpt lat="45.17983" lon="5.4199">
        <ele>263</ele>
        <time>2018-02-04T16:25:32Z</time>
      </trkpt>
      <trkpt lat="45.1798" lon="5.41981">
        <ele>263</ele>
        <time>2018-02-04T16:26:32Z</time>
      </trkpt>
      <trkpt lat="45.1797" lon="5.4196">
        <ele>261</ele>
        <time>2018-02-04T16:27:32Z</time>
      </trkpt>
      <trkpt lat="45.17959" lon="5.41942">
        <ele>261</ele>
        <time>2018-02-04T16:28:32Z</time>
      </trkpt>
      <trkpt lat="45.17948" lon="5.41923">
        <ele>262</ele>
        <time>2018-02-04T16:29:32Z</time>
      </trkpt>
      <trkpt lat="45.17936" lon="5.41907">
        <ele>262</ele>
        <time>2018-02-04T16:30:32Z</time>
      </trkpt>
      <trkpt lat="45.17923" lon="5.4189">
        <ele>263</ele>
        <time>2018-02-04T16:31:32Z</time>
      </trkpt>
      <trkpt lat="45.17914" lon="5.4188">
        <ele>264</ele>
        <time>2018-02-04T16:32:32Z</time>
      </trkpt>
      <trkpt lat="45.17906" lon="5.41874">
        <ele>263</ele>
        <time>2018-02-04T16:33:32Z</time>
      </trkpt>
      <trkpt lat="45.17897" lon="5.41868">
        <ele>264</ele>
        <time>2018-02-04T16:34:32Z</time>
      </trkpt>
      <trkpt lat="45.17889" lon="5.41866">
        <ele>264</ele>
        <time>2018-02-04T16:35:32Z</time>
      </trkpt>
      <trkpt lat="45.17878" lon="5.41863">
        <ele>265</ele>
        <time>2018-02-04T16:36:32Z</time>
      </trkpt>
      <trkpt lat="45.17866" lon="5.4186">
        <ele>265</ele>
        <time>2018-02-04T16:37:32Z</time>
      </trkpt>
      <trkpt lat="45.17854" lon="5.41857">
        <ele>266</ele>
        <time>2018-02-04T16:38:32Z</time>
      </trkpt>
      <trkpt lat="45.17848" lon="5.41854">
        <ele>267</ele>
        <time>2018-02-04T16:39:32Z</time>
      </trkpt>
      <trkpt lat="45.17845" lon="5.41849">
        <ele>267</ele>
        <time>2018-02-04T16:40:32Z</time>
      </trkpt>
      <trkpt lat="45.17842" lon="5.41844">
        <ele>267</ele>
        <time>2018-02-04T16:41:32Z</time>
      </trkpt>
      <trkpt lat="45.1784" lon="5.41837">
        <ele>267</ele>
        <time>2018-02-04T16:42:32Z</time>
      </trkpt>
      <trkpt lat="45.17837" lon="5.41829">
        <ele>267</ele>
        <time>2018-02-04T16:43:32Z</time>
      </trkpt>
      <trkpt lat="45.17835" lon="5.41818">
        <ele>267</ele>
        <time>2018-02-04T16:44:32Z</time>
      </trkpt>
      <trkpt lat="45.17832" lon="5.41809">
        <ele>267</ele>
        <time>2018-02-04T16:45:32Z</time>
      </trkpt>
      <trkpt lat="45.17828" lon="5.418">
        <ele>267</ele>
        <time>2018-02-04T16:46:32Z</time>
      </trkpt>
      <trkpt lat="45.17825" lon="5.41792">
        <ele>266</ele>
        <time>2018-02-04T16:47:32Z</time>
      </trkpt>
      <trkpt lat="45.17819" lon="5.41784">
        <ele>266</ele>
        <time>2018-02-04T16:48:32Z</time>
      </trkpt>
      <trkpt lat="45.17812" lon="5.41775">
        <ele>266</ele>
        <time>2018-02-04T16:49:32Z</time>
      </trkpt>
      <trkpt lat="45.17788" lon="5.41751">
        <ele>267</ele>
        <time>2018-02-04T16:50:32Z</time>
      </trkpt>
      <trkpt lat="45.17761" lon="5.41724">
        <ele>266</ele>
        <time>2018-02-04T16:51:32Z</time>
      </trkpt>
      <trkpt lat="45.17736" lon="5.41701">
        <ele>267</ele>
        <time>2018-02-04T16:52:32Z</time>
      </trkpt>
      <trkpt lat="45.17719" lon="5.41686">
        <ele>267</ele>
        <time>2018-02-04T16:53:32Z</time>
      </trkpt>
      <trkpt lat="45.17697" lon="5.41669">
        <ele>268</ele>
        <time>2018-02-04T16:54:32Z</time>
      </trkpt>
      <trkpt lat="45.17684" lon="5.41659">
        <ele>269</ele>
        <time>2018-02-04T16:55:32Z</time>
      </trkpt>
      <trkpt lat="45.17684" lon="5.41658">
        <ele>269</ele>
        <time>2018-02-04T16:56:32Z</time>
      </trkpt>
      <trkpt lat="45.17683" lon="5.41657">
        <ele>269</ele>
        <time>2018-02-04T16:57:32Z</time>
      </trkpt>
      <trkpt lat="45.17683" lon="5.41656">
        <ele>269</ele>
        <time>2018-02-04T16:58:32Z</time>
      </trkpt>
      <trkpt lat="45.17683" lon="5.41655">
        <ele>269</ele>
        <time>2018-02-04T16:59:32Z</time>
      </trkpt>
      <trkpt lat="45.17683" lon="5.41653">
        <ele>269</ele>
        <time>2018-02-04T17:00:32Z</time>
      </trkpt>
      <trkpt lat="45.17684" lon="5.41652">
        <ele>269</ele>
        <time>2018-02-04T17:01:32Z</time>
      </trkpt>
      <trkpt lat="45.17687" lon="5.41647">
        <ele>268</ele>
        <time>2018-02-04T17:02:32Z</time>
      </trkpt>
      <trkpt lat="45.17687" lon="5.41647">
        <ele>268</ele>
        <time>2018-02-04T17:03:32Z</time>
      </trkpt>
      <trkpt lat="45.17666" lon="5.41634">
        <ele>270</ele>
        <time>2018-02-04T17:04:32Z</time>
      </trkpt>
      <trkpt lat="45.17634" lon="5.41614">
        <ele>270</ele>
        <time>2018-02-04T17:05:32Z</time>
      </trkpt>
      <trkpt lat="45.17558" lon="5.41569">
        <ele>270</ele>
        <time>2018-02-04T17:06:32Z</time>
      </trkpt>
      <trkpt lat="45.17474" lon="5.41518">
        <ele>271</ele>
        <time>2018-02-04T17:07:32Z</time>
      </trkpt>
      <trkpt lat="45.17411" lon="5.4148">
        <ele>271</ele>
        <time>2018-02-04T17:08:32Z</time>
      </trkpt>
      <trkpt lat="45.17356" lon="5.41449">
        <ele>272</ele>
        <time>2018-02-04T17:09:32Z</time>
      </trkpt>
      <trkpt lat="45.1732" lon="5.41426">
        <ele>273</ele>
        <time>2018-02-04T17:10:32Z</time>
      </trkpt>
      <trkpt lat="45.17294" lon="5.4141">
        <ele>273</ele>
        <time>2018-02-04T17:11:32Z</time>
      </trkpt>
      <trkpt lat="45.17271" lon="5.41391">
        <ele>274</ele>
        <time>2018-02-04T17:12:32Z</time>
      </trkpt>
      <trkpt lat="45.17251" lon="5.41374">
        <ele>275</ele>
        <time>2018-02-04T17:13:32Z</time>
      </trkpt>
      <trkpt lat="45.17217" lon="5.41342">
        <ele>275</ele>
        <time>2018-02-04T17:14:32Z</time>
      </trkpt>
      <trkpt lat="45.17193" lon="5.4132">
        <ele>275</ele>
        <time>2018-02-04T17:15:32Z</time>
      </trkpt>
      <trkpt lat="45.17172" lon="5.41301">
        <ele>275</ele>
        <time>2018-02-04T17:16:32Z</time>
      </trkpt>
      <trkpt lat="45.1715" lon="5.41282">
        <ele>276</ele>
        <time>2018-02-04T17:17:32Z</time>
      </trkpt>
      <trkpt lat="45.17112" lon="5.41247">
        <ele>277</ele>
        <time>2018-02-04T17:18:32Z</time>
      </trkpt>
      <trkpt lat="45.17103" lon="5.4124">
        <ele>277</ele>
        <time>2018-02-04T17:19:32Z</time>
      </trkpt>
      <trkpt lat="45.1709" lon="5.41227">
        <ele>278</ele>
        <time>2018-02-04T17:20:32Z</time>
      </trkpt>
      <trkpt lat="45.17073" lon="5.4121">
        <ele>278</ele>
        <time>2018-02-04T17:21:32Z</time>
      </trkpt>
      <trkpt lat="45.17061" lon="5.41197">
        <ele>278</ele>
        <time>2018-02-04T17:22:32Z</time>
      </trkpt>
      <trkpt lat="45.17043" lon="5.41175">
        <ele>277</ele>
        <time>2018-02-04T17:23:32Z</time>
      </trkpt>
      <trkpt lat="45.17043" lon="5.41175">
        <ele>277</ele>
        <time>2018-02-04T17:24:32Z</time>
      </trkpt>
      <trkpt lat="45.17035" lon="5.41178">
        <ele>277</ele>
        <time>2018-02-04T17:25:32Z</time>
      </trkpt>
      <trkpt lat="45.17028" lon="5.41181">
        <ele>277</ele>
        <time>2018-02-04T17:26:32Z</time>
      </trkpt>
      <trkpt lat="45.17022" lon="5.41186">
        <ele>278</ele>
        <time>2018-02-04T17:27:32Z</time>
      </trkpt>
      <trkpt lat="45.17014" lon="5.41193">
        <ele>278</ele>
        <time>2018-02-04T17:28:32Z</time>
      </trkpt>
      <trkpt lat="45.17005" lon="5.41205">
        <ele>278</ele>
        <time>2018-02-04T17:29:32Z</time>
      </trkpt>
      <trkpt lat="45.16993" lon="5.41221">
        <ele>278</ele>
        <time>2018-02-04T17:30:32Z</time>
      </trkpt>
      <trkpt lat="45.16985" lon="5.41235">
        <ele>278</ele>
        <time>2018-02-04T17:31:32Z</time>
      </trkpt>
      <trkpt lat="45.16985" lon="5.41235">
        <ele>278</ele>
        <time>2018-02-04T17:32:32Z</time>
      </trkpt>
      <trkpt lat="45.16993" lon="5.41253">
        <ele>280</ele>
        <time>2018-02-04T17:33:32Z</time>
      </trkpt>
      <trkpt lat="45.17004" lon="5.41272">
        <ele>280</ele>
        <time>2018-02-04T17:34:32Z</time>
      </trkpt>
      <trkpt lat="45.17013" lon="5.41288">
        <ele>280</ele>
        <time>2018-02-04T17:35:32Z</time>
      </trkpt>
      <trkpt lat="45.17029" lon="5.41318">
        <ele>280</ele>
        <time>2018-02-04T17:36:32Z</time>
      </trkpt>
      <trkpt lat="45.17051" lon="5.41367">
        <ele>279</ele>
        <time>2018-02-04T17:37:32Z</time>
      </trkpt>
      <trkpt lat="45.17053" lon="5.41371">
        <ele>279</ele>
        <time>2018-02-04T17:38:32Z</time>
      </trkpt>
      <trkpt lat="45.17067" lon="5.41398">
        <ele>278</ele>
        <time>2018-02-04T17:39:32Z</time>
      </trkpt>
      <trkpt lat="45.17081" lon="5.41422">
        <ele>277</ele>
        <time>2018-02-04T17:40:32Z</time>
      </trkpt>
      <trkpt lat="45.17094" lon="5.41443">
        <ele>277</ele>
        <time>2018-02-04T17:41:32Z</time>
      </trkpt>
      <trkpt lat="45.1711" lon="5.41466">
        <ele>277</ele>
        <time>2018-02-04T17:42:32Z</time>
      </trkpt>
      <trkpt lat="45.17121" lon="5.41486">
        <ele>278</ele>
        <time>2018-02-04T17:43:32Z</time>
      </trkpt>
      <trkpt lat="45.17129" lon="5.41501">
        <ele>278</ele>
        <time>2018-02-04T17:44:32Z</time>
      </trkpt>
      <trkpt lat="45.17135" lon="5.41519">
        <ele>278</ele>
        <time>2018-02-04T17:45:32Z</time>
      </trkpt>
      <trkpt lat="45.17135" lon="5.41524">
        <ele>278</ele>
        <time>2018-02-04T17:46:32Z</time>
      </trkpt>
      <trkpt lat="45.17135" lon="5.41526">
        <ele>278</ele>
        <time>2018-02-04T17:47:32Z</time>
      </trkpt>
      <trkpt lat="45.17135" lon="5.41529">
        <ele>278</ele>
        <time>2018-02-04T17:48:32Z</time>
      </trkpt>
      <trkpt lat="45.17135" lon="5.41531">
        <ele>278</ele>
        <time>2018-02-04T17:49:32Z</time>
      </trkpt>
      <trkpt lat="45.17134" lon="5.41535">
        <ele>278</ele>
        <time>2018-02-04T17:50:32Z</time>
      </trkpt>
      <trkpt lat="45.17133" lon="5.41538">
        <ele>278</ele>
        <time>2018-02-04T17:51:32Z</time>
      </trkpt>
      <trkpt lat="45.17132" lon="5.41544">
        <ele>278</ele>
        <time>2018-02-04T17:52:32Z</time>
      </trkpt>
      <trkpt lat="45.17127" lon="5.41551">
        <ele>278</ele>
        <time>2018-02-04T17:53:32Z</time>
      </trkpt>
      <trkpt lat="45.17115" lon="5.41569">
        <ele>278</ele>
        <time>2018-02-04T17:54:32Z</time>
      </trkpt>
      <trkpt lat="45.17097" lon="5.41595">
        <ele>278</ele>
        <time>2018-02-04T17:55:32Z</time>
      </trkpt>
      <trkpt lat="45.17084" lon="5.41614">
        <ele>279</ele>
        <time>2018-02-04T17:56:32Z</time>
      </trkpt>
      <trkpt lat="45.17067" lon="5.41641">
        <ele>284</ele>
        <time>2018-02-04T17:57:32Z</time>
      </trkpt>
      <trkpt lat="45.1706" lon="5.41654">
        <ele>288</ele>
        <time>2018-02-04T17:58:32Z</time>
      </trkpt>
      <trkpt lat="45.17057" lon="5.41661">
        <ele>290</ele>
        <time>2018-02-04T17:59:32Z</time>
      </trkpt>
      <trkpt lat="45.17057" lon="5.41667">
        <ele>291</ele>
        <time>2018-02-04T18:00:32Z</time>
      </trkpt>
      <trkpt lat="45.17057" lon="5.41674">
        <ele>293</ele>
        <time>2018-02-04T18:01:32Z</time>
      </trkpt>
      <trkpt lat="45.17058" lon="5.4168">
        <ele>295</ele>
        <time>2018-02-04T18:02:32Z</time>
      </trkpt>
      <trkpt lat="45.1706" lon="5.41687">
        <ele>297</ele>
        <time>2018-02-04T18:03:32Z</time>
      </trkpt>
      <trkpt lat="45.17066" lon="5.41698">
        <ele>298</ele>
        <time>2018-02-04T18:04:32Z</time>
      </trkpt>
      <trkpt lat="45.17072" lon="5.41709">
        <ele>298</ele>
        <time>2018-02-04T18:05:32Z</time>
      </trkpt>
      <trkpt lat="45.17078" lon="5.4172">
        <ele>297</ele>
        <time>2018-02-04T18:06:32Z</time>
      </trkpt>
      <trkpt lat="45.17087" lon="5.41733">
        <ele>297</ele>
        <time>2018-02-04T18:07:32Z</time>
      </trkpt>
      <trkpt lat="45.17101" lon="5.41757">
        <ele>300</ele>
        <time>2018-02-04T18:08:32Z</time>
      </trkpt>
      <trkpt lat="45.17119" lon="5.41789">
        <ele>308</ele>
        <time>2018-02-04T18:09:32Z</time>
      </trkpt>
      <trkpt lat="45.17127" lon="5.41803">
        <ele>309</ele>
        <time>2018-02-04T18:10:32Z</time>
      </trkpt>
      <trkpt lat="45.17145" lon="5.41834">
        <ele>308</ele>
        <time>2018-02-04T18:11:32Z</time>
      </trkpt>
      <trkpt lat="45.17159" lon="5.41859">
        <ele>307</ele>
        <time>2018-02-04T18:12:32Z</time>
      </trkpt>
      <trkpt lat="45.17168" lon="5.41876">
        <ele>307</ele>
        <time>2018-02-04T18:13:32Z</time>
      </trkpt>
      <trkpt lat="45.17192" lon="5.41928">
        <ele>313</ele>
        <time>2018-02-04T18:14:32Z</time>
      </trkpt>
      <trkpt lat="45.17202" lon="5.41949">
        <ele>317</ele>
        <time>2018-02-04T18:15:32Z</time>
      </trkpt>
      <trkpt lat="45.17211" lon="5.41967">
        <ele>318</ele>
        <time>2018-02-04T18:16:32Z</time>
      </trkpt>
      <trkpt lat="45.1722" lon="5.41986">
        <ele>319</ele>
        <time>2018-02-04T18:17:32Z</time>
      </trkpt>
      <trkpt lat="45.17227" lon="5.41999">
        <ele>318</ele>
        <time>2018-02-04T18:18:32Z</time>
      </trkpt>
      <trkpt lat="45.17234" lon="5.42014">
        <ele>319</ele>
        <time>2018-02-04T18:19:32Z</time>
      </trkpt>
      <trkpt lat="45.1724" lon="5.4203">
        <ele>320</ele>
        <time>2018-02-04T18:20:32Z</time>
      </trkpt>
      <trkpt lat="45.17251" lon="5.42055">
        <ele>322</ele>
        <time>2018-02-04T18:21:32Z</time>
      </trkpt>
      <trkpt lat="45.17257" lon="5.4207">
        <ele>325</ele>
        <time>2018-02-04T18:22:32Z</time>
      </trkpt>
      <trkpt lat="45.17261" lon="5.42082">
        <ele>328</ele>
        <time>2018-02-04T18:23:32Z</time>
      </trkpt>
      <trkpt lat="45.17264" lon="5.42094">
        <ele>329</ele>
        <time>2018-02-04T18:24:32Z</time>
      </trkpt>
      <trkpt lat="45.17267" lon="5.42106">
        <ele>331</ele>
        <time>2018-02-04T18:25:32Z</time>
      </trkpt>
      <trkpt lat="45.17272" lon="5.42128">
        <ele>333</ele>
        <time>2018-02-04T18:26:32Z</time>
      </trkpt>
      <trkpt lat="45.1728" lon="5.42162">
        <ele>337</ele>
        <time>2018-02-04T18:27:32Z</time>
      </trkpt>
      <trkpt lat="45.17283" lon="5.42177">
        <ele>337</ele>
        <time>2018-02-04T18:28:32Z</time>
      </trkpt>
      <trkpt lat="45.17286" lon="5.42193">
        <ele>337</ele>
        <time>2018-02-04T18:29:32Z</time>
      </trkpt>
      <trkpt lat="45.17289" lon="5.42208">
        <ele>336</ele>
        <time>2018-02-04T18:30:32Z</time>
      </trkpt>
      <trkpt lat="45.17291" lon="5.42222">
        <ele>337</ele>
        <time>2018-02-04T18:31:32Z</time>
      </trkpt>
      <trkpt lat="45.17292" lon="5.42234">
        <ele>337</ele>
        <time>2018-02-04T18:32:32Z</time>
      </trkpt>
      <trkpt lat="45.17292" lon="5.42243">
        <ele>338</ele>
        <time>2018-02-04T18:33:32Z</time>
      </trkpt>
      <trkpt lat="45.17292" lon="5.4225">
        <ele>339</ele>
        <time>2018-02-04T18:34:32Z</time>
      </trkpt>
      <trkpt lat="45.17292" lon="5.42256">
        <ele>340</ele>
        <time>2018-02-04T18:35:32Z</time>
      </trkpt>
      <trkpt lat="45.17293" lon="5.42263">
        <ele>341</ele>
        <time>2018-02-04T18:36:32Z</time>
      </trkpt>
      <trkpt lat="45.17294" lon="5.42269">
        <ele>341</ele>
        <time>2018-02-04T18:37:32Z</time>
      </trkpt>
      <trkpt lat="45.17295" lon="5.42276">
        <ele>341</ele>
        <time>2018-02-04T18:38:32Z</time>
      </trkpt>
      <trkpt lat="45.17295" lon="5.42285">
        <ele>343</ele>
        <time>2018-02-04T18:39:32Z</time>
      </trkpt>
      <trkpt lat="45.17296" lon="5.42298">
        <ele>344</ele>
        <time>2018-02-04T18:40:32Z</time>
      </trkpt>
      <trkpt lat="45.17296" lon="5.42312">
        <ele>346</ele>
        <time>2018-02-04T18:41:32Z</time>
      </trkpt>
      <trkpt lat="45.17296" lon="5.42325">
        <ele>348</ele>
        <time>2018-02-04T18:42:32Z</time>
      </trkpt>
      <trkpt lat="45.17296" lon="5.42333">
        <ele>350</ele>
        <time>2018-02-04T18:43:32Z</time>
      </trkpt>
      <trkpt lat="45.17298" lon="5.42342">
        <ele>350</ele>
        <time>2018-02-04T18:44:32Z</time>
      </trkpt>
      <trkpt lat="45.173" lon="5.42353">
        <ele>351</ele>
        <time>2018-02-04T18:45:32Z</time>
      </trkpt>
      <trkpt lat="45.17304" lon="5.42369">
        <ele>352</ele>
        <time>2018-02-04T18:46:32Z</time>
      </trkpt>
      <trkpt lat="45.17307" lon="5.42377">
        <ele>352</ele>
        <time>2018-02-04T18:47:32Z</time>
      </trkpt>
      <trkpt lat="45.1731" lon="5.42383">
        <ele>351</ele>
        <time>2018-02-04T18:48:32Z</time>
      </trkpt>
      <trkpt lat="45.17312" lon="5.42388">
        <ele>351</ele>
        <time>2018-02-04T18:49:32Z</time>
      </trkpt>
      <trkpt lat="45.17316" lon="5.42399">
        <ele>351</ele>
        <time>2018-02-04T18:50:32Z</time>
      </trkpt>
      <trkpt lat="45.1732" lon="5.42408">
        <ele>350</ele>
        <time>2018-02-04T18:51:32Z</time>
      </trkpt>
      <trkpt lat="45.17323" lon="5.42421">
        <ele>351</ele>
        <time>2018-02-04T18:52:32Z</time>
      </trkpt>
      <trkpt lat="45.17331" lon="5.42448">
        <ele>353</ele>
        <time>2018-02-04T18:53:32Z</time>
      </trkpt>
      <trkpt lat="45.17337" lon="5.42468">
        <ele>355</ele>
        <time>2018-02-04T18:54:32Z</time>
      </trkpt>
      <trkpt lat="45.1734" lon="5.42482">
        <ele>358</ele>
        <time>2018-02-04T18:55:32Z</time>
      </trkpt>
      <trkpt lat="45.17343" lon="5.42494">
        <ele>359</ele>
        <time>2018-02-04T18:56:32Z</time>
      </trkpt>
      <trkpt lat="45.17348" lon="5.42517">
        <ele>362</ele>
        <time>2018-02-04T18:57:32Z</time>
      </trkpt>
      <trkpt lat="45.17358" lon="5.42548">
        <ele>364</ele>
        <time>2018-02-04T18:58:32Z</time>
      </trkpt>
      <trkpt lat="45.17366" lon="5.42572">
        <ele>366</ele>
        <time>2018-02-04T18:59:32Z</time>
      </trkpt>
      <trkpt lat="45.17375" lon="5.42592">
        <ele>366</ele>
        <time>2018-02-04T19:00:32Z</time>
      </trkpt>
      <trkpt lat="45.17392" lon="5.42637">
        <ele>369</ele>
        <time>2018-02-04T19:01:32Z</time>
      </trkpt>
      <trkpt lat="45.17401" lon="5.42664">
        <ele>371</ele>
        <time>2018-02-04T19:02:32Z</time>
      </trkpt>
      <trkpt lat="45.17414" lon="5.42697">
        <ele>373</ele>
        <time>2018-02-04T19:03:32Z</time>
      </trkpt>
      <trkpt lat="45.17418" lon="5.4271">
        <ele>374</ele>
        <time>2018-02-04T19:04:32Z</time>
      </trkpt>
      <trkpt lat="45.17422" lon="5.42721">
        <ele>376</ele>
        <time>2018-02-04T19:05:32Z</time>
      </trkpt>
      <trkpt lat="45.17425" lon="5.42727">
        <ele>377</ele>
        <time>2018-02-04T19:06:32Z</time>
      </trkpt>
      <trkpt lat="45.17427" lon="5.42731">
        <ele>377</ele>
        <time>2018-02-04T19:07:32Z</time>
      </trkpt>
      <trkpt lat="45.1743" lon="5.42737">
        <ele>378</ele>
        <time>2018-02-04T19:08:32Z</time>
      </trkpt>
      <trkpt lat="45.17435" lon="5.42743">
        <ele>378</ele>
        <time>2018-02-04T19:09:32Z</time>
      </trkpt>
      <trkpt lat="45.1744" lon="5.42749">
        <ele>378</ele>
        <time>2018-02-04T19:10:32Z</time>
      </trkpt>
      <trkpt lat="45.17444" lon="5.42752">
        <ele>378</ele>
        <time>2018-02-04T19:11:32Z</time>
      </trkpt>
      <trkpt lat="45.17447" lon="5.42756">
        <ele>378</ele>
        <time>2018-02-04T19:12:32Z</time>
      </trkpt>
      <trkpt lat="45.17454" lon="5.42761">
        <ele>378</ele>
        <time>2018-02-04T19:13:32Z</time>
      </trkpt>
      <trkpt lat="45.17461" lon="5.42767">
        <ele>379</ele>
        <time>2018-02-04T19:14:32Z</time>
      </trkpt>
      <trkpt lat="45.17467" lon="5.42772">
        <ele>379</ele>
        <time>2018-02-04T19:15:32Z</time>
      </trkpt>
      <trkpt lat="45.17473" lon="5.42775">
        <ele>378</ele>
        <time>2018-02-04T19:16:32Z</time>
      </trkpt>
      <trkpt lat="45.17476" lon="5.42777">
        <ele>378</ele>
        <time>2018-02-04T19:17:32Z</time>
      </trkpt>
      <trkpt lat="45.17478" lon="5.42777">
        <ele>377</ele>
        <time>2018-02-04T19:18:32Z</time>
      </trkpt>
      <trkpt lat="45.1748" lon="5.42778">
        <ele>377</ele>
        <time>2018-02-04T19:19:32Z</time>
      </trkpt>
      <trkpt lat="45.17481" lon="5.42778">
        <ele>376</ele>
        <time>2018-02-04T19:20:32Z</time>
      </trkpt>
      <trkpt lat="45.17482" lon="5.42779">
        <ele>376</ele>
        <time>2018-02-04T19:21:32Z</time>
      </trkpt>
      <trkpt lat="45.17485" lon="5.4278">
        <ele>376</ele>
        <time>2018-02-04T19:22:32Z</time>
      </trkpt>
      <trkpt lat="45.17487" lon="5.42781">
        <ele>376</ele>
        <time>2018-02-04T19:23:32Z</time>
      </trkpt>
      <trkpt lat="45.17489" lon="5.42782">
        <ele>375</ele>
        <time>2018-02-04T19:24:32Z</time>
      </trkpt>
      <trkpt lat="45.17491" lon="5.42784">
        <ele>375</ele>
        <time>2018-02-04T19:25:32Z</time>
      </trkpt>
      <trkpt lat="45.17493" lon="5.42786">
        <ele>375</ele>
        <time>2018-02-04T19:26:32Z</time>
      </trkpt>
      <trkpt lat="45.17494" lon="5.42788">
        <ele>376</ele>
        <time>2018-02-04T19:27:32Z</time>
      </trkpt>
      <trkpt lat="45.17495" lon="5.4279">
        <ele>376</ele>
        <time>2018-02-04T19:28:32Z</time>
      </trkpt>
      <trkpt lat="45.17495" lon="5.42793">
        <ele>377</ele>
        <time>2018-02-04T19:29:32Z</time>
      </trkpt>
      <trkpt lat="45.17495" lon="5.42795">
        <ele>378</ele>
        <time>2018-02-04T19:30:32Z</time>
      </trkpt>
      <trkpt lat="45.17495" lon="5.42796">
        <ele>378</ele>
        <time>2018-02-04T19:31:32Z</time>
      </trkpt>
      <trkpt lat="45.17495" lon="5.42798">
        <ele>379</ele>
        <time>2018-02-04T19:32:32Z</time>
      </trkpt>
      <trkpt lat="45.17494" lon="5.42799">
        <ele>380</ele>
        <time>2018-02-04T19:33:32Z</time>
      </trkpt>
      <trkpt lat="45.17493" lon="5.42801">
        <ele>381</ele>
        <time>2018-02-04T19:34:32Z</time>
      </trkpt>
      <trkpt lat="45.17491" lon="5.42804">
        <ele>383</ele>
        <time>2018-02-04T19:35:32Z</time>
      </trkpt>
      <trkpt lat="45.1749" lon="5.42805">
        <ele>383</ele>
        <time>2018-02-04T19:36:32Z</time>
      </trkpt>
      <trkpt lat="45.17489" lon="5.42806">
        <ele>384</ele>
        <time>2018-02-04T19:37:32Z</time>
      </trkpt>
      <trkpt lat="45.17487" lon="5.42806">
        <ele>385</ele>
        <time>2018-02-04T19:38:32Z</time>
      </trkpt>
      <trkpt lat="45.17485" lon="5.42806">
        <ele>386</ele>
        <time>2018-02-04T19:39:32Z</time>
      </trkpt>
      <trkpt lat="45.17483" lon="5.42806">
        <ele>386</ele>
        <time>2018-02-04T19:40:32Z</time>
      </trkpt>
      <trkpt lat="45.1748" lon="5.42804">
        <ele>387</ele>
        <time>2018-02-04T19:41:32Z</time>
      </trkpt>
      <trkpt lat="45.17478" lon="5.42803">
        <ele>387</ele>
        <time>2018-02-04T19:42:32Z</time>
      </trkpt>
      <trkpt lat="45.17475" lon="5.42801">
        <ele>387</ele>
        <time>2018-02-04T19:43:32Z</time>
      </trkpt>
      <trkpt lat="45.17471" lon="5.42797">
        <ele>387</ele>
        <time>2018-02-04T19:44:32Z</time>
      </trkpt>
      <trkpt lat="45.17469" lon="5.42795">
        <ele>387</ele>
        <time>2018-02-04T19:45:32Z</time>
      </trkpt>
      <trkpt lat="45.17466" lon="5.42793">
        <ele>387</ele>
        <time>2018-02-04T19:46:32Z</time>
      </trkpt>
      <trkpt lat="45.17454" lon="5.42781">
        <ele>387</ele>
        <time>2018-02-04T19:47:32Z</time>
      </trkpt>
      <trkpt lat="45.1745" lon="5.42777">
        <ele>386</ele>
        <time>2018-02-04T19:48:32Z</time>
      </trkpt>
      <trkpt lat="45.17446" lon="5.42774">
        <ele>386</ele>
        <time>2018-02-04T19:49:32Z</time>
      </trkpt>
      <trkpt lat="45.17443" lon="5.42772">
        <ele>386</ele>
        <time>2018-02-04T19:50:32Z</time>
      </trkpt>
      <trkpt lat="45.1744" lon="5.42771">
        <ele>387</ele>
        <time>2018-02-04T19:51:32Z</time>
      </trkpt>
      <trkpt lat="45.17436" lon="5.4277">
        <ele>388</ele>
        <time>2018-02-04T19:52:32Z</time>
      </trkpt>
      <trkpt lat="45.17433" lon="5.42769">
        <ele>388</ele>
        <time>2018-02-04T19:53:32Z</time>
      </trkpt>
      <trkpt lat="45.17423" lon="5.42764">
        <ele>389</ele>
        <time>2018-02-04T19:54:32Z</time>
      </trkpt>
      <trkpt lat="45.17415" lon="5.42759">
        <ele>390</ele>
        <time>2018-02-04T19:55:32Z</time>
      </trkpt>
      <trkpt lat="45.17406" lon="5.42751">
        <ele>391</ele>
        <time>2018-02-04T19:56:32Z</time>
      </trkpt>
      <trkpt lat="45.17398" lon="5.42741">
        <ele>392</ele>
        <time>2018-02-04T19:57:32Z</time>
      </trkpt>
      <trkpt lat="45.17386" lon="5.42722">
        <ele>393</ele>
        <time>2018-02-04T19:58:32Z</time>
      </trkpt>
      <trkpt lat="45.17381" lon="5.42711">
        <ele>393</ele>
        <time>2018-02-04T19:59:32Z</time>
      </trkpt>
      <trkpt lat="45.17377" lon="5.42703">
        <ele>393</ele>
        <time>2018-02-04T20:00:32Z</time>
      </trkpt>
      <trkpt lat="45.17373" lon="5.42695">
        <ele>392</ele>
        <time>2018-02-04T20:01:32Z</time>
      </trkpt>
      <trkpt lat="45.17364" lon="5.42678">
        <ele>392</ele>
        <time>2018-02-04T20:02:32Z</time>
      </trkpt>
      <trkpt lat="45.17346" lon="5.42655">
        <ele>395</ele>
        <time>2018-02-04T20:03:32Z</time>
      </trkpt>
      <trkpt lat="45.17333" lon="5.42637">
        <ele>396</ele>
        <time>2018-02-04T20:04:32Z</time>
      </trkpt>
      <trkpt lat="45.1733" lon="5.42632">
        <ele>397</ele>
        <time>2018-02-04T20:05:32Z</time>
      </trkpt>
      <trkpt lat="45.17325" lon="5.42627">
        <ele>399</ele>
        <time>2018-02-04T20:06:32Z</time>
      </trkpt>
      <trkpt lat="45.17317" lon="5.42619">
        <ele>402</ele>
        <time>2018-02-04T20:07:32Z</time>
      </trkpt>
      <trkpt lat="45.1731" lon="5.42607">
        <ele>404</ele>
        <time>2018-02-04T20:08:32Z</time>
      </trkpt>
      <trkpt lat="45.17306" lon="5.42601">
        <ele>404</ele>
        <time>2018-02-04T20:09:32Z</time>
      </trkpt>
      <trkpt lat="45.17303" lon="5.42593">
        <ele>404</ele>
        <time>2018-02-04T20:10:32Z</time>
      </trkpt>
      <trkpt lat="45.173" lon="5.42581">
        <ele>403</ele>
        <time>2018-02-04T20:11:32Z</time>
      </trkpt>
      <trkpt lat="45.17296" lon="5.42563">
        <ele>401</ele>
        <time>2018-02-04T20:12:32Z</time>
      </trkpt>
      <trkpt lat="45.17294" lon="5.42556">
        <ele>401</ele>
        <time>2018-02-04T20:13:32Z</time>
      </trkpt>
      <trkpt lat="45.17293" lon="5.42549">
        <ele>400</ele>
        <time>2018-02-04T20:14:32Z</time>
      </trkpt>
      <trkpt lat="45.17288" lon="5.42533">
        <ele>400</ele>
        <time>2018-02-04T20:15:32Z</time>
      </trkpt>
      <trkpt lat="45.17285" lon="5.42525">
        <ele>400</ele>
        <time>2018-02-04T20:16:32Z</time>
      </trkpt>
      <trkpt lat="45.17282" lon="5.42516">
        <ele>399</ele>
        <time>2018-02-04T20:17:32Z</time>
      </trkpt>
      <trkpt lat="45.17279" lon="5.42508">
        <ele>399</ele>
        <time>2018-02-04T20:18:32Z</time>
      </trkpt>
      <trkpt lat="45.17273" lon="5.42498">
        <ele>401</ele>
        <time>2018-02-04T20:19:32Z</time>
      </trkpt>
      <trkpt lat="45.1727" lon="5.42492">
        <ele>401</ele>
        <time>2018-02-04T20:20:32Z</time>
      </trkpt>
      <trkpt lat="45.17267" lon="5.42488">
        <ele>402</ele>
        <time>2018-02-04T20:21:32Z</time>
      </trkpt>
      <trkpt lat="45.17259" lon="5.42477">
        <ele>404</ele>
        <time>2018-02-04T20:22:32Z</time>
      </trkpt>
      <trkpt lat="45.17254" lon="5.42471">
        <ele>406</ele>
        <time>2018-02-04T20:23:32Z</time>
      </trkpt>
      <trkpt lat="45.1725" lon="5.42466">
        <ele>407</ele>
        <time>2018-02-04T20:24:32Z</time>
      </trkpt>
      <trkpt lat="45.17244" lon="5.42458">
        <ele>409</ele>
        <time>2018-02-04T20:25:32Z</time>
      </trkpt>
      <trkpt lat="45.17241" lon="5.42453">
        <ele>410</ele>
        <time>2018-02-04T20:26:32Z</time>
      </trkpt>
      <trkpt lat="45.17239" lon="5.42445">
        <ele>410</ele>
        <time>2018-02-04T20:27:32Z</time>
      </trkpt>
      <trkpt lat="45.17236" lon="5.42438">
        <ele>410</ele>
        <time>2018-02-04T20:28:32Z</time>
      </trkpt>
      <trkpt lat="45.17235" lon="5.42431">
        <ele>409</ele>
        <time>2018-02-04T20:29:32Z</time>
      </trkpt>
      <trkpt lat="45.17233" lon="5.42424">
        <ele>408</ele>
        <time>2018-02-04T20:30:32Z</time>
      </trkpt>
      <trkpt lat="45.17232" lon="5.42417">
        <ele>407</ele>
        <time>2018-02-04T20:31:32Z</time>
      </trkpt>
      <trkpt lat="45.1723" lon="5.42411">
        <ele>407</ele>
        <time>2018-02-04T20:32:32Z</time>
      </trkpt>
      <trkpt lat="45.17227" lon="5.42405">
        <ele>408</ele>
        <time>2018-02-04T20:33:32Z</time>
      </trkpt>
      <trkpt lat="45.17225" lon="5.424">
        <ele>408</ele>
        <time>2018-02-04T20:34:32Z</time>
      </trkpt>
      <trkpt lat="45.17223" lon="5.42396">
        <ele>409</ele>
        <time>2018-02-04T20:35:32Z</time>
      </trkpt>
      <trkpt lat="45.17221" lon="5.42392">
        <ele>410</ele>
        <time>2018-02-04T20:36:32Z</time>
      </trkpt>
      <trkpt lat="45.17216" lon="5.42384">
        <ele>411</ele>
        <time>2018-02-04T20:37:32Z</time>
      </trkpt>
      <trkpt lat="45.1721" lon="5.42373">
        <ele>413</ele>
        <time>2018-02-04T20:38:32Z</time>
      </trkpt>
      <trkpt lat="45.17194" lon="5.42346">
        <ele>418</ele>
        <time>2018-02-04T20:39:32Z</time>
      </trkpt>
      <trkpt lat="45.17186" lon="5.42331">
        <ele>420</ele>
        <time>2018-02-04T20:40:32Z</time>
      </trkpt>
      <trkpt lat="45.17181" lon="5.42322">
        <ele>424</ele>
        <time>2018-02-04T20:41:32Z</time>
      </trkpt>
      <trkpt lat="45.17178" lon="5.42312">
        <ele>426</ele>
        <time>2018-02-04T20:42:32Z</time>
      </trkpt>
      <trkpt lat="45.17175" lon="5.42304">
        <ele>428</ele>
        <time>2018-02-04T20:43:32Z</time>
      </trkpt>
      <trkpt lat="45.17173" lon="5.42296">
        <ele>429</ele>
        <time>2018-02-04T20:44:32Z</time>
      </trkpt>
      <trkpt lat="45.17172" lon="5.42289">
        <ele>430</ele>
        <time>2018-02-04T20:45:32Z</time>
      </trkpt>
      <trkpt lat="45.17171" lon="5.42283">
        <ele>430</ele>
        <time>2018-02-04T20:46:32Z</time>
      </trkpt>
      <trkpt lat="45.1717" lon="5.42278">
        <ele>431</ele>
        <time>2018-02-04T20:47:32Z</time>
      </trkpt>
      <trkpt lat="45.1717" lon="5.42274">
        <ele>431</ele>
        <time>2018-02-04T20:48:32Z</time>
      </trkpt>
      <trkpt lat="45.1717" lon="5.42271">
        <ele>431</ele>
        <time>2018-02-04T20:49:32Z</time>
      </trkpt>
      <trkpt lat="45.17171" lon="5.42267">
        <ele>431</ele>
        <time>2018-02-04T20:50:32Z</time>
      </trkpt>
      <trkpt lat="45.17172" lon="5.42263">
        <ele>430</ele>
        <time>2018-02-04T20:51:32Z</time>
      </trkpt>
      <trkpt lat="45.17174" lon="5.42258">
        <ele>428</ele>
        <time>2018-02-04T20:52:32Z</time>
      </trkpt>
      <trkpt lat="45.17176" lon="5.42254">
        <ele>427</ele>
        <time>2018-02-04T20:53:32Z</time>
      </trkpt>
      <trkpt lat="45.17179" lon="5.42249">
        <ele>424</ele>
        <time>2018-02-04T20:54:32Z</time>
      </trkpt>
      <trkpt lat="45.17181" lon="5.42246">
        <ele>423</ele>
        <time>2018-02-04T20:55:32Z</time>
      </trkpt>
      <trkpt lat="45.17183" lon="5.4224">
        <ele>421</ele>
        <time>2018-02-04T20:56:32Z</time>
      </trkpt>
      <trkpt lat="45.17184" lon="5.42233">
        <ele>420</ele>
        <time>2018-02-04T20:57:32Z</time>
      </trkpt>
      <trkpt lat="45.17184" lon="5.42228">
        <ele>419</ele>
        <time>2018-02-04T20:58:32Z</time>
      </trkpt>
      <trkpt lat="45.17184" lon="5.42217">
        <ele>419</ele>
        <time>2018-02-04T20:59:32Z</time>
      </trkpt>
      <trkpt lat="45.17183" lon="5.42207">
        <ele>419</ele>
        <time>2018-02-04T21:00:32Z</time>
      </trkpt>
      <trkpt lat="45.17182" lon="5.42194">
        <ele>419</ele>
        <time>2018-02-04T21:01:32Z</time>
      </trkpt>
      <trkpt lat="45.1718" lon="5.42183">
        <ele>420</ele>
        <time>2018-02-04T21:02:32Z</time>
      </trkpt>
      <trkpt lat="45.17177" lon="5.42173">
        <ele>422</ele>
        <time>2018-02-04T21:03:32Z</time>
      </trkpt>
      <trkpt lat="45.17174" lon="5.42165">
        <ele>423</ele>
        <time>2018-02-04T21:04:32Z</time>
      </trkpt>
      <trkpt lat="45.17171" lon="5.42156">
        <ele>424</ele>
        <time>2018-02-04T21:05:32Z</time>
      </trkpt>
      <trkpt lat="45.17167" lon="5.42147">
        <ele>425</ele>
        <time>2018-02-04T21:06:32Z</time>
      </trkpt>
      <trkpt lat="45.17162" lon="5.42136">
        <ele>426</ele>
        <time>2018-02-04T21:07:32Z</time>
      </trkpt>
      <trkpt lat="45.17158" lon="5.42128">
        <ele>426</ele>
        <time>2018-02-04T21:08:32Z</time>
      </trkpt>
      <trkpt lat="45.17154" lon="5.42121">
        <ele>427</ele>
        <time>2018-02-04T21:09:32Z</time>
      </trkpt>
      <trkpt lat="45.1715" lon="5.42116">
        <ele>428</ele>
        <time>2018-02-04T21:10:32Z</time>
      </trkpt>
      <trkpt lat="45.17145" lon="5.42108">
        <ele>429</ele>
        <time>2018-02-04T21:11:32Z</time>
      </trkpt>
      <trkpt lat="45.17131" lon="5.42089">
        <ele>433</ele>
        <time>2018-02-04T21:12:32Z</time>
      </trkpt>
      <trkpt lat="45.17115" lon="5.42069">
        <ele>434</ele>
        <time>2018-02-04T21:13:32Z</time>
      </trkpt>
      <trkpt lat="45.1711" lon="5.42062">
        <ele>433</ele>
        <time>2018-02-04T21:14:32Z</time>
      </trkpt>
      <trkpt lat="45.17104" lon="5.42055">
        <ele>434</ele>
        <time>2018-02-04T21:15:32Z</time>
      </trkpt>
      <trkpt lat="45.17094" lon="5.42042">
        <ele>434</ele>
        <time>2018-02-04T21:16:32Z</time>
      </trkpt>
      <trkpt lat="45.17074" lon="5.42017">
        <ele>434</ele>
        <time>2018-02-04T21:17:32Z</time>
      </trkpt>
      <trkpt lat="45.17055" lon="5.41994">
        <ele>436</ele>
        <time>2018-02-04T21:18:32Z</time>
      </trkpt>
      <trkpt lat="45.17032" lon="5.41966">
        <ele>439</ele>
        <time>2018-02-04T21:19:32Z</time>
      </trkpt>
      <trkpt lat="45.17015" lon="5.41945">
        <ele>441</ele>
        <time>2018-02-04T21:20:32Z</time>
      </trkpt>
      <trkpt lat="45.16992" lon="5.41915">
        <ele>442</ele>
        <time>2018-02-04T21:21:32Z</time>
      </trkpt>
      <trkpt lat="45.16986" lon="5.41908">
        <ele>442</ele>
        <time>2018-02-04T21:22:32Z</time>
      </trkpt>
      <trkpt lat="45.16977" lon="5.41897">
        <ele>441</ele>
        <time>2018-02-04T21:23:32Z</time>
      </trkpt>
      <trkpt lat="45.16971" lon="5.41892">
        <ele>442</ele>
        <time>2018-02-04T21:24:32Z</time>
      </trkpt>
      <trkpt lat="45.16965" lon="5.41885">
        <ele>442</ele>
        <time>2018-02-04T21:25:32Z</time>
      </trkpt>
      <trkpt lat="45.16954" lon="5.41876">
        <ele>444</ele>
        <time>2018-02-04T21:26:32Z</time>
      </trkpt>
      <trkpt lat="45.16935" lon="5.41863">
        <ele>448</ele>
        <time>2018-02-04T21:27:32Z</time>
      </trkpt>
      <trkpt lat="45.16919" lon="5.41848">
        <ele>451</ele>
        <time>2018-02-04T21:28:32Z</time>
      </trkpt>
      <trkpt lat="45.16909" lon="5.41838">
        <ele>448</ele>
        <time>2018-02-04T21:29:32Z</time>
      </trkpt>
      <trkpt lat="45.16901" lon="5.41828">
        <ele>441</ele>
        <time>2018-02-04T21:30:32Z</time>
      </trkpt>
      <trkpt lat="45.16894" lon="5.41818">
        <ele>433</ele>
        <time>2018-02-04T21:31:32Z</time>
      </trkpt>
      <trkpt lat="45.16888" lon="5.41811">
        <ele>427</ele>
        <time>2018-02-04T21:32:32Z</time>
      </trkpt>
      <trkpt lat="45.16885" lon="5.41809">
        <ele>424</ele>
        <time>2018-02-04T21:33:32Z</time>
      </trkpt>
      <trkpt lat="45.1688" lon="5.41808">
        <ele>421</ele>
        <time>2018-02-04T21:34:32Z</time>
      </trkpt>
      <trkpt lat="45.16877" lon="5.41808">
        <ele>420</ele>
        <time>2018-02-04T21:35:32Z</time>
      </trkpt>
      <trkpt lat="45.16875" lon="5.4181">
        <ele>420</ele>
        <time>2018-02-04T21:36:32Z</time>
      </trkpt>
      <trkpt lat="45.16873" lon="5.41812">
        <ele>421</ele>
        <time>2018-02-04T21:37:32Z</time>
      </trkpt>
      <trkpt lat="45.16871" lon="5.41817">
        <ele>423</ele>
        <time>2018-02-04T21:38:32Z</time>
      </trkpt>
      <trkpt lat="45.16871" lon="5.41821">
        <ele>425</ele>
        <time>2018-02-04T21:39:32Z</time>
      </trkpt>
      <trkpt lat="45.16871" lon="5.41824">
        <ele>427</ele>
        <time>2018-02-04T21:40:32Z</time>
      </trkpt>
      <trkpt lat="45.16872" lon="5.41828">
        <ele>430</ele>
        <time>2018-02-04T21:41:32Z</time>
      </trkpt>
      <trkpt lat="45.16873" lon="5.41832">
        <ele>432</ele>
        <time>2018-02-04T21:42:32Z</time>
      </trkpt>
      <trkpt lat="45.16876" lon="5.41838">
        <ele>436</ele>
        <time>2018-02-04T21:43:32Z</time>
      </trkpt>
      <trkpt lat="45.16883" lon="5.41847">
        <ele>442</ele>
        <time>2018-02-04T21:44:32Z</time>
      </trkpt>
      <trkpt lat="45.16895" lon="5.41864">
        <ele>450</ele>
        <time>2018-02-04T21:45:32Z</time>
      </trkpt>
      <trkpt lat="45.16903" lon="5.41877">
        <ele>455</ele>
        <time>2018-02-04T21:46:32Z</time>
      </trkpt>
      <trkpt lat="45.16912" lon="5.4189">
        <ele>458</ele>
        <time>2018-02-04T21:47:32Z</time>
      </trkpt>
      <trkpt lat="45.16918" lon="5.41898">
        <ele>460</ele>
        <time>2018-02-04T21:48:32Z</time>
      </trkpt>
      <trkpt lat="45.1692" lon="5.419">
        <ele>459</ele>
        <time>2018-02-04T21:49:32Z</time>
      </trkpt>
      <trkpt lat="45.16926" lon="5.41906">
        <ele>459</ele>
        <time>2018-02-04T21:50:32Z</time>
      </trkpt>
      <trkpt lat="45.16936" lon="5.41918">
        <ele>458</ele>
        <time>2018-02-04T21:51:32Z</time>
      </trkpt>
      <trkpt lat="45.16945" lon="5.4193">
        <ele>459</ele>
        <time>2018-02-04T21:52:32Z</time>
      </trkpt>
      <trkpt lat="45.16954" lon="5.41945">
        <ele>462</ele>
        <time>2018-02-04T21:53:32Z</time>
      </trkpt>
      <trkpt lat="45.16959" lon="5.41953">
        <ele>464</ele>
        <time>2018-02-04T21:54:32Z</time>
      </trkpt>
      <trkpt lat="45.16967" lon="5.41968">
        <ele>467</ele>
        <time>2018-02-04T21:55:32Z</time>
      </trkpt>
      <trkpt lat="45.16977" lon="5.41984">
        <ele>470</ele>
        <time>2018-02-04T21:56:32Z</time>
      </trkpt>
      <trkpt lat="45.16989" lon="5.42007">
        <ele>476</ele>
        <time>2018-02-04T21:57:32Z</time>
      </trkpt>
      <trkpt lat="45.16997" lon="5.42023">
        <ele>479</ele>
        <time>2018-02-04T21:58:32Z</time>
      </trkpt>
      <trkpt lat="45.17005" lon="5.42039">
        <ele>479</ele>
        <time>2018-02-04T21:59:32Z</time>
      </trkpt>
      <trkpt lat="45.17012" lon="5.42053">
        <ele>479</ele>
        <time>2018-02-04T22:00:32Z</time>
      </trkpt>
      <trkpt lat="45.17018" lon="5.42071">
        <ele>482</ele>
        <time>2018-02-04T22:01:32Z</time>
      </trkpt>
      <trkpt lat="45.17023" lon="5.42087">
        <ele>484</ele>
        <time>2018-02-04T22:02:32Z</time>
      </trkpt>
      <trkpt lat="45.17028" lon="5.42109">
        <ele>487</ele>
        <time>2018-02-04T22:03:32Z</time>
      </trkpt>
      <trkpt lat="45.17033" lon="5.42129">
        <ele>490</ele>
        <time>2018-02-04T22:04:32Z</time>
      </trkpt>
      <trkpt lat="45.17038" lon="5.42149">
        <ele>493</ele>
        <time>2018-02-04T22:05:32Z</time>
      </trkpt>
      <trkpt lat="45.17043" lon="5.42167">
        <ele>495</ele>
        <time>2018-02-04T22:06:32Z</time>
      </trkpt>
      <trkpt lat="45.1705" lon="5.42182">
        <ele>494</ele>
        <time>2018-02-04T22:07:32Z</time>
      </trkpt>
      <trkpt lat="45.17055" lon="5.42195">
        <ele>492</ele>
        <time>2018-02-04T22:08:32Z</time>
      </trkpt>
      <trkpt lat="45.17059" lon="5.42202">
        <ele>491</ele>
        <time>2018-02-04T22:09:32Z</time>
      </trkpt>
      <trkpt lat="45.1706" lon="5.42206">
        <ele>491</ele>
        <time>2018-02-04T22:10:32Z</time>
      </trkpt>
      <trkpt lat="45.1706" lon="5.4221">
        <ele>491</ele>
        <time>2018-02-04T22:11:32Z</time>
      </trkpt>
      <trkpt lat="45.17059" lon="5.42214">
        <ele>492</ele>
        <time>2018-02-04T22:12:32Z</time>
      </trkpt>
      <trkpt lat="45.17058" lon="5.42217">
        <ele>492</ele>
        <time>2018-02-04T22:13:32Z</time>
      </trkpt>
      <trkpt lat="45.17056" lon="5.42219">
        <ele>494</ele>
        <time>2018-02-04T22:14:32Z</time>
      </trkpt>
      <trkpt lat="45.17053" lon="5.42221">
        <ele>495</ele>
        <time>2018-02-04T22:15:32Z</time>
      </trkpt>
      <trkpt lat="45.1705" lon="5.4222">
        <ele>497</ele>
        <time>2018-02-04T22:16:32Z</time>
      </trkpt>
      <trkpt lat="45.17048" lon="5.42218">
        <ele>497</ele>
        <time>2018-02-04T22:17:32Z</time>
      </trkpt>
      <trkpt lat="45.17046" lon="5.42214">
        <ele>498</ele>
        <time>2018-02-04T22:18:32Z</time>
      </trkpt>
      <trkpt lat="45.17044" lon="5.4221">
        <ele>499</ele>
        <time>2018-02-04T22:19:32Z</time>
      </trkpt>
      <trkpt lat="45.17042" lon="5.422">
        <ele>499</ele>
        <time>2018-02-04T22:20:32Z</time>
      </trkpt>
      <trkpt lat="45.17039" lon="5.42192">
        <ele>500</ele>
        <time>2018-02-04T22:21:32Z</time>
      </trkpt>
      <trkpt lat="45.17035" lon="5.42181">
        <ele>500</ele>
        <time>2018-02-04T22:22:32Z</time>
      </trkpt>
      <trkpt lat="45.17025" lon="5.42164">
        <ele>503</ele>
        <time>2018-02-04T22:23:32Z</time>
      </trkpt>
      <trkpt lat="45.17013" lon="5.42138">
        <ele>501</ele>
        <time>2018-02-04T22:24:32Z</time>
      </trkpt>
      <trkpt lat="45.17" lon="5.42111">
        <ele>500</ele>
        <time>2018-02-04T22:25:32Z</time>
      </trkpt>
      <trkpt lat="45.16986" lon="5.42087">
        <ele>500</ele>
        <time>2018-02-04T22:26:32Z</time>
      </trkpt>
      <trkpt lat="45.16977" lon="5.42073">
        <ele>499</ele>
        <time>2018-02-04T22:27:32Z</time>
      </trkpt>
      <trkpt lat="45.16969" lon="5.42061">
        <ele>498</ele>
        <time>2018-02-04T22:28:32Z</time>
      </trkpt>
      <trkpt lat="45.16963" lon="5.42054">
        <ele>498</ele>
        <time>2018-02-04T22:29:32Z</time>
      </trkpt>
      <trkpt lat="45.16956" lon="5.42046">
        <ele>497</ele>
        <time>2018-02-04T22:30:32Z</time>
      </trkpt>
      <trkpt lat="45.16948" lon="5.42037">
        <ele>496</ele>
        <time>2018-02-04T22:31:32Z</time>
      </trkpt>
      <trkpt lat="45.1694" lon="5.42029">
        <ele>495</ele>
        <time>2018-02-04T22:32:32Z</time>
      </trkpt>
      <trkpt lat="45.16933" lon="5.42022">
        <ele>494</ele>
        <time>2018-02-04T22:33:32Z</time>
      </trkpt>
      <trkpt lat="45.16928" lon="5.42017">
        <ele>493</ele>
        <time>2018-02-04T22:34:32Z</time>
      </trkpt>
      <trkpt lat="45.16923" lon="5.42014">
        <ele>492</ele>
        <time>2018-02-04T22:35:32Z</time>
      </trkpt>
      <trkpt lat="45.1692" lon="5.42013">
        <ele>493</ele>
        <time>2018-02-04T22:36:32Z</time>
      </trkpt>
      <trkpt lat="45.16917" lon="5.42013">
        <ele>493</ele>
        <time>2018-02-04T22:37:32Z</time>
      </trkpt>
      <trkpt lat="45.16914" lon="5.42015">
        <ele>494</ele>
        <time>2018-02-04T22:38:32Z</time>
      </trkpt>
      <trkpt lat="45.1691" lon="5.42018">
        <ele>494</ele>
        <time>2018-02-04T22:39:32Z</time>
      </trkpt>
      <trkpt lat="45.16901" lon="5.42028">
        <ele>497</ele>
        <time>2018-02-04T22:40:32Z</time>
      </trkpt>
      <trkpt lat="45.16893" lon="5.42037">
        <ele>500</ele>
        <time>2018-02-04T22:41:32Z</time>
      </trkpt>
      <trkpt lat="45.16884" lon="5.42048">
        <ele>503</ele>
        <time>2018-02-04T22:42:32Z</time>
      </trkpt>
      <trkpt lat="45.16875" lon="5.42059">
        <ele>506</ele>
        <time>2018-02-04T22:43:32Z</time>
      </trkpt>
      <trkpt lat="45.16866" lon="5.42071">
        <ele>510</ele>
        <time>2018-02-04T22:44:32Z</time>
      </trkpt>
      <trkpt lat="45.16851" lon="5.42089">
        <ele>514</ele>
        <time>2018-02-04T22:45:32Z</time>
      </trkpt>
      <trkpt lat="45.16839" lon="5.42101">
        <ele>517</ele>
        <time>2018-02-04T22:46:32Z</time>
      </trkpt>
      <trkpt lat="45.16832" lon="5.42106">
        <ele>519</ele>
        <time>2018-02-04T22:47:32Z</time>
      </trkpt>
      <trkpt lat="45.16826" lon="5.42108">
        <ele>522</ele>
        <time>2018-02-04T22:48:32Z</time>
      </trkpt>
      <trkpt lat="45.16818" lon="5.42108">
        <ele>525</ele>
        <time>2018-02-04T22:49:32Z</time>
      </trkpt>
      <trkpt lat="45.16811" lon="5.42106">
        <ele>527</ele>
        <time>2018-02-04T22:50:32Z</time>
      </trkpt>
      <trkpt lat="45.16804" lon="5.42103">
        <ele>528</ele>
        <time>2018-02-04T22:51:32Z</time>
      </trkpt>
      <trkpt lat="45.16796" lon="5.42099">
        <ele>528</ele>
        <time>2018-02-04T22:52:32Z</time>
      </trkpt>
      <trkpt lat="45.1679" lon="5.42094">
        <ele>528</ele>
        <time>2018-02-04T22:53:32Z</time>
      </trkpt>
      <trkpt lat="45.16784" lon="5.4209">
        <ele>527</ele>
        <time>2018-02-04T22:54:32Z</time>
      </trkpt>
      <trkpt lat="45.16777" lon="5.42087">
        <ele>528</ele>
        <time>2018-02-04T22:55:32Z</time>
      </trkpt>
      <trkpt lat="45.16771" lon="5.42085">
        <ele>528</ele>
        <time>2018-02-04T22:56:32Z</time>
      </trkpt>
      <trkpt lat="45.16762" lon="5.42085">
        <ele>531</ele>
        <time>2018-02-04T22:57:32Z</time>
      </trkpt>
      <trkpt lat="45.16756" lon="5.42084">
        <ele>533</ele>
        <time>2018-02-04T22:58:32Z</time>
      </trkpt>
      <trkpt lat="45.16746" lon="5.42082">
        <ele>534</ele>
        <time>2018-02-04T22:59:32Z</time>
      </trkpt>
      <trkpt lat="45.16734" lon="5.42078">
        <ele>534</ele>
        <time>2018-02-04T23:00:32Z</time>
      </trkpt>
      <trkpt lat="45.1673" lon="5.42078">
        <ele>535</ele>
        <time>2018-02-04T23:01:32Z</time>
      </trkpt>
      <trkpt lat="45.16726" lon="5.42081">
        <ele>538</ele>
        <time>2018-02-04T23:02:32Z</time>
      </trkpt>
      <trkpt lat="45.16723" lon="5.42086">
        <ele>541</ele>
        <time>2018-02-04T23:03:32Z</time>
      </trkpt>
      <trkpt lat="45.1672" lon="5.4209">
        <ele>544</ele>
        <time>2018-02-04T23:04:32Z</time>
      </trkpt>
      <trkpt lat="45.16714" lon="5.42101">
        <ele>552</ele>
        <time>2018-02-04T23:05:32Z</time>
      </trkpt>
      <trkpt lat="45.16705" lon="5.42115">
        <ele>561</ele>
        <time>2018-02-04T23:06:32Z</time>
      </trkpt>
      <trkpt lat="45.16696" lon="5.42132">
        <ele>572</ele>
        <time>2018-02-04T23:07:32Z</time>
      </trkpt>
      <trkpt lat="45.16693" lon="5.42142">
        <ele>577</ele>
        <time>2018-02-04T23:08:32Z</time>
      </trkpt>
      <trkpt lat="45.16688" lon="5.42157">
        <ele>585</ele>
        <time>2018-02-04T23:09:32Z</time>
      </trkpt>
      <trkpt lat="45.16683" lon="5.42169">
        <ele>591</ele>
        <time>2018-02-04T23:10:32Z</time>
      </trkpt>
      <trkpt lat="45.1668" lon="5.42177">
        <ele>594</ele>
        <time>2018-02-04T23:11:32Z</time>
      </trkpt>
      <trkpt lat="45.16677" lon="5.42185">
        <ele>597</ele>
        <time>2018-02-04T23:12:32Z</time>
      </trkpt>
      <trkpt lat="45.1667" lon="5.42197">
        <ele>602</ele>
        <time>2018-02-04T23:13:32Z</time>
      </trkpt>
      <trkpt lat="45.16666" lon="5.42201">
        <ele>604</ele>
        <time>2018-02-04T23:14:32Z</time>
      </trkpt>
      <trkpt lat="45.16659" lon="5.4221">
        <ele>609</ele>
        <time>2018-02-04T23:15:32Z</time>
      </trkpt>
      <trkpt lat="45.16652" lon="5.42222">
        <ele>613</ele>
        <time>2018-02-04T23:16:32Z</time>
      </trkpt>
      <trkpt lat="45.16649" lon="5.42237">
        <ele>618</ele>
        <time>2018-02-04T23:17:32Z</time>
      </trkpt>
      <trkpt lat="45.16647" lon="5.42245">
        <ele>620</ele>
        <time>2018-02-04T23:18:32Z</time>
      </trkpt>
      <trkpt lat="45.16643" lon="5.42252">
        <ele>621</ele>
        <time>2018-02-04T23:19:32Z</time>
      </trkpt>
      <trkpt lat="45.16639" lon="5.42263">
        <ele>624</ele>
        <time>2018-02-04T23:20:32Z</time>
      </trkpt>
      <trkpt lat="45.16634" lon="5.42271">
        <ele>625</ele>
        <time>2018-02-04T23:21:32Z</time>
      </trkpt>
      <trkpt lat="45.16629" lon="5.42285">
        <ele>629</ele>
        <time>2018-02-04T23:22:32Z</time>
      </trkpt>
      <trkpt lat="45.16625" lon="5.42302">
        <ele>633</ele>
        <time>2018-02-04T23:23:32Z</time>
      </trkpt>
      <trkpt lat="45.16623" lon="5.42308">
        <ele>635</ele>
        <time>2018-02-04T23:24:32Z</time>
      </trkpt>
      <trkpt lat="45.16621" lon="5.42314">
        <ele>636</ele>
        <time>2018-02-04T23:25:32Z</time>
      </trkpt>
      <trkpt lat="45.1662" lon="5.42322">
        <ele>638</ele>
        <time>2018-02-04T23:26:32Z</time>
      </trkpt>
      <trkpt lat="45.1662" lon="5.42327">
        <ele>640</ele>
        <time>2018-02-04T23:27:32Z</time>
      </trkpt>
      <trkpt lat="45.16619" lon="5.42333">
        <ele>641</ele>
        <time>2018-02-04T23:28:32Z</time>
      </trkpt>
      <trkpt lat="45.16619" lon="5.42342">
        <ele>645</ele>
        <time>2018-02-04T23:29:32Z</time>
      </trkpt>
      <trkpt lat="45.16618" lon="5.42351">
        <ele>649</ele>
        <time>2018-02-04T23:30:32Z</time>
      </trkpt>
      <trkpt lat="45.16617" lon="5.42361">
        <ele>652</ele>
        <time>2018-02-04T23:31:32Z</time>
      </trkpt>
      <trkpt lat="45.16614" lon="5.42378">
        <ele>658</ele>
        <time>2018-02-04T23:32:32Z</time>
      </trkpt>
      <trkpt lat="45.16611" lon="5.42395">
        <ele>664</ele>
        <time>2018-02-04T23:33:32Z</time>
      </trkpt>
      <trkpt lat="45.16609" lon="5.42406">
        <ele>668</ele>
        <time>2018-02-04T23:34:32Z</time>
      </trkpt>
      <trkpt lat="45.16609" lon="5.42418">
        <ele>673</ele>
        <time>2018-02-04T23:35:32Z</time>
      </trkpt>
      <trkpt lat="45.16608" lon="5.4243">
        <ele>676</ele>
        <time>2018-02-04T23:36:32Z</time>
      </trkpt>
      <trkpt lat="45.16606" lon="5.42445">
        <ele>679</ele>
        <time>2018-02-04T23:37:32Z</time>
      </trkpt>
      <trkpt lat="45.16603" lon="5.42462">
        <ele>683</ele>
        <time>2018-02-04T23:38:32Z</time>
      </trkpt>
      <trkpt lat="45.16598" lon="5.4248">
        <ele>685</ele>
        <time>2018-02-04T23:39:32Z</time>
      </trkpt>
      <trkpt lat="45.16593" lon="5.42493">
        <ele>686</ele>
        <time>2018-02-04T23:40:32Z</time>
      </trkpt>
      <trkpt lat="45.16587" lon="5.42505">
        <ele>686</ele>
        <time>2018-02-04T23:41:32Z</time>
      </trkpt>
      <trkpt lat="45.16577" lon="5.42525">
        <ele>688</ele>
        <time>2018-02-04T23:42:32Z</time>
      </trkpt>
      <trkpt lat="45.16569" lon="5.42539">
        <ele>690</ele>
        <time>2018-02-04T23:43:32Z</time>
      </trkpt>
      <trkpt lat="45.16559" lon="5.4255">
        <ele>688</ele>
        <time>2018-02-04T23:44:32Z</time>
      </trkpt>
      <trkpt lat="45.1655" lon="5.4256">
        <ele>687</ele>
        <time>2018-02-04T23:45:32Z</time>
      </trkpt>
      <trkpt lat="45.16536" lon="5.42577">
        <ele>685</ele>
        <time>2018-02-04T23:46:32Z</time>
      </trkpt>
      <trkpt lat="45.1652" lon="5.42595">
        <ele>682</ele>
        <time>2018-02-04T23:47:32Z</time>
      </trkpt>
      <trkpt lat="45.16511" lon="5.42607">
        <ele>681</ele>
        <time>2018-02-04T23:48:32Z</time>
      </trkpt>
      <trkpt lat="45.16499" lon="5.42622">
        <ele>679</ele>
        <time>2018-02-04T23:49:32Z</time>
      </trkpt>
      <trkpt lat="45.16492" lon="5.42632">
        <ele>680</ele>
        <time>2018-02-04T23:50:32Z</time>
      </trkpt>
      <trkpt lat="45.16481" lon="5.4265">
        <ele>680</ele>
        <time>2018-02-04T23:51:32Z</time>
      </trkpt>
      <trkpt lat="45.16466" lon="5.42676">
        <ele>680</ele>
        <time>2018-02-04T23:52:32Z</time>
      </trkpt>
      <trkpt lat="45.16454" lon="5.42697">
        <ele>682</ele>
        <time>2018-02-04T23:53:32Z</time>
      </trkpt>
      <trkpt lat="45.16448" lon="5.42711">
        <ele>684</ele>
        <time>2018-02-04T23:54:32Z</time>
      </trkpt>
      <trkpt lat="45.16439" lon="5.42736">
        <ele>689</ele>
        <time>2018-02-04T23:55:32Z</time>
      </trkpt>
      <trkpt lat="45.16432" lon="5.42755">
        <ele>693</ele>
        <time>2018-02-04T23:56:32Z</time>
      </trkpt>
      <trkpt lat="45.16424" lon="5.42785">
        <ele>700</ele>
        <time>2018-02-04T23:57:32Z</time>
      </trkpt>
      <trkpt lat="45.1642" lon="5.42809">
        <ele>706</ele>
        <time>2018-02-04T23:58:32Z</time>
      </trkpt>
      <trkpt lat="45.16417" lon="5.42828">
        <ele>711</ele>
        <time>2018-02-04T23:59:32Z</time>
      </trkpt>
      <trkpt lat="45.16416" lon="5.42835">
        <ele>713</ele>
        <time>2018-02-05T00:00:32Z</time>
      </trkpt>
      <trkpt lat="45.16415" lon="5.42842">
        <ele>715</ele>
        <time>2018-02-05T00:01:32Z</time>
      </trkpt>
      <trkpt lat="45.16412" lon="5.4285">
        <ele>715</ele>
        <time>2018-02-05T00:02:32Z</time>
      </trkpt>
      <trkpt lat="45.16407" lon="5.42859">
        <ele>715</ele>
        <time>2018-02-05T00:03:32Z</time>
      </trkpt>
      <trkpt lat="45.16401" lon="5.4287">
        <ele>715</ele>
        <time>2018-02-05T00:04:32Z</time>
      </trkpt>
      <trkpt lat="45.16396" lon="5.42878">
        <ele>715</ele>
        <time>2018-02-05T00:05:32Z</time>
      </trkpt>
      <trkpt lat="45.1639" lon="5.42889">
        <ele>715</ele>
        <time>2018-02-05T00:06:32Z</time>
      </trkpt>
      <trkpt lat="45.16381" lon="5.4291">
        <ele>716</ele>
        <time>2018-02-05T00:07:32Z</time>
      </trkpt>
      <trkpt lat="45.16376" lon="5.42923">
        <ele>717</ele>
        <time>2018-02-05T00:08:32Z</time>
      </trkpt>
      <trkpt lat="45.16371" lon="5.42937">
        <ele>720</ele>
        <time>2018-02-05T00:09:32Z</time>
      </trkpt>
      <trkpt lat="45.16366" lon="5.42947">
        <ele>721</ele>
        <time>2018-02-05T00:10:32Z</time>
      </trkpt>
      <trkpt lat="45.1636" lon="5.4296">
        <ele>723</ele>
        <time>2018-02-05T00:11:32Z</time>
      </trkpt>
      <trkpt lat="45.16354" lon="5.42971">
        <ele>724</ele>
        <time>2018-02-05T00:12:32Z</time>
      </trkpt>
      <trkpt lat="45.16346" lon="5.42985">
        <ele>725</ele>
        <time>2018-02-05T00:13:32Z</time>
      </trkpt>
      <trkpt lat="45.16337" lon="5.42999">
        <ele>725</ele>
        <time>2018-02-05T00:14:32Z</time>
      </trkpt>
      <trkpt lat="45.16327" lon="5.43015">
        <ele>726</ele>
        <time>2018-02-05T00:15:32Z</time>
      </trkpt>
      <trkpt lat="45.16316" lon="5.43033">
        <ele>728</ele>
        <time>2018-02-05T00:16:32Z</time>
      </trkpt>
      <trkpt lat="45.16307" lon="5.43047">
        <ele>729</ele>
        <time>2018-02-05T00:17:32Z</time>
      </trkpt>
      <trkpt lat="45.16299" lon="5.43061">
        <ele>731</ele>
        <time>2018-02-05T00:18:32Z</time>
      </trkpt>
      <trkpt lat="45.16293" lon="5.43072">
        <ele>731</ele>
        <time>2018-02-05T00:19:32Z</time>
      </trkpt>
      <trkpt lat="45.16288" lon="5.43082">
        <ele>732</ele>
        <time>2018-02-05T00:20:32Z</time>
      </trkpt>
      <trkpt lat="45.16281" lon="5.43094">
        <ele>732</ele>
        <time>2018-02-05T00:21:32Z</time>
      </trkpt>
      <trkpt lat="45.16273" lon="5.43107">
        <ele>732</ele>
        <time>2018-02-05T00:22:32Z</time>
      </trkpt>
      <trkpt lat="45.1626" lon="5.43128">
        <ele>733</ele>
        <time>2018-02-05T00:23:32Z</time>
      </trkpt>
      <trkpt lat="45.16252" lon="5.43142">
        <ele>734</ele>
        <time>2018-02-05T00:24:32Z</time>
      </trkpt>
      <trkpt lat="45.16244" lon="5.43154">
        <ele>734</ele>
        <time>2018-02-05T00:25:32Z</time>
      </trkpt>
      <trkpt lat="45.16233" lon="5.43173">
        <ele>735</ele>
        <time>2018-02-05T00:26:32Z</time>
      </trkpt>
      <trkpt lat="45.16223" lon="5.43192">
        <ele>736</ele>
        <time>2018-02-05T00:27:32Z</time>
      </trkpt>
      <trkpt lat="45.16214" lon="5.43207">
        <ele>737</ele>
        <time>2018-02-05T00:28:32Z</time>
      </trkpt>
      <trkpt lat="45.16208" lon="5.43219">
        <ele>738</ele>
        <time>2018-02-05T00:29:32Z</time>
      </trkpt>
      <trkpt lat="45.16203" lon="5.43229">
        <ele>739</ele>
        <time>2018-02-05T00:30:32Z</time>
      </trkpt>
      <trkpt lat="45.16197" lon="5.43243">
        <ele>741</ele>
        <time>2018-02-05T00:31:32Z</time>
      </trkpt>
      <trkpt lat="45.16187" lon="5.43266">
        <ele>744</ele>
        <time>2018-02-05T00:32:32Z</time>
      </trkpt>
      <trkpt lat="45.16176" lon="5.43293">
        <ele>747</ele>
        <time>2018-02-05T00:33:32Z</time>
      </trkpt>
      <trkpt lat="45.16166" lon="5.43314">
        <ele>748</ele>
        <time>2018-02-05T00:34:32Z</time>
      </trkpt>
      <trkpt lat="45.16157" lon="5.43334">
        <ele>751</ele>
        <time>2018-02-05T00:35:32Z</time>
      </trkpt>
      <trkpt lat="45.16147" lon="5.4335">
        <ele>756</ele>
        <time>2018-02-05T00:36:32Z</time>
      </trkpt>
      <trkpt lat="45.16142" lon="5.43357">
        <ele>757</ele>
        <time>2018-02-05T00:37:32Z</time>
      </trkpt>
      <trkpt lat="45.16134" lon="5.43366">
        <ele>759</ele>
        <time>2018-02-05T00:38:32Z</time>
      </trkpt>
      <trkpt lat="45.16118" lon="5.43383">
        <ele>763</ele>
        <time>2018-02-05T00:39:32Z</time>
      </trkpt>
      <trkpt lat="45.16107" lon="5.43399">
        <ele>767</ele>
        <time>2018-02-05T00:40:32Z</time>
      </trkpt>
      <trkpt lat="45.16095" lon="5.43416">
        <ele>773</ele>
        <time>2018-02-05T00:41:32Z</time>
      </trkpt>
      <trkpt lat="45.16087" lon="5.43427">
        <ele>776</ele>
        <time>2018-02-05T00:42:32Z</time>
      </trkpt>
      <trkpt lat="45.16082" lon="5.43438">
        <ele>780</ele>
        <time>2018-02-05T00:43:32Z</time>
      </trkpt>
      <trkpt lat="45.16075" lon="5.43451">
        <ele>784</ele>
        <time>2018-02-05T00:44:32Z</time>
      </trkpt>
      <trkpt lat="45.16071" lon="5.43466">
        <ele>790</ele>
        <time>2018-02-05T00:45:32Z</time>
      </trkpt>
      <trkpt lat="45.16068" lon="5.43477">
        <ele>794</ele>
        <time>2018-02-05T00:46:32Z</time>
      </trkpt>
      <trkpt lat="45.16064" lon="5.43492">
        <ele>801</ele>
        <time>2018-02-05T00:47:32Z</time>
      </trkpt>
      <trkpt lat="45.16061" lon="5.43498">
        <ele>803</ele>
        <time>2018-02-05T00:48:32Z</time>
      </trkpt>
      <trkpt lat="45.16057" lon="5.43508">
        <ele>802</ele>
        <time>2018-02-05T00:49:32Z</time>
      </trkpt>
      <trkpt lat="45.16049" lon="5.43522">
        <ele>796</ele>
        <time>2018-02-05T00:50:32Z</time>
      </trkpt>
      <trkpt lat="45.16036" lon="5.4354">
        <ele>787</ele>
        <time>2018-02-05T00:51:32Z</time>
      </trkpt>
      <trkpt lat="45.1602" lon="5.43558">
        <ele>775</ele>
        <time>2018-02-05T00:52:32Z</time>
      </trkpt>
      <trkpt lat="45.15996" lon="5.43578">
        <ele>754</ele>
        <time>2018-02-05T00:53:32Z</time>
      </trkpt>
      <trkpt lat="45.15969" lon="5.43599">
        <ele>734</ele>
        <time>2018-02-05T00:54:32Z</time>
      </trkpt>
      <trkpt lat="45.15932" lon="5.43629">
        <ele>716</ele>
        <time>2018-02-05T00:55:32Z</time>
      </trkpt>
      <trkpt lat="45.15907" lon="5.43652">
        <ele>711</ele>
        <time>2018-02-05T00:56:32Z</time>
      </trkpt>
      <trkpt lat="45.15886" lon="5.43671">
        <ele>711</ele>
        <time>2018-02-05T00:57:32Z</time>
      </trkpt>
      <trkpt lat="45.15874" lon="5.43683">
        <ele>716</ele>
        <time>2018-02-05T00:58:32Z</time>
      </trkpt>
      <trkpt lat="45.15859" lon="5.43697">
        <ele>722</ele>
        <time>2018-02-05T00:59:32Z</time>
      </trkpt>
      <trkpt lat="45.15848" lon="5.43704">
        <ele>726</ele>
        <time>2018-02-05T01:00:32Z</time>
      </trkpt>
      <trkpt lat="45.15828" lon="5.43709">
        <ele>725</ele>
        <time>2018-02-05T01:01:32Z</time>
      </trkpt>
      <trkpt lat="45.15815" lon="5.43712">
        <ele>722</ele>
        <time>2018-02-05T01:02:32Z</time>
      </trkpt>
      <trkpt lat="45.15798" lon="5.43713">
        <ele>716</ele>
        <time>2018-02-05T01:03:32Z</time>
      </trkpt>
      <trkpt lat="45.15788" lon="5.43714">
        <ele>712</ele>
        <time>2018-02-05T01:04:32Z</time>
      </trkpt>
      <trkpt lat="45.1578" lon="5.43715">
        <ele>708</ele>
        <time>2018-02-05T01:05:32Z</time>
      </trkpt>
      <trkpt lat="45.15772" lon="5.43714">
        <ele>704</ele>
        <time>2018-02-05T01:06:32Z</time>
      </trkpt>
      <trkpt lat="45.15765" lon="5.43714">
        <ele>701</ele>
        <time>2018-02-05T01:07:32Z</time>
      </trkpt>
      <trkpt lat="45.15761" lon="5.43713">
        <ele>699</ele>
        <time>2018-02-05T01:08:32Z</time>
      </trkpt>
      <trkpt lat="45.15746" lon="5.43707">
        <ele>694</ele>
        <time>2018-02-05T01:09:32Z</time>
      </trkpt>
      <trkpt lat="45.15737" lon="5.43702">
        <ele>695</ele>
        <time>2018-02-05T01:10:32Z</time>
      </trkpt>
      <trkpt lat="45.15728" lon="5.437">
        <ele>697</ele>
        <time>2018-02-05T01:11:32Z</time>
      </trkpt>
      <trkpt lat="45.15708" lon="5.43701">
        <ele>700</ele>
        <time>2018-02-05T01:12:32Z</time>
      </trkpt>
      <trkpt lat="45.15701" lon="5.437">
        <ele>701</ele>
        <time>2018-02-05T01:13:32Z</time>
      </trkpt>
      <trkpt lat="45.15692" lon="5.43694">
        <ele>703</ele>
        <time>2018-02-05T01:14:32Z</time>
      </trkpt>
      <trkpt lat="45.15682" lon="5.43689">
        <ele>705</ele>
        <time>2018-02-05T01:15:32Z</time>
      </trkpt>
      <trkpt lat="45.15672" lon="5.43686">
        <ele>707</ele>
        <time>2018-02-05T01:16:32Z</time>
      </trkpt>
      <trkpt lat="45.15652" lon="5.43687">
        <ele>701</ele>
        <time>2018-02-05T01:17:32Z</time>
      </trkpt>
      <trkpt lat="45.15645" lon="5.43686">
        <ele>698</ele>
        <time>2018-02-05T01:18:32Z</time>
      </trkpt>
      <trkpt lat="45.15638" lon="5.43688">
        <ele>695</ele>
        <time>2018-02-05T01:19:32Z</time>
      </trkpt>
      <trkpt lat="45.15633" lon="5.43689">
        <ele>692</ele>
        <time>2018-02-05T01:20:32Z</time>
      </trkpt>
      <trkpt lat="45.15629" lon="5.43692">
        <ele>690</ele>
        <time>2018-02-05T01:21:32Z</time>
      </trkpt>
      <trkpt lat="45.15626" lon="5.43696">
        <ele>689</ele>
        <time>2018-02-05T01:22:32Z</time>
      </trkpt>
      <trkpt lat="45.15625" lon="5.43701">
        <ele>688</ele>
        <time>2018-02-05T01:23:32Z</time>
      </trkpt>
      <trkpt lat="45.15625" lon="5.43708">
        <ele>688</ele>
        <time>2018-02-05T01:24:32Z</time>
      </trkpt>
      <trkpt lat="45.15626" lon="5.43724">
        <ele>688</ele>
        <time>2018-02-05T01:25:32Z</time>
      </trkpt>
      <trkpt lat="45.15626" lon="5.43757">
        <ele>687</ele>
        <time>2018-02-05T01:26:32Z</time>
      </trkpt>
      <trkpt lat="45.15629" lon="5.43805">
        <ele>687</ele>
        <time>2018-02-05T01:27:32Z</time>
      </trkpt>
      <trkpt lat="45.15632" lon="5.43837">
        <ele>687</ele>
        <time>2018-02-05T01:28:32Z</time>
      </trkpt>
      <trkpt lat="45.15634" lon="5.43847">
        <ele>687</ele>
        <time>2018-02-05T01:29:32Z</time>
      </trkpt>
      <trkpt lat="45.15637" lon="5.43857">
        <ele>687</ele>
        <time>2018-02-05T01:30:32Z</time>
      </trkpt>
      <trkpt lat="45.15639" lon="5.4387">
        <ele>687</ele>
        <time>2018-02-05T01:31:32Z</time>
      </trkpt>
      <trkpt lat="45.15639" lon="5.43883">
        <ele>686</ele>
        <time>2018-02-05T01:32:32Z</time>
      </trkpt>
      <trkpt lat="45.15638" lon="5.439">
        <ele>686</ele>
        <time>2018-02-05T01:33:32Z</time>
      </trkpt>
      <trkpt lat="45.15637" lon="5.43911">
        <ele>685</ele>
        <time>2018-02-05T01:34:32Z</time>
      </trkpt>
      <trkpt lat="45.15637" lon="5.43917">
        <ele>685</ele>
        <time>2018-02-05T01:35:32Z</time>
      </trkpt>
      <trkpt lat="45.15638" lon="5.43922">
        <ele>685</ele>
        <time>2018-02-05T01:36:32Z</time>
      </trkpt>
      <trkpt lat="45.1564" lon="5.43925">
        <ele>685</ele>
        <time>2018-02-05T01:37:32Z</time>
      </trkpt>
      <trkpt lat="45.15642" lon="5.43929">
        <ele>685</ele>
        <time>2018-02-05T01:38:32Z</time>
      </trkpt>
      <trkpt lat="45.15645" lon="5.43933">
        <ele>685</ele>
        <time>2018-02-05T01:39:32Z</time>
      </trkpt>
      <trkpt lat="45.15651" lon="5.4394">
        <ele>686</ele>
        <time>2018-02-05T01:40:32Z</time>
      </trkpt>
      <trkpt lat="45.15654" lon="5.43943">
        <ele>686</ele>
        <time>2018-02-05T01:41:32Z</time>
      </trkpt>
      <trkpt lat="45.15657" lon="5.43947">
        <ele>686</ele>
        <time>2018-02-05T01:42:32Z</time>
      </trkpt>
      <trkpt lat="45.1566" lon="5.43952">
        <ele>686</ele>
        <time>2018-02-05T01:43:32Z</time>
      </trkpt>
      <trkpt lat="45.15662" lon="5.43958">
        <ele>686</ele>
        <time>2018-02-05T01:44:32Z</time>
      </trkpt>
      <trkpt lat="45.15662" lon="5.43962">
        <ele>686</ele>
        <time>2018-02-05T01:45:32Z</time>
      </trkpt>
      <trkpt lat="45.15663" lon="5.43965">
        <ele>685</ele>
        <time>2018-02-05T01:46:32Z</time>
      </trkpt>
      <trkpt lat="45.15662" lon="5.43969">
        <ele>685</ele>
        <time>2018-02-05T01:47:32Z</time>
      </trkpt>
      <trkpt lat="45.15661" lon="5.43971">
        <ele>685</ele>
        <time>2018-02-05T01:48:32Z</time>
      </trkpt>
      <trkpt lat="45.15659" lon="5.43976">
        <ele>685</ele>
        <time>2018-02-05T01:49:32Z</time>
      </trkpt>
      <trkpt lat="45.15655" lon="5.43987">
        <ele>686</ele>
        <time>2018-02-05T01:50:32Z</time>
      </trkpt>
      <trkpt lat="45.15646" lon="5.44006">
        <ele>688</ele>
        <time>2018-02-05T01:51:32Z</time>
      </trkpt>
      <trkpt lat="45.15633" lon="5.44035">
        <ele>695</ele>
        <time>2018-02-05T01:52:32Z</time>
      </trkpt>
      <trkpt lat="45.15621" lon="5.44062">
        <ele>702</ele>
        <time>2018-02-05T01:53:32Z</time>
      </trkpt>
      <trkpt lat="45.15613" lon="5.44083">
        <ele>707</ele>
        <time>2018-02-05T01:54:32Z</time>
      </trkpt>
      <trkpt lat="45.15611" lon="5.44092">
        <ele>707</ele>
        <time>2018-02-05T01:55:32Z</time>
      </trkpt>
      <trkpt lat="45.15611" lon="5.44099">
        <ele>708</ele>
        <time>2018-02-05T01:56:32Z</time>
      </trkpt>
      <trkpt lat="45.15612" lon="5.44104">
        <ele>708</ele>
        <time>2018-02-05T01:57:32Z</time>
      </trkpt>
      <trkpt lat="45.15613" lon="5.44108">
        <ele>709</ele>
        <time>2018-02-05T01:58:32Z</time>
      </trkpt>
      <trkpt lat="45.15616" lon="5.44114">
        <ele>709</ele>
        <time>2018-02-05T01:59:32Z</time>
      </trkpt>
      <trkpt lat="45.15622" lon="5.44121">
        <ele>710</ele>
        <time>2018-02-05T02:00:32Z</time>
      </trkpt>
      <trkpt lat="45.15631" lon="5.44126">
        <ele>710</ele>
        <time>2018-02-05T02:01:32Z</time>
      </trkpt>
      <trkpt lat="45.15645" lon="5.44137">
        <ele>710</ele>
        <time>2018-02-05T02:02:32Z</time>
      </trkpt>
      <trkpt lat="45.15648" lon="5.44142">
        <ele>711</ele>
        <time>2018-02-05T02:03:32Z</time>
      </trkpt>
      <trkpt lat="45.15651" lon="5.44148">
        <ele>711</ele>
        <time>2018-02-05T02:04:32Z</time>
      </trkpt>
      <trkpt lat="45.15654" lon="5.44156">
        <ele>711</ele>
        <time>2018-02-05T02:05:32Z</time>
      </trkpt>
      <trkpt lat="45.15655" lon="5.44163">
        <ele>711</ele>
        <time>2018-02-05T02:06:32Z</time>
      </trkpt>
      <trkpt lat="45.15658" lon="5.44176">
        <ele>712</ele>
        <time>2018-02-05T02:07:32Z</time>
      </trkpt>
      <trkpt lat="45.15658" lon="5.44185">
        <ele>713</ele>
        <time>2018-02-05T02:08:32Z</time>
      </trkpt>
      <trkpt lat="45.15658" lon="5.4419">
        <ele>713</ele>
        <time>2018-02-05T02:09:32Z</time>
      </trkpt>
      <trkpt lat="45.15656" lon="5.44197">
        <ele>714</ele>
        <time>2018-02-05T02:10:32Z</time>
      </trkpt>
      <trkpt lat="45.15654" lon="5.44201">
        <ele>714</ele>
        <time>2018-02-05T02:11:32Z</time>
      </trkpt>
      <trkpt lat="45.1565" lon="5.44204">
        <ele>714</ele>
        <time>2018-02-05T02:12:32Z</time>
      </trkpt>
      <trkpt lat="45.15644" lon="5.44206">
        <ele>714</ele>
        <time>2018-02-05T02:13:32Z</time>
      </trkpt>
      <trkpt lat="45.15638" lon="5.44205">
        <ele>714</ele>
        <time>2018-02-05T02:14:32Z</time>
      </trkpt>
      <trkpt lat="45.1563" lon="5.44202">
        <ele>714</ele>
        <time>2018-02-05T02:15:32Z</time>
      </trkpt>
      <trkpt lat="45.15622" lon="5.44193">
        <ele>714</ele>
        <time>2018-02-05T02:16:32Z</time>
      </trkpt>
      <trkpt lat="45.15609" lon="5.44178">
        <ele>714</ele>
        <time>2018-02-05T02:17:32Z</time>
      </trkpt>
      <trkpt lat="45.15593" lon="5.44157">
        <ele>714</ele>
        <time>2018-02-05T02:18:32Z</time>
      </trkpt>
      <trkpt lat="45.15585" lon="5.44145">
        <ele>713</ele>
        <time>2018-02-05T02:19:32Z</time>
      </trkpt>
      <trkpt lat="45.15579" lon="5.44135">
        <ele>714</ele>
        <time>2018-02-05T02:20:32Z</time>
      </trkpt>
      <trkpt lat="45.15575" lon="5.44122">
        <ele>715</ele>
        <time>2018-02-05T02:21:32Z</time>
      </trkpt>
      <trkpt lat="45.15572" lon="5.4411">
        <ele>715</ele>
        <time>2018-02-05T02:22:32Z</time>
      </trkpt>
      <trkpt lat="45.1557" lon="5.44097">
        <ele>714</ele>
        <time>2018-02-05T02:23:32Z</time>
      </trkpt>
      <trkpt lat="45.15571" lon="5.44069">
        <ele>709</ele>
        <time>2018-02-05T02:24:32Z</time>
      </trkpt>
      <trkpt lat="45.15571" lon="5.44061">
        <ele>708</ele>
        <time>2018-02-05T02:25:32Z</time>
      </trkpt>
      <trkpt lat="45.15571" lon="5.44056">
        <ele>707</ele>
        <time>2018-02-05T02:26:32Z</time>
      </trkpt>
      <trkpt lat="45.1557" lon="5.44049">
        <ele>706</ele>
        <time>2018-02-05T02:27:32Z</time>
      </trkpt>
      <trkpt lat="45.15569" lon="5.44044">
        <ele>706</ele>
        <time>2018-02-05T02:28:32Z</time>
      </trkpt>
      <trkpt lat="45.15566" lon="5.44039">
        <ele>707</ele>
        <time>2018-02-05T02:29:32Z</time>
      </trkpt>
      <trkpt lat="45.15563" lon="5.44035">
        <ele>708</ele>
        <time>2018-02-05T02:30:32Z</time>
      </trkpt>
      <trkpt lat="45.15559" lon="5.44032">
        <ele>709</ele>
        <time>2018-02-05T02:31:32Z</time>
      </trkpt>
      <trkpt lat="45.15553" lon="5.44031">
        <ele>712</ele>
        <time>2018-02-05T02:32:32Z</time>
      </trkpt>
      <trkpt lat="45.15543" lon="5.44032">
        <ele>718</ele>
        <time>2018-02-05T02:33:32Z</time>
      </trkpt>
      <trkpt lat="45.15528" lon="5.44036">
        <ele>727</ele>
        <time>2018-02-05T02:34:32Z</time>
      </trkpt>
      <trkpt lat="45.15519" lon="5.44039">
        <ele>733</ele>
        <time>2018-02-05T02:35:32Z</time>
      </trkpt>
      <trkpt lat="45.15508" lon="5.44041">
        <ele>739</ele>
        <time>2018-02-05T02:36:32Z</time>
      </trkpt>
      <trkpt lat="45.15501" lon="5.44041">
        <ele>743</ele>
        <time>2018-02-05T02:37:32Z</time>
      </trkpt>
      <trkpt lat="45.15499" lon="5.4404">
        <ele>744</ele>
        <time>2018-02-05T02:38:32Z</time>
      </trkpt>
      <trkpt lat="45.15497" lon="5.44039">
        <ele>744</ele>
        <time>2018-02-05T02:39:32Z</time>
      </trkpt>
      <trkpt lat="45.15495" lon="5.44035">
        <ele>745</ele>
        <time>2018-02-05T02:40:32Z</time>
      </trkpt>
      <trkpt lat="45.15494" lon="5.44032">
        <ele>745</ele>
        <time>2018-02-05T02:41:32Z</time>
      </trkpt>
      <trkpt lat="45.15492" lon="5.44028">
        <ele>745</ele>
        <time>2018-02-05T02:42:32Z</time>
      </trkpt>
      <trkpt lat="45.15492" lon="5.44024">
        <ele>745</ele>
        <time>2018-02-05T02:43:32Z</time>
      </trkpt>
      <trkpt lat="45.15491" lon="5.44014">
        <ele>744</ele>
        <time>2018-02-05T02:44:32Z</time>
      </trkpt>
      <trkpt lat="45.15492" lon="5.44006">
        <ele>743</ele>
        <time>2018-02-05T02:45:32Z</time>
      </trkpt>
      <trkpt lat="45.15493" lon="5.43998">
        <ele>742</ele>
        <time>2018-02-05T02:46:32Z</time>
      </trkpt>
      <trkpt lat="45.15496" lon="5.43989">
        <ele>740</ele>
        <time>2018-02-05T02:47:32Z</time>
      </trkpt>
      <trkpt lat="45.15499" lon="5.43977">
        <ele>738</ele>
        <time>2018-02-05T02:48:32Z</time>
      </trkpt>
      <trkpt lat="45.15505" lon="5.43968">
        <ele>734</ele>
        <time>2018-02-05T02:49:32Z</time>
      </trkpt>
      <trkpt lat="45.15509" lon="5.43962">
        <ele>731</ele>
        <time>2018-02-05T02:50:32Z</time>
      </trkpt>
      <trkpt lat="45.15515" lon="5.43957">
        <ele>727</ele>
        <time>2018-02-05T02:51:32Z</time>
      </trkpt>
      <trkpt lat="45.15521" lon="5.43951">
        <ele>723</ele>
        <time>2018-02-05T02:52:32Z</time>
      </trkpt>
      <trkpt lat="45.15524" lon="5.43947">
        <ele>721</ele>
        <time>2018-02-05T02:53:32Z</time>
      </trkpt>
      <trkpt lat="45.15526" lon="5.43943">
        <ele>720</ele>
        <time>2018-02-05T02:54:32Z</time>
      </trkpt>
      <trkpt lat="45.15527" lon="5.4394">
        <ele>719</ele>
        <time>2018-02-05T02:55:32Z</time>
      </trkpt>
      <trkpt lat="45.15527" lon="5.43938">
        <ele>719</ele>
        <time>2018-02-05T02:56:32Z</time>
      </trkpt>
      <trkpt lat="45.15527" lon="5.43935">
        <ele>719</ele>
        <time>2018-02-05T02:57:32Z</time>
      </trkpt>
      <trkpt lat="45.15526" lon="5.43933">
        <ele>719</ele>
        <time>2018-02-05T02:58:32Z</time>
      </trkpt>
      <trkpt lat="45.15526" lon="5.43931">
        <ele>719</ele>
        <time>2018-02-05T02:59:32Z</time>
      </trkpt>
      <trkpt lat="45.15525" lon="5.43928">
        <ele>719</ele>
        <time>2018-02-05T03:00:32Z</time>
      </trkpt>
      <trkpt lat="45.15523" lon="5.43925">
        <ele>720</ele>
        <time>2018-02-05T03:01:32Z</time>
      </trkpt>
      <trkpt lat="45.15521" lon="5.43922">
        <ele>721</ele>
        <time>2018-02-05T03:02:32Z</time>
      </trkpt>
      <trkpt lat="45.15519" lon="5.43919">
        <ele>723</ele>
        <time>2018-02-05T03:03:32Z</time>
      </trkpt>
      <trkpt lat="45.15513" lon="5.43911">
        <ele>725</ele>
        <time>2018-02-05T03:04:32Z</time>
      </trkpt>
      <trkpt lat="45.15488" lon="5.43882">
        <ele>733</ele>
        <time>2018-02-05T03:05:32Z</time>
      </trkpt>
      <trkpt lat="45.15476" lon="5.43868">
        <ele>736</ele>
        <time>2018-02-05T03:06:32Z</time>
      </trkpt>
      <trkpt lat="45.15471" lon="5.43861">
        <ele>738</ele>
        <time>2018-02-05T03:07:32Z</time>
      </trkpt>
      <trkpt lat="45.15468" lon="5.43856">
        <ele>738</ele>
        <time>2018-02-05T03:08:32Z</time>
      </trkpt>
      <trkpt lat="45.15465" lon="5.43851">
        <ele>739</ele>
        <time>2018-02-05T03:09:32Z</time>
      </trkpt>
      <trkpt lat="45.1546" lon="5.43843">
        <ele>740</ele>
        <time>2018-02-05T03:10:32Z</time>
      </trkpt>
      <trkpt lat="45.15453" lon="5.4383">
        <ele>741</ele>
        <time>2018-02-05T03:11:32Z</time>
      </trkpt>
      <trkpt lat="45.15446" lon="5.43819">
        <ele>742</ele>
        <time>2018-02-05T03:12:32Z</time>
      </trkpt>
      <trkpt lat="45.15433" lon="5.43796">
        <ele>742</ele>
        <time>2018-02-05T03:13:32Z</time>
      </trkpt>
      <trkpt lat="45.15428" lon="5.43784">
        <ele>741</ele>
        <time>2018-02-05T03:14:32Z</time>
      </trkpt>
      <trkpt lat="45.15425" lon="5.43779">
        <ele>740</ele>
        <time>2018-02-05T03:15:32Z</time>
      </trkpt>
      <trkpt lat="45.15421" lon="5.43767">
        <ele>738</ele>
        <time>2018-02-05T03:16:32Z</time>
      </trkpt>
      <trkpt lat="45.15419" lon="5.4376">
        <ele>737</ele>
        <time>2018-02-05T03:17:32Z</time>
      </trkpt>
      <trkpt lat="45.15417" lon="5.43753">
        <ele>735</ele>
        <time>2018-02-05T03:18:32Z</time>
      </trkpt>
      <trkpt lat="45.15414" lon="5.43748">
        <ele>735</ele>
        <time>2018-02-05T03:19:32Z</time>
      </trkpt>
      <trkpt lat="45.15411" lon="5.43741">
        <ele>734</ele>
        <time>2018-02-05T03:20:32Z</time>
      </trkpt>
      <trkpt lat="45.15406" lon="5.43734">
        <ele>735</ele>
        <time>2018-02-05T03:21:32Z</time>
      </trkpt>
      <trkpt lat="45.15399" lon="5.43725">
        <ele>735</ele>
        <time>2018-02-05T03:22:32Z</time>
      </trkpt>
      <trkpt lat="45.15388" lon="5.43713">
        <ele>736</ele>
        <time>2018-02-05T03:23:32Z</time>
      </trkpt>
      <trkpt lat="45.15382" lon="5.43706">
        <ele>737</ele>
        <time>2018-02-05T03:24:32Z</time>
      </trkpt>
      <trkpt lat="45.15373" lon="5.43695">
        <ele>737</ele>
        <time>2018-02-05T03:25:32Z</time>
      </trkpt>
      <trkpt lat="45.15366" lon="5.43687">
        <ele>737</ele>
        <time>2018-02-05T03:26:32Z</time>
      </trkpt>
      <trkpt lat="45.15345" lon="5.43671">
        <ele>739</ele>
        <time>2018-02-05T03:27:32Z</time>
      </trkpt>
      <trkpt lat="45.1534" lon="5.43667">
        <ele>739</ele>
        <time>2018-02-05T03:28:32Z</time>
      </trkpt>
      <trkpt lat="45.15335" lon="5.43663">
        <ele>741</ele>
        <time>2018-02-05T03:29:32Z</time>
      </trkpt>
      <trkpt lat="45.15332" lon="5.4366">
        <ele>742</ele>
        <time>2018-02-05T03:30:32Z</time>
      </trkpt>
      <trkpt lat="45.15329" lon="5.43657">
        <ele>742</ele>
        <time>2018-02-05T03:31:32Z</time>
      </trkpt>
      <trkpt lat="45.15326" lon="5.43653">
        <ele>743</ele>
        <time>2018-02-05T03:32:32Z</time>
      </trkpt>
      <trkpt lat="45.15326" lon="5.43652">
        <ele>743</ele>
        <time>2018-02-05T03:33:32Z</time>
      </trkpt>
      <trkpt lat="45.15323" lon="5.43648">
        <ele>744</ele>
        <time>2018-02-05T03:34:32Z</time>
      </trkpt>
      <trkpt lat="45.1532" lon="5.43643">
        <ele>745</ele>
        <time>2018-02-05T03:35:32Z</time>
      </trkpt>
      <trkpt lat="45.15313" lon="5.43629">
        <ele>747</ele>
        <time>2018-02-05T03:36:32Z</time>
      </trkpt>
      <trkpt lat="45.15303" lon="5.43608">
        <ele>750</ele>
        <time>2018-02-05T03:37:32Z</time>
      </trkpt>
      <trkpt lat="45.15289" lon="5.43578">
        <ele>753</ele>
        <time>2018-02-05T03:38:32Z</time>
      </trkpt>
      <trkpt lat="45.15283" lon="5.43564">
        <ele>755</ele>
        <time>2018-02-05T03:39:32Z</time>
      </trkpt>
      <trkpt lat="45.1528" lon="5.43555">
        <ele>757</ele>
        <time>2018-02-05T03:40:32Z</time>
      </trkpt>
      <trkpt lat="45.1528" lon="5.43547">
        <ele>757</ele>
        <time>2018-02-05T03:41:32Z</time>
      </trkpt>
      <trkpt lat="45.1528" lon="5.43542">
        <ele>758</ele>
        <time>2018-02-05T03:42:32Z</time>
      </trkpt>
      <trkpt lat="45.15281" lon="5.43535">
        <ele>758</ele>
        <time>2018-02-05T03:43:32Z</time>
      </trkpt>
      <trkpt lat="45.15282" lon="5.43532">
        <ele>758</ele>
        <time>2018-02-05T03:44:32Z</time>
      </trkpt>
      <trkpt lat="45.15286" lon="5.43528">
        <ele>757</ele>
        <time>2018-02-05T03:45:32Z</time>
      </trkpt>
      <trkpt lat="45.15289" lon="5.43524">
        <ele>757</ele>
        <time>2018-02-05T03:46:32Z</time>
      </trkpt>
      <trkpt lat="45.15293" lon="5.4352">
        <ele>756</ele>
        <time>2018-02-05T03:47:32Z</time>
      </trkpt>
      <trkpt lat="45.15296" lon="5.43518">
        <ele>755</ele>
        <time>2018-02-05T03:48:32Z</time>
      </trkpt>
      <trkpt lat="45.15301" lon="5.43514">
        <ele>754</ele>
        <time>2018-02-05T03:49:32Z</time>
      </trkpt>
      <trkpt lat="45.15308" lon="5.43509">
        <ele>753</ele>
        <time>2018-02-05T03:50:32Z</time>
      </trkpt>
      <trkpt lat="45.15314" lon="5.43504">
        <ele>751</ele>
        <time>2018-02-05T03:51:32Z</time>
      </trkpt>
      <trkpt lat="45.15319" lon="5.435">
        <ele>750</ele>
        <time>2018-02-05T03:52:32Z</time>
      </trkpt>
      <trkpt lat="45.15322" lon="5.43496">
        <ele>750</ele>
        <time>2018-02-05T03:53:32Z</time>
      </trkpt>
      <trkpt lat="45.15326" lon="5.43489">
        <ele>749</ele>
        <time>2018-02-05T03:54:32Z</time>
      </trkpt>
      <trkpt lat="45.15327" lon="5.43485">
        <ele>750</ele>
        <time>2018-02-05T03:55:32Z</time>
      </trkpt>
      <trkpt lat="45.15327" lon="5.43481">
        <ele>750</ele>
        <time>2018-02-05T03:56:32Z</time>
      </trkpt>
      <trkpt lat="45.15326" lon="5.43475">
        <ele>751</ele>
        <time>2018-02-05T03:57:32Z</time>
      </trkpt>
      <trkpt lat="45.15324" lon="5.43473">
        <ele>752</ele>
        <time>2018-02-05T03:58:32Z</time>
      </trkpt>
      <trkpt lat="45.15322" lon="5.43471">
        <ele>753</ele>
        <time>2018-02-05T03:59:32Z</time>
      </trkpt>
      <trkpt lat="45.15319" lon="5.43469">
        <ele>754</ele>
        <time>2018-02-05T04:00:32Z</time>
      </trkpt>
      <trkpt lat="45.15317" lon="5.43468">
        <ele>755</ele>
        <time>2018-02-05T04:01:32Z</time>
      </trkpt>
      <trkpt lat="45.15316" lon="5.43468">
        <ele>755</ele>
        <time>2018-02-05T04:02:32Z</time>
      </trkpt>
      <trkpt lat="45.15313" lon="5.43469">
        <ele>756</ele>
        <time>2018-02-05T04:03:32Z</time>
      </trkpt>
      <trkpt lat="45.15306" lon="5.43472">
        <ele>758</ele>
        <time>2018-02-05T04:04:32Z</time>
      </trkpt>
      <trkpt lat="45.15299" lon="5.43477">
        <ele>759</ele>
        <time>2018-02-05T04:05:32Z</time>
      </trkpt>
      <trkpt lat="45.15294" lon="5.43481">
        <ele>760</ele>
        <time>2018-02-05T04:06:32Z</time>
      </trkpt>
      <trkpt lat="45.15287" lon="5.43487">
        <ele>761</ele>
        <time>2018-02-05T04:07:32Z</time>
      </trkpt>
      <trkpt lat="45.15279" lon="5.43491">
        <ele>763</ele>
        <time>2018-02-05T04:08:32Z</time>
      </trkpt>
      <trkpt lat="45.1527" lon="5.43494">
        <ele>765</ele>
        <time>2018-02-05T04:09:32Z</time>
      </trkpt>
      <trkpt lat="45.15262" lon="5.43496">
        <ele>767</ele>
        <time>2018-02-05T04:10:32Z</time>
      </trkpt>
      <trkpt lat="45.15255" lon="5.43498">
        <ele>768</ele>
        <time>2018-02-05T04:11:32Z</time>
      </trkpt>
      <trkpt lat="45.15247" lon="5.43502">
        <ele>769</ele>
        <time>2018-02-05T04:12:32Z</time>
      </trkpt>
      <trkpt lat="45.15243" lon="5.43508">
        <ele>770</ele>
        <time>2018-02-05T04:13:32Z</time>
      </trkpt>
      <trkpt lat="45.1524" lon="5.43512">
        <ele>770</ele>
        <time>2018-02-05T04:14:32Z</time>
      </trkpt>
      <trkpt lat="45.15239" lon="5.43518">
        <ele>770</ele>
        <time>2018-02-05T04:15:32Z</time>
      </trkpt>
      <trkpt lat="45.15238" lon="5.43523">
        <ele>770</ele>
        <time>2018-02-05T04:16:32Z</time>
      </trkpt>
      <trkpt lat="45.15237" lon="5.43535">
        <ele>769</ele>
        <time>2018-02-05T04:17:32Z</time>
      </trkpt>
      <trkpt lat="45.15238" lon="5.43546">
        <ele>768</ele>
        <time>2018-02-05T04:18:32Z</time>
      </trkpt>
      <trkpt lat="45.15238" lon="5.43555">
        <ele>768</ele>
        <time>2018-02-05T04:19:32Z</time>
      </trkpt>
      <trkpt lat="45.15237" lon="5.43562">
        <ele>767</ele>
        <time>2018-02-05T04:20:32Z</time>
      </trkpt>
      <trkpt lat="45.15236" lon="5.43576">
        <ele>767</ele>
        <time>2018-02-05T04:21:32Z</time>
      </trkpt>
      <trkpt lat="45.15235" lon="5.43586">
        <ele>767</ele>
        <time>2018-02-05T04:22:32Z</time>
      </trkpt>
      <trkpt lat="45.15233" lon="5.43595">
        <ele>768</ele>
        <time>2018-02-05T04:23:32Z</time>
      </trkpt>
      <trkpt lat="45.15233" lon="5.43608">
        <ele>769</ele>
        <time>2018-02-05T04:24:32Z</time>
      </trkpt>
      <trkpt lat="45.15234" lon="5.43619">
        <ele>769</ele>
        <time>2018-02-05T04:25:32Z</time>
      </trkpt>
      <trkpt lat="45.15235" lon="5.43631">
        <ele>769</ele>
        <time>2018-02-05T04:26:32Z</time>
      </trkpt>
      <trkpt lat="45.15239" lon="5.4366">
        <ele>769</ele>
        <time>2018-02-05T04:27:32Z</time>
      </trkpt>
      <trkpt lat="45.15242" lon="5.43677">
        <ele>771</ele>
        <time>2018-02-05T04:28:32Z</time>
      </trkpt>
      <trkpt lat="45.15246" lon="5.4369">
        <ele>772</ele>
        <time>2018-02-05T04:29:32Z</time>
      </trkpt>
      <trkpt lat="45.15249" lon="5.43698">
        <ele>773</ele>
        <time>2018-02-05T04:30:32Z</time>
      </trkpt>
      <trkpt lat="45.15253" lon="5.43703">
        <ele>773</ele>
        <time>2018-02-05T04:31:32Z</time>
      </trkpt>
      <trkpt lat="45.15258" lon="5.43709">
        <ele>773</ele>
        <time>2018-02-05T04:32:32Z</time>
      </trkpt>
      <trkpt lat="45.15266" lon="5.43715">
        <ele>772</ele>
        <time>2018-02-05T04:33:32Z</time>
      </trkpt>
      <trkpt lat="45.15273" lon="5.43719">
        <ele>771</ele>
        <time>2018-02-05T04:34:32Z</time>
      </trkpt>
      <trkpt lat="45.15277" lon="5.43721">
        <ele>770</ele>
        <time>2018-02-05T04:35:32Z</time>
      </trkpt>
      <trkpt lat="45.15284" lon="5.43726">
        <ele>769</ele>
        <time>2018-02-05T04:36:32Z</time>
      </trkpt>
      <trkpt lat="45.1529" lon="5.43733">
        <ele>769</ele>
        <time>2018-02-05T04:37:32Z</time>
      </trkpt>
      <trkpt lat="45.15294" lon="5.43738">
        <ele>769</ele>
        <time>2018-02-05T04:38:32Z</time>
      </trkpt>
      <trkpt lat="45.15303" lon="5.43749">
        <ele>769</ele>
        <time>2018-02-05T04:39:32Z</time>
      </trkpt>
      <trkpt lat="45.15313" lon="5.43764">
        <ele>770</ele>
        <time>2018-02-05T04:40:32Z</time>
      </trkpt>
      <trkpt lat="45.15323" lon="5.43784">
        <ele>771</ele>
        <time>2018-02-05T04:41:32Z</time>
      </trkpt>
      <trkpt lat="45.15327" lon="5.43792">
        <ele>771</ele>
        <time>2018-02-05T04:42:32Z</time>
      </trkpt>
      <trkpt lat="45.1533" lon="5.43802">
        <ele>772</ele>
        <time>2018-02-05T04:43:32Z</time>
      </trkpt>
      <trkpt lat="45.15332" lon="5.43814">
        <ele>774</ele>
        <time>2018-02-05T04:44:32Z</time>
      </trkpt>
      <trkpt lat="45.15333" lon="5.43833">
        <ele>777</ele>
        <time>2018-02-05T04:45:32Z</time>
      </trkpt>
      <trkpt lat="45.15333" lon="5.43847">
        <ele>781</ele>
        <time>2018-02-05T04:46:32Z</time>
      </trkpt>
      <trkpt lat="45.15336" lon="5.43863">
        <ele>784</ele>
        <time>2018-02-05T04:47:32Z</time>
      </trkpt>
      <trkpt lat="45.1534" lon="5.43875">
        <ele>787</ele>
        <time>2018-02-05T04:48:32Z</time>
      </trkpt>
      <trkpt lat="45.15343" lon="5.43883">
        <ele>788</ele>
        <time>2018-02-05T04:49:32Z</time>
      </trkpt>
      <trkpt lat="45.15346" lon="5.43889">
        <ele>789</ele>
        <time>2018-02-05T04:50:32Z</time>
      </trkpt>
      <trkpt lat="45.15348" lon="5.43894">
        <ele>790</ele>
        <time>2018-02-05T04:51:32Z</time>
      </trkpt>
      <trkpt lat="45.15349" lon="5.43899">
        <ele>791</ele>
        <time>2018-02-05T04:52:32Z</time>
      </trkpt>
      <trkpt lat="45.15349" lon="5.43904">
        <ele>792</ele>
        <time>2018-02-05T04:53:32Z</time>
      </trkpt>
      <trkpt lat="45.15348" lon="5.43908">
        <ele>793</ele>
        <time>2018-02-05T04:54:32Z</time>
      </trkpt>
      <trkpt lat="45.15346" lon="5.4391">
        <ele>794</ele>
        <time>2018-02-05T04:55:32Z</time>
      </trkpt>
      <trkpt lat="45.15342" lon="5.43911">
        <ele>795</ele>
        <time>2018-02-05T04:56:32Z</time>
      </trkpt>
      <trkpt lat="45.15338" lon="5.43911">
        <ele>796</ele>
        <time>2018-02-05T04:57:32Z</time>
      </trkpt>
      <trkpt lat="45.15336" lon="5.43909">
        <ele>796</ele>
        <time>2018-02-05T04:58:32Z</time>
      </trkpt>
      <trkpt lat="45.15334" lon="5.43906">
        <ele>796</ele>
        <time>2018-02-05T04:59:32Z</time>
      </trkpt>
      <trkpt lat="45.15331" lon="5.43897">
        <ele>795</ele>
        <time>2018-02-05T05:00:32Z</time>
      </trkpt>
      <trkpt lat="45.15326" lon="5.43882">
        <ele>793</ele>
        <time>2018-02-05T05:01:32Z</time>
      </trkpt>
      <trkpt lat="45.15323" lon="5.4387">
        <ele>791</ele>
        <time>2018-02-05T05:02:32Z</time>
      </trkpt>
      <trkpt lat="45.15318" lon="5.43856">
        <ele>789</ele>
        <time>2018-02-05T05:03:32Z</time>
      </trkpt>
      <trkpt lat="45.15308" lon="5.43834">
        <ele>786</ele>
        <time>2018-02-05T05:04:32Z</time>
      </trkpt>
      <trkpt lat="45.15301" lon="5.4382">
        <ele>786</ele>
        <time>2018-02-05T05:05:32Z</time>
      </trkpt>
      <trkpt lat="45.15297" lon="5.43813">
        <ele>786</ele>
        <time>2018-02-05T05:06:32Z</time>
      </trkpt>
      <trkpt lat="45.15292" lon="5.43807">
        <ele>786</ele>
        <time>2018-02-05T05:07:32Z</time>
      </trkpt>
      <trkpt lat="45.15289" lon="5.43804">
        <ele>786</ele>
        <time>2018-02-05T05:08:32Z</time>
      </trkpt>
      <trkpt lat="45.15283" lon="5.438">
        <ele>787</ele>
        <time>2018-02-05T05:09:32Z</time>
      </trkpt>
      <trkpt lat="45.15269" lon="5.43793">
        <ele>790</ele>
        <time>2018-02-05T05:10:32Z</time>
      </trkpt>
      <trkpt lat="45.15261" lon="5.4379">
        <ele>792</ele>
        <time>2018-02-05T05:11:32Z</time>
      </trkpt>
      <trkpt lat="45.15253" lon="5.43787">
        <ele>794</ele>
        <time>2018-02-05T05:12:32Z</time>
      </trkpt>
      <trkpt lat="45.15247" lon="5.43784">
        <ele>795</ele>
        <time>2018-02-05T05:13:32Z</time>
      </trkpt>
      <trkpt lat="45.15243" lon="5.43781">
        <ele>796</ele>
        <time>2018-02-05T05:14:32Z</time>
      </trkpt>
      <trkpt lat="45.15236" lon="5.43774">
        <ele>797</ele>
        <time>2018-02-05T05:15:32Z</time>
      </trkpt>
      <trkpt lat="45.15231" lon="5.43766">
        <ele>796</ele>
        <time>2018-02-05T05:16:32Z</time>
      </trkpt>
      <trkpt lat="45.15226" lon="5.4376">
        <ele>797</ele>
        <time>2018-02-05T05:17:32Z</time>
      </trkpt>
      <trkpt lat="45.15218" lon="5.4375">
        <ele>797</ele>
        <time>2018-02-05T05:18:32Z</time>
      </trkpt>
      <trkpt lat="45.15212" lon="5.43743">
        <ele>797</ele>
        <time>2018-02-05T05:19:32Z</time>
      </trkpt>
      <trkpt lat="45.15204" lon="5.43734">
        <ele>798</ele>
        <time>2018-02-05T05:20:32Z</time>
      </trkpt>
      <trkpt lat="45.15195" lon="5.43722">
        <ele>799</ele>
        <time>2018-02-05T05:21:32Z</time>
      </trkpt>
      <trkpt lat="45.15181" lon="5.43707">
        <ele>801</ele>
        <time>2018-02-05T05:22:32Z</time>
      </trkpt>
      <trkpt lat="45.15172" lon="5.43697">
        <ele>803</ele>
        <time>2018-02-05T05:23:32Z</time>
      </trkpt>
      <trkpt lat="45.15163" lon="5.43686">
        <ele>805</ele>
        <time>2018-02-05T05:24:32Z</time>
      </trkpt>
      <trkpt lat="45.15154" lon="5.43673">
        <ele>807</ele>
        <time>2018-02-05T05:25:32Z</time>
      </trkpt>
      <trkpt lat="45.15146" lon="5.43658">
        <ele>809</ele>
        <time>2018-02-05T05:26:32Z</time>
      </trkpt>
      <trkpt lat="45.15136" lon="5.43638">
        <ele>812</ele>
        <time>2018-02-05T05:27:32Z</time>
      </trkpt>
      <trkpt lat="45.15118" lon="5.43602">
        <ele>813</ele>
        <time>2018-02-05T05:28:32Z</time>
      </trkpt>
      <trkpt lat="45.15102" lon="5.43569">
        <ele>813</ele>
        <time>2018-02-05T05:29:32Z</time>
      </trkpt>
      <trkpt lat="45.15101" lon="5.43564">
        <ele>813</ele>
        <time>2018-02-05T05:30:32Z</time>
      </trkpt>
      <trkpt lat="45.15097" lon="5.43557">
        <ele>814</ele>
        <time>2018-02-05T05:31:32Z</time>
      </trkpt>
      <trkpt lat="45.15089" lon="5.43543">
        <ele>814</ele>
        <time>2018-02-05T05:32:32Z</time>
      </trkpt>
      <trkpt lat="45.1508" lon="5.43529">
        <ele>815</ele>
        <time>2018-02-05T05:33:32Z</time>
      </trkpt>
      <trkpt lat="45.1507" lon="5.43516">
        <ele>816</ele>
        <time>2018-02-05T05:34:32Z</time>
      </trkpt>
      <trkpt lat="45.15058" lon="5.43502">
        <ele>816</ele>
        <time>2018-02-05T05:35:32Z</time>
      </trkpt>
      <trkpt lat="45.15052" lon="5.43495">
        <ele>817</ele>
        <time>2018-02-05T05:36:32Z</time>
      </trkpt>
      <trkpt lat="45.15048" lon="5.43491">
        <ele>818</ele>
        <time>2018-02-05T05:37:32Z</time>
      </trkpt>
      <trkpt lat="45.15045" lon="5.43491">
        <ele>819</ele>
        <time>2018-02-05T05:38:32Z</time>
      </trkpt>
      <trkpt lat="45.15043" lon="5.43491">
        <ele>819</ele>
        <time>2018-02-05T05:39:32Z</time>
      </trkpt>
      <trkpt lat="45.15041" lon="5.43491">
        <ele>819</ele>
        <time>2018-02-05T05:40:32Z</time>
      </trkpt>
      <trkpt lat="45.15039" lon="5.43494">
        <ele>820</ele>
        <time>2018-02-05T05:41:32Z</time>
      </trkpt>
      <trkpt lat="45.15038" lon="5.43497">
        <ele>821</ele>
        <time>2018-02-05T05:42:32Z</time>
      </trkpt>
      <trkpt lat="45.15037" lon="5.43501">
        <ele>821</ele>
        <time>2018-02-05T05:43:32Z</time>
      </trkpt>
      <trkpt lat="45.15037" lon="5.43505">
        <ele>822</ele>
        <time>2018-02-05T05:44:32Z</time>
      </trkpt>
      <trkpt lat="45.15039" lon="5.43509">
        <ele>822</ele>
        <time>2018-02-05T05:45:32Z</time>
      </trkpt>
      <trkpt lat="45.15041" lon="5.43513">
        <ele>823</ele>
        <time>2018-02-05T05:46:32Z</time>
      </trkpt>
      <trkpt lat="45.15042" lon="5.43515">
        <ele>823</ele>
        <time>2018-02-05T05:47:32Z</time>
      </trkpt>
      <trkpt lat="45.15043" lon="5.43518">
        <ele>823</ele>
        <time>2018-02-05T05:48:32Z</time>
      </trkpt>
      <trkpt lat="45.15045" lon="5.43521">
        <ele>823</ele>
        <time>2018-02-05T05:49:32Z</time>
      </trkpt>
      <trkpt lat="45.15048" lon="5.43525">
        <ele>823</ele>
        <time>2018-02-05T05:50:32Z</time>
      </trkpt>
      <trkpt lat="45.15051" lon="5.43532">
        <ele>824</ele>
        <time>2018-02-05T05:51:32Z</time>
      </trkpt>
      <trkpt lat="45.15057" lon="5.43547">
        <ele>825</ele>
        <time>2018-02-05T05:52:32Z</time>
      </trkpt>
      <trkpt lat="45.1506" lon="5.43558">
        <ele>826</ele>
        <time>2018-02-05T05:53:32Z</time>
      </trkpt>
      <trkpt lat="45.15067" lon="5.43582">
        <ele>827</ele>
        <time>2018-02-05T05:54:32Z</time>
      </trkpt>
      <trkpt lat="45.15076" lon="5.43622">
        <ele>836</ele>
        <time>2018-02-05T05:55:32Z</time>
      </trkpt>
      <trkpt lat="45.15086" lon="5.43658">
        <ele>842</ele>
        <time>2018-02-05T05:56:32Z</time>
      </trkpt>
      <trkpt lat="45.15112" lon="5.4373">
        <ele>845</ele>
        <time>2018-02-05T05:57:32Z</time>
      </trkpt>
      <trkpt lat="45.15124" lon="5.43756">
        <ele>845</ele>
        <time>2018-02-05T05:58:32Z</time>
      </trkpt>
      <trkpt lat="45.15131" lon="5.43766">
        <ele>843</ele>
        <time>2018-02-05T05:59:32Z</time>
      </trkpt>
      <trkpt lat="45.1514" lon="5.43782">
        <ele>843</ele>
        <time>2018-02-05T06:00:32Z</time>
      </trkpt>
      <trkpt lat="45.15151" lon="5.43805">
        <ele>844</ele>
        <time>2018-02-05T06:01:32Z</time>
      </trkpt>
      <trkpt lat="45.15173" lon="5.43851">
        <ele>849</ele>
        <time>2018-02-05T06:02:32Z</time>
      </trkpt>
      <trkpt lat="45.15195" lon="5.43894">
        <ele>853</ele>
        <time>2018-02-05T06:03:32Z</time>
      </trkpt>
      <trkpt lat="45.15201" lon="5.43906">
        <ele>855</ele>
        <time>2018-02-05T06:04:32Z</time>
      </trkpt>
      <trkpt lat="45.15213" lon="5.43927">
        <ele>855</ele>
        <time>2018-02-05T06:05:32Z</time>
      </trkpt>
      <trkpt lat="45.15218" lon="5.43935">
        <ele>854</ele>
        <time>2018-02-05T06:06:32Z</time>
      </trkpt>
      <trkpt lat="45.1522" lon="5.43942">
        <ele>855</ele>
        <time>2018-02-05T06:07:32Z</time>
      </trkpt>
      <trkpt lat="45.15221" lon="5.43946">
        <ele>855</ele>
        <time>2018-02-05T06:08:32Z</time>
      </trkpt>
      <trkpt lat="45.1522" lon="5.4395">
        <ele>856</ele>
        <time>2018-02-05T06:09:32Z</time>
      </trkpt>
      <trkpt lat="45.1522" lon="5.43953">
        <ele>857</ele>
        <time>2018-02-05T06:10:32Z</time>
      </trkpt>
      <trkpt lat="45.15219" lon="5.43955">
        <ele>857</ele>
        <time>2018-02-05T06:11:32Z</time>
      </trkpt>
      <trkpt lat="45.15217" lon="5.43957">
        <ele>859</ele>
        <time>2018-02-05T06:12:32Z</time>
      </trkpt>
      <trkpt lat="45.15214" lon="5.43959">
        <ele>860</ele>
        <time>2018-02-05T06:13:32Z</time>
      </trkpt>
      <trkpt lat="45.15211" lon="5.43959">
        <ele>862</ele>
        <time>2018-02-05T06:14:32Z</time>
      </trkpt>
      <trkpt lat="45.15209" lon="5.43957">
        <ele>862</ele>
        <time>2018-02-05T06:15:32Z</time>
      </trkpt>
      <trkpt lat="45.15205" lon="5.43952">
        <ele>863</ele>
        <time>2018-02-05T06:16:32Z</time>
      </trkpt>
      <trkpt lat="45.15196" lon="5.43935">
        <ele>864</ele>
        <time>2018-02-05T06:17:32Z</time>
      </trkpt>
      <trkpt lat="45.1518" lon="5.43908">
        <ele>864</ele>
        <time>2018-02-05T06:18:32Z</time>
      </trkpt>
      <trkpt lat="45.1516" lon="5.43883">
        <ele>865</ele>
        <time>2018-02-05T06:19:32Z</time>
      </trkpt>
      <trkpt lat="45.15134" lon="5.4385">
        <ele>868</ele>
        <time>2018-02-05T06:20:32Z</time>
      </trkpt>
      <trkpt lat="45.15121" lon="5.43834">
        <ele>870</ele>
        <time>2018-02-05T06:21:32Z</time>
      </trkpt>
      <trkpt lat="45.15107" lon="5.43818">
        <ele>873</ele>
        <time>2018-02-05T06:22:32Z</time>
      </trkpt>
      <trkpt lat="45.15095" lon="5.43807">
        <ele>877</ele>
        <time>2018-02-05T06:23:32Z</time>
      </trkpt>
      <trkpt lat="45.15083" lon="5.43796">
        <ele>881</ele>
        <time>2018-02-05T06:24:32Z</time>
      </trkpt>
      <trkpt lat="45.1506" lon="5.43772">
        <ele>886</ele>
        <time>2018-02-05T06:25:32Z</time>
      </trkpt>
      <trkpt lat="45.15043" lon="5.43743">
        <ele>886</ele>
        <time>2018-02-05T06:26:32Z</time>
      </trkpt>
      <trkpt lat="45.15035" lon="5.43732">
        <ele>886</ele>
        <time>2018-02-05T06:27:32Z</time>
      </trkpt>
      <trkpt lat="45.15023" lon="5.43718">
        <ele>886</ele>
        <time>2018-02-05T06:28:32Z</time>
      </trkpt>
      <trkpt lat="45.15003" lon="5.437">
        <ele>888</ele>
        <time>2018-02-05T06:29:32Z</time>
      </trkpt>
      <trkpt lat="45.14984" lon="5.43683">
        <ele>890</ele>
        <time>2018-02-05T06:30:32Z</time>
      </trkpt>
      <trkpt lat="45.14968" lon="5.4367">
        <ele>892</ele>
        <time>2018-02-05T06:31:32Z</time>
      </trkpt>
      <trkpt lat="45.14955" lon="5.43661">
        <ele>894</ele>
        <time>2018-02-05T06:32:32Z</time>
      </trkpt>
      <trkpt lat="45.14941" lon="5.43652">
        <ele>897</ele>
        <time>2018-02-05T06:33:32Z</time>
      </trkpt>
      <trkpt lat="45.1492" lon="5.43638">
        <ele>901</ele>
        <time>2018-02-05T06:34:32Z</time>
      </trkpt>
      <trkpt lat="45.14906" lon="5.43629">
        <ele>900</ele>
        <time>2018-02-05T06:35:32Z</time>
      </trkpt>
      <trkpt lat="45.14892" lon="5.4362">
        <ele>898</ele>
        <time>2018-02-05T06:36:32Z</time>
      </trkpt>
      <trkpt lat="45.14879" lon="5.43611">
        <ele>896</ele>
        <time>2018-02-05T06:37:32Z</time>
      </trkpt>
      <trkpt lat="45.14867" lon="5.43604">
        <ele>896</ele>
        <time>2018-02-05T06:38:32Z</time>
      </trkpt>
      <trkpt lat="45.14856" lon="5.43596">
        <ele>896</ele>
        <time>2018-02-05T06:39:32Z</time>
      </trkpt>
      <trkpt lat="45.14844" lon="5.43585">
        <ele>896</ele>
        <time>2018-02-05T06:40:32Z</time>
      </trkpt>
      <trkpt lat="45.14838" lon="5.43577">
        <ele>896</ele>
        <time>2018-02-05T06:41:32Z</time>
      </trkpt>
      <trkpt lat="45.14833" lon="5.43567">
        <ele>897</ele>
        <time>2018-02-05T06:42:32Z</time>
      </trkpt>
      <trkpt lat="45.14829" lon="5.43554">
        <ele>896</ele>
        <time>2018-02-05T06:43:32Z</time>
      </trkpt>
      <trkpt lat="45.14826" lon="5.43547">
        <ele>896</ele>
        <time>2018-02-05T06:44:32Z</time>
      </trkpt>
      <trkpt lat="45.14823" lon="5.43541">
        <ele>896</ele>
        <time>2018-02-05T06:45:32Z</time>
      </trkpt>
      <trkpt lat="45.14818" lon="5.43536">
        <ele>897</ele>
        <time>2018-02-05T06:46:32Z</time>
      </trkpt>
      <trkpt lat="45.14814" lon="5.43532">
        <ele>897</ele>
        <time>2018-02-05T06:47:32Z</time>
      </trkpt>
      <trkpt lat="45.14809" lon="5.4353">
        <ele>898</ele>
        <time>2018-02-05T06:48:32Z</time>
      </trkpt>
      <trkpt lat="45.14799" lon="5.43527">
        <ele>899</ele>
        <time>2018-02-05T06:49:32Z</time>
      </trkpt>
      <trkpt lat="45.14787" lon="5.43524">
        <ele>901</ele>
        <time>2018-02-05T06:50:32Z</time>
      </trkpt>
      <trkpt lat="45.14778" lon="5.43521">
        <ele>902</ele>
        <time>2018-02-05T06:51:32Z</time>
      </trkpt>
      <trkpt lat="45.1477" lon="5.43517">
        <ele>903</ele>
        <time>2018-02-05T06:52:32Z</time>
      </trkpt>
      <trkpt lat="45.14755" lon="5.43509">
        <ele>905</ele>
        <time>2018-02-05T06:53:32Z</time>
      </trkpt>
      <trkpt lat="45.14742" lon="5.43498">
        <ele>905</ele>
        <time>2018-02-05T06:54:32Z</time>
      </trkpt>
      <trkpt lat="45.14723" lon="5.43485">
        <ele>903</ele>
        <time>2018-02-05T06:55:32Z</time>
      </trkpt>
      <trkpt lat="45.14705" lon="5.43478">
        <ele>903</ele>
        <time>2018-02-05T06:56:32Z</time>
      </trkpt>
      <trkpt lat="45.14695" lon="5.43475">
        <ele>903</ele>
        <time>2018-02-05T06:57:32Z</time>
      </trkpt>
      <trkpt lat="45.14689" lon="5.43475">
        <ele>904</ele>
        <time>2018-02-05T06:58:32Z</time>
      </trkpt>
      <trkpt lat="45.14681" lon="5.43477">
        <ele>905</ele>
        <time>2018-02-05T06:59:32Z</time>
      </trkpt>
      <trkpt lat="45.14677" lon="5.43479">
        <ele>905</ele>
        <time>2018-02-05T07:00:32Z</time>
      </trkpt>
      <trkpt lat="45.14673" lon="5.43483">
        <ele>906</ele>
        <time>2018-02-05T07:01:32Z</time>
      </trkpt>
      <trkpt lat="45.14667" lon="5.4349">
        <ele>908</ele>
        <time>2018-02-05T07:02:32Z</time>
      </trkpt>
      <trkpt lat="45.14662" lon="5.43498">
        <ele>909</ele>
        <time>2018-02-05T07:03:32Z</time>
      </trkpt>
      <trkpt lat="45.14656" lon="5.43509">
        <ele>910</ele>
        <time>2018-02-05T07:04:32Z</time>
      </trkpt>
      <trkpt lat="45.14652" lon="5.43523">
        <ele>911</ele>
        <time>2018-02-05T07:05:32Z</time>
      </trkpt>
      <trkpt lat="45.14651" lon="5.43534">
        <ele>912</ele>
        <time>2018-02-05T07:06:32Z</time>
      </trkpt>
      <trkpt lat="45.14652" lon="5.43552">
        <ele>914</ele>
        <time>2018-02-05T07:07:32Z</time>
      </trkpt>
      <trkpt lat="45.14653" lon="5.43561">
        <ele>914</ele>
        <time>2018-02-05T07:08:32Z</time>
      </trkpt>
      <trkpt lat="45.14662" lon="5.43581">
        <ele>916</ele>
        <time>2018-02-05T07:09:32Z</time>
      </trkpt>
      <trkpt lat="45.1467" lon="5.43596">
        <ele>917</ele>
        <time>2018-02-05T07:10:32Z</time>
      </trkpt>
      <trkpt lat="45.14683" lon="5.43619">
        <ele>919</ele>
        <time>2018-02-05T07:11:32Z</time>
      </trkpt>
      <trkpt lat="45.14694" lon="5.4364">
        <ele>920</ele>
        <time>2018-02-05T07:12:32Z</time>
      </trkpt>
      <trkpt lat="45.14696" lon="5.43646">
        <ele>921</ele>
        <time>2018-02-05T07:13:32Z</time>
      </trkpt>
      <trkpt lat="45.14698" lon="5.43651">
        <ele>921</ele>
        <time>2018-02-05T07:14:32Z</time>
      </trkpt>
      <trkpt lat="45.147" lon="5.43657">
        <ele>921</ele>
        <time>2018-02-05T07:15:32Z</time>
      </trkpt>
      <trkpt lat="45.147" lon="5.43662">
        <ele>922</ele>
        <time>2018-02-05T07:16:32Z</time>
      </trkpt>
      <trkpt lat="45.14699" lon="5.43667">
        <ele>922</ele>
        <time>2018-02-05T07:17:32Z</time>
      </trkpt>
      <trkpt lat="45.14697" lon="5.43673">
        <ele>923</ele>
        <time>2018-02-05T07:18:32Z</time>
      </trkpt>
      <trkpt lat="45.14692" lon="5.43681">
        <ele>923</ele>
        <time>2018-02-05T07:19:32Z</time>
      </trkpt>
      <trkpt lat="45.14682" lon="5.43697">
        <ele>925</ele>
        <time>2018-02-05T07:20:32Z</time>
      </trkpt>
      <trkpt lat="45.14667" lon="5.4372">
        <ele>928</ele>
        <time>2018-02-05T07:21:32Z</time>
      </trkpt>
      <trkpt lat="45.14663" lon="5.43726">
        <ele>928</ele>
        <time>2018-02-05T07:22:32Z</time>
      </trkpt>
      <trkpt lat="45.14659" lon="5.43727">
        <ele>929</ele>
        <time>2018-02-05T07:23:32Z</time>
      </trkpt>
      <trkpt lat="45.14657" lon="5.43727">
        <ele>929</ele>
        <time>2018-02-05T07:24:32Z</time>
      </trkpt>
      <trkpt lat="45.14654" lon="5.43727">
        <ele>929</ele>
        <time>2018-02-05T07:25:32Z</time>
      </trkpt>
      <trkpt lat="45.14648" lon="5.43726">
        <ele>929</ele>
        <time>2018-02-05T07:26:32Z</time>
      </trkpt>
      <trkpt lat="45.14637" lon="5.43721">
        <ele>930</ele>
        <time>2018-02-05T07:27:32Z</time>
      </trkpt>
      <trkpt lat="45.14627" lon="5.43716">
        <ele>930</ele>
        <time>2018-02-05T07:28:32Z</time>
      </trkpt>
      <trkpt lat="45.14621" lon="5.43713">
        <ele>930</ele>
        <time>2018-02-05T07:29:32Z</time>
      </trkpt>
      <trkpt lat="45.14616" lon="5.43712">
        <ele>930</ele>
        <time>2018-02-05T07:30:32Z</time>
      </trkpt>
      <trkpt lat="45.14611" lon="5.43712">
        <ele>930</ele>
        <time>2018-02-05T07:31:32Z</time>
      </trkpt>
      <trkpt lat="45.14605" lon="5.43712">
        <ele>931</ele>
        <time>2018-02-05T07:32:32Z</time>
      </trkpt>
      <trkpt lat="45.14599" lon="5.43713">
        <ele>931</ele>
        <time>2018-02-05T07:33:32Z</time>
      </trkpt>
      <trkpt lat="45.14593" lon="5.43715">
        <ele>932</ele>
        <time>2018-02-05T07:34:32Z</time>
      </trkpt>
      <trkpt lat="45.14585" lon="5.43718">
        <ele>932</ele>
        <time>2018-02-05T07:35:32Z</time>
      </trkpt>
      <trkpt lat="45.14579" lon="5.43719">
        <ele>933</ele>
        <time>2018-02-05T07:36:32Z</time>
      </trkpt>
      <trkpt lat="45.14572" lon="5.4372">
        <ele>934</ele>
        <time>2018-02-05T07:37:32Z</time>
      </trkpt>
      <trkpt lat="45.14566" lon="5.4372">
        <ele>934</ele>
        <time>2018-02-05T07:38:32Z</time>
      </trkpt>
      <trkpt lat="45.14559" lon="5.43719">
        <ele>935</ele>
        <time>2018-02-05T07:39:32Z</time>
      </trkpt>
      <trkpt lat="45.1455" lon="5.43717">
        <ele>936</ele>
        <time>2018-02-05T07:40:32Z</time>
      </trkpt>
      <trkpt lat="45.14537" lon="5.43711">
        <ele>936</ele>
        <time>2018-02-05T07:41:32Z</time>
      </trkpt>
      <trkpt lat="45.14525" lon="5.43705">
        <ele>936</ele>
        <time>2018-02-05T07:42:32Z</time>
      </trkpt>
      <trkpt lat="45.14521" lon="5.43703">
        <ele>936</ele>
        <time>2018-02-05T07:43:32Z</time>
      </trkpt>
      <trkpt lat="45.14518" lon="5.43702">
        <ele>936</ele>
        <time>2018-02-05T07:44:32Z</time>
      </trkpt>
      <trkpt lat="45.14515" lon="5.43703">
        <ele>936</ele>
        <time>2018-02-05T07:45:32Z</time>
      </trkpt>
      <trkpt lat="45.14513" lon="5.43704">
        <ele>937</ele>
        <time>2018-02-05T07:46:32Z</time>
      </trkpt>
      <trkpt lat="45.14511" lon="5.43706">
        <ele>937</ele>
        <time>2018-02-05T07:47:32Z</time>
      </trkpt>
      <trkpt lat="45.1451" lon="5.43708">
        <ele>938</ele>
        <time>2018-02-05T07:48:32Z</time>
      </trkpt>
      <trkpt lat="45.14509" lon="5.43711">
        <ele>938</ele>
        <time>2018-02-05T07:49:32Z</time>
      </trkpt>
      <trkpt lat="45.14508" lon="5.43715">
        <ele>939</ele>
        <time>2018-02-05T07:50:32Z</time>
      </trkpt>
      <trkpt lat="45.14509" lon="5.43719">
        <ele>940</ele>
        <time>2018-02-05T07:51:32Z</time>
      </trkpt>
      <trkpt lat="45.14511" lon="5.43722">
        <ele>940</ele>
        <time>2018-02-05T07:52:32Z</time>
      </trkpt>
      <trkpt lat="45.14517" lon="5.43729">
        <ele>941</ele>
        <time>2018-02-05T07:53:32Z</time>
      </trkpt>
      <trkpt lat="45.14527" lon="5.43739">
        <ele>942</ele>
        <time>2018-02-05T07:54:32Z</time>
      </trkpt>
      <trkpt lat="45.14538" lon="5.4375">
        <ele>942</ele>
        <time>2018-02-05T07:55:32Z</time>
      </trkpt>
      <trkpt lat="45.14548" lon="5.43758">
        <ele>942</ele>
        <time>2018-02-05T07:56:32Z</time>
      </trkpt>
      <trkpt lat="45.14553" lon="5.43762">
        <ele>942</ele>
        <time>2018-02-05T07:57:32Z</time>
      </trkpt>
      <trkpt lat="45.1456" lon="5.43766">
        <ele>942</ele>
        <time>2018-02-05T07:58:32Z</time>
      </trkpt>
      <trkpt lat="45.14568" lon="5.4377">
        <ele>941</ele>
        <time>2018-02-05T07:59:32Z</time>
      </trkpt>
      <trkpt lat="45.14576" lon="5.43773">
        <ele>940</ele>
        <time>2018-02-05T08:00:32Z</time>
      </trkpt>
      <trkpt lat="45.14581" lon="5.43777">
        <ele>940</ele>
        <time>2018-02-05T08:01:32Z</time>
      </trkpt>
      <trkpt lat="45.14584" lon="5.43779">
        <ele>940</ele>
        <time>2018-02-05T08:02:32Z</time>
      </trkpt>
      <trkpt lat="45.14586" lon="5.43781">
        <ele>940</ele>
        <time>2018-02-05T08:03:32Z</time>
      </trkpt>
      <trkpt lat="45.14587" lon="5.43781">
        <ele>940</ele>
        <time>2018-02-05T08:04:32Z</time>
      </trkpt>
      <trkpt lat="45.1459" lon="5.43783">
        <ele>940</ele>
        <time>2018-02-05T08:05:32Z</time>
      </trkpt>
      <trkpt lat="45.14593" lon="5.43787">
        <ele>940</ele>
        <time>2018-02-05T08:06:32Z</time>
      </trkpt>
      <trkpt lat="45.14595" lon="5.43792">
        <ele>941</ele>
        <time>2018-02-05T08:07:32Z</time>
      </trkpt>
      <trkpt lat="45.14599" lon="5.43801">
        <ele>941</ele>
        <time>2018-02-05T08:08:32Z</time>
      </trkpt>
      <trkpt lat="45.14601" lon="5.43807">
        <ele>942</ele>
        <time>2018-02-05T08:09:32Z</time>
      </trkpt>
      <trkpt lat="45.14605" lon="5.43819">
        <ele>943</ele>
        <time>2018-02-05T08:10:32Z</time>
      </trkpt>
      <trkpt lat="45.14611" lon="5.43838">
        <ele>945</ele>
        <time>2018-02-05T08:11:32Z</time>
      </trkpt>
      <trkpt lat="45.14615" lon="5.43852">
        <ele>946</ele>
        <time>2018-02-05T08:12:32Z</time>
      </trkpt>
      <trkpt lat="45.14617" lon="5.43858">
        <ele>947</ele>
        <time>2018-02-05T08:13:32Z</time>
      </trkpt>
      <trkpt lat="45.14622" lon="5.43872">
        <ele>949</ele>
        <time>2018-02-05T08:14:32Z</time>
      </trkpt>
      <trkpt lat="45.14626" lon="5.43882">
        <ele>950</ele>
        <time>2018-02-05T08:15:32Z</time>
      </trkpt>
      <trkpt lat="45.1463" lon="5.43894">
        <ele>952</ele>
        <time>2018-02-05T08:16:32Z</time>
      </trkpt>
      <trkpt lat="45.14634" lon="5.43905">
        <ele>953</ele>
        <time>2018-02-05T08:17:32Z</time>
      </trkpt>
      <trkpt lat="45.1464" lon="5.43915">
        <ele>954</ele>
        <time>2018-02-05T08:18:32Z</time>
      </trkpt>
      <trkpt lat="45.14649" lon="5.43927">
        <ele>955</ele>
        <time>2018-02-05T08:19:32Z</time>
      </trkpt>
      <trkpt lat="45.14657" lon="5.43937">
        <ele>956</ele>
        <time>2018-02-05T08:20:32Z</time>
      </trkpt>
      <trkpt lat="45.14666" lon="5.43949">
        <ele>957</ele>
        <time>2018-02-05T08:21:32Z</time>
      </trkpt>
      <trkpt lat="45.14671" lon="5.43956">
        <ele>957</ele>
        <time>2018-02-05T08:22:32Z</time>
      </trkpt>
      <trkpt lat="45.14677" lon="5.43965">
        <ele>958</ele>
        <time>2018-02-05T08:23:32Z</time>
      </trkpt>
      <trkpt lat="45.14681" lon="5.43974">
        <ele>959</ele>
        <time>2018-02-05T08:24:32Z</time>
      </trkpt>
      <trkpt lat="45.14685" lon="5.43983">
        <ele>960</ele>
        <time>2018-02-05T08:25:32Z</time>
      </trkpt>
      <trkpt lat="45.14687" lon="5.43994">
        <ele>962</ele>
        <time>2018-02-05T08:26:32Z</time>
      </trkpt>
      <trkpt lat="45.1469" lon="5.4401">
        <ele>965</ele>
        <time>2018-02-05T08:27:32Z</time>
      </trkpt>
      <trkpt lat="45.14692" lon="5.44026">
        <ele>968</ele>
        <time>2018-02-05T08:28:32Z</time>
      </trkpt>
      <trkpt lat="45.14696" lon="5.44037">
        <ele>971</ele>
        <time>2018-02-05T08:29:32Z</time>
      </trkpt>
      <trkpt lat="45.147" lon="5.44046">
        <ele>972</ele>
        <time>2018-02-05T08:30:32Z</time>
      </trkpt>
      <trkpt lat="45.14711" lon="5.4406">
        <ele>974</ele>
        <time>2018-02-05T08:31:32Z</time>
      </trkpt>
      <trkpt lat="45.1472" lon="5.44069">
        <ele>976</ele>
        <time>2018-02-05T08:32:32Z</time>
      </trkpt>
      <trkpt lat="45.14729" lon="5.44075">
        <ele>976</ele>
        <time>2018-02-05T08:33:32Z</time>
      </trkpt>
      <trkpt lat="45.14741" lon="5.44085">
        <ele>978</ele>
        <time>2018-02-05T08:34:32Z</time>
      </trkpt>
      <trkpt lat="45.14751" lon="5.44093">
        <ele>978</ele>
        <time>2018-02-05T08:35:32Z</time>
      </trkpt>
      <trkpt lat="45.14757" lon="5.441">
        <ele>979</ele>
        <time>2018-02-05T08:36:32Z</time>
      </trkpt>
      <trkpt lat="45.14762" lon="5.44108">
        <ele>980</ele>
        <time>2018-02-05T08:37:32Z</time>
      </trkpt>
      <trkpt lat="45.14773" lon="5.44127">
        <ele>982</ele>
        <time>2018-02-05T08:38:32Z</time>
      </trkpt>
      <trkpt lat="45.14804" lon="5.44174">
        <ele>985</ele>
        <time>2018-02-05T08:39:32Z</time>
      </trkpt>
      <trkpt lat="45.14817" lon="5.44192">
        <ele>987</ele>
        <time>2018-02-05T08:40:32Z</time>
      </trkpt>
      <trkpt lat="45.14828" lon="5.44207">
        <ele>988</ele>
        <time>2018-02-05T08:41:32Z</time>
      </trkpt>
      <trkpt lat="45.14835" lon="5.44217">
        <ele>990</ele>
        <time>2018-02-05T08:42:32Z</time>
      </trkpt>
      <trkpt lat="45.14843" lon="5.44226">
        <ele>992</ele>
        <time>2018-02-05T08:43:32Z</time>
      </trkpt>
      <trkpt lat="45.14845" lon="5.44229">
        <ele>992</ele>
        <time>2018-02-05T08:44:32Z</time>
      </trkpt>
      <trkpt lat="45.14847" lon="5.44232">
        <ele>993</ele>
        <time>2018-02-05T08:45:32Z</time>
      </trkpt>
      <trkpt lat="45.14848" lon="5.44234">
        <ele>993</ele>
        <time>2018-02-05T08:46:32Z</time>
      </trkpt>
      <trkpt lat="45.14849" lon="5.44235">
        <ele>993</ele>
        <time>2018-02-05T08:47:32Z</time>
      </trkpt>
      <trkpt lat="45.14848" lon="5.44237">
        <ele>994</ele>
        <time>2018-02-05T08:48:32Z</time>
      </trkpt>
      <trkpt lat="45.14848" lon="5.44238">
        <ele>995</ele>
        <time>2018-02-05T08:49:32Z</time>
      </trkpt>
      <trkpt lat="45.14848" lon="5.4424">
        <ele>995</ele>
        <time>2018-02-05T08:50:32Z</time>
      </trkpt>
      <trkpt lat="45.14847" lon="5.44242">
        <ele>996</ele>
        <time>2018-02-05T08:51:32Z</time>
      </trkpt>
      <trkpt lat="45.14846" lon="5.44244">
        <ele>997</ele>
        <time>2018-02-05T08:52:32Z</time>
      </trkpt>
      <trkpt lat="45.14844" lon="5.44245">
        <ele>997</ele>
        <time>2018-02-05T08:53:32Z</time>
      </trkpt>
      <trkpt lat="45.14842" lon="5.44246">
        <ele>998</ele>
        <time>2018-02-05T08:54:32Z</time>
      </trkpt>
      <trkpt lat="45.1484" lon="5.44247">
        <ele>998</ele>
        <time>2018-02-05T08:55:32Z</time>
      </trkpt>
      <trkpt lat="45.14838" lon="5.44247">
        <ele>998</ele>
        <time>2018-02-05T08:56:32Z</time>
      </trkpt>
      <trkpt lat="45.14837" lon="5.44247">
        <ele>999</ele>
        <time>2018-02-05T08:57:32Z</time>
      </trkpt>
      <trkpt lat="45.14834" lon="5.44245">
        <ele>998</ele>
        <time>2018-02-05T08:58:32Z</time>
      </trkpt>
      <trkpt lat="45.1483" lon="5.44242">
        <ele>998</ele>
        <time>2018-02-05T08:59:32Z</time>
      </trkpt>
      <trkpt lat="45.14827" lon="5.44238">
        <ele>998</ele>
        <time>2018-02-05T09:00:32Z</time>
      </trkpt>
      <trkpt lat="45.14823" lon="5.44232">
        <ele>997</ele>
        <time>2018-02-05T09:01:32Z</time>
      </trkpt>
      <trkpt lat="45.14818" lon="5.44224">
        <ele>996</ele>
        <time>2018-02-05T09:02:32Z</time>
      </trkpt>
      <trkpt lat="45.14814" lon="5.4422">
        <ele>996</ele>
        <time>2018-02-05T09:03:32Z</time>
      </trkpt>
      <trkpt lat="45.1481" lon="5.44216">
        <ele>995</ele>
        <time>2018-02-05T09:04:32Z</time>
      </trkpt>
      <trkpt lat="45.14807" lon="5.44214">
        <ele>996</ele>
        <time>2018-02-05T09:05:32Z</time>
      </trkpt>
      <trkpt lat="45.14792" lon="5.44207">
        <ele>997</ele>
        <time>2018-02-05T09:06:32Z</time>
      </trkpt>
      <trkpt lat="45.14769" lon="5.44198">
        <ele>1001</ele>
        <time>2018-02-05T09:07:32Z</time>
      </trkpt>
      <trkpt lat="45.1475" lon="5.44192">
        <ele>1004</ele>
        <time>2018-02-05T09:08:32Z</time>
      </trkpt>
      <trkpt lat="45.14737" lon="5.44188">
        <ele>1005</ele>
        <time>2018-02-05T09:09:32Z</time>
      </trkpt>
      <trkpt lat="45.14718" lon="5.44184">
        <ele>1007</ele>
        <time>2018-02-05T09:10:32Z</time>
      </trkpt>
      <trkpt lat="45.14714" lon="5.44183">
        <ele>1007</ele>
        <time>2018-02-05T09:11:32Z</time>
      </trkpt>
      <trkpt lat="45.14705" lon="5.44181">
        <ele>1008</ele>
        <time>2018-02-05T09:12:32Z</time>
      </trkpt>
      <trkpt lat="45.14691" lon="5.44176">
        <ele>1009</ele>
        <time>2018-02-05T09:13:32Z</time>
      </trkpt>
      <trkpt lat="45.14678" lon="5.44168">
        <ele>1009</ele>
        <time>2018-02-05T09:14:32Z</time>
      </trkpt>
      <trkpt lat="45.14661" lon="5.44154">
        <ele>1007</ele>
        <time>2018-02-05T09:15:32Z</time>
      </trkpt>
      <trkpt lat="45.14654" lon="5.4415">
        <ele>1008</ele>
        <time>2018-02-05T09:16:32Z</time>
      </trkpt>
      <trkpt lat="45.14646" lon="5.44147">
        <ele>1008</ele>
        <time>2018-02-05T09:17:32Z</time>
      </trkpt>
      <trkpt lat="45.14639" lon="5.44145">
        <ele>1009</ele>
        <time>2018-02-05T09:18:32Z</time>
      </trkpt>
      <trkpt lat="45.14632" lon="5.44144">
        <ele>1010</ele>
        <time>2018-02-05T09:19:32Z</time>
      </trkpt>
      <trkpt lat="45.14626" lon="5.44144">
        <ele>1011</ele>
        <time>2018-02-05T09:20:32Z</time>
      </trkpt>
      <trkpt lat="45.14619" lon="5.44144">
        <ele>1013</ele>
        <time>2018-02-05T09:21:32Z</time>
      </trkpt>
      <trkpt lat="45.1461" lon="5.44144">
        <ele>1015</ele>
        <time>2018-02-05T09:22:32Z</time>
      </trkpt>
      <trkpt lat="45.14608" lon="5.44144">
        <ele>1015</ele>
        <time>2018-02-05T09:23:32Z</time>
      </trkpt>
      <trkpt lat="45.14605" lon="5.44144">
        <ele>1016</ele>
        <time>2018-02-05T09:24:32Z</time>
      </trkpt>
      <trkpt lat="45.14602" lon="5.44145">
        <ele>1016</ele>
        <time>2018-02-05T09:25:32Z</time>
      </trkpt>
      <trkpt lat="45.14597" lon="5.44145">
        <ele>1017</ele>
        <time>2018-02-05T09:26:32Z</time>
      </trkpt>
      <trkpt lat="45.14588" lon="5.44146">
        <ele>1019</ele>
        <time>2018-02-05T09:27:32Z</time>
      </trkpt>
      <trkpt lat="45.14578" lon="5.44144">
        <ele>1020</ele>
        <time>2018-02-05T09:28:32Z</time>
      </trkpt>
      <trkpt lat="45.1457" lon="5.44141">
        <ele>1021</ele>
        <time>2018-02-05T09:29:32Z</time>
      </trkpt>
      <trkpt lat="45.14557" lon="5.44135">
        <ele>1021</ele>
        <time>2018-02-05T09:30:32Z</time>
      </trkpt>
      <trkpt lat="45.14545" lon="5.44128">
        <ele>1020</ele>
        <time>2018-02-05T09:31:32Z</time>
      </trkpt>
      <trkpt lat="45.1453" lon="5.44119">
        <ele>1020</ele>
        <time>2018-02-05T09:32:32Z</time>
      </trkpt>
      <trkpt lat="45.14517" lon="5.44115">
        <ele>1020</ele>
        <time>2018-02-05T09:33:32Z</time>
      </trkpt>
      <trkpt lat="45.14505" lon="5.44113">
        <ele>1021</ele>
        <time>2018-02-05T09:34:32Z</time>
      </trkpt>
      <trkpt lat="45.14493" lon="5.44112">
        <ele>1021</ele>
        <time>2018-02-05T09:35:32Z</time>
      </trkpt>
      <trkpt lat="45.14481" lon="5.44112">
        <ele>1021</ele>
        <time>2018-02-05T09:36:32Z</time>
      </trkpt>
      <trkpt lat="45.1447" lon="5.44113">
        <ele>1022</ele>
        <time>2018-02-05T09:37:32Z</time>
      </trkpt>
      <trkpt lat="45.14461" lon="5.44117">
        <ele>1022</ele>
        <time>2018-02-05T09:38:32Z</time>
      </trkpt>
      <trkpt lat="45.14445" lon="5.44123">
        <ele>1024</ele>
        <time>2018-02-05T09:39:32Z</time>
      </trkpt>
      <trkpt lat="45.14439" lon="5.44127">
        <ele>1025</ele>
        <time>2018-02-05T09:40:32Z</time>
      </trkpt>
      <trkpt lat="45.14431" lon="5.44134">
        <ele>1026</ele>
        <time>2018-02-05T09:41:32Z</time>
      </trkpt>
      <trkpt lat="45.14421" lon="5.44145">
        <ele>1029</ele>
        <time>2018-02-05T09:42:32Z</time>
      </trkpt>
      <trkpt lat="45.14412" lon="5.44156">
        <ele>1031</ele>
        <time>2018-02-05T09:43:32Z</time>
      </trkpt>
      <trkpt lat="45.14405" lon="5.44163">
        <ele>1033</ele>
        <time>2018-02-05T09:44:32Z</time>
      </trkpt>
      <trkpt lat="45.14399" lon="5.44167">
        <ele>1034</ele>
        <time>2018-02-05T09:45:32Z</time>
      </trkpt>
      <trkpt lat="45.14388" lon="5.44172">
        <ele>1034</ele>
        <time>2018-02-05T09:46:32Z</time>
      </trkpt>
      <trkpt lat="45.14375" lon="5.44173">
        <ele>1034</ele>
        <time>2018-02-05T09:47:32Z</time>
      </trkpt>
      <trkpt lat="45.1437" lon="5.44173">
        <ele>1034</ele>
        <time>2018-02-05T09:48:32Z</time>
      </trkpt>
      <trkpt lat="45.14363" lon="5.44173">
        <ele>1034</ele>
        <time>2018-02-05T09:49:32Z</time>
      </trkpt>
      <trkpt lat="45.14357" lon="5.44171">
        <ele>1034</ele>
        <time>2018-02-05T09:50:32Z</time>
      </trkpt>
      <trkpt lat="45.14351" lon="5.44169">
        <ele>1033</ele>
        <time>2018-02-05T09:51:32Z</time>
      </trkpt>
      <trkpt lat="45.14339" lon="5.44164">
        <ele>1032</ele>
        <time>2018-02-05T09:52:32Z</time>
      </trkpt>
      <trkpt lat="45.14327" lon="5.4416">
        <ele>1032</ele>
        <time>2018-02-05T09:53:32Z</time>
      </trkpt>
      <trkpt lat="45.14307" lon="5.44153">
        <ele>1032</ele>
        <time>2018-02-05T09:54:32Z</time>
      </trkpt>
      <trkpt lat="45.14302" lon="5.44151">
        <ele>1033</ele>
        <time>2018-02-05T09:55:32Z</time>
      </trkpt>
      <trkpt lat="45.14295" lon="5.44152">
        <ele>1034</ele>
        <time>2018-02-05T09:56:32Z</time>
      </trkpt>
      <trkpt lat="45.14291" lon="5.44155">
        <ele>1034</ele>
        <time>2018-02-05T09:57:32Z</time>
      </trkpt>
      <trkpt lat="45.14281" lon="5.44164">
        <ele>1037</ele>
        <time>2018-02-05T09:58:32Z</time>
      </trkpt>
      <trkpt lat="45.14272" lon="5.44175">
        <ele>1040</ele>
        <time>2018-02-05T09:59:32Z</time>
      </trkpt>
      <trkpt lat="45.14264" lon="5.44183">
        <ele>1042</ele>
        <time>2018-02-05T10:00:32Z</time>
      </trkpt>
      <trkpt lat="45.14256" lon="5.4419">
        <ele>1045</ele>
        <time>2018-02-05T10:01:32Z</time>
      </trkpt>
      <trkpt lat="45.14243" lon="5.44201">
        <ele>1047</ele>
        <time>2018-02-05T10:02:32Z</time>
      </trkpt>
      <trkpt lat="45.1423" lon="5.4421">
        <ele>1047</ele>
        <time>2018-02-05T10:03:32Z</time>
      </trkpt>
      <trkpt lat="45.14222" lon="5.44222">
        <ele>1048</ele>
        <time>2018-02-05T10:04:32Z</time>
      </trkpt>
      <trkpt lat="45.14214" lon="5.44233">
        <ele>1049</ele>
        <time>2018-02-05T10:05:32Z</time>
      </trkpt>
      <trkpt lat="45.14209" lon="5.4424">
        <ele>1049</ele>
        <time>2018-02-05T10:06:32Z</time>
      </trkpt>
      <trkpt lat="45.14206" lon="5.44243">
        <ele>1049</ele>
        <time>2018-02-05T10:07:32Z</time>
      </trkpt>
      <trkpt lat="45.14199" lon="5.4425">
        <ele>1049</ele>
        <time>2018-02-05T10:08:32Z</time>
      </trkpt>
      <trkpt lat="45.1419" lon="5.44258">
        <ele>1049</ele>
        <time>2018-02-05T10:09:32Z</time>
      </trkpt>
      <trkpt lat="45.14183" lon="5.44265">
        <ele>1048</ele>
        <time>2018-02-05T10:10:32Z</time>
      </trkpt>
      <trkpt lat="45.14179" lon="5.44271">
        <ele>1049</ele>
        <time>2018-02-05T10:11:32Z</time>
      </trkpt>
      <trkpt lat="45.14176" lon="5.44277">
        <ele>1049</ele>
        <time>2018-02-05T10:12:32Z</time>
      </trkpt>
      <trkpt lat="45.14174" lon="5.44282">
        <ele>1050</ele>
        <time>2018-02-05T10:13:32Z</time>
      </trkpt>
      <trkpt lat="45.1417" lon="5.44292">
        <ele>1051</ele>
        <time>2018-02-05T10:14:32Z</time>
      </trkpt>
      <trkpt lat="45.14167" lon="5.443">
        <ele>1052</ele>
        <time>2018-02-05T10:15:32Z</time>
      </trkpt>
      <trkpt lat="45.14163" lon="5.44308">
        <ele>1053</ele>
        <time>2018-02-05T10:16:32Z</time>
      </trkpt>
      <trkpt lat="45.14159" lon="5.44317">
        <ele>1054</ele>
        <time>2018-02-05T10:17:32Z</time>
      </trkpt>
      <trkpt lat="45.14157" lon="5.44325">
        <ele>1055</ele>
        <time>2018-02-05T10:18:32Z</time>
      </trkpt>
      <trkpt lat="45.14155" lon="5.44333">
        <ele>1056</ele>
        <time>2018-02-05T10:19:32Z</time>
      </trkpt>
      <trkpt lat="45.14154" lon="5.44342">
        <ele>1057</ele>
        <time>2018-02-05T10:20:32Z</time>
      </trkpt>
      <trkpt lat="45.14154" lon="5.44354">
        <ele>1060</ele>
        <time>2018-02-05T10:21:32Z</time>
      </trkpt>
      <trkpt lat="45.14154" lon="5.44364">
        <ele>1062</ele>
        <time>2018-02-05T10:22:32Z</time>
      </trkpt>
      <trkpt lat="45.14154" lon="5.44371">
        <ele>1063</ele>
        <time>2018-02-05T10:23:32Z</time>
      </trkpt>
      <trkpt lat="45.14154" lon="5.44378">
        <ele>1065</ele>
        <time>2018-02-05T10:24:32Z</time>
      </trkpt>
      <trkpt lat="45.14153" lon="5.44385">
        <ele>1066</ele>
        <time>2018-02-05T10:25:32Z</time>
      </trkpt>
      <trkpt lat="45.14152" lon="5.44391">
        <ele>1067</ele>
        <time>2018-02-05T10:26:32Z</time>
      </trkpt>
      <trkpt lat="45.1415" lon="5.44395">
        <ele>1067</ele>
        <time>2018-02-05T10:27:32Z</time>
      </trkpt>
      <trkpt lat="45.14148" lon="5.44397">
        <ele>1067</ele>
        <time>2018-02-05T10:28:32Z</time>
      </trkpt>
      <trkpt lat="45.14145" lon="5.44399">
        <ele>1067</ele>
        <time>2018-02-05T10:29:32Z</time>
      </trkpt>
      <trkpt lat="45.14142" lon="5.44402">
        <ele>1067</ele>
        <time>2018-02-05T10:30:32Z</time>
      </trkpt>
      <trkpt lat="45.14134" lon="5.44405">
        <ele>1066</ele>
        <time>2018-02-05T10:31:32Z</time>
      </trkpt>
      <trkpt lat="45.14127" lon="5.44408">
        <ele>1066</ele>
        <time>2018-02-05T10:32:32Z</time>
      </trkpt>
      <trkpt lat="45.14124" lon="5.44411">
        <ele>1066</ele>
        <time>2018-02-05T10:33:32Z</time>
      </trkpt>
      <trkpt lat="45.14122" lon="5.44415">
        <ele>1066</ele>
        <time>2018-02-05T10:34:32Z</time>
      </trkpt>
      <trkpt lat="45.14121" lon="5.4442">
        <ele>1067</ele>
        <time>2018-02-05T10:35:32Z</time>
      </trkpt>
      <trkpt lat="45.14121" lon="5.44425">
        <ele>1068</ele>
        <time>2018-02-05T10:36:32Z</time>
      </trkpt>
      <trkpt lat="45.14122" lon="5.4443">
        <ele>1070</ele>
        <time>2018-02-05T10:37:32Z</time>
      </trkpt>
      <trkpt lat="45.14124" lon="5.44441">
        <ele>1073</ele>
        <time>2018-02-05T10:38:32Z</time>
      </trkpt>
      <trkpt lat="45.14127" lon="5.44461">
        <ele>1079</ele>
        <time>2018-02-05T10:39:32Z</time>
      </trkpt>
      <trkpt lat="45.14128" lon="5.44473">
        <ele>1082</ele>
        <time>2018-02-05T10:40:32Z</time>
      </trkpt>
      <trkpt lat="45.14129" lon="5.44484">
        <ele>1085</ele>
        <time>2018-02-05T10:41:32Z</time>
      </trkpt>
      <trkpt lat="45.14129" lon="5.44491">
        <ele>1087</ele>
        <time>2018-02-05T10:42:32Z</time>
      </trkpt>
      <trkpt lat="45.14129" lon="5.44499">
        <ele>1089</ele>
        <time>2018-02-05T10:43:32Z</time>
      </trkpt>
      <trkpt lat="45.1413" lon="5.44512">
        <ele>1092</ele>
        <time>2018-02-05T10:44:32Z</time>
      </trkpt>
      <trkpt lat="45.14129" lon="5.44523">
        <ele>1094</ele>
        <time>2018-02-05T10:45:32Z</time>
      </trkpt>
      <trkpt lat="45.14128" lon="5.44532">
        <ele>1095</ele>
        <time>2018-02-05T10:46:32Z</time>
      </trkpt>
      <trkpt lat="45.14126" lon="5.44538">
        <ele>1096</ele>
        <time>2018-02-05T10:47:32Z</time>
      </trkpt>
      <trkpt lat="45.14124" lon="5.44542">
        <ele>1096</ele>
        <time>2018-02-05T10:48:32Z</time>
      </trkpt>
      <trkpt lat="45.1412" lon="5.44544">
        <ele>1095</ele>
        <time>2018-02-05T10:49:32Z</time>
      </trkpt>
      <trkpt lat="45.14115" lon="5.44545">
        <ele>1094</ele>
        <time>2018-02-05T10:50:32Z</time>
      </trkpt>
      <trkpt lat="45.14111" lon="5.44544">
        <ele>1093</ele>
        <time>2018-02-05T10:51:32Z</time>
      </trkpt>
      <trkpt lat="45.14107" lon="5.44542">
        <ele>1092</ele>
        <time>2018-02-05T10:52:32Z</time>
      </trkpt>
      <trkpt lat="45.14103" lon="5.44536">
        <ele>1089</ele>
        <time>2018-02-05T10:53:32Z</time>
      </trkpt>
      <trkpt lat="45.141" lon="5.44529">
        <ele>1087</ele>
        <time>2018-02-05T10:54:32Z</time>
      </trkpt>
      <trkpt lat="45.14096" lon="5.44521">
        <ele>1084</ele>
        <time>2018-02-05T10:55:32Z</time>
      </trkpt>
      <trkpt lat="45.14089" lon="5.44513">
        <ele>1081</ele>
        <time>2018-02-05T10:56:32Z</time>
      </trkpt>
      <trkpt lat="45.14076" lon="5.44499">
        <ele>1076</ele>
        <time>2018-02-05T10:57:32Z</time>
      </trkpt>
      <trkpt lat="45.14057" lon="5.4448">
        <ele>1074</ele>
        <time>2018-02-05T10:58:32Z</time>
      </trkpt>
      <trkpt lat="45.14044" lon="5.44468">
        <ele>1073</ele>
        <time>2018-02-05T10:59:32Z</time>
      </trkpt>
      <trkpt lat="45.14038" lon="5.44464">
        <ele>1073</ele>
        <time>2018-02-05T11:00:32Z</time>
      </trkpt>
      <trkpt lat="45.14033" lon="5.44462">
        <ele>1073</ele>
        <time>2018-02-05T11:01:32Z</time>
      </trkpt>
      <trkpt lat="45.1403" lon="5.4446">
        <ele>1073</ele>
        <time>2018-02-05T11:02:32Z</time>
      </trkpt>
      <trkpt lat="45.14025" lon="5.4446">
        <ele>1073</ele>
        <time>2018-02-05T11:03:32Z</time>
      </trkpt>
      <trkpt lat="45.14019" lon="5.44462">
        <ele>1074</ele>
        <time>2018-02-05T11:04:32Z</time>
      </trkpt>
      <trkpt lat="45.14014" lon="5.44465">
        <ele>1075</ele>
        <time>2018-02-05T11:05:32Z</time>
      </trkpt>
      <trkpt lat="45.14008" lon="5.44469">
        <ele>1076</ele>
        <time>2018-02-05T11:06:32Z</time>
      </trkpt>
      <trkpt lat="45.14004" lon="5.44475">
        <ele>1077</ele>
        <time>2018-02-05T11:07:32Z</time>
      </trkpt>
      <trkpt lat="45.14" lon="5.44481">
        <ele>1079</ele>
        <time>2018-02-05T11:08:32Z</time>
      </trkpt>
      <trkpt lat="45.13996" lon="5.44487">
        <ele>1079</ele>
        <time>2018-02-05T11:09:32Z</time>
      </trkpt>
      <trkpt lat="45.13993" lon="5.44494">
        <ele>1080</ele>
        <time>2018-02-05T11:10:32Z</time>
      </trkpt>
      <trkpt lat="45.13989" lon="5.44502">
        <ele>1080</ele>
        <time>2018-02-05T11:11:32Z</time>
      </trkpt>
      <trkpt lat="45.13981" lon="5.44522">
        <ele>1082</ele>
        <time>2018-02-05T11:12:32Z</time>
      </trkpt>
      <trkpt lat="45.13974" lon="5.44544">
        <ele>1085</ele>
        <time>2018-02-05T11:13:32Z</time>
      </trkpt>
      <trkpt lat="45.13966" lon="5.44566">
        <ele>1087</ele>
        <time>2018-02-05T11:14:32Z</time>
      </trkpt>
      <trkpt lat="45.13953" lon="5.44599">
        <ele>1089</ele>
        <time>2018-02-05T11:15:32Z</time>
      </trkpt>
      <trkpt lat="45.13946" lon="5.44625">
        <ele>1092</ele>
        <time>2018-02-05T11:16:32Z</time>
      </trkpt>
      <trkpt lat="45.13939" lon="5.44649">
        <ele>1093</ele>
        <time>2018-02-05T11:17:32Z</time>
      </trkpt>
      <trkpt lat="45.13932" lon="5.44669">
        <ele>1095</ele>
        <time>2018-02-05T11:18:32Z</time>
      </trkpt>
      <trkpt lat="45.13929" lon="5.44676">
        <ele>1096</ele>
        <time>2018-02-05T11:19:32Z</time>
      </trkpt>
      <trkpt lat="45.13925" lon="5.44683">
        <ele>1098</ele>
        <time>2018-02-05T11:20:32Z</time>
      </trkpt>
      <trkpt lat="45.13922" lon="5.44689">
        <ele>1099</ele>
        <time>2018-02-05T11:21:32Z</time>
      </trkpt>
      <trkpt lat="45.13918" lon="5.44693">
        <ele>1099</ele>
        <time>2018-02-05T11:22:32Z</time>
      </trkpt>
      <trkpt lat="45.13914" lon="5.44697">
        <ele>1100</ele>
        <time>2018-02-05T11:23:32Z</time>
      </trkpt>
      <trkpt lat="45.1391" lon="5.44702">
        <ele>1102</ele>
        <time>2018-02-05T11:24:32Z</time>
      </trkpt>
      <trkpt lat="45.13905" lon="5.44704">
        <ele>1103</ele>
        <time>2018-02-05T11:25:32Z</time>
      </trkpt>
      <trkpt lat="45.139" lon="5.44705">
        <ele>1103</ele>
        <time>2018-02-05T11:26:32Z</time>
      </trkpt>
      <trkpt lat="45.13894" lon="5.44705">
        <ele>1103</ele>
        <time>2018-02-05T11:27:32Z</time>
      </trkpt>
      <trkpt lat="45.13893" lon="5.44705">
        <ele>1103</ele>
        <time>2018-02-05T11:28:32Z</time>
      </trkpt>
      <trkpt lat="45.13889" lon="5.44705">
        <ele>1103</ele>
        <time>2018-02-05T11:29:32Z</time>
      </trkpt>
      <trkpt lat="45.13885" lon="5.44704">
        <ele>1103</ele>
        <time>2018-02-05T11:30:32Z</time>
      </trkpt>
      <trkpt lat="45.13879" lon="5.44703">
        <ele>1103</ele>
        <time>2018-02-05T11:31:32Z</time>
      </trkpt>
      <trkpt lat="45.13872" lon="5.44702">
        <ele>1103</ele>
        <time>2018-02-05T11:32:32Z</time>
      </trkpt>
      <trkpt lat="45.13867" lon="5.44703">
        <ele>1103</ele>
        <time>2018-02-05T11:33:32Z</time>
      </trkpt>
      <trkpt lat="45.13863" lon="5.44704">
        <ele>1104</ele>
        <time>2018-02-05T11:34:32Z</time>
      </trkpt>
      <trkpt lat="45.13858" lon="5.44705">
        <ele>1104</ele>
        <time>2018-02-05T11:35:32Z</time>
      </trkpt>
      <trkpt lat="45.13851" lon="5.44709">
        <ele>1106</ele>
        <time>2018-02-05T11:36:32Z</time>
      </trkpt>
      <trkpt lat="45.13835" lon="5.44721">
        <ele>1110</ele>
        <time>2018-02-05T11:37:32Z</time>
      </trkpt>
      <trkpt lat="45.13822" lon="5.44733">
        <ele>1115</ele>
        <time>2018-02-05T11:38:32Z</time>
      </trkpt>
      <trkpt lat="45.13818" lon="5.44736">
        <ele>1116</ele>
        <time>2018-02-05T11:39:32Z</time>
      </trkpt>
      <trkpt lat="45.13814" lon="5.44739">
        <ele>1118</ele>
        <time>2018-02-05T11:40:32Z</time>
      </trkpt>
      <trkpt lat="45.13811" lon="5.44741">
        <ele>1119</ele>
        <time>2018-02-05T11:41:32Z</time>
      </trkpt>
      <trkpt lat="45.13807" lon="5.44741">
        <ele>1119</ele>
        <time>2018-02-05T11:42:32Z</time>
      </trkpt>
      <trkpt lat="45.13804" lon="5.44741">
        <ele>1120</ele>
        <time>2018-02-05T11:43:32Z</time>
      </trkpt>
      <trkpt lat="45.13799" lon="5.44739">
        <ele>1120</ele>
        <time>2018-02-05T11:44:32Z</time>
      </trkpt>
      <trkpt lat="45.13795" lon="5.44735">
        <ele>1120</ele>
        <time>2018-02-05T11:45:32Z</time>
      </trkpt>
      <trkpt lat="45.13792" lon="5.44729">
        <ele>1119</ele>
        <time>2018-02-05T11:46:32Z</time>
      </trkpt>
      <trkpt lat="45.13789" lon="5.44722">
        <ele>1118</ele>
        <time>2018-02-05T11:47:32Z</time>
      </trkpt>
      <trkpt lat="45.13786" lon="5.44717">
        <ele>1117</ele>
        <time>2018-02-05T11:48:32Z</time>
      </trkpt>
      <trkpt lat="45.1378" lon="5.44711">
        <ele>1117</ele>
        <time>2018-02-05T11:49:32Z</time>
      </trkpt>
      <trkpt lat="45.13771" lon="5.44704">
        <ele>1117</ele>
        <time>2018-02-05T11:50:32Z</time>
      </trkpt>
      <trkpt lat="45.13764" lon="5.44698">
        <ele>1117</ele>
        <time>2018-02-05T11:51:32Z</time>
      </trkpt>
      <trkpt lat="45.13758" lon="5.44692">
        <ele>1117</ele>
        <time>2018-02-05T11:52:32Z</time>
      </trkpt>
      <trkpt lat="45.13753" lon="5.44687">
        <ele>1117</ele>
        <time>2018-02-05T11:53:32Z</time>
      </trkpt>
      <trkpt lat="45.13747" lon="5.44683">
        <ele>1117</ele>
        <time>2018-02-05T11:54:32Z</time>
      </trkpt>
      <trkpt lat="45.1374" lon="5.44679">
        <ele>1119</ele>
        <time>2018-02-05T11:55:32Z</time>
      </trkpt>
      <trkpt lat="45.13733" lon="5.44676">
        <ele>1120</ele>
        <time>2018-02-05T11:56:32Z</time>
      </trkpt>
      <trkpt lat="45.13724" lon="5.44675">
        <ele>1122</ele>
        <time>2018-02-05T11:57:32Z</time>
      </trkpt>
      <trkpt lat="45.13716" lon="5.44672">
        <ele>1124</ele>
        <time>2018-02-05T11:58:32Z</time>
      </trkpt>
      <trkpt lat="45.13697" lon="5.44669">
        <ele>1129</ele>
        <time>2018-02-05T11:59:32Z</time>
      </trkpt>
      <trkpt lat="45.13679" lon="5.44665">
        <ele>1133</ele>
        <time>2018-02-05T12:00:32Z</time>
      </trkpt>
      <trkpt lat="45.13675" lon="5.44664">
        <ele>1134</ele>
        <time>2018-02-05T12:01:32Z</time>
      </trkpt>
      <trkpt lat="45.13645" lon="5.44652">
        <ele>1137</ele>
        <time>2018-02-05T12:02:32Z</time>
      </trkpt>
      <trkpt lat="45.13622" lon="5.44639">
        <ele>1138</ele>
        <time>2018-02-05T12:03:32Z</time>
      </trkpt>
      <trkpt lat="45.13619" lon="5.44637">
        <ele>1139</ele>
        <time>2018-02-05T12:04:32Z</time>
      </trkpt>
      <trkpt lat="45.13598" lon="5.44626">
        <ele>1140</ele>
        <time>2018-02-05T12:05:32Z</time>
      </trkpt>
      <trkpt lat="45.1358" lon="5.44617">
        <ele>1142</ele>
        <time>2018-02-05T12:06:32Z</time>
      </trkpt>
      <trkpt lat="45.13561" lon="5.44604">
        <ele>1145</ele>
        <time>2018-02-05T12:07:32Z</time>
      </trkpt>
      <trkpt lat="45.13556" lon="5.44596">
        <ele>1145</ele>
        <time>2018-02-05T12:08:32Z</time>
      </trkpt>
      <trkpt lat="45.13553" lon="5.44592">
        <ele>1145</ele>
        <time>2018-02-05T12:09:32Z</time>
      </trkpt>
      <trkpt lat="45.13546" lon="5.44583">
        <ele>1145</ele>
        <time>2018-02-05T12:10:32Z</time>
      </trkpt>
      <trkpt lat="45.13537" lon="5.44579">
        <ele>1146</ele>
        <time>2018-02-05T12:11:32Z</time>
      </trkpt>
      <trkpt lat="45.13534" lon="5.4458">
        <ele>1147</ele>
        <time>2018-02-05T12:12:32Z</time>
      </trkpt>
      <trkpt lat="45.13526" lon="5.44581">
        <ele>1150</ele>
        <time>2018-02-05T12:13:32Z</time>
      </trkpt>
      <trkpt lat="45.13517" lon="5.44583">
        <ele>1153</ele>
        <time>2018-02-05T12:14:32Z</time>
      </trkpt>
      <trkpt lat="45.13509" lon="5.44586">
        <ele>1156</ele>
        <time>2018-02-05T12:15:32Z</time>
      </trkpt>
      <trkpt lat="45.13506" lon="5.44586">
        <ele>1157</ele>
        <time>2018-02-05T12:16:32Z</time>
      </trkpt>
      <trkpt lat="45.13494" lon="5.4458">
        <ele>1159</ele>
        <time>2018-02-05T12:17:32Z</time>
      </trkpt>
      <trkpt lat="45.13489" lon="5.44575">
        <ele>1159</ele>
        <time>2018-02-05T12:18:32Z</time>
      </trkpt>
      <trkpt lat="45.13487" lon="5.44574">
        <ele>1159</ele>
        <time>2018-02-05T12:19:32Z</time>
      </trkpt>
      <trkpt lat="45.13487" lon="5.44561">
        <ele>1156</ele>
        <time>2018-02-05T12:20:32Z</time>
      </trkpt>
      <trkpt lat="45.13487" lon="5.44551">
        <ele>1154</ele>
        <time>2018-02-05T12:21:32Z</time>
      </trkpt>
      <trkpt lat="45.13487" lon="5.44542">
        <ele>1152</ele>
        <time>2018-02-05T12:22:32Z</time>
      </trkpt>
      <trkpt lat="45.13484" lon="5.44534">
        <ele>1151</ele>
        <time>2018-02-05T12:23:32Z</time>
      </trkpt>
      <trkpt lat="45.13478" lon="5.44527">
        <ele>1151</ele>
        <time>2018-02-05T12:24:32Z</time>
      </trkpt>
      <trkpt lat="45.13476" lon="5.44525">
        <ele>1152</ele>
        <time>2018-02-05T12:25:32Z</time>
      </trkpt>
      <trkpt lat="45.13472" lon="5.44521">
        <ele>1152</ele>
        <time>2018-02-05T12:26:32Z</time>
      </trkpt>
      <trkpt lat="45.13466" lon="5.44513">
        <ele>1152</ele>
        <time>2018-02-05T12:27:32Z</time>
      </trkpt>
      <trkpt lat="45.1346" lon="5.44505">
        <ele>1152</ele>
        <time>2018-02-05T12:28:32Z</time>
      </trkpt>
      <trkpt lat="45.13453" lon="5.44498">
        <ele>1153</ele>
        <time>2018-02-05T12:29:32Z</time>
      </trkpt>
      <trkpt lat="45.13448" lon="5.44494">
        <ele>1154</ele>
        <time>2018-02-05T12:30:32Z</time>
      </trkpt>
      <trkpt lat="45.13441" lon="5.44487">
        <ele>1154</ele>
        <time>2018-02-05T12:31:32Z</time>
      </trkpt>
      <trkpt lat="45.13434" lon="5.44477">
        <ele>1155</ele>
        <time>2018-02-05T12:32:32Z</time>
      </trkpt>
      <trkpt lat="45.13426" lon="5.44464">
        <ele>1154</ele>
        <time>2018-02-05T12:33:32Z</time>
      </trkpt>
      <trkpt lat="45.1342" lon="5.44454">
        <ele>1154</ele>
        <time>2018-02-05T12:34:32Z</time>
      </trkpt>
      <trkpt lat="45.13413" lon="5.44445">
        <ele>1155</ele>
        <time>2018-02-05T12:35:32Z</time>
      </trkpt>
      <trkpt lat="45.13403" lon="5.44433">
        <ele>1157</ele>
        <time>2018-02-05T12:36:32Z</time>
      </trkpt>
      <trkpt lat="45.13393" lon="5.44424">
        <ele>1160</ele>
        <time>2018-02-05T12:37:32Z</time>
      </trkpt>
      <trkpt lat="45.13387" lon="5.4442">
        <ele>1162</ele>
        <time>2018-02-05T12:38:32Z</time>
      </trkpt>
      <trkpt lat="45.13377" lon="5.44414">
        <ele>1165</ele>
        <time>2018-02-05T12:39:32Z</time>
      </trkpt>
      <trkpt lat="45.13368" lon="5.44404">
        <ele>1168</ele>
        <time>2018-02-05T12:40:32Z</time>
      </trkpt>
      <trkpt lat="45.13364" lon="5.44395">
        <ele>1169</ele>
        <time>2018-02-05T12:41:32Z</time>
      </trkpt>
      <trkpt lat="45.13362" lon="5.4439">
        <ele>1170</ele>
        <time>2018-02-05T12:42:32Z</time>
      </trkpt>
      <trkpt lat="45.13361" lon="5.44383">
        <ele>1169</ele>
        <time>2018-02-05T12:43:32Z</time>
      </trkpt>
      <trkpt lat="45.13359" lon="5.44374">
        <ele>1169</ele>
        <time>2018-02-05T12:44:32Z</time>
      </trkpt>
      <trkpt lat="45.13356" lon="5.44367">
        <ele>1170</ele>
        <time>2018-02-05T12:45:32Z</time>
      </trkpt>
      <trkpt lat="45.13352" lon="5.44359">
        <ele>1170</ele>
        <time>2018-02-05T12:46:32Z</time>
      </trkpt>
      <trkpt lat="45.13349" lon="5.44349">
        <ele>1170</ele>
        <time>2018-02-05T12:47:32Z</time>
      </trkpt>
      <trkpt lat="45.13346" lon="5.44338">
        <ele>1170</ele>
        <time>2018-02-05T12:48:32Z</time>
      </trkpt>
      <trkpt lat="45.13345" lon="5.4433">
        <ele>1170</ele>
        <time>2018-02-05T12:49:32Z</time>
      </trkpt>
      <trkpt lat="45.13346" lon="5.44322">
        <ele>1171</ele>
        <time>2018-02-05T12:50:32Z</time>
      </trkpt>
      <trkpt lat="45.13349" lon="5.44313">
        <ele>1171</ele>
        <time>2018-02-05T12:51:32Z</time>
      </trkpt>
      <trkpt lat="45.13357" lon="5.44288">
        <ele>1172</ele>
        <time>2018-02-05T12:52:32Z</time>
      </trkpt>
      <trkpt lat="45.13365" lon="5.44259">
        <ele>1173</ele>
        <time>2018-02-05T12:53:32Z</time>
      </trkpt>
      <trkpt lat="45.13371" lon="5.4424">
        <ele>1173</ele>
        <time>2018-02-05T12:54:32Z</time>
      </trkpt>
      <trkpt lat="45.13374" lon="5.44225">
        <ele>1173</ele>
        <time>2018-02-05T12:55:32Z</time>
      </trkpt>
      <trkpt lat="45.13378" lon="5.4421">
        <ele>1174</ele>
        <time>2018-02-05T12:56:32Z</time>
      </trkpt>
      <trkpt lat="45.13382" lon="5.44196">
        <ele>1174</ele>
        <time>2018-02-05T12:57:32Z</time>
      </trkpt>
      <trkpt lat="45.13385" lon="5.44182">
        <ele>1174</ele>
        <time>2018-02-05T12:58:32Z</time>
      </trkpt>
      <trkpt lat="45.1339" lon="5.44167">
        <ele>1175</ele>
        <time>2018-02-05T12:59:32Z</time>
      </trkpt>
      <trkpt lat="45.13401" lon="5.44137">
        <ele>1177</ele>
        <time>2018-02-05T13:00:32Z</time>
      </trkpt>
      <trkpt lat="45.13406" lon="5.44123">
        <ele>1177</ele>
        <time>2018-02-05T13:01:32Z</time>
      </trkpt>
      <trkpt lat="45.1341" lon="5.4411">
        <ele>1178</ele>
        <time>2018-02-05T13:02:32Z</time>
      </trkpt>
      <trkpt lat="45.13414" lon="5.44096">
        <ele>1179</ele>
        <time>2018-02-05T13:03:32Z</time>
      </trkpt>
      <trkpt lat="45.13415" lon="5.44084">
        <ele>1181</ele>
        <time>2018-02-05T13:04:32Z</time>
      </trkpt>
      <trkpt lat="45.13415" lon="5.44072">
        <ele>1181</ele>
        <time>2018-02-05T13:05:32Z</time>
      </trkpt>
      <trkpt lat="45.13414" lon="5.44062">
        <ele>1182</ele>
        <time>2018-02-05T13:06:32Z</time>
      </trkpt>
      <trkpt lat="45.13414" lon="5.44058">
        <ele>1182</ele>
        <time>2018-02-05T13:07:32Z</time>
      </trkpt>
      <trkpt lat="45.13412" lon="5.44045">
        <ele>1184</ele>
        <time>2018-02-05T13:08:32Z</time>
      </trkpt>
      <trkpt lat="45.1341" lon="5.44029">
        <ele>1186</ele>
        <time>2018-02-05T13:09:32Z</time>
      </trkpt>
      <trkpt lat="45.13408" lon="5.44009">
        <ele>1188</ele>
        <time>2018-02-05T13:10:32Z</time>
      </trkpt>
      <trkpt lat="45.13406" lon="5.43991">
        <ele>1188</ele>
        <time>2018-02-05T13:11:32Z</time>
      </trkpt>
      <trkpt lat="45.13405" lon="5.43987">
        <ele>1188</ele>
        <time>2018-02-05T13:12:32Z</time>
      </trkpt>
      <trkpt lat="45.13404" lon="5.4398">
        <ele>1187</ele>
        <time>2018-02-05T13:13:32Z</time>
      </trkpt>
      <trkpt lat="45.13403" lon="5.43972">
        <ele>1186</ele>
        <time>2018-02-05T13:14:32Z</time>
      </trkpt>
      <trkpt lat="45.13401" lon="5.43964">
        <ele>1186</ele>
        <time>2018-02-05T13:15:32Z</time>
      </trkpt>
      <trkpt lat="45.13399" lon="5.43957">
        <ele>1186</ele>
        <time>2018-02-05T13:16:32Z</time>
      </trkpt>
      <trkpt lat="45.13395" lon="5.43949">
        <ele>1187</ele>
        <time>2018-02-05T13:17:32Z</time>
      </trkpt>
      <trkpt lat="45.13391" lon="5.43941">
        <ele>1188</ele>
        <time>2018-02-05T13:18:32Z</time>
      </trkpt>
      <trkpt lat="45.13387" lon="5.43936">
        <ele>1190</ele>
        <time>2018-02-05T13:19:32Z</time>
      </trkpt>
      <trkpt lat="45.13381" lon="5.43926">
        <ele>1191</ele>
        <time>2018-02-05T13:20:32Z</time>
      </trkpt>
      <trkpt lat="45.13374" lon="5.43916">
        <ele>1193</ele>
        <time>2018-02-05T13:21:32Z</time>
      </trkpt>
      <trkpt lat="45.13363" lon="5.43899">
        <ele>1196</ele>
        <time>2018-02-05T13:22:32Z</time>
      </trkpt>
      <trkpt lat="45.13354" lon="5.43882">
        <ele>1198</ele>
        <time>2018-02-05T13:23:32Z</time>
      </trkpt>
      <trkpt lat="45.13342" lon="5.43857">
        <ele>1199</ele>
        <time>2018-02-05T13:24:32Z</time>
      </trkpt>
      <trkpt lat="45.13337" lon="5.43844">
        <ele>1199</ele>
        <time>2018-02-05T13:25:32Z</time>
      </trkpt>
      <trkpt lat="45.13332" lon="5.43831">
        <ele>1200</ele>
        <time>2018-02-05T13:26:32Z</time>
      </trkpt>
      <trkpt lat="45.13327" lon="5.43814">
        <ele>1205</ele>
        <time>2018-02-05T13:27:32Z</time>
      </trkpt>
      <trkpt lat="45.13323" lon="5.438">
        <ele>1208</ele>
        <time>2018-02-05T13:28:32Z</time>
      </trkpt>
      <trkpt lat="45.13321" lon="5.43787">
        <ele>1210</ele>
        <time>2018-02-05T13:29:32Z</time>
      </trkpt>
      <trkpt lat="45.13318" lon="5.43769">
        <ele>1212</ele>
        <time>2018-02-05T13:30:32Z</time>
      </trkpt>
      <trkpt lat="45.13315" lon="5.43744">
        <ele>1215</ele>
        <time>2018-02-05T13:31:32Z</time>
      </trkpt>
      <trkpt lat="45.13313" lon="5.43719">
        <ele>1216</ele>
        <time>2018-02-05T13:32:32Z</time>
      </trkpt>
      <trkpt lat="45.13311" lon="5.43699">
        <ele>1218</ele>
        <time>2018-02-05T13:33:32Z</time>
      </trkpt>
      <trkpt lat="45.13309" lon="5.43691">
        <ele>1220</ele>
        <time>2018-02-05T13:34:32Z</time>
      </trkpt>
      <trkpt lat="45.13306" lon="5.43681">
        <ele>1222</ele>
        <time>2018-02-05T13:35:32Z</time>
      </trkpt>
      <trkpt lat="45.13302" lon="5.43666">
        <ele>1225</ele>
        <time>2018-02-05T13:36:32Z</time>
      </trkpt>
      <trkpt lat="45.13297" lon="5.43644">
        <ele>1229</ele>
        <time>2018-02-05T13:37:32Z</time>
      </trkpt>
      <trkpt lat="45.13294" lon="5.43628">
        <ele>1231</ele>
        <time>2018-02-05T13:38:32Z</time>
      </trkpt>
      <trkpt lat="45.1329" lon="5.43592">
        <ele>1234</ele>
        <time>2018-02-05T13:39:32Z</time>
      </trkpt>
      <trkpt lat="45.13288" lon="5.43576">
        <ele>1237</ele>
        <time>2018-02-05T13:40:32Z</time>
      </trkpt>
      <trkpt lat="45.13288" lon="5.43561">
        <ele>1239</ele>
        <time>2018-02-05T13:41:32Z</time>
      </trkpt>
      <trkpt lat="45.13288" lon="5.43548">
        <ele>1241</ele>
        <time>2018-02-05T13:42:32Z</time>
      </trkpt>
      <trkpt lat="45.13289" lon="5.43533">
        <ele>1242</ele>
        <time>2018-02-05T13:43:32Z</time>
      </trkpt>
      <trkpt lat="45.13292" lon="5.43513">
        <ele>1242</ele>
        <time>2018-02-05T13:44:32Z</time>
      </trkpt>
      <trkpt lat="45.13295" lon="5.43493">
        <ele>1242</ele>
        <time>2018-02-05T13:45:32Z</time>
      </trkpt>
      <trkpt lat="45.133" lon="5.43464">
        <ele>1244</ele>
        <time>2018-02-05T13:46:32Z</time>
      </trkpt>
      <trkpt lat="45.13307" lon="5.4344">
        <ele>1243</ele>
        <time>2018-02-05T13:47:32Z</time>
      </trkpt>
      <trkpt lat="45.13315" lon="5.43418">
        <ele>1240</ele>
        <time>2018-02-05T13:48:32Z</time>
      </trkpt>
      <trkpt lat="45.13326" lon="5.43385">
        <ele>1237</ele>
        <time>2018-02-05T13:49:32Z</time>
      </trkpt>
      <trkpt lat="45.13333" lon="5.43361">
        <ele>1238</ele>
        <time>2018-02-05T13:50:32Z</time>
      </trkpt>
      <trkpt lat="45.1334" lon="5.43338">
        <ele>1239</ele>
        <time>2018-02-05T13:51:32Z</time>
      </trkpt>
      <trkpt lat="45.13344" lon="5.43317">
        <ele>1241</ele>
        <time>2018-02-05T13:52:32Z</time>
      </trkpt>
      <trkpt lat="45.13347" lon="5.43307">
        <ele>1241</ele>
        <time>2018-02-05T13:53:32Z</time>
      </trkpt>
      <trkpt lat="45.13351" lon="5.43294">
        <ele>1242</ele>
        <time>2018-02-05T13:54:32Z</time>
      </trkpt>
      <trkpt lat="45.13358" lon="5.43274">
        <ele>1242</ele>
        <time>2018-02-05T13:55:32Z</time>
      </trkpt>
      <trkpt lat="45.13365" lon="5.43256">
        <ele>1243</ele>
        <time>2018-02-05T13:56:32Z</time>
      </trkpt>
      <trkpt lat="45.13376" lon="5.43235">
        <ele>1241</ele>
        <time>2018-02-05T13:57:32Z</time>
      </trkpt>
      <trkpt lat="45.13385" lon="5.4322">
        <ele>1238</ele>
        <time>2018-02-05T13:58:32Z</time>
      </trkpt>
      <trkpt lat="45.13392" lon="5.43212">
        <ele>1237</ele>
        <time>2018-02-05T13:59:32Z</time>
      </trkpt>
      <trkpt lat="45.13401" lon="5.43203">
        <ele>1235</ele>
        <time>2018-02-05T14:00:32Z</time>
      </trkpt>
      <trkpt lat="45.13407" lon="5.43197">
        <ele>1234</ele>
        <time>2018-02-05T14:01:32Z</time>
      </trkpt>
      <trkpt lat="45.13414" lon="5.4319">
        <ele>1233</ele>
        <time>2018-02-05T14:02:32Z</time>
      </trkpt>
      <trkpt lat="45.13418" lon="5.43188">
        <ele>1233</ele>
        <time>2018-02-05T14:03:32Z</time>
      </trkpt>
      <trkpt lat="45.1342" lon="5.43185">
        <ele>1234</ele>
        <time>2018-02-05T14:04:32Z</time>
      </trkpt>
      <trkpt lat="45.13421" lon="5.43183">
        <ele>1234</ele>
        <time>2018-02-05T14:05:32Z</time>
      </trkpt>
      <trkpt lat="45.13422" lon="5.43181">
        <ele>1235</ele>
        <time>2018-02-05T14:06:32Z</time>
      </trkpt>
      <trkpt lat="45.13423" lon="5.43179">
        <ele>1235</ele>
        <time>2018-02-05T14:07:32Z</time>
      </trkpt>
      <trkpt lat="45.13423" lon="5.43177">
        <ele>1236</ele>
        <time>2018-02-05T14:08:32Z</time>
      </trkpt>
      <trkpt lat="45.13423" lon="5.43175">
        <ele>1236</ele>
        <time>2018-02-05T14:09:32Z</time>
      </trkpt>
      <trkpt lat="45.13423" lon="5.43172">
        <ele>1237</ele>
        <time>2018-02-05T14:10:32Z</time>
      </trkpt>
      <trkpt lat="45.13423" lon="5.43172">
        <ele>1237</ele>
        <time>2018-02-05T14:11:32Z</time>
      </trkpt>
      <trkpt lat="45.13422" lon="5.4317">
        <ele>1237</ele>
        <time>2018-02-05T14:12:32Z</time>
      </trkpt>
      <trkpt lat="45.1342" lon="5.43168">
        <ele>1238</ele>
        <time>2018-02-05T14:13:32Z</time>
      </trkpt>
      <trkpt lat="45.13419" lon="5.43167">
        <ele>1238</ele>
        <time>2018-02-05T14:14:32Z</time>
      </trkpt>
      <trkpt lat="45.13417" lon="5.43167">
        <ele>1238</ele>
        <time>2018-02-05T14:15:32Z</time>
      </trkpt>
      <trkpt lat="45.13413" lon="5.43167">
        <ele>1239</ele>
        <time>2018-02-05T14:16:32Z</time>
      </trkpt>
      <trkpt lat="45.13409" lon="5.43168">
        <ele>1239</ele>
        <time>2018-02-05T14:17:32Z</time>
      </trkpt>
      <trkpt lat="45.13399" lon="5.43169">
        <ele>1241</ele>
        <time>2018-02-05T14:18:32Z</time>
      </trkpt>
      <trkpt lat="45.13391" lon="5.4317">
        <ele>1243</ele>
        <time>2018-02-05T14:19:32Z</time>
      </trkpt>
      <trkpt lat="45.13364" lon="5.43171">
        <ele>1249</ele>
        <time>2018-02-05T14:20:32Z</time>
      </trkpt>
      <trkpt lat="45.13337" lon="5.43171">
        <ele>1255</ele>
        <time>2018-02-05T14:21:32Z</time>
      </trkpt>
      <trkpt lat="45.13301" lon="5.43173">
        <ele>1256</ele>
        <time>2018-02-05T14:22:32Z</time>
      </trkpt>
      <trkpt lat="45.13278" lon="5.43175">
        <ele>1257</ele>
        <time>2018-02-05T14:23:32Z</time>
      </trkpt>
      <trkpt lat="45.13266" lon="5.43177">
        <ele>1257</ele>
        <time>2018-02-05T14:24:32Z</time>
      </trkpt>
      <trkpt lat="45.1326" lon="5.43179">
        <ele>1258</ele>
        <time>2018-02-05T14:25:32Z</time>
      </trkpt>
      <trkpt lat="45.13247" lon="5.43184">
        <ele>1259</ele>
        <time>2018-02-05T14:26:32Z</time>
      </trkpt>
      <trkpt lat="45.1324" lon="5.43189">
        <ele>1260</ele>
        <time>2018-02-05T14:27:32Z</time>
      </trkpt>
      <trkpt lat="45.13232" lon="5.43197">
        <ele>1261</ele>
        <time>2018-02-05T14:28:32Z</time>
      </trkpt>
      <trkpt lat="45.1322" lon="5.4321">
        <ele>1263</ele>
        <time>2018-02-05T14:29:32Z</time>
      </trkpt>
      <trkpt lat="45.13188" lon="5.4325">
        <ele>1268</ele>
        <time>2018-02-05T14:30:32Z</time>
      </trkpt>
      <trkpt lat="45.13172" lon="5.43273">
        <ele>1271</ele>
        <time>2018-02-05T14:31:32Z</time>
      </trkpt>
      <trkpt lat="45.13158" lon="5.43296">
        <ele>1273</ele>
        <time>2018-02-05T14:32:32Z</time>
      </trkpt>
      <trkpt lat="45.13148" lon="5.43316">
        <ele>1274</ele>
        <time>2018-02-05T14:33:32Z</time>
      </trkpt>
      <trkpt lat="45.13133" lon="5.43349">
        <ele>1278</ele>
        <time>2018-02-05T14:34:32Z</time>
      </trkpt>
      <trkpt lat="45.1312" lon="5.43377">
        <ele>1282</ele>
        <time>2018-02-05T14:35:32Z</time>
      </trkpt>
      <trkpt lat="45.13106" lon="5.43408">
        <ele>1287</ele>
        <time>2018-02-05T14:36:32Z</time>
      </trkpt>
      <trkpt lat="45.13099" lon="5.43421">
        <ele>1288</ele>
        <time>2018-02-05T14:37:32Z</time>
      </trkpt>
      <trkpt lat="45.1309" lon="5.43436">
        <ele>1288</ele>
        <time>2018-02-05T14:38:32Z</time>
      </trkpt>
      <trkpt lat="45.1308" lon="5.4345">
        <ele>1288</ele>
        <time>2018-02-05T14:39:32Z</time>
      </trkpt>
      <trkpt lat="45.13066" lon="5.43466">
        <ele>1289</ele>
        <time>2018-02-05T14:40:32Z</time>
      </trkpt>
      <trkpt lat="45.13058" lon="5.43475">
        <ele>1290</ele>
        <time>2018-02-05T14:41:32Z</time>
      </trkpt>
      <trkpt lat="45.13052" lon="5.43477">
        <ele>1290</ele>
        <time>2018-02-05T14:42:32Z</time>
      </trkpt>
      <trkpt lat="45.13046" lon="5.43449">
        <ele>1288</ele>
        <time>2018-02-05T14:43:32Z</time>
      </trkpt>
      <trkpt lat="45.13043" lon="5.43437">
        <ele>1287</ele>
        <time>2018-02-05T14:44:32Z</time>
      </trkpt>
      <trkpt lat="45.1304" lon="5.43427">
        <ele>1286</ele>
        <time>2018-02-05T14:45:32Z</time>
      </trkpt>
      <trkpt lat="45.13036" lon="5.4342">
        <ele>1286</ele>
        <time>2018-02-05T14:46:32Z</time>
      </trkpt>
      <trkpt lat="45.13033" lon="5.43413">
        <ele>1285</ele>
        <time>2018-02-05T14:47:32Z</time>
      </trkpt>
      <trkpt lat="45.13026" lon="5.43405">
        <ele>1284</ele>
        <time>2018-02-05T14:48:32Z</time>
      </trkpt>
      <trkpt lat="45.13016" lon="5.43395">
        <ele>1283</ele>
        <time>2018-02-05T14:49:32Z</time>
      </trkpt>
      <trkpt lat="45.13005" lon="5.43385">
        <ele>1282</ele>
        <time>2018-02-05T14:50:32Z</time>
      </trkpt>
      <trkpt lat="45.12986" lon="5.43374">
        <ele>1284</ele>
        <time>2018-02-05T14:51:32Z</time>
      </trkpt>
      <trkpt lat="45.12957" lon="5.43354">
        <ele>1286</ele>
        <time>2018-02-05T14:52:32Z</time>
      </trkpt>
      <trkpt lat="45.12939" lon="5.43342">
        <ele>1288</ele>
        <time>2018-02-05T14:53:32Z</time>
      </trkpt>
      <trkpt lat="45.12893" lon="5.43306">
        <ele>1290</ele>
        <time>2018-02-05T14:54:32Z</time>
      </trkpt>
      <trkpt lat="45.12881" lon="5.43293">
        <ele>1290</ele>
        <time>2018-02-05T14:55:32Z</time>
      </trkpt>
      <trkpt lat="45.12872" lon="5.43283">
        <ele>1290</ele>
        <time>2018-02-05T14:56:32Z</time>
      </trkpt>
      <trkpt lat="45.12867" lon="5.43275">
        <ele>1290</ele>
        <time>2018-02-05T14:57:32Z</time>
      </trkpt>
      <trkpt lat="45.12859" lon="5.43267">
        <ele>1290</ele>
        <time>2018-02-05T14:58:32Z</time>
      </trkpt>
      <trkpt lat="45.12855" lon="5.43261">
        <ele>1290</ele>
        <time>2018-02-05T14:59:32Z</time>
      </trkpt>
      <trkpt lat="45.12853" lon="5.43256">
        <ele>1289</ele>
        <time>2018-02-05T15:00:32Z</time>
      </trkpt>
      <trkpt lat="45.12852" lon="5.43248">
        <ele>1288</ele>
        <time>2018-02-05T15:01:32Z</time>
      </trkpt>
      <trkpt lat="45.12852" lon="5.43239">
        <ele>1288</ele>
        <time>2018-02-05T15:02:32Z</time>
      </trkpt>
      <trkpt lat="45.12852" lon="5.43232">
        <ele>1288</ele>
        <time>2018-02-05T15:03:32Z</time>
      </trkpt>
      <trkpt lat="45.12853" lon="5.43221">
        <ele>1288</ele>
        <time>2018-02-05T15:04:32Z</time>
      </trkpt>
      <trkpt lat="45.12854" lon="5.4321">
        <ele>1287</ele>
        <time>2018-02-05T15:05:32Z</time>
      </trkpt>
      <trkpt lat="45.12858" lon="5.43197">
        <ele>1286</ele>
        <time>2018-02-05T15:06:32Z</time>
      </trkpt>
      <trkpt lat="45.12863" lon="5.43183">
        <ele>1285</ele>
        <time>2018-02-05T15:07:32Z</time>
      </trkpt>
      <trkpt lat="45.12867" lon="5.43174">
        <ele>1284</ele>
        <time>2018-02-05T15:08:32Z</time>
      </trkpt>
      <trkpt lat="45.12871" lon="5.43163">
        <ele>1282</ele>
        <time>2018-02-05T15:09:32Z</time>
      </trkpt>
      <trkpt lat="45.12873" lon="5.43157">
        <ele>1282</ele>
        <time>2018-02-05T15:10:32Z</time>
      </trkpt>
      <trkpt lat="45.12876" lon="5.43149">
        <ele>1281</ele>
        <time>2018-02-05T15:11:32Z</time>
      </trkpt>
      <trkpt lat="45.12877" lon="5.43141">
        <ele>1281</ele>
        <time>2018-02-05T15:12:32Z</time>
      </trkpt>
      <trkpt lat="45.12879" lon="5.43132">
        <ele>1280</ele>
        <time>2018-02-05T15:13:32Z</time>
      </trkpt>
      <trkpt lat="45.1288" lon="5.43117">
        <ele>1280</ele>
        <time>2018-02-05T15:14:32Z</time>
      </trkpt>
      <trkpt lat="45.12881" lon="5.431">
        <ele>1279</ele>
        <time>2018-02-05T15:15:32Z</time>
      </trkpt>
      <trkpt lat="45.12881" lon="5.43076">
        <ele>1279</ele>
        <time>2018-02-05T15:16:32Z</time>
      </trkpt>
      <trkpt lat="45.12881" lon="5.43046">
        <ele>1279</ele>
        <time>2018-02-05T15:17:32Z</time>
      </trkpt>
      <trkpt lat="45.12882" lon="5.43016">
        <ele>1279</ele>
        <time>2018-02-05T15:18:32Z</time>
      </trkpt>
      <trkpt lat="45.12884" lon="5.43005">
        <ele>1278</ele>
        <time>2018-02-05T15:19:32Z</time>
      </trkpt>
      <trkpt lat="45.12886" lon="5.42992">
        <ele>1278</ele>
        <time>2018-02-05T15:20:32Z</time>
      </trkpt>
      <trkpt lat="45.12889" lon="5.42982">
        <ele>1277</ele>
        <time>2018-02-05T15:21:32Z</time>
      </trkpt>
      <trkpt lat="45.12894" lon="5.42972">
        <ele>1275</ele>
        <time>2018-02-05T15:22:32Z</time>
      </trkpt>
      <trkpt lat="45.129" lon="5.4296">
        <ele>1273</ele>
        <time>2018-02-05T15:23:32Z</time>
      </trkpt>
      <trkpt lat="45.12914" lon="5.42934">
        <ele>1267</ele>
        <time>2018-02-05T15:24:32Z</time>
      </trkpt>
      <trkpt lat="45.12926" lon="5.42905">
        <ele>1262</ele>
        <time>2018-02-05T15:25:32Z</time>
      </trkpt>
      <trkpt lat="45.12932" lon="5.42887">
        <ele>1259</ele>
        <time>2018-02-05T15:26:32Z</time>
      </trkpt>
      <trkpt lat="45.12935" lon="5.42876">
        <ele>1258</ele>
        <time>2018-02-05T15:27:32Z</time>
      </trkpt>
      <trkpt lat="45.12937" lon="5.42866">
        <ele>1256</ele>
        <time>2018-02-05T15:28:32Z</time>
      </trkpt>
      <trkpt lat="45.12938" lon="5.42856">
        <ele>1255</ele>
        <time>2018-02-05T15:29:32Z</time>
      </trkpt>
      <trkpt lat="45.12939" lon="5.42845">
        <ele>1254</ele>
        <time>2018-02-05T15:30:32Z</time>
      </trkpt>
      <trkpt lat="45.12938" lon="5.42835">
        <ele>1254</ele>
        <time>2018-02-05T15:31:32Z</time>
      </trkpt>
      <trkpt lat="45.12937" lon="5.42826">
        <ele>1253</ele>
        <time>2018-02-05T15:32:32Z</time>
      </trkpt>
      <trkpt lat="45.12935" lon="5.42814">
        <ele>1251</ele>
        <time>2018-02-05T15:33:32Z</time>
      </trkpt>
      <trkpt lat="45.1293" lon="5.42795">
        <ele>1249</ele>
        <time>2018-02-05T15:34:32Z</time>
      </trkpt>
      <trkpt lat="45.12924" lon="5.42769">
        <ele>1245</ele>
        <time>2018-02-05T15:35:32Z</time>
      </trkpt>
      <trkpt lat="45.12911" lon="5.42735">
        <ele>1243</ele>
        <time>2018-02-05T15:36:32Z</time>
      </trkpt>
      <trkpt lat="45.12906" lon="5.42722">
        <ele>1242</ele>
        <time>2018-02-05T15:37:32Z</time>
      </trkpt>
      <trkpt lat="45.12901" lon="5.4271">
        <ele>1241</ele>
        <time>2018-02-05T15:38:32Z</time>
      </trkpt>
      <trkpt lat="45.12897" lon="5.42703">
        <ele>1241</ele>
        <time>2018-02-05T15:39:32Z</time>
      </trkpt>
      <trkpt lat="45.12892" lon="5.42696">
        <ele>1241</ele>
        <time>2018-02-05T15:40:32Z</time>
      </trkpt>
      <trkpt lat="45.12884" lon="5.42686">
        <ele>1240</ele>
        <time>2018-02-05T15:41:32Z</time>
      </trkpt>
      <trkpt lat="45.12876" lon="5.42678">
        <ele>1239</ele>
        <time>2018-02-05T15:42:32Z</time>
      </trkpt>
      <trkpt lat="45.12867" lon="5.42671">
        <ele>1239</ele>
        <time>2018-02-05T15:43:32Z</time>
      </trkpt>
      <trkpt lat="45.12859" lon="5.42664">
        <ele>1238</ele>
        <time>2018-02-05T15:44:32Z</time>
      </trkpt>
      <trkpt lat="45.12848" lon="5.42659">
        <ele>1238</ele>
        <time>2018-02-05T15:45:32Z</time>
      </trkpt>
      <trkpt lat="45.12837" lon="5.42653">
        <ele>1237</ele>
        <time>2018-02-05T15:46:32Z</time>
      </trkpt>
      <trkpt lat="45.1283" lon="5.4265">
        <ele>1237</ele>
        <time>2018-02-05T15:47:32Z</time>
      </trkpt>
      <trkpt lat="45.1282" lon="5.42645">
        <ele>1234</ele>
        <time>2018-02-05T15:48:32Z</time>
      </trkpt>
      <trkpt lat="45.12812" lon="5.42642">
        <ele>1233</ele>
        <time>2018-02-05T15:49:32Z</time>
      </trkpt>
      <trkpt lat="45.12806" lon="5.4264">
        <ele>1232</ele>
        <time>2018-02-05T15:50:32Z</time>
      </trkpt>
      <trkpt lat="45.12802" lon="5.42641">
        <ele>1232</ele>
        <time>2018-02-05T15:51:32Z</time>
      </trkpt>
      <trkpt lat="45.12795" lon="5.42642">
        <ele>1231</ele>
        <time>2018-02-05T15:52:32Z</time>
      </trkpt>
      <trkpt lat="45.12784" lon="5.42644">
        <ele>1231</ele>
        <time>2018-02-05T15:53:32Z</time>
      </trkpt>
      <trkpt lat="45.12767" lon="5.4265">
        <ele>1231</ele>
        <time>2018-02-05T15:54:32Z</time>
      </trkpt>
      <trkpt lat="45.12749" lon="5.42656">
        <ele>1232</ele>
        <time>2018-02-05T15:55:32Z</time>
      </trkpt>
      <trkpt lat="45.12729" lon="5.42662">
        <ele>1231</ele>
        <time>2018-02-05T15:56:32Z</time>
      </trkpt>
      <trkpt lat="45.1271" lon="5.42668">
        <ele>1231</ele>
        <time>2018-02-05T15:57:32Z</time>
      </trkpt>
      <trkpt lat="45.12691" lon="5.4267">
        <ele>1230</ele>
        <time>2018-02-05T15:58:32Z</time>
      </trkpt>
      <trkpt lat="45.12681" lon="5.42671">
        <ele>1229</ele>
        <time>2018-02-05T15:59:32Z</time>
      </trkpt>
      <trkpt lat="45.12671" lon="5.42671">
        <ele>1228</ele>
        <time>2018-02-05T16:00:32Z</time>
      </trkpt>
      <trkpt lat="45.12664" lon="5.4267">
        <ele>1228</ele>
        <time>2018-02-05T16:01:32Z</time>
      </trkpt>
      <trkpt lat="45.12658" lon="5.42669">
        <ele>1229</ele>
        <time>2018-02-05T16:02:32Z</time>
      </trkpt>
      <trkpt lat="45.12653" lon="5.42667">
        <ele>1230</ele>
        <time>2018-02-05T16:03:32Z</time>
      </trkpt>
      <trkpt lat="45.12648" lon="5.42664">
        <ele>1231</ele>
        <time>2018-02-05T16:04:32Z</time>
      </trkpt>
      <trkpt lat="45.12644" lon="5.42661">
        <ele>1232</ele>
        <time>2018-02-05T16:05:32Z</time>
      </trkpt>
      <trkpt lat="45.1264" lon="5.42655">
        <ele>1233</ele>
        <time>2018-02-05T16:06:32Z</time>
      </trkpt>
      <trkpt lat="45.12637" lon="5.42649">
        <ele>1233</ele>
        <time>2018-02-05T16:07:32Z</time>
      </trkpt>
      <trkpt lat="45.12632" lon="5.42634">
        <ele>1233</ele>
        <time>2018-02-05T16:08:32Z</time>
      </trkpt>
      <trkpt lat="45.12631" lon="5.42622">
        <ele>1232</ele>
        <time>2018-02-05T16:09:32Z</time>
      </trkpt>
      <trkpt lat="45.1263" lon="5.42607">
        <ele>1232</ele>
        <time>2018-02-05T16:10:32Z</time>
      </trkpt>
      <trkpt lat="45.12632" lon="5.42596">
        <ele>1230</ele>
        <time>2018-02-05T16:11:32Z</time>
      </trkpt>
      <trkpt lat="45.12635" lon="5.42582">
        <ele>1228</ele>
        <time>2018-02-05T16:12:32Z</time>
      </trkpt>
      <trkpt lat="45.12639" lon="5.42569">
        <ele>1226</ele>
        <time>2018-02-05T16:13:32Z</time>
      </trkpt>
      <trkpt lat="45.1265" lon="5.42544">
        <ele>1221</ele>
        <time>2018-02-05T16:14:32Z</time>
      </trkpt>
      <trkpt lat="45.12658" lon="5.42525">
        <ele>1217</ele>
        <time>2018-02-05T16:15:32Z</time>
      </trkpt>
      <trkpt lat="45.12661" lon="5.42515">
        <ele>1215</ele>
        <time>2018-02-05T16:16:32Z</time>
      </trkpt>
      <trkpt lat="45.12663" lon="5.42502">
        <ele>1214</ele>
        <time>2018-02-05T16:17:32Z</time>
      </trkpt>
      <trkpt lat="45.12666" lon="5.42488">
        <ele>1214</ele>
        <time>2018-02-05T16:18:32Z</time>
      </trkpt>
      <trkpt lat="45.12669" lon="5.42469">
        <ele>1216</ele>
        <time>2018-02-05T16:19:32Z</time>
      </trkpt>
      <trkpt lat="45.12675" lon="5.42437">
        <ele>1219</ele>
        <time>2018-02-05T16:20:32Z</time>
      </trkpt>
      <trkpt lat="45.1268" lon="5.42403">
        <ele>1221</ele>
        <time>2018-02-05T16:21:32Z</time>
      </trkpt>
      <trkpt lat="45.12687" lon="5.42353">
        <ele>1221</ele>
        <time>2018-02-05T16:22:32Z</time>
      </trkpt>
      <trkpt lat="45.12687" lon="5.42345">
        <ele>1222</ele>
        <time>2018-02-05T16:23:32Z</time>
      </trkpt>
      <trkpt lat="45.12687" lon="5.42339">
        <ele>1222</ele>
        <time>2018-02-05T16:24:32Z</time>
      </trkpt>
      <trkpt lat="45.12687" lon="5.42331">
        <ele>1222</ele>
        <time>2018-02-05T16:25:32Z</time>
      </trkpt>
      <trkpt lat="45.12687" lon="5.42324">
        <ele>1221</ele>
        <time>2018-02-05T16:26:32Z</time>
      </trkpt>
      <trkpt lat="45.12685" lon="5.42313">
        <ele>1221</ele>
        <time>2018-02-05T16:27:32Z</time>
      </trkpt>
      <trkpt lat="45.12683" lon="5.42302">
        <ele>1220</ele>
        <time>2018-02-05T16:28:32Z</time>
      </trkpt>
      <trkpt lat="45.12679" lon="5.42288">
        <ele>1220</ele>
        <time>2018-02-05T16:29:32Z</time>
      </trkpt>
      <trkpt lat="45.12671" lon="5.42267">
        <ele>1220</ele>
        <time>2018-02-05T16:30:32Z</time>
      </trkpt>
      <trkpt lat="45.12662" lon="5.42243">
        <ele>1219</ele>
        <time>2018-02-05T16:31:32Z</time>
      </trkpt>
      <trkpt lat="45.12656" lon="5.42227">
        <ele>1219</ele>
        <time>2018-02-05T16:32:32Z</time>
      </trkpt>
      <trkpt lat="45.12644" lon="5.422">
        <ele>1218</ele>
        <time>2018-02-05T16:33:32Z</time>
      </trkpt>
      <trkpt lat="45.12639" lon="5.42188">
        <ele>1218</ele>
        <time>2018-02-05T16:34:32Z</time>
      </trkpt>
      <trkpt lat="45.12629" lon="5.42154">
        <ele>1217</ele>
        <time>2018-02-05T16:35:32Z</time>
      </trkpt>
      <trkpt lat="45.12628" lon="5.42152">
        <ele>1217</ele>
        <time>2018-02-05T16:36:32Z</time>
      </trkpt>
      <trkpt lat="45.12623" lon="5.42134">
        <ele>1217</ele>
        <time>2018-02-05T16:37:32Z</time>
      </trkpt>
      <trkpt lat="45.12618" lon="5.42111">
        <ele>1216</ele>
        <time>2018-02-05T16:38:32Z</time>
      </trkpt>
      <trkpt lat="45.12615" lon="5.421">
        <ele>1216</ele>
        <time>2018-02-05T16:39:32Z</time>
      </trkpt>
      <trkpt lat="45.12612" lon="5.42089">
        <ele>1215</ele>
        <time>2018-02-05T16:40:32Z</time>
      </trkpt>
      <trkpt lat="45.12607" lon="5.42078">
        <ele>1215</ele>
        <time>2018-02-05T16:41:32Z</time>
      </trkpt>
      <trkpt lat="45.12602" lon="5.42068">
        <ele>1215</ele>
        <time>2018-02-05T16:42:32Z</time>
      </trkpt>
      <trkpt lat="45.12598" lon="5.42059">
        <ele>1215</ele>
        <time>2018-02-05T16:43:32Z</time>
      </trkpt>
      <trkpt lat="45.1259" lon="5.42045">
        <ele>1215</ele>
        <time>2018-02-05T16:44:32Z</time>
      </trkpt>
      <trkpt lat="45.12585" lon="5.42036">
        <ele>1215</ele>
        <time>2018-02-05T16:45:32Z</time>
      </trkpt>
      <trkpt lat="45.12582" lon="5.42027">
        <ele>1214</ele>
        <time>2018-02-05T16:46:32Z</time>
      </trkpt>
      <trkpt lat="45.12579" lon="5.4201">
        <ele>1212</ele>
        <time>2018-02-05T16:47:32Z</time>
      </trkpt>
      <trkpt lat="45.12575" lon="5.41988">
        <ele>1210</ele>
        <time>2018-02-05T16:48:32Z</time>
      </trkpt>
      <trkpt lat="45.12572" lon="5.41967">
        <ele>1209</ele>
        <time>2018-02-05T16:49:32Z</time>
      </trkpt>
      <trkpt lat="45.1257" lon="5.41957">
        <ele>1208</ele>
        <time>2018-02-05T16:50:32Z</time>
      </trkpt>
      <trkpt lat="45.12568" lon="5.41947">
        <ele>1208</ele>
        <time>2018-02-05T16:51:32Z</time>
      </trkpt>
      <trkpt lat="45.12567" lon="5.41937">
        <ele>1207</ele>
        <time>2018-02-05T16:52:32Z</time>
      </trkpt>
      <trkpt lat="45.12567" lon="5.41926">
        <ele>1206</ele>
        <time>2018-02-05T16:53:32Z</time>
      </trkpt>
      <trkpt lat="45.12566" lon="5.41917">
        <ele>1205</ele>
        <time>2018-02-05T16:54:32Z</time>
      </trkpt>
      <trkpt lat="45.12566" lon="5.41906">
        <ele>1205</ele>
        <time>2018-02-05T16:55:32Z</time>
      </trkpt>
      <trkpt lat="45.12564" lon="5.41899">
        <ele>1205</ele>
        <time>2018-02-05T16:56:32Z</time>
      </trkpt>
      <trkpt lat="45.12562" lon="5.41893">
        <ele>1205</ele>
        <time>2018-02-05T16:57:32Z</time>
      </trkpt>
      <trkpt lat="45.12559" lon="5.41889">
        <ele>1205</ele>
        <time>2018-02-05T16:58:32Z</time>
      </trkpt>
      <trkpt lat="45.12555" lon="5.41885">
        <ele>1205</ele>
        <time>2018-02-05T16:59:32Z</time>
      </trkpt>
      <trkpt lat="45.1255" lon="5.41882">
        <ele>1204</ele>
        <time>2018-02-05T17:00:32Z</time>
      </trkpt>
      <trkpt lat="45.12544" lon="5.41879">
        <ele>1204</ele>
        <time>2018-02-05T17:01:32Z</time>
      </trkpt>
      <trkpt lat="45.12535" lon="5.41878">
        <ele>1204</ele>
        <time>2018-02-05T17:02:32Z</time>
      </trkpt>
      <trkpt lat="45.12522" lon="5.41878">
        <ele>1203</ele>
        <time>2018-02-05T17:03:32Z</time>
      </trkpt>
      <trkpt lat="45.12512" lon="5.4188">
        <ele>1203</ele>
        <time>2018-02-05T17:04:32Z</time>
      </trkpt>
      <trkpt lat="45.12505" lon="5.41881">
        <ele>1203</ele>
        <time>2018-02-05T17:05:32Z</time>
      </trkpt>
      <trkpt lat="45.125" lon="5.41884">
        <ele>1202</ele>
        <time>2018-02-05T17:06:32Z</time>
      </trkpt>
      <trkpt lat="45.12494" lon="5.41888">
        <ele>1202</ele>
        <time>2018-02-05T17:07:32Z</time>
      </trkpt>
      <trkpt lat="45.12487" lon="5.41892">
        <ele>1202</ele>
        <time>2018-02-05T17:08:32Z</time>
      </trkpt>
      <trkpt lat="45.12483" lon="5.41895">
        <ele>1202</ele>
        <time>2018-02-05T17:09:32Z</time>
      </trkpt>
      <trkpt lat="45.12477" lon="5.41897">
        <ele>1202</ele>
        <time>2018-02-05T17:10:32Z</time>
      </trkpt>
      <trkpt lat="45.12472" lon="5.41897">
        <ele>1202</ele>
        <time>2018-02-05T17:11:32Z</time>
      </trkpt>
      <trkpt lat="45.12466" lon="5.41897">
        <ele>1202</ele>
        <time>2018-02-05T17:12:32Z</time>
      </trkpt>
      <trkpt lat="45.12458" lon="5.41896">
        <ele>1201</ele>
        <time>2018-02-05T17:13:32Z</time>
      </trkpt>
      <trkpt lat="45.12449" lon="5.41895">
        <ele>1201</ele>
        <time>2018-02-05T17:14:32Z</time>
      </trkpt>
      <trkpt lat="45.12438" lon="5.41896">
        <ele>1201</ele>
        <time>2018-02-05T17:15:32Z</time>
      </trkpt>
      <trkpt lat="45.12428" lon="5.41896">
        <ele>1200</ele>
        <time>2018-02-05T17:16:32Z</time>
      </trkpt>
      <trkpt lat="45.12418" lon="5.41897">
        <ele>1200</ele>
        <time>2018-02-05T17:17:32Z</time>
      </trkpt>
      <trkpt lat="45.1241" lon="5.41899">
        <ele>1199</ele>
        <time>2018-02-05T17:18:32Z</time>
      </trkpt>
      <trkpt lat="45.12401" lon="5.41902">
        <ele>1198</ele>
        <time>2018-02-05T17:19:32Z</time>
      </trkpt>
      <trkpt lat="45.12393" lon="5.41906">
        <ele>1197</ele>
        <time>2018-02-05T17:20:32Z</time>
      </trkpt>
      <trkpt lat="45.12388" lon="5.41911">
        <ele>1197</ele>
        <time>2018-02-05T17:21:32Z</time>
      </trkpt>
      <trkpt lat="45.1238" lon="5.4192">
        <ele>1196</ele>
        <time>2018-02-05T17:22:32Z</time>
      </trkpt>
      <trkpt lat="45.12376" lon="5.4193">
        <ele>1196</ele>
        <time>2018-02-05T17:23:32Z</time>
      </trkpt>
      <trkpt lat="45.12371" lon="5.41943">
        <ele>1196</ele>
        <time>2018-02-05T17:24:32Z</time>
      </trkpt>
      <trkpt lat="45.12368" lon="5.41958">
        <ele>1197</ele>
        <time>2018-02-05T17:25:32Z</time>
      </trkpt>
      <trkpt lat="45.1236" lon="5.4198">
        <ele>1197</ele>
        <time>2018-02-05T17:26:32Z</time>
      </trkpt>
      <trkpt lat="45.12356" lon="5.4199">
        <ele>1196</ele>
        <time>2018-02-05T17:27:32Z</time>
      </trkpt>
      <trkpt lat="45.12353" lon="5.41998">
        <ele>1196</ele>
        <time>2018-02-05T17:28:32Z</time>
      </trkpt>
      <trkpt lat="45.12349" lon="5.42002">
        <ele>1196</ele>
        <time>2018-02-05T17:29:32Z</time>
      </trkpt>
      <trkpt lat="45.12344" lon="5.42005">
        <ele>1196</ele>
        <time>2018-02-05T17:30:32Z</time>
      </trkpt>
      <trkpt lat="45.1234" lon="5.42005">
        <ele>1195</ele>
        <time>2018-02-05T17:31:32Z</time>
      </trkpt>
      <trkpt lat="45.12334" lon="5.42005">
        <ele>1194</ele>
        <time>2018-02-05T17:32:32Z</time>
      </trkpt>
      <trkpt lat="45.12329" lon="5.42002">
        <ele>1193</ele>
        <time>2018-02-05T17:33:32Z</time>
      </trkpt>
      <trkpt lat="45.12324" lon="5.41998">
        <ele>1193</ele>
        <time>2018-02-05T17:34:32Z</time>
      </trkpt>
      <trkpt lat="45.12319" lon="5.41991">
        <ele>1192</ele>
        <time>2018-02-05T17:35:32Z</time>
      </trkpt>
      <trkpt lat="45.12311" lon="5.41978">
        <ele>1191</ele>
        <time>2018-02-05T17:36:32Z</time>
      </trkpt>
      <trkpt lat="45.12305" lon="5.41968">
        <ele>1190</ele>
        <time>2018-02-05T17:37:32Z</time>
      </trkpt>
      <trkpt lat="45.12297" lon="5.41957">
        <ele>1189</ele>
        <time>2018-02-05T17:38:32Z</time>
      </trkpt>
      <trkpt lat="45.12284" lon="5.41945">
        <ele>1187</ele>
        <time>2018-02-05T17:39:32Z</time>
      </trkpt>
      <trkpt lat="45.1227" lon="5.41932">
        <ele>1184</ele>
        <time>2018-02-05T17:40:32Z</time>
      </trkpt>
      <trkpt lat="45.12251" lon="5.41913">
        <ele>1180</ele>
        <time>2018-02-05T17:41:32Z</time>
      </trkpt>
      <trkpt lat="45.12246" lon="5.41906">
        <ele>1180</ele>
        <time>2018-02-05T17:42:32Z</time>
      </trkpt>
      <trkpt lat="45.12243" lon="5.41898">
        <ele>1179</ele>
        <time>2018-02-05T17:43:32Z</time>
      </trkpt>
      <trkpt lat="45.1224" lon="5.41888">
        <ele>1179</ele>
        <time>2018-02-05T17:44:32Z</time>
      </trkpt>
      <trkpt lat="45.12235" lon="5.41876">
        <ele>1179</ele>
        <time>2018-02-05T17:45:32Z</time>
      </trkpt>
      <trkpt lat="45.12232" lon="5.41865">
        <ele>1179</ele>
        <time>2018-02-05T17:46:32Z</time>
      </trkpt>
      <trkpt lat="45.12228" lon="5.41856">
        <ele>1179</ele>
        <time>2018-02-05T17:47:32Z</time>
      </trkpt>
      <trkpt lat="45.12223" lon="5.41846">
        <ele>1178</ele>
        <time>2018-02-05T17:48:32Z</time>
      </trkpt>
      <trkpt lat="45.12218" lon="5.4184">
        <ele>1178</ele>
        <time>2018-02-05T17:49:32Z</time>
      </trkpt>
      <trkpt lat="45.12213" lon="5.41834">
        <ele>1178</ele>
        <time>2018-02-05T17:50:32Z</time>
      </trkpt>
      <trkpt lat="45.12207" lon="5.41829">
        <ele>1179</ele>
        <time>2018-02-05T17:51:32Z</time>
      </trkpt>
      <trkpt lat="45.122" lon="5.41825">
        <ele>1180</ele>
        <time>2018-02-05T17:52:32Z</time>
      </trkpt>
      <trkpt lat="45.12192" lon="5.41823">
        <ele>1180</ele>
        <time>2018-02-05T17:53:32Z</time>
      </trkpt>
      <trkpt lat="45.12185" lon="5.41824">
        <ele>1180</ele>
        <time>2018-02-05T17:54:32Z</time>
      </trkpt>
      <trkpt lat="45.12171" lon="5.41825">
        <ele>1180</ele>
        <time>2018-02-05T17:55:32Z</time>
      </trkpt>
      <trkpt lat="45.12161" lon="5.41829">
        <ele>1179</ele>
        <time>2018-02-05T17:56:32Z</time>
      </trkpt>
      <trkpt lat="45.12152" lon="5.41832">
        <ele>1178</ele>
        <time>2018-02-05T17:57:32Z</time>
      </trkpt>
      <trkpt lat="45.12142" lon="5.41833">
        <ele>1177</ele>
        <time>2018-02-05T17:58:32Z</time>
      </trkpt>
      <trkpt lat="45.12129" lon="5.41832">
        <ele>1176</ele>
        <time>2018-02-05T17:59:32Z</time>
      </trkpt>
      <trkpt lat="45.12108" lon="5.41826">
        <ele>1175</ele>
        <time>2018-02-05T18:00:32Z</time>
      </trkpt>
      <trkpt lat="45.12076" lon="5.41817">
        <ele>1173</ele>
        <time>2018-02-05T18:01:32Z</time>
      </trkpt>
      <trkpt lat="45.12062" lon="5.41809">
        <ele>1171</ele>
        <time>2018-02-05T18:02:32Z</time>
      </trkpt>
      <trkpt lat="45.12047" lon="5.41801">
        <ele>1168</ele>
        <time>2018-02-05T18:03:32Z</time>
      </trkpt>
      <trkpt lat="45.12035" lon="5.41793">
        <ele>1165</ele>
        <time>2018-02-05T18:04:32Z</time>
      </trkpt>
      <trkpt lat="45.12031" lon="5.41788">
        <ele>1164</ele>
        <time>2018-02-05T18:05:32Z</time>
      </trkpt>
      <trkpt lat="45.12027" lon="5.41785">
        <ele>1162</ele>
        <time>2018-02-05T18:06:32Z</time>
      </trkpt>
      <trkpt lat="45.12024" lon="5.41779">
        <ele>1161</ele>
        <time>2018-02-05T18:07:32Z</time>
      </trkpt>
      <trkpt lat="45.1202" lon="5.41774">
        <ele>1159</ele>
        <time>2018-02-05T18:08:32Z</time>
      </trkpt>
      <trkpt lat="45.12019" lon="5.41769">
        <ele>1158</ele>
        <time>2018-02-05T18:09:32Z</time>
      </trkpt>
      <trkpt lat="45.12018" lon="5.4176">
        <ele>1157</ele>
        <time>2018-02-05T18:10:32Z</time>
      </trkpt>
      <trkpt lat="45.12017" lon="5.41747">
        <ele>1155</ele>
        <time>2018-02-05T18:11:32Z</time>
      </trkpt>
      <trkpt lat="45.12019" lon="5.41715">
        <ele>1157</ele>
        <time>2018-02-05T18:12:32Z</time>
      </trkpt>
      <trkpt lat="45.1202" lon="5.41694">
        <ele>1158</ele>
        <time>2018-02-05T18:13:32Z</time>
      </trkpt>
      <trkpt lat="45.1202" lon="5.41681">
        <ele>1158</ele>
        <time>2018-02-05T18:14:32Z</time>
      </trkpt>
      <trkpt lat="45.12019" lon="5.41672">
        <ele>1158</ele>
        <time>2018-02-05T18:15:32Z</time>
      </trkpt>
      <trkpt lat="45.12018" lon="5.41663">
        <ele>1159</ele>
        <time>2018-02-05T18:16:32Z</time>
      </trkpt>
      <trkpt lat="45.12016" lon="5.41647">
        <ele>1159</ele>
        <time>2018-02-05T18:17:32Z</time>
      </trkpt>
      <trkpt lat="45.12013" lon="5.41632">
        <ele>1159</ele>
        <time>2018-02-05T18:18:32Z</time>
      </trkpt>
      <trkpt lat="45.1201" lon="5.41622">
        <ele>1159</ele>
        <time>2018-02-05T18:19:32Z</time>
      </trkpt>
      <trkpt lat="45.12008" lon="5.41615">
        <ele>1159</ele>
        <time>2018-02-05T18:20:32Z</time>
      </trkpt>
      <trkpt lat="45.12005" lon="5.4161">
        <ele>1159</ele>
        <time>2018-02-05T18:21:32Z</time>
      </trkpt>
      <trkpt lat="45.12002" lon="5.41605">
        <ele>1158</ele>
        <time>2018-02-05T18:22:32Z</time>
      </trkpt>
      <trkpt lat="45.11997" lon="5.41602">
        <ele>1158</ele>
        <time>2018-02-05T18:23:32Z</time>
      </trkpt>
      <trkpt lat="45.11992" lon="5.416">
        <ele>1158</ele>
        <time>2018-02-05T18:24:32Z</time>
      </trkpt>
      <trkpt lat="45.11985" lon="5.416">
        <ele>1158</ele>
        <time>2018-02-05T18:25:32Z</time>
      </trkpt>
      <trkpt lat="45.11978" lon="5.41601">
        <ele>1157</ele>
        <time>2018-02-05T18:26:32Z</time>
      </trkpt>
      <trkpt lat="45.11971" lon="5.41603">
        <ele>1156</ele>
        <time>2018-02-05T18:27:32Z</time>
      </trkpt>
      <trkpt lat="45.11962" lon="5.4161">
        <ele>1155</ele>
        <time>2018-02-05T18:28:32Z</time>
      </trkpt>
      <trkpt lat="45.11952" lon="5.41617">
        <ele>1153</ele>
        <time>2018-02-05T18:29:32Z</time>
      </trkpt>
      <trkpt lat="45.11946" lon="5.41621">
        <ele>1152</ele>
        <time>2018-02-05T18:30:32Z</time>
      </trkpt>
      <trkpt lat="45.1194" lon="5.41625">
        <ele>1150</ele>
        <time>2018-02-05T18:31:32Z</time>
      </trkpt>
      <trkpt lat="45.1193" lon="5.41628">
        <ele>1149</ele>
        <time>2018-02-05T18:32:32Z</time>
      </trkpt>
      <trkpt lat="45.11916" lon="5.41632">
        <ele>1146</ele>
        <time>2018-02-05T18:33:32Z</time>
      </trkpt>
      <trkpt lat="45.119" lon="5.41635">
        <ele>1144</ele>
        <time>2018-02-05T18:34:32Z</time>
      </trkpt>
      <trkpt lat="45.11882" lon="5.41638">
        <ele>1142</ele>
        <time>2018-02-05T18:35:32Z</time>
      </trkpt>
      <trkpt lat="45.11869" lon="5.41638">
        <ele>1142</ele>
        <time>2018-02-05T18:36:32Z</time>
      </trkpt>
      <trkpt lat="45.11856" lon="5.41638">
        <ele>1141</ele>
        <time>2018-02-05T18:37:32Z</time>
      </trkpt>
      <trkpt lat="45.11847" lon="5.41636">
        <ele>1140</ele>
        <time>2018-02-05T18:38:32Z</time>
      </trkpt>
      <trkpt lat="45.1184" lon="5.41634">
        <ele>1140</ele>
        <time>2018-02-05T18:39:32Z</time>
      </trkpt>
      <trkpt lat="45.11832" lon="5.41631">
        <ele>1139</ele>
        <time>2018-02-05T18:40:32Z</time>
      </trkpt>
      <trkpt lat="45.11825" lon="5.41624">
        <ele>1140</ele>
        <time>2018-02-05T18:41:32Z</time>
      </trkpt>
      <trkpt lat="45.11816" lon="5.41615">
        <ele>1140</ele>
        <time>2018-02-05T18:42:32Z</time>
      </trkpt>
      <trkpt lat="45.11809" lon="5.41603">
        <ele>1139</ele>
        <time>2018-02-05T18:43:32Z</time>
      </trkpt>
      <trkpt lat="45.11798" lon="5.4158">
        <ele>1138</ele>
        <time>2018-02-05T18:44:32Z</time>
      </trkpt>
      <trkpt lat="45.11784" lon="5.4155">
        <ele>1136</ele>
        <time>2018-02-05T18:45:32Z</time>
      </trkpt>
      <trkpt lat="45.11778" lon="5.41534">
        <ele>1134</ele>
        <time>2018-02-05T18:46:32Z</time>
      </trkpt>
      <trkpt lat="45.11773" lon="5.41516">
        <ele>1132</ele>
        <time>2018-02-05T18:47:32Z</time>
      </trkpt>
      <trkpt lat="45.1177" lon="5.41498">
        <ele>1130</ele>
        <time>2018-02-05T18:48:32Z</time>
      </trkpt>
      <trkpt lat="45.11766" lon="5.41483">
        <ele>1128</ele>
        <time>2018-02-05T18:49:32Z</time>
      </trkpt>
      <trkpt lat="45.11763" lon="5.41466">
        <ele>1126</ele>
        <time>2018-02-05T18:50:32Z</time>
      </trkpt>
      <trkpt lat="45.11759" lon="5.41446">
        <ele>1124</ele>
        <time>2018-02-05T18:51:32Z</time>
      </trkpt>
      <trkpt lat="45.11755" lon="5.4142">
        <ele>1121</ele>
        <time>2018-02-05T18:52:32Z</time>
      </trkpt>
      <trkpt lat="45.11752" lon="5.41404">
        <ele>1119</ele>
        <time>2018-02-05T18:53:32Z</time>
      </trkpt>
      <trkpt lat="45.11751" lon="5.4139">
        <ele>1118</ele>
        <time>2018-02-05T18:54:32Z</time>
      </trkpt>
      <trkpt lat="45.1175" lon="5.41374">
        <ele>1116</ele>
        <time>2018-02-05T18:55:32Z</time>
      </trkpt>
      <trkpt lat="45.1175" lon="5.41358">
        <ele>1115</ele>
        <time>2018-02-05T18:56:32Z</time>
      </trkpt>
      <trkpt lat="45.11751" lon="5.41343">
        <ele>1115</ele>
        <time>2018-02-05T18:57:32Z</time>
      </trkpt>
      <trkpt lat="45.11754" lon="5.41327">
        <ele>1114</ele>
        <time>2018-02-05T18:58:32Z</time>
      </trkpt>
      <trkpt lat="45.11757" lon="5.41314">
        <ele>1113</ele>
        <time>2018-02-05T18:59:32Z</time>
      </trkpt>
      <trkpt lat="45.11762" lon="5.41302">
        <ele>1112</ele>
        <time>2018-02-05T19:00:32Z</time>
      </trkpt>
      <trkpt lat="45.1177" lon="5.4129">
        <ele>1112</ele>
        <time>2018-02-05T19:01:32Z</time>
      </trkpt>
      <trkpt lat="45.11776" lon="5.41282">
        <ele>1112</ele>
        <time>2018-02-05T19:02:32Z</time>
      </trkpt>
      <trkpt lat="45.11783" lon="5.41273">
        <ele>1112</ele>
        <time>2018-02-05T19:03:32Z</time>
      </trkpt>
      <trkpt lat="45.11792" lon="5.41262">
        <ele>1112</ele>
        <time>2018-02-05T19:04:32Z</time>
      </trkpt>
      <trkpt lat="45.118" lon="5.41252">
        <ele>1111</ele>
        <time>2018-02-05T19:05:32Z</time>
      </trkpt>
      <trkpt lat="45.11809" lon="5.41241">
        <ele>1111</ele>
        <time>2018-02-05T19:06:32Z</time>
      </trkpt>
      <trkpt lat="45.11813" lon="5.41235">
        <ele>1110</ele>
        <time>2018-02-05T19:07:32Z</time>
      </trkpt>
      <trkpt lat="45.11817" lon="5.41227">
        <ele>1109</ele>
        <time>2018-02-05T19:08:32Z</time>
      </trkpt>
      <trkpt lat="45.11821" lon="5.41219">
        <ele>1108</ele>
        <time>2018-02-05T19:09:32Z</time>
      </trkpt>
      <trkpt lat="45.11824" lon="5.41205">
        <ele>1106</ele>
        <time>2018-02-05T19:10:32Z</time>
      </trkpt>
      <trkpt lat="45.11827" lon="5.41192">
        <ele>1104</ele>
        <time>2018-02-05T19:11:32Z</time>
      </trkpt>
      <trkpt lat="45.11832" lon="5.41179">
        <ele>1102</ele>
        <time>2018-02-05T19:12:32Z</time>
      </trkpt>
      <trkpt lat="45.11839" lon="5.41167">
        <ele>1100</ele>
        <time>2018-02-05T19:13:32Z</time>
      </trkpt>
      <trkpt lat="45.11846" lon="5.41156">
        <ele>1098</ele>
        <time>2018-02-05T19:14:32Z</time>
      </trkpt>
      <trkpt lat="45.11857" lon="5.41145">
        <ele>1097</ele>
        <time>2018-02-05T19:15:32Z</time>
      </trkpt>
      <trkpt lat="45.11866" lon="5.41138">
        <ele>1097</ele>
        <time>2018-02-05T19:16:32Z</time>
      </trkpt>
      <trkpt lat="45.11875" lon="5.41134">
        <ele>1097</ele>
        <time>2018-02-05T19:17:32Z</time>
      </trkpt>
      <trkpt lat="45.11884" lon="5.41131">
        <ele>1097</ele>
        <time>2018-02-05T19:18:32Z</time>
      </trkpt>
      <trkpt lat="45.11897" lon="5.41129">
        <ele>1098</ele>
        <time>2018-02-05T19:19:32Z</time>
      </trkpt>
      <trkpt lat="45.1191" lon="5.41127">
        <ele>1098</ele>
        <time>2018-02-05T19:20:32Z</time>
      </trkpt>
      <trkpt lat="45.11923" lon="5.41125">
        <ele>1099</ele>
        <time>2018-02-05T19:21:32Z</time>
      </trkpt>
      <trkpt lat="45.11938" lon="5.4112">
        <ele>1100</ele>
        <time>2018-02-05T19:22:32Z</time>
      </trkpt>
      <trkpt lat="45.11949" lon="5.41114">
        <ele>1101</ele>
        <time>2018-02-05T19:23:32Z</time>
      </trkpt>
      <trkpt lat="45.11954" lon="5.4111">
        <ele>1101</ele>
        <time>2018-02-05T19:24:32Z</time>
      </trkpt>
      <trkpt lat="45.11956" lon="5.41106">
        <ele>1101</ele>
        <time>2018-02-05T19:25:32Z</time>
      </trkpt>
      <trkpt lat="45.11956" lon="5.41102">
        <ele>1101</ele>
        <time>2018-02-05T19:26:32Z</time>
      </trkpt>
      <trkpt lat="45.11956" lon="5.41092">
        <ele>1099</ele>
        <time>2018-02-05T19:27:32Z</time>
      </trkpt>
      <trkpt lat="45.11954" lon="5.41081">
        <ele>1098</ele>
        <time>2018-02-05T19:28:32Z</time>
      </trkpt>
      <trkpt lat="45.1195" lon="5.41065">
        <ele>1095</ele>
        <time>2018-02-05T19:29:32Z</time>
      </trkpt>
      <trkpt lat="45.11948" lon="5.41054">
        <ele>1094</ele>
        <time>2018-02-05T19:30:32Z</time>
      </trkpt>
      <trkpt lat="45.11944" lon="5.41043">
        <ele>1092</ele>
        <time>2018-02-05T19:31:32Z</time>
      </trkpt>
      <trkpt lat="45.11938" lon="5.41029">
        <ele>1088</ele>
        <time>2018-02-05T19:32:32Z</time>
      </trkpt>
      <trkpt lat="45.11933" lon="5.41011">
        <ele>1085</ele>
        <time>2018-02-05T19:33:32Z</time>
      </trkpt>
      <trkpt lat="45.11931" lon="5.40999">
        <ele>1083</ele>
        <time>2018-02-05T19:34:32Z</time>
      </trkpt>
      <trkpt lat="45.1193" lon="5.40987">
        <ele>1081</ele>
        <time>2018-02-05T19:35:32Z</time>
      </trkpt>
      <trkpt lat="45.11931" lon="5.40979">
        <ele>1080</ele>
        <time>2018-02-05T19:36:32Z</time>
      </trkpt>
      <trkpt lat="45.11932" lon="5.40966">
        <ele>1079</ele>
        <time>2018-02-05T19:37:32Z</time>
      </trkpt>
      <trkpt lat="45.11935" lon="5.40954">
        <ele>1079</ele>
        <time>2018-02-05T19:38:32Z</time>
      </trkpt>
      <trkpt lat="45.11941" lon="5.40938">
        <ele>1079</ele>
        <time>2018-02-05T19:39:32Z</time>
      </trkpt>
      <trkpt lat="45.11946" lon="5.40919">
        <ele>1079</ele>
        <time>2018-02-05T19:40:32Z</time>
      </trkpt>
      <trkpt lat="45.11948" lon="5.40908">
        <ele>1078</ele>
        <time>2018-02-05T19:41:32Z</time>
      </trkpt>
      <trkpt lat="45.11949" lon="5.40895">
        <ele>1077</ele>
        <time>2018-02-05T19:42:32Z</time>
      </trkpt>
      <trkpt lat="45.1195" lon="5.40867">
        <ele>1074</ele>
        <time>2018-02-05T19:43:32Z</time>
      </trkpt>
      <trkpt lat="45.11951" lon="5.40843">
        <ele>1072</ele>
        <time>2018-02-05T19:44:32Z</time>
      </trkpt>
      <trkpt lat="45.11953" lon="5.40828">
        <ele>1071</ele>
        <time>2018-02-05T19:45:32Z</time>
      </trkpt>
      <trkpt lat="45.11955" lon="5.40814">
        <ele>1071</ele>
        <time>2018-02-05T19:46:32Z</time>
      </trkpt>
      <trkpt lat="45.1196" lon="5.40801">
        <ele>1072</ele>
        <time>2018-02-05T19:47:32Z</time>
      </trkpt>
      <trkpt lat="45.11968" lon="5.40783">
        <ele>1073</ele>
        <time>2018-02-05T19:48:32Z</time>
      </trkpt>
      <trkpt lat="45.11975" lon="5.40769">
        <ele>1073</ele>
        <time>2018-02-05T19:49:32Z</time>
      </trkpt>
      <trkpt lat="45.11978" lon="5.4076">
        <ele>1072</ele>
        <time>2018-02-05T19:50:32Z</time>
      </trkpt>
      <trkpt lat="45.11978" lon="5.40752">
        <ele>1072</ele>
        <time>2018-02-05T19:51:32Z</time>
      </trkpt>
      <trkpt lat="45.11978" lon="5.40745">
        <ele>1072</ele>
        <time>2018-02-05T19:52:32Z</time>
      </trkpt>
      <trkpt lat="45.11977" lon="5.4074">
        <ele>1072</ele>
        <time>2018-02-05T19:53:32Z</time>
      </trkpt>
      <trkpt lat="45.11975" lon="5.40735">
        <ele>1072</ele>
        <time>2018-02-05T19:54:32Z</time>
      </trkpt>
      <trkpt lat="45.11972" lon="5.40732">
        <ele>1073</ele>
        <time>2018-02-05T19:55:32Z</time>
      </trkpt>
      <trkpt lat="45.11972" lon="5.40732">
        <ele>1073</ele>
        <time>2018-02-05T19:56:32Z</time>
      </trkpt>
      <trkpt lat="45.11968" lon="5.4073">
        <ele>1072</ele>
        <time>2018-02-05T19:57:32Z</time>
      </trkpt>
      <trkpt lat="45.11961" lon="5.4073">
        <ele>1072</ele>
        <time>2018-02-05T19:58:32Z</time>
      </trkpt>
      <trkpt lat="45.11953" lon="5.4073">
        <ele>1071</ele>
        <time>2018-02-05T19:59:32Z</time>
      </trkpt>
      <trkpt lat="45.1194" lon="5.40732">
        <ele>1070</ele>
        <time>2018-02-05T20:00:32Z</time>
      </trkpt>
      <trkpt lat="45.1192" lon="5.40735">
        <ele>1067</ele>
        <time>2018-02-05T20:01:32Z</time>
      </trkpt>
      <trkpt lat="45.11899" lon="5.40736">
        <ele>1064</ele>
        <time>2018-02-05T20:02:32Z</time>
      </trkpt>
      <trkpt lat="45.11882" lon="5.40736">
        <ele>1061</ele>
        <time>2018-02-05T20:03:32Z</time>
      </trkpt>
      <trkpt lat="45.11863" lon="5.40735">
        <ele>1058</ele>
        <time>2018-02-05T20:04:32Z</time>
      </trkpt>
      <trkpt lat="45.11847" lon="5.40732">
        <ele>1056</ele>
        <time>2018-02-05T20:05:32Z</time>
      </trkpt>
      <trkpt lat="45.11835" lon="5.4073">
        <ele>1054</ele>
        <time>2018-02-05T20:06:32Z</time>
      </trkpt>
      <trkpt lat="45.11819" lon="5.40724">
        <ele>1050</ele>
        <time>2018-02-05T20:07:32Z</time>
      </trkpt>
      <trkpt lat="45.11807" lon="5.40719">
        <ele>1047</ele>
        <time>2018-02-05T20:08:32Z</time>
      </trkpt>
      <trkpt lat="45.11797" lon="5.40714">
        <ele>1045</ele>
        <time>2018-02-05T20:09:32Z</time>
      </trkpt>
      <trkpt lat="45.11786" lon="5.40705">
        <ele>1043</ele>
        <time>2018-02-05T20:10:32Z</time>
      </trkpt>
      <trkpt lat="45.11777" lon="5.40695">
        <ele>1041</ele>
        <time>2018-02-05T20:11:32Z</time>
      </trkpt>
      <trkpt lat="45.11771" lon="5.40688">
        <ele>1040</ele>
        <time>2018-02-05T20:12:32Z</time>
      </trkpt>
      <trkpt lat="45.11767" lon="5.4068">
        <ele>1040</ele>
        <time>2018-02-05T20:13:32Z</time>
      </trkpt>
      <trkpt lat="45.11765" lon="5.40672">
        <ele>1040</ele>
        <time>2018-02-05T20:14:32Z</time>
      </trkpt>
      <trkpt lat="45.11764" lon="5.40663">
        <ele>1040</ele>
        <time>2018-02-05T20:15:32Z</time>
      </trkpt>
      <trkpt lat="45.11764" lon="5.40656">
        <ele>1040</ele>
        <time>2018-02-05T20:16:32Z</time>
      </trkpt>
      <trkpt lat="45.11765" lon="5.40646">
        <ele>1040</ele>
        <time>2018-02-05T20:17:32Z</time>
      </trkpt>
      <trkpt lat="45.11767" lon="5.40631">
        <ele>1041</ele>
        <time>2018-02-05T20:18:32Z</time>
      </trkpt>
      <trkpt lat="45.11768" lon="5.40621">
        <ele>1041</ele>
        <time>2018-02-05T20:19:32Z</time>
      </trkpt>
      <trkpt lat="45.11769" lon="5.40611">
        <ele>1042</ele>
        <time>2018-02-05T20:20:32Z</time>
      </trkpt>
      <trkpt lat="45.11767" lon="5.40603">
        <ele>1041</ele>
        <time>2018-02-05T20:21:32Z</time>
      </trkpt>
      <trkpt lat="45.11766" lon="5.40596">
        <ele>1041</ele>
        <time>2018-02-05T20:22:32Z</time>
      </trkpt>
      <trkpt lat="45.11762" lon="5.40586">
        <ele>1039</ele>
        <time>2018-02-05T20:23:32Z</time>
      </trkpt>
      <trkpt lat="45.11753" lon="5.40565">
        <ele>1037</ele>
        <time>2018-02-05T20:24:32Z</time>
      </trkpt>
      <trkpt lat="45.11739" lon="5.40534">
        <ele>1033</ele>
        <time>2018-02-05T20:25:32Z</time>
      </trkpt>
      <trkpt lat="45.11735" lon="5.40521">
        <ele>1032</ele>
        <time>2018-02-05T20:26:32Z</time>
      </trkpt>
      <trkpt lat="45.11732" lon="5.40511">
        <ele>1031</ele>
        <time>2018-02-05T20:27:32Z</time>
      </trkpt>
      <trkpt lat="45.1173" lon="5.40498">
        <ele>1031</ele>
        <time>2018-02-05T20:28:32Z</time>
      </trkpt>
      <trkpt lat="45.11729" lon="5.40489">
        <ele>1031</ele>
        <time>2018-02-05T20:29:32Z</time>
      </trkpt>
      <trkpt lat="45.11728" lon="5.40476">
        <ele>1030</ele>
        <time>2018-02-05T20:30:32Z</time>
      </trkpt>
      <trkpt lat="45.11726" lon="5.40463">
        <ele>1030</ele>
        <time>2018-02-05T20:31:32Z</time>
      </trkpt>
      <trkpt lat="45.11723" lon="5.40453">
        <ele>1029</ele>
        <time>2018-02-05T20:32:32Z</time>
      </trkpt>
      <trkpt lat="45.11718" lon="5.40444">
        <ele>1028</ele>
        <time>2018-02-05T20:33:32Z</time>
      </trkpt>
      <trkpt lat="45.11712" lon="5.40434">
        <ele>1027</ele>
        <time>2018-02-05T20:34:32Z</time>
      </trkpt>
      <trkpt lat="45.11705" lon="5.40424">
        <ele>1025</ele>
        <time>2018-02-05T20:35:32Z</time>
      </trkpt>
      <trkpt lat="45.11696" lon="5.40413">
        <ele>1023</ele>
        <time>2018-02-05T20:36:32Z</time>
      </trkpt>
      <trkpt lat="45.11674" lon="5.40394">
        <ele>1017</ele>
        <time>2018-02-05T20:37:32Z</time>
      </trkpt>
      <trkpt lat="45.11656" lon="5.40376">
        <ele>1014</ele>
        <time>2018-02-05T20:38:32Z</time>
      </trkpt>
      <trkpt lat="45.11653" lon="5.40373">
        <ele>1013</ele>
        <time>2018-02-05T20:39:32Z</time>
      </trkpt>
      <trkpt lat="45.11653" lon="5.40373">
        <ele>1013</ele>
        <time>2018-02-05T20:40:32Z</time>
      </trkpt>
      <trkpt lat="45.11646" lon="5.40365">
        <ele>1012</ele>
        <time>2018-02-05T20:41:32Z</time>
      </trkpt>
      <trkpt lat="45.11641" lon="5.40356">
        <ele>1011</ele>
        <time>2018-02-05T20:42:32Z</time>
      </trkpt>
      <trkpt lat="45.1164" lon="5.40354">
        <ele>1011</ele>
        <time>2018-02-05T20:43:32Z</time>
      </trkpt>
      <trkpt lat="45.1164" lon="5.40354">
        <ele>1011</ele>
        <time>2018-02-05T20:44:32Z</time>
      </trkpt>
      <trkpt lat="45.11638" lon="5.40347">
        <ele>1011</ele>
        <time>2018-02-05T20:45:32Z</time>
      </trkpt>
      <trkpt lat="45.11639" lon="5.40342">
        <ele>1011</ele>
        <time>2018-02-05T20:46:32Z</time>
      </trkpt>
      <trkpt lat="45.11639" lon="5.40339">
        <ele>1011</ele>
        <time>2018-02-05T20:47:32Z</time>
      </trkpt>
      <trkpt lat="45.11639" lon="5.40336">
        <ele>1011</ele>
        <time>2018-02-05T20:48:32Z</time>
      </trkpt>
      <trkpt lat="45.11641" lon="5.40332">
        <ele>1011</ele>
        <time>2018-02-05T20:49:32Z</time>
      </trkpt>
      <trkpt lat="45.11655" lon="5.4031">
        <ele>1011</ele>
        <time>2018-02-05T20:50:32Z</time>
      </trkpt>
      <trkpt lat="45.11662" lon="5.40296">
        <ele>1011</ele>
        <time>2018-02-05T20:51:32Z</time>
      </trkpt>
      <trkpt lat="45.11665" lon="5.40289">
        <ele>1011</ele>
        <time>2018-02-05T20:52:32Z</time>
      </trkpt>
      <trkpt lat="45.11667" lon="5.40283">
        <ele>1011</ele>
        <time>2018-02-05T20:53:32Z</time>
      </trkpt>
      <trkpt lat="45.11668" lon="5.40275">
        <ele>1010</ele>
        <time>2018-02-05T20:54:32Z</time>
      </trkpt>
      <trkpt lat="45.11668" lon="5.40268">
        <ele>1010</ele>
        <time>2018-02-05T20:55:32Z</time>
      </trkpt>
      <trkpt lat="45.11667" lon="5.40262">
        <ele>1010</ele>
        <time>2018-02-05T20:56:32Z</time>
      </trkpt>
      <trkpt lat="45.11665" lon="5.40254">
        <ele>1009</ele>
        <time>2018-02-05T20:57:32Z</time>
      </trkpt>
      <trkpt lat="45.11657" lon="5.40238">
        <ele>1009</ele>
        <time>2018-02-05T20:58:32Z</time>
      </trkpt>
      <trkpt lat="45.1165" lon="5.40224">
        <ele>1009</ele>
        <time>2018-02-05T20:59:32Z</time>
      </trkpt>
      <trkpt lat="45.11639" lon="5.40201">
        <ele>1010</ele>
        <time>2018-02-05T21:00:32Z</time>
      </trkpt>
      <trkpt lat="45.1163" lon="5.40184">
        <ele>1009</ele>
        <time>2018-02-05T21:01:32Z</time>
      </trkpt>
      <trkpt lat="45.11626" lon="5.40173">
        <ele>1009</ele>
        <time>2018-02-05T21:02:32Z</time>
      </trkpt>
      <trkpt lat="45.11622" lon="5.40165">
        <ele>1009</ele>
        <time>2018-02-05T21:03:32Z</time>
      </trkpt>
      <trkpt lat="45.11616" lon="5.40155">
        <ele>1009</ele>
        <time>2018-02-05T21:04:32Z</time>
      </trkpt>
      <trkpt lat="45.11611" lon="5.40147">
        <ele>1008</ele>
        <time>2018-02-05T21:05:32Z</time>
      </trkpt>
      <trkpt lat="45.11604" lon="5.40139">
        <ele>1008</ele>
        <time>2018-02-05T21:06:32Z</time>
      </trkpt>
      <trkpt lat="45.11598" lon="5.40132">
        <ele>1007</ele>
        <time>2018-02-05T21:07:32Z</time>
      </trkpt>
      <trkpt lat="45.11589" lon="5.40121">
        <ele>1007</ele>
        <time>2018-02-05T21:08:32Z</time>
      </trkpt>
      <trkpt lat="45.11584" lon="5.40114">
        <ele>1007</ele>
        <time>2018-02-05T21:09:32Z</time>
      </trkpt>
      <trkpt lat="45.1158" lon="5.40108">
        <ele>1006</ele>
        <time>2018-02-05T21:10:32Z</time>
      </trkpt>
      <trkpt lat="45.11576" lon="5.40103">
        <ele>1006</ele>
        <time>2018-02-05T21:11:32Z</time>
      </trkpt>
      <trkpt lat="45.11574" lon="5.40096">
        <ele>1006</ele>
        <time>2018-02-05T21:12:32Z</time>
      </trkpt>
      <trkpt lat="45.11571" lon="5.40086">
        <ele>1007</ele>
        <time>2018-02-05T21:13:32Z</time>
      </trkpt>
      <trkpt lat="45.11567" lon="5.4007">
        <ele>1006</ele>
        <time>2018-02-05T21:14:32Z</time>
      </trkpt>
      <trkpt lat="45.11562" lon="5.40051">
        <ele>1005</ele>
        <time>2018-02-05T21:15:32Z</time>
      </trkpt>
      <trkpt lat="45.11559" lon="5.40037">
        <ele>1005</ele>
        <time>2018-02-05T21:16:32Z</time>
      </trkpt>
      <trkpt lat="45.11556" lon="5.4001">
        <ele>1005</ele>
        <time>2018-02-05T21:17:32Z</time>
      </trkpt>
      <trkpt lat="45.11553" lon="5.39987">
        <ele>1006</ele>
        <time>2018-02-05T21:18:32Z</time>
      </trkpt>
      <trkpt lat="45.11553" lon="5.39987">
        <ele>1006</ele>
        <time>2018-02-05T21:19:32Z</time>
      </trkpt>
      <trkpt lat="45.11547" lon="5.39987">
        <ele>1005</ele>
        <time>2018-02-05T21:20:32Z</time>
      </trkpt>
      <trkpt lat="45.11538" lon="5.39985">
        <ele>1004</ele>
        <time>2018-02-05T21:21:32Z</time>
      </trkpt>
      <trkpt lat="45.11531" lon="5.39984">
        <ele>1004</ele>
        <time>2018-02-05T21:22:32Z</time>
      </trkpt>
      <trkpt lat="45.11529" lon="5.39983">
        <ele>1004</ele>
        <time>2018-02-05T21:23:32Z</time>
      </trkpt>
      <trkpt lat="45.11526" lon="5.39982">
        <ele>1003</ele>
        <time>2018-02-05T21:24:32Z</time>
      </trkpt>
      <trkpt lat="45.1152" lon="5.39975">
        <ele>1003</ele>
        <time>2018-02-05T21:25:32Z</time>
      </trkpt>
      <trkpt lat="45.11512" lon="5.39966">
        <ele>1003</ele>
        <time>2018-02-05T21:26:32Z</time>
      </trkpt>
      <trkpt lat="45.11495" lon="5.39941">
        <ele>1003</ele>
        <time>2018-02-05T21:27:32Z</time>
      </trkpt>
      <trkpt lat="45.11484" lon="5.39928">
        <ele>1003</ele>
        <time>2018-02-05T21:28:32Z</time>
      </trkpt>
      <trkpt lat="45.11481" lon="5.39927">
        <ele>1003</ele>
        <time>2018-02-05T21:29:32Z</time>
      </trkpt>
      <trkpt lat="45.11476" lon="5.39922">
        <ele>1003</ele>
        <time>2018-02-05T21:30:32Z</time>
      </trkpt>
      <trkpt lat="45.11441" lon="5.39904">
        <ele>1002</ele>
        <time>2018-02-05T21:31:32Z</time>
      </trkpt>
      <trkpt lat="45.11422" lon="5.39892">
        <ele>1000</ele>
        <time>2018-02-05T21:32:32Z</time>
      </trkpt>
      <trkpt lat="45.11416" lon="5.39887">
        <ele>1000</ele>
        <time>2018-02-05T21:33:32Z</time>
      </trkpt>
      <trkpt lat="45.11411" lon="5.39882">
        <ele>999</ele>
        <time>2018-02-05T21:34:32Z</time>
      </trkpt>
      <trkpt lat="45.11404" lon="5.39873">
        <ele>999</ele>
        <time>2018-02-05T21:35:32Z</time>
      </trkpt>
      <trkpt lat="45.11398" lon="5.39865">
        <ele>998</ele>
        <time>2018-02-05T21:36:32Z</time>
      </trkpt>
      <trkpt lat="45.1139" lon="5.39856">
        <ele>998</ele>
        <time>2018-02-05T21:37:32Z</time>
      </trkpt>
      <trkpt lat="45.1138" lon="5.39847">
        <ele>998</ele>
        <time>2018-02-05T21:38:32Z</time>
      </trkpt>
      <trkpt lat="45.11375" lon="5.39846">
        <ele>998</ele>
        <time>2018-02-05T21:39:32Z</time>
      </trkpt>
      <trkpt lat="45.11361" lon="5.39845">
        <ele>998</ele>
        <time>2018-02-05T21:40:32Z</time>
      </trkpt>
      <trkpt lat="45.11329" lon="5.39845">
        <ele>999</ele>
        <time>2018-02-05T21:41:32Z</time>
      </trkpt>
      <trkpt lat="45.11321" lon="5.39846">
        <ele>999</ele>
        <time>2018-02-05T21:42:32Z</time>
      </trkpt>
      <trkpt lat="45.11313" lon="5.39847">
        <ele>1000</ele>
        <time>2018-02-05T21:43:32Z</time>
      </trkpt>
      <trkpt lat="45.11309" lon="5.39848">
        <ele>1000</ele>
        <time>2018-02-05T21:44:32Z</time>
      </trkpt>
      <trkpt lat="45.11304" lon="5.39851">
        <ele>1000</ele>
        <time>2018-02-05T21:45:32Z</time>
      </trkpt>
      <trkpt lat="45.113" lon="5.39854">
        <ele>1000</ele>
        <time>2018-02-05T21:46:32Z</time>
      </trkpt>
      <trkpt lat="45.11291" lon="5.39861">
        <ele>999</ele>
        <time>2018-02-05T21:47:32Z</time>
      </trkpt>
      <trkpt lat="45.11282" lon="5.39869">
        <ele>998</ele>
        <time>2018-02-05T21:48:32Z</time>
      </trkpt>
      <trkpt lat="45.11271" lon="5.39877">
        <ele>997</ele>
        <time>2018-02-05T21:49:32Z</time>
      </trkpt>
      <trkpt lat="45.11257" lon="5.39883">
        <ele>997</ele>
        <time>2018-02-05T21:50:32Z</time>
      </trkpt>
      <trkpt lat="45.11245" lon="5.39886">
        <ele>996</ele>
        <time>2018-02-05T21:51:32Z</time>
      </trkpt>
      <trkpt lat="45.11223" lon="5.39893">
        <ele>993</ele>
        <time>2018-02-05T21:52:32Z</time>
      </trkpt>
      <trkpt lat="45.11216" lon="5.39894">
        <ele>993</ele>
        <time>2018-02-05T21:53:32Z</time>
      </trkpt>
      <trkpt lat="45.1121" lon="5.39895">
        <ele>992</ele>
        <time>2018-02-05T21:54:32Z</time>
      </trkpt>
      <trkpt lat="45.11201" lon="5.39894">
        <ele>992</ele>
        <time>2018-02-05T21:55:32Z</time>
      </trkpt>
      <trkpt lat="45.11184" lon="5.39886">
        <ele>992</ele>
        <time>2018-02-05T21:56:32Z</time>
      </trkpt>
      <trkpt lat="45.11149" lon="5.39866">
        <ele>990</ele>
        <time>2018-02-05T21:57:32Z</time>
      </trkpt>
      <trkpt lat="45.1112" lon="5.39845">
        <ele>988</ele>
        <time>2018-02-05T21:58:32Z</time>
      </trkpt>
      <trkpt lat="45.11108" lon="5.39838">
        <ele>987</ele>
        <time>2018-02-05T21:59:32Z</time>
      </trkpt>
      <trkpt lat="45.11088" lon="5.39833">
        <ele>985</ele>
        <time>2018-02-05T22:00:32Z</time>
      </trkpt>
      <trkpt lat="45.1107" lon="5.3983">
        <ele>983</ele>
        <time>2018-02-05T22:01:32Z</time>
      </trkpt>
      <trkpt lat="45.11057" lon="5.39829">
        <ele>982</ele>
        <time>2018-02-05T22:02:32Z</time>
      </trkpt>
      <trkpt lat="45.11041" lon="5.39825">
        <ele>981</ele>
        <time>2018-02-05T22:03:32Z</time>
      </trkpt>
      <trkpt lat="45.11031" lon="5.39821">
        <ele>980</ele>
        <time>2018-02-05T22:04:32Z</time>
      </trkpt>
      <trkpt lat="45.11021" lon="5.39815">
        <ele>980</ele>
        <time>2018-02-05T22:05:32Z</time>
      </trkpt>
      <trkpt lat="45.11005" lon="5.39803">
        <ele>980</ele>
        <time>2018-02-05T22:06:32Z</time>
      </trkpt>
      <trkpt lat="45.10995" lon="5.39793">
        <ele>980</ele>
        <time>2018-02-05T22:07:32Z</time>
      </trkpt>
      <trkpt lat="45.1098" lon="5.39774">
        <ele>980</ele>
        <time>2018-02-05T22:08:32Z</time>
      </trkpt>
      <trkpt lat="45.10967" lon="5.39755">
        <ele>981</ele>
        <time>2018-02-05T22:09:32Z</time>
      </trkpt>
      <trkpt lat="45.10961" lon="5.39745">
        <ele>982</ele>
        <time>2018-02-05T22:10:32Z</time>
      </trkpt>
      <trkpt lat="45.10952" lon="5.39736">
        <ele>981</ele>
        <time>2018-02-05T22:11:32Z</time>
      </trkpt>
      <trkpt lat="45.10945" lon="5.39732">
        <ele>981</ele>
        <time>2018-02-05T22:12:32Z</time>
      </trkpt>
      <trkpt lat="45.10941" lon="5.3973">
        <ele>980</ele>
        <time>2018-02-05T22:13:32Z</time>
      </trkpt>
      <trkpt lat="45.10935" lon="5.39729">
        <ele>980</ele>
        <time>2018-02-05T22:14:32Z</time>
      </trkpt>
      <trkpt lat="45.10927" lon="5.3973">
        <ele>978</ele>
        <time>2018-02-05T22:15:32Z</time>
      </trkpt>
      <trkpt lat="45.10895" lon="5.39733">
        <ele>974</ele>
        <time>2018-02-05T22:16:32Z</time>
      </trkpt>
      <trkpt lat="45.10881" lon="5.39734">
        <ele>973</ele>
        <time>2018-02-05T22:17:32Z</time>
      </trkpt>
      <trkpt lat="45.10874" lon="5.39734">
        <ele>973</ele>
        <time>2018-02-05T22:18:32Z</time>
      </trkpt>
      <trkpt lat="45.10867" lon="5.39732">
        <ele>973</ele>
        <time>2018-02-05T22:19:32Z</time>
      </trkpt>
      <trkpt lat="45.10859" lon="5.39729">
        <ele>973</ele>
        <time>2018-02-05T22:20:32Z</time>
      </trkpt>
      <trkpt lat="45.10854" lon="5.39726">
        <ele>973</ele>
        <time>2018-02-05T22:21:32Z</time>
      </trkpt>
      <trkpt lat="45.10843" lon="5.39718">
        <ele>972</ele>
        <time>2018-02-05T22:22:32Z</time>
      </trkpt>
      <trkpt lat="45.10828" lon="5.39707">
        <ele>971</ele>
        <time>2018-02-05T22:23:32Z</time>
      </trkpt>
      <trkpt lat="45.1081" lon="5.39698">
        <ele>968</ele>
        <time>2018-02-05T22:24:32Z</time>
      </trkpt>
      <trkpt lat="45.10803" lon="5.39695">
        <ele>967</ele>
        <time>2018-02-05T22:25:32Z</time>
      </trkpt>
      <trkpt lat="45.10798" lon="5.39692">
        <ele>966</ele>
        <time>2018-02-05T22:26:32Z</time>
      </trkpt>
      <trkpt lat="45.10791" lon="5.39687">
        <ele>965</ele>
        <time>2018-02-05T22:27:32Z</time>
      </trkpt>
      <trkpt lat="45.10782" lon="5.39678">
        <ele>964</ele>
        <time>2018-02-05T22:28:32Z</time>
      </trkpt>
      <trkpt lat="45.10779" lon="5.3967">
        <ele>963</ele>
        <time>2018-02-05T22:29:32Z</time>
      </trkpt>
      <trkpt lat="45.10776" lon="5.39657">
        <ele>963</ele>
        <time>2018-02-05T22:30:32Z</time>
      </trkpt>
      <trkpt lat="45.10776" lon="5.39641">
        <ele>962</ele>
        <time>2018-02-05T22:31:32Z</time>
      </trkpt>
      <trkpt lat="45.1078" lon="5.39607">
        <ele>962</ele>
        <time>2018-02-05T22:32:32Z</time>
      </trkpt>
      <trkpt lat="45.1078" lon="5.39602">
        <ele>962</ele>
        <time>2018-02-05T22:33:32Z</time>
      </trkpt>
      <trkpt lat="45.1078" lon="5.39592">
        <ele>962</ele>
        <time>2018-02-05T22:34:32Z</time>
      </trkpt>
      <trkpt lat="45.10779" lon="5.39585">
        <ele>962</ele>
        <time>2018-02-05T22:35:32Z</time>
      </trkpt>
      <trkpt lat="45.10775" lon="5.3957">
        <ele>962</ele>
        <time>2018-02-05T22:36:32Z</time>
      </trkpt>
      <trkpt lat="45.10769" lon="5.39557">
        <ele>961</ele>
        <time>2018-02-05T22:37:32Z</time>
      </trkpt>
      <trkpt lat="45.10752" lon="5.39537">
        <ele>959</ele>
        <time>2018-02-05T22:38:32Z</time>
      </trkpt>
      <trkpt lat="45.10727" lon="5.39507">
        <ele>957</ele>
        <time>2018-02-05T22:39:32Z</time>
      </trkpt>
      <trkpt lat="45.10724" lon="5.39502">
        <ele>957</ele>
        <time>2018-02-05T22:40:32Z</time>
      </trkpt>
      <trkpt lat="45.1072" lon="5.39496">
        <ele>957</ele>
        <time>2018-02-05T22:41:32Z</time>
      </trkpt>
      <trkpt lat="45.10719" lon="5.39491">
        <ele>957</ele>
        <time>2018-02-05T22:42:32Z</time>
      </trkpt>
      <trkpt lat="45.10717" lon="5.39486">
        <ele>957</ele>
        <time>2018-02-05T22:43:32Z</time>
      </trkpt>
      <trkpt lat="45.10716" lon="5.39475">
        <ele>957</ele>
        <time>2018-02-05T22:44:32Z</time>
      </trkpt>
      <trkpt lat="45.10715" lon="5.39463">
        <ele>957</ele>
        <time>2018-02-05T22:45:32Z</time>
      </trkpt>
      <trkpt lat="45.10714" lon="5.39456">
        <ele>957</ele>
        <time>2018-02-05T22:46:32Z</time>
      </trkpt>
      <trkpt lat="45.10712" lon="5.3945">
        <ele>957</ele>
        <time>2018-02-05T22:47:32Z</time>
      </trkpt>
      <trkpt lat="45.1071" lon="5.39444">
        <ele>957</ele>
        <time>2018-02-05T22:48:32Z</time>
      </trkpt>
      <trkpt lat="45.10708" lon="5.39439">
        <ele>957</ele>
        <time>2018-02-05T22:49:32Z</time>
      </trkpt>
      <trkpt lat="45.10701" lon="5.39428">
        <ele>955</ele>
        <time>2018-02-05T22:50:32Z</time>
      </trkpt>
      <trkpt lat="45.10683" lon="5.39404">
        <ele>952</ele>
        <time>2018-02-05T22:51:32Z</time>
      </trkpt>
      <trkpt lat="45.10663" lon="5.39372">
        <ele>954</ele>
        <time>2018-02-05T22:52:32Z</time>
      </trkpt>
      <trkpt lat="45.10659" lon="5.39366">
        <ele>955</ele>
        <time>2018-02-05T22:53:32Z</time>
      </trkpt>
      <trkpt lat="45.10655" lon="5.39361">
        <ele>955</ele>
        <time>2018-02-05T22:54:32Z</time>
      </trkpt>
      <trkpt lat="45.10652" lon="5.39357">
        <ele>955</ele>
        <time>2018-02-05T22:55:32Z</time>
      </trkpt>
      <trkpt lat="45.10647" lon="5.39353">
        <ele>955</ele>
        <time>2018-02-05T22:56:32Z</time>
      </trkpt>
      <trkpt lat="45.10642" lon="5.39349">
        <ele>954</ele>
        <time>2018-02-05T22:57:32Z</time>
      </trkpt>
      <trkpt lat="45.10633" lon="5.39345">
        <ele>953</ele>
        <time>2018-02-05T22:58:32Z</time>
      </trkpt>
      <trkpt lat="45.10626" lon="5.39342">
        <ele>952</ele>
        <time>2018-02-05T22:59:32Z</time>
      </trkpt>
      <trkpt lat="45.10614" lon="5.39338">
        <ele>950</ele>
        <time>2018-02-05T23:00:32Z</time>
      </trkpt>
      <trkpt lat="45.10605" lon="5.39336">
        <ele>948</ele>
        <time>2018-02-05T23:01:32Z</time>
      </trkpt>
      <trkpt lat="45.10597" lon="5.39333">
        <ele>946</ele>
        <time>2018-02-05T23:02:32Z</time>
      </trkpt>
      <trkpt lat="45.1059" lon="5.3933">
        <ele>945</ele>
        <time>2018-02-05T23:03:32Z</time>
      </trkpt>
      <trkpt lat="45.10582" lon="5.39326">
        <ele>944</ele>
        <time>2018-02-05T23:04:32Z</time>
      </trkpt>
      <trkpt lat="45.10578" lon="5.39322">
        <ele>943</ele>
        <time>2018-02-05T23:05:32Z</time>
      </trkpt>
      <trkpt lat="45.10573" lon="5.39318">
        <ele>943</ele>
        <time>2018-02-05T23:06:32Z</time>
      </trkpt>
      <trkpt lat="45.10568" lon="5.39312">
        <ele>943</ele>
        <time>2018-02-05T23:07:32Z</time>
      </trkpt>
      <trkpt lat="45.10557" lon="5.39298">
        <ele>942</ele>
        <time>2018-02-05T23:08:32Z</time>
      </trkpt>
      <trkpt lat="45.10548" lon="5.39286">
        <ele>942</ele>
        <time>2018-02-05T23:09:32Z</time>
      </trkpt>
      <trkpt lat="45.1054" lon="5.39278">
        <ele>941</ele>
        <time>2018-02-05T23:10:32Z</time>
      </trkpt>
      <trkpt lat="45.10536" lon="5.39273">
        <ele>941</ele>
        <time>2018-02-05T23:11:32Z</time>
      </trkpt>
      <trkpt lat="45.10526" lon="5.39264">
        <ele>939</ele>
        <time>2018-02-05T23:12:32Z</time>
      </trkpt>
      <trkpt lat="45.1051" lon="5.39251">
        <ele>937</ele>
        <time>2018-02-05T23:13:32Z</time>
      </trkpt>
      <trkpt lat="45.10497" lon="5.39238">
        <ele>936</ele>
        <time>2018-02-05T23:14:32Z</time>
      </trkpt>
      <trkpt lat="45.10483" lon="5.39227">
        <ele>936</ele>
        <time>2018-02-05T23:15:32Z</time>
      </trkpt>
      <trkpt lat="45.10474" lon="5.3922">
        <ele>936</ele>
        <time>2018-02-05T23:16:32Z</time>
      </trkpt>
      <trkpt lat="45.10461" lon="5.39209">
        <ele>937</ele>
        <time>2018-02-05T23:17:32Z</time>
      </trkpt>
      <trkpt lat="45.10455" lon="5.39203">
        <ele>937</ele>
        <time>2018-02-05T23:18:32Z</time>
      </trkpt>
      <trkpt lat="45.1045" lon="5.39198">
        <ele>937</ele>
        <time>2018-02-05T23:19:32Z</time>
      </trkpt>
      <trkpt lat="45.10446" lon="5.39193">
        <ele>937</ele>
        <time>2018-02-05T23:20:32Z</time>
      </trkpt>
      <trkpt lat="45.10442" lon="5.39186">
        <ele>938</ele>
        <time>2018-02-05T23:21:32Z</time>
      </trkpt>
      <trkpt lat="45.10438" lon="5.39179">
        <ele>938</ele>
        <time>2018-02-05T23:22:32Z</time>
      </trkpt>
      <trkpt lat="45.10435" lon="5.39175">
        <ele>938</ele>
        <time>2018-02-05T23:23:32Z</time>
      </trkpt>
      <trkpt lat="45.10431" lon="5.39172">
        <ele>938</ele>
        <time>2018-02-05T23:24:32Z</time>
      </trkpt>
      <trkpt lat="45.10427" lon="5.39169">
        <ele>938</ele>
        <time>2018-02-05T23:25:32Z</time>
      </trkpt>
      <trkpt lat="45.10421" lon="5.39166">
        <ele>938</ele>
        <time>2018-02-05T23:26:32Z</time>
      </trkpt>
      <trkpt lat="45.10416" lon="5.39165">
        <ele>938</ele>
        <time>2018-02-05T23:27:32Z</time>
      </trkpt>
      <trkpt lat="45.10409" lon="5.39163">
        <ele>938</ele>
        <time>2018-02-05T23:28:32Z</time>
      </trkpt>
      <trkpt lat="45.10402" lon="5.39162">
        <ele>938</ele>
        <time>2018-02-05T23:29:32Z</time>
      </trkpt>
      <trkpt lat="45.10395" lon="5.39161">
        <ele>937</ele>
        <time>2018-02-05T23:30:32Z</time>
      </trkpt>
      <trkpt lat="45.10387" lon="5.39162">
        <ele>937</ele>
        <time>2018-02-05T23:31:32Z</time>
      </trkpt>
      <trkpt lat="45.1038" lon="5.39162">
        <ele>936</ele>
        <time>2018-02-05T23:32:32Z</time>
      </trkpt>
      <trkpt lat="45.10363" lon="5.39166">
        <ele>934</ele>
        <time>2018-02-05T23:33:32Z</time>
      </trkpt>
      <trkpt lat="45.10345" lon="5.39169">
        <ele>933</ele>
        <time>2018-02-05T23:34:32Z</time>
      </trkpt>
      <trkpt lat="45.10326" lon="5.39173">
        <ele>930</ele>
        <time>2018-02-05T23:35:32Z</time>
      </trkpt>
      <trkpt lat="45.10317" lon="5.39175">
        <ele>929</ele>
        <time>2018-02-05T23:36:32Z</time>
      </trkpt>
      <trkpt lat="45.10312" lon="5.39176">
        <ele>928</ele>
        <time>2018-02-05T23:37:32Z</time>
      </trkpt>
      <trkpt lat="45.10308" lon="5.39177">
        <ele>928</ele>
        <time>2018-02-05T23:38:32Z</time>
      </trkpt>
      <trkpt lat="45.10304" lon="5.39177">
        <ele>927</ele>
        <time>2018-02-05T23:39:32Z</time>
      </trkpt>
      <trkpt lat="45.103" lon="5.39177">
        <ele>927</ele>
        <time>2018-02-05T23:40:32Z</time>
      </trkpt>
      <trkpt lat="45.10294" lon="5.39175">
        <ele>926</ele>
        <time>2018-02-05T23:41:32Z</time>
      </trkpt>
      <trkpt lat="45.10283" lon="5.39172">
        <ele>925</ele>
        <time>2018-02-05T23:42:32Z</time>
      </trkpt>
      <trkpt lat="45.10259" lon="5.3916">
        <ele>922</ele>
        <time>2018-02-05T23:43:32Z</time>
      </trkpt>
      <trkpt lat="45.10241" lon="5.39149">
        <ele>921</ele>
        <time>2018-02-05T23:44:32Z</time>
      </trkpt>
      <trkpt lat="45.10233" lon="5.39144">
        <ele>921</ele>
        <time>2018-02-05T23:45:32Z</time>
      </trkpt>
      <trkpt lat="45.1023" lon="5.39139">
        <ele>921</ele>
        <time>2018-02-05T23:46:32Z</time>
      </trkpt>
      <trkpt lat="45.10228" lon="5.39135">
        <ele>921</ele>
        <time>2018-02-05T23:47:32Z</time>
      </trkpt>
      <trkpt lat="45.10226" lon="5.39131">
        <ele>921</ele>
        <time>2018-02-05T23:48:32Z</time>
      </trkpt>
      <trkpt lat="45.10225" lon="5.39125">
        <ele>922</ele>
        <time>2018-02-05T23:49:32Z</time>
      </trkpt>
      <trkpt lat="45.10225" lon="5.39121">
        <ele>922</ele>
        <time>2018-02-05T23:50:32Z</time>
      </trkpt>
      <trkpt lat="45.10225" lon="5.39112">
        <ele>923</ele>
        <time>2018-02-05T23:51:32Z</time>
      </trkpt>
      <trkpt lat="45.10225" lon="5.39097">
        <ele>924</ele>
        <time>2018-02-05T23:52:32Z</time>
      </trkpt>
      <trkpt lat="45.10225" lon="5.39087">
        <ele>925</ele>
        <time>2018-02-05T23:53:32Z</time>
      </trkpt>
      <trkpt lat="45.10224" lon="5.39083">
        <ele>925</ele>
        <time>2018-02-05T23:54:32Z</time>
      </trkpt>
      <trkpt lat="45.10223" lon="5.39078">
        <ele>926</ele>
        <time>2018-02-05T23:55:32Z</time>
      </trkpt>
      <trkpt lat="45.10221" lon="5.39074">
        <ele>926</ele>
        <time>2018-02-05T23:56:32Z</time>
      </trkpt>
      <trkpt lat="45.10219" lon="5.3907">
        <ele>926</ele>
        <time>2018-02-05T23:57:32Z</time>
      </trkpt>
      <trkpt lat="45.10216" lon="5.39065">
        <ele>926</ele>
        <time>2018-02-05T23:58:32Z</time>
      </trkpt>
      <trkpt lat="45.10211" lon="5.39061">
        <ele>925</ele>
        <time>2018-02-05T23:59:32Z</time>
      </trkpt>
      <trkpt lat="45.10199" lon="5.39051">
        <ele>923</ele>
        <time>2018-02-06T00:00:32Z</time>
      </trkpt>
      <trkpt lat="45.10184" lon="5.39038">
        <ele>922</ele>
        <time>2018-02-06T00:01:32Z</time>
      </trkpt>
      <trkpt lat="45.10165" lon="5.39021">
        <ele>920</ele>
        <time>2018-02-06T00:02:32Z</time>
      </trkpt>
      <trkpt lat="45.10154" lon="5.39011">
        <ele>920</ele>
        <time>2018-02-06T00:03:32Z</time>
      </trkpt>
      <trkpt lat="45.1011" lon="5.38976">
        <ele>919</ele>
        <time>2018-02-06T00:04:32Z</time>
      </trkpt>
      <trkpt lat="45.10086" lon="5.38955">
        <ele>918</ele>
        <time>2018-02-06T00:05:32Z</time>
      </trkpt>
      <trkpt lat="45.10079" lon="5.38949">
        <ele>919</ele>
        <time>2018-02-06T00:06:32Z</time>
      </trkpt>
      <trkpt lat="45.10074" lon="5.38946">
        <ele>919</ele>
        <time>2018-02-06T00:07:32Z</time>
      </trkpt>
      <trkpt lat="45.10071" lon="5.38945">
        <ele>919</ele>
        <time>2018-02-06T00:08:32Z</time>
      </trkpt>
      <trkpt lat="45.10066" lon="5.38944">
        <ele>919</ele>
        <time>2018-02-06T00:09:32Z</time>
      </trkpt>
      <trkpt lat="45.10062" lon="5.38944">
        <ele>919</ele>
        <time>2018-02-06T00:10:32Z</time>
      </trkpt>
      <trkpt lat="45.10057" lon="5.38945">
        <ele>919</ele>
        <time>2018-02-06T00:11:32Z</time>
      </trkpt>
      <trkpt lat="45.10053" lon="5.38948">
        <ele>919</ele>
        <time>2018-02-06T00:12:32Z</time>
      </trkpt>
      <trkpt lat="45.10047" lon="5.38953">
        <ele>918</ele>
        <time>2018-02-06T00:13:32Z</time>
      </trkpt>
      <trkpt lat="45.10042" lon="5.38962">
        <ele>917</ele>
        <time>2018-02-06T00:14:32Z</time>
      </trkpt>
      <trkpt lat="45.10009" lon="5.38998">
        <ele>910</ele>
        <time>2018-02-06T00:15:32Z</time>
      </trkpt>
      <trkpt lat="45.10003" lon="5.39005">
        <ele>909</ele>
        <time>2018-02-06T00:16:32Z</time>
      </trkpt>
      <trkpt lat="45.09997" lon="5.3901">
        <ele>908</ele>
        <time>2018-02-06T00:17:32Z</time>
      </trkpt>
      <trkpt lat="45.09994" lon="5.39012">
        <ele>908</ele>
        <time>2018-02-06T00:18:32Z</time>
      </trkpt>
      <trkpt lat="45.0999" lon="5.39014">
        <ele>907</ele>
        <time>2018-02-06T00:19:32Z</time>
      </trkpt>
      <trkpt lat="45.09984" lon="5.39016">
        <ele>907</ele>
        <time>2018-02-06T00:20:32Z</time>
      </trkpt>
      <trkpt lat="45.09977" lon="5.39017">
        <ele>907</ele>
        <time>2018-02-06T00:21:32Z</time>
      </trkpt>
      <trkpt lat="45.09971" lon="5.39018">
        <ele>906</ele>
        <time>2018-02-06T00:22:32Z</time>
      </trkpt>
      <trkpt lat="45.09964" lon="5.39017">
        <ele>906</ele>
        <time>2018-02-06T00:23:32Z</time>
      </trkpt>
      <trkpt lat="45.09957" lon="5.39015">
        <ele>906</ele>
        <time>2018-02-06T00:24:32Z</time>
      </trkpt>
      <trkpt lat="45.0995" lon="5.39011">
        <ele>906</ele>
        <time>2018-02-06T00:25:32Z</time>
      </trkpt>
      <trkpt lat="45.09938" lon="5.39002">
        <ele>907</ele>
        <time>2018-02-06T00:26:32Z</time>
      </trkpt>
      <trkpt lat="45.09926" lon="5.3899">
        <ele>908</ele>
        <time>2018-02-06T00:27:32Z</time>
      </trkpt>
      <trkpt lat="45.09915" lon="5.38977">
        <ele>910</ele>
        <time>2018-02-06T00:28:32Z</time>
      </trkpt>
      <trkpt lat="45.09904" lon="5.38965">
        <ele>911</ele>
        <time>2018-02-06T00:29:32Z</time>
      </trkpt>
      <trkpt lat="45.09894" lon="5.38951">
        <ele>913</ele>
        <time>2018-02-06T00:30:32Z</time>
      </trkpt>
      <trkpt lat="45.09879" lon="5.38932">
        <ele>914</ele>
        <time>2018-02-06T00:31:32Z</time>
      </trkpt>
      <trkpt lat="45.09875" lon="5.38926">
        <ele>915</ele>
        <time>2018-02-06T00:32:32Z</time>
      </trkpt>
      <trkpt lat="45.0987" lon="5.3892">
        <ele>915</ele>
        <time>2018-02-06T00:33:32Z</time>
      </trkpt>
      <trkpt lat="45.09865" lon="5.38915">
        <ele>915</ele>
        <time>2018-02-06T00:34:32Z</time>
      </trkpt>
      <trkpt lat="45.0986" lon="5.3891">
        <ele>915</ele>
        <time>2018-02-06T00:35:32Z</time>
      </trkpt>
      <trkpt lat="45.09854" lon="5.38908">
        <ele>915</ele>
        <time>2018-02-06T00:36:32Z</time>
      </trkpt>
      <trkpt lat="45.09849" lon="5.38907">
        <ele>914</ele>
        <time>2018-02-06T00:37:32Z</time>
      </trkpt>
      <trkpt lat="45.09841" lon="5.38907">
        <ele>913</ele>
        <time>2018-02-06T00:38:32Z</time>
      </trkpt>
      <trkpt lat="45.09838" lon="5.38909">
        <ele>912</ele>
        <time>2018-02-06T00:39:32Z</time>
      </trkpt>
      <trkpt lat="45.09836" lon="5.3891">
        <ele>912</ele>
        <time>2018-02-06T00:40:32Z</time>
      </trkpt>
      <trkpt lat="45.09831" lon="5.38913">
        <ele>911</ele>
        <time>2018-02-06T00:41:32Z</time>
      </trkpt>
      <trkpt lat="45.09827" lon="5.38917">
        <ele>910</ele>
        <time>2018-02-06T00:42:32Z</time>
      </trkpt>
      <trkpt lat="45.09821" lon="5.38922">
        <ele>909</ele>
        <time>2018-02-06T00:43:32Z</time>
      </trkpt>
      <trkpt lat="45.09815" lon="5.38926">
        <ele>908</ele>
        <time>2018-02-06T00:44:32Z</time>
      </trkpt>
      <trkpt lat="45.0981" lon="5.38931">
        <ele>907</ele>
        <time>2018-02-06T00:45:32Z</time>
      </trkpt>
      <trkpt lat="45.09804" lon="5.38935">
        <ele>906</ele>
        <time>2018-02-06T00:46:32Z</time>
      </trkpt>
      <trkpt lat="45.0979" lon="5.38939">
        <ele>905</ele>
        <time>2018-02-06T00:47:32Z</time>
      </trkpt>
      <trkpt lat="45.09784" lon="5.3894">
        <ele>905</ele>
        <time>2018-02-06T00:48:32Z</time>
      </trkpt>
      <trkpt lat="45.09777" lon="5.38939">
        <ele>905</ele>
        <time>2018-02-06T00:49:32Z</time>
      </trkpt>
      <trkpt lat="45.0977" lon="5.38937">
        <ele>905</ele>
        <time>2018-02-06T00:50:32Z</time>
      </trkpt>
      <trkpt lat="45.09764" lon="5.38934">
        <ele>904</ele>
        <time>2018-02-06T00:51:32Z</time>
      </trkpt>
      <trkpt lat="45.09757" lon="5.38927">
        <ele>905</ele>
        <time>2018-02-06T00:52:32Z</time>
      </trkpt>
      <trkpt lat="45.09747" lon="5.38915">
        <ele>905</ele>
        <time>2018-02-06T00:53:32Z</time>
      </trkpt>
      <trkpt lat="45.09739" lon="5.38906">
        <ele>905</ele>
        <time>2018-02-06T00:54:32Z</time>
      </trkpt>
      <trkpt lat="45.09735" lon="5.38902">
        <ele>905</ele>
        <time>2018-02-06T00:55:32Z</time>
      </trkpt>
      <trkpt lat="45.09727" lon="5.38897">
        <ele>904</ele>
        <time>2018-02-06T00:56:32Z</time>
      </trkpt>
      <trkpt lat="45.09716" lon="5.38891">
        <ele>904</ele>
        <time>2018-02-06T00:57:32Z</time>
      </trkpt>
      <trkpt lat="45.09702" lon="5.38885">
        <ele>902</ele>
        <time>2018-02-06T00:58:32Z</time>
      </trkpt>
      <trkpt lat="45.09674" lon="5.38876">
        <ele>899</ele>
        <time>2018-02-06T00:59:32Z</time>
      </trkpt>
      <trkpt lat="45.09669" lon="5.38874">
        <ele>898</ele>
        <time>2018-02-06T01:00:32Z</time>
      </trkpt>
      <trkpt lat="45.09659" lon="5.38871">
        <ele>897</ele>
        <time>2018-02-06T01:01:32Z</time>
      </trkpt>
      <trkpt lat="45.09649" lon="5.38868">
        <ele>897</ele>
        <time>2018-02-06T01:02:32Z</time>
      </trkpt>
      <trkpt lat="45.09643" lon="5.38865">
        <ele>896</ele>
        <time>2018-02-06T01:03:32Z</time>
      </trkpt>
      <trkpt lat="45.09639" lon="5.38861">
        <ele>896</ele>
        <time>2018-02-06T01:04:32Z</time>
      </trkpt>
      <trkpt lat="45.09635" lon="5.38856">
        <ele>896</ele>
        <time>2018-02-06T01:05:32Z</time>
      </trkpt>
      <trkpt lat="45.09635" lon="5.38853">
        <ele>897</ele>
        <time>2018-02-06T01:06:32Z</time>
      </trkpt>
      <trkpt lat="45.09635" lon="5.3885">
        <ele>897</ele>
        <time>2018-02-06T01:07:32Z</time>
      </trkpt>
      <trkpt lat="45.09635" lon="5.38848">
        <ele>897</ele>
        <time>2018-02-06T01:08:32Z</time>
      </trkpt>
      <trkpt lat="45.09636" lon="5.38844">
        <ele>897</ele>
        <time>2018-02-06T01:09:32Z</time>
      </trkpt>
      <trkpt lat="45.09639" lon="5.38841">
        <ele>898</ele>
        <time>2018-02-06T01:10:32Z</time>
      </trkpt>
      <trkpt lat="45.09644" lon="5.38834">
        <ele>899</ele>
        <time>2018-02-06T01:11:32Z</time>
      </trkpt>
      <trkpt lat="45.09649" lon="5.38828">
        <ele>900</ele>
        <time>2018-02-06T01:12:32Z</time>
      </trkpt>
      <trkpt lat="45.09651" lon="5.38823">
        <ele>900</ele>
        <time>2018-02-06T01:13:32Z</time>
      </trkpt>
      <trkpt lat="45.09653" lon="5.38819">
        <ele>901</ele>
        <time>2018-02-06T01:14:32Z</time>
      </trkpt>
      <trkpt lat="45.09653" lon="5.38815">
        <ele>901</ele>
        <time>2018-02-06T01:15:32Z</time>
      </trkpt>
      <trkpt lat="45.09653" lon="5.3881">
        <ele>901</ele>
        <time>2018-02-06T01:16:32Z</time>
      </trkpt>
      <trkpt lat="45.09653" lon="5.38803">
        <ele>901</ele>
        <time>2018-02-06T01:17:32Z</time>
      </trkpt>
      <trkpt lat="45.09652" lon="5.38798">
        <ele>901</ele>
        <time>2018-02-06T01:18:32Z</time>
      </trkpt>
      <trkpt lat="45.0965" lon="5.38789">
        <ele>901</ele>
        <time>2018-02-06T01:19:32Z</time>
      </trkpt>
      <trkpt lat="45.0964" lon="5.38765">
        <ele>900</ele>
        <time>2018-02-06T01:20:32Z</time>
      </trkpt>
      <trkpt lat="45.09636" lon="5.38758">
        <ele>900</ele>
        <time>2018-02-06T01:21:32Z</time>
      </trkpt>
      <trkpt lat="45.09633" lon="5.38753">
        <ele>900</ele>
        <time>2018-02-06T01:22:32Z</time>
      </trkpt>
      <trkpt lat="45.0963" lon="5.38747">
        <ele>900</ele>
        <time>2018-02-06T01:23:32Z</time>
      </trkpt>
      <trkpt lat="45.09626" lon="5.38744">
        <ele>900</ele>
        <time>2018-02-06T01:24:32Z</time>
      </trkpt>
      <trkpt lat="45.09623" lon="5.38741">
        <ele>899</ele>
        <time>2018-02-06T01:25:32Z</time>
      </trkpt>
      <trkpt lat="45.09619" lon="5.38739">
        <ele>899</ele>
        <time>2018-02-06T01:26:32Z</time>
      </trkpt>
      <trkpt lat="45.09613" lon="5.38738">
        <ele>899</ele>
        <time>2018-02-06T01:27:32Z</time>
      </trkpt>
      <trkpt lat="45.09607" lon="5.38737">
        <ele>898</ele>
        <time>2018-02-06T01:28:32Z</time>
      </trkpt>
      <trkpt lat="45.09603" lon="5.38738">
        <ele>898</ele>
        <time>2018-02-06T01:29:32Z</time>
      </trkpt>
      <trkpt lat="45.09591" lon="5.38743">
        <ele>897</ele>
        <time>2018-02-06T01:30:32Z</time>
      </trkpt>
      <trkpt lat="45.09581" lon="5.38747">
        <ele>897</ele>
        <time>2018-02-06T01:31:32Z</time>
      </trkpt>
      <trkpt lat="45.09575" lon="5.38751">
        <ele>895</ele>
        <time>2018-02-06T01:32:32Z</time>
      </trkpt>
      <trkpt lat="45.0957" lon="5.38752">
        <ele>894</ele>
        <time>2018-02-06T01:33:32Z</time>
      </trkpt>
      <trkpt lat="45.09564" lon="5.38751">
        <ele>893</ele>
        <time>2018-02-06T01:34:32Z</time>
      </trkpt>
      <trkpt lat="45.0956" lon="5.3875">
        <ele>893</ele>
        <time>2018-02-06T01:35:32Z</time>
      </trkpt>
      <trkpt lat="45.09555" lon="5.38747">
        <ele>892</ele>
        <time>2018-02-06T01:36:32Z</time>
      </trkpt>
      <trkpt lat="45.09551" lon="5.38743">
        <ele>891</ele>
        <time>2018-02-06T01:37:32Z</time>
      </trkpt>
      <trkpt lat="45.09548" lon="5.38738">
        <ele>890</ele>
        <time>2018-02-06T01:38:32Z</time>
      </trkpt>
      <trkpt lat="45.09546" lon="5.38733">
        <ele>890</ele>
        <time>2018-02-06T01:39:32Z</time>
      </trkpt>
      <trkpt lat="45.09545" lon="5.38726">
        <ele>889</ele>
        <time>2018-02-06T01:40:32Z</time>
      </trkpt>
      <trkpt lat="45.09545" lon="5.38717">
        <ele>889</ele>
        <time>2018-02-06T01:41:32Z</time>
      </trkpt>
      <trkpt lat="45.09546" lon="5.38709">
        <ele>889</ele>
        <time>2018-02-06T01:42:32Z</time>
      </trkpt>
      <trkpt lat="45.0955" lon="5.38698">
        <ele>889</ele>
        <time>2018-02-06T01:43:32Z</time>
      </trkpt>
      <trkpt lat="45.09556" lon="5.38685">
        <ele>890</ele>
        <time>2018-02-06T01:44:32Z</time>
      </trkpt>
      <trkpt lat="45.09558" lon="5.38677">
        <ele>890</ele>
        <time>2018-02-06T01:45:32Z</time>
      </trkpt>
      <trkpt lat="45.0956" lon="5.38671">
        <ele>891</ele>
        <time>2018-02-06T01:46:32Z</time>
      </trkpt>
      <trkpt lat="45.0956" lon="5.38666">
        <ele>891</ele>
        <time>2018-02-06T01:47:32Z</time>
      </trkpt>
      <trkpt lat="45.09559" lon="5.38658">
        <ele>892</ele>
        <time>2018-02-06T01:48:32Z</time>
      </trkpt>
      <trkpt lat="45.09557" lon="5.38651">
        <ele>893</ele>
        <time>2018-02-06T01:49:32Z</time>
      </trkpt>
      <trkpt lat="45.09554" lon="5.38645">
        <ele>893</ele>
        <time>2018-02-06T01:50:32Z</time>
      </trkpt>
      <trkpt lat="45.0955" lon="5.38639">
        <ele>893</ele>
        <time>2018-02-06T01:51:32Z</time>
      </trkpt>
      <trkpt lat="45.09539" lon="5.38628">
        <ele>893</ele>
        <time>2018-02-06T01:52:32Z</time>
      </trkpt>
      <trkpt lat="45.0952" lon="5.38613">
        <ele>893</ele>
        <time>2018-02-06T01:53:32Z</time>
      </trkpt>
      <trkpt lat="45.09504" lon="5.38602">
        <ele>892</ele>
        <time>2018-02-06T01:54:32Z</time>
      </trkpt>
      <trkpt lat="45.0949" lon="5.38593">
        <ele>892</ele>
        <time>2018-02-06T01:55:32Z</time>
      </trkpt>
      <trkpt lat="45.0948" lon="5.38586">
        <ele>891</ele>
        <time>2018-02-06T01:56:32Z</time>
      </trkpt>
      <trkpt lat="45.09469" lon="5.3858">
        <ele>890</ele>
        <time>2018-02-06T01:57:32Z</time>
      </trkpt>
      <trkpt lat="45.09457" lon="5.38574">
        <ele>888</ele>
        <time>2018-02-06T01:58:32Z</time>
      </trkpt>
      <trkpt lat="45.09446" lon="5.3857">
        <ele>886</ele>
        <time>2018-02-06T01:59:32Z</time>
      </trkpt>
      <trkpt lat="45.09427" lon="5.38563">
        <ele>884</ele>
        <time>2018-02-06T02:00:32Z</time>
      </trkpt>
      <trkpt lat="45.09417" lon="5.3856">
        <ele>882</ele>
        <time>2018-02-06T02:01:32Z</time>
      </trkpt>
      <trkpt lat="45.09409" lon="5.38557">
        <ele>881</ele>
        <time>2018-02-06T02:02:32Z</time>
      </trkpt>
      <trkpt lat="45.09403" lon="5.38553">
        <ele>881</ele>
        <time>2018-02-06T02:03:32Z</time>
      </trkpt>
      <trkpt lat="45.09396" lon="5.38549">
        <ele>880</ele>
        <time>2018-02-06T02:04:32Z</time>
      </trkpt>
      <trkpt lat="45.09389" lon="5.38543">
        <ele>879</ele>
        <time>2018-02-06T02:05:32Z</time>
      </trkpt>
      <trkpt lat="45.09381" lon="5.38534">
        <ele>879</ele>
        <time>2018-02-06T02:06:32Z</time>
      </trkpt>
      <trkpt lat="45.09375" lon="5.38527">
        <ele>879</ele>
        <time>2018-02-06T02:07:32Z</time>
      </trkpt>
      <trkpt lat="45.09372" lon="5.38522">
        <ele>879</ele>
        <time>2018-02-06T02:08:32Z</time>
      </trkpt>
      <trkpt lat="45.09367" lon="5.38511">
        <ele>880</ele>
        <time>2018-02-06T02:09:32Z</time>
      </trkpt>
      <trkpt lat="45.0936" lon="5.38494">
        <ele>881</ele>
        <time>2018-02-06T02:10:32Z</time>
      </trkpt>
      <trkpt lat="45.09354" lon="5.38478">
        <ele>880</ele>
        <time>2018-02-06T02:11:32Z</time>
      </trkpt>
      <trkpt lat="45.09349" lon="5.38471">
        <ele>879</ele>
        <time>2018-02-06T02:12:32Z</time>
      </trkpt>
      <trkpt lat="45.09347" lon="5.38466">
        <ele>879</ele>
        <time>2018-02-06T02:13:32Z</time>
      </trkpt>
      <trkpt lat="45.09342" lon="5.3846">
        <ele>878</ele>
        <time>2018-02-06T02:14:32Z</time>
      </trkpt>
      <trkpt lat="45.09334" lon="5.38453">
        <ele>877</ele>
        <time>2018-02-06T02:15:32Z</time>
      </trkpt>
      <trkpt lat="45.09328" lon="5.38447">
        <ele>876</ele>
        <time>2018-02-06T02:16:32Z</time>
      </trkpt>
      <trkpt lat="45.09321" lon="5.38438">
        <ele>875</ele>
        <time>2018-02-06T02:17:32Z</time>
      </trkpt>
      <trkpt lat="45.09315" lon="5.38424">
        <ele>874</ele>
        <time>2018-02-06T02:18:32Z</time>
      </trkpt>
      <trkpt lat="45.09307" lon="5.38408">
        <ele>875</ele>
        <time>2018-02-06T02:19:32Z</time>
      </trkpt>
      <trkpt lat="45.09302" lon="5.38395">
        <ele>876</ele>
        <time>2018-02-06T02:20:32Z</time>
      </trkpt>
      <trkpt lat="45.09294" lon="5.38383">
        <ele>876</ele>
        <time>2018-02-06T02:21:32Z</time>
      </trkpt>
      <trkpt lat="45.09285" lon="5.38373">
        <ele>875</ele>
        <time>2018-02-06T02:22:32Z</time>
      </trkpt>
      <trkpt lat="45.09272" lon="5.38357">
        <ele>874</ele>
        <time>2018-02-06T02:23:32Z</time>
      </trkpt>
      <trkpt lat="45.09259" lon="5.38338">
        <ele>874</ele>
        <time>2018-02-06T02:24:32Z</time>
      </trkpt>
      <trkpt lat="45.0924" lon="5.38317">
        <ele>871</ele>
        <time>2018-02-06T02:25:32Z</time>
      </trkpt>
      <trkpt lat="45.09225" lon="5.38301">
        <ele>869</ele>
        <time>2018-02-06T02:26:32Z</time>
      </trkpt>
      <trkpt lat="45.09216" lon="5.38289">
        <ele>868</ele>
        <time>2018-02-06T02:27:32Z</time>
      </trkpt>
      <trkpt lat="45.09208" lon="5.38278">
        <ele>867</ele>
        <time>2018-02-06T02:28:32Z</time>
      </trkpt>
      <trkpt lat="45.09203" lon="5.38272">
        <ele>867</ele>
        <time>2018-02-06T02:29:32Z</time>
      </trkpt>
      <trkpt lat="45.09198" lon="5.38264">
        <ele>867</ele>
        <time>2018-02-06T02:30:32Z</time>
      </trkpt>
      <trkpt lat="45.09195" lon="5.38261">
        <ele>866</ele>
        <time>2018-02-06T02:31:32Z</time>
      </trkpt>
      <trkpt lat="45.09192" lon="5.38258">
        <ele>866</ele>
        <time>2018-02-06T02:32:32Z</time>
      </trkpt>
      <trkpt lat="45.09188" lon="5.38256">
        <ele>866</ele>
        <time>2018-02-06T02:33:32Z</time>
      </trkpt>
      <trkpt lat="45.0918" lon="5.38253">
        <ele>865</ele>
        <time>2018-02-06T02:34:32Z</time>
      </trkpt>
      <trkpt lat="45.09172" lon="5.3825">
        <ele>864</ele>
        <time>2018-02-06T02:35:32Z</time>
      </trkpt>
      <trkpt lat="45.09164" lon="5.38248">
        <ele>863</ele>
        <time>2018-02-06T02:36:32Z</time>
      </trkpt>
      <trkpt lat="45.09155" lon="5.38247">
        <ele>862</ele>
        <time>2018-02-06T02:37:32Z</time>
      </trkpt>
      <trkpt lat="45.0914" lon="5.38247">
        <ele>860</ele>
        <time>2018-02-06T02:38:32Z</time>
      </trkpt>
      <trkpt lat="45.09132" lon="5.38247">
        <ele>860</ele>
        <time>2018-02-06T02:39:32Z</time>
      </trkpt>
      <trkpt lat="45.09122" lon="5.38248">
        <ele>859</ele>
        <time>2018-02-06T02:40:32Z</time>
      </trkpt>
      <trkpt lat="45.09116" lon="5.38248">
        <ele>858</ele>
        <time>2018-02-06T02:41:32Z</time>
      </trkpt>
      <trkpt lat="45.09113" lon="5.38248">
        <ele>858</ele>
        <time>2018-02-06T02:42:32Z</time>
      </trkpt>
      <trkpt lat="45.0911" lon="5.38247">
        <ele>858</ele>
        <time>2018-02-06T02:43:32Z</time>
      </trkpt>
      <trkpt lat="45.09106" lon="5.38244">
        <ele>857</ele>
        <time>2018-02-06T02:44:32Z</time>
      </trkpt>
      <trkpt lat="45.09102" lon="5.38238">
        <ele>857</ele>
        <time>2018-02-06T02:45:32Z</time>
      </trkpt>
      <trkpt lat="45.09096" lon="5.38232">
        <ele>857</ele>
        <time>2018-02-06T02:46:32Z</time>
      </trkpt>
      <trkpt lat="45.09092" lon="5.38228">
        <ele>857</ele>
        <time>2018-02-06T02:47:32Z</time>
      </trkpt>
      <trkpt lat="45.09086" lon="5.38225">
        <ele>857</ele>
        <time>2018-02-06T02:48:32Z</time>
      </trkpt>
      <trkpt lat="45.09081" lon="5.38221">
        <ele>857</ele>
        <time>2018-02-06T02:49:32Z</time>
      </trkpt>
      <trkpt lat="45.09077" lon="5.38219">
        <ele>857</ele>
        <time>2018-02-06T02:50:32Z</time>
      </trkpt>
      <trkpt lat="45.0907" lon="5.38217">
        <ele>856</ele>
        <time>2018-02-06T02:51:32Z</time>
      </trkpt>
      <trkpt lat="45.09065" lon="5.38216">
        <ele>856</ele>
        <time>2018-02-06T02:52:32Z</time>
      </trkpt>
      <trkpt lat="45.09056" lon="5.38216">
        <ele>856</ele>
        <time>2018-02-06T02:53:32Z</time>
      </trkpt>
      <trkpt lat="45.09049" lon="5.38218">
        <ele>855</ele>
        <time>2018-02-06T02:54:32Z</time>
      </trkpt>
      <trkpt lat="45.09038" lon="5.38221">
        <ele>854</ele>
        <time>2018-02-06T02:55:32Z</time>
      </trkpt>
      <trkpt lat="45.09025" lon="5.38226">
        <ele>853</ele>
        <time>2018-02-06T02:56:32Z</time>
      </trkpt>
      <trkpt lat="45.09016" lon="5.3823">
        <ele>852</ele>
        <time>2018-02-06T02:57:32Z</time>
      </trkpt>
      <trkpt lat="45.09003" lon="5.38235">
        <ele>851</ele>
        <time>2018-02-06T02:58:32Z</time>
      </trkpt>
      <trkpt lat="45.08986" lon="5.38243">
        <ele>849</ele>
        <time>2018-02-06T02:59:32Z</time>
      </trkpt>
      <trkpt lat="45.08972" lon="5.3825">
        <ele>848</ele>
        <time>2018-02-06T03:00:32Z</time>
      </trkpt>
      <trkpt lat="45.08963" lon="5.38253">
        <ele>847</ele>
        <time>2018-02-06T03:01:32Z</time>
      </trkpt>
      <trkpt lat="45.0895" lon="5.38256">
        <ele>846</ele>
        <time>2018-02-06T03:02:32Z</time>
      </trkpt>
      <trkpt lat="45.08934" lon="5.38257">
        <ele>845</ele>
        <time>2018-02-06T03:03:32Z</time>
      </trkpt>
      <trkpt lat="45.08916" lon="5.38259">
        <ele>844</ele>
        <time>2018-02-06T03:04:32Z</time>
      </trkpt>
      <trkpt lat="45.089" lon="5.38259">
        <ele>843</ele>
        <time>2018-02-06T03:05:32Z</time>
      </trkpt>
      <trkpt lat="45.08879" lon="5.38261">
        <ele>842</ele>
        <time>2018-02-06T03:06:32Z</time>
      </trkpt>
      <trkpt lat="45.08861" lon="5.38264">
        <ele>842</ele>
        <time>2018-02-06T03:07:32Z</time>
      </trkpt>
      <trkpt lat="45.08845" lon="5.38265">
        <ele>841</ele>
        <time>2018-02-06T03:08:32Z</time>
      </trkpt>
      <trkpt lat="45.08837" lon="5.38265">
        <ele>840</ele>
        <time>2018-02-06T03:09:32Z</time>
      </trkpt>
      <trkpt lat="45.0883" lon="5.38263">
        <ele>840</ele>
        <time>2018-02-06T03:10:32Z</time>
      </trkpt>
      <trkpt lat="45.08823" lon="5.3826">
        <ele>840</ele>
        <time>2018-02-06T03:11:32Z</time>
      </trkpt>
      <trkpt lat="45.08812" lon="5.38256">
        <ele>840</ele>
        <time>2018-02-06T03:12:32Z</time>
      </trkpt>
      <trkpt lat="45.08801" lon="5.38251">
        <ele>839</ele>
        <time>2018-02-06T03:13:32Z</time>
      </trkpt>
      <trkpt lat="45.08792" lon="5.38249">
        <ele>839</ele>
        <time>2018-02-06T03:14:32Z</time>
      </trkpt>
      <trkpt lat="45.08787" lon="5.38249">
        <ele>838</ele>
        <time>2018-02-06T03:15:32Z</time>
      </trkpt>
      <trkpt lat="45.08783" lon="5.38248">
        <ele>838</ele>
        <time>2018-02-06T03:16:32Z</time>
      </trkpt>
      <trkpt lat="45.08768" lon="5.38246">
        <ele>837</ele>
        <time>2018-02-06T03:17:32Z</time>
      </trkpt>
      <trkpt lat="45.0873" lon="5.38239">
        <ele>835</ele>
        <time>2018-02-06T03:18:32Z</time>
      </trkpt>
      <trkpt lat="45.08686" lon="5.3823">
        <ele>834</ele>
        <time>2018-02-06T03:19:32Z</time>
      </trkpt>
      <trkpt lat="45.0865" lon="5.38224">
        <ele>833</ele>
        <time>2018-02-06T03:20:32Z</time>
      </trkpt>
      <trkpt lat="45.08618" lon="5.38219">
        <ele>833</ele>
        <time>2018-02-06T03:21:32Z</time>
      </trkpt>
      <trkpt lat="45.08591" lon="5.38215">
        <ele>832</ele>
        <time>2018-02-06T03:22:32Z</time>
      </trkpt>
      <trkpt lat="45.08573" lon="5.38211">
        <ele>831</ele>
        <time>2018-02-06T03:23:32Z</time>
      </trkpt>
      <trkpt lat="45.08556" lon="5.38206">
        <ele>830</ele>
        <time>2018-02-06T03:24:32Z</time>
      </trkpt>
      <trkpt lat="45.08535" lon="5.38199">
        <ele>829</ele>
        <time>2018-02-06T03:25:32Z</time>
      </trkpt>
      <trkpt lat="45.08519" lon="5.38192">
        <ele>828</ele>
        <time>2018-02-06T03:26:32Z</time>
      </trkpt>
      <trkpt lat="45.08493" lon="5.38181">
        <ele>826</ele>
        <time>2018-02-06T03:27:32Z</time>
      </trkpt>
      <trkpt lat="45.08467" lon="5.38169">
        <ele>825</ele>
        <time>2018-02-06T03:28:32Z</time>
      </trkpt>
      <trkpt lat="45.08426" lon="5.38151">
        <ele>823</ele>
        <time>2018-02-06T03:29:32Z</time>
      </trkpt>
      <trkpt lat="45.08393" lon="5.38137">
        <ele>822</ele>
        <time>2018-02-06T03:30:32Z</time>
      </trkpt>
      <trkpt lat="45.08349" lon="5.38118">
        <ele>821</ele>
        <time>2018-02-06T03:31:32Z</time>
      </trkpt>
      <trkpt lat="45.08313" lon="5.38103">
        <ele>821</ele>
        <time>2018-02-06T03:32:32Z</time>
      </trkpt>
      <trkpt lat="45.08312" lon="5.38102">
        <ele>821</ele>
        <time>2018-02-06T03:33:32Z</time>
      </trkpt>
      <trkpt lat="45.08299" lon="5.38097">
        <ele>822</ele>
        <time>2018-02-06T03:34:32Z</time>
      </trkpt>
      <trkpt lat="45.08269" lon="5.38084">
        <ele>823</ele>
        <time>2018-02-06T03:35:32Z</time>
      </trkpt>
      <trkpt lat="45.08245" lon="5.38073">
        <ele>824</ele>
        <time>2018-02-06T03:36:32Z</time>
      </trkpt>
      <trkpt lat="45.08233" lon="5.38065">
        <ele>824</ele>
        <time>2018-02-06T03:37:32Z</time>
      </trkpt>
      <trkpt lat="45.08225" lon="5.38057">
        <ele>824</ele>
        <time>2018-02-06T03:38:32Z</time>
      </trkpt>
      <trkpt lat="45.0822" lon="5.38048">
        <ele>824</ele>
        <time>2018-02-06T03:39:32Z</time>
      </trkpt>
      <trkpt lat="45.08212" lon="5.38033">
        <ele>823</ele>
        <time>2018-02-06T03:40:32Z</time>
      </trkpt>
      <trkpt lat="45.08204" lon="5.38018">
        <ele>823</ele>
        <time>2018-02-06T03:41:32Z</time>
      </trkpt>
      <trkpt lat="45.08202" lon="5.38016">
        <ele>822</ele>
        <time>2018-02-06T03:42:32Z</time>
      </trkpt>
      <trkpt lat="45.08196" lon="5.38008">
        <ele>822</ele>
        <time>2018-02-06T03:43:32Z</time>
      </trkpt>
      <trkpt lat="45.0819" lon="5.38003">
        <ele>821</ele>
        <time>2018-02-06T03:44:32Z</time>
      </trkpt>
      <trkpt lat="45.0818" lon="5.37995">
        <ele>819</ele>
        <time>2018-02-06T03:45:32Z</time>
      </trkpt>
      <trkpt lat="45.08165" lon="5.37985">
        <ele>818</ele>
        <time>2018-02-06T03:46:32Z</time>
      </trkpt>
      <trkpt lat="45.08148" lon="5.37977">
        <ele>819</ele>
        <time>2018-02-06T03:47:32Z</time>
      </trkpt>
      <trkpt lat="45.08136" lon="5.3797">
        <ele>820</ele>
        <time>2018-02-06T03:48:32Z</time>
      </trkpt>
      <trkpt lat="45.08127" lon="5.37963">
        <ele>821</ele>
        <time>2018-02-06T03:49:32Z</time>
      </trkpt>
      <trkpt lat="45.0812" lon="5.37955">
        <ele>821</ele>
        <time>2018-02-06T03:50:32Z</time>
      </trkpt>
      <trkpt lat="45.08116" lon="5.37945">
        <ele>822</ele>
        <time>2018-02-06T03:51:32Z</time>
      </trkpt>
      <trkpt lat="45.08112" lon="5.37931">
        <ele>822</ele>
        <time>2018-02-06T03:52:32Z</time>
      </trkpt>
      <trkpt lat="45.0811" lon="5.3792">
        <ele>823</ele>
        <time>2018-02-06T03:53:32Z</time>
      </trkpt>
      <trkpt lat="45.08106" lon="5.3791">
        <ele>823</ele>
        <time>2018-02-06T03:54:32Z</time>
      </trkpt>
      <trkpt lat="45.081" lon="5.37902">
        <ele>823</ele>
        <time>2018-02-06T03:55:32Z</time>
      </trkpt>
      <trkpt lat="45.08094" lon="5.37893">
        <ele>824</ele>
        <time>2018-02-06T03:56:32Z</time>
      </trkpt>
      <trkpt lat="45.08087" lon="5.37884">
        <ele>824</ele>
        <time>2018-02-06T03:57:32Z</time>
      </trkpt>
      <trkpt lat="45.08076" lon="5.3787">
        <ele>824</ele>
        <time>2018-02-06T03:58:32Z</time>
      </trkpt>
      <trkpt lat="45.08068" lon="5.37855">
        <ele>824</ele>
        <time>2018-02-06T03:59:32Z</time>
      </trkpt>
      <trkpt lat="45.08064" lon="5.37844">
        <ele>824</ele>
        <time>2018-02-06T04:00:32Z</time>
      </trkpt>
      <trkpt lat="45.08061" lon="5.37827">
        <ele>823</ele>
        <time>2018-02-06T04:01:32Z</time>
      </trkpt>
      <trkpt lat="45.0806" lon="5.37806">
        <ele>821</ele>
        <time>2018-02-06T04:02:32Z</time>
      </trkpt>
      <trkpt lat="45.0806" lon="5.37789">
        <ele>819</ele>
        <time>2018-02-06T04:03:32Z</time>
      </trkpt>
      <trkpt lat="45.0806" lon="5.37779">
        <ele>818</ele>
        <time>2018-02-06T04:04:32Z</time>
      </trkpt>
      <trkpt lat="45.08058" lon="5.3777">
        <ele>818</ele>
        <time>2018-02-06T04:05:32Z</time>
      </trkpt>
      <trkpt lat="45.08057" lon="5.37763">
        <ele>817</ele>
        <time>2018-02-06T04:06:32Z</time>
      </trkpt>
      <trkpt lat="45.08052" lon="5.37755">
        <ele>817</ele>
        <time>2018-02-06T04:07:32Z</time>
      </trkpt>
      <trkpt lat="45.08044" lon="5.3774">
        <ele>817</ele>
        <time>2018-02-06T04:08:32Z</time>
      </trkpt>
      <trkpt lat="45.08032" lon="5.37726">
        <ele>818</ele>
        <time>2018-02-06T04:09:32Z</time>
      </trkpt>
      <trkpt lat="45.08024" lon="5.37719">
        <ele>818</ele>
        <time>2018-02-06T04:10:32Z</time>
      </trkpt>
      <trkpt lat="45.08013" lon="5.37714">
        <ele>818</ele>
        <time>2018-02-06T04:11:32Z</time>
      </trkpt>
      <trkpt lat="45.08002" lon="5.37707">
        <ele>817</ele>
        <time>2018-02-06T04:12:32Z</time>
      </trkpt>
      <trkpt lat="45.07997" lon="5.37703">
        <ele>817</ele>
        <time>2018-02-06T04:13:32Z</time>
      </trkpt>
      <trkpt lat="45.07992" lon="5.37697">
        <ele>816</ele>
        <time>2018-02-06T04:14:32Z</time>
      </trkpt>
      <trkpt lat="45.07988" lon="5.37692">
        <ele>815</ele>
        <time>2018-02-06T04:15:32Z</time>
      </trkpt>
      <trkpt lat="45.07987" lon="5.37688">
        <ele>814</ele>
        <time>2018-02-06T04:16:32Z</time>
      </trkpt>
      <trkpt lat="45.07987" lon="5.37682">
        <ele>813</ele>
        <time>2018-02-06T04:17:32Z</time>
      </trkpt>
      <trkpt lat="45.07989" lon="5.37678">
        <ele>813</ele>
        <time>2018-02-06T04:18:32Z</time>
      </trkpt>
      <trkpt lat="45.07993" lon="5.37672">
        <ele>812</ele>
        <time>2018-02-06T04:19:32Z</time>
      </trkpt>
      <trkpt lat="45.07997" lon="5.37667">
        <ele>812</ele>
        <time>2018-02-06T04:20:32Z</time>
      </trkpt>
      <trkpt lat="45.08001" lon="5.3766">
        <ele>811</ele>
        <time>2018-02-06T04:21:32Z</time>
      </trkpt>
      <trkpt lat="45.08006" lon="5.3765">
        <ele>810</ele>
        <time>2018-02-06T04:22:32Z</time>
      </trkpt>
      <trkpt lat="45.08015" lon="5.37636">
        <ele>809</ele>
        <time>2018-02-06T04:23:32Z</time>
      </trkpt>
      <trkpt lat="45.08022" lon="5.37625">
        <ele>808</ele>
        <time>2018-02-06T04:24:32Z</time>
      </trkpt>
      <trkpt lat="45.08028" lon="5.37612">
        <ele>808</ele>
        <time>2018-02-06T04:25:32Z</time>
      </trkpt>
      <trkpt lat="45.08032" lon="5.37601">
        <ele>808</ele>
        <time>2018-02-06T04:26:32Z</time>
      </trkpt>
      <trkpt lat="45.08032" lon="5.37592">
        <ele>807</ele>
        <time>2018-02-06T04:27:32Z</time>
      </trkpt>
      <trkpt lat="45.0802" lon="5.3753">
        <ele>794</ele>
        <time>2018-02-06T04:28:32Z</time>
      </trkpt>
      <trkpt lat="45.08022" lon="5.37486">
        <ele>788</ele>
        <time>2018-02-06T04:29:32Z</time>
      </trkpt>
      <trkpt lat="45.08028" lon="5.37472">
        <ele>790</ele>
        <time>2018-02-06T04:30:32Z</time>
      </trkpt>
      <trkpt lat="45.08033" lon="5.3745">
        <ele>791</ele>
        <time>2018-02-06T04:31:32Z</time>
      </trkpt>
      <trkpt lat="45.08038" lon="5.37427">
        <ele>792</ele>
        <time>2018-02-06T04:32:32Z</time>
      </trkpt>
      <trkpt lat="45.08038" lon="5.37412">
        <ele>791</ele>
        <time>2018-02-06T04:33:32Z</time>
      </trkpt>
      <trkpt lat="45.08037" lon="5.37398">
        <ele>793</ele>
        <time>2018-02-06T04:34:32Z</time>
      </trkpt>
      <trkpt lat="45.08034" lon="5.37385">
        <ele>793</ele>
        <time>2018-02-06T04:35:32Z</time>
      </trkpt>
      <trkpt lat="45.08031" lon="5.37371">
        <ele>793</ele>
        <time>2018-02-06T04:36:32Z</time>
      </trkpt>
      <trkpt lat="45.08029" lon="5.3736">
        <ele>794</ele>
        <time>2018-02-06T04:37:32Z</time>
      </trkpt>
      <trkpt lat="45.08004" lon="5.37229">
        <ele>819</ele>
        <time>2018-02-06T04:38:32Z</time>
      </trkpt>
      <trkpt lat="45.08001" lon="5.37212">
        <ele>825</ele>
        <time>2018-02-06T04:39:32Z</time>
      </trkpt>
      <trkpt lat="45.07993" lon="5.37182">
        <ele>829</ele>
        <time>2018-02-06T04:40:32Z</time>
      </trkpt>
      <trkpt lat="45.0799" lon="5.37165">
        <ele>832</ele>
        <time>2018-02-06T04:41:32Z</time>
      </trkpt>
      <trkpt lat="45.07985" lon="5.37147">
        <ele>830</ele>
        <time>2018-02-06T04:42:32Z</time>
      </trkpt>
      <trkpt lat="45.07978" lon="5.37128">
        <ele>826</ele>
        <time>2018-02-06T04:43:32Z</time>
      </trkpt>
      <trkpt lat="45.07969" lon="5.37113">
        <ele>818</ele>
        <time>2018-02-06T04:44:32Z</time>
      </trkpt>
      <trkpt lat="45.07959" lon="5.37095">
        <ele>809</ele>
        <time>2018-02-06T04:45:32Z</time>
      </trkpt>
      <trkpt lat="45.07957" lon="5.37092">
        <ele>807</ele>
        <time>2018-02-06T04:46:32Z</time>
      </trkpt>
      <trkpt lat="45.07955" lon="5.37091">
        <ele>804</ele>
        <time>2018-02-06T04:47:32Z</time>
      </trkpt>
      <trkpt lat="45.07953" lon="5.37092">
        <ele>802</ele>
        <time>2018-02-06T04:48:32Z</time>
      </trkpt>
      <trkpt lat="45.07952" lon="5.37094">
        <ele>800</ele>
        <time>2018-02-06T04:49:32Z</time>
      </trkpt>
      <trkpt lat="45.07951" lon="5.37097">
        <ele>798</ele>
        <time>2018-02-06T04:50:32Z</time>
      </trkpt>
      <trkpt lat="45.07952" lon="5.37101">
        <ele>799</ele>
        <time>2018-02-06T04:51:32Z</time>
      </trkpt>
      <trkpt lat="45.07953" lon="5.37102">
        <ele>800</ele>
        <time>2018-02-06T04:52:32Z</time>
      </trkpt>
      <trkpt lat="45.07953" lon="5.37105">
        <ele>799</ele>
        <time>2018-02-06T04:53:32Z</time>
      </trkpt>
      <trkpt lat="45.07956" lon="5.37112">
        <ele>802</ele>
        <time>2018-02-06T04:54:32Z</time>
      </trkpt>
      <trkpt lat="45.07961" lon="5.37121">
        <ele>807</ele>
        <time>2018-02-06T04:55:32Z</time>
      </trkpt>
      <trkpt lat="45.07969" lon="5.37137">
        <ele>813</ele>
        <time>2018-02-06T04:56:32Z</time>
      </trkpt>
      <trkpt lat="45.07976" lon="5.37158">
        <ele>817</ele>
        <time>2018-02-06T04:57:32Z</time>
      </trkpt>
      <trkpt lat="45.07979" lon="5.37177">
        <ele>815</ele>
        <time>2018-02-06T04:58:32Z</time>
      </trkpt>
      <trkpt lat="45.07982" lon="5.37198">
        <ele>811</ele>
        <time>2018-02-06T04:59:32Z</time>
      </trkpt>
      <trkpt lat="45.07984" lon="5.37222">
        <ele>804</ele>
        <time>2018-02-06T05:00:32Z</time>
      </trkpt>
      <trkpt lat="45.07988" lon="5.37254">
        <ele>796</ele>
        <time>2018-02-06T05:01:32Z</time>
      </trkpt>
      <trkpt lat="45.07991" lon="5.37284">
        <ele>789</ele>
        <time>2018-02-06T05:02:32Z</time>
      </trkpt>
      <trkpt lat="45.07994" lon="5.37307">
        <ele>784</ele>
        <time>2018-02-06T05:03:32Z</time>
      </trkpt>
      <trkpt lat="45.07995" lon="5.37321">
        <ele>780</ele>
        <time>2018-02-06T05:04:32Z</time>
      </trkpt>
      <trkpt lat="45.07995" lon="5.37334">
        <ele>776</ele>
        <time>2018-02-06T05:05:32Z</time>
      </trkpt>
      <trkpt lat="45.07994" lon="5.37347">
        <ele>774</ele>
        <time>2018-02-06T05:06:32Z</time>
      </trkpt>
      <trkpt lat="45.07994" lon="5.37364">
        <ele>773</ele>
        <time>2018-02-06T05:07:32Z</time>
      </trkpt>
      <trkpt lat="45.07993" lon="5.37377">
        <ele>771</ele>
        <time>2018-02-06T05:08:32Z</time>
      </trkpt>
      <trkpt lat="45.07992" lon="5.37392">
        <ele>769</ele>
        <time>2018-02-06T05:09:32Z</time>
      </trkpt>
      <trkpt lat="45.0799" lon="5.37407">
        <ele>766</ele>
        <time>2018-02-06T05:10:32Z</time>
      </trkpt>
      <trkpt lat="45.07988" lon="5.37421">
        <ele>764</ele>
        <time>2018-02-06T05:11:32Z</time>
      </trkpt>
      <trkpt lat="45.07987" lon="5.37436">
        <ele>765</ele>
        <time>2018-02-06T05:12:32Z</time>
      </trkpt>
      <trkpt lat="45.07985" lon="5.37454">
        <ele>765</ele>
        <time>2018-02-06T05:13:32Z</time>
      </trkpt>
      <trkpt lat="45.07983" lon="5.3747">
        <ele>765</ele>
        <time>2018-02-06T05:14:32Z</time>
      </trkpt>
      <trkpt lat="45.07979" lon="5.37484">
        <ele>763</ele>
        <time>2018-02-06T05:15:32Z</time>
      </trkpt>
      <trkpt lat="45.07972" lon="5.37506">
        <ele>761</ele>
        <time>2018-02-06T05:16:32Z</time>
      </trkpt>
      <trkpt lat="45.07965" lon="5.37525">
        <ele>760</ele>
        <time>2018-02-06T05:17:32Z</time>
      </trkpt>
      <trkpt lat="45.07957" lon="5.37544">
        <ele>759</ele>
        <time>2018-02-06T05:18:32Z</time>
      </trkpt>
      <trkpt lat="45.07948" lon="5.37565">
        <ele>756</ele>
        <time>2018-02-06T05:19:32Z</time>
      </trkpt>
      <trkpt lat="45.07941" lon="5.37582">
        <ele>754</ele>
        <time>2018-02-06T05:20:32Z</time>
      </trkpt>
      <trkpt lat="45.07934" lon="5.37591">
        <ele>755</ele>
        <time>2018-02-06T05:21:32Z</time>
      </trkpt>
      <trkpt lat="45.07927" lon="5.37598">
        <ele>755</ele>
        <time>2018-02-06T05:22:32Z</time>
      </trkpt>
      <trkpt lat="45.07919" lon="5.37606">
        <ele>757</ele>
        <time>2018-02-06T05:23:32Z</time>
      </trkpt>
      <trkpt lat="45.07911" lon="5.37614">
        <ele>761</ele>
        <time>2018-02-06T05:24:32Z</time>
      </trkpt>
      <trkpt lat="45.07902" lon="5.37625">
        <ele>771</ele>
        <time>2018-02-06T05:25:32Z</time>
      </trkpt>
      <trkpt lat="45.07894" lon="5.37633">
        <ele>780</ele>
        <time>2018-02-06T05:26:32Z</time>
      </trkpt>
      <trkpt lat="45.0789" lon="5.37636">
        <ele>784</ele>
        <time>2018-02-06T05:27:32Z</time>
      </trkpt>
      <trkpt lat="45.07887" lon="5.37636">
        <ele>784</ele>
        <time>2018-02-06T05:28:32Z</time>
      </trkpt>
      <trkpt lat="45.07884" lon="5.37635">
        <ele>784</ele>
        <time>2018-02-06T05:29:32Z</time>
      </trkpt>
      <trkpt lat="45.07882" lon="5.37632">
        <ele>781</ele>
        <time>2018-02-06T05:30:32Z</time>
      </trkpt>
      <trkpt lat="45.07882" lon="5.37632">
        <ele>781</ele>
        <time>2018-02-06T05:31:32Z</time>
      </trkpt>
      <trkpt lat="45.07882" lon="5.37629">
        <ele>777</ele>
        <time>2018-02-06T05:32:32Z</time>
      </trkpt>
      <trkpt lat="45.07882" lon="5.37626">
        <ele>774</ele>
        <time>2018-02-06T05:33:32Z</time>
      </trkpt>
      <trkpt lat="45.07884" lon="5.37622">
        <ele>769</ele>
        <time>2018-02-06T05:34:32Z</time>
      </trkpt>
      <trkpt lat="45.07887" lon="5.37619">
        <ele>766</ele>
        <time>2018-02-06T05:35:32Z</time>
      </trkpt>
      <trkpt lat="45.07892" lon="5.37614">
        <ele>761</ele>
        <time>2018-02-06T05:36:32Z</time>
      </trkpt>
      <trkpt lat="45.07903" lon="5.37603">
        <ele>751</ele>
        <time>2018-02-06T05:37:32Z</time>
      </trkpt>
      <trkpt lat="45.07912" lon="5.37593">
        <ele>744</ele>
        <time>2018-02-06T05:38:32Z</time>
      </trkpt>
      <trkpt lat="45.07922" lon="5.3758">
        <ele>740</ele>
        <time>2018-02-06T05:39:32Z</time>
      </trkpt>
      <trkpt lat="45.07926" lon="5.3757">
        <ele>742</ele>
        <time>2018-02-06T05:40:32Z</time>
      </trkpt>
      <trkpt lat="45.0793" lon="5.37557">
        <ele>742</ele>
        <time>2018-02-06T05:41:32Z</time>
      </trkpt>
      <trkpt lat="45.07933" lon="5.37541">
        <ele>742</ele>
        <time>2018-02-06T05:42:32Z</time>
      </trkpt>
      <trkpt lat="45.07938" lon="5.37514">
        <ele>740</ele>
        <time>2018-02-06T05:43:32Z</time>
      </trkpt>
      <trkpt lat="45.07942" lon="5.37494">
        <ele>740</ele>
        <time>2018-02-06T05:44:32Z</time>
      </trkpt>
      <trkpt lat="45.07945" lon="5.37473">
        <ele>740</ele>
        <time>2018-02-06T05:45:32Z</time>
      </trkpt>
      <trkpt lat="45.07947" lon="5.3745">
        <ele>740</ele>
        <time>2018-02-06T05:46:32Z</time>
      </trkpt>
      <trkpt lat="45.07946" lon="5.37419">
        <ele>737</ele>
        <time>2018-02-06T05:47:32Z</time>
      </trkpt>
      <trkpt lat="45.07946" lon="5.37389">
        <ele>737</ele>
        <time>2018-02-06T05:48:32Z</time>
      </trkpt>
      <trkpt lat="45.07944" lon="5.37364">
        <ele>735</ele>
        <time>2018-02-06T05:49:32Z</time>
      </trkpt>
      <trkpt lat="45.0794" lon="5.37342">
        <ele>732</ele>
        <time>2018-02-06T05:50:32Z</time>
      </trkpt>
      <trkpt lat="45.07934" lon="5.37325">
        <ele>729</ele>
        <time>2018-02-06T05:51:32Z</time>
      </trkpt>
      <trkpt lat="45.07926" lon="5.37302">
        <ele>727</ele>
        <time>2018-02-06T05:52:32Z</time>
      </trkpt>
      <trkpt lat="45.07917" lon="5.37278">
        <ele>724</ele>
        <time>2018-02-06T05:53:32Z</time>
      </trkpt>
      <trkpt lat="45.07908" lon="5.3725">
        <ele>722</ele>
        <time>2018-02-06T05:54:32Z</time>
      </trkpt>
      <trkpt lat="45.07897" lon="5.37223">
        <ele>721</ele>
        <time>2018-02-06T05:55:32Z</time>
      </trkpt>
      <trkpt lat="45.07886" lon="5.37195">
        <ele>720</ele>
        <time>2018-02-06T05:56:32Z</time>
      </trkpt>
      <trkpt lat="45.07876" lon="5.37176">
        <ele>718</ele>
        <time>2018-02-06T05:57:32Z</time>
      </trkpt>
      <trkpt lat="45.07864" lon="5.37156">
        <ele>713</ele>
        <time>2018-02-06T05:58:32Z</time>
      </trkpt>
      <trkpt lat="45.07855" lon="5.37139">
        <ele>707</ele>
        <time>2018-02-06T05:59:32Z</time>
      </trkpt>
      <trkpt lat="45.07845" lon="5.37122">
        <ele>700</ele>
        <time>2018-02-06T06:00:32Z</time>
      </trkpt>
      <trkpt lat="45.07836" lon="5.37106">
        <ele>693</ele>
        <time>2018-02-06T06:01:32Z</time>
      </trkpt>
      <trkpt lat="45.07832" lon="5.37095">
        <ele>691</ele>
        <time>2018-02-06T06:02:32Z</time>
      </trkpt>
      <trkpt lat="45.07831" lon="5.37089">
        <ele>690</ele>
        <time>2018-02-06T06:03:32Z</time>
      </trkpt>
      <trkpt lat="45.07831" lon="5.37083">
        <ele>690</ele>
        <time>2018-02-06T06:04:32Z</time>
      </trkpt>
      <trkpt lat="45.07832" lon="5.37079">
        <ele>690</ele>
        <time>2018-02-06T06:05:32Z</time>
      </trkpt>
      <trkpt lat="45.07834" lon="5.37075">
        <ele>691</ele>
        <time>2018-02-06T06:06:32Z</time>
      </trkpt>
      <trkpt lat="45.07839" lon="5.37069">
        <ele>694</ele>
        <time>2018-02-06T06:07:32Z</time>
      </trkpt>
      <trkpt lat="45.07847" lon="5.37062">
        <ele>699</ele>
        <time>2018-02-06T06:08:32Z</time>
      </trkpt>
      <trkpt lat="45.07858" lon="5.37049">
        <ele>706</ele>
        <time>2018-02-06T06:09:32Z</time>
      </trkpt>
      <trkpt lat="45.07864" lon="5.37035">
        <ele>709</ele>
        <time>2018-02-06T06:10:32Z</time>
      </trkpt>
      <trkpt lat="45.07868" lon="5.37022">
        <ele>710</ele>
        <time>2018-02-06T06:11:32Z</time>
      </trkpt>
      <trkpt lat="45.0787" lon="5.37008">
        <ele>710</ele>
        <time>2018-02-06T06:12:32Z</time>
      </trkpt>
      <trkpt lat="45.07871" lon="5.36995">
        <ele>709</ele>
        <time>2018-02-06T06:13:32Z</time>
      </trkpt>
      <trkpt lat="45.07871" lon="5.36984">
        <ele>707</ele>
        <time>2018-02-06T06:14:32Z</time>
      </trkpt>
      <trkpt lat="45.0787" lon="5.3697">
        <ele>704</ele>
        <time>2018-02-06T06:15:32Z</time>
      </trkpt>
      <trkpt lat="45.0787" lon="5.36957">
        <ele>702</ele>
        <time>2018-02-06T06:16:32Z</time>
      </trkpt>
      <trkpt lat="45.0787" lon="5.36937">
        <ele>699</ele>
        <time>2018-02-06T06:17:32Z</time>
      </trkpt>
      <trkpt lat="45.0787" lon="5.36922">
        <ele>697</ele>
        <time>2018-02-06T06:18:32Z</time>
      </trkpt>
      <trkpt lat="45.07868" lon="5.36914">
        <ele>694</ele>
        <time>2018-02-06T06:19:32Z</time>
      </trkpt>
      <trkpt lat="45.07863" lon="5.36904">
        <ele>690</ele>
        <time>2018-02-06T06:20:32Z</time>
      </trkpt>
      <trkpt lat="45.07857" lon="5.36891">
        <ele>684</ele>
        <time>2018-02-06T06:21:32Z</time>
      </trkpt>
      <trkpt lat="45.07852" lon="5.36877">
        <ele>678</ele>
        <time>2018-02-06T06:22:32Z</time>
      </trkpt>
      <trkpt lat="45.0785" lon="5.36863">
        <ele>674</ele>
        <time>2018-02-06T06:23:32Z</time>
      </trkpt>
      <trkpt lat="45.07849" lon="5.36849">
        <ele>671</ele>
        <time>2018-02-06T06:24:32Z</time>
      </trkpt>
      <trkpt lat="45.07851" lon="5.36836">
        <ele>670</ele>
        <time>2018-02-06T06:25:32Z</time>
      </trkpt>
      <trkpt lat="45.07855" lon="5.36822">
        <ele>671</ele>
        <time>2018-02-06T06:26:32Z</time>
      </trkpt>
      <trkpt lat="45.07861" lon="5.36806">
        <ele>672</ele>
        <time>2018-02-06T06:27:32Z</time>
      </trkpt>
      <trkpt lat="45.07873" lon="5.36786">
        <ele>675</ele>
        <time>2018-02-06T06:28:32Z</time>
      </trkpt>
      <trkpt lat="45.07885" lon="5.36768">
        <ele>678</ele>
        <time>2018-02-06T06:29:32Z</time>
      </trkpt>
      <trkpt lat="45.07893" lon="5.36752">
        <ele>679</ele>
        <time>2018-02-06T06:30:32Z</time>
      </trkpt>
      <trkpt lat="45.07902" lon="5.36735">
        <ele>678</ele>
        <time>2018-02-06T06:31:32Z</time>
      </trkpt>
      <trkpt lat="45.07911" lon="5.36718">
        <ele>676</ele>
        <time>2018-02-06T06:32:32Z</time>
      </trkpt>
      <trkpt lat="45.07918" lon="5.36703">
        <ele>675</ele>
        <time>2018-02-06T06:33:32Z</time>
      </trkpt>
      <trkpt lat="45.07929" lon="5.36678">
        <ele>670</ele>
        <time>2018-02-06T06:34:32Z</time>
      </trkpt>
      <trkpt lat="45.07937" lon="5.36662">
        <ele>667</ele>
        <time>2018-02-06T06:35:32Z</time>
      </trkpt>
      <trkpt lat="45.07944" lon="5.36651">
        <ele>666</ele>
        <time>2018-02-06T06:36:32Z</time>
      </trkpt>
      <trkpt lat="45.0795" lon="5.36644">
        <ele>665</ele>
        <time>2018-02-06T06:37:32Z</time>
      </trkpt>
      <trkpt lat="45.07956" lon="5.36638">
        <ele>665</ele>
        <time>2018-02-06T06:38:32Z</time>
      </trkpt>
      <trkpt lat="45.07962" lon="5.36634">
        <ele>666</ele>
        <time>2018-02-06T06:39:32Z</time>
      </trkpt>
      <trkpt lat="45.07972" lon="5.36627">
        <ele>667</ele>
        <time>2018-02-06T06:40:32Z</time>
      </trkpt>
      <trkpt lat="45.0798" lon="5.36622">
        <ele>669</ele>
        <time>2018-02-06T06:41:32Z</time>
      </trkpt>
      <trkpt lat="45.07985" lon="5.36616">
        <ele>668</ele>
        <time>2018-02-06T06:42:32Z</time>
      </trkpt>
      <trkpt lat="45.07988" lon="5.3661">
        <ele>667</ele>
        <time>2018-02-06T06:43:32Z</time>
      </trkpt>
      <trkpt lat="45.0799" lon="5.36605">
        <ele>666</ele>
        <time>2018-02-06T06:44:32Z</time>
      </trkpt>
      <trkpt lat="45.07994" lon="5.36598">
        <ele>664</ele>
        <time>2018-02-06T06:45:32Z</time>
      </trkpt>
      <trkpt lat="45.07999" lon="5.36589">
        <ele>663</ele>
        <time>2018-02-06T06:46:32Z</time>
      </trkpt>
      <trkpt lat="45.08008" lon="5.3658">
        <ele>664</ele>
        <time>2018-02-06T06:47:32Z</time>
      </trkpt>
      <trkpt lat="45.08014" lon="5.36569">
        <ele>665</ele>
        <time>2018-02-06T06:48:32Z</time>
      </trkpt>
      <trkpt lat="45.08021" lon="5.36554">
        <ele>665</ele>
        <time>2018-02-06T06:49:32Z</time>
      </trkpt>
      <trkpt lat="45.08026" lon="5.36542">
        <ele>666</ele>
        <time>2018-02-06T06:50:32Z</time>
      </trkpt>
      <trkpt lat="45.08028" lon="5.36536">
        <ele>665</ele>
        <time>2018-02-06T06:51:32Z</time>
      </trkpt>
      <trkpt lat="45.08028" lon="5.36528">
        <ele>664</ele>
        <time>2018-02-06T06:52:32Z</time>
      </trkpt>
      <trkpt lat="45.08027" lon="5.36519">
        <ele>661</ele>
        <time>2018-02-06T06:53:32Z</time>
      </trkpt>
      <trkpt lat="45.08024" lon="5.36509">
        <ele>657</ele>
        <time>2018-02-06T06:54:32Z</time>
      </trkpt>
      <trkpt lat="45.08023" lon="5.36497">
        <ele>654</ele>
        <time>2018-02-06T06:55:32Z</time>
      </trkpt>
      <trkpt lat="45.08022" lon="5.3648">
        <ele>652</ele>
        <time>2018-02-06T06:56:32Z</time>
      </trkpt>
      <trkpt lat="45.08021" lon="5.36469">
        <ele>650</ele>
        <time>2018-02-06T06:57:32Z</time>
      </trkpt>
      <trkpt lat="45.08022" lon="5.3646">
        <ele>649</ele>
        <time>2018-02-06T06:58:32Z</time>
      </trkpt>
      <trkpt lat="45.08025" lon="5.36451">
        <ele>650</ele>
        <time>2018-02-06T06:59:32Z</time>
      </trkpt>
      <trkpt lat="45.08025" lon="5.36449">
        <ele>650</ele>
        <time>2018-02-06T07:00:32Z</time>
      </trkpt>
      <trkpt lat="45.08026" lon="5.36446">
        <ele>650</ele>
        <time>2018-02-06T07:01:32Z</time>
      </trkpt>
      <trkpt lat="45.08028" lon="5.36439">
        <ele>650</ele>
        <time>2018-02-06T07:02:32Z</time>
      </trkpt>
      <trkpt lat="45.0803" lon="5.36434">
        <ele>651</ele>
        <time>2018-02-06T07:03:32Z</time>
      </trkpt>
      <trkpt lat="45.08031" lon="5.36428">
        <ele>650</ele>
        <time>2018-02-06T07:04:32Z</time>
      </trkpt>
      <trkpt lat="45.08032" lon="5.36422">
        <ele>650</ele>
        <time>2018-02-06T07:05:32Z</time>
      </trkpt>
      <trkpt lat="45.08031" lon="5.36417">
        <ele>649</ele>
        <time>2018-02-06T07:06:32Z</time>
      </trkpt>
      <trkpt lat="45.0803" lon="5.36413">
        <ele>648</ele>
        <time>2018-02-06T07:07:32Z</time>
      </trkpt>
      <trkpt lat="45.08029" lon="5.36407">
        <ele>646</ele>
        <time>2018-02-06T07:08:32Z</time>
      </trkpt>
      <trkpt lat="45.08027" lon="5.36401">
        <ele>644</ele>
        <time>2018-02-06T07:09:32Z</time>
      </trkpt>
      <trkpt lat="45.08025" lon="5.36393">
        <ele>642</ele>
        <time>2018-02-06T07:10:32Z</time>
      </trkpt>
      <trkpt lat="45.08024" lon="5.36384">
        <ele>639</ele>
        <time>2018-02-06T07:11:32Z</time>
      </trkpt>
      <trkpt lat="45.08024" lon="5.36379">
        <ele>639</ele>
        <time>2018-02-06T07:12:32Z</time>
      </trkpt>
      <trkpt lat="45.08025" lon="5.36374">
        <ele>638</ele>
        <time>2018-02-06T07:13:32Z</time>
      </trkpt>
      <trkpt lat="45.08026" lon="5.36367">
        <ele>637</ele>
        <time>2018-02-06T07:14:32Z</time>
      </trkpt>
      <trkpt lat="45.08028" lon="5.36359">
        <ele>637</ele>
        <time>2018-02-06T07:15:32Z</time>
      </trkpt>
      <trkpt lat="45.08029" lon="5.36353">
        <ele>636</ele>
        <time>2018-02-06T07:16:32Z</time>
      </trkpt>
      <trkpt lat="45.08032" lon="5.36345">
        <ele>636</ele>
        <time>2018-02-06T07:17:32Z</time>
      </trkpt>
      <trkpt lat="45.08034" lon="5.36337">
        <ele>635</ele>
        <time>2018-02-06T07:18:32Z</time>
      </trkpt>
      <trkpt lat="45.08037" lon="5.36331">
        <ele>635</ele>
        <time>2018-02-06T07:19:32Z</time>
      </trkpt>
      <trkpt lat="45.08037" lon="5.3633">
        <ele>635</ele>
        <time>2018-02-06T07:20:32Z</time>
      </trkpt>
      <trkpt lat="45.0804" lon="5.36324">
        <ele>636</ele>
        <time>2018-02-06T07:21:32Z</time>
      </trkpt>
      <trkpt lat="45.08041" lon="5.36318">
        <ele>635</ele>
        <time>2018-02-06T07:22:32Z</time>
      </trkpt>
      <trkpt lat="45.08043" lon="5.36311">
        <ele>635</ele>
        <time>2018-02-06T07:23:32Z</time>
      </trkpt>
      <trkpt lat="45.08045" lon="5.36302">
        <ele>635</ele>
        <time>2018-02-06T07:24:32Z</time>
      </trkpt>
      <trkpt lat="45.08047" lon="5.36292">
        <ele>634</ele>
        <time>2018-02-06T07:25:32Z</time>
      </trkpt>
      <trkpt lat="45.08049" lon="5.36281">
        <ele>633</ele>
        <time>2018-02-06T07:26:32Z</time>
      </trkpt>
      <trkpt lat="45.0805" lon="5.36274">
        <ele>633</ele>
        <time>2018-02-06T07:27:32Z</time>
      </trkpt>
      <trkpt lat="45.08052" lon="5.36265">
        <ele>632</ele>
        <time>2018-02-06T07:28:32Z</time>
      </trkpt>
      <trkpt lat="45.08052" lon="5.36257">
        <ele>631</ele>
        <time>2018-02-06T07:29:32Z</time>
      </trkpt>
      <trkpt lat="45.08052" lon="5.36249">
        <ele>630</ele>
        <time>2018-02-06T07:30:32Z</time>
      </trkpt>
      <trkpt lat="45.08051" lon="5.36242">
        <ele>629</ele>
        <time>2018-02-06T07:31:32Z</time>
      </trkpt>
      <trkpt lat="45.08051" lon="5.36234">
        <ele>628</ele>
        <time>2018-02-06T07:32:32Z</time>
      </trkpt>
      <trkpt lat="45.08049" lon="5.36225">
        <ele>626</ele>
        <time>2018-02-06T07:33:32Z</time>
      </trkpt>
      <trkpt lat="45.08047" lon="5.36217">
        <ele>625</ele>
        <time>2018-02-06T07:34:32Z</time>
      </trkpt>
      <trkpt lat="45.08045" lon="5.36212">
        <ele>624</ele>
        <time>2018-02-06T07:35:32Z</time>
      </trkpt>
      <trkpt lat="45.08043" lon="5.36209">
        <ele>623</ele>
        <time>2018-02-06T07:36:32Z</time>
      </trkpt>
      <trkpt lat="45.08039" lon="5.36202">
        <ele>622</ele>
        <time>2018-02-06T07:37:32Z</time>
      </trkpt>
      <trkpt lat="45.08037" lon="5.36198">
        <ele>621</ele>
        <time>2018-02-06T07:38:32Z</time>
      </trkpt>
      <trkpt lat="45.08037" lon="5.36197">
        <ele>621</ele>
        <time>2018-02-06T07:39:32Z</time>
      </trkpt>
      <trkpt lat="45.08034" lon="5.3619">
        <ele>621</ele>
        <time>2018-02-06T07:40:32Z</time>
      </trkpt>
      <trkpt lat="45.08032" lon="5.36183">
        <ele>620</ele>
        <time>2018-02-06T07:41:32Z</time>
      </trkpt>
      <trkpt lat="45.0803" lon="5.36177">
        <ele>620</ele>
        <time>2018-02-06T07:42:32Z</time>
      </trkpt>
      <trkpt lat="45.08029" lon="5.36171">
        <ele>619</ele>
        <time>2018-02-06T07:43:32Z</time>
      </trkpt>
      <trkpt lat="45.08028" lon="5.36166">
        <ele>619</ele>
        <time>2018-02-06T07:44:32Z</time>
      </trkpt>
      <trkpt lat="45.08026" lon="5.36161">
        <ele>619</ele>
        <time>2018-02-06T07:45:32Z</time>
      </trkpt>
      <trkpt lat="45.08023" lon="5.36157">
        <ele>619</ele>
        <time>2018-02-06T07:46:32Z</time>
      </trkpt>
      <trkpt lat="45.08019" lon="5.3615">
        <ele>618</ele>
        <time>2018-02-06T07:47:32Z</time>
      </trkpt>
      <trkpt lat="45.08015" lon="5.36144">
        <ele>618</ele>
        <time>2018-02-06T07:48:32Z</time>
      </trkpt>
      <trkpt lat="45.08011" lon="5.36137">
        <ele>618</ele>
        <time>2018-02-06T07:49:32Z</time>
      </trkpt>
      <trkpt lat="45.08005" lon="5.36128">
        <ele>618</ele>
        <time>2018-02-06T07:50:32Z</time>
      </trkpt>
      <trkpt lat="45.07999" lon="5.3612">
        <ele>618</ele>
        <time>2018-02-06T07:51:32Z</time>
      </trkpt>
      <trkpt lat="45.07994" lon="5.36113">
        <ele>617</ele>
        <time>2018-02-06T07:52:32Z</time>
      </trkpt>
      <trkpt lat="45.07989" lon="5.36106">
        <ele>616</ele>
        <time>2018-02-06T07:53:32Z</time>
      </trkpt>
      <trkpt lat="45.07984" lon="5.36101">
        <ele>615</ele>
        <time>2018-02-06T07:54:32Z</time>
      </trkpt>
      <trkpt lat="45.07979" lon="5.36096">
        <ele>615</ele>
        <time>2018-02-06T07:55:32Z</time>
      </trkpt>
      <trkpt lat="45.07974" lon="5.36091">
        <ele>615</ele>
        <time>2018-02-06T07:56:32Z</time>
      </trkpt>
      <trkpt lat="45.07968" lon="5.36087">
        <ele>615</ele>
        <time>2018-02-06T07:57:32Z</time>
      </trkpt>
      <trkpt lat="45.07963" lon="5.36084">
        <ele>615</ele>
        <time>2018-02-06T07:58:32Z</time>
      </trkpt>
      <trkpt lat="45.07957" lon="5.36081">
        <ele>615</ele>
        <time>2018-02-06T07:59:32Z</time>
      </trkpt>
      <trkpt lat="45.0795" lon="5.36079">
        <ele>615</ele>
        <time>2018-02-06T08:00:32Z</time>
      </trkpt>
      <trkpt lat="45.07943" lon="5.36077">
        <ele>615</ele>
        <time>2018-02-06T08:01:32Z</time>
      </trkpt>
      <trkpt lat="45.07936" lon="5.36077">
        <ele>615</ele>
        <time>2018-02-06T08:02:32Z</time>
      </trkpt>
      <trkpt lat="45.07929" lon="5.36076">
        <ele>615</ele>
        <time>2018-02-06T08:03:32Z</time>
      </trkpt>
      <trkpt lat="45.07924" lon="5.36076">
        <ele>615</ele>
        <time>2018-02-06T08:04:32Z</time>
      </trkpt>
      <trkpt lat="45.07917" lon="5.36077">
        <ele>615</ele>
        <time>2018-02-06T08:05:32Z</time>
      </trkpt>
      <trkpt lat="45.0791" lon="5.36078">
        <ele>614</ele>
        <time>2018-02-06T08:06:32Z</time>
      </trkpt>
      <trkpt lat="45.07904" lon="5.36079">
        <ele>613</ele>
        <time>2018-02-06T08:07:32Z</time>
      </trkpt>
      <trkpt lat="45.07897" lon="5.3608">
        <ele>613</ele>
        <time>2018-02-06T08:08:32Z</time>
      </trkpt>
      <trkpt lat="45.07891" lon="5.36079">
        <ele>613</ele>
        <time>2018-02-06T08:09:32Z</time>
      </trkpt>
      <trkpt lat="45.07885" lon="5.36077">
        <ele>613</ele>
        <time>2018-02-06T08:10:32Z</time>
      </trkpt>
      <trkpt lat="45.07879" lon="5.36075">
        <ele>613</ele>
        <time>2018-02-06T08:11:32Z</time>
      </trkpt>
      <trkpt lat="45.07873" lon="5.36073">
        <ele>614</ele>
        <time>2018-02-06T08:12:32Z</time>
      </trkpt>
      <trkpt lat="45.07865" lon="5.3607">
        <ele>614</ele>
        <time>2018-02-06T08:13:32Z</time>
      </trkpt>
      <trkpt lat="45.07855" lon="5.36068">
        <ele>615</ele>
        <time>2018-02-06T08:14:32Z</time>
      </trkpt>
      <trkpt lat="45.07841" lon="5.36065">
        <ele>615</ele>
        <time>2018-02-06T08:15:32Z</time>
      </trkpt>
      <trkpt lat="45.07837" lon="5.36064">
        <ele>615</ele>
        <time>2018-02-06T08:16:32Z</time>
      </trkpt>
      <trkpt lat="45.07828" lon="5.36057">
        <ele>616</ele>
        <time>2018-02-06T08:17:32Z</time>
      </trkpt>
      <trkpt lat="45.0782" lon="5.3605">
        <ele>616</ele>
        <time>2018-02-06T08:18:32Z</time>
      </trkpt>
      <trkpt lat="45.07816" lon="5.36047">
        <ele>615</ele>
        <time>2018-02-06T08:19:32Z</time>
      </trkpt>
      <trkpt lat="45.07813" lon="5.36044">
        <ele>615</ele>
        <time>2018-02-06T08:20:32Z</time>
      </trkpt>
      <trkpt lat="45.07809" lon="5.36039">
        <ele>616</ele>
        <time>2018-02-06T08:21:32Z</time>
      </trkpt>
      <trkpt lat="45.07805" lon="5.36033">
        <ele>617</ele>
        <time>2018-02-06T08:22:32Z</time>
      </trkpt>
      <trkpt lat="45.07802" lon="5.36028">
        <ele>618</ele>
        <time>2018-02-06T08:23:32Z</time>
      </trkpt>
      <trkpt lat="45.07795" lon="5.36022">
        <ele>617</ele>
        <time>2018-02-06T08:24:32Z</time>
      </trkpt>
      <trkpt lat="45.0779" lon="5.36019">
        <ele>616</ele>
        <time>2018-02-06T08:25:32Z</time>
      </trkpt>
      <trkpt lat="45.07784" lon="5.36013">
        <ele>617</ele>
        <time>2018-02-06T08:26:32Z</time>
      </trkpt>
      <trkpt lat="45.0778" lon="5.36009">
        <ele>617</ele>
        <time>2018-02-06T08:27:32Z</time>
      </trkpt>
      <trkpt lat="45.07775" lon="5.36004">
        <ele>617</ele>
        <time>2018-02-06T08:28:32Z</time>
      </trkpt>
      <trkpt lat="45.07771" lon="5.35998">
        <ele>618</ele>
        <time>2018-02-06T08:29:32Z</time>
      </trkpt>
      <trkpt lat="45.07768" lon="5.35994">
        <ele>618</ele>
        <time>2018-02-06T08:30:32Z</time>
      </trkpt>
      <trkpt lat="45.07766" lon="5.35991">
        <ele>619</ele>
        <time>2018-02-06T08:31:32Z</time>
      </trkpt>
      <trkpt lat="45.07763" lon="5.35986">
        <ele>620</ele>
        <time>2018-02-06T08:32:32Z</time>
      </trkpt>
      <trkpt lat="45.07759" lon="5.35982">
        <ele>620</ele>
        <time>2018-02-06T08:33:32Z</time>
      </trkpt>
      <trkpt lat="45.07754" lon="5.35979">
        <ele>620</ele>
        <time>2018-02-06T08:34:32Z</time>
      </trkpt>
      <trkpt lat="45.07751" lon="5.35978">
        <ele>619</ele>
        <time>2018-02-06T08:35:32Z</time>
      </trkpt>
      <trkpt lat="45.07745" lon="5.35978">
        <ele>617</ele>
        <time>2018-02-06T08:36:32Z</time>
      </trkpt>
      <trkpt lat="45.07741" lon="5.35978">
        <ele>616</ele>
        <time>2018-02-06T08:37:32Z</time>
      </trkpt>
      <trkpt lat="45.07732" lon="5.35979">
        <ele>612</ele>
        <time>2018-02-06T08:38:32Z</time>
      </trkpt>
      <trkpt lat="45.0772" lon="5.35981">
        <ele>607</ele>
        <time>2018-02-06T08:39:32Z</time>
      </trkpt>
      <trkpt lat="45.0771" lon="5.35982">
        <ele>603</ele>
        <time>2018-02-06T08:40:32Z</time>
      </trkpt>
      <trkpt lat="45.07703" lon="5.35981">
        <ele>601</ele>
        <time>2018-02-06T08:41:32Z</time>
      </trkpt>
      <trkpt lat="45.077" lon="5.35981">
        <ele>600</ele>
        <time>2018-02-06T08:42:32Z</time>
      </trkpt>
      <trkpt lat="45.07697" lon="5.35979">
        <ele>599</ele>
        <time>2018-02-06T08:43:32Z</time>
      </trkpt>
      <trkpt lat="45.07695" lon="5.35978">
        <ele>599</ele>
        <time>2018-02-06T08:44:32Z</time>
      </trkpt>
      <trkpt lat="45.07692" lon="5.35975">
        <ele>599</ele>
        <time>2018-02-06T08:45:32Z</time>
      </trkpt>
      <trkpt lat="45.07688" lon="5.35972">
        <ele>598</ele>
        <time>2018-02-06T08:46:32Z</time>
      </trkpt>
      <trkpt lat="45.07682" lon="5.35966">
        <ele>598</ele>
        <time>2018-02-06T08:47:32Z</time>
      </trkpt>
      <trkpt lat="45.07675" lon="5.35959">
        <ele>597</ele>
        <time>2018-02-06T08:48:32Z</time>
      </trkpt>
      <trkpt lat="45.07669" lon="5.35951">
        <ele>597</ele>
        <time>2018-02-06T08:49:32Z</time>
      </trkpt>
      <trkpt lat="45.07662" lon="5.35944">
        <ele>596</ele>
        <time>2018-02-06T08:50:32Z</time>
      </trkpt>
      <trkpt lat="45.07657" lon="5.35938">
        <ele>595</ele>
        <time>2018-02-06T08:51:32Z</time>
      </trkpt>
      <trkpt lat="45.0765" lon="5.35932">
        <ele>594</ele>
        <time>2018-02-06T08:52:32Z</time>
      </trkpt>
      <trkpt lat="45.07645" lon="5.35926">
        <ele>593</ele>
        <time>2018-02-06T08:53:32Z</time>
      </trkpt>
      <trkpt lat="45.07641" lon="5.35922">
        <ele>592</ele>
        <time>2018-02-06T08:54:32Z</time>
      </trkpt>
      <trkpt lat="45.07638" lon="5.35918">
        <ele>591</ele>
        <time>2018-02-06T08:55:32Z</time>
      </trkpt>
      <trkpt lat="45.07636" lon="5.35915">
        <ele>590</ele>
        <time>2018-02-06T08:56:32Z</time>
      </trkpt>
      <trkpt lat="45.07634" lon="5.35912">
        <ele>589</ele>
        <time>2018-02-06T08:57:32Z</time>
      </trkpt>
      <trkpt lat="45.07634" lon="5.35908">
        <ele>590</ele>
        <time>2018-02-06T08:58:32Z</time>
      </trkpt>
      <trkpt lat="45.07634" lon="5.35904">
        <ele>590</ele>
        <time>2018-02-06T08:59:32Z</time>
      </trkpt>
      <trkpt lat="45.07634" lon="5.35896">
        <ele>590</ele>
        <time>2018-02-06T09:00:32Z</time>
      </trkpt>
      <trkpt lat="45.07635" lon="5.35886">
        <ele>591</ele>
        <time>2018-02-06T09:01:32Z</time>
      </trkpt>
      <trkpt lat="45.07636" lon="5.35878">
        <ele>592</ele>
        <time>2018-02-06T09:02:32Z</time>
      </trkpt>
      <trkpt lat="45.07636" lon="5.35869">
        <ele>592</ele>
        <time>2018-02-06T09:03:32Z</time>
      </trkpt>
      <trkpt lat="45.07636" lon="5.35863">
        <ele>593</ele>
        <time>2018-02-06T09:04:32Z</time>
      </trkpt>
      <trkpt lat="45.07636" lon="5.35856">
        <ele>593</ele>
        <time>2018-02-06T09:05:32Z</time>
      </trkpt>
      <trkpt lat="45.07635" lon="5.35849">
        <ele>593</ele>
        <time>2018-02-06T09:06:32Z</time>
      </trkpt>
      <trkpt lat="45.07634" lon="5.35841">
        <ele>592</ele>
        <time>2018-02-06T09:07:32Z</time>
      </trkpt>
      <trkpt lat="45.07632" lon="5.35832">
        <ele>592</ele>
        <time>2018-02-06T09:08:32Z</time>
      </trkpt>
      <trkpt lat="45.07628" lon="5.35817">
        <ele>589</ele>
        <time>2018-02-06T09:09:32Z</time>
      </trkpt>
      <trkpt lat="45.07625" lon="5.35803">
        <ele>586</ele>
        <time>2018-02-06T09:10:32Z</time>
      </trkpt>
      <trkpt lat="45.0762" lon="5.35784">
        <ele>583</ele>
        <time>2018-02-06T09:11:32Z</time>
      </trkpt>
      <trkpt lat="45.07617" lon="5.3577">
        <ele>580</ele>
        <time>2018-02-06T09:12:32Z</time>
      </trkpt>
      <trkpt lat="45.07615" lon="5.35761">
        <ele>579</ele>
        <time>2018-02-06T09:13:32Z</time>
      </trkpt>
      <trkpt lat="45.07612" lon="5.35749">
        <ele>577</ele>
        <time>2018-02-06T09:14:32Z</time>
      </trkpt>
      <trkpt lat="45.07609" lon="5.35735">
        <ele>577</ele>
        <time>2018-02-06T09:15:32Z</time>
      </trkpt>
      <trkpt lat="45.07606" lon="5.3572">
        <ele>577</ele>
        <time>2018-02-06T09:16:32Z</time>
      </trkpt>
      <trkpt lat="45.07602" lon="5.35703">
        <ele>577</ele>
        <time>2018-02-06T09:17:32Z</time>
      </trkpt>
      <trkpt lat="45.07599" lon="5.3569">
        <ele>578</ele>
        <time>2018-02-06T09:18:32Z</time>
      </trkpt>
      <trkpt lat="45.07597" lon="5.35683">
        <ele>578</ele>
        <time>2018-02-06T09:19:32Z</time>
      </trkpt>
      <trkpt lat="45.07595" lon="5.35678">
        <ele>578</ele>
        <time>2018-02-06T09:20:32Z</time>
      </trkpt>
      <trkpt lat="45.07593" lon="5.35673">
        <ele>577</ele>
        <time>2018-02-06T09:21:32Z</time>
      </trkpt>
      <trkpt lat="45.0759" lon="5.35668">
        <ele>577</ele>
        <time>2018-02-06T09:22:32Z</time>
      </trkpt>
      <trkpt lat="45.07586" lon="5.35662">
        <ele>576</ele>
        <time>2018-02-06T09:23:32Z</time>
      </trkpt>
      <trkpt lat="45.07582" lon="5.35656">
        <ele>575</ele>
        <time>2018-02-06T09:24:32Z</time>
      </trkpt>
      <trkpt lat="45.07577" lon="5.35648">
        <ele>574</ele>
        <time>2018-02-06T09:25:32Z</time>
      </trkpt>
      <trkpt lat="45.07572" lon="5.35641">
        <ele>572</ele>
        <time>2018-02-06T09:26:32Z</time>
      </trkpt>
      <trkpt lat="45.07569" lon="5.35634">
        <ele>572</ele>
        <time>2018-02-06T09:27:32Z</time>
      </trkpt>
      <trkpt lat="45.07567" lon="5.35628">
        <ele>571</ele>
        <time>2018-02-06T09:28:32Z</time>
      </trkpt>
      <trkpt lat="45.07566" lon="5.35622">
        <ele>572</ele>
        <time>2018-02-06T09:29:32Z</time>
      </trkpt>
      <trkpt lat="45.07565" lon="5.35614">
        <ele>572</ele>
        <time>2018-02-06T09:30:32Z</time>
      </trkpt>
      <trkpt lat="45.07564" lon="5.35605">
        <ele>573</ele>
        <time>2018-02-06T09:31:32Z</time>
      </trkpt>
      <trkpt lat="45.07564" lon="5.35594">
        <ele>575</ele>
        <time>2018-02-06T09:32:32Z</time>
      </trkpt>
      <trkpt lat="45.07563" lon="5.35583">
        <ele>576</ele>
        <time>2018-02-06T09:33:32Z</time>
      </trkpt>
      <trkpt lat="45.07563" lon="5.35571">
        <ele>575</ele>
        <time>2018-02-06T09:34:32Z</time>
      </trkpt>
      <trkpt lat="45.07561" lon="5.35557">
        <ele>573</ele>
        <time>2018-02-06T09:35:32Z</time>
      </trkpt>
      <trkpt lat="45.07559" lon="5.35541">
        <ele>570</ele>
        <time>2018-02-06T09:36:32Z</time>
      </trkpt>
      <trkpt lat="45.07556" lon="5.35524">
        <ele>567</ele>
        <time>2018-02-06T09:37:32Z</time>
      </trkpt>
      <trkpt lat="45.07552" lon="5.35505">
        <ele>564</ele>
        <time>2018-02-06T09:38:32Z</time>
      </trkpt>
      <trkpt lat="45.07548" lon="5.35489">
        <ele>561</ele>
        <time>2018-02-06T09:39:32Z</time>
      </trkpt>
      <trkpt lat="45.07541" lon="5.35472">
        <ele>556</ele>
        <time>2018-02-06T09:40:32Z</time>
      </trkpt>
      <trkpt lat="45.07533" lon="5.35452">
        <ele>552</ele>
        <time>2018-02-06T09:41:32Z</time>
      </trkpt>
      <trkpt lat="45.07525" lon="5.35437">
        <ele>550</ele>
        <time>2018-02-06T09:42:32Z</time>
      </trkpt>
      <trkpt lat="45.07519" lon="5.35422">
        <ele>549</ele>
        <time>2018-02-06T09:43:32Z</time>
      </trkpt>
      <trkpt lat="45.07518" lon="5.35418">
        <ele>549</ele>
        <time>2018-02-06T09:44:32Z</time>
      </trkpt>
      <trkpt lat="45.07514" lon="5.35411">
        <ele>548</ele>
        <time>2018-02-06T09:45:32Z</time>
      </trkpt>
      <trkpt lat="45.07512" lon="5.35409">
        <ele>548</ele>
        <time>2018-02-06T09:46:32Z</time>
      </trkpt>
      <trkpt lat="45.0751" lon="5.35408">
        <ele>548</ele>
        <time>2018-02-06T09:47:32Z</time>
      </trkpt>
      <trkpt lat="45.07507" lon="5.35408">
        <ele>548</ele>
        <time>2018-02-06T09:48:32Z</time>
      </trkpt>
      <trkpt lat="45.07506" lon="5.3541">
        <ele>548</ele>
        <time>2018-02-06T09:49:32Z</time>
      </trkpt>
      <trkpt lat="45.07506" lon="5.3541">
        <ele>548</ele>
        <time>2018-02-06T09:50:32Z</time>
      </trkpt>
      <trkpt lat="45.07506" lon="5.35411">
        <ele>548</ele>
        <time>2018-02-06T09:51:32Z</time>
      </trkpt>
      <trkpt lat="45.07504" lon="5.35416">
        <ele>549</ele>
        <time>2018-02-06T09:52:32Z</time>
      </trkpt>
      <trkpt lat="45.07504" lon="5.35422">
        <ele>549</ele>
        <time>2018-02-06T09:53:32Z</time>
      </trkpt>
      <trkpt lat="45.07507" lon="5.3543">
        <ele>549</ele>
        <time>2018-02-06T09:54:32Z</time>
      </trkpt>
      <trkpt lat="45.07512" lon="5.3544">
        <ele>549</ele>
        <time>2018-02-06T09:55:32Z</time>
      </trkpt>
      <trkpt lat="45.07518" lon="5.35455">
        <ele>550</ele>
        <time>2018-02-06T09:56:32Z</time>
      </trkpt>
      <trkpt lat="45.07523" lon="5.35475">
        <ele>552</ele>
        <time>2018-02-06T09:57:32Z</time>
      </trkpt>
      <trkpt lat="45.07528" lon="5.35499">
        <ele>556</ele>
        <time>2018-02-06T09:58:32Z</time>
      </trkpt>
      <trkpt lat="45.07531" lon="5.35521">
        <ele>557</ele>
        <time>2018-02-06T09:59:32Z</time>
      </trkpt>
      <trkpt lat="45.0753" lon="5.35539">
        <ele>557</ele>
        <time>2018-02-06T10:00:32Z</time>
      </trkpt>
      <trkpt lat="45.07528" lon="5.35554">
        <ele>557</ele>
        <time>2018-02-06T10:01:32Z</time>
      </trkpt>
      <trkpt lat="45.07524" lon="5.35572">
        <ele>555</ele>
        <time>2018-02-06T10:02:32Z</time>
      </trkpt>
      <trkpt lat="45.07517" lon="5.35592">
        <ele>550</ele>
        <time>2018-02-06T10:03:32Z</time>
      </trkpt>
      <trkpt lat="45.07511" lon="5.35604">
        <ele>545</ele>
        <time>2018-02-06T10:04:32Z</time>
      </trkpt>
      <trkpt lat="45.07507" lon="5.35617">
        <ele>541</ele>
        <time>2018-02-06T10:05:32Z</time>
      </trkpt>
      <trkpt lat="45.07505" lon="5.35625">
        <ele>539</ele>
        <time>2018-02-06T10:06:32Z</time>
      </trkpt>
      <trkpt lat="45.07505" lon="5.35632">
        <ele>538</ele>
        <time>2018-02-06T10:07:32Z</time>
      </trkpt>
      <trkpt lat="45.07509" lon="5.35644">
        <ele>539</ele>
        <time>2018-02-06T10:08:32Z</time>
      </trkpt>
      <trkpt lat="45.07512" lon="5.35655">
        <ele>539</ele>
        <time>2018-02-06T10:09:32Z</time>
      </trkpt>
      <trkpt lat="45.07519" lon="5.3567">
        <ele>540</ele>
        <time>2018-02-06T10:10:32Z</time>
      </trkpt>
      <trkpt lat="45.07526" lon="5.35681">
        <ele>541</ele>
        <time>2018-02-06T10:11:32Z</time>
      </trkpt>
      <trkpt lat="45.07533" lon="5.35691">
        <ele>543</ele>
        <time>2018-02-06T10:12:32Z</time>
      </trkpt>
      <trkpt lat="45.0754" lon="5.35701">
        <ele>545</ele>
        <time>2018-02-06T10:13:32Z</time>
      </trkpt>
      <trkpt lat="45.07544" lon="5.3571">
        <ele>545</ele>
        <time>2018-02-06T10:14:32Z</time>
      </trkpt>
      <trkpt lat="45.07546" lon="5.3572">
        <ele>544</ele>
        <time>2018-02-06T10:15:32Z</time>
      </trkpt>
      <trkpt lat="45.07546" lon="5.35732">
        <ele>542</ele>
        <time>2018-02-06T10:16:32Z</time>
      </trkpt>
      <trkpt lat="45.07546" lon="5.35749">
        <ele>538</ele>
        <time>2018-02-06T10:17:32Z</time>
      </trkpt>
      <trkpt lat="45.07546" lon="5.35764">
        <ele>538</ele>
        <time>2018-02-06T10:18:32Z</time>
      </trkpt>
      <trkpt lat="45.07546" lon="5.35778">
        <ele>538</ele>
        <time>2018-02-06T10:19:32Z</time>
      </trkpt>
      <trkpt lat="45.07546" lon="5.35788">
        <ele>538</ele>
        <time>2018-02-06T10:20:32Z</time>
      </trkpt>
      <trkpt lat="45.07542" lon="5.35804">
        <ele>535</ele>
        <time>2018-02-06T10:21:32Z</time>
      </trkpt>
      <trkpt lat="45.0754" lon="5.35814">
        <ele>534</ele>
        <time>2018-02-06T10:22:32Z</time>
      </trkpt>
      <trkpt lat="45.0754" lon="5.35822">
        <ele>534</ele>
        <time>2018-02-06T10:23:32Z</time>
      </trkpt>
      <trkpt lat="45.07541" lon="5.35829">
        <ele>535</ele>
        <time>2018-02-06T10:24:32Z</time>
      </trkpt>
      <trkpt lat="45.07543" lon="5.35837">
        <ele>536</ele>
        <time>2018-02-06T10:25:32Z</time>
      </trkpt>
      <trkpt lat="45.07545" lon="5.35846">
        <ele>538</ele>
        <time>2018-02-06T10:26:32Z</time>
      </trkpt>
      <trkpt lat="45.07545" lon="5.35855">
        <ele>538</ele>
        <time>2018-02-06T10:27:32Z</time>
      </trkpt>
      <trkpt lat="45.07542" lon="5.35866">
        <ele>537</ele>
        <time>2018-02-06T10:28:32Z</time>
      </trkpt>
      <trkpt lat="45.07534" lon="5.35884">
        <ele>534</ele>
        <time>2018-02-06T10:29:32Z</time>
      </trkpt>
      <trkpt lat="45.07525" lon="5.35903">
        <ele>530</ele>
        <time>2018-02-06T10:30:32Z</time>
      </trkpt>
      <trkpt lat="45.07517" lon="5.35918">
        <ele>528</ele>
        <time>2018-02-06T10:31:32Z</time>
      </trkpt>
      <trkpt lat="45.07508" lon="5.35933">
        <ele>527</ele>
        <time>2018-02-06T10:32:32Z</time>
      </trkpt>
      <trkpt lat="45.07497" lon="5.35943">
        <ele>526</ele>
        <time>2018-02-06T10:33:32Z</time>
      </trkpt>
      <trkpt lat="45.07485" lon="5.35951">
        <ele>525</ele>
        <time>2018-02-06T10:34:32Z</time>
      </trkpt>
      <trkpt lat="45.07472" lon="5.35958">
        <ele>523</ele>
        <time>2018-02-06T10:35:32Z</time>
      </trkpt>
      <trkpt lat="45.0746" lon="5.35962">
        <ele>520</ele>
        <time>2018-02-06T10:36:32Z</time>
      </trkpt>
      <trkpt lat="45.07447" lon="5.35966">
        <ele>517</ele>
        <time>2018-02-06T10:37:32Z</time>
      </trkpt>
      <trkpt lat="45.07427" lon="5.35972">
        <ele>513</ele>
        <time>2018-02-06T10:38:32Z</time>
      </trkpt>
      <trkpt lat="45.07412" lon="5.35978">
        <ele>510</ele>
        <time>2018-02-06T10:39:32Z</time>
      </trkpt>
      <trkpt lat="45.074" lon="5.35985">
        <ele>507</ele>
        <time>2018-02-06T10:40:32Z</time>
      </trkpt>
      <trkpt lat="45.07392" lon="5.35994">
        <ele>507</ele>
        <time>2018-02-06T10:41:32Z</time>
      </trkpt>
      <trkpt lat="45.07381" lon="5.36008">
        <ele>507</ele>
        <time>2018-02-06T10:42:32Z</time>
      </trkpt>
      <trkpt lat="45.07371" lon="5.36022">
        <ele>506</ele>
        <time>2018-02-06T10:43:32Z</time>
      </trkpt>
      <trkpt lat="45.07361" lon="5.36035">
        <ele>505</ele>
        <time>2018-02-06T10:44:32Z</time>
      </trkpt>
      <trkpt lat="45.0735" lon="5.36048">
        <ele>503</ele>
        <time>2018-02-06T10:45:32Z</time>
      </trkpt>
      <trkpt lat="45.07342" lon="5.36058">
        <ele>503</ele>
        <time>2018-02-06T10:46:32Z</time>
      </trkpt>
      <trkpt lat="45.07335" lon="5.36068">
        <ele>502</ele>
        <time>2018-02-06T10:47:32Z</time>
      </trkpt>
      <trkpt lat="45.07332" lon="5.36075">
        <ele>503</ele>
        <time>2018-02-06T10:48:32Z</time>
      </trkpt>
      <trkpt lat="45.07332" lon="5.3608">
        <ele>505</ele>
        <time>2018-02-06T10:49:32Z</time>
      </trkpt>
      <trkpt lat="45.07332" lon="5.36086">
        <ele>505</ele>
        <time>2018-02-06T10:50:32Z</time>
      </trkpt>
      <trkpt lat="45.07335" lon="5.36093">
        <ele>504</ele>
        <time>2018-02-06T10:51:32Z</time>
      </trkpt>
      <trkpt lat="45.07338" lon="5.36101">
        <ele>504</ele>
        <time>2018-02-06T10:52:32Z</time>
      </trkpt>
      <trkpt lat="45.0734" lon="5.36103">
        <ele>504</ele>
        <time>2018-02-06T10:53:32Z</time>
      </trkpt>
      <trkpt lat="45.07345" lon="5.3611">
        <ele>504</ele>
        <time>2018-02-06T10:54:32Z</time>
      </trkpt>
      <trkpt lat="45.07354" lon="5.36117">
        <ele>506</ele>
        <time>2018-02-06T10:55:32Z</time>
      </trkpt>
      <trkpt lat="45.07363" lon="5.36125">
        <ele>507</ele>
        <time>2018-02-06T10:56:32Z</time>
      </trkpt>
      <trkpt lat="45.07374" lon="5.36132">
        <ele>510</ele>
        <time>2018-02-06T10:57:32Z</time>
      </trkpt>
      <trkpt lat="45.07382" lon="5.36138">
        <ele>511</ele>
        <time>2018-02-06T10:58:32Z</time>
      </trkpt>
      <trkpt lat="45.07389" lon="5.36146">
        <ele>512</ele>
        <time>2018-02-06T10:59:32Z</time>
      </trkpt>
      <trkpt lat="45.07392" lon="5.36152">
        <ele>511</ele>
        <time>2018-02-06T11:00:32Z</time>
      </trkpt>
      <trkpt lat="45.07395" lon="5.3616">
        <ele>510</ele>
        <time>2018-02-06T11:01:32Z</time>
      </trkpt>
      <trkpt lat="45.07396" lon="5.3617">
        <ele>507</ele>
        <time>2018-02-06T11:02:32Z</time>
      </trkpt>
      <trkpt lat="45.07399" lon="5.36184">
        <ele>504</ele>
        <time>2018-02-06T11:03:32Z</time>
      </trkpt>
      <trkpt lat="45.07401" lon="5.36193">
        <ele>502</ele>
        <time>2018-02-06T11:04:32Z</time>
      </trkpt>
      <trkpt lat="45.07404" lon="5.36203">
        <ele>500</ele>
        <time>2018-02-06T11:05:32Z</time>
      </trkpt>
      <trkpt lat="45.07408" lon="5.36214">
        <ele>498</ele>
        <time>2018-02-06T11:06:32Z</time>
      </trkpt>
      <trkpt lat="45.0741" lon="5.36228">
        <ele>494</ele>
        <time>2018-02-06T11:07:32Z</time>
      </trkpt>
      <trkpt lat="45.07414" lon="5.36243">
        <ele>491</ele>
        <time>2018-02-06T11:08:32Z</time>
      </trkpt>
      <trkpt lat="45.07418" lon="5.36259">
        <ele>488</ele>
        <time>2018-02-06T11:09:32Z</time>
      </trkpt>
      <trkpt lat="45.07421" lon="5.36267">
        <ele>486</ele>
        <time>2018-02-06T11:10:32Z</time>
      </trkpt>
      <trkpt lat="45.07425" lon="5.36273">
        <ele>484</ele>
        <time>2018-02-06T11:11:32Z</time>
      </trkpt>
      <trkpt lat="45.0743" lon="5.36278">
        <ele>483</ele>
        <time>2018-02-06T11:12:32Z</time>
      </trkpt>
      <trkpt lat="45.07442" lon="5.36284">
        <ele>481</ele>
        <time>2018-02-06T11:13:32Z</time>
      </trkpt>
      <trkpt lat="45.07452" lon="5.36288">
        <ele>480</ele>
        <time>2018-02-06T11:14:32Z</time>
      </trkpt>
      <trkpt lat="45.07465" lon="5.36291">
        <ele>478</ele>
        <time>2018-02-06T11:15:32Z</time>
      </trkpt>
      <trkpt lat="45.07476" lon="5.36292">
        <ele>477</ele>
        <time>2018-02-06T11:16:32Z</time>
      </trkpt>
      <trkpt lat="45.07484" lon="5.36291">
        <ele>477</ele>
        <time>2018-02-06T11:17:32Z</time>
      </trkpt>
      <trkpt lat="45.07493" lon="5.36288">
        <ele>478</ele>
        <time>2018-02-06T11:18:32Z</time>
      </trkpt>
      <trkpt lat="45.075" lon="5.36282">
        <ele>481</ele>
        <time>2018-02-06T11:19:32Z</time>
      </trkpt>
      <trkpt lat="45.07508" lon="5.36274">
        <ele>484</ele>
        <time>2018-02-06T11:20:32Z</time>
      </trkpt>
      <trkpt lat="45.07517" lon="5.36263">
        <ele>487</ele>
        <time>2018-02-06T11:21:32Z</time>
      </trkpt>
      <trkpt lat="45.07524" lon="5.36254">
        <ele>490</ele>
        <time>2018-02-06T11:22:32Z</time>
      </trkpt>
      <trkpt lat="45.07533" lon="5.36244">
        <ele>491</ele>
        <time>2018-02-06T11:23:32Z</time>
      </trkpt>
      <trkpt lat="45.07539" lon="5.36238">
        <ele>492</ele>
        <time>2018-02-06T11:24:32Z</time>
      </trkpt>
      <trkpt lat="45.07544" lon="5.36234">
        <ele>492</ele>
        <time>2018-02-06T11:25:32Z</time>
      </trkpt>
      <trkpt lat="45.07549" lon="5.36231">
        <ele>491</ele>
        <time>2018-02-06T11:26:32Z</time>
      </trkpt>
      <trkpt lat="45.07554" lon="5.3623">
        <ele>490</ele>
        <time>2018-02-06T11:27:32Z</time>
      </trkpt>
      <trkpt lat="45.07558" lon="5.36231">
        <ele>489</ele>
        <time>2018-02-06T11:28:32Z</time>
      </trkpt>
      <trkpt lat="45.07564" lon="5.36234">
        <ele>486</ele>
        <time>2018-02-06T11:29:32Z</time>
      </trkpt>
      <trkpt lat="45.07568" lon="5.36237">
        <ele>484</ele>
        <time>2018-02-06T11:30:32Z</time>
      </trkpt>
      <trkpt lat="45.07571" lon="5.36242">
        <ele>482</ele>
        <time>2018-02-06T11:31:32Z</time>
      </trkpt>
      <trkpt lat="45.07575" lon="5.36248">
        <ele>480</ele>
        <time>2018-02-06T11:32:32Z</time>
      </trkpt>
      <trkpt lat="45.07577" lon="5.36254">
        <ele>478</ele>
        <time>2018-02-06T11:33:32Z</time>
      </trkpt>
      <trkpt lat="45.0758" lon="5.36262">
        <ele>475</ele>
        <time>2018-02-06T11:34:32Z</time>
      </trkpt>
      <trkpt lat="45.07584" lon="5.3627">
        <ele>473</ele>
        <time>2018-02-06T11:35:32Z</time>
      </trkpt>
      <trkpt lat="45.07587" lon="5.36275">
        <ele>472</ele>
        <time>2018-02-06T11:36:32Z</time>
      </trkpt>
      <trkpt lat="45.07592" lon="5.3628">
        <ele>472</ele>
        <time>2018-02-06T11:37:32Z</time>
      </trkpt>
      <trkpt lat="45.07596" lon="5.36284">
        <ele>472</ele>
        <time>2018-02-06T11:38:32Z</time>
      </trkpt>
      <trkpt lat="45.07599" lon="5.36286">
        <ele>472</ele>
        <time>2018-02-06T11:39:32Z</time>
      </trkpt>
      <trkpt lat="45.07601" lon="5.36288">
        <ele>472</ele>
        <time>2018-02-06T11:40:32Z</time>
      </trkpt>
      <trkpt lat="45.07606" lon="5.36292">
        <ele>472</ele>
        <time>2018-02-06T11:41:32Z</time>
      </trkpt>
      <trkpt lat="45.0761" lon="5.36294">
        <ele>473</ele>
        <time>2018-02-06T11:42:32Z</time>
      </trkpt>
      <trkpt lat="45.07615" lon="5.36297">
        <ele>473</ele>
        <time>2018-02-06T11:43:32Z</time>
      </trkpt>
      <trkpt lat="45.0762" lon="5.36299">
        <ele>474</ele>
        <time>2018-02-06T11:44:32Z</time>
      </trkpt>
      <trkpt lat="45.07625" lon="5.363">
        <ele>474</ele>
        <time>2018-02-06T11:45:32Z</time>
      </trkpt>
      <trkpt lat="45.07631" lon="5.363">
        <ele>475</ele>
        <time>2018-02-06T11:46:32Z</time>
      </trkpt>
      <trkpt lat="45.07636" lon="5.363">
        <ele>476</ele>
        <time>2018-02-06T11:47:32Z</time>
      </trkpt>
      <trkpt lat="45.07643" lon="5.363">
        <ele>478</ele>
        <time>2018-02-06T11:48:32Z</time>
      </trkpt>
      <trkpt lat="45.0765" lon="5.36302">
        <ele>479</ele>
        <time>2018-02-06T11:49:32Z</time>
      </trkpt>
      <trkpt lat="45.07653" lon="5.36306">
        <ele>479</ele>
        <time>2018-02-06T11:50:32Z</time>
      </trkpt>
      <trkpt lat="45.07653" lon="5.36312">
        <ele>478</ele>
        <time>2018-02-06T11:51:32Z</time>
      </trkpt>
      <trkpt lat="45.0765" lon="5.36317">
        <ele>477</ele>
        <time>2018-02-06T11:52:32Z</time>
      </trkpt>
      <trkpt lat="45.07646" lon="5.36325">
        <ele>475</ele>
        <time>2018-02-06T11:53:32Z</time>
      </trkpt>
      <trkpt lat="45.0764" lon="5.36331">
        <ele>473</ele>
        <time>2018-02-06T11:54:32Z</time>
      </trkpt>
      <trkpt lat="45.07634" lon="5.36337">
        <ele>471</ele>
        <time>2018-02-06T11:55:32Z</time>
      </trkpt>
      <trkpt lat="45.07626" lon="5.36346">
        <ele>471</ele>
        <time>2018-02-06T11:56:32Z</time>
      </trkpt>
      <trkpt lat="45.07618" lon="5.36355">
        <ele>470</ele>
        <time>2018-02-06T11:57:32Z</time>
      </trkpt>
      <trkpt lat="45.07612" lon="5.36361">
        <ele>469</ele>
        <time>2018-02-06T11:58:32Z</time>
      </trkpt>
      <trkpt lat="45.07606" lon="5.36368">
        <ele>468</ele>
        <time>2018-02-06T11:59:32Z</time>
      </trkpt>
      <trkpt lat="45.07598" lon="5.36376">
        <ele>467</ele>
        <time>2018-02-06T12:00:32Z</time>
      </trkpt>
      <trkpt lat="45.0759" lon="5.36387">
        <ele>465</ele>
        <time>2018-02-06T12:01:32Z</time>
      </trkpt>
      <trkpt lat="45.07584" lon="5.36394">
        <ele>464</ele>
        <time>2018-02-06T12:02:32Z</time>
      </trkpt>
      <trkpt lat="45.07581" lon="5.36399">
        <ele>463</ele>
        <time>2018-02-06T12:03:32Z</time>
      </trkpt>
      <trkpt lat="45.07578" lon="5.36405">
        <ele>463</ele>
        <time>2018-02-06T12:04:32Z</time>
      </trkpt>
      <trkpt lat="45.07575" lon="5.36413">
        <ele>463</ele>
        <time>2018-02-06T12:05:32Z</time>
      </trkpt>
      <trkpt lat="45.07572" lon="5.36421">
        <ele>462</ele>
        <time>2018-02-06T12:06:32Z</time>
      </trkpt>
      <trkpt lat="45.07569" lon="5.36429">
        <ele>463</ele>
        <time>2018-02-06T12:07:32Z</time>
      </trkpt>
      <trkpt lat="45.07566" lon="5.36436">
        <ele>463</ele>
        <time>2018-02-06T12:08:32Z</time>
      </trkpt>
      <trkpt lat="45.07563" lon="5.36445">
        <ele>463</ele>
        <time>2018-02-06T12:09:32Z</time>
      </trkpt>
      <trkpt lat="45.0756" lon="5.36452">
        <ele>463</ele>
        <time>2018-02-06T12:10:32Z</time>
      </trkpt>
      <trkpt lat="45.07557" lon="5.36456">
        <ele>462</ele>
        <time>2018-02-06T12:11:32Z</time>
      </trkpt>
      <trkpt lat="45.07552" lon="5.36466">
        <ele>462</ele>
        <time>2018-02-06T12:12:32Z</time>
      </trkpt>
      <trkpt lat="45.07546" lon="5.36476">
        <ele>460</ele>
        <time>2018-02-06T12:13:32Z</time>
      </trkpt>
      <trkpt lat="45.0754" lon="5.36485">
        <ele>459</ele>
        <time>2018-02-06T12:14:32Z</time>
      </trkpt>
      <trkpt lat="45.07533" lon="5.36493">
        <ele>457</ele>
        <time>2018-02-06T12:15:32Z</time>
      </trkpt>
      <trkpt lat="45.07528" lon="5.36497">
        <ele>455</ele>
        <time>2018-02-06T12:16:32Z</time>
      </trkpt>
      <trkpt lat="45.07522" lon="5.36504">
        <ele>453</ele>
        <time>2018-02-06T12:17:32Z</time>
      </trkpt>
      <trkpt lat="45.07517" lon="5.36512">
        <ele>452</ele>
        <time>2018-02-06T12:18:32Z</time>
      </trkpt>
      <trkpt lat="45.07514" lon="5.36519">
        <ele>451</ele>
        <time>2018-02-06T12:19:32Z</time>
      </trkpt>
      <trkpt lat="45.07513" lon="5.36526">
        <ele>452</ele>
        <time>2018-02-06T12:20:32Z</time>
      </trkpt>
      <trkpt lat="45.07514" lon="5.36537">
        <ele>453</ele>
        <time>2018-02-06T12:21:32Z</time>
      </trkpt>
      <trkpt lat="45.07516" lon="5.36554">
        <ele>456</ele>
        <time>2018-02-06T12:22:32Z</time>
      </trkpt>
      <trkpt lat="45.07518" lon="5.36569">
        <ele>458</ele>
        <time>2018-02-06T12:23:32Z</time>
      </trkpt>
      <trkpt lat="45.07518" lon="5.36579">
        <ele>459</ele>
        <time>2018-02-06T12:24:32Z</time>
      </trkpt>
      <trkpt lat="45.07516" lon="5.36585">
        <ele>459</ele>
        <time>2018-02-06T12:25:32Z</time>
      </trkpt>
      <trkpt lat="45.07514" lon="5.36591">
        <ele>459</ele>
        <time>2018-02-06T12:26:32Z</time>
      </trkpt>
      <trkpt lat="45.07511" lon="5.36594">
        <ele>458</ele>
        <time>2018-02-06T12:27:32Z</time>
      </trkpt>
      <trkpt lat="45.07506" lon="5.36594">
        <ele>456</ele>
        <time>2018-02-06T12:28:32Z</time>
      </trkpt>
      <trkpt lat="45.07502" lon="5.36594">
        <ele>454</ele>
        <time>2018-02-06T12:29:32Z</time>
      </trkpt>
      <trkpt lat="45.07489" lon="5.36587">
        <ele>450</ele>
        <time>2018-02-06T12:30:32Z</time>
      </trkpt>
      <trkpt lat="45.07477" lon="5.3658">
        <ele>448</ele>
        <time>2018-02-06T12:31:32Z</time>
      </trkpt>
      <trkpt lat="45.07464" lon="5.36572">
        <ele>445</ele>
        <time>2018-02-06T12:32:32Z</time>
      </trkpt>
      <trkpt lat="45.0745" lon="5.36566">
        <ele>442</ele>
        <time>2018-02-06T12:33:32Z</time>
      </trkpt>
      <trkpt lat="45.07434" lon="5.36561">
        <ele>439</ele>
        <time>2018-02-06T12:34:32Z</time>
      </trkpt>
      <trkpt lat="45.07433" lon="5.36561">
        <ele>439</ele>
        <time>2018-02-06T12:35:32Z</time>
      </trkpt>
      <trkpt lat="45.07422" lon="5.36559">
        <ele>437</ele>
        <time>2018-02-06T12:36:32Z</time>
      </trkpt>
      <trkpt lat="45.07409" lon="5.36558">
        <ele>435</ele>
        <time>2018-02-06T12:37:32Z</time>
      </trkpt>
      <trkpt lat="45.07396" lon="5.36558">
        <ele>433</ele>
        <time>2018-02-06T12:38:32Z</time>
      </trkpt>
      <trkpt lat="45.07376" lon="5.3656">
        <ele>430</ele>
        <time>2018-02-06T12:39:32Z</time>
      </trkpt>
      <trkpt lat="45.0736" lon="5.36561">
        <ele>427</ele>
        <time>2018-02-06T12:40:32Z</time>
      </trkpt>
      <trkpt lat="45.07355" lon="5.36562">
        <ele>427</ele>
        <time>2018-02-06T12:41:32Z</time>
      </trkpt>
      <trkpt lat="45.07348" lon="5.36565">
        <ele>427</ele>
        <time>2018-02-06T12:42:32Z</time>
      </trkpt>
      <trkpt lat="45.07339" lon="5.36569">
        <ele>426</ele>
        <time>2018-02-06T12:43:32Z</time>
      </trkpt>
      <trkpt lat="45.07331" lon="5.36571">
        <ele>426</ele>
        <time>2018-02-06T12:44:32Z</time>
      </trkpt>
      <trkpt lat="45.07321" lon="5.3657">
        <ele>425</ele>
        <time>2018-02-06T12:45:32Z</time>
      </trkpt>
      <trkpt lat="45.07306" lon="5.36569">
        <ele>425</ele>
        <time>2018-02-06T12:46:32Z</time>
      </trkpt>
      <trkpt lat="45.07291" lon="5.36566">
        <ele>423</ele>
        <time>2018-02-06T12:47:32Z</time>
      </trkpt>
      <trkpt lat="45.07284" lon="5.36565">
        <ele>423</ele>
        <time>2018-02-06T12:48:32Z</time>
      </trkpt>
      <trkpt lat="45.07265" lon="5.36562">
        <ele>421</ele>
        <time>2018-02-06T12:49:32Z</time>
      </trkpt>
      <trkpt lat="45.07243" lon="5.36558">
        <ele>419</ele>
        <time>2018-02-06T12:50:32Z</time>
      </trkpt>
      <trkpt lat="45.07222" lon="5.36555">
        <ele>417</ele>
        <time>2018-02-06T12:51:32Z</time>
      </trkpt>
      <trkpt lat="45.07208" lon="5.36553">
        <ele>416</ele>
        <time>2018-02-06T12:52:32Z</time>
      </trkpt>
      <trkpt lat="45.07193" lon="5.36552">
        <ele>415</ele>
        <time>2018-02-06T12:53:32Z</time>
      </trkpt>
      <trkpt lat="45.07178" lon="5.36552">
        <ele>415</ele>
        <time>2018-02-06T12:54:32Z</time>
      </trkpt>
      <trkpt lat="45.07165" lon="5.36554">
        <ele>415</ele>
        <time>2018-02-06T12:55:32Z</time>
      </trkpt>
      <trkpt lat="45.0715" lon="5.36559">
        <ele>412</ele>
        <time>2018-02-06T12:56:32Z</time>
      </trkpt>
      <trkpt lat="45.0714" lon="5.36565">
        <ele>411</ele>
        <time>2018-02-06T12:57:32Z</time>
      </trkpt>
      <trkpt lat="45.07123" lon="5.36575">
        <ele>409</ele>
        <time>2018-02-06T12:58:32Z</time>
      </trkpt>
      <trkpt lat="45.07115" lon="5.36582">
        <ele>409</ele>
        <time>2018-02-06T12:59:32Z</time>
      </trkpt>
      <trkpt lat="45.07111" lon="5.36588">
        <ele>409</ele>
        <time>2018-02-06T13:00:32Z</time>
      </trkpt>
      <trkpt lat="45.07108" lon="5.36595">
        <ele>409</ele>
        <time>2018-02-06T13:01:32Z</time>
      </trkpt>
      <trkpt lat="45.07103" lon="5.36617">
        <ele>410</ele>
        <time>2018-02-06T13:02:32Z</time>
      </trkpt>
      <trkpt lat="45.07098" lon="5.36646">
        <ele>411</ele>
        <time>2018-02-06T13:03:32Z</time>
      </trkpt>
      <trkpt lat="45.07095" lon="5.36667">
        <ele>411</ele>
        <time>2018-02-06T13:04:32Z</time>
      </trkpt>
      <trkpt lat="45.07094" lon="5.3668">
        <ele>411</ele>
        <time>2018-02-06T13:05:32Z</time>
      </trkpt>
      <trkpt lat="45.07094" lon="5.36689">
        <ele>412</ele>
        <time>2018-02-06T13:06:32Z</time>
      </trkpt>
      <trkpt lat="45.07095" lon="5.36703">
        <ele>413</ele>
        <time>2018-02-06T13:07:32Z</time>
      </trkpt>
      <trkpt lat="45.07096" lon="5.36716">
        <ele>414</ele>
        <time>2018-02-06T13:08:32Z</time>
      </trkpt>
      <trkpt lat="45.07096" lon="5.36729">
        <ele>415</ele>
        <time>2018-02-06T13:09:32Z</time>
      </trkpt>
      <trkpt lat="45.07095" lon="5.36745">
        <ele>415</ele>
        <time>2018-02-06T13:10:32Z</time>
      </trkpt>
      <trkpt lat="45.07093" lon="5.36765">
        <ele>412</ele>
        <time>2018-02-06T13:11:32Z</time>
      </trkpt>
      <trkpt lat="45.07093" lon="5.36787">
        <ele>410</ele>
        <time>2018-02-06T13:12:32Z</time>
      </trkpt>
      <trkpt lat="45.07094" lon="5.36804">
        <ele>409</ele>
        <time>2018-02-06T13:13:32Z</time>
      </trkpt>
      <trkpt lat="45.07093" lon="5.36812">
        <ele>408</ele>
        <time>2018-02-06T13:14:32Z</time>
      </trkpt>
      <trkpt lat="45.07093" lon="5.36821">
        <ele>407</ele>
        <time>2018-02-06T13:15:32Z</time>
      </trkpt>
      <trkpt lat="45.07092" lon="5.36835">
        <ele>405</ele>
        <time>2018-02-06T13:16:32Z</time>
      </trkpt>
      <trkpt lat="45.07092" lon="5.36837">
        <ele>405</ele>
        <time>2018-02-06T13:17:32Z</time>
      </trkpt>
      <trkpt lat="45.07089" lon="5.36849">
        <ele>404</ele>
        <time>2018-02-06T13:18:32Z</time>
      </trkpt>
      <trkpt lat="45.07084" lon="5.36862">
        <ele>401</ele>
        <time>2018-02-06T13:19:32Z</time>
      </trkpt>
      <trkpt lat="45.0708" lon="5.36878">
        <ele>401</ele>
        <time>2018-02-06T13:20:32Z</time>
      </trkpt>
      <trkpt lat="45.07075" lon="5.36892">
        <ele>400</ele>
        <time>2018-02-06T13:21:32Z</time>
      </trkpt>
      <trkpt lat="45.07065" lon="5.36906">
        <ele>398</ele>
        <time>2018-02-06T13:22:32Z</time>
      </trkpt>
      <trkpt lat="45.07053" lon="5.36919">
        <ele>395</ele>
        <time>2018-02-06T13:23:32Z</time>
      </trkpt>
      <trkpt lat="45.07038" lon="5.36931">
        <ele>392</ele>
        <time>2018-02-06T13:24:32Z</time>
      </trkpt>
      <trkpt lat="45.07024" lon="5.36943">
        <ele>389</ele>
        <time>2018-02-06T13:25:32Z</time>
      </trkpt>
      <trkpt lat="45.07012" lon="5.36955">
        <ele>386</ele>
        <time>2018-02-06T13:26:32Z</time>
      </trkpt>
      <trkpt lat="45.07003" lon="5.36968">
        <ele>385</ele>
        <time>2018-02-06T13:27:32Z</time>
      </trkpt>
      <trkpt lat="45.06995" lon="5.36984">
        <ele>385</ele>
        <time>2018-02-06T13:28:32Z</time>
      </trkpt>
      <trkpt lat="45.06987" lon="5.37004">
        <ele>383</ele>
        <time>2018-02-06T13:29:32Z</time>
      </trkpt>
      <trkpt lat="45.06981" lon="5.37021">
        <ele>380</ele>
        <time>2018-02-06T13:30:32Z</time>
      </trkpt>
      <trkpt lat="45.06977" lon="5.37043">
        <ele>379</ele>
        <time>2018-02-06T13:31:32Z</time>
      </trkpt>
      <trkpt lat="45.06976" lon="5.37069">
        <ele>378</ele>
        <time>2018-02-06T13:32:32Z</time>
      </trkpt>
      <trkpt lat="45.06975" lon="5.37083">
        <ele>378</ele>
        <time>2018-02-06T13:33:32Z</time>
      </trkpt>
      <trkpt lat="45.06977" lon="5.37098">
        <ele>376</ele>
        <time>2018-02-06T13:34:32Z</time>
      </trkpt>
      <trkpt lat="45.06978" lon="5.37106">
        <ele>376</ele>
        <time>2018-02-06T13:35:32Z</time>
      </trkpt>
      <trkpt lat="45.0698" lon="5.37115">
        <ele>375</ele>
        <time>2018-02-06T13:36:32Z</time>
      </trkpt>
      <trkpt lat="45.06984" lon="5.37131">
        <ele>374</ele>
        <time>2018-02-06T13:37:32Z</time>
      </trkpt>
      <trkpt lat="45.06985" lon="5.37132">
        <ele>374</ele>
        <time>2018-02-06T13:38:32Z</time>
      </trkpt>
      <trkpt lat="45.06989" lon="5.37146">
        <ele>373</ele>
        <time>2018-02-06T13:39:32Z</time>
      </trkpt>
      <trkpt lat="45.06994" lon="5.37159">
        <ele>372</ele>
        <time>2018-02-06T13:40:32Z</time>
      </trkpt>
      <trkpt lat="45.07003" lon="5.37171">
        <ele>373</ele>
        <time>2018-02-06T13:41:32Z</time>
      </trkpt>
      <trkpt lat="45.07012" lon="5.37181">
        <ele>373</ele>
        <time>2018-02-06T13:42:32Z</time>
      </trkpt>
      <trkpt lat="45.07026" lon="5.37193">
        <ele>374</ele>
        <time>2018-02-06T13:43:32Z</time>
      </trkpt>
      <trkpt lat="45.07041" lon="5.37204">
        <ele>376</ele>
        <time>2018-02-06T13:44:32Z</time>
      </trkpt>
      <trkpt lat="45.07058" lon="5.37216">
        <ele>378</ele>
        <time>2018-02-06T13:45:32Z</time>
      </trkpt>
      <trkpt lat="45.07068" lon="5.37223">
        <ele>379</ele>
        <time>2018-02-06T13:46:32Z</time>
      </trkpt>
      <trkpt lat="45.07073" lon="5.3723">
        <ele>378</ele>
        <time>2018-02-06T13:47:32Z</time>
      </trkpt>
      <trkpt lat="45.07075" lon="5.37235">
        <ele>378</ele>
        <time>2018-02-06T13:48:32Z</time>
      </trkpt>
      <trkpt lat="45.07075" lon="5.37241">
        <ele>376</ele>
        <time>2018-02-06T13:49:32Z</time>
      </trkpt>
      <trkpt lat="45.07075" lon="5.37241">
        <ele>376</ele>
        <time>2018-02-06T13:50:32Z</time>
      </trkpt>
      <trkpt lat="45.0708" lon="5.37246">
        <ele>376</ele>
        <time>2018-02-06T13:51:32Z</time>
      </trkpt>
      <trkpt lat="45.07085" lon="5.37252">
        <ele>376</ele>
        <time>2018-02-06T13:52:32Z</time>
      </trkpt>
      <trkpt lat="45.07091" lon="5.3726">
        <ele>377</ele>
        <time>2018-02-06T13:53:32Z</time>
      </trkpt>
      <trkpt lat="45.07097" lon="5.37268">
        <ele>378</ele>
        <time>2018-02-06T13:54:32Z</time>
      </trkpt>
      <trkpt lat="45.07101" lon="5.37277">
        <ele>378</ele>
        <time>2018-02-06T13:55:32Z</time>
      </trkpt>
      <trkpt lat="45.07104" lon="5.37283">
        <ele>378</ele>
        <time>2018-02-06T13:56:32Z</time>
      </trkpt>
      <trkpt lat="45.07106" lon="5.37289">
        <ele>378</ele>
        <time>2018-02-06T13:57:32Z</time>
      </trkpt>
      <trkpt lat="45.07107" lon="5.37297">
        <ele>378</ele>
        <time>2018-02-06T13:58:32Z</time>
      </trkpt>
      <trkpt lat="45.07107" lon="5.37302">
        <ele>377</ele>
        <time>2018-02-06T13:59:32Z</time>
      </trkpt>
      <trkpt lat="45.07105" lon="5.37308">
        <ele>376</ele>
        <time>2018-02-06T14:00:32Z</time>
      </trkpt>
      <trkpt lat="45.07101" lon="5.37313">
        <ele>375</ele>
        <time>2018-02-06T14:01:32Z</time>
      </trkpt>
      <trkpt lat="45.07096" lon="5.37316">
        <ele>373</ele>
        <time>2018-02-06T14:02:32Z</time>
      </trkpt>
      <trkpt lat="45.0709" lon="5.37318">
        <ele>372</ele>
        <time>2018-02-06T14:03:32Z</time>
      </trkpt>
      <trkpt lat="45.07081" lon="5.3732">
        <ele>369</ele>
        <time>2018-02-06T14:04:32Z</time>
      </trkpt>
      <trkpt lat="45.07073" lon="5.37321">
        <ele>367</ele>
        <time>2018-02-06T14:05:32Z</time>
      </trkpt>
      <trkpt lat="45.07069" lon="5.37322">
        <ele>366</ele>
        <time>2018-02-06T14:06:32Z</time>
      </trkpt>
      <trkpt lat="45.07065" lon="5.37323">
        <ele>365</ele>
        <time>2018-02-06T14:07:32Z</time>
      </trkpt>
      <trkpt lat="45.07056" lon="5.3733">
        <ele>362</ele>
        <time>2018-02-06T14:08:32Z</time>
      </trkpt>
      <trkpt lat="45.07042" lon="5.37345">
        <ele>359</ele>
        <time>2018-02-06T14:09:32Z</time>
      </trkpt>
      <trkpt lat="45.0703" lon="5.37355">
        <ele>357</ele>
        <time>2018-02-06T14:10:32Z</time>
      </trkpt>
      <trkpt lat="45.07027" lon="5.37358">
        <ele>357</ele>
        <time>2018-02-06T14:11:32Z</time>
      </trkpt>
      <trkpt lat="45.07012" lon="5.37369">
        <ele>355</ele>
        <time>2018-02-06T14:12:32Z</time>
      </trkpt>
      <trkpt lat="45.07006" lon="5.37374">
        <ele>355</ele>
        <time>2018-02-06T14:13:32Z</time>
      </trkpt>
      <trkpt lat="45.07" lon="5.37378">
        <ele>354</ele>
        <time>2018-02-06T14:14:32Z</time>
      </trkpt>
      <trkpt lat="45.06994" lon="5.37384">
        <ele>354</ele>
        <time>2018-02-06T14:15:32Z</time>
      </trkpt>
      <trkpt lat="45.06992" lon="5.37389">
        <ele>354</ele>
        <time>2018-02-06T14:16:32Z</time>
      </trkpt>
      <trkpt lat="45.06992" lon="5.37389">
        <ele>354</ele>
        <time>2018-02-06T14:17:32Z</time>
      </trkpt>
      <trkpt lat="45.06991" lon="5.37396">
        <ele>355</ele>
        <time>2018-02-06T14:18:32Z</time>
      </trkpt>
      <trkpt lat="45.0699" lon="5.37407">
        <ele>357</ele>
        <time>2018-02-06T14:19:32Z</time>
      </trkpt>
      <trkpt lat="45.06991" lon="5.3743">
        <ele>359</ele>
        <time>2018-02-06T14:20:32Z</time>
      </trkpt>
      <trkpt lat="45.06994" lon="5.37458">
        <ele>360</ele>
        <time>2018-02-06T14:21:32Z</time>
      </trkpt>
      <trkpt lat="45.06997" lon="5.37481">
        <ele>361</ele>
        <time>2018-02-06T14:22:32Z</time>
      </trkpt>
      <trkpt lat="45.06999" lon="5.37505">
        <ele>362</ele>
        <time>2018-02-06T14:23:32Z</time>
      </trkpt>
      <trkpt lat="45.06999" lon="5.37527">
        <ele>362</ele>
        <time>2018-02-06T14:24:32Z</time>
      </trkpt>
      <trkpt lat="45.06999" lon="5.3755">
        <ele>362</ele>
        <time>2018-02-06T14:25:32Z</time>
      </trkpt>
      <trkpt lat="45.06997" lon="5.3757">
        <ele>361</ele>
        <time>2018-02-06T14:26:32Z</time>
      </trkpt>
      <trkpt lat="45.06993" lon="5.37591">
        <ele>361</ele>
        <time>2018-02-06T14:27:32Z</time>
      </trkpt>
      <trkpt lat="45.06989" lon="5.37607">
        <ele>362</ele>
        <time>2018-02-06T14:28:32Z</time>
      </trkpt>
      <trkpt lat="45.06981" lon="5.37626">
        <ele>362</ele>
        <time>2018-02-06T14:29:32Z</time>
      </trkpt>
      <trkpt lat="45.06972" lon="5.37648">
        <ele>362</ele>
        <time>2018-02-06T14:30:32Z</time>
      </trkpt>
      <trkpt lat="45.06964" lon="5.37668">
        <ele>361</ele>
        <time>2018-02-06T14:31:32Z</time>
      </trkpt>
      <trkpt lat="45.06956" lon="5.37684">
        <ele>357</ele>
        <time>2018-02-06T14:32:32Z</time>
      </trkpt>
      <trkpt lat="45.06947" lon="5.377">
        <ele>353</ele>
        <time>2018-02-06T14:33:32Z</time>
      </trkpt>
      <trkpt lat="45.06939" lon="5.37711">
        <ele>349</ele>
        <time>2018-02-06T14:34:32Z</time>
      </trkpt>
      <trkpt lat="45.06936" lon="5.37716">
        <ele>348</ele>
        <time>2018-02-06T14:35:32Z</time>
      </trkpt>
      <trkpt lat="45.06933" lon="5.37722">
        <ele>346</ele>
        <time>2018-02-06T14:36:32Z</time>
      </trkpt>
      <trkpt lat="45.06932" lon="5.37728">
        <ele>346</ele>
        <time>2018-02-06T14:37:32Z</time>
      </trkpt>
      <trkpt lat="45.06932" lon="5.37734">
        <ele>346</ele>
        <time>2018-02-06T14:38:32Z</time>
      </trkpt>
      <trkpt lat="45.06934" lon="5.37741">
        <ele>348</ele>
        <time>2018-02-06T14:39:32Z</time>
      </trkpt>
      <trkpt lat="45.06937" lon="5.3775">
        <ele>350</ele>
        <time>2018-02-06T14:40:32Z</time>
      </trkpt>
      <trkpt lat="45.06942" lon="5.37765">
        <ele>351</ele>
        <time>2018-02-06T14:41:32Z</time>
      </trkpt>
      <trkpt lat="45.06946" lon="5.37776">
        <ele>353</ele>
        <time>2018-02-06T14:42:32Z</time>
      </trkpt>
      <trkpt lat="45.06948" lon="5.37786">
        <ele>354</ele>
        <time>2018-02-06T14:43:32Z</time>
      </trkpt>
      <trkpt lat="45.06948" lon="5.37793">
        <ele>354</ele>
        <time>2018-02-06T14:44:32Z</time>
      </trkpt>
      <trkpt lat="45.06948" lon="5.378">
        <ele>354</ele>
        <time>2018-02-06T14:45:32Z</time>
      </trkpt>
      <trkpt lat="45.06947" lon="5.37806">
        <ele>353</ele>
        <time>2018-02-06T14:46:32Z</time>
      </trkpt>
      <trkpt lat="45.06944" lon="5.37814">
        <ele>351</ele>
        <time>2018-02-06T14:47:32Z</time>
      </trkpt>
      <trkpt lat="45.06935" lon="5.37827">
        <ele>346</ele>
        <time>2018-02-06T14:48:32Z</time>
      </trkpt>
      <trkpt lat="45.06925" lon="5.37843">
        <ele>343</ele>
        <time>2018-02-06T14:49:32Z</time>
      </trkpt>
      <trkpt lat="45.06911" lon="5.37862">
        <ele>340</ele>
        <time>2018-02-06T14:50:32Z</time>
      </trkpt>
      <trkpt lat="45.06898" lon="5.37882">
        <ele>338</ele>
        <time>2018-02-06T14:51:32Z</time>
      </trkpt>
      <trkpt lat="45.06886" lon="5.37902">
        <ele>335</ele>
        <time>2018-02-06T14:52:32Z</time>
      </trkpt>
      <trkpt lat="45.0688" lon="5.37914">
        <ele>334</ele>
        <time>2018-02-06T14:53:32Z</time>
      </trkpt>
      <trkpt lat="45.06874" lon="5.37929">
        <ele>332</ele>
        <time>2018-02-06T14:54:32Z</time>
      </trkpt>
      <trkpt lat="45.06868" lon="5.37943">
        <ele>329</ele>
        <time>2018-02-06T14:55:32Z</time>
      </trkpt>
      <trkpt lat="45.06866" lon="5.3795">
        <ele>329</ele>
        <time>2018-02-06T14:56:32Z</time>
      </trkpt>
      <trkpt lat="45.06864" lon="5.37958">
        <ele>328</ele>
        <time>2018-02-06T14:57:32Z</time>
      </trkpt>
      <trkpt lat="45.06862" lon="5.37972">
        <ele>327</ele>
        <time>2018-02-06T14:58:32Z</time>
      </trkpt>
      <trkpt lat="45.06862" lon="5.37987">
        <ele>327</ele>
        <time>2018-02-06T14:59:32Z</time>
      </trkpt>
      <trkpt lat="45.06864" lon="5.38002">
        <ele>329</ele>
        <time>2018-02-06T15:00:32Z</time>
      </trkpt>
      <trkpt lat="45.06867" lon="5.38016">
        <ele>330</ele>
        <time>2018-02-06T15:01:32Z</time>
      </trkpt>
      <trkpt lat="45.06872" lon="5.38029">
        <ele>332</ele>
        <time>2018-02-06T15:02:32Z</time>
      </trkpt>
      <trkpt lat="45.06875" lon="5.38041">
        <ele>332</ele>
        <time>2018-02-06T15:03:32Z</time>
      </trkpt>
      <trkpt lat="45.06876" lon="5.38048">
        <ele>332</ele>
        <time>2018-02-06T15:04:32Z</time>
      </trkpt>
      <trkpt lat="45.06876" lon="5.38048">
        <ele>332</ele>
        <time>2018-02-06T15:05:32Z</time>
      </trkpt>
      <trkpt lat="45.06875" lon="5.38061">
        <ele>331</ele>
        <time>2018-02-06T15:06:32Z</time>
      </trkpt>
      <trkpt lat="45.06873" lon="5.38073">
        <ele>329</ele>
        <time>2018-02-06T15:07:32Z</time>
      </trkpt>
      <trkpt lat="45.06869" lon="5.38097">
        <ele>326</ele>
        <time>2018-02-06T15:08:32Z</time>
      </trkpt>
      <trkpt lat="45.06867" lon="5.3811">
        <ele>324</ele>
        <time>2018-02-06T15:09:32Z</time>
      </trkpt>
      <trkpt lat="45.06863" lon="5.38128">
        <ele>322</ele>
        <time>2018-02-06T15:10:32Z</time>
      </trkpt>
      <trkpt lat="45.06861" lon="5.38141">
        <ele>320</ele>
        <time>2018-02-06T15:11:32Z</time>
      </trkpt>
      <trkpt lat="45.0686" lon="5.38152">
        <ele>319</ele>
        <time>2018-02-06T15:12:32Z</time>
      </trkpt>
      <trkpt lat="45.06861" lon="5.38164">
        <ele>320</ele>
        <time>2018-02-06T15:13:32Z</time>
      </trkpt>
      <trkpt lat="45.06862" lon="5.38174">
        <ele>320</ele>
        <time>2018-02-06T15:14:32Z</time>
      </trkpt>
      <trkpt lat="45.06862" lon="5.38185">
        <ele>321</ele>
        <time>2018-02-06T15:15:32Z</time>
      </trkpt>
      <trkpt lat="45.06862" lon="5.38193">
        <ele>321</ele>
        <time>2018-02-06T15:16:32Z</time>
      </trkpt>
      <trkpt lat="45.06861" lon="5.38199">
        <ele>320</ele>
        <time>2018-02-06T15:17:32Z</time>
      </trkpt>
      <trkpt lat="45.06858" lon="5.38205">
        <ele>318</ele>
        <time>2018-02-06T15:18:32Z</time>
      </trkpt>
      <trkpt lat="45.06852" lon="5.38211">
        <ele>315</ele>
        <time>2018-02-06T15:19:32Z</time>
      </trkpt>
      <trkpt lat="45.06848" lon="5.38216">
        <ele>312</ele>
        <time>2018-02-06T15:20:32Z</time>
      </trkpt>
      <trkpt lat="45.06843" lon="5.38223">
        <ele>309</ele>
        <time>2018-02-06T15:21:32Z</time>
      </trkpt>
      <trkpt lat="45.06841" lon="5.38228">
        <ele>308</ele>
        <time>2018-02-06T15:22:32Z</time>
      </trkpt>
      <trkpt lat="45.0684" lon="5.38234">
        <ele>307</ele>
        <time>2018-02-06T15:23:32Z</time>
      </trkpt>
      <trkpt lat="45.06841" lon="5.38242">
        <ele>308</ele>
        <time>2018-02-06T15:24:32Z</time>
      </trkpt>
      <trkpt lat="45.06843" lon="5.38253">
        <ele>310</ele>
        <time>2018-02-06T15:25:32Z</time>
      </trkpt>
      <trkpt lat="45.06844" lon="5.38267">
        <ele>310</ele>
        <time>2018-02-06T15:26:32Z</time>
      </trkpt>
      <trkpt lat="45.06845" lon="5.38278">
        <ele>311</ele>
        <time>2018-02-06T15:27:32Z</time>
      </trkpt>
      <trkpt lat="45.06847" lon="5.38295">
        <ele>312</ele>
        <time>2018-02-06T15:28:32Z</time>
      </trkpt>
      <trkpt lat="45.0685" lon="5.38308">
        <ele>314</ele>
        <time>2018-02-06T15:29:32Z</time>
      </trkpt>
      <trkpt lat="45.06855" lon="5.3832">
        <ele>316</ele>
        <time>2018-02-06T15:30:32Z</time>
      </trkpt>
      <trkpt lat="45.06858" lon="5.38332">
        <ele>318</ele>
        <time>2018-02-06T15:31:32Z</time>
      </trkpt>
      <trkpt lat="45.06861" lon="5.38338">
        <ele>319</ele>
        <time>2018-02-06T15:32:32Z</time>
      </trkpt>
      <trkpt lat="45.06862" lon="5.38343">
        <ele>319</ele>
        <time>2018-02-06T15:33:32Z</time>
      </trkpt>
      <trkpt lat="45.06862" lon="5.38347">
        <ele>319</ele>
        <time>2018-02-06T15:34:32Z</time>
      </trkpt>
      <trkpt lat="45.06862" lon="5.38351">
        <ele>319</ele>
        <time>2018-02-06T15:35:32Z</time>
      </trkpt>
      <trkpt lat="45.0686" lon="5.38357">
        <ele>318</ele>
        <time>2018-02-06T15:36:32Z</time>
      </trkpt>
      <trkpt lat="45.06857" lon="5.38362">
        <ele>316</ele>
        <time>2018-02-06T15:37:32Z</time>
      </trkpt>
      <trkpt lat="45.06851" lon="5.38374">
        <ele>312</ele>
        <time>2018-02-06T15:38:32Z</time>
      </trkpt>
      <trkpt lat="45.06848" lon="5.38384">
        <ele>309</ele>
        <time>2018-02-06T15:39:32Z</time>
      </trkpt>
      <trkpt lat="45.06848" lon="5.38394">
        <ele>309</ele>
        <time>2018-02-06T15:40:32Z</time>
      </trkpt>
      <trkpt lat="45.06849" lon="5.38405">
        <ele>309</ele>
        <time>2018-02-06T15:41:32Z</time>
      </trkpt>
      <trkpt lat="45.06852" lon="5.38422">
        <ele>310</ele>
        <time>2018-02-06T15:42:32Z</time>
      </trkpt>
      <trkpt lat="45.06858" lon="5.38444">
        <ele>312</ele>
        <time>2018-02-06T15:43:32Z</time>
      </trkpt>
      <trkpt lat="45.06863" lon="5.38461">
        <ele>314</ele>
        <time>2018-02-06T15:44:32Z</time>
      </trkpt>
      <trkpt lat="45.06866" lon="5.38473">
        <ele>315</ele>
        <time>2018-02-06T15:45:32Z</time>
      </trkpt>
      <trkpt lat="45.06867" lon="5.38478">
        <ele>316</ele>
        <time>2018-02-06T15:46:32Z</time>
      </trkpt>
      <trkpt lat="45.06867" lon="5.38482">
        <ele>316</ele>
        <time>2018-02-06T15:47:32Z</time>
      </trkpt>
      <trkpt lat="45.06865" lon="5.38487">
        <ele>314</ele>
        <time>2018-02-06T15:48:32Z</time>
      </trkpt>
      <trkpt lat="45.06863" lon="5.3849">
        <ele>312</ele>
        <time>2018-02-06T15:49:32Z</time>
      </trkpt>
      <trkpt lat="45.06858" lon="5.38498">
        <ele>308</ele>
        <time>2018-02-06T15:50:32Z</time>
      </trkpt>
      <trkpt lat="45.06852" lon="5.38505">
        <ele>304</ele>
        <time>2018-02-06T15:51:32Z</time>
      </trkpt>
      <trkpt lat="45.06848" lon="5.38512">
        <ele>302</ele>
        <time>2018-02-06T15:52:32Z</time>
      </trkpt>
      <trkpt lat="45.06845" lon="5.38527">
        <ele>302</ele>
        <time>2018-02-06T15:53:32Z</time>
      </trkpt>
      <trkpt lat="45.06842" lon="5.38544">
        <ele>302</ele>
        <time>2018-02-06T15:54:32Z</time>
      </trkpt>
      <trkpt lat="45.0684" lon="5.38559">
        <ele>302</ele>
        <time>2018-02-06T15:55:32Z</time>
      </trkpt>
      <trkpt lat="45.06833" lon="5.38581">
        <ele>301</ele>
        <time>2018-02-06T15:56:32Z</time>
      </trkpt>
      <trkpt lat="45.06827" lon="5.38596">
        <ele>300</ele>
        <time>2018-02-06T15:57:32Z</time>
      </trkpt>
      <trkpt lat="45.06821" lon="5.38609">
        <ele>299</ele>
        <time>2018-02-06T15:58:32Z</time>
      </trkpt>
      <trkpt lat="45.06818" lon="5.38616">
        <ele>298</ele>
        <time>2018-02-06T15:59:32Z</time>
      </trkpt>
      <trkpt lat="45.06816" lon="5.38624">
        <ele>298</ele>
        <time>2018-02-06T16:00:32Z</time>
      </trkpt>
      <trkpt lat="45.06815" lon="5.38632">
        <ele>299</ele>
        <time>2018-02-06T16:01:32Z</time>
      </trkpt>
      <trkpt lat="45.06813" lon="5.3865">
        <ele>300</ele>
        <time>2018-02-06T16:02:32Z</time>
      </trkpt>
      <trkpt lat="45.0681" lon="5.38667">
        <ele>300</ele>
        <time>2018-02-06T16:03:32Z</time>
      </trkpt>
      <trkpt lat="45.06808" lon="5.38674">
        <ele>299</ele>
        <time>2018-02-06T16:04:32Z</time>
      </trkpt>
      <trkpt lat="45.06806" lon="5.38683">
        <ele>299</ele>
        <time>2018-02-06T16:05:32Z</time>
      </trkpt>
      <trkpt lat="45.06802" lon="5.38699">
        <ele>297</ele>
        <time>2018-02-06T16:06:32Z</time>
      </trkpt>
      <trkpt lat="45.06797" lon="5.38715">
        <ele>295</ele>
        <time>2018-02-06T16:07:32Z</time>
      </trkpt>
      <trkpt lat="45.06795" lon="5.38723">
        <ele>294</ele>
        <time>2018-02-06T16:08:32Z</time>
      </trkpt>
      <trkpt lat="45.06794" lon="5.38729">
        <ele>294</ele>
        <time>2018-02-06T16:09:32Z</time>
      </trkpt>
      <trkpt lat="45.06791" lon="5.38736">
        <ele>293</ele>
        <time>2018-02-06T16:10:32Z</time>
      </trkpt>
      <trkpt lat="45.06786" lon="5.38747">
        <ele>291</ele>
        <time>2018-02-06T16:11:32Z</time>
      </trkpt>
      <trkpt lat="45.06777" lon="5.38759">
        <ele>288</ele>
        <time>2018-02-06T16:12:32Z</time>
      </trkpt>
      <trkpt lat="45.06771" lon="5.38772">
        <ele>286</ele>
        <time>2018-02-06T16:13:32Z</time>
      </trkpt>
      <trkpt lat="45.06764" lon="5.3879">
        <ele>285</ele>
        <time>2018-02-06T16:14:32Z</time>
      </trkpt>
      <trkpt lat="45.06758" lon="5.38818">
        <ele>286</ele>
        <time>2018-02-06T16:15:32Z</time>
      </trkpt>
      <trkpt lat="45.06753" lon="5.38842">
        <ele>286</ele>
        <time>2018-02-06T16:16:32Z</time>
      </trkpt>
      <trkpt lat="45.06751" lon="5.38852">
        <ele>286</ele>
        <time>2018-02-06T16:17:32Z</time>
      </trkpt>
      <trkpt lat="45.06749" lon="5.38862">
        <ele>285</ele>
        <time>2018-02-06T16:18:32Z</time>
      </trkpt>
      <trkpt lat="45.06748" lon="5.38875">
        <ele>285</ele>
        <time>2018-02-06T16:19:32Z</time>
      </trkpt>
      <trkpt lat="45.06749" lon="5.38884">
        <ele>285</ele>
        <time>2018-02-06T16:20:32Z</time>
      </trkpt>
      <trkpt lat="45.06749" lon="5.38892">
        <ele>286</ele>
        <time>2018-02-06T16:21:32Z</time>
      </trkpt>
      <trkpt lat="45.06749" lon="5.38894">
        <ele>286</ele>
        <time>2018-02-06T16:22:32Z</time>
      </trkpt>
      <trkpt lat="45.06749" lon="5.38897">
        <ele>286</ele>
        <time>2018-02-06T16:23:32Z</time>
      </trkpt>
      <trkpt lat="45.06749" lon="5.38904">
        <ele>286</ele>
        <time>2018-02-06T16:24:32Z</time>
      </trkpt>
      <trkpt lat="45.06747" lon="5.3891">
        <ele>286</ele>
        <time>2018-02-06T16:25:32Z</time>
      </trkpt>
      <trkpt lat="45.06745" lon="5.38922">
        <ele>286</ele>
        <time>2018-02-06T16:26:32Z</time>
      </trkpt>
      <trkpt lat="45.06745" lon="5.38922">
        <ele>286</ele>
        <time>2018-02-06T16:27:32Z</time>
      </trkpt>
      <trkpt lat="45.06743" lon="5.38926">
        <ele>287</ele>
        <time>2018-02-06T16:28:32Z</time>
      </trkpt>
      <trkpt lat="45.06739" lon="5.38929">
        <ele>287</ele>
        <time>2018-02-06T16:29:32Z</time>
      </trkpt>
      <trkpt lat="45.06735" lon="5.3893">
        <ele>286</ele>
        <time>2018-02-06T16:30:32Z</time>
      </trkpt>
      <trkpt lat="45.06728" lon="5.38931">
        <ele>286</ele>
        <time>2018-02-06T16:31:32Z</time>
      </trkpt>
      <trkpt lat="45.0672" lon="5.38932">
        <ele>285</ele>
        <time>2018-02-06T16:32:32Z</time>
      </trkpt>
      <trkpt lat="45.06714" lon="5.38934">
        <ele>284</ele>
        <time>2018-02-06T16:33:32Z</time>
      </trkpt>
      <trkpt lat="45.06706" lon="5.38937">
        <ele>283</ele>
        <time>2018-02-06T16:34:32Z</time>
      </trkpt>
      <trkpt lat="45.06695" lon="5.38945">
        <ele>282</ele>
        <time>2018-02-06T16:35:32Z</time>
      </trkpt>
      <trkpt lat="45.06686" lon="5.38953">
        <ele>282</ele>
        <time>2018-02-06T16:36:32Z</time>
      </trkpt>
      <trkpt lat="45.06676" lon="5.38971">
        <ele>282</ele>
        <time>2018-02-06T16:37:32Z</time>
      </trkpt>
      <trkpt lat="45.06668" lon="5.38984">
        <ele>281</ele>
        <time>2018-02-06T16:38:32Z</time>
      </trkpt>
      <trkpt lat="45.06665" lon="5.38994">
        <ele>281</ele>
        <time>2018-02-06T16:39:32Z</time>
      </trkpt>
      <trkpt lat="45.06662" lon="5.39009">
        <ele>281</ele>
        <time>2018-02-06T16:40:32Z</time>
      </trkpt>
      <trkpt lat="45.06663" lon="5.39036">
        <ele>281</ele>
        <time>2018-02-06T16:41:32Z</time>
      </trkpt>
      <trkpt lat="45.06663" lon="5.39049">
        <ele>281</ele>
        <time>2018-02-06T16:42:32Z</time>
      </trkpt>
      <trkpt lat="45.06664" lon="5.39058">
        <ele>281</ele>
        <time>2018-02-06T16:43:32Z</time>
      </trkpt>
      <trkpt lat="45.06663" lon="5.39064">
        <ele>281</ele>
        <time>2018-02-06T16:44:32Z</time>
      </trkpt>
      <trkpt lat="45.06662" lon="5.3907">
        <ele>280</ele>
        <time>2018-02-06T16:45:32Z</time>
      </trkpt>
      <trkpt lat="45.06662" lon="5.3907">
        <ele>280</ele>
        <time>2018-02-06T16:46:32Z</time>
      </trkpt>
      <trkpt lat="45.06663" lon="5.39071">
        <ele>280</ele>
        <time>2018-02-06T16:47:32Z</time>
      </trkpt>
      <trkpt lat="45.0667" lon="5.39084">
        <ele>282</ele>
        <time>2018-02-06T16:48:32Z</time>
      </trkpt>
      <trkpt lat="45.06675" lon="5.39092">
        <ele>283</ele>
        <time>2018-02-06T16:49:32Z</time>
      </trkpt>
      <trkpt lat="45.06679" lon="5.39099">
        <ele>284</ele>
        <time>2018-02-06T16:50:32Z</time>
      </trkpt>
      <trkpt lat="45.0668" lon="5.39103">
        <ele>284</ele>
        <time>2018-02-06T16:51:32Z</time>
      </trkpt>
      <trkpt lat="45.06682" lon="5.39108">
        <ele>285</ele>
        <time>2018-02-06T16:52:32Z</time>
      </trkpt>
      <trkpt lat="45.06685" lon="5.39116">
        <ele>285</ele>
        <time>2018-02-06T16:53:32Z</time>
      </trkpt>
      <trkpt lat="45.06686" lon="5.39125">
        <ele>285</ele>
        <time>2018-02-06T16:54:32Z</time>
      </trkpt>
      <trkpt lat="45.06687" lon="5.39136">
        <ele>284</ele>
        <time>2018-02-06T16:55:32Z</time>
      </trkpt>
      <trkpt lat="45.06687" lon="5.39139">
        <ele>284</ele>
        <time>2018-02-06T16:56:32Z</time>
      </trkpt>
      <trkpt lat="45.06688" lon="5.39145">
        <ele>284</ele>
        <time>2018-02-06T16:57:32Z</time>
      </trkpt>
      <trkpt lat="45.06688" lon="5.39158">
        <ele>283</ele>
        <time>2018-02-06T16:58:32Z</time>
      </trkpt>
      <trkpt lat="45.06688" lon="5.39163">
        <ele>283</ele>
        <time>2018-02-06T16:59:32Z</time>
      </trkpt>
      <trkpt lat="45.06687" lon="5.39168">
        <ele>282</ele>
        <time>2018-02-06T17:00:32Z</time>
      </trkpt>
      <trkpt lat="45.06688" lon="5.39178">
        <ele>282</ele>
        <time>2018-02-06T17:01:32Z</time>
      </trkpt>
      <trkpt lat="45.06689" lon="5.39191">
        <ele>282</ele>
        <time>2018-02-06T17:02:32Z</time>
      </trkpt>
      <trkpt lat="45.0669" lon="5.39199">
        <ele>282</ele>
        <time>2018-02-06T17:03:32Z</time>
      </trkpt>
      <trkpt lat="45.06693" lon="5.39211">
        <ele>282</ele>
        <time>2018-02-06T17:04:32Z</time>
      </trkpt>
      <trkpt lat="45.06697" lon="5.39221">
        <ele>282</ele>
        <time>2018-02-06T17:05:32Z</time>
      </trkpt>
      <trkpt lat="45.06701" lon="5.39235">
        <ele>283</ele>
        <time>2018-02-06T17:06:32Z</time>
      </trkpt>
      <trkpt lat="45.06701" lon="5.39238">
        <ele>282</ele>
        <time>2018-02-06T17:07:32Z</time>
      </trkpt>
      <trkpt lat="45.06701" lon="5.39242">
        <ele>282</ele>
        <time>2018-02-06T17:08:32Z</time>
      </trkpt>
      <trkpt lat="45.06701" lon="5.39246">
        <ele>282</ele>
        <time>2018-02-06T17:09:32Z</time>
      </trkpt>
      <trkpt lat="45.06701" lon="5.39249">
        <ele>282</ele>
        <time>2018-02-06T17:10:32Z</time>
      </trkpt>
      <trkpt lat="45.067" lon="5.39252">
        <ele>282</ele>
        <time>2018-02-06T17:11:32Z</time>
      </trkpt>
      <trkpt lat="45.06699" lon="5.39255">
        <ele>283</ele>
        <time>2018-02-06T17:12:32Z</time>
      </trkpt>
      <trkpt lat="45.06696" lon="5.39261">
        <ele>284</ele>
        <time>2018-02-06T17:13:32Z</time>
      </trkpt>
      <trkpt lat="45.06692" lon="5.39265">
        <ele>284</ele>
        <time>2018-02-06T17:14:32Z</time>
      </trkpt>
      <trkpt lat="45.06688" lon="5.39268">
        <ele>284</ele>
        <time>2018-02-06T17:15:32Z</time>
      </trkpt>
      <trkpt lat="45.06683" lon="5.39268">
        <ele>284</ele>
        <time>2018-02-06T17:16:32Z</time>
      </trkpt>
      <trkpt lat="45.06674" lon="5.39267">
        <ele>282</ele>
        <time>2018-02-06T17:17:32Z</time>
      </trkpt>
      <trkpt lat="45.06666" lon="5.39265">
        <ele>280</ele>
        <time>2018-02-06T17:18:32Z</time>
      </trkpt>
      <trkpt lat="45.06659" lon="5.39267">
        <ele>280</ele>
        <time>2018-02-06T17:19:32Z</time>
      </trkpt>
      <trkpt lat="45.06651" lon="5.3927">
        <ele>280</ele>
        <time>2018-02-06T17:20:32Z</time>
      </trkpt>
      <trkpt lat="45.0664" lon="5.39277">
        <ele>280</ele>
        <time>2018-02-06T17:21:32Z</time>
      </trkpt>
      <trkpt lat="45.06633" lon="5.39284">
        <ele>280</ele>
        <time>2018-02-06T17:22:32Z</time>
      </trkpt>
      <trkpt lat="45.06626" lon="5.39294">
        <ele>281</ele>
        <time>2018-02-06T17:23:32Z</time>
      </trkpt>
      <trkpt lat="45.06619" lon="5.39307">
        <ele>282</ele>
        <time>2018-02-06T17:24:32Z</time>
      </trkpt>
      <trkpt lat="45.06612" lon="5.39323">
        <ele>282</ele>
        <time>2018-02-06T17:25:32Z</time>
      </trkpt>
      <trkpt lat="45.06606" lon="5.39335">
        <ele>282</ele>
        <time>2018-02-06T17:26:32Z</time>
      </trkpt>
      <trkpt lat="45.06598" lon="5.39347">
        <ele>283</ele>
        <time>2018-02-06T17:27:32Z</time>
      </trkpt>
      <trkpt lat="45.06589" lon="5.39359">
        <ele>284</ele>
        <time>2018-02-06T17:28:32Z</time>
      </trkpt>
      <trkpt lat="45.06579" lon="5.39374">
        <ele>287</ele>
        <time>2018-02-06T17:29:32Z</time>
      </trkpt>
      <trkpt lat="45.0657" lon="5.39388">
        <ele>288</ele>
        <time>2018-02-06T17:30:32Z</time>
      </trkpt>
      <trkpt lat="45.06561" lon="5.39406">
        <ele>289</ele>
        <time>2018-02-06T17:31:32Z</time>
      </trkpt>
      <trkpt lat="45.06554" lon="5.39422">
        <ele>289</ele>
        <time>2018-02-06T17:32:32Z</time>
      </trkpt>
      <trkpt lat="45.0655" lon="5.39438">
        <ele>290</ele>
        <time>2018-02-06T17:33:32Z</time>
      </trkpt>
      <trkpt lat="45.06548" lon="5.39447">
        <ele>290</ele>
        <time>2018-02-06T17:34:32Z</time>
      </trkpt>
      <trkpt lat="45.06546" lon="5.39456">
        <ele>291</ele>
        <time>2018-02-06T17:35:32Z</time>
      </trkpt>
      <trkpt lat="45.06546" lon="5.39469">
        <ele>293</ele>
        <time>2018-02-06T17:36:32Z</time>
      </trkpt>
      <trkpt lat="45.06546" lon="5.39476">
        <ele>294</ele>
        <time>2018-02-06T17:37:32Z</time>
      </trkpt>
      <trkpt lat="45.06546" lon="5.3948">
        <ele>294</ele>
        <time>2018-02-06T17:38:32Z</time>
      </trkpt>
      <trkpt lat="45.06547" lon="5.39501">
        <ele>297</ele>
        <time>2018-02-06T17:39:32Z</time>
      </trkpt>
      <trkpt lat="45.06548" lon="5.3953">
        <ele>299</ele>
        <time>2018-02-06T17:40:32Z</time>
      </trkpt>
      <trkpt lat="45.06549" lon="5.39555">
        <ele>301</ele>
        <time>2018-02-06T17:41:32Z</time>
      </trkpt>
      <trkpt lat="45.0655" lon="5.39578">
        <ele>302</ele>
        <time>2018-02-06T17:42:32Z</time>
      </trkpt>
      <trkpt lat="45.0655" lon="5.39592">
        <ele>304</ele>
        <time>2018-02-06T17:43:32Z</time>
      </trkpt>
      <trkpt lat="45.06552" lon="5.39612">
        <ele>307</ele>
        <time>2018-02-06T17:44:32Z</time>
      </trkpt>
      <trkpt lat="45.06552" lon="5.39624">
        <ele>308</ele>
        <time>2018-02-06T17:45:32Z</time>
      </trkpt>
      <trkpt lat="45.06552" lon="5.39633">
        <ele>309</ele>
        <time>2018-02-06T17:46:32Z</time>
      </trkpt>
      <trkpt lat="45.06551" lon="5.39643">
        <ele>309</ele>
        <time>2018-02-06T17:47:32Z</time>
      </trkpt>
      <trkpt lat="45.06548" lon="5.39653">
        <ele>309</ele>
        <time>2018-02-06T17:48:32Z</time>
      </trkpt>
      <trkpt lat="45.06545" lon="5.39663">
        <ele>309</ele>
        <time>2018-02-06T17:49:32Z</time>
      </trkpt>
      <trkpt lat="45.06543" lon="5.39667">
        <ele>309</ele>
        <time>2018-02-06T17:50:32Z</time>
      </trkpt>
      <trkpt lat="45.06542" lon="5.3967">
        <ele>309</ele>
        <time>2018-02-06T17:51:32Z</time>
      </trkpt>
      <trkpt lat="45.06537" lon="5.39678">
        <ele>308</ele>
        <time>2018-02-06T17:52:32Z</time>
      </trkpt>
      <trkpt lat="45.06526" lon="5.39693">
        <ele>307</ele>
        <time>2018-02-06T17:53:32Z</time>
      </trkpt>
      <trkpt lat="45.0652" lon="5.39705">
        <ele>306</ele>
        <time>2018-02-06T17:54:32Z</time>
      </trkpt>
      <trkpt lat="45.0651" lon="5.39723">
        <ele>305</ele>
        <time>2018-02-06T17:55:32Z</time>
      </trkpt>
      <trkpt lat="45.06508" lon="5.39726">
        <ele>305</ele>
        <time>2018-02-06T17:56:32Z</time>
      </trkpt>
      <trkpt lat="45.06505" lon="5.39731">
        <ele>305</ele>
        <time>2018-02-06T17:57:32Z</time>
      </trkpt>
      <trkpt lat="45.06486" lon="5.39772">
        <ele>305</ele>
        <time>2018-02-06T17:58:32Z</time>
      </trkpt>
      <trkpt lat="45.06462" lon="5.39812">
        <ele>304</ele>
        <time>2018-02-06T17:59:32Z</time>
      </trkpt>
      <trkpt lat="45.06457" lon="5.39823">
        <ele>304</ele>
        <time>2018-02-06T18:00:32Z</time>
      </trkpt>
      <trkpt lat="45.06443" lon="5.39853">
        <ele>308</ele>
        <time>2018-02-06T18:01:32Z</time>
      </trkpt>
      <trkpt lat="45.06431" lon="5.39876">
        <ele>312</ele>
        <time>2018-02-06T18:02:32Z</time>
      </trkpt>
      <trkpt lat="45.06427" lon="5.39882">
        <ele>313</ele>
        <time>2018-02-06T18:03:32Z</time>
      </trkpt>
      <trkpt lat="45.06421" lon="5.39889">
        <ele>314</ele>
        <time>2018-02-06T18:04:32Z</time>
      </trkpt>
      <trkpt lat="45.06413" lon="5.39898">
        <ele>315</ele>
        <time>2018-02-06T18:05:32Z</time>
      </trkpt>
      <trkpt lat="45.06405" lon="5.39903">
        <ele>315</ele>
        <time>2018-02-06T18:06:32Z</time>
      </trkpt>
      <trkpt lat="45.06398" lon="5.3991">
        <ele>315</ele>
        <time>2018-02-06T18:07:32Z</time>
      </trkpt>
      <trkpt lat="45.0639" lon="5.39916">
        <ele>315</ele>
        <time>2018-02-06T18:08:32Z</time>
      </trkpt>
      <trkpt lat="45.06381" lon="5.39926">
        <ele>315</ele>
        <time>2018-02-06T18:09:32Z</time>
      </trkpt>
      <trkpt lat="45.06363" lon="5.39946">
        <ele>316</ele>
        <time>2018-02-06T18:10:32Z</time>
      </trkpt>
      <trkpt lat="45.06352" lon="5.39959">
        <ele>317</ele>
        <time>2018-02-06T18:11:32Z</time>
      </trkpt>
      <trkpt lat="45.06344" lon="5.39968">
        <ele>317</ele>
        <time>2018-02-06T18:12:32Z</time>
      </trkpt>
      <trkpt lat="45.06339" lon="5.39973">
        <ele>317</ele>
        <time>2018-02-06T18:13:32Z</time>
      </trkpt>
      <trkpt lat="45.06331" lon="5.39981">
        <ele>317</ele>
        <time>2018-02-06T18:14:32Z</time>
      </trkpt>
      <trkpt lat="45.06317" lon="5.39989">
        <ele>317</ele>
        <time>2018-02-06T18:15:32Z</time>
      </trkpt>
      <trkpt lat="45.06304" lon="5.39999">
        <ele>317</ele>
        <time>2018-02-06T18:16:32Z</time>
      </trkpt>
      <trkpt lat="45.06294" lon="5.40007">
        <ele>317</ele>
        <time>2018-02-06T18:17:32Z</time>
      </trkpt>
      <trkpt lat="45.06288" lon="5.40014">
        <ele>318</ele>
        <time>2018-02-06T18:18:32Z</time>
      </trkpt>
      <trkpt lat="45.06277" lon="5.40028">
        <ele>318</ele>
        <time>2018-02-06T18:19:32Z</time>
      </trkpt>
      <trkpt lat="45.06273" lon="5.40036">
        <ele>319</ele>
        <time>2018-02-06T18:20:32Z</time>
      </trkpt>
      <trkpt lat="45.06268" lon="5.40045">
        <ele>319</ele>
        <time>2018-02-06T18:21:32Z</time>
      </trkpt>
      <trkpt lat="45.06262" lon="5.40059">
        <ele>320</ele>
        <time>2018-02-06T18:22:32Z</time>
      </trkpt>
      <trkpt lat="45.06257" lon="5.40073">
        <ele>320</ele>
        <time>2018-02-06T18:23:32Z</time>
      </trkpt>
      <trkpt lat="45.0625" lon="5.40094">
        <ele>321</ele>
        <time>2018-02-06T18:24:32Z</time>
      </trkpt>
      <trkpt lat="45.06246" lon="5.40108">
        <ele>322</ele>
        <time>2018-02-06T18:25:32Z</time>
      </trkpt>
      <trkpt lat="45.06242" lon="5.40126">
        <ele>324</ele>
        <time>2018-02-06T18:26:32Z</time>
      </trkpt>
      <trkpt lat="45.0624" lon="5.40139">
        <ele>326</ele>
        <time>2018-02-06T18:27:32Z</time>
      </trkpt>
      <trkpt lat="45.06238" lon="5.40152">
        <ele>328</ele>
        <time>2018-02-06T18:28:32Z</time>
      </trkpt>
      <trkpt lat="45.06237" lon="5.40163">
        <ele>329</ele>
        <time>2018-02-06T18:29:32Z</time>
      </trkpt>
      <trkpt lat="45.06236" lon="5.40174">
        <ele>331</ele>
        <time>2018-02-06T18:30:32Z</time>
      </trkpt>
      <trkpt lat="45.06235" lon="5.40183">
        <ele>331</ele>
        <time>2018-02-06T18:31:32Z</time>
      </trkpt>
      <trkpt lat="45.06235" lon="5.40192">
        <ele>332</ele>
        <time>2018-02-06T18:32:32Z</time>
      </trkpt>
      <trkpt lat="45.06235" lon="5.40202">
        <ele>333</ele>
        <time>2018-02-06T18:33:32Z</time>
      </trkpt>
      <trkpt lat="45.06235" lon="5.40214">
        <ele>335</ele>
        <time>2018-02-06T18:34:32Z</time>
      </trkpt>
      <trkpt lat="45.06237" lon="5.40232">
        <ele>338</ele>
        <time>2018-02-06T18:35:32Z</time>
      </trkpt>
      <trkpt lat="45.06237" lon="5.40237">
        <ele>338</ele>
        <time>2018-02-06T18:36:32Z</time>
      </trkpt>
      <trkpt lat="45.06237" lon="5.40243">
        <ele>339</ele>
        <time>2018-02-06T18:37:32Z</time>
      </trkpt>
      <trkpt lat="45.06238" lon="5.4025">
        <ele>340</ele>
        <time>2018-02-06T18:38:32Z</time>
      </trkpt>
      <trkpt lat="45.06237" lon="5.40256">
        <ele>340</ele>
        <time>2018-02-06T18:39:32Z</time>
      </trkpt>
      <trkpt lat="45.06237" lon="5.40261">
        <ele>341</ele>
        <time>2018-02-06T18:40:32Z</time>
      </trkpt>
      <trkpt lat="45.06236" lon="5.40266">
        <ele>341</ele>
        <time>2018-02-06T18:41:32Z</time>
      </trkpt>
      <trkpt lat="45.06235" lon="5.40271">
        <ele>341</ele>
        <time>2018-02-06T18:42:32Z</time>
      </trkpt>
      <trkpt lat="45.06232" lon="5.40277">
        <ele>341</ele>
        <time>2018-02-06T18:43:32Z</time>
      </trkpt>
      <trkpt lat="45.0623" lon="5.40282">
        <ele>341</ele>
        <time>2018-02-06T18:44:32Z</time>
      </trkpt>
      <trkpt lat="45.06227" lon="5.40287">
        <ele>340</ele>
        <time>2018-02-06T18:45:32Z</time>
      </trkpt>
      <trkpt lat="45.06208" lon="5.40323">
        <ele>338</ele>
        <time>2018-02-06T18:46:32Z</time>
      </trkpt>
      <trkpt lat="45.06196" lon="5.40345">
        <ele>337</ele>
        <time>2018-02-06T18:47:32Z</time>
      </trkpt>
      <trkpt lat="45.06192" lon="5.40355">
        <ele>338</ele>
        <time>2018-02-06T18:48:32Z</time>
      </trkpt>
      <trkpt lat="45.06189" lon="5.40364">
        <ele>338</ele>
        <time>2018-02-06T18:49:32Z</time>
      </trkpt>
      <trkpt lat="45.0618" lon="5.40404">
        <ele>340</ele>
        <time>2018-02-06T18:50:32Z</time>
      </trkpt>
      <trkpt lat="45.06165" lon="5.40476">
        <ele>342</ele>
        <time>2018-02-06T18:51:32Z</time>
      </trkpt>
      <trkpt lat="45.06164" lon="5.40481">
        <ele>342</ele>
        <time>2018-02-06T18:52:32Z</time>
      </trkpt>
      <trkpt lat="45.06163" lon="5.40486">
        <ele>343</ele>
        <time>2018-02-06T18:53:32Z</time>
      </trkpt>
      <trkpt lat="45.06163" lon="5.4049">
        <ele>343</ele>
        <time>2018-02-06T18:54:32Z</time>
      </trkpt>
      <trkpt lat="45.06163" lon="5.40495">
        <ele>344</ele>
        <time>2018-02-06T18:55:32Z</time>
      </trkpt>
      <trkpt lat="45.06163" lon="5.405">
        <ele>344</ele>
        <time>2018-02-06T18:56:32Z</time>
      </trkpt>
      <trkpt lat="45.06163" lon="5.40505">
        <ele>345</ele>
        <time>2018-02-06T18:57:32Z</time>
      </trkpt>
      <trkpt lat="45.06164" lon="5.40509">
        <ele>346</ele>
        <time>2018-02-06T18:58:32Z</time>
      </trkpt>
      <trkpt lat="45.06165" lon="5.40514">
        <ele>348</ele>
        <time>2018-02-06T18:59:32Z</time>
      </trkpt>
      <trkpt lat="45.06167" lon="5.40519">
        <ele>349</ele>
        <time>2018-02-06T19:00:32Z</time>
      </trkpt>
      <trkpt lat="45.06168" lon="5.40525">
        <ele>350</ele>
        <time>2018-02-06T19:01:32Z</time>
      </trkpt>
      <trkpt lat="45.06169" lon="5.40531">
        <ele>352</ele>
        <time>2018-02-06T19:02:32Z</time>
      </trkpt>
      <trkpt lat="45.06171" lon="5.40535">
        <ele>353</ele>
        <time>2018-02-06T19:03:32Z</time>
      </trkpt>
      <trkpt lat="45.06172" lon="5.4054">
        <ele>354</ele>
        <time>2018-02-06T19:04:32Z</time>
      </trkpt>
      <trkpt lat="45.06173" lon="5.40544">
        <ele>355</ele>
        <time>2018-02-06T19:05:32Z</time>
      </trkpt>
      <trkpt lat="45.06173" lon="5.40548">
        <ele>356</ele>
        <time>2018-02-06T19:06:32Z</time>
      </trkpt>
      <trkpt lat="45.06173" lon="5.40552">
        <ele>357</ele>
        <time>2018-02-06T19:07:32Z</time>
      </trkpt>
      <trkpt lat="45.06172" lon="5.40556">
        <ele>357</ele>
        <time>2018-02-06T19:08:32Z</time>
      </trkpt>
      <trkpt lat="45.06172" lon="5.40559">
        <ele>357</ele>
        <time>2018-02-06T19:09:32Z</time>
      </trkpt>
      <trkpt lat="45.06171" lon="5.40563">
        <ele>357</ele>
        <time>2018-02-06T19:10:32Z</time>
      </trkpt>
      <trkpt lat="45.06169" lon="5.40566">
        <ele>357</ele>
        <time>2018-02-06T19:11:32Z</time>
      </trkpt>
      <trkpt lat="45.06168" lon="5.4057">
        <ele>357</ele>
        <time>2018-02-06T19:12:32Z</time>
      </trkpt>
      <trkpt lat="45.06166" lon="5.40573">
        <ele>357</ele>
        <time>2018-02-06T19:13:32Z</time>
      </trkpt>
      <trkpt lat="45.06164" lon="5.40576">
        <ele>357</ele>
        <time>2018-02-06T19:14:32Z</time>
      </trkpt>
      <trkpt lat="45.06162" lon="5.4058">
        <ele>357</ele>
        <time>2018-02-06T19:15:32Z</time>
      </trkpt>
      <trkpt lat="45.06159" lon="5.40583">
        <ele>356</ele>
        <time>2018-02-06T19:16:32Z</time>
      </trkpt>
      <trkpt lat="45.06157" lon="5.40587">
        <ele>357</ele>
        <time>2018-02-06T19:17:32Z</time>
      </trkpt>
      <trkpt lat="45.06154" lon="5.4059">
        <ele>357</ele>
        <time>2018-02-06T19:18:32Z</time>
      </trkpt>
      <trkpt lat="45.06152" lon="5.40593">
        <ele>357</ele>
        <time>2018-02-06T19:19:32Z</time>
      </trkpt>
      <trkpt lat="45.0615" lon="5.40596">
        <ele>357</ele>
        <time>2018-02-06T19:20:32Z</time>
      </trkpt>
      <trkpt lat="45.06149" lon="5.40599">
        <ele>358</ele>
        <time>2018-02-06T19:21:32Z</time>
      </trkpt>
      <trkpt lat="45.06147" lon="5.40603">
        <ele>358</ele>
        <time>2018-02-06T19:22:32Z</time>
      </trkpt>
      <trkpt lat="45.06146" lon="5.40607">
        <ele>359</ele>
        <time>2018-02-06T19:23:32Z</time>
      </trkpt>
      <trkpt lat="45.06145" lon="5.4061">
        <ele>359</ele>
        <time>2018-02-06T19:24:32Z</time>
      </trkpt>
      <trkpt lat="45.06144" lon="5.40614">
        <ele>360</ele>
        <time>2018-02-06T19:25:32Z</time>
      </trkpt>
      <trkpt lat="45.06144" lon="5.40618">
        <ele>361</ele>
        <time>2018-02-06T19:26:32Z</time>
      </trkpt>
      <trkpt lat="45.06143" lon="5.40622">
        <ele>362</ele>
        <time>2018-02-06T19:27:32Z</time>
      </trkpt>
      <trkpt lat="45.06142" lon="5.40626">
        <ele>363</ele>
        <time>2018-02-06T19:28:32Z</time>
      </trkpt>
      <trkpt lat="45.06142" lon="5.40629">
        <ele>364</ele>
        <time>2018-02-06T19:29:32Z</time>
      </trkpt>
      <trkpt lat="45.06141" lon="5.40633">
        <ele>365</ele>
        <time>2018-02-06T19:30:32Z</time>
      </trkpt>
      <trkpt lat="45.0614" lon="5.40635">
        <ele>365</ele>
        <time>2018-02-06T19:31:32Z</time>
      </trkpt>
      <trkpt lat="45.06138" lon="5.40638">
        <ele>366</ele>
        <time>2018-02-06T19:32:32Z</time>
      </trkpt>
      <trkpt lat="45.06137" lon="5.4064">
        <ele>366</ele>
        <time>2018-02-06T19:33:32Z</time>
      </trkpt>
      <trkpt lat="45.06136" lon="5.40642">
        <ele>366</ele>
        <time>2018-02-06T19:34:32Z</time>
      </trkpt>
      <trkpt lat="45.06134" lon="5.40645">
        <ele>367</ele>
        <time>2018-02-06T19:35:32Z</time>
      </trkpt>
      <trkpt lat="45.06131" lon="5.40646">
        <ele>366</ele>
        <time>2018-02-06T19:36:32Z</time>
      </trkpt>
      <trkpt lat="45.06128" lon="5.40648">
        <ele>366</ele>
        <time>2018-02-06T19:37:32Z</time>
      </trkpt>
      <trkpt lat="45.06125" lon="5.40649">
        <ele>365</ele>
        <time>2018-02-06T19:38:32Z</time>
      </trkpt>
      <trkpt lat="45.06122" lon="5.4065">
        <ele>365</ele>
        <time>2018-02-06T19:39:32Z</time>
      </trkpt>
      <trkpt lat="45.06119" lon="5.40651">
        <ele>365</ele>
        <time>2018-02-06T19:40:32Z</time>
      </trkpt>
      <trkpt lat="45.06115" lon="5.40651">
        <ele>364</ele>
        <time>2018-02-06T19:41:32Z</time>
      </trkpt>
      <trkpt lat="45.06111" lon="5.40651">
        <ele>362</ele>
        <time>2018-02-06T19:42:32Z</time>
      </trkpt>
      <trkpt lat="45.06089" lon="5.40649">
        <ele>356</ele>
        <time>2018-02-06T19:43:32Z</time>
      </trkpt>
      <trkpt lat="45.06081" lon="5.4065">
        <ele>354</ele>
        <time>2018-02-06T19:44:32Z</time>
      </trkpt>
      <trkpt lat="45.06076" lon="5.40653">
        <ele>352</ele>
        <time>2018-02-06T19:45:32Z</time>
      </trkpt>
      <trkpt lat="45.06072" lon="5.40655">
        <ele>351</ele>
        <time>2018-02-06T19:46:32Z</time>
      </trkpt>
      <trkpt lat="45.06068" lon="5.40659">
        <ele>351</ele>
        <time>2018-02-06T19:47:32Z</time>
      </trkpt>
      <trkpt lat="45.06063" lon="5.40664">
        <ele>350</ele>
        <time>2018-02-06T19:48:32Z</time>
      </trkpt>
      <trkpt lat="45.06059" lon="5.4067">
        <ele>350</ele>
        <time>2018-02-06T19:49:32Z</time>
      </trkpt>
      <trkpt lat="45.06055" lon="5.40675">
        <ele>350</ele>
        <time>2018-02-06T19:50:32Z</time>
      </trkpt>
      <trkpt lat="45.06052" lon="5.40684">
        <ele>352</ele>
        <time>2018-02-06T19:51:32Z</time>
      </trkpt>
      <trkpt lat="45.06045" lon="5.40699">
        <ele>355</ele>
        <time>2018-02-06T19:52:32Z</time>
      </trkpt>
      <trkpt lat="45.06042" lon="5.4071">
        <ele>358</ele>
        <time>2018-02-06T19:53:32Z</time>
      </trkpt>
      <trkpt lat="45.06039" lon="5.40717">
        <ele>359</ele>
        <time>2018-02-06T19:54:32Z</time>
      </trkpt>
      <trkpt lat="45.06035" lon="5.40723">
        <ele>360</ele>
        <time>2018-02-06T19:55:32Z</time>
      </trkpt>
      <trkpt lat="45.06031" lon="5.40729">
        <ele>361</ele>
        <time>2018-02-06T19:56:32Z</time>
      </trkpt>
      <trkpt lat="45.06026" lon="5.40736">
        <ele>361</ele>
        <time>2018-02-06T19:57:32Z</time>
      </trkpt>
      <trkpt lat="45.06022" lon="5.40742">
        <ele>362</ele>
        <time>2018-02-06T19:58:32Z</time>
      </trkpt>
      <trkpt lat="45.06017" lon="5.40747">
        <ele>362</ele>
        <time>2018-02-06T19:59:32Z</time>
      </trkpt>
      <trkpt lat="45.0601" lon="5.40756">
        <ele>363</ele>
        <time>2018-02-06T20:00:32Z</time>
      </trkpt>
      <trkpt lat="45.05977" lon="5.40784">
        <ele>355</ele>
        <time>2018-02-06T20:01:32Z</time>
      </trkpt>
      <trkpt lat="45.05932" lon="5.40822">
        <ele>346</ele>
        <time>2018-02-06T20:02:32Z</time>
      </trkpt>
      <trkpt lat="45.05917" lon="5.40836">
        <ele>345</ele>
        <time>2018-02-06T20:03:32Z</time>
      </trkpt>
      <trkpt lat="45.05912" lon="5.40842">
        <ele>345</ele>
        <time>2018-02-06T20:04:32Z</time>
      </trkpt>
      <trkpt lat="45.05909" lon="5.40846">
        <ele>345</ele>
        <time>2018-02-06T20:05:32Z</time>
      </trkpt>
      <trkpt lat="45.05906" lon="5.40851">
        <ele>345</ele>
        <time>2018-02-06T20:06:32Z</time>
      </trkpt>
      <trkpt lat="45.05904" lon="5.40857">
        <ele>346</ele>
        <time>2018-02-06T20:07:32Z</time>
      </trkpt>
      <trkpt lat="45.05902" lon="5.40863">
        <ele>347</ele>
        <time>2018-02-06T20:08:32Z</time>
      </trkpt>
      <trkpt lat="45.05901" lon="5.40868">
        <ele>349</ele>
        <time>2018-02-06T20:09:32Z</time>
      </trkpt>
      <trkpt lat="45.05901" lon="5.40873">
        <ele>351</ele>
        <time>2018-02-06T20:10:32Z</time>
      </trkpt>
      <trkpt lat="45.059" lon="5.40878">
        <ele>352</ele>
        <time>2018-02-06T20:11:32Z</time>
      </trkpt>
      <trkpt lat="45.059" lon="5.40883">
        <ele>354</ele>
        <time>2018-02-06T20:12:32Z</time>
      </trkpt>
      <trkpt lat="45.059" lon="5.40887">
        <ele>355</ele>
        <time>2018-02-06T20:13:32Z</time>
      </trkpt>
      <trkpt lat="45.059" lon="5.40892">
        <ele>357</ele>
        <time>2018-02-06T20:14:32Z</time>
      </trkpt>
      <trkpt lat="45.059" lon="5.40897">
        <ele>359</ele>
        <time>2018-02-06T20:15:32Z</time>
      </trkpt>
      <trkpt lat="45.059" lon="5.40903">
        <ele>361</ele>
        <time>2018-02-06T20:16:32Z</time>
      </trkpt>
      <trkpt lat="45.059" lon="5.40909">
        <ele>364</ele>
        <time>2018-02-06T20:17:32Z</time>
      </trkpt>
      <trkpt lat="45.059" lon="5.40915">
        <ele>366</ele>
        <time>2018-02-06T20:18:32Z</time>
      </trkpt>
      <trkpt lat="45.059" lon="5.40921">
        <ele>367</ele>
        <time>2018-02-06T20:19:32Z</time>
      </trkpt>
      <trkpt lat="45.05898" lon="5.40928">
        <ele>367</ele>
        <time>2018-02-06T20:20:32Z</time>
      </trkpt>
      <trkpt lat="45.05897" lon="5.40933">
        <ele>367</ele>
        <time>2018-02-06T20:21:32Z</time>
      </trkpt>
      <trkpt lat="45.05895" lon="5.40938">
        <ele>367</ele>
        <time>2018-02-06T20:22:32Z</time>
      </trkpt>
      <trkpt lat="45.05893" lon="5.40942">
        <ele>367</ele>
        <time>2018-02-06T20:23:32Z</time>
      </trkpt>
      <trkpt lat="45.05891" lon="5.40946">
        <ele>367</ele>
        <time>2018-02-06T20:24:32Z</time>
      </trkpt>
      <trkpt lat="45.05888" lon="5.4095">
        <ele>366</ele>
        <time>2018-02-06T20:25:32Z</time>
      </trkpt>
      <trkpt lat="45.05885" lon="5.40954">
        <ele>366</ele>
        <time>2018-02-06T20:26:32Z</time>
      </trkpt>
      <trkpt lat="45.05875" lon="5.40967">
        <ele>364</ele>
        <time>2018-02-06T20:27:32Z</time>
      </trkpt>
      <trkpt lat="45.05869" lon="5.40979">
        <ele>365</ele>
        <time>2018-02-06T20:28:32Z</time>
      </trkpt>
      <trkpt lat="45.05867" lon="5.40985">
        <ele>366</ele>
        <time>2018-02-06T20:29:32Z</time>
      </trkpt>
      <trkpt lat="45.05865" lon="5.40995">
        <ele>368</ele>
        <time>2018-02-06T20:30:32Z</time>
      </trkpt>
      <trkpt lat="45.05866" lon="5.41008">
        <ele>369</ele>
        <time>2018-02-06T20:31:32Z</time>
      </trkpt>
      <trkpt lat="45.05869" lon="5.41021">
        <ele>369</ele>
        <time>2018-02-06T20:32:32Z</time>
      </trkpt>
      <trkpt lat="45.05875" lon="5.41038">
        <ele>369</ele>
        <time>2018-02-06T20:33:32Z</time>
      </trkpt>
      <trkpt lat="45.05888" lon="5.41062">
        <ele>371</ele>
        <time>2018-02-06T20:34:32Z</time>
      </trkpt>
      <trkpt lat="45.05899" lon="5.41078">
        <ele>373</ele>
        <time>2018-02-06T20:35:32Z</time>
      </trkpt>
      <trkpt lat="45.05914" lon="5.41092">
        <ele>374</ele>
        <time>2018-02-06T20:36:32Z</time>
      </trkpt>
      <trkpt lat="45.05928" lon="5.41101">
        <ele>377</ele>
        <time>2018-02-06T20:37:32Z</time>
      </trkpt>
      <trkpt lat="45.05942" lon="5.41107">
        <ele>380</ele>
        <time>2018-02-06T20:38:32Z</time>
      </trkpt>
      <trkpt lat="45.05955" lon="5.41112">
        <ele>384</ele>
        <time>2018-02-06T20:39:32Z</time>
      </trkpt>
      <trkpt lat="45.05963" lon="5.41119">
        <ele>385</ele>
        <time>2018-02-06T20:40:32Z</time>
      </trkpt>
      <trkpt lat="45.05972" lon="5.41134">
        <ele>386</ele>
        <time>2018-02-06T20:41:32Z</time>
      </trkpt>
      <trkpt lat="45.05976" lon="5.41146">
        <ele>386</ele>
        <time>2018-02-06T20:42:32Z</time>
      </trkpt>
      <trkpt lat="45.05978" lon="5.41151">
        <ele>387</ele>
        <time>2018-02-06T20:43:32Z</time>
      </trkpt>
      <trkpt lat="45.05982" lon="5.41182">
        <ele>386</ele>
        <time>2018-02-06T20:44:32Z</time>
      </trkpt>
      <trkpt lat="45.05985" lon="5.41226">
        <ele>386</ele>
        <time>2018-02-06T20:45:32Z</time>
      </trkpt>
      <trkpt lat="45.05988" lon="5.41263">
        <ele>385</ele>
        <time>2018-02-06T20:46:32Z</time>
      </trkpt>
      <trkpt lat="45.05992" lon="5.41283">
        <ele>386</ele>
        <time>2018-02-06T20:47:32Z</time>
      </trkpt>
      <trkpt lat="45.06" lon="5.41302">
        <ele>388</ele>
        <time>2018-02-06T20:48:32Z</time>
      </trkpt>
      <trkpt lat="45.06008" lon="5.41317">
        <ele>391</ele>
        <time>2018-02-06T20:49:32Z</time>
      </trkpt>
      <trkpt lat="45.06016" lon="5.41333">
        <ele>394</ele>
        <time>2018-02-06T20:50:32Z</time>
      </trkpt>
      <trkpt lat="45.06021" lon="5.41353">
        <ele>394</ele>
        <time>2018-02-06T20:51:32Z</time>
      </trkpt>
      <trkpt lat="45.06025" lon="5.41373">
        <ele>393</ele>
        <time>2018-02-06T20:52:32Z</time>
      </trkpt>
      <trkpt lat="45.06025" lon="5.41398">
        <ele>390</ele>
        <time>2018-02-06T20:53:32Z</time>
      </trkpt>
      <trkpt lat="45.06024" lon="5.41424">
        <ele>385</ele>
        <time>2018-02-06T20:54:32Z</time>
      </trkpt>
      <trkpt lat="45.06025" lon="5.41439">
        <ele>384</ele>
        <time>2018-02-06T20:55:32Z</time>
      </trkpt>
      <trkpt lat="45.06028" lon="5.41451">
        <ele>384</ele>
        <time>2018-02-06T20:56:32Z</time>
      </trkpt>
      <trkpt lat="45.06036" lon="5.41466">
        <ele>387</ele>
        <time>2018-02-06T20:57:32Z</time>
      </trkpt>
      <trkpt lat="45.06046" lon="5.4148">
        <ele>390</ele>
        <time>2018-02-06T20:58:32Z</time>
      </trkpt>
      <trkpt lat="45.06058" lon="5.4149">
        <ele>395</ele>
        <time>2018-02-06T20:59:32Z</time>
      </trkpt>
      <trkpt lat="45.06071" lon="5.415">
        <ele>400</ele>
        <time>2018-02-06T21:00:32Z</time>
      </trkpt>
      <trkpt lat="45.06079" lon="5.4151">
        <ele>403</ele>
        <time>2018-02-06T21:01:32Z</time>
      </trkpt>
      <trkpt lat="45.06084" lon="5.41524">
        <ele>405</ele>
        <time>2018-02-06T21:02:32Z</time>
      </trkpt>
      <trkpt lat="45.06085" lon="5.41544">
        <ele>404</ele>
        <time>2018-02-06T21:03:32Z</time>
      </trkpt>
      <trkpt lat="45.06082" lon="5.41573">
        <ele>401</ele>
        <time>2018-02-06T21:04:32Z</time>
      </trkpt>
      <trkpt lat="45.06079" lon="5.41602">
        <ele>399</ele>
        <time>2018-02-06T21:05:32Z</time>
      </trkpt>
      <trkpt lat="45.06078" lon="5.41627">
        <ele>400</ele>
        <time>2018-02-06T21:06:32Z</time>
      </trkpt>
      <trkpt lat="45.06081" lon="5.41651">
        <ele>402</ele>
        <time>2018-02-06T21:07:32Z</time>
      </trkpt>
      <trkpt lat="45.06088" lon="5.41676">
        <ele>406</ele>
        <time>2018-02-06T21:08:32Z</time>
      </trkpt>
      <trkpt lat="45.06091" lon="5.41688">
        <ele>407</ele>
        <time>2018-02-06T21:09:32Z</time>
      </trkpt>
      <trkpt lat="45.06095" lon="5.41701">
        <ele>409</ele>
        <time>2018-02-06T21:10:32Z</time>
      </trkpt>
      <trkpt lat="45.06101" lon="5.41723">
        <ele>411</ele>
        <time>2018-02-06T21:11:32Z</time>
      </trkpt>
      <trkpt lat="45.06106" lon="5.41743">
        <ele>413</ele>
        <time>2018-02-06T21:12:32Z</time>
      </trkpt>
      <trkpt lat="45.0611" lon="5.41767">
        <ele>413</ele>
        <time>2018-02-06T21:13:32Z</time>
      </trkpt>
      <trkpt lat="45.06111" lon="5.41788">
        <ele>412</ele>
        <time>2018-02-06T21:14:32Z</time>
      </trkpt>
      <trkpt lat="45.06114" lon="5.41814">
        <ele>410</ele>
        <time>2018-02-06T21:15:32Z</time>
      </trkpt>
      <trkpt lat="45.0612" lon="5.41841">
        <ele>411</ele>
        <time>2018-02-06T21:16:32Z</time>
      </trkpt>
      <trkpt lat="45.06125" lon="5.41859">
        <ele>411</ele>
        <time>2018-02-06T21:17:32Z</time>
      </trkpt>
      <trkpt lat="45.06133" lon="5.41876">
        <ele>413</ele>
        <time>2018-02-06T21:18:32Z</time>
      </trkpt>
      <trkpt lat="45.06146" lon="5.41898">
        <ele>416</ele>
        <time>2018-02-06T21:19:32Z</time>
      </trkpt>
      <trkpt lat="45.06155" lon="5.41914">
        <ele>418</ele>
        <time>2018-02-06T21:20:32Z</time>
      </trkpt>
      <trkpt lat="45.06172" lon="5.41935">
        <ele>427</ele>
        <time>2018-02-06T21:21:32Z</time>
      </trkpt>
      <trkpt lat="45.06186" lon="5.41952">
        <ele>433</ele>
        <time>2018-02-06T21:22:32Z</time>
      </trkpt>
      <trkpt lat="45.06209" lon="5.4198">
        <ele>437</ele>
        <time>2018-02-06T21:23:32Z</time>
      </trkpt>
      <trkpt lat="45.06231" lon="5.42007">
        <ele>433</ele>
        <time>2018-02-06T21:24:32Z</time>
      </trkpt>
      <trkpt lat="45.06249" lon="5.42029">
        <ele>429</ele>
        <time>2018-02-06T21:25:32Z</time>
      </trkpt>
      <trkpt lat="45.06264" lon="5.42048">
        <ele>432</ele>
        <time>2018-02-06T21:26:32Z</time>
      </trkpt>
      <trkpt lat="45.06275" lon="5.42057">
        <ele>435</ele>
        <time>2018-02-06T21:27:32Z</time>
      </trkpt>
      <trkpt lat="45.0629" lon="5.42072">
        <ele>438</ele>
        <time>2018-02-06T21:28:32Z</time>
      </trkpt>
      <trkpt lat="45.06297" lon="5.42081">
        <ele>438</ele>
        <time>2018-02-06T21:29:32Z</time>
      </trkpt>
      <trkpt lat="45.06303" lon="5.42094">
        <ele>439</ele>
        <time>2018-02-06T21:30:32Z</time>
      </trkpt>
      <trkpt lat="45.06307" lon="5.42108">
        <ele>439</ele>
        <time>2018-02-06T21:31:32Z</time>
      </trkpt>
      <trkpt lat="45.06313" lon="5.42137">
        <ele>440</ele>
        <time>2018-02-06T21:32:32Z</time>
      </trkpt>
      <trkpt lat="45.06315" lon="5.42159">
        <ele>439</ele>
        <time>2018-02-06T21:33:32Z</time>
      </trkpt>
      <trkpt lat="45.06319" lon="5.42187">
        <ele>440</ele>
        <time>2018-02-06T21:34:32Z</time>
      </trkpt>
      <trkpt lat="45.06321" lon="5.42205">
        <ele>440</ele>
        <time>2018-02-06T21:35:32Z</time>
      </trkpt>
      <trkpt lat="45.06325" lon="5.42231">
        <ele>441</ele>
        <time>2018-02-06T21:36:32Z</time>
      </trkpt>
      <trkpt lat="45.06326" lon="5.4225">
        <ele>440</ele>
        <time>2018-02-06T21:37:32Z</time>
      </trkpt>
      <trkpt lat="45.0633" lon="5.42282">
        <ele>442</ele>
        <time>2018-02-06T21:38:32Z</time>
      </trkpt>
      <trkpt lat="45.06335" lon="5.4233">
        <ele>446</ele>
        <time>2018-02-06T21:39:32Z</time>
      </trkpt>
      <trkpt lat="45.06339" lon="5.42371">
        <ele>447</ele>
        <time>2018-02-06T21:40:32Z</time>
      </trkpt>
      <trkpt lat="45.06342" lon="5.42406">
        <ele>448</ele>
        <time>2018-02-06T21:41:32Z</time>
      </trkpt>
      <trkpt lat="45.06344" lon="5.42449">
        <ele>449</ele>
        <time>2018-02-06T21:42:32Z</time>
      </trkpt>
      <trkpt lat="45.06349" lon="5.42489">
        <ele>452</ele>
        <time>2018-02-06T21:43:32Z</time>
      </trkpt>
      <trkpt lat="45.06356" lon="5.4252">
        <ele>454</ele>
        <time>2018-02-06T21:44:32Z</time>
      </trkpt>
      <trkpt lat="45.0636" lon="5.42548">
        <ele>454</ele>
        <time>2018-02-06T21:45:32Z</time>
      </trkpt>
      <trkpt lat="45.06364" lon="5.4258">
        <ele>454</ele>
        <time>2018-02-06T21:46:32Z</time>
      </trkpt>
      <trkpt lat="45.06367" lon="5.42603">
        <ele>460</ele>
        <time>2018-02-06T21:47:32Z</time>
      </trkpt>
      <trkpt lat="45.06372" lon="5.42639">
        <ele>470</ele>
        <time>2018-02-06T21:48:32Z</time>
      </trkpt>
      <trkpt lat="45.06375" lon="5.4266">
        <ele>476</ele>
        <time>2018-02-06T21:49:32Z</time>
      </trkpt>
      <trkpt lat="45.06382" lon="5.42674">
        <ele>481</ele>
        <time>2018-02-06T21:50:32Z</time>
      </trkpt>
      <trkpt lat="45.06393" lon="5.42687">
        <ele>488</ele>
        <time>2018-02-06T21:51:32Z</time>
      </trkpt>
      <trkpt lat="45.06407" lon="5.42702">
        <ele>497</ele>
        <time>2018-02-06T21:52:32Z</time>
      </trkpt>
      <trkpt lat="45.06426" lon="5.42717">
        <ele>506</ele>
        <time>2018-02-06T21:53:32Z</time>
      </trkpt>
      <trkpt lat="45.06445" lon="5.42728">
        <ele>512</ele>
        <time>2018-02-06T21:54:32Z</time>
      </trkpt>
      <trkpt lat="45.06462" lon="5.42734">
        <ele>516</ele>
        <time>2018-02-06T21:55:32Z</time>
      </trkpt>
      <trkpt lat="45.06479" lon="5.4274">
        <ele>520</ele>
        <time>2018-02-06T21:56:32Z</time>
      </trkpt>
      <trkpt lat="45.06489" lon="5.42746">
        <ele>521</ele>
        <time>2018-02-06T21:57:32Z</time>
      </trkpt>
      <trkpt lat="45.06498" lon="5.42758">
        <ele>528</ele>
        <time>2018-02-06T21:58:32Z</time>
      </trkpt>
      <trkpt lat="45.0651" lon="5.42781">
        <ele>545</ele>
        <time>2018-02-06T21:59:32Z</time>
      </trkpt>
      <trkpt lat="45.06521" lon="5.42806">
        <ele>559</ele>
        <time>2018-02-06T22:00:32Z</time>
      </trkpt>
      <trkpt lat="45.06527" lon="5.42823">
        <ele>566</ele>
        <time>2018-02-06T22:01:32Z</time>
      </trkpt>
      <trkpt lat="45.06532" lon="5.42847">
        <ele>568</ele>
        <time>2018-02-06T22:02:32Z</time>
      </trkpt>
      <trkpt lat="45.06541" lon="5.42865">
        <ele>565</ele>
        <time>2018-02-06T22:03:32Z</time>
      </trkpt>
      <trkpt lat="45.06551" lon="5.4288">
        <ele>564</ele>
        <time>2018-02-06T22:04:32Z</time>
      </trkpt>
      <trkpt lat="45.06567" lon="5.42897">
        <ele>563</ele>
        <time>2018-02-06T22:05:32Z</time>
      </trkpt>
      <trkpt lat="45.06579" lon="5.42913">
        <ele>564</ele>
        <time>2018-02-06T22:06:32Z</time>
      </trkpt>
      <trkpt lat="45.06592" lon="5.42931">
        <ele>562</ele>
        <time>2018-02-06T22:07:32Z</time>
      </trkpt>
      <trkpt lat="45.06603" lon="5.42943">
        <ele>560</ele>
        <time>2018-02-06T22:08:32Z</time>
      </trkpt>
      <trkpt lat="45.06614" lon="5.42951">
        <ele>559</ele>
        <time>2018-02-06T22:09:32Z</time>
      </trkpt>
      <trkpt lat="45.06626" lon="5.4296">
        <ele>557</ele>
        <time>2018-02-06T22:10:32Z</time>
      </trkpt>
      <trkpt lat="45.06644" lon="5.4298">
        <ele>552</ele>
        <time>2018-02-06T22:11:32Z</time>
      </trkpt>
      <trkpt lat="45.06663" lon="5.42997">
        <ele>547</ele>
        <time>2018-02-06T22:12:32Z</time>
      </trkpt>
      <trkpt lat="45.06677" lon="5.43016">
        <ele>552</ele>
        <time>2018-02-06T22:13:32Z</time>
      </trkpt>
      <trkpt lat="45.06685" lon="5.43031">
        <ele>554</ele>
        <time>2018-02-06T22:14:32Z</time>
      </trkpt>
      <trkpt lat="45.0669" lon="5.43053">
        <ele>553</ele>
        <time>2018-02-06T22:15:32Z</time>
      </trkpt>
      <trkpt lat="45.06695" lon="5.43071">
        <ele>551</ele>
        <time>2018-02-06T22:16:32Z</time>
      </trkpt>
      <trkpt lat="45.06702" lon="5.43081">
        <ele>550</ele>
        <time>2018-02-06T22:17:32Z</time>
      </trkpt>
      <trkpt lat="45.06712" lon="5.4309">
        <ele>549</ele>
        <time>2018-02-06T22:18:32Z</time>
      </trkpt>
      <trkpt lat="45.06726" lon="5.43103">
        <ele>548</ele>
        <time>2018-02-06T22:19:32Z</time>
      </trkpt>
      <trkpt lat="45.0674" lon="5.43122">
        <ele>546</ele>
        <time>2018-02-06T22:20:32Z</time>
      </trkpt>
      <trkpt lat="45.06751" lon="5.43142">
        <ele>545</ele>
        <time>2018-02-06T22:21:32Z</time>
      </trkpt>
      <trkpt lat="45.06762" lon="5.43164">
        <ele>550</ele>
        <time>2018-02-06T22:22:32Z</time>
      </trkpt>
      <trkpt lat="45.06773" lon="5.43187">
        <ele>554</ele>
        <time>2018-02-06T22:23:32Z</time>
      </trkpt>
      <trkpt lat="45.06783" lon="5.43211">
        <ele>554</ele>
        <time>2018-02-06T22:24:32Z</time>
      </trkpt>
      <trkpt lat="45.06792" lon="5.43234">
        <ele>552</ele>
        <time>2018-02-06T22:25:32Z</time>
      </trkpt>
      <trkpt lat="45.068" lon="5.43251">
        <ele>550</ele>
        <time>2018-02-06T22:26:32Z</time>
      </trkpt>
      <trkpt lat="45.06808" lon="5.43272">
        <ele>548</ele>
        <time>2018-02-06T22:27:32Z</time>
      </trkpt>
      <trkpt lat="45.06815" lon="5.43293">
        <ele>545</ele>
        <time>2018-02-06T22:28:32Z</time>
      </trkpt>
      <trkpt lat="45.06822" lon="5.43315">
        <ele>541</ele>
        <time>2018-02-06T22:29:32Z</time>
      </trkpt>
      <trkpt lat="45.06827" lon="5.43332">
        <ele>538</ele>
        <time>2018-02-06T22:30:32Z</time>
      </trkpt>
      <trkpt lat="45.0683" lon="5.43344">
        <ele>538</ele>
        <time>2018-02-06T22:31:32Z</time>
      </trkpt>
      <trkpt lat="45.06831" lon="5.43352">
        <ele>538</ele>
        <time>2018-02-06T22:32:32Z</time>
      </trkpt>
      <trkpt lat="45.06832" lon="5.43363">
        <ele>538</ele>
        <time>2018-02-06T22:33:32Z</time>
      </trkpt>
      <trkpt lat="45.06834" lon="5.43382">
        <ele>539</ele>
        <time>2018-02-06T22:34:32Z</time>
      </trkpt>
      <trkpt lat="45.06834" lon="5.43403">
        <ele>538</ele>
        <time>2018-02-06T22:35:32Z</time>
      </trkpt>
      <trkpt lat="45.06833" lon="5.43424">
        <ele>537</ele>
        <time>2018-02-06T22:36:32Z</time>
      </trkpt>
      <trkpt lat="45.06833" lon="5.43447">
        <ele>536</ele>
        <time>2018-02-06T22:37:32Z</time>
      </trkpt>
      <trkpt lat="45.06834" lon="5.4346">
        <ele>536</ele>
        <time>2018-02-06T22:38:32Z</time>
      </trkpt>
      <trkpt lat="45.06834" lon="5.43471">
        <ele>536</ele>
        <time>2018-02-06T22:39:32Z</time>
      </trkpt>
      <trkpt lat="45.06835" lon="5.43481">
        <ele>536</ele>
        <time>2018-02-06T22:40:32Z</time>
      </trkpt>
      <trkpt lat="45.06837" lon="5.43495">
        <ele>537</ele>
        <time>2018-02-06T22:41:32Z</time>
      </trkpt>
      <trkpt lat="45.06839" lon="5.43508">
        <ele>539</ele>
        <time>2018-02-06T22:42:32Z</time>
      </trkpt>
      <trkpt lat="45.06844" lon="5.43535">
        <ele>544</ele>
        <time>2018-02-06T22:43:32Z</time>
      </trkpt>
      <trkpt lat="45.0685" lon="5.43565">
        <ele>548</ele>
        <time>2018-02-06T22:44:32Z</time>
      </trkpt>
      <trkpt lat="45.06856" lon="5.43584">
        <ele>552</ele>
        <time>2018-02-06T22:45:32Z</time>
      </trkpt>
      <trkpt lat="45.06861" lon="5.43599">
        <ele>553</ele>
        <time>2018-02-06T22:46:32Z</time>
      </trkpt>
      <trkpt lat="45.06867" lon="5.43613">
        <ele>554</ele>
        <time>2018-02-06T22:47:32Z</time>
      </trkpt>
      <trkpt lat="45.06884" lon="5.43652">
        <ele>554</ele>
        <time>2018-02-06T22:48:32Z</time>
      </trkpt>
      <trkpt lat="45.06891" lon="5.43666">
        <ele>555</ele>
        <time>2018-02-06T22:49:32Z</time>
      </trkpt>
      <trkpt lat="45.06894" lon="5.43675">
        <ele>555</ele>
        <time>2018-02-06T22:50:32Z</time>
      </trkpt>
      <trkpt lat="45.06897" lon="5.43685">
        <ele>554</ele>
        <time>2018-02-06T22:51:32Z</time>
      </trkpt>
      <trkpt lat="45.06901" lon="5.43696">
        <ele>555</ele>
        <time>2018-02-06T22:52:32Z</time>
      </trkpt>
      <trkpt lat="45.06906" lon="5.4371">
        <ele>555</ele>
        <time>2018-02-06T22:53:32Z</time>
      </trkpt>
      <trkpt lat="45.06913" lon="5.43727">
        <ele>555</ele>
        <time>2018-02-06T22:54:32Z</time>
      </trkpt>
      <trkpt lat="45.06924" lon="5.43752">
        <ele>557</ele>
        <time>2018-02-06T22:55:32Z</time>
      </trkpt>
      <trkpt lat="45.06934" lon="5.43771">
        <ele>561</ele>
        <time>2018-02-06T22:56:32Z</time>
      </trkpt>
      <trkpt lat="45.06941" lon="5.43784">
        <ele>564</ele>
        <time>2018-02-06T22:57:32Z</time>
      </trkpt>
      <trkpt lat="45.06947" lon="5.43797">
        <ele>565</ele>
        <time>2018-02-06T22:58:32Z</time>
      </trkpt>
      <trkpt lat="45.0695" lon="5.43805">
        <ele>564</ele>
        <time>2018-02-06T22:59:32Z</time>
      </trkpt>
      <trkpt lat="45.06951" lon="5.43807">
        <ele>565</ele>
        <time>2018-02-06T23:00:32Z</time>
      </trkpt>
      <trkpt lat="45.06954" lon="5.43814">
        <ele>564</ele>
        <time>2018-02-06T23:01:32Z</time>
      </trkpt>
      <trkpt lat="45.06956" lon="5.43824">
        <ele>563</ele>
        <time>2018-02-06T23:02:32Z</time>
      </trkpt>
      <trkpt lat="45.06958" lon="5.43839">
        <ele>561</ele>
        <time>2018-02-06T23:03:32Z</time>
      </trkpt>
      <trkpt lat="45.0696" lon="5.43851">
        <ele>560</ele>
        <time>2018-02-06T23:04:32Z</time>
      </trkpt>
      <trkpt lat="45.06962" lon="5.43859">
        <ele>560</ele>
        <time>2018-02-06T23:05:32Z</time>
      </trkpt>
      <trkpt lat="45.06964" lon="5.43865">
        <ele>560</ele>
        <time>2018-02-06T23:06:32Z</time>
      </trkpt>
      <trkpt lat="45.06969" lon="5.43878">
        <ele>560</ele>
        <time>2018-02-06T23:07:32Z</time>
      </trkpt>
      <trkpt lat="45.06976" lon="5.43896">
        <ele>559</ele>
        <time>2018-02-06T23:08:32Z</time>
      </trkpt>
      <trkpt lat="45.06986" lon="5.43917">
        <ele>558</ele>
        <time>2018-02-06T23:09:32Z</time>
      </trkpt>
      <trkpt lat="45.06997" lon="5.43938">
        <ele>560</ele>
        <time>2018-02-06T23:10:32Z</time>
      </trkpt>
      <trkpt lat="45.0701" lon="5.4396">
        <ele>566</ele>
        <time>2018-02-06T23:11:32Z</time>
      </trkpt>
      <trkpt lat="45.07019" lon="5.43975">
        <ele>570</ele>
        <time>2018-02-06T23:12:32Z</time>
      </trkpt>
      <trkpt lat="45.07027" lon="5.43986">
        <ele>572</ele>
        <time>2018-02-06T23:13:32Z</time>
      </trkpt>
      <trkpt lat="45.07038" lon="5.43999">
        <ele>575</ele>
        <time>2018-02-06T23:14:32Z</time>
      </trkpt>
      <trkpt lat="45.07055" lon="5.44018">
        <ele>579</ele>
        <time>2018-02-06T23:15:32Z</time>
      </trkpt>
      <trkpt lat="45.07064" lon="5.4403">
        <ele>580</ele>
        <time>2018-02-06T23:16:32Z</time>
      </trkpt>
      <trkpt lat="45.07073" lon="5.44043">
        <ele>581</ele>
        <time>2018-02-06T23:17:32Z</time>
      </trkpt>
      <trkpt lat="45.07085" lon="5.44062">
        <ele>584</ele>
        <time>2018-02-06T23:18:32Z</time>
      </trkpt>
      <trkpt lat="45.07094" lon="5.44075">
        <ele>600</ele>
        <time>2018-02-06T23:19:32Z</time>
      </trkpt>
      <trkpt lat="45.07096" lon="5.44079">
        <ele>603</ele>
        <time>2018-02-06T23:20:32Z</time>
      </trkpt>
      <trkpt lat="45.07099" lon="5.44088">
        <ele>607</ele>
        <time>2018-02-06T23:21:32Z</time>
      </trkpt>
      <trkpt lat="45.07105" lon="5.44108">
        <ele>613</ele>
        <time>2018-02-06T23:22:32Z</time>
      </trkpt>
      <trkpt lat="45.07109" lon="5.44121">
        <ele>617</ele>
        <time>2018-02-06T23:23:32Z</time>
      </trkpt>
      <trkpt lat="45.07112" lon="5.44133">
        <ele>619</ele>
        <time>2018-02-06T23:24:32Z</time>
      </trkpt>
      <trkpt lat="45.07117" lon="5.44147">
        <ele>625</ele>
        <time>2018-02-06T23:25:32Z</time>
      </trkpt>
      <trkpt lat="45.0712" lon="5.44159">
        <ele>627</ele>
        <time>2018-02-06T23:26:32Z</time>
      </trkpt>
      <trkpt lat="45.07122" lon="5.4417">
        <ele>626</ele>
        <time>2018-02-06T23:27:32Z</time>
      </trkpt>
      <trkpt lat="45.07124" lon="5.44179">
        <ele>623</ele>
        <time>2018-02-06T23:28:32Z</time>
      </trkpt>
      <trkpt lat="45.07126" lon="5.44188">
        <ele>619</ele>
        <time>2018-02-06T23:29:32Z</time>
      </trkpt>
      <trkpt lat="45.07128" lon="5.44197">
        <ele>615</ele>
        <time>2018-02-06T23:30:32Z</time>
      </trkpt>
      <trkpt lat="45.07132" lon="5.44213">
        <ele>609</ele>
        <time>2018-02-06T23:31:32Z</time>
      </trkpt>
      <trkpt lat="45.07134" lon="5.44228">
        <ele>599</ele>
        <time>2018-02-06T23:32:32Z</time>
      </trkpt>
      <trkpt lat="45.07135" lon="5.44249">
        <ele>582</ele>
        <time>2018-02-06T23:33:32Z</time>
      </trkpt>
      <trkpt lat="45.07138" lon="5.44269">
        <ele>582</ele>
        <time>2018-02-06T23:34:32Z</time>
      </trkpt>
      <trkpt lat="45.07139" lon="5.44283">
        <ele>580</ele>
        <time>2018-02-06T23:35:32Z</time>
      </trkpt>
      <trkpt lat="45.0714" lon="5.44292">
        <ele>579</ele>
        <time>2018-02-06T23:36:32Z</time>
      </trkpt>
      <trkpt lat="45.0714" lon="5.44295">
        <ele>579</ele>
        <time>2018-02-06T23:37:32Z</time>
      </trkpt>
      <trkpt lat="45.07142" lon="5.443">
        <ele>580</ele>
        <time>2018-02-06T23:38:32Z</time>
      </trkpt>
      <trkpt lat="45.07144" lon="5.44306">
        <ele>580</ele>
        <time>2018-02-06T23:39:32Z</time>
      </trkpt>
      <trkpt lat="45.07146" lon="5.44309">
        <ele>582</ele>
        <time>2018-02-06T23:40:32Z</time>
      </trkpt>
      <trkpt lat="45.07153" lon="5.44314">
        <ele>587</ele>
        <time>2018-02-06T23:41:32Z</time>
      </trkpt>
      <trkpt lat="45.07156" lon="5.44317">
        <ele>589</ele>
        <time>2018-02-06T23:42:32Z</time>
      </trkpt>
      <trkpt lat="45.07162" lon="5.44326">
        <ele>591</ele>
        <time>2018-02-06T23:43:32Z</time>
      </trkpt>
      <trkpt lat="45.07165" lon="5.44331">
        <ele>592</ele>
        <time>2018-02-06T23:44:32Z</time>
      </trkpt>
      <trkpt lat="45.07167" lon="5.44335">
        <ele>592</ele>
        <time>2018-02-06T23:45:32Z</time>
      </trkpt>
      <trkpt lat="45.07169" lon="5.44342">
        <ele>594</ele>
        <time>2018-02-06T23:46:32Z</time>
      </trkpt>
      <trkpt lat="45.07169" lon="5.44348">
        <ele>593</ele>
        <time>2018-02-06T23:47:32Z</time>
      </trkpt>
      <trkpt lat="45.07169" lon="5.44356">
        <ele>592</ele>
        <time>2018-02-06T23:48:32Z</time>
      </trkpt>
      <trkpt lat="45.07168" lon="5.44366">
        <ele>589</ele>
        <time>2018-02-06T23:49:32Z</time>
      </trkpt>
      <trkpt lat="45.07166" lon="5.44374">
        <ele>585</ele>
        <time>2018-02-06T23:50:32Z</time>
      </trkpt>
      <trkpt lat="45.07166" lon="5.44376">
        <ele>585</ele>
        <time>2018-02-06T23:51:32Z</time>
      </trkpt>
      <trkpt lat="45.07166" lon="5.44379">
        <ele>584</ele>
        <time>2018-02-06T23:52:32Z</time>
      </trkpt>
      <trkpt lat="45.07166" lon="5.44382">
        <ele>584</ele>
        <time>2018-02-06T23:53:32Z</time>
      </trkpt>
      <trkpt lat="45.07166" lon="5.44389">
        <ele>583</ele>
        <time>2018-02-06T23:54:32Z</time>
      </trkpt>
      <trkpt lat="45.07167" lon="5.44401">
        <ele>582</ele>
        <time>2018-02-06T23:55:32Z</time>
      </trkpt>
      <trkpt lat="45.07168" lon="5.44409">
        <ele>581</ele>
        <time>2018-02-06T23:56:32Z</time>
      </trkpt>
      <trkpt lat="45.07171" lon="5.44416">
        <ele>583</ele>
        <time>2018-02-06T23:57:32Z</time>
      </trkpt>
      <trkpt lat="45.07176" lon="5.44424">
        <ele>583</ele>
        <time>2018-02-06T23:58:32Z</time>
      </trkpt>
      <trkpt lat="45.07184" lon="5.44433">
        <ele>585</ele>
        <time>2018-02-06T23:59:32Z</time>
      </trkpt>
      <trkpt lat="45.07193" lon="5.4444">
        <ele>589</ele>
        <time>2018-02-07T00:00:32Z</time>
      </trkpt>
      <trkpt lat="45.07201" lon="5.44446">
        <ele>592</ele>
        <time>2018-02-07T00:01:32Z</time>
      </trkpt>
      <trkpt lat="45.07209" lon="5.44453">
        <ele>595</ele>
        <time>2018-02-07T00:02:32Z</time>
      </trkpt>
      <trkpt lat="45.07218" lon="5.44461">
        <ele>598</ele>
        <time>2018-02-07T00:03:32Z</time>
      </trkpt>
      <trkpt lat="45.07226" lon="5.4447">
        <ele>600</ele>
        <time>2018-02-07T00:04:32Z</time>
      </trkpt>
      <trkpt lat="45.07239" lon="5.44482">
        <ele>604</ele>
        <time>2018-02-07T00:05:32Z</time>
      </trkpt>
      <trkpt lat="45.07242" lon="5.44488">
        <ele>603</ele>
        <time>2018-02-07T00:06:32Z</time>
      </trkpt>
      <trkpt lat="45.07245" lon="5.44496">
        <ele>601</ele>
        <time>2018-02-07T00:07:32Z</time>
      </trkpt>
      <trkpt lat="45.07246" lon="5.44503">
        <ele>599</ele>
        <time>2018-02-07T00:08:32Z</time>
      </trkpt>
      <trkpt lat="45.07247" lon="5.44509">
        <ele>597</ele>
        <time>2018-02-07T00:09:32Z</time>
      </trkpt>
      <trkpt lat="45.07248" lon="5.44524">
        <ele>593</ele>
        <time>2018-02-07T00:10:32Z</time>
      </trkpt>
      <trkpt lat="45.07249" lon="5.44537">
        <ele>590</ele>
        <time>2018-02-07T00:11:32Z</time>
      </trkpt>
      <trkpt lat="45.0725" lon="5.44545">
        <ele>588</ele>
        <time>2018-02-07T00:12:32Z</time>
      </trkpt>
      <trkpt lat="45.07252" lon="5.44551">
        <ele>588</ele>
        <time>2018-02-07T00:13:32Z</time>
      </trkpt>
      <trkpt lat="45.07256" lon="5.44557">
        <ele>592</ele>
        <time>2018-02-07T00:14:32Z</time>
      </trkpt>
      <trkpt lat="45.07261" lon="5.44566">
        <ele>595</ele>
        <time>2018-02-07T00:15:32Z</time>
      </trkpt>
      <trkpt lat="45.07265" lon="5.44575">
        <ele>596</ele>
        <time>2018-02-07T00:16:32Z</time>
      </trkpt>
      <trkpt lat="45.07269" lon="5.44583">
        <ele>598</ele>
        <time>2018-02-07T00:17:32Z</time>
      </trkpt>
      <trkpt lat="45.07272" lon="5.44595">
        <ele>597</ele>
        <time>2018-02-07T00:18:32Z</time>
      </trkpt>
      <trkpt lat="45.07274" lon="5.44601">
        <ele>597</ele>
        <time>2018-02-07T00:19:32Z</time>
      </trkpt>
      <trkpt lat="45.07274" lon="5.44608">
        <ele>594</ele>
        <time>2018-02-07T00:20:32Z</time>
      </trkpt>
      <trkpt lat="45.07275" lon="5.44615">
        <ele>592</ele>
        <time>2018-02-07T00:21:32Z</time>
      </trkpt>
      <trkpt lat="45.07274" lon="5.4463">
        <ele>585</ele>
        <time>2018-02-07T00:22:32Z</time>
      </trkpt>
      <trkpt lat="45.07274" lon="5.44653">
        <ele>575</ele>
        <time>2018-02-07T00:23:32Z</time>
      </trkpt>
      <trkpt lat="45.07275" lon="5.44668">
        <ele>570</ele>
        <time>2018-02-07T00:24:32Z</time>
      </trkpt>
      <trkpt lat="45.07278" lon="5.44678">
        <ele>570</ele>
        <time>2018-02-07T00:25:32Z</time>
      </trkpt>
      <trkpt lat="45.0728" lon="5.44685">
        <ele>570</ele>
        <time>2018-02-07T00:26:32Z</time>
      </trkpt>
      <trkpt lat="45.07284" lon="5.44692">
        <ele>572</ele>
        <time>2018-02-07T00:27:32Z</time>
      </trkpt>
      <trkpt lat="45.07289" lon="5.44697">
        <ele>575</ele>
        <time>2018-02-07T00:28:32Z</time>
      </trkpt>
      <trkpt lat="45.07294" lon="5.44702">
        <ele>578</ele>
        <time>2018-02-07T00:29:32Z</time>
      </trkpt>
      <trkpt lat="45.07302" lon="5.4471">
        <ele>583</ele>
        <time>2018-02-07T00:30:32Z</time>
      </trkpt>
      <trkpt lat="45.07313" lon="5.44718">
        <ele>590</ele>
        <time>2018-02-07T00:31:32Z</time>
      </trkpt>
      <trkpt lat="45.07317" lon="5.44721">
        <ele>592</ele>
        <time>2018-02-07T00:32:32Z</time>
      </trkpt>
      <trkpt lat="45.07327" lon="5.44724">
        <ele>599</ele>
        <time>2018-02-07T00:33:32Z</time>
      </trkpt>
      <trkpt lat="45.07339" lon="5.44727">
        <ele>607</ele>
        <time>2018-02-07T00:34:32Z</time>
      </trkpt>
      <trkpt lat="45.07347" lon="5.44729">
        <ele>613</ele>
        <time>2018-02-07T00:35:32Z</time>
      </trkpt>
      <trkpt lat="45.07353" lon="5.44731">
        <ele>617</ele>
        <time>2018-02-07T00:36:32Z</time>
      </trkpt>
      <trkpt lat="45.07358" lon="5.44733">
        <ele>619</ele>
        <time>2018-02-07T00:37:32Z</time>
      </trkpt>
      <trkpt lat="45.07364" lon="5.44736">
        <ele>622</ele>
        <time>2018-02-07T00:38:32Z</time>
      </trkpt>
      <trkpt lat="45.0737" lon="5.4474">
        <ele>624</ele>
        <time>2018-02-07T00:39:32Z</time>
      </trkpt>
      <trkpt lat="45.07378" lon="5.44746">
        <ele>625</ele>
        <time>2018-02-07T00:40:32Z</time>
      </trkpt>
      <trkpt lat="45.07396" lon="5.44761">
        <ele>623</ele>
        <time>2018-02-07T00:41:32Z</time>
      </trkpt>
      <trkpt lat="45.07409" lon="5.44772">
        <ele>620</ele>
        <time>2018-02-07T00:42:32Z</time>
      </trkpt>
      <trkpt lat="45.07416" lon="5.44777">
        <ele>619</ele>
        <time>2018-02-07T00:43:32Z</time>
      </trkpt>
      <trkpt lat="45.07419" lon="5.44782">
        <ele>617</ele>
        <time>2018-02-07T00:44:32Z</time>
      </trkpt>
      <trkpt lat="45.07422" lon="5.44789">
        <ele>612</ele>
        <time>2018-02-07T00:45:32Z</time>
      </trkpt>
      <trkpt lat="45.07425" lon="5.44796">
        <ele>608</ele>
        <time>2018-02-07T00:46:32Z</time>
      </trkpt>
      <trkpt lat="45.07426" lon="5.44806">
        <ele>599</ele>
        <time>2018-02-07T00:47:32Z</time>
      </trkpt>
      <trkpt lat="45.07429" lon="5.44816">
        <ele>592</ele>
        <time>2018-02-07T00:48:32Z</time>
      </trkpt>
      <trkpt lat="45.07431" lon="5.44826">
        <ele>584</ele>
        <time>2018-02-07T00:49:32Z</time>
      </trkpt>
      <trkpt lat="45.07433" lon="5.44832">
        <ele>580</ele>
        <time>2018-02-07T00:50:32Z</time>
      </trkpt>
      <trkpt lat="45.07435" lon="5.4484">
        <ele>579</ele>
        <time>2018-02-07T00:51:32Z</time>
      </trkpt>
      <trkpt lat="45.07439" lon="5.44846">
        <ele>580</ele>
        <time>2018-02-07T00:52:32Z</time>
      </trkpt>
      <trkpt lat="45.07443" lon="5.4485">
        <ele>582</ele>
        <time>2018-02-07T00:53:32Z</time>
      </trkpt>
      <trkpt lat="45.07448" lon="5.44854">
        <ele>584</ele>
        <time>2018-02-07T00:54:32Z</time>
      </trkpt>
      <trkpt lat="45.07452" lon="5.44857">
        <ele>586</ele>
        <time>2018-02-07T00:55:32Z</time>
      </trkpt>
      <trkpt lat="45.07459" lon="5.44862">
        <ele>589</ele>
        <time>2018-02-07T00:56:32Z</time>
      </trkpt>
      <trkpt lat="45.07467" lon="5.44867">
        <ele>591</ele>
        <time>2018-02-07T00:57:32Z</time>
      </trkpt>
      <trkpt lat="45.0748" lon="5.44876">
        <ele>595</ele>
        <time>2018-02-07T00:58:32Z</time>
      </trkpt>
      <trkpt lat="45.07499" lon="5.44887">
        <ele>598</ele>
        <time>2018-02-07T00:59:32Z</time>
      </trkpt>
      <trkpt lat="45.0752" lon="5.449">
        <ele>604</ele>
        <time>2018-02-07T01:00:32Z</time>
      </trkpt>
      <trkpt lat="45.07532" lon="5.44908">
        <ele>607</ele>
        <time>2018-02-07T01:01:32Z</time>
      </trkpt>
      <trkpt lat="45.0754" lon="5.44914">
        <ele>608</ele>
        <time>2018-02-07T01:02:32Z</time>
      </trkpt>
      <trkpt lat="45.07547" lon="5.44919">
        <ele>609</ele>
        <time>2018-02-07T01:03:32Z</time>
      </trkpt>
      <trkpt lat="45.07553" lon="5.44925">
        <ele>609</ele>
        <time>2018-02-07T01:04:32Z</time>
      </trkpt>
      <trkpt lat="45.07561" lon="5.44933">
        <ele>609</ele>
        <time>2018-02-07T01:05:32Z</time>
      </trkpt>
      <trkpt lat="45.07575" lon="5.44945">
        <ele>611</ele>
        <time>2018-02-07T01:06:32Z</time>
      </trkpt>
      <trkpt lat="45.07587" lon="5.44959">
        <ele>610</ele>
        <time>2018-02-07T01:07:32Z</time>
      </trkpt>
      <trkpt lat="45.07597" lon="5.44968">
        <ele>612</ele>
        <time>2018-02-07T01:08:32Z</time>
      </trkpt>
      <trkpt lat="45.07604" lon="5.44974">
        <ele>613</ele>
        <time>2018-02-07T01:09:32Z</time>
      </trkpt>
      <trkpt lat="45.07621" lon="5.44987">
        <ele>618</ele>
        <time>2018-02-07T01:10:32Z</time>
      </trkpt>
      <trkpt lat="45.07628" lon="5.44992">
        <ele>620</ele>
        <time>2018-02-07T01:11:32Z</time>
      </trkpt>
      <trkpt lat="45.0764" lon="5.45001">
        <ele>623</ele>
        <time>2018-02-07T01:12:32Z</time>
      </trkpt>
      <trkpt lat="45.07651" lon="5.45009">
        <ele>626</ele>
        <time>2018-02-07T01:13:32Z</time>
      </trkpt>
      <trkpt lat="45.07666" lon="5.45019">
        <ele>629</ele>
        <time>2018-02-07T01:14:32Z</time>
      </trkpt>
      <trkpt lat="45.07675" lon="5.45025">
        <ele>633</ele>
        <time>2018-02-07T01:15:32Z</time>
      </trkpt>
      <trkpt lat="45.07682" lon="5.45031">
        <ele>635</ele>
        <time>2018-02-07T01:16:32Z</time>
      </trkpt>
      <trkpt lat="45.07692" lon="5.4504">
        <ele>638</ele>
        <time>2018-02-07T01:17:32Z</time>
      </trkpt>
      <trkpt lat="45.07715" lon="5.45061">
        <ele>648</ele>
        <time>2018-02-07T01:18:32Z</time>
      </trkpt>
      <trkpt lat="45.07736" lon="5.45089">
        <ele>656</ele>
        <time>2018-02-07T01:19:32Z</time>
      </trkpt>
      <trkpt lat="45.07744" lon="5.45095">
        <ele>663</ele>
        <time>2018-02-07T01:20:32Z</time>
      </trkpt>
      <trkpt lat="45.07759" lon="5.45115">
        <ele>669</ele>
        <time>2018-02-07T01:21:32Z</time>
      </trkpt>
      <trkpt lat="45.07772" lon="5.45133">
        <ele>674</ele>
        <time>2018-02-07T01:22:32Z</time>
      </trkpt>
      <trkpt lat="45.07773" lon="5.45134">
        <ele>675</ele>
        <time>2018-02-07T01:23:32Z</time>
      </trkpt>
      <trkpt lat="45.07779" lon="5.45149">
        <ele>675</ele>
        <time>2018-02-07T01:24:32Z</time>
      </trkpt>
      <trkpt lat="45.07785" lon="5.45181">
        <ele>670</ele>
        <time>2018-02-07T01:25:32Z</time>
      </trkpt>
      <trkpt lat="45.07785" lon="5.45194">
        <ele>667</ele>
        <time>2018-02-07T01:26:32Z</time>
      </trkpt>
      <trkpt lat="45.07784" lon="5.45216">
        <ele>659</ele>
        <time>2018-02-07T01:27:32Z</time>
      </trkpt>
      <trkpt lat="45.07783" lon="5.4522">
        <ele>657</ele>
        <time>2018-02-07T01:28:32Z</time>
      </trkpt>
      <trkpt lat="45.07776" lon="5.45265">
        <ele>640</ele>
        <time>2018-02-07T01:29:32Z</time>
      </trkpt>
      <trkpt lat="45.07775" lon="5.45278">
        <ele>637</ele>
        <time>2018-02-07T01:30:32Z</time>
      </trkpt>
      <trkpt lat="45.07774" lon="5.45285">
        <ele>635</ele>
        <time>2018-02-07T01:31:32Z</time>
      </trkpt>
      <trkpt lat="45.07775" lon="5.45297">
        <ele>633</ele>
        <time>2018-02-07T01:32:32Z</time>
      </trkpt>
      <trkpt lat="45.07776" lon="5.45305">
        <ele>633</ele>
        <time>2018-02-07T01:33:32Z</time>
      </trkpt>
      <trkpt lat="45.07779" lon="5.45318">
        <ele>632</ele>
        <time>2018-02-07T01:34:32Z</time>
      </trkpt>
      <trkpt lat="45.07785" lon="5.45333">
        <ele>631</ele>
        <time>2018-02-07T01:35:32Z</time>
      </trkpt>
      <trkpt lat="45.07787" lon="5.45342">
        <ele>633</ele>
        <time>2018-02-07T01:36:32Z</time>
      </trkpt>
      <trkpt lat="45.07792" lon="5.4535">
        <ele>635</ele>
        <time>2018-02-07T01:37:32Z</time>
      </trkpt>
      <trkpt lat="45.07797" lon="5.45357">
        <ele>636</ele>
        <time>2018-02-07T01:38:32Z</time>
      </trkpt>
      <trkpt lat="45.07804" lon="5.45363">
        <ele>637</ele>
        <time>2018-02-07T01:39:32Z</time>
      </trkpt>
      <trkpt lat="45.07809" lon="5.45367">
        <ele>637</ele>
        <time>2018-02-07T01:40:32Z</time>
      </trkpt>
      <trkpt lat="45.07829" lon="5.45384">
        <ele>635</ele>
        <time>2018-02-07T01:41:32Z</time>
      </trkpt>
      <trkpt lat="45.07842" lon="5.45397">
        <ele>635</ele>
        <time>2018-02-07T01:42:32Z</time>
      </trkpt>
      <trkpt lat="45.07853" lon="5.45408">
        <ele>636</ele>
        <time>2018-02-07T01:43:32Z</time>
      </trkpt>
      <trkpt lat="45.07863" lon="5.4542">
        <ele>638</ele>
        <time>2018-02-07T01:44:32Z</time>
      </trkpt>
      <trkpt lat="45.07869" lon="5.45427">
        <ele>640</ele>
        <time>2018-02-07T01:45:32Z</time>
      </trkpt>
      <trkpt lat="45.07877" lon="5.45434">
        <ele>642</ele>
        <time>2018-02-07T01:46:32Z</time>
      </trkpt>
      <trkpt lat="45.07884" lon="5.45438">
        <ele>643</ele>
        <time>2018-02-07T01:47:32Z</time>
      </trkpt>
      <trkpt lat="45.07892" lon="5.45442">
        <ele>644</ele>
        <time>2018-02-07T01:48:32Z</time>
      </trkpt>
      <trkpt lat="45.07901" lon="5.45446">
        <ele>645</ele>
        <time>2018-02-07T01:49:32Z</time>
      </trkpt>
      <trkpt lat="45.07911" lon="5.45452">
        <ele>644</ele>
        <time>2018-02-07T01:50:32Z</time>
      </trkpt>
      <trkpt lat="45.0792" lon="5.45457">
        <ele>643</ele>
        <time>2018-02-07T01:51:32Z</time>
      </trkpt>
      <trkpt lat="45.07929" lon="5.45464">
        <ele>644</ele>
        <time>2018-02-07T01:52:32Z</time>
      </trkpt>
      <trkpt lat="45.0794" lon="5.45475">
        <ele>644</ele>
        <time>2018-02-07T01:53:32Z</time>
      </trkpt>
      <trkpt lat="45.07951" lon="5.45485">
        <ele>643</ele>
        <time>2018-02-07T01:54:32Z</time>
      </trkpt>
      <trkpt lat="45.07968" lon="5.45506">
        <ele>646</ele>
        <time>2018-02-07T01:55:32Z</time>
      </trkpt>
      <trkpt lat="45.08006" lon="5.45545">
        <ele>665</ele>
        <time>2018-02-07T01:56:32Z</time>
      </trkpt>
      <trkpt lat="45.08019" lon="5.45551">
        <ele>669</ele>
        <time>2018-02-07T01:57:32Z</time>
      </trkpt>
      <trkpt lat="45.08027" lon="5.45555">
        <ele>672</ele>
        <time>2018-02-07T01:58:32Z</time>
      </trkpt>
      <trkpt lat="45.08032" lon="5.45558">
        <ele>673</ele>
        <time>2018-02-07T01:59:32Z</time>
      </trkpt>
      <trkpt lat="45.08037" lon="5.45565">
        <ele>673</ele>
        <time>2018-02-07T02:00:32Z</time>
      </trkpt>
      <trkpt lat="45.08042" lon="5.45577">
        <ele>671</ele>
        <time>2018-02-07T02:01:32Z</time>
      </trkpt>
      <trkpt lat="45.08046" lon="5.45587">
        <ele>671</ele>
        <time>2018-02-07T02:02:32Z</time>
      </trkpt>
      <trkpt lat="45.08049" lon="5.45594">
        <ele>673</ele>
        <time>2018-02-07T02:03:32Z</time>
      </trkpt>
      <trkpt lat="45.08058" lon="5.45602">
        <ele>675</ele>
        <time>2018-02-07T02:04:32Z</time>
      </trkpt>
      <trkpt lat="45.08064" lon="5.45606">
        <ele>675</ele>
        <time>2018-02-07T02:05:32Z</time>
      </trkpt>
      <trkpt lat="45.08105" lon="5.45636">
        <ele>681</ele>
        <time>2018-02-07T02:06:32Z</time>
      </trkpt>
      <trkpt lat="45.08116" lon="5.45646">
        <ele>683</ele>
        <time>2018-02-07T02:07:32Z</time>
      </trkpt>
      <trkpt lat="45.08122" lon="5.45653">
        <ele>683</ele>
        <time>2018-02-07T02:08:32Z</time>
      </trkpt>
      <trkpt lat="45.08172" lon="5.45688">
        <ele>676</ele>
        <time>2018-02-07T02:09:32Z</time>
      </trkpt>
      <trkpt lat="45.08183" lon="5.45699">
        <ele>673</ele>
        <time>2018-02-07T02:10:32Z</time>
      </trkpt>
      <trkpt lat="45.08188" lon="5.45708">
        <ele>670</ele>
        <time>2018-02-07T02:11:32Z</time>
      </trkpt>
      <trkpt lat="45.08189" lon="5.45716">
        <ele>666</ele>
        <time>2018-02-07T02:12:32Z</time>
      </trkpt>
      <trkpt lat="45.0819" lon="5.45721">
        <ele>663</ele>
        <time>2018-02-07T02:13:32Z</time>
      </trkpt>
      <trkpt lat="45.0819" lon="5.45728">
        <ele>660</ele>
        <time>2018-02-07T02:14:32Z</time>
      </trkpt>
      <trkpt lat="45.08192" lon="5.45734">
        <ele>657</ele>
        <time>2018-02-07T02:15:32Z</time>
      </trkpt>
      <trkpt lat="45.08196" lon="5.45743">
        <ele>653</ele>
        <time>2018-02-07T02:16:32Z</time>
      </trkpt>
      <trkpt lat="45.08201" lon="5.45749">
        <ele>652</ele>
        <time>2018-02-07T02:17:32Z</time>
      </trkpt>
      <trkpt lat="45.0821" lon="5.45759">
        <ele>661</ele>
        <time>2018-02-07T02:18:32Z</time>
      </trkpt>
      <trkpt lat="45.08219" lon="5.45765">
        <ele>667</ele>
        <time>2018-02-07T02:19:32Z</time>
      </trkpt>
      <trkpt lat="45.08227" lon="5.4577">
        <ele>671</ele>
        <time>2018-02-07T02:20:32Z</time>
      </trkpt>
      <trkpt lat="45.08239" lon="5.45774">
        <ele>674</ele>
        <time>2018-02-07T02:21:32Z</time>
      </trkpt>
      <trkpt lat="45.08248" lon="5.45776">
        <ele>675</ele>
        <time>2018-02-07T02:22:32Z</time>
      </trkpt>
      <trkpt lat="45.08257" lon="5.45777">
        <ele>675</ele>
        <time>2018-02-07T02:23:32Z</time>
      </trkpt>
      <trkpt lat="45.08266" lon="5.45777">
        <ele>675</ele>
        <time>2018-02-07T02:24:32Z</time>
      </trkpt>
      <trkpt lat="45.08275" lon="5.45775">
        <ele>674</ele>
        <time>2018-02-07T02:25:32Z</time>
      </trkpt>
      <trkpt lat="45.08285" lon="5.45771">
        <ele>674</ele>
        <time>2018-02-07T02:26:32Z</time>
      </trkpt>
      <trkpt lat="45.08295" lon="5.45765">
        <ele>675</ele>
        <time>2018-02-07T02:27:32Z</time>
      </trkpt>
      <trkpt lat="45.08301" lon="5.45758">
        <ele>678</ele>
        <time>2018-02-07T02:28:32Z</time>
      </trkpt>
      <trkpt lat="45.08306" lon="5.45754">
        <ele>680</ele>
        <time>2018-02-07T02:29:32Z</time>
      </trkpt>
      <trkpt lat="45.08311" lon="5.45753">
        <ele>682</ele>
        <time>2018-02-07T02:30:32Z</time>
      </trkpt>
      <trkpt lat="45.08314" lon="5.45753">
        <ele>682</ele>
        <time>2018-02-07T02:31:32Z</time>
      </trkpt>
      <trkpt lat="45.08318" lon="5.45755">
        <ele>682</ele>
        <time>2018-02-07T02:32:32Z</time>
      </trkpt>
      <trkpt lat="45.08321" lon="5.45759">
        <ele>681</ele>
        <time>2018-02-07T02:33:32Z</time>
      </trkpt>
      <trkpt lat="45.08324" lon="5.45764">
        <ele>678</ele>
        <time>2018-02-07T02:34:32Z</time>
      </trkpt>
      <trkpt lat="45.08328" lon="5.45775">
        <ele>672</ele>
        <time>2018-02-07T02:35:32Z</time>
      </trkpt>
      <trkpt lat="45.08331" lon="5.45785">
        <ele>665</ele>
        <time>2018-02-07T02:36:32Z</time>
      </trkpt>
      <trkpt lat="45.08336" lon="5.45792">
        <ele>661</ele>
        <time>2018-02-07T02:37:32Z</time>
      </trkpt>
      <trkpt lat="45.08344" lon="5.458">
        <ele>659</ele>
        <time>2018-02-07T02:38:32Z</time>
      </trkpt>
      <trkpt lat="45.08354" lon="5.45808">
        <ele>658</ele>
        <time>2018-02-07T02:39:32Z</time>
      </trkpt>
      <trkpt lat="45.08368" lon="5.45817">
        <ele>659</ele>
        <time>2018-02-07T02:40:32Z</time>
      </trkpt>
      <trkpt lat="45.08376" lon="5.45821">
        <ele>660</ele>
        <time>2018-02-07T02:41:32Z</time>
      </trkpt>
      <trkpt lat="45.08383" lon="5.45826">
        <ele>661</ele>
        <time>2018-02-07T02:42:32Z</time>
      </trkpt>
      <trkpt lat="45.08386" lon="5.45829">
        <ele>660</ele>
        <time>2018-02-07T02:43:32Z</time>
      </trkpt>
      <trkpt lat="45.08394" lon="5.45839">
        <ele>663</ele>
        <time>2018-02-07T02:44:32Z</time>
      </trkpt>
      <trkpt lat="45.08405" lon="5.45854">
        <ele>668</ele>
        <time>2018-02-07T02:45:32Z</time>
      </trkpt>
      <trkpt lat="45.08413" lon="5.45864">
        <ele>670</ele>
        <time>2018-02-07T02:46:32Z</time>
      </trkpt>
      <trkpt lat="45.08419" lon="5.45874">
        <ele>670</ele>
        <time>2018-02-07T02:47:32Z</time>
      </trkpt>
      <trkpt lat="45.08438" lon="5.45898">
        <ele>673</ele>
        <time>2018-02-07T02:48:32Z</time>
      </trkpt>
      <trkpt lat="45.08448" lon="5.45909">
        <ele>675</ele>
        <time>2018-02-07T02:49:32Z</time>
      </trkpt>
      <trkpt lat="45.08463" lon="5.45923">
        <ele>678</ele>
        <time>2018-02-07T02:50:32Z</time>
      </trkpt>
      <trkpt lat="45.08482" lon="5.45945">
        <ele>683</ele>
        <time>2018-02-07T02:51:32Z</time>
      </trkpt>
      <trkpt lat="45.08517" lon="5.45982">
        <ele>681</ele>
        <time>2018-02-07T02:52:32Z</time>
      </trkpt>
      <trkpt lat="45.0853" lon="5.45994">
        <ele>679</ele>
        <time>2018-02-07T02:53:32Z</time>
      </trkpt>
      <trkpt lat="45.08554" lon="5.46012">
        <ele>675</ele>
        <time>2018-02-07T02:54:32Z</time>
      </trkpt>
      <trkpt lat="45.08558" lon="5.46014">
        <ele>674</ele>
        <time>2018-02-07T02:55:32Z</time>
      </trkpt>
      <trkpt lat="45.08559" lon="5.46015">
        <ele>674</ele>
        <time>2018-02-07T02:56:32Z</time>
      </trkpt>
      <trkpt lat="45.08565" lon="5.46018">
        <ele>672</ele>
        <time>2018-02-07T02:57:32Z</time>
      </trkpt>
      <trkpt lat="45.08579" lon="5.46025">
        <ele>665</ele>
        <time>2018-02-07T02:58:32Z</time>
      </trkpt>
      <trkpt lat="45.08595" lon="5.46033">
        <ele>664</ele>
        <time>2018-02-07T02:59:32Z</time>
      </trkpt>
      <trkpt lat="45.08607" lon="5.46039">
        <ele>666</ele>
        <time>2018-02-07T03:00:32Z</time>
      </trkpt>
      <trkpt lat="45.08616" lon="5.46045">
        <ele>667</ele>
        <time>2018-02-07T03:01:32Z</time>
      </trkpt>
      <trkpt lat="45.08625" lon="5.46052">
        <ele>668</ele>
        <time>2018-02-07T03:02:32Z</time>
      </trkpt>
      <trkpt lat="45.08632" lon="5.46059">
        <ele>668</ele>
        <time>2018-02-07T03:03:32Z</time>
      </trkpt>
      <trkpt lat="45.08637" lon="5.46067">
        <ele>668</ele>
        <time>2018-02-07T03:04:32Z</time>
      </trkpt>
      <trkpt lat="45.0864" lon="5.46074">
        <ele>667</ele>
        <time>2018-02-07T03:05:32Z</time>
      </trkpt>
      <trkpt lat="45.08645" lon="5.46083">
        <ele>666</ele>
        <time>2018-02-07T03:06:32Z</time>
      </trkpt>
      <trkpt lat="45.0865" lon="5.46096">
        <ele>667</ele>
        <time>2018-02-07T03:07:32Z</time>
      </trkpt>
      <trkpt lat="45.08654" lon="5.46105">
        <ele>667</ele>
        <time>2018-02-07T03:08:32Z</time>
      </trkpt>
      <trkpt lat="45.08662" lon="5.4612">
        <ele>667</ele>
        <time>2018-02-07T03:09:32Z</time>
      </trkpt>
      <trkpt lat="45.08668" lon="5.4613">
        <ele>667</ele>
        <time>2018-02-07T03:10:32Z</time>
      </trkpt>
      <trkpt lat="45.08672" lon="5.46139">
        <ele>668</ele>
        <time>2018-02-07T03:11:32Z</time>
      </trkpt>
      <trkpt lat="45.08676" lon="5.46149">
        <ele>668</ele>
        <time>2018-02-07T03:12:32Z</time>
      </trkpt>
      <trkpt lat="45.08679" lon="5.46158">
        <ele>668</ele>
        <time>2018-02-07T03:13:32Z</time>
      </trkpt>
      <trkpt lat="45.0868" lon="5.46167">
        <ele>667</ele>
        <time>2018-02-07T03:14:32Z</time>
      </trkpt>
      <trkpt lat="45.08681" lon="5.46175">
        <ele>668</ele>
        <time>2018-02-07T03:15:32Z</time>
      </trkpt>
      <trkpt lat="45.08681" lon="5.46186">
        <ele>669</ele>
        <time>2018-02-07T03:16:32Z</time>
      </trkpt>
      <trkpt lat="45.0868" lon="5.46198">
        <ele>669</ele>
        <time>2018-02-07T03:17:32Z</time>
      </trkpt>
      <trkpt lat="45.08679" lon="5.46222">
        <ele>669</ele>
        <time>2018-02-07T03:18:32Z</time>
      </trkpt>
      <trkpt lat="45.08679" lon="5.46239">
        <ele>670</ele>
        <time>2018-02-07T03:19:32Z</time>
      </trkpt>
      <trkpt lat="45.08679" lon="5.4625">
        <ele>671</ele>
        <time>2018-02-07T03:20:32Z</time>
      </trkpt>
      <trkpt lat="45.08683" lon="5.46271">
        <ele>674</ele>
        <time>2018-02-07T03:21:32Z</time>
      </trkpt>
      <trkpt lat="45.0869" lon="5.46295">
        <ele>679</ele>
        <time>2018-02-07T03:22:32Z</time>
      </trkpt>
      <trkpt lat="45.08698" lon="5.46319">
        <ele>683</ele>
        <time>2018-02-07T03:23:32Z</time>
      </trkpt>
      <trkpt lat="45.08707" lon="5.46341">
        <ele>686</ele>
        <time>2018-02-07T03:24:32Z</time>
      </trkpt>
      <trkpt lat="45.08712" lon="5.46354">
        <ele>688</ele>
        <time>2018-02-07T03:25:32Z</time>
      </trkpt>
      <trkpt lat="45.08716" lon="5.46364">
        <ele>688</ele>
        <time>2018-02-07T03:26:32Z</time>
      </trkpt>
      <trkpt lat="45.08719" lon="5.46375">
        <ele>688</ele>
        <time>2018-02-07T03:27:32Z</time>
      </trkpt>
      <trkpt lat="45.08721" lon="5.46384">
        <ele>688</ele>
        <time>2018-02-07T03:28:32Z</time>
      </trkpt>
      <trkpt lat="45.08721" lon="5.46385">
        <ele>688</ele>
        <time>2018-02-07T03:29:32Z</time>
      </trkpt>
      <trkpt lat="45.08724" lon="5.46401">
        <ele>687</ele>
        <time>2018-02-07T03:30:32Z</time>
      </trkpt>
      <trkpt lat="45.08726" lon="5.46418">
        <ele>686</ele>
        <time>2018-02-07T03:31:32Z</time>
      </trkpt>
      <trkpt lat="45.08729" lon="5.4643">
        <ele>685</ele>
        <time>2018-02-07T03:32:32Z</time>
      </trkpt>
      <trkpt lat="45.08731" lon="5.46442">
        <ele>683</ele>
        <time>2018-02-07T03:33:32Z</time>
      </trkpt>
      <trkpt lat="45.08733" lon="5.46453">
        <ele>681</ele>
        <time>2018-02-07T03:34:32Z</time>
      </trkpt>
      <trkpt lat="45.08734" lon="5.46463">
        <ele>680</ele>
        <time>2018-02-07T03:35:32Z</time>
      </trkpt>
      <trkpt lat="45.08734" lon="5.46475">
        <ele>678</ele>
        <time>2018-02-07T03:36:32Z</time>
      </trkpt>
      <trkpt lat="45.08734" lon="5.46481">
        <ele>677</ele>
        <time>2018-02-07T03:37:32Z</time>
      </trkpt>
      <trkpt lat="45.08734" lon="5.46491">
        <ele>675</ele>
        <time>2018-02-07T03:38:32Z</time>
      </trkpt>
      <trkpt lat="45.08732" lon="5.46508">
        <ele>673</ele>
        <time>2018-02-07T03:39:32Z</time>
      </trkpt>
      <trkpt lat="45.0873" lon="5.46528">
        <ele>673</ele>
        <time>2018-02-07T03:40:32Z</time>
      </trkpt>
      <trkpt lat="45.0873" lon="5.46543">
        <ele>673</ele>
        <time>2018-02-07T03:41:32Z</time>
      </trkpt>
      <trkpt lat="45.08731" lon="5.46557">
        <ele>673</ele>
        <time>2018-02-07T03:42:32Z</time>
      </trkpt>
      <trkpt lat="45.08733" lon="5.4657">
        <ele>672</ele>
        <time>2018-02-07T03:43:32Z</time>
      </trkpt>
      <trkpt lat="45.08736" lon="5.4658">
        <ele>672</ele>
        <time>2018-02-07T03:44:32Z</time>
      </trkpt>
      <trkpt lat="45.08742" lon="5.46598">
        <ele>670</ele>
        <time>2018-02-07T03:45:32Z</time>
      </trkpt>
      <trkpt lat="45.08749" lon="5.46612">
        <ele>666</ele>
        <time>2018-02-07T03:46:32Z</time>
      </trkpt>
      <trkpt lat="45.08756" lon="5.46625">
        <ele>666</ele>
        <time>2018-02-07T03:47:32Z</time>
      </trkpt>
      <trkpt lat="45.08762" lon="5.46635">
        <ele>665</ele>
        <time>2018-02-07T03:48:32Z</time>
      </trkpt>
      <trkpt lat="45.08767" lon="5.46645">
        <ele>664</ele>
        <time>2018-02-07T03:49:32Z</time>
      </trkpt>
      <trkpt lat="45.08771" lon="5.46653">
        <ele>663</ele>
        <time>2018-02-07T03:50:32Z</time>
      </trkpt>
      <trkpt lat="45.08774" lon="5.46663">
        <ele>661</ele>
        <time>2018-02-07T03:51:32Z</time>
      </trkpt>
      <trkpt lat="45.08784" lon="5.46691">
        <ele>660</ele>
        <time>2018-02-07T03:52:32Z</time>
      </trkpt>
      <trkpt lat="45.08789" lon="5.46701">
        <ele>661</ele>
        <time>2018-02-07T03:53:32Z</time>
      </trkpt>
      <trkpt lat="45.08796" lon="5.46725">
        <ele>661</ele>
        <time>2018-02-07T03:54:32Z</time>
      </trkpt>
      <trkpt lat="45.08807" lon="5.46756">
        <ele>662</ele>
        <time>2018-02-07T03:55:32Z</time>
      </trkpt>
      <trkpt lat="45.08808" lon="5.46759">
        <ele>662</ele>
        <time>2018-02-07T03:56:32Z</time>
      </trkpt>
      <trkpt lat="45.08808" lon="5.46759">
        <ele>662</ele>
        <time>2018-02-07T03:57:32Z</time>
      </trkpt>
      <trkpt lat="45.08815" lon="5.46777">
        <ele>662</ele>
        <time>2018-02-07T03:58:32Z</time>
      </trkpt>
      <trkpt lat="45.08821" lon="5.46795">
        <ele>663</ele>
        <time>2018-02-07T03:59:32Z</time>
      </trkpt>
      <trkpt lat="45.08824" lon="5.46802">
        <ele>663</ele>
        <time>2018-02-07T04:00:32Z</time>
      </trkpt>
      <trkpt lat="45.08831" lon="5.46819">
        <ele>663</ele>
        <time>2018-02-07T04:01:32Z</time>
      </trkpt>
      <trkpt lat="45.08834" lon="5.46826">
        <ele>663</ele>
        <time>2018-02-07T04:02:32Z</time>
      </trkpt>
      <trkpt lat="45.0884" lon="5.46834">
        <ele>665</ele>
        <time>2018-02-07T04:03:32Z</time>
      </trkpt>
      <trkpt lat="45.08846" lon="5.46841">
        <ele>666</ele>
        <time>2018-02-07T04:04:32Z</time>
      </trkpt>
      <trkpt lat="45.08851" lon="5.46847">
        <ele>666</ele>
        <time>2018-02-07T04:05:32Z</time>
      </trkpt>
      <trkpt lat="45.08856" lon="5.4685">
        <ele>667</ele>
        <time>2018-02-07T04:06:32Z</time>
      </trkpt>
      <trkpt lat="45.08862" lon="5.46852">
        <ele>668</ele>
        <time>2018-02-07T04:07:32Z</time>
      </trkpt>
      <trkpt lat="45.08863" lon="5.46852">
        <ele>668</ele>
        <time>2018-02-07T04:08:32Z</time>
      </trkpt>
      <trkpt lat="45.08864" lon="5.46853">
        <ele>668</ele>
        <time>2018-02-07T04:09:32Z</time>
      </trkpt>
      <trkpt lat="45.08881" lon="5.46861">
        <ele>670</ele>
        <time>2018-02-07T04:10:32Z</time>
      </trkpt>
      <trkpt lat="45.08908" lon="5.46877">
        <ele>670</ele>
        <time>2018-02-07T04:11:32Z</time>
      </trkpt>
      <trkpt lat="45.0892" lon="5.46885">
        <ele>669</ele>
        <time>2018-02-07T04:12:32Z</time>
      </trkpt>
      <trkpt lat="45.08928" lon="5.46893">
        <ele>668</ele>
        <time>2018-02-07T04:13:32Z</time>
      </trkpt>
      <trkpt lat="45.08939" lon="5.46903">
        <ele>668</ele>
        <time>2018-02-07T04:14:32Z</time>
      </trkpt>
      <trkpt lat="45.08949" lon="5.46915">
        <ele>667</ele>
        <time>2018-02-07T04:15:32Z</time>
      </trkpt>
      <trkpt lat="45.08958" lon="5.46927">
        <ele>667</ele>
        <time>2018-02-07T04:16:32Z</time>
      </trkpt>
      <trkpt lat="45.08963" lon="5.46937">
        <ele>667</ele>
        <time>2018-02-07T04:17:32Z</time>
      </trkpt>
      <trkpt lat="45.08968" lon="5.46947">
        <ele>666</ele>
        <time>2018-02-07T04:18:32Z</time>
      </trkpt>
      <trkpt lat="45.08971" lon="5.46957">
        <ele>665</ele>
        <time>2018-02-07T04:19:32Z</time>
      </trkpt>
      <trkpt lat="45.08974" lon="5.46967">
        <ele>664</ele>
        <time>2018-02-07T04:20:32Z</time>
      </trkpt>
      <trkpt lat="45.08975" lon="5.46975">
        <ele>662</ele>
        <time>2018-02-07T04:21:32Z</time>
      </trkpt>
      <trkpt lat="45.08976" lon="5.46983">
        <ele>661</ele>
        <time>2018-02-07T04:22:32Z</time>
      </trkpt>
      <trkpt lat="45.08977" lon="5.46993">
        <ele>659</ele>
        <time>2018-02-07T04:23:32Z</time>
      </trkpt>
      <trkpt lat="45.08978" lon="5.47001">
        <ele>657</ele>
        <time>2018-02-07T04:24:32Z</time>
      </trkpt>
      <trkpt lat="45.08978" lon="5.4701">
        <ele>658</ele>
        <time>2018-02-07T04:25:32Z</time>
      </trkpt>
      <trkpt lat="45.08978" lon="5.47018">
        <ele>659</ele>
        <time>2018-02-07T04:26:32Z</time>
      </trkpt>
      <trkpt lat="45.08977" lon="5.47027">
        <ele>659</ele>
        <time>2018-02-07T04:27:32Z</time>
      </trkpt>
      <trkpt lat="45.08976" lon="5.47034">
        <ele>660</ele>
        <time>2018-02-07T04:28:32Z</time>
      </trkpt>
      <trkpt lat="45.08975" lon="5.4704">
        <ele>660</ele>
        <time>2018-02-07T04:29:32Z</time>
      </trkpt>
      <trkpt lat="45.08972" lon="5.47051">
        <ele>661</ele>
        <time>2018-02-07T04:30:32Z</time>
      </trkpt>
      <trkpt lat="45.08968" lon="5.47062">
        <ele>661</ele>
        <time>2018-02-07T04:31:32Z</time>
      </trkpt>
      <trkpt lat="45.08964" lon="5.47072">
        <ele>661</ele>
        <time>2018-02-07T04:32:32Z</time>
      </trkpt>
      <trkpt lat="45.08957" lon="5.47084">
        <ele>661</ele>
        <time>2018-02-07T04:33:32Z</time>
      </trkpt>
      <trkpt lat="45.08952" lon="5.47093">
        <ele>662</ele>
        <time>2018-02-07T04:34:32Z</time>
      </trkpt>
      <trkpt lat="45.08952" lon="5.47093">
        <ele>662</ele>
        <time>2018-02-07T04:35:32Z</time>
      </trkpt>
      <trkpt lat="45.08972" lon="5.47099">
        <ele>666</ele>
        <time>2018-02-07T04:36:32Z</time>
      </trkpt>
      <trkpt lat="45.08979" lon="5.471">
        <ele>667</ele>
        <time>2018-02-07T04:37:32Z</time>
      </trkpt>
      <trkpt lat="45.08987" lon="5.471">
        <ele>668</ele>
        <time>2018-02-07T04:38:32Z</time>
      </trkpt>
      <trkpt lat="45.08992" lon="5.47098">
        <ele>668</ele>
        <time>2018-02-07T04:39:32Z</time>
      </trkpt>
      <trkpt lat="45.08996" lon="5.47094">
        <ele>668</ele>
        <time>2018-02-07T04:40:32Z</time>
      </trkpt>
      <trkpt lat="45.08999" lon="5.47088">
        <ele>668</ele>
        <time>2018-02-07T04:41:32Z</time>
      </trkpt>
      <trkpt lat="45.09002" lon="5.47081">
        <ele>667</ele>
        <time>2018-02-07T04:42:32Z</time>
      </trkpt>
      <trkpt lat="45.09003" lon="5.47073">
        <ele>666</ele>
        <time>2018-02-07T04:43:32Z</time>
      </trkpt>
      <trkpt lat="45.09006" lon="5.47041">
        <ele>663</ele>
        <time>2018-02-07T04:44:32Z</time>
      </trkpt>
      <trkpt lat="45.09006" lon="5.47029">
        <ele>662</ele>
        <time>2018-02-07T04:45:32Z</time>
      </trkpt>
      <trkpt lat="45.09006" lon="5.47015">
        <ele>661</ele>
        <time>2018-02-07T04:46:32Z</time>
      </trkpt>
      <trkpt lat="45.09005" lon="5.47001">
        <ele>659</ele>
        <time>2018-02-07T04:47:32Z</time>
      </trkpt>
      <trkpt lat="45.09004" lon="5.46987">
        <ele>663</ele>
        <time>2018-02-07T04:48:32Z</time>
      </trkpt>
      <trkpt lat="45.09002" lon="5.46972">
        <ele>667</ele>
        <time>2018-02-07T04:49:32Z</time>
      </trkpt>
      <trkpt lat="45.09" lon="5.46957">
        <ele>671</ele>
        <time>2018-02-07T04:50:32Z</time>
      </trkpt>
      <trkpt lat="45.08999" lon="5.46947">
        <ele>673</ele>
        <time>2018-02-07T04:51:32Z</time>
      </trkpt>
      <trkpt lat="45.08999" lon="5.46938">
        <ele>676</ele>
        <time>2018-02-07T04:52:32Z</time>
      </trkpt>
      <trkpt lat="45.08999" lon="5.46928">
        <ele>679</ele>
        <time>2018-02-07T04:53:32Z</time>
      </trkpt>
      <trkpt lat="45.09" lon="5.46917">
        <ele>682</ele>
        <time>2018-02-07T04:54:32Z</time>
      </trkpt>
      <trkpt lat="45.09009" lon="5.46919">
        <ele>683</ele>
        <time>2018-02-07T04:55:32Z</time>
      </trkpt>
      <trkpt lat="45.09083" lon="5.46941">
        <ele>690</ele>
        <time>2018-02-07T04:56:32Z</time>
      </trkpt>
      <trkpt lat="45.0913" lon="5.46958">
        <ele>694</ele>
        <time>2018-02-07T04:57:32Z</time>
      </trkpt>
      <trkpt lat="45.09167" lon="5.46977">
        <ele>693</ele>
        <time>2018-02-07T04:58:32Z</time>
      </trkpt>
      <trkpt lat="45.092" lon="5.46991">
        <ele>691</ele>
        <time>2018-02-07T04:59:32Z</time>
      </trkpt>
      <trkpt lat="45.09205" lon="5.46993">
        <ele>691</ele>
        <time>2018-02-07T05:00:32Z</time>
      </trkpt>
      <trkpt lat="45.09211" lon="5.46994">
        <ele>692</ele>
        <time>2018-02-07T05:01:32Z</time>
      </trkpt>
      <trkpt lat="45.09227" lon="5.46996">
        <ele>694</ele>
        <time>2018-02-07T05:02:32Z</time>
      </trkpt>
      <trkpt lat="45.09242" lon="5.46996">
        <ele>696</ele>
        <time>2018-02-07T05:03:32Z</time>
      </trkpt>
      <trkpt lat="45.09253" lon="5.46997">
        <ele>698</ele>
        <time>2018-02-07T05:04:32Z</time>
      </trkpt>
      <trkpt lat="45.0926" lon="5.46998">
        <ele>699</ele>
        <time>2018-02-07T05:05:32Z</time>
      </trkpt>
      <trkpt lat="45.09264" lon="5.47">
        <ele>699</ele>
        <time>2018-02-07T05:06:32Z</time>
      </trkpt>
      <trkpt lat="45.09268" lon="5.47002">
        <ele>700</ele>
        <time>2018-02-07T05:07:32Z</time>
      </trkpt>
      <trkpt lat="45.09272" lon="5.47005">
        <ele>700</ele>
        <time>2018-02-07T05:08:32Z</time>
      </trkpt>
      <trkpt lat="45.09297" lon="5.47031">
        <ele>703</ele>
        <time>2018-02-07T05:09:32Z</time>
      </trkpt>
      <trkpt lat="45.09311" lon="5.47046">
        <ele>704</ele>
        <time>2018-02-07T05:10:32Z</time>
      </trkpt>
      <trkpt lat="45.09317" lon="5.47055">
        <ele>704</ele>
        <time>2018-02-07T05:11:32Z</time>
      </trkpt>
      <trkpt lat="45.09323" lon="5.47064">
        <ele>704</ele>
        <time>2018-02-07T05:12:32Z</time>
      </trkpt>
      <trkpt lat="45.0933" lon="5.47077">
        <ele>703</ele>
        <time>2018-02-07T05:13:32Z</time>
      </trkpt>
      <trkpt lat="45.09336" lon="5.47091">
        <ele>704</ele>
        <time>2018-02-07T05:14:32Z</time>
      </trkpt>
      <trkpt lat="45.09342" lon="5.47107">
        <ele>705</ele>
        <time>2018-02-07T05:15:32Z</time>
      </trkpt>
      <trkpt lat="45.09345" lon="5.47116">
        <ele>706</ele>
        <time>2018-02-07T05:16:32Z</time>
      </trkpt>
      <trkpt lat="45.09348" lon="5.47131">
        <ele>706</ele>
        <time>2018-02-07T05:17:32Z</time>
      </trkpt>
      <trkpt lat="45.09352" lon="5.47152">
        <ele>707</ele>
        <time>2018-02-07T05:18:32Z</time>
      </trkpt>
      <trkpt lat="45.09354" lon="5.47161">
        <ele>707</ele>
        <time>2018-02-07T05:19:32Z</time>
      </trkpt>
      <trkpt lat="45.09356" lon="5.47166">
        <ele>707</ele>
        <time>2018-02-07T05:20:32Z</time>
      </trkpt>
      <trkpt lat="45.09358" lon="5.4717">
        <ele>708</ele>
        <time>2018-02-07T05:21:32Z</time>
      </trkpt>
      <trkpt lat="45.09361" lon="5.47174">
        <ele>710</ele>
        <time>2018-02-07T05:22:32Z</time>
      </trkpt>
      <trkpt lat="45.09364" lon="5.47176">
        <ele>711</ele>
        <time>2018-02-07T05:23:32Z</time>
      </trkpt>
      <trkpt lat="45.09367" lon="5.47178">
        <ele>712</ele>
        <time>2018-02-07T05:24:32Z</time>
      </trkpt>
      <trkpt lat="45.09371" lon="5.47179">
        <ele>712</ele>
        <time>2018-02-07T05:25:32Z</time>
      </trkpt>
      <trkpt lat="45.09377" lon="5.47179">
        <ele>713</ele>
        <time>2018-02-07T05:26:32Z</time>
      </trkpt>
      <trkpt lat="45.0938" lon="5.47178">
        <ele>713</ele>
        <time>2018-02-07T05:27:32Z</time>
      </trkpt>
      <trkpt lat="45.09384" lon="5.47176">
        <ele>713</ele>
        <time>2018-02-07T05:28:32Z</time>
      </trkpt>
      <trkpt lat="45.09386" lon="5.47174">
        <ele>713</ele>
        <time>2018-02-07T05:29:32Z</time>
      </trkpt>
      <trkpt lat="45.09389" lon="5.47171">
        <ele>713</ele>
        <time>2018-02-07T05:30:32Z</time>
      </trkpt>
      <trkpt lat="45.09393" lon="5.47165">
        <ele>713</ele>
        <time>2018-02-07T05:31:32Z</time>
      </trkpt>
      <trkpt lat="45.09396" lon="5.47161">
        <ele>713</ele>
        <time>2018-02-07T05:32:32Z</time>
      </trkpt>
      <trkpt lat="45.09398" lon="5.47154">
        <ele>714</ele>
        <time>2018-02-07T05:33:32Z</time>
      </trkpt>
      <trkpt lat="45.094" lon="5.47144">
        <ele>715</ele>
        <time>2018-02-07T05:34:32Z</time>
      </trkpt>
      <trkpt lat="45.094" lon="5.47123">
        <ele>716</ele>
        <time>2018-02-07T05:35:32Z</time>
      </trkpt>
      <trkpt lat="45.094" lon="5.47107">
        <ele>716</ele>
        <time>2018-02-07T05:36:32Z</time>
      </trkpt>
      <trkpt lat="45.09398" lon="5.47092">
        <ele>717</ele>
        <time>2018-02-07T05:37:32Z</time>
      </trkpt>
      <trkpt lat="45.09396" lon="5.4708">
        <ele>717</ele>
        <time>2018-02-07T05:38:32Z</time>
      </trkpt>
      <trkpt lat="45.09394" lon="5.47071">
        <ele>717</ele>
        <time>2018-02-07T05:39:32Z</time>
      </trkpt>
      <trkpt lat="45.09389" lon="5.47059">
        <ele>718</ele>
        <time>2018-02-07T05:40:32Z</time>
      </trkpt>
      <trkpt lat="45.0938" lon="5.47042">
        <ele>717</ele>
        <time>2018-02-07T05:41:32Z</time>
      </trkpt>
      <trkpt lat="45.09375" lon="5.47033">
        <ele>717</ele>
        <time>2018-02-07T05:42:32Z</time>
      </trkpt>
      <trkpt lat="45.09372" lon="5.47026">
        <ele>718</ele>
        <time>2018-02-07T05:43:32Z</time>
      </trkpt>
      <trkpt lat="45.09367" lon="5.47013">
        <ele>718</ele>
        <time>2018-02-07T05:44:32Z</time>
      </trkpt>
      <trkpt lat="45.09357" lon="5.46973">
        <ele>721</ele>
        <time>2018-02-07T05:45:32Z</time>
      </trkpt>
      <trkpt lat="45.09351" lon="5.46953">
        <ele>723</ele>
        <time>2018-02-07T05:46:32Z</time>
      </trkpt>
      <trkpt lat="45.09347" lon="5.46942">
        <ele>724</ele>
        <time>2018-02-07T05:47:32Z</time>
      </trkpt>
      <trkpt lat="45.09343" lon="5.46934">
        <ele>724</ele>
        <time>2018-02-07T05:48:32Z</time>
      </trkpt>
      <trkpt lat="45.09338" lon="5.46927">
        <ele>724</ele>
        <time>2018-02-07T05:49:32Z</time>
      </trkpt>
      <trkpt lat="45.0933" lon="5.4692">
        <ele>724</ele>
        <time>2018-02-07T05:50:32Z</time>
      </trkpt>
      <trkpt lat="45.09324" lon="5.46914">
        <ele>725</ele>
        <time>2018-02-07T05:51:32Z</time>
      </trkpt>
      <trkpt lat="45.09321" lon="5.4691">
        <ele>725</ele>
        <time>2018-02-07T05:52:32Z</time>
      </trkpt>
      <trkpt lat="45.09319" lon="5.46906">
        <ele>726</ele>
        <time>2018-02-07T05:53:32Z</time>
      </trkpt>
      <trkpt lat="45.09317" lon="5.46902">
        <ele>726</ele>
        <time>2018-02-07T05:54:32Z</time>
      </trkpt>
      <trkpt lat="45.09317" lon="5.46897">
        <ele>726</ele>
        <time>2018-02-07T05:55:32Z</time>
      </trkpt>
      <trkpt lat="45.09317" lon="5.46893">
        <ele>726</ele>
        <time>2018-02-07T05:56:32Z</time>
      </trkpt>
      <trkpt lat="45.09318" lon="5.46889">
        <ele>727</ele>
        <time>2018-02-07T05:57:32Z</time>
      </trkpt>
      <trkpt lat="45.09319" lon="5.46884">
        <ele>727</ele>
        <time>2018-02-07T05:58:32Z</time>
      </trkpt>
      <trkpt lat="45.09322" lon="5.4688">
        <ele>727</ele>
        <time>2018-02-07T05:59:32Z</time>
      </trkpt>
      <trkpt lat="45.09325" lon="5.46877">
        <ele>728</ele>
        <time>2018-02-07T06:00:32Z</time>
      </trkpt>
      <trkpt lat="45.09328" lon="5.46875">
        <ele>728</ele>
        <time>2018-02-07T06:01:32Z</time>
      </trkpt>
      <trkpt lat="45.09333" lon="5.46873">
        <ele>728</ele>
        <time>2018-02-07T06:02:32Z</time>
      </trkpt>
      <trkpt lat="45.0934" lon="5.46871">
        <ele>729</ele>
        <time>2018-02-07T06:03:32Z</time>
      </trkpt>
      <trkpt lat="45.09348" lon="5.46871">
        <ele>729</ele>
        <time>2018-02-07T06:04:32Z</time>
      </trkpt>
      <trkpt lat="45.09354" lon="5.46871">
        <ele>729</ele>
        <time>2018-02-07T06:05:32Z</time>
      </trkpt>
      <trkpt lat="45.09359" lon="5.46873">
        <ele>729</ele>
        <time>2018-02-07T06:06:32Z</time>
      </trkpt>
      <trkpt lat="45.09365" lon="5.46875">
        <ele>730</ele>
        <time>2018-02-07T06:07:32Z</time>
      </trkpt>
      <trkpt lat="45.09369" lon="5.46876">
        <ele>730</ele>
        <time>2018-02-07T06:08:32Z</time>
      </trkpt>
      <trkpt lat="45.09375" lon="5.4688">
        <ele>730</ele>
        <time>2018-02-07T06:09:32Z</time>
      </trkpt>
      <trkpt lat="45.09382" lon="5.46887">
        <ele>731</ele>
        <time>2018-02-07T06:10:32Z</time>
      </trkpt>
      <trkpt lat="45.09413" lon="5.46912">
        <ele>737</ele>
        <time>2018-02-07T06:11:32Z</time>
      </trkpt>
      <trkpt lat="45.09439" lon="5.4693">
        <ele>738</ele>
        <time>2018-02-07T06:12:32Z</time>
      </trkpt>
      <trkpt lat="45.09446" lon="5.46935">
        <ele>739</ele>
        <time>2018-02-07T06:13:32Z</time>
      </trkpt>
      <trkpt lat="45.0945" lon="5.46937">
        <ele>739</ele>
        <time>2018-02-07T06:14:32Z</time>
      </trkpt>
      <trkpt lat="45.09456" lon="5.4694">
        <ele>739</ele>
        <time>2018-02-07T06:15:32Z</time>
      </trkpt>
      <trkpt lat="45.09477" lon="5.46946">
        <ele>742</ele>
        <time>2018-02-07T06:16:32Z</time>
      </trkpt>
      <trkpt lat="45.09494" lon="5.46951">
        <ele>744</ele>
        <time>2018-02-07T06:17:32Z</time>
      </trkpt>
      <trkpt lat="45.09515" lon="5.46958">
        <ele>746</ele>
        <time>2018-02-07T06:18:32Z</time>
      </trkpt>
      <trkpt lat="45.09537" lon="5.46965">
        <ele>748</ele>
        <time>2018-02-07T06:19:32Z</time>
      </trkpt>
      <trkpt lat="45.09549" lon="5.46969">
        <ele>749</ele>
        <time>2018-02-07T06:20:32Z</time>
      </trkpt>
      <trkpt lat="45.09557" lon="5.46972">
        <ele>750</ele>
        <time>2018-02-07T06:21:32Z</time>
      </trkpt>
      <trkpt lat="45.09561" lon="5.46975">
        <ele>750</ele>
        <time>2018-02-07T06:22:32Z</time>
      </trkpt>
      <trkpt lat="45.09564" lon="5.46977">
        <ele>751</ele>
        <time>2018-02-07T06:23:32Z</time>
      </trkpt>
      <trkpt lat="45.09572" lon="5.46982">
        <ele>752</ele>
        <time>2018-02-07T06:24:32Z</time>
      </trkpt>
      <trkpt lat="45.09585" lon="5.46991">
        <ele>754</ele>
        <time>2018-02-07T06:25:32Z</time>
      </trkpt>
      <trkpt lat="45.09606" lon="5.47008">
        <ele>756</ele>
        <time>2018-02-07T06:26:32Z</time>
      </trkpt>
      <trkpt lat="45.09617" lon="5.47017">
        <ele>757</ele>
        <time>2018-02-07T06:27:32Z</time>
      </trkpt>
      <trkpt lat="45.0962" lon="5.4702">
        <ele>757</ele>
        <time>2018-02-07T06:28:32Z</time>
      </trkpt>
      <trkpt lat="45.09627" lon="5.47027">
        <ele>758</ele>
        <time>2018-02-07T06:29:32Z</time>
      </trkpt>
      <trkpt lat="45.09634" lon="5.47036">
        <ele>758</ele>
        <time>2018-02-07T06:30:32Z</time>
      </trkpt>
      <trkpt lat="45.09638" lon="5.4704">
        <ele>759</ele>
        <time>2018-02-07T06:31:32Z</time>
      </trkpt>
      <trkpt lat="45.09642" lon="5.47047">
        <ele>759</ele>
        <time>2018-02-07T06:32:32Z</time>
      </trkpt>
      <trkpt lat="45.09648" lon="5.4706">
        <ele>760</ele>
        <time>2018-02-07T06:33:32Z</time>
      </trkpt>
      <trkpt lat="45.09657" lon="5.47081">
        <ele>762</ele>
        <time>2018-02-07T06:34:32Z</time>
      </trkpt>
      <trkpt lat="45.09662" lon="5.47096">
        <ele>761</ele>
        <time>2018-02-07T06:35:32Z</time>
      </trkpt>
      <trkpt lat="45.09664" lon="5.47099">
        <ele>761</ele>
        <time>2018-02-07T06:36:32Z</time>
      </trkpt>
      <trkpt lat="45.09676" lon="5.47125">
        <ele>759</ele>
        <time>2018-02-07T06:37:32Z</time>
      </trkpt>
      <trkpt lat="45.09693" lon="5.47167">
        <ele>756</ele>
        <time>2018-02-07T06:38:32Z</time>
      </trkpt>
      <trkpt lat="45.09707" lon="5.47198">
        <ele>759</ele>
        <time>2018-02-07T06:39:32Z</time>
      </trkpt>
      <trkpt lat="45.09721" lon="5.47226">
        <ele>761</ele>
        <time>2018-02-07T06:40:32Z</time>
      </trkpt>
      <trkpt lat="45.09725" lon="5.47238">
        <ele>761</ele>
        <time>2018-02-07T06:41:32Z</time>
      </trkpt>
      <trkpt lat="45.09728" lon="5.47245">
        <ele>762</ele>
        <time>2018-02-07T06:42:32Z</time>
      </trkpt>
      <trkpt lat="45.0973" lon="5.47252">
        <ele>762</ele>
        <time>2018-02-07T06:43:32Z</time>
      </trkpt>
      <trkpt lat="45.09731" lon="5.47258">
        <ele>763</ele>
        <time>2018-02-07T06:44:32Z</time>
      </trkpt>
      <trkpt lat="45.09732" lon="5.47265">
        <ele>763</ele>
        <time>2018-02-07T06:45:32Z</time>
      </trkpt>
      <trkpt lat="45.09732" lon="5.47271">
        <ele>764</ele>
        <time>2018-02-07T06:46:32Z</time>
      </trkpt>
      <trkpt lat="45.09732" lon="5.4728">
        <ele>765</ele>
        <time>2018-02-07T06:47:32Z</time>
      </trkpt>
      <trkpt lat="45.09733" lon="5.47294">
        <ele>766</ele>
        <time>2018-02-07T06:48:32Z</time>
      </trkpt>
      <trkpt lat="45.09734" lon="5.4731">
        <ele>768</ele>
        <time>2018-02-07T06:49:32Z</time>
      </trkpt>
      <trkpt lat="45.09738" lon="5.47335">
        <ele>770</ele>
        <time>2018-02-07T06:50:32Z</time>
      </trkpt>
      <trkpt lat="45.09742" lon="5.47352">
        <ele>770</ele>
        <time>2018-02-07T06:51:32Z</time>
      </trkpt>
      <trkpt lat="45.09745" lon="5.47361">
        <ele>770</ele>
        <time>2018-02-07T06:52:32Z</time>
      </trkpt>
      <trkpt lat="45.09749" lon="5.47367">
        <ele>770</ele>
        <time>2018-02-07T06:53:32Z</time>
      </trkpt>
      <trkpt lat="45.09754" lon="5.47372">
        <ele>770</ele>
        <time>2018-02-07T06:54:32Z</time>
      </trkpt>
      <trkpt lat="45.09757" lon="5.47375">
        <ele>770</ele>
        <time>2018-02-07T06:55:32Z</time>
      </trkpt>
      <trkpt lat="45.09764" lon="5.47378">
        <ele>770</ele>
        <time>2018-02-07T06:56:32Z</time>
      </trkpt>
      <trkpt lat="45.0977" lon="5.47381">
        <ele>770</ele>
        <time>2018-02-07T06:57:32Z</time>
      </trkpt>
      <trkpt lat="45.09778" lon="5.47382">
        <ele>769</ele>
        <time>2018-02-07T06:58:32Z</time>
      </trkpt>
      <trkpt lat="45.09785" lon="5.47385">
        <ele>769</ele>
        <time>2018-02-07T06:59:32Z</time>
      </trkpt>
      <trkpt lat="45.0979" lon="5.47387">
        <ele>769</ele>
        <time>2018-02-07T07:00:32Z</time>
      </trkpt>
      <trkpt lat="45.09796" lon="5.4739">
        <ele>769</ele>
        <time>2018-02-07T07:01:32Z</time>
      </trkpt>
      <trkpt lat="45.09805" lon="5.47397">
        <ele>769</ele>
        <time>2018-02-07T07:02:32Z</time>
      </trkpt>
      <trkpt lat="45.09846" lon="5.47429">
        <ele>773</ele>
        <time>2018-02-07T07:03:32Z</time>
      </trkpt>
      <trkpt lat="45.0986" lon="5.4744">
        <ele>774</ele>
        <time>2018-02-07T07:04:32Z</time>
      </trkpt>
      <trkpt lat="45.09868" lon="5.47448">
        <ele>775</ele>
        <time>2018-02-07T07:05:32Z</time>
      </trkpt>
      <trkpt lat="45.09874" lon="5.47455">
        <ele>776</ele>
        <time>2018-02-07T07:06:32Z</time>
      </trkpt>
      <trkpt lat="45.09877" lon="5.47461">
        <ele>777</ele>
        <time>2018-02-07T07:07:32Z</time>
      </trkpt>
      <trkpt lat="45.0988" lon="5.47469">
        <ele>779</ele>
        <time>2018-02-07T07:08:32Z</time>
      </trkpt>
      <trkpt lat="45.09884" lon="5.47479">
        <ele>781</ele>
        <time>2018-02-07T07:09:32Z</time>
      </trkpt>
      <trkpt lat="45.09887" lon="5.47493">
        <ele>784</ele>
        <time>2018-02-07T07:10:32Z</time>
      </trkpt>
      <trkpt lat="45.09889" lon="5.47503">
        <ele>786</ele>
        <time>2018-02-07T07:11:32Z</time>
      </trkpt>
      <trkpt lat="45.09891" lon="5.47512">
        <ele>788</ele>
        <time>2018-02-07T07:12:32Z</time>
      </trkpt>
      <trkpt lat="45.09894" lon="5.4752">
        <ele>789</ele>
        <time>2018-02-07T07:13:32Z</time>
      </trkpt>
      <trkpt lat="45.09897" lon="5.47525">
        <ele>790</ele>
        <time>2018-02-07T07:14:32Z</time>
      </trkpt>
      <trkpt lat="45.09902" lon="5.47528">
        <ele>790</ele>
        <time>2018-02-07T07:15:32Z</time>
      </trkpt>
      <trkpt lat="45.09906" lon="5.47529">
        <ele>790</ele>
        <time>2018-02-07T07:16:32Z</time>
      </trkpt>
      <trkpt lat="45.09911" lon="5.47529">
        <ele>790</ele>
        <time>2018-02-07T07:17:32Z</time>
      </trkpt>
      <trkpt lat="45.09916" lon="5.47528">
        <ele>789</ele>
        <time>2018-02-07T07:18:32Z</time>
      </trkpt>
      <trkpt lat="45.09923" lon="5.47525">
        <ele>789</ele>
        <time>2018-02-07T07:19:32Z</time>
      </trkpt>
      <trkpt lat="45.09931" lon="5.47517">
        <ele>789</ele>
        <time>2018-02-07T07:20:32Z</time>
      </trkpt>
      <trkpt lat="45.0994" lon="5.47508">
        <ele>788</ele>
        <time>2018-02-07T07:21:32Z</time>
      </trkpt>
      <trkpt lat="45.09951" lon="5.47497">
        <ele>787</ele>
        <time>2018-02-07T07:22:32Z</time>
      </trkpt>
      <trkpt lat="45.0996" lon="5.4749">
        <ele>787</ele>
        <time>2018-02-07T07:23:32Z</time>
      </trkpt>
      <trkpt lat="45.09966" lon="5.47485">
        <ele>786</ele>
        <time>2018-02-07T07:24:32Z</time>
      </trkpt>
      <trkpt lat="45.09973" lon="5.47484">
        <ele>786</ele>
        <time>2018-02-07T07:25:32Z</time>
      </trkpt>
      <trkpt lat="45.09979" lon="5.47483">
        <ele>787</ele>
        <time>2018-02-07T07:26:32Z</time>
      </trkpt>
      <trkpt lat="45.09984" lon="5.47484">
        <ele>788</ele>
        <time>2018-02-07T07:27:32Z</time>
      </trkpt>
      <trkpt lat="45.0999" lon="5.47486">
        <ele>789</ele>
        <time>2018-02-07T07:28:32Z</time>
      </trkpt>
      <trkpt lat="45.09998" lon="5.4749">
        <ele>791</ele>
        <time>2018-02-07T07:29:32Z</time>
      </trkpt>
      <trkpt lat="45.10006" lon="5.47496">
        <ele>792</ele>
        <time>2018-02-07T07:30:32Z</time>
      </trkpt>
      <trkpt lat="45.10014" lon="5.47504">
        <ele>793</ele>
        <time>2018-02-07T07:31:32Z</time>
      </trkpt>
      <trkpt lat="45.10023" lon="5.47515">
        <ele>794</ele>
        <time>2018-02-07T07:32:32Z</time>
      </trkpt>
      <trkpt lat="45.10028" lon="5.47522">
        <ele>796</ele>
        <time>2018-02-07T07:33:32Z</time>
      </trkpt>
      <trkpt lat="45.10033" lon="5.47528">
        <ele>796</ele>
        <time>2018-02-07T07:34:32Z</time>
      </trkpt>
      <trkpt lat="45.10037" lon="5.47532">
        <ele>797</ele>
        <time>2018-02-07T07:35:32Z</time>
      </trkpt>
      <trkpt lat="45.10042" lon="5.47535">
        <ele>797</ele>
        <time>2018-02-07T07:36:32Z</time>
      </trkpt>
      <trkpt lat="45.10046" lon="5.47536">
        <ele>796</ele>
        <time>2018-02-07T07:37:32Z</time>
      </trkpt>
      <trkpt lat="45.1005" lon="5.47536">
        <ele>796</ele>
        <time>2018-02-07T07:38:32Z</time>
      </trkpt>
      <trkpt lat="45.10054" lon="5.47535">
        <ele>795</ele>
        <time>2018-02-07T07:39:32Z</time>
      </trkpt>
      <trkpt lat="45.1006" lon="5.47533">
        <ele>794</ele>
        <time>2018-02-07T07:40:32Z</time>
      </trkpt>
      <trkpt lat="45.10064" lon="5.4753">
        <ele>792</ele>
        <time>2018-02-07T07:41:32Z</time>
      </trkpt>
      <trkpt lat="45.10069" lon="5.47524">
        <ele>790</ele>
        <time>2018-02-07T07:42:32Z</time>
      </trkpt>
      <trkpt lat="45.10077" lon="5.47516">
        <ele>787</ele>
        <time>2018-02-07T07:43:32Z</time>
      </trkpt>
      <trkpt lat="45.10088" lon="5.47506">
        <ele>785</ele>
        <time>2018-02-07T07:44:32Z</time>
      </trkpt>
      <trkpt lat="45.10097" lon="5.475">
        <ele>785</ele>
        <time>2018-02-07T07:45:32Z</time>
      </trkpt>
      <trkpt lat="45.10103" lon="5.47496">
        <ele>786</ele>
        <time>2018-02-07T07:46:32Z</time>
      </trkpt>
      <trkpt lat="45.1011" lon="5.47494">
        <ele>788</ele>
        <time>2018-02-07T07:47:32Z</time>
      </trkpt>
      <trkpt lat="45.10122" lon="5.4749">
        <ele>790</ele>
        <time>2018-02-07T07:48:32Z</time>
      </trkpt>
      <trkpt lat="45.10128" lon="5.47488">
        <ele>792</ele>
        <time>2018-02-07T07:49:32Z</time>
      </trkpt>
      <trkpt lat="45.10135" lon="5.47485">
        <ele>793</ele>
        <time>2018-02-07T07:50:32Z</time>
      </trkpt>
      <trkpt lat="45.1014" lon="5.4748">
        <ele>794</ele>
        <time>2018-02-07T07:51:32Z</time>
      </trkpt>
      <trkpt lat="45.10143" lon="5.47475">
        <ele>794</ele>
        <time>2018-02-07T07:52:32Z</time>
      </trkpt>
      <trkpt lat="45.10146" lon="5.47471">
        <ele>795</ele>
        <time>2018-02-07T07:53:32Z</time>
      </trkpt>
      <trkpt lat="45.10149" lon="5.47465">
        <ele>795</ele>
        <time>2018-02-07T07:54:32Z</time>
      </trkpt>
      <trkpt lat="45.10151" lon="5.47458">
        <ele>795</ele>
        <time>2018-02-07T07:55:32Z</time>
      </trkpt>
      <trkpt lat="45.10153" lon="5.47449">
        <ele>795</ele>
        <time>2018-02-07T07:56:32Z</time>
      </trkpt>
      <trkpt lat="45.10154" lon="5.47439">
        <ele>794</ele>
        <time>2018-02-07T07:57:32Z</time>
      </trkpt>
      <trkpt lat="45.10155" lon="5.47428">
        <ele>794</ele>
        <time>2018-02-07T07:58:32Z</time>
      </trkpt>
      <trkpt lat="45.10155" lon="5.47421">
        <ele>793</ele>
        <time>2018-02-07T07:59:32Z</time>
      </trkpt>
      <trkpt lat="45.10155" lon="5.47414">
        <ele>793</ele>
        <time>2018-02-07T08:00:32Z</time>
      </trkpt>
      <trkpt lat="45.10154" lon="5.47408">
        <ele>792</ele>
        <time>2018-02-07T08:01:32Z</time>
      </trkpt>
      <trkpt lat="45.10153" lon="5.474">
        <ele>792</ele>
        <time>2018-02-07T08:02:32Z</time>
      </trkpt>
      <trkpt lat="45.1015" lon="5.47388">
        <ele>791</ele>
        <time>2018-02-07T08:03:32Z</time>
      </trkpt>
      <trkpt lat="45.10149" lon="5.47382">
        <ele>791</ele>
        <time>2018-02-07T08:04:32Z</time>
      </trkpt>
      <trkpt lat="45.10148" lon="5.47373">
        <ele>791</ele>
        <time>2018-02-07T08:05:32Z</time>
      </trkpt>
      <trkpt lat="45.10148" lon="5.47361">
        <ele>791</ele>
        <time>2018-02-07T08:06:32Z</time>
      </trkpt>
      <trkpt lat="45.10148" lon="5.47346">
        <ele>791</ele>
        <time>2018-02-07T08:07:32Z</time>
      </trkpt>
      <trkpt lat="45.1015" lon="5.47327">
        <ele>791</ele>
        <time>2018-02-07T08:08:32Z</time>
      </trkpt>
      <trkpt lat="45.10152" lon="5.47308">
        <ele>791</ele>
        <time>2018-02-07T08:09:32Z</time>
      </trkpt>
      <trkpt lat="45.10154" lon="5.47287">
        <ele>792</ele>
        <time>2018-02-07T08:10:32Z</time>
      </trkpt>
      <trkpt lat="45.10154" lon="5.47279">
        <ele>791</ele>
        <time>2018-02-07T08:11:32Z</time>
      </trkpt>
      <trkpt lat="45.10155" lon="5.47271">
        <ele>792</ele>
        <time>2018-02-07T08:12:32Z</time>
      </trkpt>
      <trkpt lat="45.10156" lon="5.47263">
        <ele>792</ele>
        <time>2018-02-07T08:13:32Z</time>
      </trkpt>
      <trkpt lat="45.10159" lon="5.47257">
        <ele>792</ele>
        <time>2018-02-07T08:14:32Z</time>
      </trkpt>
      <trkpt lat="45.10161" lon="5.47253">
        <ele>793</ele>
        <time>2018-02-07T08:15:32Z</time>
      </trkpt>
      <trkpt lat="45.10164" lon="5.47248">
        <ele>793</ele>
        <time>2018-02-07T08:16:32Z</time>
      </trkpt>
      <trkpt lat="45.10169" lon="5.47242">
        <ele>793</ele>
        <time>2018-02-07T08:17:32Z</time>
      </trkpt>
      <trkpt lat="45.10195" lon="5.47215">
        <ele>792</ele>
        <time>2018-02-07T08:18:32Z</time>
      </trkpt>
      <trkpt lat="45.10204" lon="5.47208">
        <ele>792</ele>
        <time>2018-02-07T08:19:32Z</time>
      </trkpt>
      <trkpt lat="45.10209" lon="5.47206">
        <ele>792</ele>
        <time>2018-02-07T08:20:32Z</time>
      </trkpt>
      <trkpt lat="45.10212" lon="5.47205">
        <ele>792</ele>
        <time>2018-02-07T08:21:32Z</time>
      </trkpt>
      <trkpt lat="45.10216" lon="5.47205">
        <ele>793</ele>
        <time>2018-02-07T08:22:32Z</time>
      </trkpt>
      <trkpt lat="45.10219" lon="5.47206">
        <ele>793</ele>
        <time>2018-02-07T08:23:32Z</time>
      </trkpt>
      <trkpt lat="45.10223" lon="5.47207">
        <ele>794</ele>
        <time>2018-02-07T08:24:32Z</time>
      </trkpt>
      <trkpt lat="45.10226" lon="5.47209">
        <ele>794</ele>
        <time>2018-02-07T08:25:32Z</time>
      </trkpt>
      <trkpt lat="45.10232" lon="5.47212">
        <ele>795</ele>
        <time>2018-02-07T08:26:32Z</time>
      </trkpt>
      <trkpt lat="45.10238" lon="5.47216">
        <ele>796</ele>
        <time>2018-02-07T08:27:32Z</time>
      </trkpt>
      <trkpt lat="45.10242" lon="5.47219">
        <ele>797</ele>
        <time>2018-02-07T08:28:32Z</time>
      </trkpt>
      <trkpt lat="45.10251" lon="5.47224">
        <ele>798</ele>
        <time>2018-02-07T08:29:32Z</time>
      </trkpt>
      <trkpt lat="45.10262" lon="5.47228">
        <ele>797</ele>
        <time>2018-02-07T08:30:32Z</time>
      </trkpt>
      <trkpt lat="45.10268" lon="5.47232">
        <ele>797</ele>
        <time>2018-02-07T08:31:32Z</time>
      </trkpt>
      <trkpt lat="45.10273" lon="5.47236">
        <ele>797</ele>
        <time>2018-02-07T08:32:32Z</time>
      </trkpt>
      <trkpt lat="45.10285" lon="5.4725">
        <ele>796</ele>
        <time>2018-02-07T08:33:32Z</time>
      </trkpt>
      <trkpt lat="45.10303" lon="5.4727">
        <ele>798</ele>
        <time>2018-02-07T08:34:32Z</time>
      </trkpt>
      <trkpt lat="45.10323" lon="5.47289">
        <ele>800</ele>
        <time>2018-02-07T08:35:32Z</time>
      </trkpt>
      <trkpt lat="45.10333" lon="5.47295">
        <ele>800</ele>
        <time>2018-02-07T08:36:32Z</time>
      </trkpt>
      <trkpt lat="45.10343" lon="5.47301">
        <ele>801</ele>
        <time>2018-02-07T08:37:32Z</time>
      </trkpt>
      <trkpt lat="45.10353" lon="5.47306">
        <ele>802</ele>
        <time>2018-02-07T08:38:32Z</time>
      </trkpt>
      <trkpt lat="45.10361" lon="5.4731">
        <ele>802</ele>
        <time>2018-02-07T08:39:32Z</time>
      </trkpt>
      <trkpt lat="45.1037" lon="5.47314">
        <ele>803</ele>
        <time>2018-02-07T08:40:32Z</time>
      </trkpt>
      <trkpt lat="45.10378" lon="5.47316">
        <ele>803</ele>
        <time>2018-02-07T08:41:32Z</time>
      </trkpt>
      <trkpt lat="45.10385" lon="5.47318">
        <ele>803</ele>
        <time>2018-02-07T08:42:32Z</time>
      </trkpt>
      <trkpt lat="45.10392" lon="5.47319">
        <ele>803</ele>
        <time>2018-02-07T08:43:32Z</time>
      </trkpt>
      <trkpt lat="45.10396" lon="5.47319">
        <ele>803</ele>
        <time>2018-02-07T08:44:32Z</time>
      </trkpt>
      <trkpt lat="45.10402" lon="5.47319">
        <ele>803</ele>
        <time>2018-02-07T08:45:32Z</time>
      </trkpt>
      <trkpt lat="45.1041" lon="5.4732">
        <ele>803</ele>
        <time>2018-02-07T08:46:32Z</time>
      </trkpt>
      <trkpt lat="45.10416" lon="5.47319">
        <ele>803</ele>
        <time>2018-02-07T08:47:32Z</time>
      </trkpt>
      <trkpt lat="45.10422" lon="5.47318">
        <ele>804</ele>
        <time>2018-02-07T08:48:32Z</time>
      </trkpt>
      <trkpt lat="45.10429" lon="5.47316">
        <ele>805</ele>
        <time>2018-02-07T08:49:32Z</time>
      </trkpt>
      <trkpt lat="45.10434" lon="5.47313">
        <ele>805</ele>
        <time>2018-02-07T08:50:32Z</time>
      </trkpt>
      <trkpt lat="45.10438" lon="5.47309">
        <ele>805</ele>
        <time>2018-02-07T08:51:32Z</time>
      </trkpt>
      <trkpt lat="45.10442" lon="5.47305">
        <ele>805</ele>
        <time>2018-02-07T08:52:32Z</time>
      </trkpt>
      <trkpt lat="45.10462" lon="5.47275">
        <ele>804</ele>
        <time>2018-02-07T08:53:32Z</time>
      </trkpt>
      <trkpt lat="45.10466" lon="5.4727">
        <ele>804</ele>
        <time>2018-02-07T08:54:32Z</time>
      </trkpt>
      <trkpt lat="45.1047" lon="5.47267">
        <ele>804</ele>
        <time>2018-02-07T08:55:32Z</time>
      </trkpt>
      <trkpt lat="45.10473" lon="5.47266">
        <ele>804</ele>
        <time>2018-02-07T08:56:32Z</time>
      </trkpt>
      <trkpt lat="45.10479" lon="5.47264">
        <ele>804</ele>
        <time>2018-02-07T08:57:32Z</time>
      </trkpt>
      <trkpt lat="45.10486" lon="5.47261">
        <ele>804</ele>
        <time>2018-02-07T08:58:32Z</time>
      </trkpt>
      <trkpt lat="45.10493" lon="5.47257">
        <ele>804</ele>
        <time>2018-02-07T08:59:32Z</time>
      </trkpt>
      <trkpt lat="45.105" lon="5.47252">
        <ele>803</ele>
        <time>2018-02-07T09:00:32Z</time>
      </trkpt>
      <trkpt lat="45.10507" lon="5.4725">
        <ele>804</ele>
        <time>2018-02-07T09:01:32Z</time>
      </trkpt>
      <trkpt lat="45.10515" lon="5.47249">
        <ele>805</ele>
        <time>2018-02-07T09:02:32Z</time>
      </trkpt>
      <trkpt lat="45.10521" lon="5.4725">
        <ele>806</ele>
        <time>2018-02-07T09:03:32Z</time>
      </trkpt>
      <trkpt lat="45.10531" lon="5.47253">
        <ele>807</ele>
        <time>2018-02-07T09:04:32Z</time>
      </trkpt>
      <trkpt lat="45.10541" lon="5.47256">
        <ele>809</ele>
        <time>2018-02-07T09:05:32Z</time>
      </trkpt>
      <trkpt lat="45.10551" lon="5.47257">
        <ele>811</ele>
        <time>2018-02-07T09:06:32Z</time>
      </trkpt>
      <trkpt lat="45.10558" lon="5.47257">
        <ele>812</ele>
        <time>2018-02-07T09:07:32Z</time>
      </trkpt>
      <trkpt lat="45.10565" lon="5.47257">
        <ele>813</ele>
        <time>2018-02-07T09:08:32Z</time>
      </trkpt>
      <trkpt lat="45.10572" lon="5.47256">
        <ele>813</ele>
        <time>2018-02-07T09:09:32Z</time>
      </trkpt>
      <trkpt lat="45.10583" lon="5.47251">
        <ele>813</ele>
        <time>2018-02-07T09:10:32Z</time>
      </trkpt>
      <trkpt lat="45.10592" lon="5.47247">
        <ele>813</ele>
        <time>2018-02-07T09:11:32Z</time>
      </trkpt>
      <trkpt lat="45.10598" lon="5.47243">
        <ele>813</ele>
        <time>2018-02-07T09:12:32Z</time>
      </trkpt>
      <trkpt lat="45.10607" lon="5.47236">
        <ele>813</ele>
        <time>2018-02-07T09:13:32Z</time>
      </trkpt>
      <trkpt lat="45.10617" lon="5.47227">
        <ele>812</ele>
        <time>2018-02-07T09:14:32Z</time>
      </trkpt>
      <trkpt lat="45.10628" lon="5.47214">
        <ele>811</ele>
        <time>2018-02-07T09:15:32Z</time>
      </trkpt>
      <trkpt lat="45.10634" lon="5.47205">
        <ele>809</ele>
        <time>2018-02-07T09:16:32Z</time>
      </trkpt>
      <trkpt lat="45.10641" lon="5.47197">
        <ele>809</ele>
        <time>2018-02-07T09:17:32Z</time>
      </trkpt>
      <trkpt lat="45.10647" lon="5.47189">
        <ele>808</ele>
        <time>2018-02-07T09:18:32Z</time>
      </trkpt>
      <trkpt lat="45.10655" lon="5.4718">
        <ele>807</ele>
        <time>2018-02-07T09:19:32Z</time>
      </trkpt>
      <trkpt lat="45.10659" lon="5.47176">
        <ele>807</ele>
        <time>2018-02-07T09:20:32Z</time>
      </trkpt>
      <trkpt lat="45.10663" lon="5.47175">
        <ele>807</ele>
        <time>2018-02-07T09:21:32Z</time>
      </trkpt>
      <trkpt lat="45.10666" lon="5.47174">
        <ele>807</ele>
        <time>2018-02-07T09:22:32Z</time>
      </trkpt>
      <trkpt lat="45.10669" lon="5.47174">
        <ele>807</ele>
        <time>2018-02-07T09:23:32Z</time>
      </trkpt>
      <trkpt lat="45.10672" lon="5.47175">
        <ele>808</ele>
        <time>2018-02-07T09:24:32Z</time>
      </trkpt>
      <trkpt lat="45.10676" lon="5.47177">
        <ele>808</ele>
        <time>2018-02-07T09:25:32Z</time>
      </trkpt>
      <trkpt lat="45.1068" lon="5.4718">
        <ele>809</ele>
        <time>2018-02-07T09:26:32Z</time>
      </trkpt>
      <trkpt lat="45.10684" lon="5.47186">
        <ele>810</ele>
        <time>2018-02-07T09:27:32Z</time>
      </trkpt>
      <trkpt lat="45.10688" lon="5.47191">
        <ele>810</ele>
        <time>2018-02-07T09:28:32Z</time>
      </trkpt>
      <trkpt lat="45.10692" lon="5.47196">
        <ele>811</ele>
        <time>2018-02-07T09:29:32Z</time>
      </trkpt>
      <trkpt lat="45.10696" lon="5.47201">
        <ele>812</ele>
        <time>2018-02-07T09:30:32Z</time>
      </trkpt>
      <trkpt lat="45.10701" lon="5.47207">
        <ele>812</ele>
        <time>2018-02-07T09:31:32Z</time>
      </trkpt>
      <trkpt lat="45.1071" lon="5.47219">
        <ele>813</ele>
        <time>2018-02-07T09:32:32Z</time>
      </trkpt>
      <trkpt lat="45.10718" lon="5.47229">
        <ele>814</ele>
        <time>2018-02-07T09:33:32Z</time>
      </trkpt>
      <trkpt lat="45.10729" lon="5.4724">
        <ele>814</ele>
        <time>2018-02-07T09:34:32Z</time>
      </trkpt>
      <trkpt lat="45.10745" lon="5.47255">
        <ele>814</ele>
        <time>2018-02-07T09:35:32Z</time>
      </trkpt>
      <trkpt lat="45.10751" lon="5.47261">
        <ele>814</ele>
        <time>2018-02-07T09:36:32Z</time>
      </trkpt>
      <trkpt lat="45.10758" lon="5.47266">
        <ele>816</ele>
        <time>2018-02-07T09:37:32Z</time>
      </trkpt>
      <trkpt lat="45.10767" lon="5.47272">
        <ele>817</ele>
        <time>2018-02-07T09:38:32Z</time>
      </trkpt>
      <trkpt lat="45.10774" lon="5.47275">
        <ele>818</ele>
        <time>2018-02-07T09:39:32Z</time>
      </trkpt>
      <trkpt lat="45.10782" lon="5.47279">
        <ele>819</ele>
        <time>2018-02-07T09:40:32Z</time>
      </trkpt>
      <trkpt lat="45.1079" lon="5.47281">
        <ele>820</ele>
        <time>2018-02-07T09:41:32Z</time>
      </trkpt>
      <trkpt lat="45.10796" lon="5.47282">
        <ele>821</ele>
        <time>2018-02-07T09:42:32Z</time>
      </trkpt>
      <trkpt lat="45.10803" lon="5.47283">
        <ele>821</ele>
        <time>2018-02-07T09:43:32Z</time>
      </trkpt>
      <trkpt lat="45.10809" lon="5.47284">
        <ele>822</ele>
        <time>2018-02-07T09:44:32Z</time>
      </trkpt>
      <trkpt lat="45.10815" lon="5.47284">
        <ele>822</ele>
        <time>2018-02-07T09:45:32Z</time>
      </trkpt>
      <trkpt lat="45.10824" lon="5.47282">
        <ele>822</ele>
        <time>2018-02-07T09:46:32Z</time>
      </trkpt>
      <trkpt lat="45.10831" lon="5.47281">
        <ele>822</ele>
        <time>2018-02-07T09:47:32Z</time>
      </trkpt>
      <trkpt lat="45.10838" lon="5.4728">
        <ele>822</ele>
        <time>2018-02-07T09:48:32Z</time>
      </trkpt>
      <trkpt lat="45.10846" lon="5.4728">
        <ele>822</ele>
        <time>2018-02-07T09:49:32Z</time>
      </trkpt>
      <trkpt lat="45.10853" lon="5.4728">
        <ele>823</ele>
        <time>2018-02-07T09:50:32Z</time>
      </trkpt>
      <trkpt lat="45.10861" lon="5.47282">
        <ele>823</ele>
        <time>2018-02-07T09:51:32Z</time>
      </trkpt>
      <trkpt lat="45.10868" lon="5.47283">
        <ele>824</ele>
        <time>2018-02-07T09:52:32Z</time>
      </trkpt>
      <trkpt lat="45.10878" lon="5.47286">
        <ele>824</ele>
        <time>2018-02-07T09:53:32Z</time>
      </trkpt>
      <trkpt lat="45.10901" lon="5.47295">
        <ele>826</ele>
        <time>2018-02-07T09:54:32Z</time>
      </trkpt>
      <trkpt lat="45.10918" lon="5.473">
        <ele>827</ele>
        <time>2018-02-07T09:55:32Z</time>
      </trkpt>
      <trkpt lat="45.10923" lon="5.47301">
        <ele>827</ele>
        <time>2018-02-07T09:56:32Z</time>
      </trkpt>
      <trkpt lat="45.10928" lon="5.47304">
        <ele>828</ele>
        <time>2018-02-07T09:57:32Z</time>
      </trkpt>
      <trkpt lat="45.10934" lon="5.47309">
        <ele>828</ele>
        <time>2018-02-07T09:58:32Z</time>
      </trkpt>
      <trkpt lat="45.10939" lon="5.47313">
        <ele>829</ele>
        <time>2018-02-07T09:59:32Z</time>
      </trkpt>
      <trkpt lat="45.1095" lon="5.47326">
        <ele>831</ele>
        <time>2018-02-07T10:00:32Z</time>
      </trkpt>
      <trkpt lat="45.10954" lon="5.47331">
        <ele>832</ele>
        <time>2018-02-07T10:01:32Z</time>
      </trkpt>
      <trkpt lat="45.1096" lon="5.47339">
        <ele>833</ele>
        <time>2018-02-07T10:02:32Z</time>
      </trkpt>
      <trkpt lat="45.10964" lon="5.47344">
        <ele>834</ele>
        <time>2018-02-07T10:03:32Z</time>
      </trkpt>
      <trkpt lat="45.10968" lon="5.47347">
        <ele>834</ele>
        <time>2018-02-07T10:04:32Z</time>
      </trkpt>
      <trkpt lat="45.10969" lon="5.47348">
        <ele>834</ele>
        <time>2018-02-07T10:05:32Z</time>
      </trkpt>
      <trkpt lat="45.10972" lon="5.4735">
        <ele>835</ele>
        <time>2018-02-07T10:06:32Z</time>
      </trkpt>
      <trkpt lat="45.10975" lon="5.47351">
        <ele>835</ele>
        <time>2018-02-07T10:07:32Z</time>
      </trkpt>
      <trkpt lat="45.10976" lon="5.47351">
        <ele>835</ele>
        <time>2018-02-07T10:08:32Z</time>
      </trkpt>
      <trkpt lat="45.10985" lon="5.47349">
        <ele>835</ele>
        <time>2018-02-07T10:09:32Z</time>
      </trkpt>
      <trkpt lat="45.10988" lon="5.47348">
        <ele>835</ele>
        <time>2018-02-07T10:10:32Z</time>
      </trkpt>
      <trkpt lat="45.10991" lon="5.47347">
        <ele>835</ele>
        <time>2018-02-07T10:11:32Z</time>
      </trkpt>
      <trkpt lat="45.10996" lon="5.47345">
        <ele>835</ele>
        <time>2018-02-07T10:12:32Z</time>
      </trkpt>
      <trkpt lat="45.11004" lon="5.47342">
        <ele>834</ele>
        <time>2018-02-07T10:13:32Z</time>
      </trkpt>
      <trkpt lat="45.11009" lon="5.47341">
        <ele>834</ele>
        <time>2018-02-07T10:14:32Z</time>
      </trkpt>
      <trkpt lat="45.11013" lon="5.4734">
        <ele>834</ele>
        <time>2018-02-07T10:15:32Z</time>
      </trkpt>
      <trkpt lat="45.11019" lon="5.47342">
        <ele>834</ele>
        <time>2018-02-07T10:16:32Z</time>
      </trkpt>
      <trkpt lat="45.11022" lon="5.47343">
        <ele>834</ele>
        <time>2018-02-07T10:17:32Z</time>
      </trkpt>
      <trkpt lat="45.11025" lon="5.47344">
        <ele>834</ele>
        <time>2018-02-07T10:18:32Z</time>
      </trkpt>
      <trkpt lat="45.11028" lon="5.47346">
        <ele>834</ele>
        <time>2018-02-07T10:19:32Z</time>
      </trkpt>
      <trkpt lat="45.11031" lon="5.47349">
        <ele>835</ele>
        <time>2018-02-07T10:20:32Z</time>
      </trkpt>
      <trkpt lat="45.11034" lon="5.47353">
        <ele>835</ele>
        <time>2018-02-07T10:21:32Z</time>
      </trkpt>
      <trkpt lat="45.11038" lon="5.47363">
        <ele>837</ele>
        <time>2018-02-07T10:22:32Z</time>
      </trkpt>
      <trkpt lat="45.11042" lon="5.47377">
        <ele>839</ele>
        <time>2018-02-07T10:23:32Z</time>
      </trkpt>
      <trkpt lat="45.11045" lon="5.47391">
        <ele>841</ele>
        <time>2018-02-07T10:24:32Z</time>
      </trkpt>
      <trkpt lat="45.11049" lon="5.47404">
        <ele>843</ele>
        <time>2018-02-07T10:25:32Z</time>
      </trkpt>
      <trkpt lat="45.11051" lon="5.47411">
        <ele>845</ele>
        <time>2018-02-07T10:26:32Z</time>
      </trkpt>
      <trkpt lat="45.11053" lon="5.47417">
        <ele>846</ele>
        <time>2018-02-07T10:27:32Z</time>
      </trkpt>
      <trkpt lat="45.11056" lon="5.47422">
        <ele>847</ele>
        <time>2018-02-07T10:28:32Z</time>
      </trkpt>
      <trkpt lat="45.11062" lon="5.4743">
        <ele>849</ele>
        <time>2018-02-07T10:29:32Z</time>
      </trkpt>
      <trkpt lat="45.1107" lon="5.47437">
        <ele>851</ele>
        <time>2018-02-07T10:30:32Z</time>
      </trkpt>
      <trkpt lat="45.11082" lon="5.47448">
        <ele>854</ele>
        <time>2018-02-07T10:31:32Z</time>
      </trkpt>
      <trkpt lat="45.11092" lon="5.47457">
        <ele>857</ele>
        <time>2018-02-07T10:32:32Z</time>
      </trkpt>
      <trkpt lat="45.11099" lon="5.47463">
        <ele>858</ele>
        <time>2018-02-07T10:33:32Z</time>
      </trkpt>
      <trkpt lat="45.11105" lon="5.47465">
        <ele>858</ele>
        <time>2018-02-07T10:34:32Z</time>
      </trkpt>
      <trkpt lat="45.1111" lon="5.47466">
        <ele>858</ele>
        <time>2018-02-07T10:35:32Z</time>
      </trkpt>
      <trkpt lat="45.11113" lon="5.47466">
        <ele>858</ele>
        <time>2018-02-07T10:36:32Z</time>
      </trkpt>
      <trkpt lat="45.11117" lon="5.47464">
        <ele>858</ele>
        <time>2018-02-07T10:37:32Z</time>
      </trkpt>
      <trkpt lat="45.11122" lon="5.47461">
        <ele>857</ele>
        <time>2018-02-07T10:38:32Z</time>
      </trkpt>
      <trkpt lat="45.11126" lon="5.47455">
        <ele>857</ele>
        <time>2018-02-07T10:39:32Z</time>
      </trkpt>
      <trkpt lat="45.11128" lon="5.47448">
        <ele>856</ele>
        <time>2018-02-07T10:40:32Z</time>
      </trkpt>
      <trkpt lat="45.11129" lon="5.47442">
        <ele>855</ele>
        <time>2018-02-07T10:41:32Z</time>
      </trkpt>
      <trkpt lat="45.11129" lon="5.47437">
        <ele>854</ele>
        <time>2018-02-07T10:42:32Z</time>
      </trkpt>
      <trkpt lat="45.11128" lon="5.47432">
        <ele>853</ele>
        <time>2018-02-07T10:43:32Z</time>
      </trkpt>
      <trkpt lat="45.11127" lon="5.47422">
        <ele>852</ele>
        <time>2018-02-07T10:44:32Z</time>
      </trkpt>
      <trkpt lat="45.11126" lon="5.47408">
        <ele>850</ele>
        <time>2018-02-07T10:45:32Z</time>
      </trkpt>
      <trkpt lat="45.11126" lon="5.47398">
        <ele>849</ele>
        <time>2018-02-07T10:46:32Z</time>
      </trkpt>
      <trkpt lat="45.11127" lon="5.47391">
        <ele>848</ele>
        <time>2018-02-07T10:47:32Z</time>
      </trkpt>
      <trkpt lat="45.1113" lon="5.47381">
        <ele>848</ele>
        <time>2018-02-07T10:48:32Z</time>
      </trkpt>
      <trkpt lat="45.11133" lon="5.47374">
        <ele>847</ele>
        <time>2018-02-07T10:49:32Z</time>
      </trkpt>
      <trkpt lat="45.11136" lon="5.4737">
        <ele>847</ele>
        <time>2018-02-07T10:50:32Z</time>
      </trkpt>
      <trkpt lat="45.11143" lon="5.47362">
        <ele>848</ele>
        <time>2018-02-07T10:51:32Z</time>
      </trkpt>
      <trkpt lat="45.11152" lon="5.47355">
        <ele>849</ele>
        <time>2018-02-07T10:52:32Z</time>
      </trkpt>
      <trkpt lat="45.11159" lon="5.47349">
        <ele>850</ele>
        <time>2018-02-07T10:53:32Z</time>
      </trkpt>
      <trkpt lat="45.11165" lon="5.47344">
        <ele>851</ele>
        <time>2018-02-07T10:54:32Z</time>
      </trkpt>
      <trkpt lat="45.11169" lon="5.47338">
        <ele>852</ele>
        <time>2018-02-07T10:55:32Z</time>
      </trkpt>
      <trkpt lat="45.11171" lon="5.4733">
        <ele>852</ele>
        <time>2018-02-07T10:56:32Z</time>
      </trkpt>
      <trkpt lat="45.11172" lon="5.47323">
        <ele>852</ele>
        <time>2018-02-07T10:57:32Z</time>
      </trkpt>
      <trkpt lat="45.11172" lon="5.47317">
        <ele>852</ele>
        <time>2018-02-07T10:58:32Z</time>
      </trkpt>
      <trkpt lat="45.11171" lon="5.4731">
        <ele>852</ele>
        <time>2018-02-07T10:59:32Z</time>
      </trkpt>
      <trkpt lat="45.1117" lon="5.47302">
        <ele>852</ele>
        <time>2018-02-07T11:00:32Z</time>
      </trkpt>
      <trkpt lat="45.11168" lon="5.4729">
        <ele>852</ele>
        <time>2018-02-07T11:01:32Z</time>
      </trkpt>
      <trkpt lat="45.11166" lon="5.47282">
        <ele>852</ele>
        <time>2018-02-07T11:02:32Z</time>
      </trkpt>
      <trkpt lat="45.11164" lon="5.47273">
        <ele>852</ele>
        <time>2018-02-07T11:03:32Z</time>
      </trkpt>
      <trkpt lat="45.11164" lon="5.47261">
        <ele>852</ele>
        <time>2018-02-07T11:04:32Z</time>
      </trkpt>
      <trkpt lat="45.11165" lon="5.47251">
        <ele>853</ele>
        <time>2018-02-07T11:05:32Z</time>
      </trkpt>
      <trkpt lat="45.11166" lon="5.47244">
        <ele>853</ele>
        <time>2018-02-07T11:06:32Z</time>
      </trkpt>
      <trkpt lat="45.11168" lon="5.47229">
        <ele>853</ele>
        <time>2018-02-07T11:07:32Z</time>
      </trkpt>
      <trkpt lat="45.1117" lon="5.47218">
        <ele>854</ele>
        <time>2018-02-07T11:08:32Z</time>
      </trkpt>
      <trkpt lat="45.11175" lon="5.47197">
        <ele>855</ele>
        <time>2018-02-07T11:09:32Z</time>
      </trkpt>
      <trkpt lat="45.11176" lon="5.4719">
        <ele>855</ele>
        <time>2018-02-07T11:10:32Z</time>
      </trkpt>
      <trkpt lat="45.1118" lon="5.47167">
        <ele>856</ele>
        <time>2018-02-07T11:11:32Z</time>
      </trkpt>
      <trkpt lat="45.11182" lon="5.47156">
        <ele>858</ele>
        <time>2018-02-07T11:12:32Z</time>
      </trkpt>
      <trkpt lat="45.11182" lon="5.47156">
        <ele>858</ele>
        <time>2018-02-07T11:13:32Z</time>
      </trkpt>
      <trkpt lat="45.11179" lon="5.47152">
        <ele>858</ele>
        <time>2018-02-07T11:14:32Z</time>
      </trkpt>
      <trkpt lat="45.11177" lon="5.47149">
        <ele>859</ele>
        <time>2018-02-07T11:15:32Z</time>
      </trkpt>
      <trkpt lat="45.11172" lon="5.47147">
        <ele>858</ele>
        <time>2018-02-07T11:16:32Z</time>
      </trkpt>
      <trkpt lat="45.11168" lon="5.47144">
        <ele>859</ele>
        <time>2018-02-07T11:17:32Z</time>
      </trkpt>
      <trkpt lat="45.11163" lon="5.47143">
        <ele>858</ele>
        <time>2018-02-07T11:18:32Z</time>
      </trkpt>
      <trkpt lat="45.11158" lon="5.47142">
        <ele>858</ele>
        <time>2018-02-07T11:19:32Z</time>
      </trkpt>
      <trkpt lat="45.11152" lon="5.47142">
        <ele>857</ele>
        <time>2018-02-07T11:20:32Z</time>
      </trkpt>
      <trkpt lat="45.11145" lon="5.47142">
        <ele>857</ele>
        <time>2018-02-07T11:21:32Z</time>
      </trkpt>
      <trkpt lat="45.11139" lon="5.47143">
        <ele>856</ele>
        <time>2018-02-07T11:22:32Z</time>
      </trkpt>
      <trkpt lat="45.11134" lon="5.47142">
        <ele>856</ele>
        <time>2018-02-07T11:23:32Z</time>
      </trkpt>
      <trkpt lat="45.1113" lon="5.47139">
        <ele>856</ele>
        <time>2018-02-07T11:24:32Z</time>
      </trkpt>
      <trkpt lat="45.11122" lon="5.47134">
        <ele>856</ele>
        <time>2018-02-07T11:25:32Z</time>
      </trkpt>
      <trkpt lat="45.11111" lon="5.47125">
        <ele>857</ele>
        <time>2018-02-07T11:26:32Z</time>
      </trkpt>
      <trkpt lat="45.11086" lon="5.47107">
        <ele>858</ele>
        <time>2018-02-07T11:27:32Z</time>
      </trkpt>
      <trkpt lat="45.11063" lon="5.47091">
        <ele>859</ele>
        <time>2018-02-07T11:28:32Z</time>
      </trkpt>
      <trkpt lat="45.11036" lon="5.47074">
        <ele>860</ele>
        <time>2018-02-07T11:29:32Z</time>
      </trkpt>
      <trkpt lat="45.11016" lon="5.47061">
        <ele>860</ele>
        <time>2018-02-07T11:30:32Z</time>
      </trkpt>
      <trkpt lat="45.11005" lon="5.47052">
        <ele>860</ele>
        <time>2018-02-07T11:31:32Z</time>
      </trkpt>
      <trkpt lat="45.10998" lon="5.47044">
        <ele>861</ele>
        <time>2018-02-07T11:32:32Z</time>
      </trkpt>
      <trkpt lat="45.10996" lon="5.47039">
        <ele>862</ele>
        <time>2018-02-07T11:33:32Z</time>
      </trkpt>
      <trkpt lat="45.10994" lon="5.47034">
        <ele>863</ele>
        <time>2018-02-07T11:34:32Z</time>
      </trkpt>
      <trkpt lat="45.10993" lon="5.4703">
        <ele>863</ele>
        <time>2018-02-07T11:35:32Z</time>
      </trkpt>
      <trkpt lat="45.10991" lon="5.47016">
        <ele>866</ele>
        <time>2018-02-07T11:36:32Z</time>
      </trkpt>
      <trkpt lat="45.10991" lon="5.47015">
        <ele>866</ele>
        <time>2018-02-07T11:37:32Z</time>
      </trkpt>
      <trkpt lat="45.10991" lon="5.4701">
        <ele>867</ele>
        <time>2018-02-07T11:38:32Z</time>
      </trkpt>
      <trkpt lat="45.1099" lon="5.47002">
        <ele>869</ele>
        <time>2018-02-07T11:39:32Z</time>
      </trkpt>
      <trkpt lat="45.10987" lon="5.4698">
        <ele>873</ele>
        <time>2018-02-07T11:40:32Z</time>
      </trkpt>
      <trkpt lat="45.10984" lon="5.4696">
        <ele>876</ele>
        <time>2018-02-07T11:41:32Z</time>
      </trkpt>
      <trkpt lat="45.1098" lon="5.46947">
        <ele>878</ele>
        <time>2018-02-07T11:42:32Z</time>
      </trkpt>
      <trkpt lat="45.10976" lon="5.46935">
        <ele>880</ele>
        <time>2018-02-07T11:43:32Z</time>
      </trkpt>
      <trkpt lat="45.10962" lon="5.46894">
        <ele>885</ele>
        <time>2018-02-07T11:44:32Z</time>
      </trkpt>
      <trkpt lat="45.10949" lon="5.46859">
        <ele>887</ele>
        <time>2018-02-07T11:45:32Z</time>
      </trkpt>
      <trkpt lat="45.10934" lon="5.46825">
        <ele>887</ele>
        <time>2018-02-07T11:46:32Z</time>
      </trkpt>
      <trkpt lat="45.1093" lon="5.46814">
        <ele>889</ele>
        <time>2018-02-07T11:47:32Z</time>
      </trkpt>
      <trkpt lat="45.10925" lon="5.46801">
        <ele>891</ele>
        <time>2018-02-07T11:48:32Z</time>
      </trkpt>
      <trkpt lat="45.10918" lon="5.46792">
        <ele>892</ele>
        <time>2018-02-07T11:49:32Z</time>
      </trkpt>
      <trkpt lat="45.10909" lon="5.46782">
        <ele>895</ele>
        <time>2018-02-07T11:50:32Z</time>
      </trkpt>
      <trkpt lat="45.10904" lon="5.46778">
        <ele>896</ele>
        <time>2018-02-07T11:51:32Z</time>
      </trkpt>
      <trkpt lat="45.10895" lon="5.46773">
        <ele>898</ele>
        <time>2018-02-07T11:52:32Z</time>
      </trkpt>
      <trkpt lat="45.10882" lon="5.4677">
        <ele>900</ele>
        <time>2018-02-07T11:53:32Z</time>
      </trkpt>
      <trkpt lat="45.10871" lon="5.46769">
        <ele>900</ele>
        <time>2018-02-07T11:54:32Z</time>
      </trkpt>
      <trkpt lat="45.10861" lon="5.46767">
        <ele>901</ele>
        <time>2018-02-07T11:55:32Z</time>
      </trkpt>
      <trkpt lat="45.10852" lon="5.46766">
        <ele>902</ele>
        <time>2018-02-07T11:56:32Z</time>
      </trkpt>
      <trkpt lat="45.10846" lon="5.46767">
        <ele>902</ele>
        <time>2018-02-07T11:57:32Z</time>
      </trkpt>
      <trkpt lat="45.10831" lon="5.46771">
        <ele>901</ele>
        <time>2018-02-07T11:58:32Z</time>
      </trkpt>
      <trkpt lat="45.10824" lon="5.46775">
        <ele>900</ele>
        <time>2018-02-07T11:59:32Z</time>
      </trkpt>
      <trkpt lat="45.10813" lon="5.46777">
        <ele>898</ele>
        <time>2018-02-07T12:00:32Z</time>
      </trkpt>
      <trkpt lat="45.10802" lon="5.46776">
        <ele>898</ele>
        <time>2018-02-07T12:01:32Z</time>
      </trkpt>
      <trkpt lat="45.10771" lon="5.46767">
        <ele>899</ele>
        <time>2018-02-07T12:02:32Z</time>
      </trkpt>
      <trkpt lat="45.10754" lon="5.46761">
        <ele>899</ele>
        <time>2018-02-07T12:03:32Z</time>
      </trkpt>
      <trkpt lat="45.10744" lon="5.46755">
        <ele>900</ele>
        <time>2018-02-07T12:04:32Z</time>
      </trkpt>
      <trkpt lat="45.10722" lon="5.46741">
        <ele>899</ele>
        <time>2018-02-07T12:05:32Z</time>
      </trkpt>
      <trkpt lat="45.1071" lon="5.46735">
        <ele>898</ele>
        <time>2018-02-07T12:06:32Z</time>
      </trkpt>
      <trkpt lat="45.107" lon="5.46724">
        <ele>899</ele>
        <time>2018-02-07T12:07:32Z</time>
      </trkpt>
      <trkpt lat="45.10695" lon="5.46717">
        <ele>899</ele>
        <time>2018-02-07T12:08:32Z</time>
      </trkpt>
      <trkpt lat="45.10684" lon="5.46702">
        <ele>901</ele>
        <time>2018-02-07T12:09:32Z</time>
      </trkpt>
      <trkpt lat="45.10675" lon="5.46691">
        <ele>901</ele>
        <time>2018-02-07T12:10:32Z</time>
      </trkpt>
      <trkpt lat="45.10664" lon="5.46679">
        <ele>903</ele>
        <time>2018-02-07T12:11:32Z</time>
      </trkpt>
      <trkpt lat="45.10652" lon="5.46669">
        <ele>904</ele>
        <time>2018-02-07T12:12:32Z</time>
      </trkpt>
      <trkpt lat="45.10632" lon="5.46653">
        <ele>910</ele>
        <time>2018-02-07T12:13:32Z</time>
      </trkpt>
      <trkpt lat="45.10619" lon="5.46646">
        <ele>913</ele>
        <time>2018-02-07T12:14:32Z</time>
      </trkpt>
      <trkpt lat="45.10609" lon="5.46641">
        <ele>915</ele>
        <time>2018-02-07T12:15:32Z</time>
      </trkpt>
      <trkpt lat="45.10604" lon="5.46638">
        <ele>916</ele>
        <time>2018-02-07T12:16:32Z</time>
      </trkpt>
      <trkpt lat="45.10594" lon="5.46636">
        <ele>917</ele>
        <time>2018-02-07T12:17:32Z</time>
      </trkpt>
      <trkpt lat="45.10583" lon="5.46634">
        <ele>917</ele>
        <time>2018-02-07T12:18:32Z</time>
      </trkpt>
      <trkpt lat="45.10569" lon="5.46632">
        <ele>917</ele>
        <time>2018-02-07T12:19:32Z</time>
      </trkpt>
      <trkpt lat="45.10552" lon="5.46627">
        <ele>917</ele>
        <time>2018-02-07T12:20:32Z</time>
      </trkpt>
      <trkpt lat="45.10532" lon="5.4662">
        <ele>918</ele>
        <time>2018-02-07T12:21:32Z</time>
      </trkpt>
      <trkpt lat="45.10509" lon="5.46611">
        <ele>920</ele>
        <time>2018-02-07T12:22:32Z</time>
      </trkpt>
      <trkpt lat="45.10487" lon="5.46603">
        <ele>921</ele>
        <time>2018-02-07T12:23:32Z</time>
      </trkpt>
      <trkpt lat="45.10464" lon="5.46594">
        <ele>923</ele>
        <time>2018-02-07T12:24:32Z</time>
      </trkpt>
      <trkpt lat="45.10448" lon="5.46587">
        <ele>924</ele>
        <time>2018-02-07T12:25:32Z</time>
      </trkpt>
      <trkpt lat="45.10443" lon="5.46585">
        <ele>925</ele>
        <time>2018-02-07T12:26:32Z</time>
      </trkpt>
      <trkpt lat="45.10439" lon="5.46584">
        <ele>925</ele>
        <time>2018-02-07T12:27:32Z</time>
      </trkpt>
      <trkpt lat="45.10423" lon="5.46578">
        <ele>925</ele>
        <time>2018-02-07T12:28:32Z</time>
      </trkpt>
      <trkpt lat="45.10412" lon="5.46574">
        <ele>925</ele>
        <time>2018-02-07T12:29:32Z</time>
      </trkpt>
      <trkpt lat="45.10407" lon="5.46574">
        <ele>924</ele>
        <time>2018-02-07T12:30:32Z</time>
      </trkpt>
      <trkpt lat="45.10401" lon="5.46573">
        <ele>924</ele>
        <time>2018-02-07T12:31:32Z</time>
      </trkpt>
      <trkpt lat="45.10394" lon="5.4657">
        <ele>923</ele>
        <time>2018-02-07T12:32:32Z</time>
      </trkpt>
      <trkpt lat="45.10386" lon="5.46565">
        <ele>924</ele>
        <time>2018-02-07T12:33:32Z</time>
      </trkpt>
      <trkpt lat="45.10376" lon="5.46558">
        <ele>924</ele>
        <time>2018-02-07T12:34:32Z</time>
      </trkpt>
      <trkpt lat="45.10355" lon="5.46539">
        <ele>927</ele>
        <time>2018-02-07T12:35:32Z</time>
      </trkpt>
      <trkpt lat="45.10332" lon="5.46514">
        <ele>931</ele>
        <time>2018-02-07T12:36:32Z</time>
      </trkpt>
      <trkpt lat="45.10315" lon="5.46493">
        <ele>934</ele>
        <time>2018-02-07T12:37:32Z</time>
      </trkpt>
      <trkpt lat="45.10302" lon="5.46479">
        <ele>934</ele>
        <time>2018-02-07T12:38:32Z</time>
      </trkpt>
      <trkpt lat="45.10296" lon="5.46472">
        <ele>933</ele>
        <time>2018-02-07T12:39:32Z</time>
      </trkpt>
      <trkpt lat="45.10291" lon="5.46468">
        <ele>933</ele>
        <time>2018-02-07T12:40:32Z</time>
      </trkpt>
      <trkpt lat="45.10285" lon="5.46464">
        <ele>933</ele>
        <time>2018-02-07T12:41:32Z</time>
      </trkpt>
      <trkpt lat="45.10281" lon="5.46461">
        <ele>932</ele>
        <time>2018-02-07T12:42:32Z</time>
      </trkpt>
      <trkpt lat="45.10275" lon="5.46458">
        <ele>932</ele>
        <time>2018-02-07T12:43:32Z</time>
      </trkpt>
      <trkpt lat="45.1027" lon="5.46455">
        <ele>931</ele>
        <time>2018-02-07T12:44:32Z</time>
      </trkpt>
      <trkpt lat="45.10263" lon="5.46452">
        <ele>930</ele>
        <time>2018-02-07T12:45:32Z</time>
      </trkpt>
      <trkpt lat="45.10261" lon="5.4645">
        <ele>930</ele>
        <time>2018-02-07T12:46:32Z</time>
      </trkpt>
      <trkpt lat="45.10254" lon="5.46448">
        <ele>929</ele>
        <time>2018-02-07T12:47:32Z</time>
      </trkpt>
      <trkpt lat="45.10248" lon="5.46444">
        <ele>928</ele>
        <time>2018-02-07T12:48:32Z</time>
      </trkpt>
      <trkpt lat="45.10248" lon="5.46444">
        <ele>928</ele>
        <time>2018-02-07T12:49:32Z</time>
      </trkpt>
      <trkpt lat="45.10248" lon="5.46434">
        <ele>929</ele>
        <time>2018-02-07T12:50:32Z</time>
      </trkpt>
      <trkpt lat="45.10248" lon="5.46426">
        <ele>929</ele>
        <time>2018-02-07T12:51:32Z</time>
      </trkpt>
      <trkpt lat="45.10249" lon="5.46417">
        <ele>930</ele>
        <time>2018-02-07T12:52:32Z</time>
      </trkpt>
      <trkpt lat="45.1025" lon="5.46409">
        <ele>929</ele>
        <time>2018-02-07T12:53:32Z</time>
      </trkpt>
      <trkpt lat="45.10253" lon="5.464">
        <ele>929</ele>
        <time>2018-02-07T12:54:32Z</time>
      </trkpt>
      <trkpt lat="45.1026" lon="5.46385">
        <ele>930</ele>
        <time>2018-02-07T12:55:32Z</time>
      </trkpt>
      <trkpt lat="45.10266" lon="5.46375">
        <ele>930</ele>
        <time>2018-02-07T12:56:32Z</time>
      </trkpt>
      <trkpt lat="45.10274" lon="5.46363">
        <ele>931</ele>
        <time>2018-02-07T12:57:32Z</time>
      </trkpt>
      <trkpt lat="45.10282" lon="5.46352">
        <ele>932</ele>
        <time>2018-02-07T12:58:32Z</time>
      </trkpt>
      <trkpt lat="45.10298" lon="5.46332">
        <ele>934</ele>
        <time>2018-02-07T12:59:32Z</time>
      </trkpt>
      <trkpt lat="45.10313" lon="5.46312">
        <ele>935</ele>
        <time>2018-02-07T13:00:32Z</time>
      </trkpt>
      <trkpt lat="45.1032" lon="5.46303">
        <ele>935</ele>
        <time>2018-02-07T13:01:32Z</time>
      </trkpt>
      <trkpt lat="45.10324" lon="5.46298">
        <ele>935</ele>
        <time>2018-02-07T13:02:32Z</time>
      </trkpt>
      <trkpt lat="45.10328" lon="5.46293">
        <ele>935</ele>
        <time>2018-02-07T13:03:32Z</time>
      </trkpt>
      <trkpt lat="45.10332" lon="5.46284">
        <ele>934</ele>
        <time>2018-02-07T13:04:32Z</time>
      </trkpt>
      <trkpt lat="45.10336" lon="5.46276">
        <ele>934</ele>
        <time>2018-02-07T13:05:32Z</time>
      </trkpt>
      <trkpt lat="45.10338" lon="5.46269">
        <ele>933</ele>
        <time>2018-02-07T13:06:32Z</time>
      </trkpt>
      <trkpt lat="45.1034" lon="5.46261">
        <ele>933</ele>
        <time>2018-02-07T13:07:32Z</time>
      </trkpt>
      <trkpt lat="45.10341" lon="5.46253">
        <ele>932</ele>
        <time>2018-02-07T13:08:32Z</time>
      </trkpt>
      <trkpt lat="45.10341" lon="5.46245">
        <ele>933</ele>
        <time>2018-02-07T13:09:32Z</time>
      </trkpt>
      <trkpt lat="45.10341" lon="5.46239">
        <ele>934</ele>
        <time>2018-02-07T13:10:32Z</time>
      </trkpt>
      <trkpt lat="45.10339" lon="5.46232">
        <ele>936</ele>
        <time>2018-02-07T13:11:32Z</time>
      </trkpt>
      <trkpt lat="45.10339" lon="5.46228">
        <ele>937</ele>
        <time>2018-02-07T13:12:32Z</time>
      </trkpt>
      <trkpt lat="45.10337" lon="5.46225">
        <ele>938</ele>
        <time>2018-02-07T13:13:32Z</time>
      </trkpt>
      <trkpt lat="45.10333" lon="5.46218">
        <ele>939</ele>
        <time>2018-02-07T13:14:32Z</time>
      </trkpt>
      <trkpt lat="45.10328" lon="5.46213">
        <ele>940</ele>
        <time>2018-02-07T13:15:32Z</time>
      </trkpt>
      <trkpt lat="45.10321" lon="5.46209">
        <ele>941</ele>
        <time>2018-02-07T13:16:32Z</time>
      </trkpt>
      <trkpt lat="45.10313" lon="5.46206">
        <ele>941</ele>
        <time>2018-02-07T13:17:32Z</time>
      </trkpt>
      <trkpt lat="45.10302" lon="5.46204">
        <ele>940</ele>
        <time>2018-02-07T13:18:32Z</time>
      </trkpt>
      <trkpt lat="45.10285" lon="5.46199">
        <ele>940</ele>
        <time>2018-02-07T13:19:32Z</time>
      </trkpt>
      <trkpt lat="45.10278" lon="5.46196">
        <ele>940</ele>
        <time>2018-02-07T13:20:32Z</time>
      </trkpt>
      <trkpt lat="45.10274" lon="5.46191">
        <ele>940</ele>
        <time>2018-02-07T13:21:32Z</time>
      </trkpt>
      <trkpt lat="45.10255" lon="5.4617">
        <ele>943</ele>
        <time>2018-02-07T13:22:32Z</time>
      </trkpt>
      <trkpt lat="45.10244" lon="5.46161">
        <ele>943</ele>
        <time>2018-02-07T13:23:32Z</time>
      </trkpt>
      <trkpt lat="45.1023" lon="5.4615">
        <ele>942</ele>
        <time>2018-02-07T13:24:32Z</time>
      </trkpt>
      <trkpt lat="45.10212" lon="5.46138">
        <ele>942</ele>
        <time>2018-02-07T13:25:32Z</time>
      </trkpt>
      <trkpt lat="45.10199" lon="5.46128">
        <ele>942</ele>
        <time>2018-02-07T13:26:32Z</time>
      </trkpt>
      <trkpt lat="45.10184" lon="5.46111">
        <ele>943</ele>
        <time>2018-02-07T13:27:32Z</time>
      </trkpt>
      <trkpt lat="45.10156" lon="5.46085">
        <ele>946</ele>
        <time>2018-02-07T13:28:32Z</time>
      </trkpt>
      <trkpt lat="45.10118" lon="5.4605">
        <ele>952</ele>
        <time>2018-02-07T13:29:32Z</time>
      </trkpt>
      <trkpt lat="45.10105" lon="5.46039">
        <ele>954</ele>
        <time>2018-02-07T13:30:32Z</time>
      </trkpt>
      <trkpt lat="45.10091" lon="5.46026">
        <ele>955</ele>
        <time>2018-02-07T13:31:32Z</time>
      </trkpt>
      <trkpt lat="45.10077" lon="5.46013">
        <ele>957</ele>
        <time>2018-02-07T13:32:32Z</time>
      </trkpt>
      <trkpt lat="45.10069" lon="5.46004">
        <ele>958</ele>
        <time>2018-02-07T13:33:32Z</time>
      </trkpt>
      <trkpt lat="45.10063" lon="5.45998">
        <ele>959</ele>
        <time>2018-02-07T13:34:32Z</time>
      </trkpt>
      <trkpt lat="45.10052" lon="5.45989">
        <ele>960</ele>
        <time>2018-02-07T13:35:32Z</time>
      </trkpt>
      <trkpt lat="45.10049" lon="5.45985">
        <ele>961</ele>
        <time>2018-02-07T13:36:32Z</time>
      </trkpt>
      <trkpt lat="45.10046" lon="5.4598">
        <ele>962</ele>
        <time>2018-02-07T13:37:32Z</time>
      </trkpt>
      <trkpt lat="45.10046" lon="5.4598">
        <ele>962</ele>
        <time>2018-02-07T13:38:32Z</time>
      </trkpt>
      <trkpt lat="45.1005" lon="5.45982">
        <ele>962</ele>
        <time>2018-02-07T13:39:32Z</time>
      </trkpt>
      <trkpt lat="45.10053" lon="5.45982">
        <ele>963</ele>
        <time>2018-02-07T13:40:32Z</time>
      </trkpt>
      <trkpt lat="45.10055" lon="5.45982">
        <ele>963</ele>
        <time>2018-02-07T13:41:32Z</time>
      </trkpt>
      <trkpt lat="45.10057" lon="5.45981">
        <ele>964</ele>
        <time>2018-02-07T13:42:32Z</time>
      </trkpt>
      <trkpt lat="45.10059" lon="5.45981">
        <ele>964</ele>
        <time>2018-02-07T13:43:32Z</time>
      </trkpt>
      <trkpt lat="45.10061" lon="5.45982">
        <ele>964</ele>
        <time>2018-02-07T13:44:32Z</time>
      </trkpt>
      <trkpt lat="45.10064" lon="5.45984">
        <ele>964</ele>
        <time>2018-02-07T13:45:32Z</time>
      </trkpt>
      <trkpt lat="45.1007" lon="5.45992">
        <ele>962</ele>
        <time>2018-02-07T13:46:32Z</time>
      </trkpt>
      <trkpt lat="45.10074" lon="5.45996">
        <ele>962</ele>
        <time>2018-02-07T13:47:32Z</time>
      </trkpt>
      <trkpt lat="45.1008" lon="5.45999">
        <ele>962</ele>
        <time>2018-02-07T13:48:32Z</time>
      </trkpt>
      <trkpt lat="45.1009" lon="5.46004">
        <ele>962</ele>
        <time>2018-02-07T13:49:32Z</time>
      </trkpt>
      <trkpt lat="45.10095" lon="5.46006">
        <ele>963</ele>
        <time>2018-02-07T13:50:32Z</time>
      </trkpt>
      <trkpt lat="45.10102" lon="5.46009">
        <ele>963</ele>
        <time>2018-02-07T13:51:32Z</time>
      </trkpt>
      <trkpt lat="45.10109" lon="5.46011">
        <ele>964</ele>
        <time>2018-02-07T13:52:32Z</time>
      </trkpt>
      <trkpt lat="45.10119" lon="5.46013">
        <ele>965</ele>
        <time>2018-02-07T13:53:32Z</time>
      </trkpt>
      <trkpt lat="45.1013" lon="5.46015">
        <ele>967</ele>
        <time>2018-02-07T13:54:32Z</time>
      </trkpt>
      <trkpt lat="45.10152" lon="5.46017">
        <ele>971</ele>
        <time>2018-02-07T13:55:32Z</time>
      </trkpt>
      <trkpt lat="45.10167" lon="5.46018">
        <ele>973</ele>
        <time>2018-02-07T13:56:32Z</time>
      </trkpt>
      <trkpt lat="45.10176" lon="5.46018">
        <ele>973</ele>
        <time>2018-02-07T13:57:32Z</time>
      </trkpt>
      <trkpt lat="45.10187" lon="5.46017">
        <ele>974</ele>
        <time>2018-02-07T13:58:32Z</time>
      </trkpt>
      <trkpt lat="45.10187" lon="5.46017">
        <ele>974</ele>
        <time>2018-02-07T13:59:32Z</time>
      </trkpt>
      <trkpt lat="45.10202" lon="5.46015">
        <ele>975</ele>
        <time>2018-02-07T14:00:32Z</time>
      </trkpt>
      <trkpt lat="45.10215" lon="5.46012">
        <ele>976</ele>
        <time>2018-02-07T14:01:32Z</time>
      </trkpt>
      <trkpt lat="45.10221" lon="5.46011">
        <ele>976</ele>
        <time>2018-02-07T14:02:32Z</time>
      </trkpt>
      <trkpt lat="45.10227" lon="5.46008">
        <ele>977</ele>
        <time>2018-02-07T14:03:32Z</time>
      </trkpt>
      <trkpt lat="45.10247" lon="5.45994">
        <ele>981</ele>
        <time>2018-02-07T14:04:32Z</time>
      </trkpt>
      <trkpt lat="45.10255" lon="5.45988">
        <ele>982</ele>
        <time>2018-02-07T14:05:32Z</time>
      </trkpt>
      <trkpt lat="45.10262" lon="5.45984">
        <ele>984</ele>
        <time>2018-02-07T14:06:32Z</time>
      </trkpt>
      <trkpt lat="45.10267" lon="5.45982">
        <ele>985</ele>
        <time>2018-02-07T14:07:32Z</time>
      </trkpt>
      <trkpt lat="45.10271" lon="5.45981">
        <ele>986</ele>
        <time>2018-02-07T14:08:32Z</time>
      </trkpt>
      <trkpt lat="45.10277" lon="5.45981">
        <ele>986</ele>
        <time>2018-02-07T14:09:32Z</time>
      </trkpt>
      <trkpt lat="45.10282" lon="5.45984">
        <ele>986</ele>
        <time>2018-02-07T14:10:32Z</time>
      </trkpt>
      <trkpt lat="45.10286" lon="5.45988">
        <ele>985</ele>
        <time>2018-02-07T14:11:32Z</time>
      </trkpt>
      <trkpt lat="45.10291" lon="5.45992">
        <ele>985</ele>
        <time>2018-02-07T14:12:32Z</time>
      </trkpt>
      <trkpt lat="45.10298" lon="5.45996">
        <ele>985</ele>
        <time>2018-02-07T14:13:32Z</time>
      </trkpt>
      <trkpt lat="45.10304" lon="5.45999">
        <ele>985</ele>
        <time>2018-02-07T14:14:32Z</time>
      </trkpt>
      <trkpt lat="45.10309" lon="5.46">
        <ele>985</ele>
        <time>2018-02-07T14:15:32Z</time>
      </trkpt>
      <trkpt lat="45.10315" lon="5.46001">
        <ele>986</ele>
        <time>2018-02-07T14:16:32Z</time>
      </trkpt>
      <trkpt lat="45.1032" lon="5.46001">
        <ele>986</ele>
        <time>2018-02-07T14:17:32Z</time>
      </trkpt>
      <trkpt lat="45.10326" lon="5.46">
        <ele>987</ele>
        <time>2018-02-07T14:18:32Z</time>
      </trkpt>
      <trkpt lat="45.10335" lon="5.45998">
        <ele>988</ele>
        <time>2018-02-07T14:19:32Z</time>
      </trkpt>
      <trkpt lat="45.10342" lon="5.45995">
        <ele>989</ele>
        <time>2018-02-07T14:20:32Z</time>
      </trkpt>
      <trkpt lat="45.1035" lon="5.45992">
        <ele>989</ele>
        <time>2018-02-07T14:21:32Z</time>
      </trkpt>
      <trkpt lat="45.10362" lon="5.45987">
        <ele>990</ele>
        <time>2018-02-07T14:22:32Z</time>
      </trkpt>
      <trkpt lat="45.10376" lon="5.45981">
        <ele>991</ele>
        <time>2018-02-07T14:23:32Z</time>
      </trkpt>
      <trkpt lat="45.10383" lon="5.45977">
        <ele>992</ele>
        <time>2018-02-07T14:24:32Z</time>
      </trkpt>
      <trkpt lat="45.10393" lon="5.45974">
        <ele>992</ele>
        <time>2018-02-07T14:25:32Z</time>
      </trkpt>
      <trkpt lat="45.10408" lon="5.45968">
        <ele>994</ele>
        <time>2018-02-07T14:26:32Z</time>
      </trkpt>
      <trkpt lat="45.10423" lon="5.45964">
        <ele>995</ele>
        <time>2018-02-07T14:27:32Z</time>
      </trkpt>
      <trkpt lat="45.10441" lon="5.4596">
        <ele>998</ele>
        <time>2018-02-07T14:28:32Z</time>
      </trkpt>
      <trkpt lat="45.10458" lon="5.45959">
        <ele>1000</ele>
        <time>2018-02-07T14:29:32Z</time>
      </trkpt>
      <trkpt lat="45.10467" lon="5.45958">
        <ele>1001</ele>
        <time>2018-02-07T14:30:32Z</time>
      </trkpt>
      <trkpt lat="45.10476" lon="5.45956">
        <ele>1003</ele>
        <time>2018-02-07T14:31:32Z</time>
      </trkpt>
      <trkpt lat="45.10476" lon="5.45956">
        <ele>1003</ele>
        <time>2018-02-07T14:32:32Z</time>
      </trkpt>
      <trkpt lat="45.10485" lon="5.45957">
        <ele>1003</ele>
        <time>2018-02-07T14:33:32Z</time>
      </trkpt>
      <trkpt lat="45.10495" lon="5.45956">
        <ele>1005</ele>
        <time>2018-02-07T14:34:32Z</time>
      </trkpt>
      <trkpt lat="45.1052" lon="5.45954">
        <ele>1006</ele>
        <time>2018-02-07T14:35:32Z</time>
      </trkpt>
      <trkpt lat="45.10545" lon="5.45952">
        <ele>1007</ele>
        <time>2018-02-07T14:36:32Z</time>
      </trkpt>
      <trkpt lat="45.10572" lon="5.45947">
        <ele>1009</ele>
        <time>2018-02-07T14:37:32Z</time>
      </trkpt>
      <trkpt lat="45.10585" lon="5.45943">
        <ele>1010</ele>
        <time>2018-02-07T14:38:32Z</time>
      </trkpt>
      <trkpt lat="45.10598" lon="5.4594">
        <ele>1013</ele>
        <time>2018-02-07T14:39:32Z</time>
      </trkpt>
      <trkpt lat="45.10606" lon="5.4594">
        <ele>1014</ele>
        <time>2018-02-07T14:40:32Z</time>
      </trkpt>
      <trkpt lat="45.10614" lon="5.45943">
        <ele>1015</ele>
        <time>2018-02-07T14:41:32Z</time>
      </trkpt>
      <trkpt lat="45.10618" lon="5.45947">
        <ele>1015</ele>
        <time>2018-02-07T14:42:32Z</time>
      </trkpt>
      <trkpt lat="45.10621" lon="5.45952">
        <ele>1015</ele>
        <time>2018-02-07T14:43:32Z</time>
      </trkpt>
      <trkpt lat="45.10624" lon="5.45958">
        <ele>1015</ele>
        <time>2018-02-07T14:44:32Z</time>
      </trkpt>
      <trkpt lat="45.10629" lon="5.45967">
        <ele>1014</ele>
        <time>2018-02-07T14:45:32Z</time>
      </trkpt>
      <trkpt lat="45.1063" lon="5.4597">
        <ele>1014</ele>
        <time>2018-02-07T14:46:32Z</time>
      </trkpt>
      <trkpt lat="45.10634" lon="5.45975">
        <ele>1013</ele>
        <time>2018-02-07T14:47:32Z</time>
      </trkpt>
      <trkpt lat="45.10638" lon="5.4598">
        <ele>1013</ele>
        <time>2018-02-07T14:48:32Z</time>
      </trkpt>
      <trkpt lat="45.10647" lon="5.45986">
        <ele>1014</ele>
        <time>2018-02-07T14:49:32Z</time>
      </trkpt>
      <trkpt lat="45.10662" lon="5.45995">
        <ele>1014</ele>
        <time>2018-02-07T14:50:32Z</time>
      </trkpt>
      <trkpt lat="45.10668" lon="5.45997">
        <ele>1015</ele>
        <time>2018-02-07T14:51:32Z</time>
      </trkpt>
      <trkpt lat="45.10672" lon="5.45998">
        <ele>1015</ele>
        <time>2018-02-07T14:52:32Z</time>
      </trkpt>
      <trkpt lat="45.10676" lon="5.45998">
        <ele>1015</ele>
        <time>2018-02-07T14:53:32Z</time>
      </trkpt>
      <trkpt lat="45.10678" lon="5.45997">
        <ele>1015</ele>
        <time>2018-02-07T14:54:32Z</time>
      </trkpt>
    </trkseg>
  </trk>
</gpx>